<?xml version='1.0' encoding='UTF-8'?><gpx version="1.1" creator="JPX - https://github.com/jenetics/jpx" xmlns="http://www.topografix.com/GPX/1/1"><trk><trkseg><trkpt lat="45.15575554049902" lon="9.6846558211297"><ele>59.0</ele><time>2026-05-04T11:51:43Z</time></trkpt><trkpt lat="45.155843621075405" lon="9.684580480767337"><ele>59.0</ele><time>2026-05-04T11:51:45Z</time></trkpt><trkpt lat="45.15577945034824" lon="9.684596069342104"><ele>59.0</ele><time>2026-05-04T11:51:59Z</time></trkpt><trkpt lat="45.15575984774321" lon="9.684980840051688"><ele>59.0</ele><time>2026-05-04T11:52:05Z</time></trkpt><trkpt lat="45.15577933292771" lon="9.685117547612938"><ele>59.0</ele><time>2026-05-04T11:52:07Z</time></trkpt><trkpt lat="45.15587010211317" lon="9.685211462807573"><ele>59.00000000000001</ele><time>2026-05-04T11:52:09Z</time></trkpt><trkpt lat="45.15593024228208" lon="9.685299215112373"><ele>59.00000000000001</ele><time>2026-05-04T11:52:11Z</time></trkpt><trkpt lat="45.15590718126589" lon="9.685405170125843"><ele>59.0</ele><time>2026-05-04T11:52:13Z</time></trkpt><trkpt lat="45.155806478116894" lon="9.685451489984127"><ele>59.0</ele><time>2026-05-04T11:52:15Z</time></trkpt><trkpt lat="45.15573907371415" lon="9.685452007402272"><ele>59.2</ele><time>2026-05-04T11:52:16Z</time></trkpt><trkpt lat="45.155652142074466" lon="9.685461744764474"><ele>59.400000000000006</ele><time>2026-05-04T11:52:17Z</time></trkpt><trkpt lat="45.1555586069491" lon="9.68546993472095"><ele>59.6</ele><time>2026-05-04T11:52:18Z</time></trkpt><trkpt lat="45.1554609017132" lon="9.68548806983457"><ele>59.8</ele><time>2026-05-04T11:52:19Z</time></trkpt><trkpt lat="45.15536036878241" lon="9.68551606581428"><ele>60.0</ele><time>2026-05-04T11:52:20Z</time></trkpt><trkpt lat="45.15525691124278" lon="9.685554415858668"><ele>60.0</ele><time>2026-05-04T11:52:21Z</time></trkpt><trkpt lat="45.155155219314786" lon="9.685599835790144"><ele>60.0</ele><time>2026-05-04T11:52:22Z</time></trkpt><trkpt lat="45.155055569669855" lon="9.68564553217894"><ele>60.0</ele><time>2026-05-04T11:52:23Z</time></trkpt><trkpt lat="45.154955851520974" lon="9.685690044875452"><ele>60.0</ele><time>2026-05-04T11:52:24Z</time></trkpt><trkpt lat="45.154855775827286" lon="9.685723520700304"><ele>60.0</ele><time>2026-05-04T11:52:25Z</time></trkpt><trkpt lat="45.154763077795984" lon="9.685755546241593"><ele>60.0</ele><time>2026-05-04T11:52:26Z</time></trkpt><trkpt lat="45.15467594129484" lon="9.68578595011649"><ele>60.0</ele><time>2026-05-04T11:52:27Z</time></trkpt><trkpt lat="45.15453027527727" lon="9.685856246931394"><ele>60.0</ele><time>2026-05-04T11:52:29Z</time></trkpt><trkpt lat="45.15446976210837" lon="9.685882424930783"><ele>60.0</ele><time>2026-05-04T11:52:30Z</time></trkpt><trkpt lat="45.15438850945146" lon="9.685915894429534"><ele>60.0</ele><time>2026-05-04T11:52:32Z</time></trkpt><trkpt lat="45.15432304139043" lon="9.685911901474775"><ele>60.0</ele><time>2026-05-04T11:52:35Z</time></trkpt><trkpt lat="45.15424925572066" lon="9.685798268264147"><ele>60.0</ele><time>2026-05-04T11:52:44Z</time></trkpt><trkpt lat="45.154210170166564" lon="9.685674051934605"><ele>60.0</ele><time>2026-05-04T11:52:45Z</time></trkpt><trkpt lat="45.154157219167885" lon="9.685541598102873"><ele>60.0</ele><time>2026-05-04T11:52:46Z</time></trkpt><trkpt lat="45.1540943627429" lon="9.685386691090216"><ele>60.0</ele><time>2026-05-04T11:52:47Z</time></trkpt><trkpt lat="45.15402743577538" lon="9.685222126690688"><ele>60.0</ele><time>2026-05-04T11:52:48Z</time></trkpt><trkpt lat="45.153948315831045" lon="9.685039191890791"><ele>60.0</ele><time>2026-05-04T11:52:49Z</time></trkpt><trkpt lat="45.153862400671265" lon="9.684841514671934"><ele>60.0</ele><time>2026-05-04T11:52:50Z</time></trkpt><trkpt lat="45.1537713939929" lon="9.684644539036052"><ele>60.0</ele><time>2026-05-04T11:52:51Z</time></trkpt><trkpt lat="45.15367900360563" lon="9.684441325025329"><ele>60.0</ele><time>2026-05-04T11:52:52Z</time></trkpt><trkpt lat="45.15358067969796" lon="9.684230957610547"><ele>60.0</ele><time>2026-05-04T11:52:53Z</time></trkpt><trkpt lat="45.15347868520192" lon="9.684019609153228"><ele>60.0</ele><time>2026-05-04T11:52:54Z</time></trkpt><trkpt lat="45.153379353048656" lon="9.683813024069561"><ele>60.0</ele><time>2026-05-04T11:52:55Z</time></trkpt><trkpt lat="45.15327541542862" lon="9.683603688482554"><ele>60.0</ele><time>2026-05-04T11:52:56Z</time></trkpt><trkpt lat="45.15317125346081" lon="9.683386637967871"><ele>59.33333333333333</ele><time>2026-05-04T11:52:57Z</time></trkpt><trkpt lat="45.153071889552905" lon="9.683164785756084"><ele>58.666666666666664</ele><time>2026-05-04T11:52:58Z</time></trkpt><trkpt lat="45.152973695980826" lon="9.68293917987932"><ele>58.0</ele><time>2026-05-04T11:52:59Z</time></trkpt><trkpt lat="45.15287350839124" lon="9.682708774204896"><ele>58.0</ele><time>2026-05-04T11:53:00Z</time></trkpt><trkpt lat="45.152777222863605" lon="9.682482174730298"><ele>58.0</ele><time>2026-05-04T11:53:01Z</time></trkpt><trkpt lat="45.152670143033085" lon="9.682252753930792"><ele>58.0</ele><time>2026-05-04T11:53:02Z</time></trkpt><trkpt lat="45.15256477147027" lon="9.682018557091691"><ele>58.0</ele><time>2026-05-04T11:53:03Z</time></trkpt><trkpt lat="45.15246078290184" lon="9.681784239779482"><ele>58.0</ele><time>2026-05-04T11:53:04Z</time></trkpt><trkpt lat="45.15235606447364" lon="9.681553141292529"><ele>58.0</ele><time>2026-05-04T11:53:05Z</time></trkpt><trkpt lat="45.15225321038198" lon="9.681322951924633"><ele>57.666666666666664</ele><time>2026-05-04T11:53:06Z</time></trkpt><trkpt lat="45.15215261168663" lon="9.681098229045418"><ele>57.33333333333333</ele><time>2026-05-04T11:53:07Z</time></trkpt><trkpt lat="45.15205220002227" lon="9.680874749808476"><ele>57.0</ele><time>2026-05-04T11:53:08Z</time></trkpt><trkpt lat="45.151960051735884" lon="9.680654348664525"><ele>57.0</ele><time>2026-05-04T11:53:09Z</time></trkpt><trkpt lat="45.151879029371194" lon="9.68043092848435"><ele>57.0</ele><time>2026-05-04T11:53:10Z</time></trkpt><trkpt lat="45.15181002219395" lon="9.680202930585434"><ele>57.0</ele><time>2026-05-04T11:53:11Z</time></trkpt><trkpt lat="45.15175764174437" lon="9.679963555336089"><ele>57.66666666666667</ele><time>2026-05-04T11:53:12Z</time></trkpt><trkpt lat="45.15172520501759" lon="9.679720327728717"><ele>58.333333333333336</ele><time>2026-05-04T11:53:13Z</time></trkpt><trkpt lat="45.151696756473214" lon="9.679480155973687"><ele>59.0</ele><time>2026-05-04T11:53:14Z</time></trkpt><trkpt lat="45.15166067054982" lon="9.679230854085292"><ele>59.0</ele><time>2026-05-04T11:53:15Z</time></trkpt><trkpt lat="45.15162479197016" lon="9.678985101872021"><ele>59.0</ele><time>2026-05-04T11:53:16Z</time></trkpt><trkpt lat="45.15158293992026" lon="9.678730599446393"><ele>59.0</ele><time>2026-05-04T11:53:17Z</time></trkpt><trkpt lat="45.15154483402406" lon="9.678476675937182"><ele>58.66666666666667</ele><time>2026-05-04T11:53:18Z</time></trkpt><trkpt lat="45.151502709656754" lon="9.678222540567935"><ele>58.33333333333333</ele><time>2026-05-04T11:53:19Z</time></trkpt><trkpt lat="45.15146123498156" lon="9.677963885189445"><ele>58.0</ele><time>2026-05-04T11:53:20Z</time></trkpt><trkpt lat="45.15142098918649" lon="9.677703677229047"><ele>57.666666666666664</ele><time>2026-05-04T11:53:21Z</time></trkpt><trkpt lat="45.15138203635358" lon="9.677443534402952"><ele>57.33333333333333</ele><time>2026-05-04T11:53:22Z</time></trkpt><trkpt lat="45.15134040802121" lon="9.677183571060025"><ele>57.0</ele><time>2026-05-04T11:53:23Z</time></trkpt><trkpt lat="45.151301353184" lon="9.676928213177836"><ele>58.0</ele><time>2026-05-04T11:53:24Z</time></trkpt><trkpt lat="45.15126284746135" lon="9.676683604852268"><ele>59.0</ele><time>2026-05-04T11:53:25Z</time></trkpt><trkpt lat="45.151227527986705" lon="9.67644320530676"><ele>60.0</ele><time>2026-05-04T11:53:26Z</time></trkpt><trkpt lat="45.15118793077838" lon="9.676206231991925"><ele>60.0</ele><time>2026-05-04T11:53:27Z</time></trkpt><trkpt lat="45.15114878264675" lon="9.675970255032524"><ele>60.0</ele><time>2026-05-04T11:53:28Z</time></trkpt><trkpt lat="45.15111104051558" lon="9.67573423341095"><ele>60.0</ele><time>2026-05-04T11:53:29Z</time></trkpt><trkpt lat="45.15107399328347" lon="9.67549297310402"><ele>59.66666666666667</ele><time>2026-05-04T11:53:30Z</time></trkpt><trkpt lat="45.15103563706228" lon="9.675246375982669"><ele>59.333333333333336</ele><time>2026-05-04T11:53:31Z</time></trkpt><trkpt lat="45.150997879472655" lon="9.674999536886952"><ele>59.0</ele><time>2026-05-04T11:53:32Z</time></trkpt><trkpt lat="45.150960407672706" lon="9.674755362923934"><ele>59.0</ele><time>2026-05-04T11:53:33Z</time></trkpt><trkpt lat="45.15092084884279" lon="9.674519592833104"><ele>59.0</ele><time>2026-05-04T11:53:34Z</time></trkpt><trkpt lat="45.150886172818495" lon="9.67429477379596"><ele>59.0</ele><time>2026-05-04T11:53:35Z</time></trkpt><trkpt lat="45.1508518464206" lon="9.674079041710366"><ele>59.0</ele><time>2026-05-04T11:53:36Z</time></trkpt><trkpt lat="45.15081980177504" lon="9.673879679955693"><ele>59.0</ele><time>2026-05-04T11:53:37Z</time></trkpt><trkpt lat="45.150795516097595" lon="9.673682952855284"><ele>59.0</ele><time>2026-05-04T11:53:38Z</time></trkpt><trkpt lat="45.15077709854998" lon="9.6734866960595"><ele>59.0</ele><time>2026-05-04T11:53:39Z</time></trkpt><trkpt lat="45.15076182922284" lon="9.673302435756417"><ele>59.0</ele><time>2026-05-04T11:53:40Z</time></trkpt><trkpt lat="45.15074982791075" lon="9.67313400370719"><ele>59.00000000000001</ele><time>2026-05-04T11:53:41Z</time></trkpt><trkpt lat="45.15074490378008" lon="9.6729789654354"><ele>59.00000000000001</ele><time>2026-05-04T11:53:42Z</time></trkpt><trkpt lat="45.15075924762643" lon="9.6728361019663"><ele>59.0</ele><time>2026-05-04T11:53:43Z</time></trkpt><trkpt lat="45.15078102301394" lon="9.672705815300422"><ele>59.0</ele><time>2026-05-04T11:53:44Z</time></trkpt><trkpt lat="45.15077147721135" lon="9.67259088225254"><ele>58.25</ele><time>2026-05-04T11:53:45Z</time></trkpt><trkpt lat="45.15064594806321" lon="9.672449077754349"><ele>57.5</ele><time>2026-05-04T11:53:47Z</time></trkpt><trkpt lat="45.150557346636504" lon="9.672452772191237"><ele>56.75</ele><time>2026-05-04T11:53:48Z</time></trkpt><trkpt lat="45.1504610833261" lon="9.672533311868717"><ele>56.0</ele><time>2026-05-04T11:53:49Z</time></trkpt><trkpt lat="45.150382307252606" lon="9.672669338780642"><ele>56.75</ele><time>2026-05-04T11:53:50Z</time></trkpt><trkpt lat="45.15028995428336" lon="9.672813335621557"><ele>57.5</ele><time>2026-05-04T11:53:51Z</time></trkpt><trkpt lat="45.150182478634875" lon="9.67295023542583"><ele>58.25</ele><time>2026-05-04T11:53:52Z</time></trkpt><trkpt lat="45.150062712374655" lon="9.673079748968947"><ele>59.0</ele><time>2026-05-04T11:53:53Z</time></trkpt><trkpt lat="45.14993091606765" lon="9.673202402231494"><ele>58.66666666666667</ele><time>2026-05-04T11:53:54Z</time></trkpt><trkpt lat="45.149784816380205" lon="9.673312339721095"><ele>58.33333333333333</ele><time>2026-05-04T11:53:55Z</time></trkpt><trkpt lat="45.14962602405696" lon="9.673431720228283"><ele>58.0</ele><time>2026-05-04T11:53:56Z</time></trkpt><trkpt lat="45.14946717226209" lon="9.673552918640336"><ele>58.0</ele><time>2026-05-04T11:53:57Z</time></trkpt><trkpt lat="45.14930502433417" lon="9.673679362222105"><ele>58.0</ele><time>2026-05-04T11:53:58Z</time></trkpt><trkpt lat="45.149140722184555" lon="9.673815764933769"><ele>58.0</ele><time>2026-05-04T11:53:59Z</time></trkpt><trkpt lat="45.14898169869707" lon="9.673962841722117"><ele>58.0</ele><time>2026-05-04T11:54:00Z</time></trkpt><trkpt lat="45.14870276863907" lon="9.674331401880314"><ele>58.0</ele><time>2026-05-04T11:54:02Z</time></trkpt><trkpt lat="45.148568731132414" lon="9.674526009783612"><ele>58.0</ele><time>2026-05-04T11:54:03Z</time></trkpt><trkpt lat="45.148426781214596" lon="9.674705600769748"><ele>58.0</ele><time>2026-05-04T11:54:04Z</time></trkpt><trkpt lat="45.14829840351119" lon="9.674914297694638"><ele>58.0</ele><time>2026-05-04T11:54:05Z</time></trkpt><trkpt lat="45.14816642760713" lon="9.675117671912853"><ele>57.666666666666664</ele><time>2026-05-04T11:54:06Z</time></trkpt><trkpt lat="45.148037427767235" lon="9.675312125791768"><ele>57.33333333333333</ele><time>2026-05-04T11:54:07Z</time></trkpt><trkpt lat="45.147903603539014" lon="9.675503136280364"><ele>57.0</ele><time>2026-05-04T11:54:08Z</time></trkpt><trkpt lat="45.14776874123732" lon="9.67570071731718"><ele>57.0</ele><time>2026-05-04T11:54:09Z</time></trkpt><trkpt lat="45.147634254123794" lon="9.675893687906175"><ele>57.0</ele><time>2026-05-04T11:54:10Z</time></trkpt><trkpt lat="45.14750397858126" lon="9.67608995002864"><ele>57.0</ele><time>2026-05-04T11:54:11Z</time></trkpt><trkpt lat="45.14737193229464" lon="9.676279928031173"><ele>57.33333333333333</ele><time>2026-05-04T11:54:12Z</time></trkpt><trkpt lat="45.147236217077264" lon="9.676471757425654"><ele>57.666666666666664</ele><time>2026-05-04T11:54:13Z</time></trkpt><trkpt lat="45.147104253124475" lon="9.67666228079698"><ele>58.0</ele><time>2026-05-04T11:54:14Z</time></trkpt><trkpt lat="45.14696895173769" lon="9.676854714328249"><ele>57.666666666666664</ele><time>2026-05-04T11:54:15Z</time></trkpt><trkpt lat="45.146834544181225" lon="9.677059161717604"><ele>57.33333333333333</ele><time>2026-05-04T11:54:16Z</time></trkpt><trkpt lat="45.146687017892674" lon="9.677270857857428"><ele>57.0</ele><time>2026-05-04T11:54:17Z</time></trkpt><trkpt lat="45.146535943512994" lon="9.677481412877539"><ele>57.0</ele><time>2026-05-04T11:54:18Z</time></trkpt><trkpt lat="45.14637851804287" lon="9.677691488168197"><ele>57.0</ele><time>2026-05-04T11:54:19Z</time></trkpt><trkpt lat="45.14621746331233" lon="9.677900242890766"><ele>57.0</ele><time>2026-05-04T11:54:20Z</time></trkpt><trkpt lat="45.14604720920197" lon="9.678093385082198"><ele>57.0</ele><time>2026-05-04T11:54:21Z</time></trkpt><trkpt lat="45.14586401410799" lon="9.678264629456391"><ele>57.0</ele><time>2026-05-04T11:54:22Z</time></trkpt><trkpt lat="45.14567796672012" lon="9.67842266532391"><ele>57.0</ele><time>2026-05-04T11:54:23Z</time></trkpt><trkpt lat="45.145491159609776" lon="9.678579403143148"><ele>56.0</ele><time>2026-05-04T11:54:24Z</time></trkpt><trkpt lat="45.14530371617194" lon="9.678743202928947"><ele>55.0</ele><time>2026-05-04T11:54:25Z</time></trkpt><trkpt lat="45.145115849969166" lon="9.678908646458071"><ele>54.0</ele><time>2026-05-04T11:54:26Z</time></trkpt><trkpt lat="45.14492871645264" lon="9.67907228405162"><ele>54.33333333333333</ele><time>2026-05-04T11:54:27Z</time></trkpt><trkpt lat="45.14474465167054" lon="9.679233982387768"><ele>54.666666666666664</ele><time>2026-05-04T11:54:28Z</time></trkpt><trkpt lat="45.14455803484382" lon="9.67939714778882"><ele>55.0</ele><time>2026-05-04T11:54:29Z</time></trkpt><trkpt lat="45.14437514118978" lon="9.679560834799158"><ele>55.0</ele><time>2026-05-04T11:54:30Z</time></trkpt><trkpt lat="45.144190647361974" lon="9.679729768358635"><ele>55.0</ele><time>2026-05-04T11:54:31Z</time></trkpt><trkpt lat="45.14400543513592" lon="9.679901521667292"><ele>55.0</ele><time>2026-05-04T11:54:32Z</time></trkpt><trkpt lat="45.14381897577361" lon="9.6800684295928"><ele>55.0</ele><time>2026-05-04T11:54:33Z</time></trkpt><trkpt lat="45.1436342812282" lon="9.680233178578483"><ele>55.0</ele><time>2026-05-04T11:54:34Z</time></trkpt><trkpt lat="45.14344986459142" lon="9.680399428675637"><ele>55.0</ele><time>2026-05-04T11:54:35Z</time></trkpt><trkpt lat="45.14326739769202" lon="9.680561697675527"><ele>55.33333333333333</ele><time>2026-05-04T11:54:36Z</time></trkpt><trkpt lat="45.143081040097684" lon="9.680719444490832"><ele>55.66666666666667</ele><time>2026-05-04T11:54:37Z</time></trkpt><trkpt lat="45.14289175637738" lon="9.68087078449452"><ele>56.0</ele><time>2026-05-04T11:54:38Z</time></trkpt><trkpt lat="45.142700913002585" lon="9.681016787060432"><ele>56.333333333333336</ele><time>2026-05-04T11:54:39Z</time></trkpt><trkpt lat="45.14251084157761" lon="9.681168466821823"><ele>56.66666666666667</ele><time>2026-05-04T11:54:40Z</time></trkpt><trkpt lat="45.14232444191004" lon="9.681329683096811"><ele>57.0</ele><time>2026-05-04T11:54:41Z</time></trkpt><trkpt lat="45.14214421016253" lon="9.681501687970284"><ele>56.66666666666667</ele><time>2026-05-04T11:54:42Z</time></trkpt><trkpt lat="45.141967618486895" lon="9.681674783447408"><ele>56.333333333333336</ele><time>2026-05-04T11:54:43Z</time></trkpt><trkpt lat="45.14179096520368" lon="9.68185336299958"><ele>56.0</ele><time>2026-05-04T11:54:44Z</time></trkpt><trkpt lat="45.14160863349713" lon="9.682025002574516"><ele>55.66666666666667</ele><time>2026-05-04T11:54:45Z</time></trkpt><trkpt lat="45.141428455318845" lon="9.68219188689403"><ele>55.33333333333333</ele><time>2026-05-04T11:54:46Z</time></trkpt><trkpt lat="45.14125177304226" lon="9.682351946537244"><ele>55.0</ele><time>2026-05-04T11:54:47Z</time></trkpt><trkpt lat="45.14107832758594" lon="9.682512762650912"><ele>55.0</ele><time>2026-05-04T11:54:48Z</time></trkpt><trkpt lat="45.14090617837082" lon="9.682669856435018"><ele>55.0</ele><time>2026-05-04T11:54:49Z</time></trkpt><trkpt lat="45.14073237652105" lon="9.6828240283785"><ele>55.0</ele><time>2026-05-04T11:54:50Z</time></trkpt><trkpt lat="45.14055461764032" lon="9.68297390354192"><ele>55.666666666666664</ele><time>2026-05-04T11:54:51Z</time></trkpt><trkpt lat="45.140378249960925" lon="9.683127163400675"><ele>56.33333333333333</ele><time>2026-05-04T11:54:52Z</time></trkpt><trkpt lat="45.14020403553914" lon="9.683287019780488"><ele>57.0</ele><time>2026-05-04T11:54:53Z</time></trkpt><trkpt lat="45.1400383042084" lon="9.683437640111704"><ele>57.0</ele><time>2026-05-04T11:54:54Z</time></trkpt><trkpt lat="45.139879813090374" lon="9.683580599878812"><ele>57.0</ele><time>2026-05-04T11:54:55Z</time></trkpt><trkpt lat="45.13972496854397" lon="9.683717628777687"><ele>57.0</ele><time>2026-05-04T11:54:56Z</time></trkpt><trkpt lat="45.13957003943369" lon="9.683850203642104"><ele>55.66666666666667</ele><time>2026-05-04T11:54:57Z</time></trkpt><trkpt lat="45.13941637197322" lon="9.683984528968962"><ele>54.333333333333336</ele><time>2026-05-04T11:54:58Z</time></trkpt><trkpt lat="45.13927045398488" lon="9.68411386252739"><ele>53.0</ele><time>2026-05-04T11:54:59Z</time></trkpt><trkpt lat="45.139132596189114" lon="9.684239666176222"><ele>53.5</ele><time>2026-05-04T11:55:00Z</time></trkpt><trkpt lat="45.139001764675875" lon="9.684352383470593"><ele>54.0</ele><time>2026-05-04T11:55:01Z</time></trkpt><trkpt lat="45.13887530269303" lon="9.684461155656242"><ele>54.5</ele><time>2026-05-04T11:55:02Z</time></trkpt><trkpt lat="45.13875210156684" lon="9.684574148458989"><ele>55.0</ele><time>2026-05-04T11:55:03Z</time></trkpt><trkpt lat="45.138634144017985" lon="9.684681950664212"><ele>55.0</ele><time>2026-05-04T11:55:04Z</time></trkpt><trkpt lat="45.138522340535864" lon="9.684775516548376"><ele>55.0</ele><time>2026-05-04T11:55:05Z</time></trkpt><trkpt lat="45.138409655100695" lon="9.684854086556811"><ele>55.0</ele><time>2026-05-04T11:55:06Z</time></trkpt><trkpt lat="45.1382996355034" lon="9.68493816163144"><ele>55.0</ele><time>2026-05-04T11:55:07Z</time></trkpt><trkpt lat="45.13816762467904" lon="9.684882493287393"><ele>55.25</ele><time>2026-05-04T11:55:08Z</time></trkpt><trkpt lat="45.13803172124811" lon="9.684855972121026"><ele>55.5</ele><time>2026-05-04T11:55:09Z</time></trkpt><trkpt lat="45.137885330117385" lon="9.684831589535474"><ele>55.75</ele><time>2026-05-04T11:55:10Z</time></trkpt><trkpt lat="45.13773090681574" lon="9.684824161168521"><ele>56.0</ele><time>2026-05-04T11:55:11Z</time></trkpt><trkpt lat="45.13757261972251" lon="9.684789333774312"><ele>56.0</ele><time>2026-05-04T11:55:12Z</time></trkpt><trkpt lat="45.13741930772042" lon="9.684752052861258"><ele>56.0</ele><time>2026-05-04T11:55:13Z</time></trkpt><trkpt lat="45.13726905242894" lon="9.684713090373462"><ele>56.0</ele><time>2026-05-04T11:55:14Z</time></trkpt><trkpt lat="45.13712058984245" lon="9.684670488003245"><ele>56.0</ele><time>2026-05-04T11:55:15Z</time></trkpt><trkpt lat="45.136971262778395" lon="9.684623094279777"><ele>56.0</ele><time>2026-05-04T11:55:16Z</time></trkpt><trkpt lat="45.136822794976204" lon="9.684572296598997"><ele>56.0</ele><time>2026-05-04T11:55:17Z</time></trkpt><trkpt lat="45.136677281684996" lon="9.684528084545988"><ele>56.5</ele><time>2026-05-04T11:55:18Z</time></trkpt><trkpt lat="45.13654025522867" lon="9.684453503147955"><ele>57.0</ele><time>2026-05-04T11:55:19Z</time></trkpt><trkpt lat="45.13639275485791" lon="9.684420365231924"><ele>57.5</ele><time>2026-05-04T11:55:20Z</time></trkpt><trkpt lat="45.136247935974716" lon="9.684377191763208"><ele>58.0</ele><time>2026-05-04T11:55:21Z</time></trkpt><trkpt lat="45.13610247927175" lon="9.684327757940098"><ele>58.0</ele><time>2026-05-04T11:55:22Z</time></trkpt><trkpt lat="45.13595386122686" lon="9.68428231122307"><ele>58.0</ele><time>2026-05-04T11:55:23Z</time></trkpt><trkpt lat="45.1358054622819" lon="9.684238552862121"><ele>58.0</ele><time>2026-05-04T11:55:24Z</time></trkpt><trkpt lat="45.135657491645794" lon="9.684198597808164"><ele>56.0</ele><time>2026-05-04T11:55:25Z</time></trkpt><trkpt lat="45.135508657286664" lon="9.684197558319033"><ele>54.0</ele><time>2026-05-04T11:55:26Z</time></trkpt><trkpt lat="45.13535718579995" lon="9.684206184924033"><ele>52.0</ele><time>2026-05-04T11:55:27Z</time></trkpt><trkpt lat="45.13520442676776" lon="9.684211846576531"><ele>52.0</ele><time>2026-05-04T11:55:28Z</time></trkpt><trkpt lat="45.13504607028839" lon="9.68421980838917"><ele>52.0</ele><time>2026-05-04T11:55:29Z</time></trkpt><trkpt lat="45.13489342169482" lon="9.684231883086152"><ele>52.0</ele><time>2026-05-04T11:55:30Z</time></trkpt><trkpt lat="45.1347426158049" lon="9.6842464248939"><ele>50.33333333333333</ele><time>2026-05-04T11:55:31Z</time></trkpt><trkpt lat="45.134582714237204" lon="9.684262094250522"><ele>48.666666666666664</ele><time>2026-05-04T11:55:32Z</time></trkpt><trkpt lat="45.134423226032474" lon="9.684272090060958"><ele>47.0</ele><time>2026-05-04T11:55:33Z</time></trkpt><trkpt lat="45.13426505921837" lon="9.684284459660057"><ele>47.0</ele><time>2026-05-04T11:55:34Z</time></trkpt><trkpt lat="45.134109594638566" lon="9.684295198768712"><ele>47.0</ele><time>2026-05-04T11:55:35Z</time></trkpt><trkpt lat="45.13395782948344" lon="9.684310903391873"><ele>47.0</ele><time>2026-05-04T11:55:36Z</time></trkpt><trkpt lat="45.13380602835285" lon="9.6843303179644"><ele>46.33333333333333</ele><time>2026-05-04T11:55:37Z</time></trkpt><trkpt lat="45.13365127188384" lon="9.684352819983044"><ele>45.666666666666664</ele><time>2026-05-04T11:55:38Z</time></trkpt><trkpt lat="45.13349484249342" lon="9.684372413098455"><ele>45.0</ele><time>2026-05-04T11:55:39Z</time></trkpt><trkpt lat="45.133338248881905" lon="9.684391098085777"><ele>45.333333333333336</ele><time>2026-05-04T11:55:40Z</time></trkpt><trkpt lat="45.13317886047983" lon="9.684414206468801"><ele>45.66666666666667</ele><time>2026-05-04T11:55:41Z</time></trkpt><trkpt lat="45.133019659253364" lon="9.684439786911144"><ele>46.0</ele><time>2026-05-04T11:55:42Z</time></trkpt><trkpt lat="45.13286101722386" lon="9.68446163745378"><ele>45.0</ele><time>2026-05-04T11:55:43Z</time></trkpt><trkpt lat="45.132700453499915" lon="9.684486504889277"><ele>44.0</ele><time>2026-05-04T11:55:44Z</time></trkpt><trkpt lat="45.1325411276655" lon="9.68451016735688"><ele>43.0</ele><time>2026-05-04T11:55:45Z</time></trkpt><trkpt lat="45.13239415971512" lon="9.684534712603655"><ele>43.5</ele><time>2026-05-04T11:55:46Z</time></trkpt><trkpt lat="45.13225026754119" lon="9.684556323633513"><ele>44.0</ele><time>2026-05-04T11:55:47Z</time></trkpt><trkpt lat="45.13210665935153" lon="9.684583111528829"><ele>44.5</ele><time>2026-05-04T11:55:48Z</time></trkpt><trkpt lat="45.13196642832219" lon="9.684605889823287"><ele>45.0</ele><time>2026-05-04T11:55:49Z</time></trkpt><trkpt lat="45.13183688561634" lon="9.684628166948274"><ele>45.0</ele><time>2026-05-04T11:55:50Z</time></trkpt><trkpt lat="45.131704283841216" lon="9.684655202818353"><ele>45.0</ele><time>2026-05-04T11:55:51Z</time></trkpt><trkpt lat="45.131568429310754" lon="9.684679700474405"><ele>45.0</ele><time>2026-05-04T11:55:52Z</time></trkpt><trkpt lat="45.13142856657317" lon="9.684701076740422"><ele>45.0</ele><time>2026-05-04T11:55:53Z</time></trkpt><trkpt lat="45.13128977518004" lon="9.68472386172912"><ele>45.0</ele><time>2026-05-04T11:55:54Z</time></trkpt><trkpt lat="45.131150905810124" lon="9.684752751159099"><ele>45.0</ele><time>2026-05-04T11:55:55Z</time></trkpt><trkpt lat="45.13101019727367" lon="9.684782399700161"><ele>45.0</ele><time>2026-05-04T11:55:56Z</time></trkpt><trkpt lat="45.13086867357069" lon="9.68480803317472"><ele>45.0</ele><time>2026-05-04T11:55:57Z</time></trkpt><trkpt lat="45.13072857961824" lon="9.68483388026759"><ele>45.25</ele><time>2026-05-04T11:55:58Z</time></trkpt><trkpt lat="45.13058822298381" lon="9.684854493366505"><ele>45.5</ele><time>2026-05-04T11:55:59Z</time></trkpt><trkpt lat="45.130439066941975" lon="9.68488190142704"><ele>45.75</ele><time>2026-05-04T11:56:00Z</time></trkpt><trkpt lat="45.130283170413136" lon="9.6849141741232"><ele>46.0</ele><time>2026-05-04T11:56:01Z</time></trkpt><trkpt lat="45.13012630976034" lon="9.684945799518657"><ele>46.0</ele><time>2026-05-04T11:56:02Z</time></trkpt><trkpt lat="45.12997294684239" lon="9.68497533786474"><ele>46.0</ele><time>2026-05-04T11:56:03Z</time></trkpt><trkpt lat="45.129833565478854" lon="9.684999433060256"><ele>46.0</ele><time>2026-05-04T11:56:04Z</time></trkpt><trkpt lat="45.12969839617562" lon="9.685022196170172"><ele>46.0</ele><time>2026-05-04T11:56:05Z</time></trkpt><trkpt lat="45.129571217326905" lon="9.68503998193883"><ele>46.0</ele><time>2026-05-04T11:56:06Z</time></trkpt><trkpt lat="45.12945036726809" lon="9.685058713762922"><ele>46.0</ele><time>2026-05-04T11:56:07Z</time></trkpt><trkpt lat="45.12934193347714" lon="9.685076089782616"><ele>46.0</ele><time>2026-05-04T11:56:08Z</time></trkpt><trkpt lat="45.12923840860239" lon="9.685090762529125"><ele>46.0</ele><time>2026-05-04T11:56:09Z</time></trkpt><trkpt lat="45.129138799486796" lon="9.685104830943644"><ele>46.0</ele><time>2026-05-04T11:56:10Z</time></trkpt><trkpt lat="45.12904109143966" lon="9.685122622801346"><ele>46.0</ele><time>2026-05-04T11:56:11Z</time></trkpt><trkpt lat="45.12894575448355" lon="9.685134331363395"><ele>46.0</ele><time>2026-05-04T11:56:12Z</time></trkpt><trkpt lat="45.12884322218923" lon="9.685130105866959"><ele>46.0</ele><time>2026-05-04T11:56:13Z</time></trkpt><trkpt lat="45.12873313460035" lon="9.685095262326952"><ele>46.0</ele><time>2026-05-04T11:56:14Z</time></trkpt><trkpt lat="45.12862139120401" lon="9.685062228034845"><ele>46.0</ele><time>2026-05-04T11:56:15Z</time></trkpt><trkpt lat="45.128519350758914" lon="9.684954063674397"><ele>46.0</ele><time>2026-05-04T11:56:16Z</time></trkpt><trkpt lat="45.12840583908528" lon="9.68488860466539"><ele>46.0</ele><time>2026-05-04T11:56:17Z</time></trkpt><trkpt lat="45.12829109102014" lon="9.684825324985619"><ele>46.0</ele><time>2026-05-04T11:56:18Z</time></trkpt><trkpt lat="45.128179567478" lon="9.684761318889905"><ele>46.0</ele><time>2026-05-04T11:56:19Z</time></trkpt><trkpt lat="45.1280675143554" lon="9.684697890113974"><ele>46.5</ele><time>2026-05-04T11:56:20Z</time></trkpt><trkpt lat="45.12796098141264" lon="9.684631829885051"><ele>47.0</ele><time>2026-05-04T11:56:21Z</time></trkpt><trkpt lat="45.12785918896138" lon="9.684561742275056"><ele>47.5</ele><time>2026-05-04T11:56:22Z</time></trkpt><trkpt lat="45.12775252300696" lon="9.684493113929634"><ele>48.0</ele><time>2026-05-04T11:56:23Z</time></trkpt><trkpt lat="45.12763102933051" lon="9.684463765247186"><ele>48.0</ele><time>2026-05-04T11:56:24Z</time></trkpt><trkpt lat="45.127532190426116" lon="9.684415623587473"><ele>48.0</ele><time>2026-05-04T11:56:25Z</time></trkpt><trkpt lat="45.12742547044701" lon="9.68443526546653"><ele>48.0</ele><time>2026-05-04T11:56:26Z</time></trkpt><trkpt lat="45.12731873291072" lon="9.684493533667734"><ele>48.0</ele><time>2026-05-04T11:56:27Z</time></trkpt><trkpt lat="45.12722104499602" lon="9.684568470782708"><ele>48.0</ele><time>2026-05-04T11:56:28Z</time></trkpt><trkpt lat="45.12712358037087" lon="9.684655681398343"><ele>47.8</ele><time>2026-05-04T11:56:29Z</time></trkpt><trkpt lat="45.12703555773796" lon="9.684739900264285"><ele>47.599999999999994</ele><time>2026-05-04T11:56:30Z</time></trkpt><trkpt lat="45.12694546699797" lon="9.684817600065312"><ele>47.400000000000006</ele><time>2026-05-04T11:56:31Z</time></trkpt><trkpt lat="45.126852498921274" lon="9.68490296070858"><ele>47.2</ele><time>2026-05-04T11:56:32Z</time></trkpt><trkpt lat="45.12674997965198" lon="9.684988777676786"><ele>47.0</ele><time>2026-05-04T11:56:33Z</time></trkpt><trkpt lat="45.12664513755174" lon="9.685066179865203"><ele>46.5</ele><time>2026-05-04T11:56:34Z</time></trkpt><trkpt lat="45.12653314044998" lon="9.685141257423115"><ele>46.0</ele><time>2026-05-04T11:56:35Z</time></trkpt><trkpt lat="45.12642008065974" lon="9.685212268094086"><ele>45.5</ele><time>2026-05-04T11:56:36Z</time></trkpt><trkpt lat="45.126297149418335" lon="9.685285856318135"><ele>45.0</ele><time>2026-05-04T11:56:37Z</time></trkpt><trkpt lat="45.12616707735767" lon="9.685354793040078"><ele>45.0</ele><time>2026-05-04T11:56:38Z</time></trkpt><trkpt lat="45.126030642073054" lon="9.685425059812776"><ele>45.0</ele><time>2026-05-04T11:56:39Z</time></trkpt><trkpt lat="45.12588973946018" lon="9.685487019915106"><ele>45.0</ele><time>2026-05-04T11:56:40Z</time></trkpt><trkpt lat="45.12573587200664" lon="9.685550580722742"><ele>45.333333333333336</ele><time>2026-05-04T11:56:41Z</time></trkpt><trkpt lat="45.12557488853608" lon="9.685609989471946"><ele>45.66666666666667</ele><time>2026-05-04T11:56:42Z</time></trkpt><trkpt lat="45.125408820980525" lon="9.685675310123528"><ele>46.0</ele><time>2026-05-04T11:56:43Z</time></trkpt><trkpt lat="45.12523552989336" lon="9.685740535919123"><ele>46.0</ele><time>2026-05-04T11:56:44Z</time></trkpt><trkpt lat="45.12505781123526" lon="9.685808447879433"><ele>46.0</ele><time>2026-05-04T11:56:45Z</time></trkpt><trkpt lat="45.12487811514458" lon="9.685875035647568"><ele>46.0</ele><time>2026-05-04T11:56:46Z</time></trkpt><trkpt lat="45.12469078818683" lon="9.685932742003452"><ele>46.0</ele><time>2026-05-04T11:56:47Z</time></trkpt><trkpt lat="45.12450172948023" lon="9.68599581858744"><ele>46.0</ele><time>2026-05-04T11:56:48Z</time></trkpt><trkpt lat="45.124307670265466" lon="9.686057410654778"><ele>46.0</ele><time>2026-05-04T11:56:49Z</time></trkpt><trkpt lat="45.124104566351626" lon="9.686118956606089"><ele>46.0</ele><time>2026-05-04T11:56:50Z</time></trkpt><trkpt lat="45.12389466517669" lon="9.68616742127898"><ele>46.0</ele><time>2026-05-04T11:56:51Z</time></trkpt><trkpt lat="45.12367446017155" lon="9.686219047309134"><ele>46.0</ele><time>2026-05-04T11:56:52Z</time></trkpt><trkpt lat="45.12343816113474" lon="9.686271952042897"><ele>45.5</ele><time>2026-05-04T11:56:53Z</time></trkpt><trkpt lat="45.123201554342955" lon="9.686321080588211"><ele>45.0</ele><time>2026-05-04T11:56:54Z</time></trkpt><trkpt lat="45.12296322324069" lon="9.686357519607945"><ele>45.0</ele><time>2026-05-04T11:56:55Z</time></trkpt><trkpt lat="45.122725002510506" lon="9.686394681376845"><ele>45.0</ele><time>2026-05-04T11:56:56Z</time></trkpt><trkpt lat="45.12247990721807" lon="9.686432247955407"><ele>44.5</ele><time>2026-05-04T11:56:57Z</time></trkpt><trkpt lat="45.12223272779753" lon="9.686474546086755"><ele>44.0</ele><time>2026-05-04T11:56:58Z</time></trkpt><trkpt lat="45.121982245745095" lon="9.686514084657931"><ele>44.0</ele><time>2026-05-04T11:56:59Z</time></trkpt><trkpt lat="45.12173718160724" lon="9.686557134917642"><ele>44.0</ele><time>2026-05-04T11:57:00Z</time></trkpt><trkpt lat="45.12148741008689" lon="9.686602700468528"><ele>44.0</ele><time>2026-05-04T11:57:01Z</time></trkpt><trkpt lat="45.12123943085085" lon="9.686642983632188"><ele>44.0</ele><time>2026-05-04T11:57:02Z</time></trkpt><trkpt lat="45.12099695872949" lon="9.686680280744945"><ele>44.0</ele><time>2026-05-04T11:57:03Z</time></trkpt><trkpt lat="45.12076082634505" lon="9.686716382454872"><ele>44.0</ele><time>2026-05-04T11:57:04Z</time></trkpt><trkpt lat="45.120526131179126" lon="9.686754596028566"><ele>42.5</ele><time>2026-05-04T11:57:05Z</time></trkpt><trkpt lat="45.120289584454596" lon="9.686795034267739"><ele>41.0</ele><time>2026-05-04T11:57:06Z</time></trkpt><trkpt lat="45.12005290669479" lon="9.686835907939141"><ele>42.5</ele><time>2026-05-04T11:57:07Z</time></trkpt><trkpt lat="45.119815256505944" lon="9.686877369292805"><ele>44.0</ele><time>2026-05-04T11:57:08Z</time></trkpt><trkpt lat="45.11957542838084" lon="9.686921654801496"><ele>45.0</ele><time>2026-05-04T11:57:09Z</time></trkpt><trkpt lat="45.11933338195395" lon="9.686967676928125"><ele>46.0</ele><time>2026-05-04T11:57:10Z</time></trkpt><trkpt lat="45.119094811613365" lon="9.687012943368842"><ele>46.0</ele><time>2026-05-04T11:57:11Z</time></trkpt><trkpt lat="45.11885271494268" lon="9.687055324644277"><ele>46.0</ele><time>2026-05-04T11:57:12Z</time></trkpt><trkpt lat="45.11861212956039" lon="9.687097033870959"><ele>46.0</ele><time>2026-05-04T11:57:13Z</time></trkpt><trkpt lat="45.11836620857157" lon="9.687141645497102"><ele>46.0</ele><time>2026-05-04T11:57:14Z</time></trkpt><trkpt lat="45.11812136303373" lon="9.687187996499228"><ele>45.5</ele><time>2026-05-04T11:57:15Z</time></trkpt><trkpt lat="45.11787433144942" lon="9.68722707574466"><ele>45.0</ele><time>2026-05-04T11:57:16Z</time></trkpt><trkpt lat="45.11763195127868" lon="9.687270916959855"><ele>44.5</ele><time>2026-05-04T11:57:17Z</time></trkpt><trkpt lat="45.11738889155389" lon="9.687309587036143"><ele>44.0</ele><time>2026-05-04T11:57:18Z</time></trkpt><trkpt lat="45.1171464344385" lon="9.687351421648946"><ele>44.0</ele><time>2026-05-04T11:57:19Z</time></trkpt><trkpt lat="45.116905368463314" lon="9.687396854968958"><ele>44.0</ele><time>2026-05-04T11:57:20Z</time></trkpt><trkpt lat="45.11666219582531" lon="9.687442477882087"><ele>45.0</ele><time>2026-05-04T11:57:21Z</time></trkpt><trkpt lat="45.11641700956032" lon="9.687485365359032"><ele>46.0</ele><time>2026-05-04T11:57:22Z</time></trkpt><trkpt lat="45.11617079162605" lon="9.687525765703167"><ele>46.0</ele><time>2026-05-04T11:57:23Z</time></trkpt><trkpt lat="45.11592607408993" lon="9.68756615928985"><ele>46.0</ele><time>2026-05-04T11:57:24Z</time></trkpt><trkpt lat="45.11568054599717" lon="9.687604476963072"><ele>46.5</ele><time>2026-05-04T11:57:25Z</time></trkpt><trkpt lat="45.115429123555856" lon="9.687636148686877"><ele>47.0</ele><time>2026-05-04T11:57:26Z</time></trkpt><trkpt lat="45.115178834663105" lon="9.687651838094327"><ele>47.0</ele><time>2026-05-04T11:57:27Z</time></trkpt><trkpt lat="45.11492811691978" lon="9.6876553849206"><ele>47.0</ele><time>2026-05-04T11:57:28Z</time></trkpt><trkpt lat="45.11467572328158" lon="9.687651805232761"><ele>46.0</ele><time>2026-05-04T11:57:29Z</time></trkpt><trkpt lat="45.11442388051601" lon="9.68763893291434"><ele>45.0</ele><time>2026-05-04T11:57:30Z</time></trkpt><trkpt lat="45.11417600254436" lon="9.687611819017073"><ele>45.5</ele><time>2026-05-04T11:57:31Z</time></trkpt><trkpt lat="45.113937827662134" lon="9.687567537278197"><ele>46.0</ele><time>2026-05-04T11:57:32Z</time></trkpt><trkpt lat="45.1136931679688" lon="9.68752126953637"><ele>46.0</ele><time>2026-05-04T11:57:33Z</time></trkpt><trkpt lat="45.11345005377765" lon="9.68746484332343"><ele>46.0</ele><time>2026-05-04T11:57:34Z</time></trkpt><trkpt lat="45.11320981821898" lon="9.687398997092718"><ele>45.5</ele><time>2026-05-04T11:57:35Z</time></trkpt><trkpt lat="45.11297406289614" lon="9.687325812942365"><ele>45.0</ele><time>2026-05-04T11:57:36Z</time></trkpt><trkpt lat="45.11273704919769" lon="9.687239277678934"><ele>45.0</ele><time>2026-05-04T11:57:37Z</time></trkpt><trkpt lat="45.11250581055429" lon="9.687139654679413"><ele>45.0</ele><time>2026-05-04T11:57:38Z</time></trkpt><trkpt lat="45.1122696146324" lon="9.687036016727697"><ele>45.0</ele><time>2026-05-04T11:57:39Z</time></trkpt><trkpt lat="45.112034346642496" lon="9.686930930963507"><ele>45.0</ele><time>2026-05-04T11:57:40Z</time></trkpt><trkpt lat="45.11180187019239" lon="9.686822965816788"><ele>46.0</ele><time>2026-05-04T11:57:41Z</time></trkpt><trkpt lat="45.11156807765781" lon="9.686715587218428"><ele>47.0</ele><time>2026-05-04T11:57:42Z</time></trkpt><trkpt lat="45.11133659490251" lon="9.686612746827628"><ele>47.0</ele><time>2026-05-04T11:57:43Z</time></trkpt><trkpt lat="45.11110024798922" lon="9.686508567330026"><ele>47.0</ele><time>2026-05-04T11:57:44Z</time></trkpt><trkpt lat="45.11086379043718" lon="9.686407844544535"><ele>47.5</ele><time>2026-05-04T11:57:45Z</time></trkpt><trkpt lat="45.11063573387276" lon="9.686300853118368"><ele>48.0</ele><time>2026-05-04T11:57:46Z</time></trkpt><trkpt lat="45.11040666362361" lon="9.686194738276868"><ele>48.0</ele><time>2026-05-04T11:57:47Z</time></trkpt><trkpt lat="45.110172435525534" lon="9.68609463164922"><ele>48.0</ele><time>2026-05-04T11:57:48Z</time></trkpt><trkpt lat="45.10994569191081" lon="9.685997515721386"><ele>47.0</ele><time>2026-05-04T11:57:49Z</time></trkpt><trkpt lat="45.10971723179231" lon="9.685901321276736"><ele>46.0</ele><time>2026-05-04T11:57:50Z</time></trkpt><trkpt lat="45.10948880298961" lon="9.685809127294057"><ele>46.0</ele><time>2026-05-04T11:57:51Z</time></trkpt><trkpt lat="45.10925903697936" lon="9.685716578837427"><ele>46.0</ele><time>2026-05-04T11:57:52Z</time></trkpt><trkpt lat="45.10903112580769" lon="9.685625878871305"><ele>45.0</ele><time>2026-05-04T11:57:53Z</time></trkpt><trkpt lat="45.10879989117468" lon="9.68553403634713"><ele>44.0</ele><time>2026-05-04T11:57:54Z</time></trkpt><trkpt lat="45.108567129674796" lon="9.68544057574511"><ele>44.0</ele><time>2026-05-04T11:57:55Z</time></trkpt><trkpt lat="45.10833697568347" lon="9.685346989045893"><ele>44.0</ele><time>2026-05-04T11:57:56Z</time></trkpt><trkpt lat="45.10810714711211" lon="9.685255080106"><ele>45.0</ele><time>2026-05-04T11:57:57Z</time></trkpt><trkpt lat="45.107882953683415" lon="9.685166198319926"><ele>46.0</ele><time>2026-05-04T11:57:58Z</time></trkpt><trkpt lat="45.107663416509396" lon="9.685086562505171"><ele>46.0</ele><time>2026-05-04T11:57:59Z</time></trkpt><trkpt lat="45.10745190468657" lon="9.685015237726194"><ele>46.0</ele><time>2026-05-04T11:58:00Z</time></trkpt><trkpt lat="45.10725259362051" lon="9.68495690421043"><ele>46.0</ele><time>2026-05-04T11:58:01Z</time></trkpt><trkpt lat="45.10706356763873" lon="9.684909826655675"><ele>45.66666666666667</ele><time>2026-05-04T11:58:02Z</time></trkpt><trkpt lat="45.10687901112461" lon="9.684877617645007"><ele>45.333333333333336</ele><time>2026-05-04T11:58:03Z</time></trkpt><trkpt lat="45.10670311747789" lon="9.68485202874937"><ele>45.0</ele><time>2026-05-04T11:58:04Z</time></trkpt><trkpt lat="45.10653780422647" lon="9.684826206755222"><ele>45.0</ele><time>2026-05-04T11:58:05Z</time></trkpt><trkpt lat="45.10638791504831" lon="9.684793314998403"><ele>45.0</ele><time>2026-05-04T11:58:06Z</time></trkpt><trkpt lat="45.106259689235145" lon="9.684757615814808"><ele>45.0</ele><time>2026-05-04T11:58:07Z</time></trkpt><trkpt lat="45.10615742287917" lon="9.68471802052341"><ele>45.0</ele><time>2026-05-04T11:58:08Z</time></trkpt><trkpt lat="45.10607159089162" lon="9.68467484797006"><ele>45.0</ele><time>2026-05-04T11:58:09Z</time></trkpt><trkpt lat="45.10598985819935" lon="9.68462326058177"><ele>45.0</ele><time>2026-05-04T11:58:10Z</time></trkpt><trkpt lat="45.10589085711748" lon="9.68456418717928"><ele>45.0</ele><time>2026-05-04T11:58:11Z</time></trkpt><trkpt lat="45.10576683550087" lon="9.684518478235558"><ele>45.0</ele><time>2026-05-04T11:58:12Z</time></trkpt><trkpt lat="45.1056220615628" lon="9.68450709833498"><ele>45.666666666666664</ele><time>2026-05-04T11:58:13Z</time></trkpt><trkpt lat="45.105462312451756" lon="9.68452209784468"><ele>46.33333333333333</ele><time>2026-05-04T11:58:14Z</time></trkpt><trkpt lat="45.10527970087042" lon="9.684545908679826"><ele>47.0</ele><time>2026-05-04T11:58:15Z</time></trkpt><trkpt lat="45.10509941029189" lon="9.684561580835137"><ele>47.0</ele><time>2026-05-04T11:58:16Z</time></trkpt><trkpt lat="45.10491781770473" lon="9.684585713282278"><ele>47.0</ele><time>2026-05-04T11:58:17Z</time></trkpt><trkpt lat="45.10472962119744" lon="9.684617381654917"><ele>47.0</ele><time>2026-05-04T11:58:18Z</time></trkpt><trkpt lat="45.10453253039097" lon="9.684648461947122"><ele>46.666666666666664</ele><time>2026-05-04T11:58:19Z</time></trkpt><trkpt lat="45.10433349807549" lon="9.68467989990554"><ele>46.333333333333336</ele><time>2026-05-04T11:58:20Z</time></trkpt><trkpt lat="45.10412953871024" lon="9.684711457664932"><ele>46.0</ele><time>2026-05-04T11:58:21Z</time></trkpt><trkpt lat="45.10392505369177" lon="9.68473993755599"><ele>46.0</ele><time>2026-05-04T11:58:22Z</time></trkpt><trkpt lat="45.10371704436327" lon="9.684761843224932"><ele>46.0</ele><time>2026-05-04T11:58:23Z</time></trkpt><trkpt lat="45.10350852234328" lon="9.684779050164197"><ele>46.0</ele><time>2026-05-04T11:58:24Z</time></trkpt><trkpt lat="45.103302171889084" lon="9.684795517552582"><ele>46.333333333333336</ele><time>2026-05-04T11:58:25Z</time></trkpt><trkpt lat="45.103092644740165" lon="9.684808476573453"><ele>46.666666666666664</ele><time>2026-05-04T11:58:26Z</time></trkpt><trkpt lat="45.102884474138925" lon="9.684821594555883"><ele>47.0</ele><time>2026-05-04T11:58:27Z</time></trkpt><trkpt lat="45.10268248898468" lon="9.68483525413522"><ele>47.0</ele><time>2026-05-04T11:58:28Z</time></trkpt><trkpt lat="45.10248831544138" lon="9.684845725124983"><ele>47.0</ele><time>2026-05-04T11:58:29Z</time></trkpt><trkpt lat="45.10230390504273" lon="9.684858263329453"><ele>47.0</ele><time>2026-05-04T11:58:30Z</time></trkpt><trkpt lat="45.10213164556623" lon="9.684867392886904"><ele>46.25</ele><time>2026-05-04T11:58:31Z</time></trkpt><trkpt lat="45.10196747717394" lon="9.684877394192407"><ele>45.5</ele><time>2026-05-04T11:58:32Z</time></trkpt><trkpt lat="45.101821386335764" lon="9.684889149928187"><ele>44.75</ele><time>2026-05-04T11:58:33Z</time></trkpt><trkpt lat="45.10168493698456" lon="9.684894723225149"><ele>44.0</ele><time>2026-05-04T11:58:34Z</time></trkpt><trkpt lat="45.10156703664192" lon="9.684901875122328"><ele>44.0</ele><time>2026-05-04T11:58:35Z</time></trkpt><trkpt lat="45.101461652727245" lon="9.684908246361463"><ele>44.0</ele><time>2026-05-04T11:58:36Z</time></trkpt><trkpt lat="45.101370632380615" lon="9.684899413041329"><ele>44.0</ele><time>2026-05-04T11:58:37Z</time></trkpt><trkpt lat="45.10128868666196" lon="9.684866957313627"><ele>44.0</ele><time>2026-05-04T11:58:38Z</time></trkpt><trkpt lat="45.10121983459803" lon="9.684830646067072"><ele>44.0</ele><time>2026-05-04T11:58:39Z</time></trkpt><trkpt lat="45.10115538253705" lon="9.684807928450107"><ele>44.0</ele><time>2026-05-04T11:58:40Z</time></trkpt><trkpt lat="45.101043175141626" lon="9.68483448939499"><ele>44.0</ele><time>2026-05-04T11:58:42Z</time></trkpt><trkpt lat="45.10098550882371" lon="9.684892096624804"><ele>44.0</ele><time>2026-05-04T11:58:43Z</time></trkpt><trkpt lat="45.100933098607044" lon="9.684942099099937"><ele>44.0</ele><time>2026-05-04T11:58:44Z</time></trkpt><trkpt lat="45.10086596967752" lon="9.684990400861397"><ele>44.0</ele><time>2026-05-04T11:58:45Z</time></trkpt><trkpt lat="45.10078332139806" lon="9.685036563187726"><ele>44.0</ele><time>2026-05-04T11:58:46Z</time></trkpt><trkpt lat="45.100689676543126" lon="9.68508994196031"><ele>44.0</ele><time>2026-05-04T11:58:47Z</time></trkpt><trkpt lat="45.10059789102518" lon="9.685144325488913"><ele>44.5</ele><time>2026-05-04T11:58:48Z</time></trkpt><trkpt lat="45.10050574967676" lon="9.685205586998228"><ele>45.0</ele><time>2026-05-04T11:58:49Z</time></trkpt><trkpt lat="45.100405241717176" lon="9.68527698005147"><ele>45.5</ele><time>2026-05-04T11:58:50Z</time></trkpt><trkpt lat="45.10029825861794" lon="9.685357012213954"><ele>46.0</ele><time>2026-05-04T11:58:51Z</time></trkpt><trkpt lat="45.10019372207674" lon="9.685437417990187"><ele>46.0</ele><time>2026-05-04T11:58:52Z</time></trkpt><trkpt lat="45.10008932024854" lon="9.685516659465682"><ele>46.0</ele><time>2026-05-04T11:58:53Z</time></trkpt><trkpt lat="45.09997866915061" lon="9.6855987057409"><ele>46.0</ele><time>2026-05-04T11:58:54Z</time></trkpt><trkpt lat="45.0998691561884" lon="9.685682246647547"><ele>46.0</ele><time>2026-05-04T11:58:55Z</time></trkpt><trkpt lat="45.09975420946156" lon="9.685763031762642"><ele>46.0</ele><time>2026-05-04T11:58:56Z</time></trkpt><trkpt lat="45.09963390115173" lon="9.685850433749092"><ele>46.0</ele><time>2026-05-04T11:58:57Z</time></trkpt><trkpt lat="45.09950978150635" lon="9.685943363109338"><ele>46.0</ele><time>2026-05-04T11:58:58Z</time></trkpt><trkpt lat="45.09937882267373" lon="9.686041507386529"><ele>46.0</ele><time>2026-05-04T11:58:59Z</time></trkpt><trkpt lat="45.09924499723313" lon="9.686143031314355"><ele>46.0</ele><time>2026-05-04T11:59:00Z</time></trkpt><trkpt lat="45.09910019696668" lon="9.68625256707951"><ele>46.0</ele><time>2026-05-04T11:59:01Z</time></trkpt><trkpt lat="45.098963929072426" lon="9.686357626648073"><ele>46.0</ele><time>2026-05-04T11:59:02Z</time></trkpt><trkpt lat="45.09883477032817" lon="9.686462614815674"><ele>46.0</ele><time>2026-05-04T11:59:03Z</time></trkpt><trkpt lat="45.098705341190126" lon="9.686568712419794"><ele>46.0</ele><time>2026-05-04T11:59:04Z</time></trkpt><trkpt lat="45.098593953318094" lon="9.686661402453943"><ele>46.0</ele><time>2026-05-04T11:59:05Z</time></trkpt><trkpt lat="45.09847967870085" lon="9.686754213988216"><ele>46.0</ele><time>2026-05-04T11:59:06Z</time></trkpt><trkpt lat="45.0983738672858" lon="9.686843842027937"><ele>46.0</ele><time>2026-05-04T11:59:07Z</time></trkpt><trkpt lat="45.098275430016315" lon="9.686926014643348"><ele>46.0</ele><time>2026-05-04T11:59:08Z</time></trkpt><trkpt lat="45.09816579462991" lon="9.686988531369138"><ele>46.0</ele><time>2026-05-04T11:59:09Z</time></trkpt><trkpt lat="45.09806312624925" lon="9.687066587362665"><ele>46.0</ele><time>2026-05-04T11:59:10Z</time></trkpt><trkpt lat="45.09797095119584" lon="9.687136646661319"><ele>45.4</ele><time>2026-05-04T11:59:11Z</time></trkpt><trkpt lat="45.09787297516665" lon="9.687230082748265"><ele>44.8</ele><time>2026-05-04T11:59:12Z</time></trkpt><trkpt lat="45.09779584099804" lon="9.68728542269868"><ele>44.199999999999996</ele><time>2026-05-04T11:59:13Z</time></trkpt><trkpt lat="45.0976843850471" lon="9.687363014752737"><ele>43.599999999999994</ele><time>2026-05-04T11:59:15Z</time></trkpt><trkpt lat="45.0976209840897" lon="9.687382455628697"><ele>43.0</ele><time>2026-05-04T11:59:16Z</time></trkpt><trkpt lat="45.09750959308805" lon="9.687365402562754"><ele>43.4</ele><time>2026-05-04T11:59:18Z</time></trkpt><trkpt lat="45.097381135864346" lon="9.68735600037742"><ele>43.8</ele><time>2026-05-04T11:59:20Z</time></trkpt><trkpt lat="45.09731838874402" lon="9.687397254350016"><ele>44.2</ele><time>2026-05-04T11:59:21Z</time></trkpt><trkpt lat="45.09726237881111" lon="9.687484335010708"><ele>44.6</ele><time>2026-05-04T11:59:22Z</time></trkpt><trkpt lat="45.097195129442326" lon="9.687605599618337"><ele>45.0</ele><time>2026-05-04T11:59:23Z</time></trkpt><trkpt lat="45.09710905915723" lon="9.687740519949239"><ele>45.25</ele><time>2026-05-04T11:59:24Z</time></trkpt><trkpt lat="45.09700666147631" lon="9.687841149063871"><ele>45.5</ele><time>2026-05-04T11:59:25Z</time></trkpt><trkpt lat="45.09685583808521" lon="9.687922052335113"><ele>45.75</ele><time>2026-05-04T11:59:26Z</time></trkpt><trkpt lat="45.096718362719" lon="9.688029368742425"><ele>46.0</ele><time>2026-05-04T11:59:27Z</time></trkpt><trkpt lat="45.096572504152505" lon="9.688143946976126"><ele>47.0</ele><time>2026-05-04T11:59:28Z</time></trkpt><trkpt lat="45.09641276226335" lon="9.688270834933238"><ele>48.0</ele><time>2026-05-04T11:59:29Z</time></trkpt><trkpt lat="45.09626906221087" lon="9.688382044819681"><ele>49.0</ele><time>2026-05-04T11:59:30Z</time></trkpt><trkpt lat="45.096097706364276" lon="9.688492615705231"><ele>49.0</ele><time>2026-05-04T11:59:31Z</time></trkpt><trkpt lat="45.095907905209884" lon="9.688586597955915"><ele>49.0</ele><time>2026-05-04T11:59:32Z</time></trkpt><trkpt lat="45.095705660953406" lon="9.688656252696626"><ele>49.0</ele><time>2026-05-04T11:59:33Z</time></trkpt><trkpt lat="45.09549916543547" lon="9.688718855245147"><ele>48.33333333333333</ele><time>2026-05-04T11:59:34Z</time></trkpt><trkpt lat="45.09528921277166" lon="9.688783406812428"><ele>47.666666666666664</ele><time>2026-05-04T11:59:35Z</time></trkpt><trkpt lat="45.09508299518519" lon="9.688843505267418"><ele>47.0</ele><time>2026-05-04T11:59:36Z</time></trkpt><trkpt lat="45.09487123207228" lon="9.688904050996921"><ele>47.0</ele><time>2026-05-04T11:59:37Z</time></trkpt><trkpt lat="45.09466254996856" lon="9.688969006184777"><ele>47.0</ele><time>2026-05-04T11:59:38Z</time></trkpt><trkpt lat="45.09445578588846" lon="9.6890351625659"><ele>47.0</ele><time>2026-05-04T11:59:39Z</time></trkpt><trkpt lat="45.09424402153563" lon="9.689102163935871"><ele>46.33333333333333</ele><time>2026-05-04T11:59:40Z</time></trkpt><trkpt lat="45.09404091240847" lon="9.689165320605474"><ele>45.666666666666664</ele><time>2026-05-04T11:59:41Z</time></trkpt><trkpt lat="45.093839689773745" lon="9.689227642667516"><ele>45.0</ele><time>2026-05-04T11:59:42Z</time></trkpt><trkpt lat="45.0934498116153" lon="9.689338944476127"><ele>45.0</ele><time>2026-05-04T11:59:44Z</time></trkpt><trkpt lat="45.09325837293797" lon="9.68938947357815"><ele>45.0</ele><time>2026-05-04T11:59:45Z</time></trkpt><trkpt lat="45.09306565220053" lon="9.689442946758193"><ele>45.0</ele><time>2026-05-04T11:59:46Z</time></trkpt><trkpt lat="45.09287422636335" lon="9.689497423124516"><ele>45.0</ele><time>2026-05-04T11:59:47Z</time></trkpt><trkpt lat="45.09268455931285" lon="9.689555950071744"><ele>45.0</ele><time>2026-05-04T11:59:48Z</time></trkpt><trkpt lat="45.09249958800836" lon="9.689616562894074"><ele>45.0</ele><time>2026-05-04T11:59:49Z</time></trkpt><trkpt lat="45.092324933576045" lon="9.689672536721233"><ele>45.0</ele><time>2026-05-04T11:59:50Z</time></trkpt><trkpt lat="45.0921605451941" lon="9.689726650331098"><ele>45.0</ele><time>2026-05-04T11:59:51Z</time></trkpt><trkpt lat="45.092002251416766" lon="9.689777040048284"><ele>45.0</ele><time>2026-05-04T11:59:52Z</time></trkpt><trkpt lat="45.09185061145637" lon="9.689821756443024"><ele>45.0</ele><time>2026-05-04T11:59:53Z</time></trkpt><trkpt lat="45.09168782921487" lon="9.68987444551524"><ele>45.0</ele><time>2026-05-04T11:59:54Z</time></trkpt><trkpt lat="45.091523057540186" lon="9.689931556289562"><ele>45.0</ele><time>2026-05-04T11:59:55Z</time></trkpt><trkpt lat="45.09135838609622" lon="9.689984425061958"><ele>45.0</ele><time>2026-05-04T11:59:56Z</time></trkpt><trkpt lat="45.091198428414295" lon="9.690025458560989"><ele>45.0</ele><time>2026-05-04T11:59:57Z</time></trkpt><trkpt lat="45.09104210775192" lon="9.690048435334914"><ele>45.0</ele><time>2026-05-04T11:59:58Z</time></trkpt><trkpt lat="45.09089633043334" lon="9.690048987495521"><ele>45.5</ele><time>2026-05-04T11:59:59Z</time></trkpt><trkpt lat="45.090753260483076" lon="9.69002555009067"><ele>46.0</ele><time>2026-05-04T12:00:00Z</time></trkpt><trkpt lat="45.090610496717055" lon="9.689985191663078"><ele>46.5</ele><time>2026-05-04T12:00:01Z</time></trkpt><trkpt lat="45.090459106070675" lon="9.689942535989097"><ele>47.0</ele><time>2026-05-04T12:00:02Z</time></trkpt><trkpt lat="45.09030383625032" lon="9.689903246887672"><ele>47.0</ele><time>2026-05-04T12:00:03Z</time></trkpt><trkpt lat="45.0901464069806" lon="9.689869674665138"><ele>47.0</ele><time>2026-05-04T12:00:04Z</time></trkpt><trkpt lat="45.08998453182911" lon="9.689832838948748"><ele>47.0</ele><time>2026-05-04T12:00:05Z</time></trkpt><trkpt lat="45.089824653759706" lon="9.689791482636625"><ele>47.0</ele><time>2026-05-04T12:00:06Z</time></trkpt><trkpt lat="45.08966097350715" lon="9.689751056042036"><ele>47.0</ele><time>2026-05-04T12:00:07Z</time></trkpt><trkpt lat="45.08949420108647" lon="9.689713831775144"><ele>47.0</ele><time>2026-05-04T12:00:08Z</time></trkpt><trkpt lat="45.08932697772348" lon="9.689677239364624"><ele>47.0</ele><time>2026-05-04T12:00:09Z</time></trkpt><trkpt lat="45.0891601414374" lon="9.689639607550607"><ele>47.0</ele><time>2026-05-04T12:00:10Z</time></trkpt><trkpt lat="45.08899576064287" lon="9.689599893503026"><ele>47.0</ele><time>2026-05-04T12:00:11Z</time></trkpt><trkpt lat="45.08883786164755" lon="9.689562923247651"><ele>46.666666666666664</ele><time>2026-05-04T12:00:12Z</time></trkpt><trkpt lat="45.08867721402243" lon="9.68952168005003"><ele>46.333333333333336</ele><time>2026-05-04T12:00:13Z</time></trkpt><trkpt lat="45.08851256833719" lon="9.689477586505618"><ele>46.0</ele><time>2026-05-04T12:00:14Z</time></trkpt><trkpt lat="45.08834743446197" lon="9.68943338762179"><ele>46.0</ele><time>2026-05-04T12:00:15Z</time></trkpt><trkpt lat="45.08817925420846" lon="9.689390474771493"><ele>46.0</ele><time>2026-05-04T12:00:16Z</time></trkpt><trkpt lat="45.08801312311193" lon="9.689349817330491"><ele>46.0</ele><time>2026-05-04T12:00:17Z</time></trkpt><trkpt lat="45.087848290824894" lon="9.689309905969282"><ele>46.0</ele><time>2026-05-04T12:00:18Z</time></trkpt><trkpt lat="45.08768462973437" lon="9.689270560788964"><ele>46.0</ele><time>2026-05-04T12:00:19Z</time></trkpt><trkpt lat="45.08752111160672" lon="9.689232900757213"><ele>46.0</ele><time>2026-05-04T12:00:20Z</time></trkpt><trkpt lat="45.08736484555367" lon="9.689199483136042"><ele>45.66666666666667</ele><time>2026-05-04T12:00:21Z</time></trkpt><trkpt lat="45.08721216793805" lon="9.689169807952153"><ele>45.333333333333336</ele><time>2026-05-04T12:00:22Z</time></trkpt><trkpt lat="45.08705631839337" lon="9.689148304416472"><ele>45.0</ele><time>2026-05-04T12:00:23Z</time></trkpt><trkpt lat="45.08690008426065" lon="9.689145468682778"><ele>45.0</ele><time>2026-05-04T12:00:24Z</time></trkpt><trkpt lat="45.08673827086479" lon="9.68917314615596"><ele>45.0</ele><time>2026-05-04T12:00:25Z</time></trkpt><trkpt lat="45.08657716969532" lon="9.689228423050391"><ele>45.0</ele><time>2026-05-04T12:00:26Z</time></trkpt><trkpt lat="45.08641195124832" lon="9.689278175285377"><ele>45.0</ele><time>2026-05-04T12:00:27Z</time></trkpt><trkpt lat="45.08626814586264" lon="9.689392420562134"><ele>45.0</ele><time>2026-05-04T12:00:28Z</time></trkpt><trkpt lat="45.086125649018534" lon="9.68949451101754"><ele>45.0</ele><time>2026-05-04T12:00:29Z</time></trkpt><trkpt lat="45.08598184073717" lon="9.689577064515671"><ele>45.0</ele><time>2026-05-04T12:00:30Z</time></trkpt><trkpt lat="45.08584844320685" lon="9.689698675474501"><ele>45.0</ele><time>2026-05-04T12:00:31Z</time></trkpt><trkpt lat="45.08570700358781" lon="9.689791651015105"><ele>45.0</ele><time>2026-05-04T12:00:32Z</time></trkpt><trkpt lat="45.08556051865118" lon="9.689887268832436"><ele>45.333333333333336</ele><time>2026-05-04T12:00:33Z</time></trkpt><trkpt lat="45.08541908490079" lon="9.689989991089787"><ele>45.66666666666667</ele><time>2026-05-04T12:00:34Z</time></trkpt><trkpt lat="45.085285574309836" lon="9.690089182346064"><ele>46.0</ele><time>2026-05-04T12:00:35Z</time></trkpt><trkpt lat="45.08514927654292" lon="9.690188430040834"><ele>46.0</ele><time>2026-05-04T12:00:36Z</time></trkpt><trkpt lat="45.08501980399063" lon="9.690282450972239"><ele>46.0</ele><time>2026-05-04T12:00:37Z</time></trkpt><trkpt lat="45.08489375432974" lon="9.6903546620342"><ele>46.0</ele><time>2026-05-04T12:00:38Z</time></trkpt><trkpt lat="45.08476573578905" lon="9.690446109445926"><ele>46.0</ele><time>2026-05-04T12:00:39Z</time></trkpt><trkpt lat="45.08460547686614" lon="9.690551829306393"><ele>46.0</ele><time>2026-05-04T12:00:40Z</time></trkpt><trkpt lat="45.08442466975575" lon="9.690675313548315"><ele>46.0</ele><time>2026-05-04T12:00:41Z</time></trkpt><trkpt lat="45.08426669616991" lon="9.690783666063554"><ele>46.0</ele><time>2026-05-04T12:00:42Z</time></trkpt><trkpt lat="45.08410976954199" lon="9.690885465255503"><ele>46.66666666666667</ele><time>2026-05-04T12:00:43Z</time></trkpt><trkpt lat="45.0839504190012" lon="9.690982644852518"><ele>47.333333333333336</ele><time>2026-05-04T12:00:44Z</time></trkpt><trkpt lat="45.08379415805562" lon="9.69107903990466"><ele>48.0</ele><time>2026-05-04T12:00:45Z</time></trkpt><trkpt lat="45.08364644479208" lon="9.691171593784285"><ele>48.0</ele><time>2026-05-04T12:00:46Z</time></trkpt><trkpt lat="45.08349502660291" lon="9.691264491841713"><ele>48.0</ele><time>2026-05-04T12:00:47Z</time></trkpt><trkpt lat="45.083345441417364" lon="9.691356835274457"><ele>48.0</ele><time>2026-05-04T12:00:48Z</time></trkpt><trkpt lat="45.083196120089966" lon="9.691447423433436"><ele>48.0</ele><time>2026-05-04T12:00:49Z</time></trkpt><trkpt lat="45.08304900238977" lon="9.6915380367117"><ele>48.0</ele><time>2026-05-04T12:00:50Z</time></trkpt><trkpt lat="45.08289974475079" lon="9.691632903987161"><ele>48.0</ele><time>2026-05-04T12:00:51Z</time></trkpt><trkpt lat="45.0827547283431" lon="9.691728675538352"><ele>48.0</ele><time>2026-05-04T12:00:52Z</time></trkpt><trkpt lat="45.082611673051076" lon="9.691821639659503"><ele>48.0</ele><time>2026-05-04T12:00:53Z</time></trkpt><trkpt lat="45.0824702220348" lon="9.691907161462428"><ele>48.0</ele><time>2026-05-04T12:00:54Z</time></trkpt><trkpt lat="45.08232959461259" lon="9.691988901397096"><ele>48.33333333333333</ele><time>2026-05-04T12:00:55Z</time></trkpt><trkpt lat="45.08218966155761" lon="9.692068491992517"><ele>48.666666666666664</ele><time>2026-05-04T12:00:56Z</time></trkpt><trkpt lat="45.08204443379328" lon="9.692139807259338"><ele>49.0</ele><time>2026-05-04T12:00:57Z</time></trkpt><trkpt lat="45.08189611570294" lon="9.692194066018512"><ele>49.0</ele><time>2026-05-04T12:00:58Z</time></trkpt><trkpt lat="45.081746932537996" lon="9.692227630320955"><ele>49.0</ele><time>2026-05-04T12:00:59Z</time></trkpt><trkpt lat="45.08159998491347" lon="9.692244904911272"><ele>49.0</ele><time>2026-05-04T12:01:00Z</time></trkpt><trkpt lat="45.08145679968907" lon="9.692258012373522"><ele>49.0</ele><time>2026-05-04T12:01:01Z</time></trkpt><trkpt lat="45.08131888437583" lon="9.692271533363954"><ele>48.25</ele><time>2026-05-04T12:01:02Z</time></trkpt><trkpt lat="45.08117997043021" lon="9.692297424592235"><ele>47.5</ele><time>2026-05-04T12:01:03Z</time></trkpt><trkpt lat="45.08104151998211" lon="9.692352146497683"><ele>46.75</ele><time>2026-05-04T12:01:04Z</time></trkpt><trkpt lat="45.080911825749624" lon="9.69242903456889"><ele>46.0</ele><time>2026-05-04T12:01:05Z</time></trkpt><trkpt lat="45.08079854065931" lon="9.692542846594119"><ele>45.75</ele><time>2026-05-04T12:01:06Z</time></trkpt><trkpt lat="45.08069413981804" lon="9.692668791930567"><ele>45.5</ele><time>2026-05-04T12:01:07Z</time></trkpt><trkpt lat="45.08060746731089" lon="9.692814974177548"><ele>45.25</ele><time>2026-05-04T12:01:08Z</time></trkpt><trkpt lat="45.080542383261594" lon="9.692987967383587"><ele>45.0</ele><time>2026-05-04T12:01:09Z</time></trkpt><trkpt lat="45.080495329594854" lon="9.693174897689802"><ele>45.25</ele><time>2026-05-04T12:01:10Z</time></trkpt><trkpt lat="45.08044688254161" lon="9.693363949869328"><ele>45.5</ele><time>2026-05-04T12:01:11Z</time></trkpt><trkpt lat="45.080397581618556" lon="9.693551078592138"><ele>45.75</ele><time>2026-05-04T12:01:12Z</time></trkpt><trkpt lat="45.080347155410806" lon="9.69374345333588"><ele>46.0</ele><time>2026-05-04T12:01:13Z</time></trkpt><trkpt lat="45.08029356041636" lon="9.69393694266373"><ele>46.0</ele><time>2026-05-04T12:01:14Z</time></trkpt><trkpt lat="45.0802360043693" lon="9.694142139286859"><ele>46.0</ele><time>2026-05-04T12:01:15Z</time></trkpt><trkpt lat="45.08015396003393" lon="9.6943433228984"><ele>46.0</ele><time>2026-05-04T12:01:16Z</time></trkpt><trkpt lat="45.080096583703266" lon="9.69457100683473"><ele>46.333333333333336</ele><time>2026-05-04T12:01:17Z</time></trkpt><trkpt lat="45.080037669483296" lon="9.69481504810066"><ele>46.666666666666664</ele><time>2026-05-04T12:01:18Z</time></trkpt><trkpt lat="45.07997438985187" lon="9.695069648280517"><ele>47.0</ele><time>2026-05-04T12:01:19Z</time></trkpt><trkpt lat="45.079901074827944" lon="9.695335208803602"><ele>46.666666666666664</ele><time>2026-05-04T12:01:20Z</time></trkpt><trkpt lat="45.0798048913374" lon="9.69560801816743"><ele>46.333333333333336</ele><time>2026-05-04T12:01:21Z</time></trkpt><trkpt lat="45.079674610556765" lon="9.695880780640124"><ele>46.0</ele><time>2026-05-04T12:01:22Z</time></trkpt><trkpt lat="45.079582833773145" lon="9.696192633649186"><ele>46.0</ele><time>2026-05-04T12:01:23Z</time></trkpt><trkpt lat="45.07949761484556" lon="9.69650614786522"><ele>46.0</ele><time>2026-05-04T12:01:24Z</time></trkpt><trkpt lat="45.079403676100114" lon="9.696851365227065"><ele>47.0</ele><time>2026-05-04T12:01:25Z</time></trkpt><trkpt lat="45.07930280022014" lon="9.697183865062351"><ele>48.0</ele><time>2026-05-04T12:01:26Z</time></trkpt><trkpt lat="45.07922765965923" lon="9.697512598092029"><ele>47.5</ele><time>2026-05-04T12:01:27Z</time></trkpt><trkpt lat="45.079147493567206" lon="9.697846166464089"><ele>47.0</ele><time>2026-05-04T12:01:28Z</time></trkpt><trkpt lat="45.07906048458407" lon="9.698173589065359"><ele>46.0</ele><time>2026-05-04T12:01:29Z</time></trkpt><trkpt lat="45.07897608636978" lon="9.698498650048233"><ele>45.0</ele><time>2026-05-04T12:01:30Z</time></trkpt><trkpt lat="45.078890285667846" lon="9.698819753526454"><ele>45.0</ele><time>2026-05-04T12:01:31Z</time></trkpt><trkpt lat="45.07880772277319" lon="9.699145525662981"><ele>45.0</ele><time>2026-05-04T12:01:32Z</time></trkpt><trkpt lat="45.078727255210914" lon="9.699469501619294"><ele>45.0</ele><time>2026-05-04T12:01:33Z</time></trkpt><trkpt lat="45.07864730663661" lon="9.699789576351993"><ele>45.0</ele><time>2026-05-04T12:01:34Z</time></trkpt><trkpt lat="45.07856736345393" lon="9.70010902455751"><ele>47.0</ele><time>2026-05-04T12:01:35Z</time></trkpt><trkpt lat="45.07848184710988" lon="9.700424192433674"><ele>49.0</ele><time>2026-05-04T12:01:36Z</time></trkpt><trkpt lat="45.07839810843166" lon="9.700730201351535"><ele>49.0</ele><time>2026-05-04T12:01:37Z</time></trkpt><trkpt lat="45.078310894856145" lon="9.701030466150046"><ele>49.0</ele><time>2026-05-04T12:01:38Z</time></trkpt><trkpt lat="45.078223782923985" lon="9.701329554787979"><ele>48.0</ele><time>2026-05-04T12:01:39Z</time></trkpt><trkpt lat="45.0781320613137" lon="9.701624187359775"><ele>47.0</ele><time>2026-05-04T12:01:40Z</time></trkpt><trkpt lat="45.07803308781004" lon="9.701904979947335"><ele>46.0</ele><time>2026-05-04T12:01:41Z</time></trkpt><trkpt lat="45.07793577489366" lon="9.702163273861734"><ele>45.333333333333336</ele><time>2026-05-04T12:01:42Z</time></trkpt><trkpt lat="45.07783442930029" lon="9.702401360938174"><ele>44.666666666666664</ele><time>2026-05-04T12:01:43Z</time></trkpt><trkpt lat="45.07774014986378" lon="9.702625006879924"><ele>44.0</ele><time>2026-05-04T12:01:44Z</time></trkpt><trkpt lat="45.07765348642105" lon="9.702819811121513"><ele>44.0</ele><time>2026-05-04T12:01:45Z</time></trkpt><trkpt lat="45.07757583240528" lon="9.70299963705532"><ele>44.0</ele><time>2026-05-04T12:01:46Z</time></trkpt><trkpt lat="45.07750499478544" lon="9.703156069969591"><ele>44.0</ele><time>2026-05-04T12:01:47Z</time></trkpt><trkpt lat="45.077442842842444" lon="9.703287648566853"><ele>44.0</ele><time>2026-05-04T12:01:48Z</time></trkpt><trkpt lat="45.07739343924582" lon="9.70339588203457"><ele>44.0</ele><time>2026-05-04T12:01:49Z</time></trkpt><trkpt lat="45.077350293431344" lon="9.703478704271959"><ele>44.0</ele><time>2026-05-04T12:01:50Z</time></trkpt><trkpt lat="45.077265653446865" lon="9.703621423634038"><ele>44.0</ele><time>2026-05-04T12:01:52Z</time></trkpt><trkpt lat="45.07720704559057" lon="9.703681251250133"><ele>44.0</ele><time>2026-05-04T12:01:53Z</time></trkpt><trkpt lat="45.07714813566331" lon="9.703714355711478"><ele>44.0</ele><time>2026-05-04T12:01:54Z</time></trkpt><trkpt lat="45.07704986229694" lon="9.703805557039455"><ele>44.166666666666664</ele><time>2026-05-04T12:01:56Z</time></trkpt><trkpt lat="45.077024211840886" lon="9.703898605974278"><ele>44.33333333333333</ele><time>2026-05-04T12:01:57Z</time></trkpt><trkpt lat="45.07701369031375" lon="9.703991467168493"><ele>44.5</ele><time>2026-05-04T12:01:58Z</time></trkpt><trkpt lat="45.077025992574704" lon="9.704163602299873"><ele>44.666666666666664</ele><time>2026-05-04T12:02:00Z</time></trkpt><trkpt lat="45.0769498446642" lon="9.704253793695266"><ele>44.833333333333336</ele><time>2026-05-04T12:02:01Z</time></trkpt><trkpt lat="45.07689312285571" lon="9.7043207090709"><ele>45.0</ele><time>2026-05-04T12:02:02Z</time></trkpt><trkpt lat="45.07681780973641" lon="9.704386025507906"><ele>45.75</ele><time>2026-05-04T12:02:03Z</time></trkpt><trkpt lat="45.076720333910174" lon="9.704464371658835"><ele>46.5</ele><time>2026-05-04T12:02:04Z</time></trkpt><trkpt lat="45.076619252318224" lon="9.704552034918377"><ele>47.25</ele><time>2026-05-04T12:02:05Z</time></trkpt><trkpt lat="45.076524001976516" lon="9.704634468524844"><ele>48.0</ele><time>2026-05-04T12:02:06Z</time></trkpt><trkpt lat="45.076409699644245" lon="9.704734752264644"><ele>48.0</ele><time>2026-05-04T12:02:07Z</time></trkpt><trkpt lat="45.07626307330798" lon="9.704839136553664"><ele>48.0</ele><time>2026-05-04T12:02:08Z</time></trkpt><trkpt lat="45.076095014817014" lon="9.704970582137062"><ele>48.0</ele><time>2026-05-04T12:02:09Z</time></trkpt><trkpt lat="45.07591695240529" lon="9.70510404497091"><ele>48.0</ele><time>2026-05-04T12:02:10Z</time></trkpt><trkpt lat="45.0757401856185" lon="9.705234869492543"><ele>48.0</ele><time>2026-05-04T12:02:11Z</time></trkpt><trkpt lat="45.07556207375338" lon="9.70536725808052"><ele>48.0</ele><time>2026-05-04T12:02:12Z</time></trkpt><trkpt lat="45.07539010367559" lon="9.705500011947755"><ele>48.0</ele><time>2026-05-04T12:02:13Z</time></trkpt><trkpt lat="45.07522609200153" lon="9.705629753581068"><ele>48.0</ele><time>2026-05-04T12:02:14Z</time></trkpt><trkpt lat="45.075071813191286" lon="9.705754696660835"><ele>48.0</ele><time>2026-05-04T12:02:15Z</time></trkpt><trkpt lat="45.07492743037014" lon="9.705874254673507"><ele>47.666666666666664</ele><time>2026-05-04T12:02:16Z</time></trkpt><trkpt lat="45.07478996766272" lon="9.705988040337587"><ele>47.33333333333333</ele><time>2026-05-04T12:02:17Z</time></trkpt><trkpt lat="45.07465048635367" lon="9.706101943198618"><ele>47.0</ele><time>2026-05-04T12:02:18Z</time></trkpt><trkpt lat="45.07450907476878" lon="9.706219234430558"><ele>47.0</ele><time>2026-05-04T12:02:19Z</time></trkpt><trkpt lat="45.07436078006154" lon="9.706339445694919"><ele>47.0</ele><time>2026-05-04T12:02:20Z</time></trkpt><trkpt lat="45.07420456208356" lon="9.70646570986043"><ele>47.0</ele><time>2026-05-04T12:02:21Z</time></trkpt><trkpt lat="45.07403393757347" lon="9.70659833026943"><ele>47.5</ele><time>2026-05-04T12:02:22Z</time></trkpt><trkpt lat="45.07384154292888" lon="9.706756053118808"><ele>48.0</ele><time>2026-05-04T12:02:23Z</time></trkpt><trkpt lat="45.07364444766585" lon="9.70692582624747"><ele>48.0</ele><time>2026-05-04T12:02:24Z</time></trkpt><trkpt lat="45.073445627041735" lon="9.7070962699497"><ele>48.0</ele><time>2026-05-04T12:02:25Z</time></trkpt><trkpt lat="45.07325389028348" lon="9.707256640035196"><ele>47.0</ele><time>2026-05-04T12:02:26Z</time></trkpt><trkpt lat="45.07306787870736" lon="9.707412952533385"><ele>46.0</ele><time>2026-05-04T12:02:27Z</time></trkpt><trkpt lat="45.072876445067216" lon="9.707555881747814"><ele>45.0</ele><time>2026-05-04T12:02:28Z</time></trkpt><trkpt lat="45.07271865069762" lon="9.707681176999195"><ele>45.666666666666664</ele><time>2026-05-04T12:02:29Z</time></trkpt><trkpt lat="45.07255806219783" lon="9.707806941963527"><ele>46.33333333333333</ele><time>2026-05-04T12:02:30.003Z</time></trkpt><trkpt lat="45.07243198703687" lon="9.707917120172194"><ele>47.0</ele><time>2026-05-04T12:02:31.003Z</time></trkpt><trkpt lat="45.07229421754972" lon="9.708029354329119"><ele>47.0</ele><time>2026-05-04T12:02:32.003Z</time></trkpt><trkpt lat="45.0721525930524" lon="9.70814689482434"><ele>47.0</ele><time>2026-05-04T12:02:33.003Z</time></trkpt><trkpt lat="45.07199915764379" lon="9.70827626050463"><ele>47.0</ele><time>2026-05-04T12:02:34.003Z</time></trkpt><trkpt lat="45.07183180026138" lon="9.708416853154073"><ele>47.0</ele><time>2026-05-04T12:02:35.003Z</time></trkpt><trkpt lat="45.071664693468755" lon="9.708554059841878"><ele>47.0</ele><time>2026-05-04T12:02:36.003Z</time></trkpt><trkpt lat="45.07150451242949" lon="9.708687916278326"><ele>47.0</ele><time>2026-05-04T12:02:37.003Z</time></trkpt><trkpt lat="45.071352935951204" lon="9.708815606929491"><ele>47.666666666666664</ele><time>2026-05-04T12:02:38.003Z</time></trkpt><trkpt lat="45.071209273639695" lon="9.70893786983261"><ele>48.33333333333333</ele><time>2026-05-04T12:02:39.003Z</time></trkpt><trkpt lat="45.0710432619786" lon="9.709071411227914"><ele>49.0</ele><time>2026-05-04T12:02:40.003Z</time></trkpt><trkpt lat="45.07087152643313" lon="9.709206000599545"><ele>49.0</ele><time>2026-05-04T12:02:41.003Z</time></trkpt><trkpt lat="45.07070476300551" lon="9.709334308756176"><ele>49.0</ele><time>2026-05-04T12:02:42.003Z</time></trkpt><trkpt lat="45.07053254661664" lon="9.709460402018898"><ele>49.0</ele><time>2026-05-04T12:02:43.003Z</time></trkpt><trkpt lat="45.07035586551259" lon="9.709570461583896"><ele>49.0</ele><time>2026-05-04T12:02:44.003Z</time></trkpt><trkpt lat="45.070179768855255" lon="9.709650431217757"><ele>49.0</ele><time>2026-05-04T12:02:45.003Z</time></trkpt><trkpt lat="45.070002639794936" lon="9.709693130824903"><ele>49.0</ele><time>2026-05-04T12:02:46.003Z</time></trkpt><trkpt lat="45.069818402617884" lon="9.709687216179795"><ele>49.666666666666664</ele><time>2026-05-04T12:02:47.003Z</time></trkpt><trkpt lat="45.06962952902019" lon="9.70964560152466"><ele>50.33333333333333</ele><time>2026-05-04T12:02:48.003Z</time></trkpt><trkpt lat="45.06944714261191" lon="9.709563493622777"><ele>51.0</ele><time>2026-05-04T12:02:49.003Z</time></trkpt><trkpt lat="45.06927194942027" lon="9.709455593474175"><ele>50.66666666666667</ele><time>2026-05-04T12:02:50.003Z</time></trkpt><trkpt lat="45.069105938084945" lon="9.709319395452942"><ele>50.333333333333336</ele><time>2026-05-04T12:02:51.003Z</time></trkpt><trkpt lat="45.06892144675756" lon="9.709204829206021"><ele>50.0</ele><time>2026-05-04T12:02:52.003Z</time></trkpt><trkpt lat="45.068739062306065" lon="9.709082987035616"><ele>50.0</ele><time>2026-05-04T12:02:53.003Z</time></trkpt><trkpt lat="45.068562300421064" lon="9.70895735736382"><ele>50.0</ele><time>2026-05-04T12:02:54.003Z</time></trkpt><trkpt lat="45.068400437151645" lon="9.708830979152472"><ele>50.0</ele><time>2026-05-04T12:02:55.003Z</time></trkpt><trkpt lat="45.06824057757348" lon="9.708710834636653"><ele>50.66666666666667</ele><time>2026-05-04T12:02:56.003Z</time></trkpt><trkpt lat="45.068087635627144" lon="9.708598847432304"><ele>51.33333333333333</ele><time>2026-05-04T12:02:57.003Z</time></trkpt><trkpt lat="45.06793841175418" lon="9.708490442463557"><ele>52.0</ele><time>2026-05-04T12:02:58.003Z</time></trkpt><trkpt lat="45.06778890310824" lon="9.708377940124276"><ele>50.666666666666664</ele><time>2026-05-04T12:02:59.003Z</time></trkpt><trkpt lat="45.06763797719639" lon="9.708268116886714"><ele>49.33333333333333</ele><time>2026-05-04T12:03:00.003Z</time></trkpt><trkpt lat="45.06748890903237" lon="9.70816060960137"><ele>48.0</ele><time>2026-05-04T12:03:01.003Z</time></trkpt><trkpt lat="45.06734392307657" lon="9.708057640410178"><ele>48.0</ele><time>2026-05-04T12:03:02.003Z</time></trkpt><trkpt lat="45.06720071098116" lon="9.707952828687226"><ele>48.0</ele><time>2026-05-04T12:03:03.003Z</time></trkpt><trkpt lat="45.06705507898202" lon="9.707843759064207"><ele>48.0</ele><time>2026-05-04T12:03:04.003Z</time></trkpt><trkpt lat="45.066908245962686" lon="9.707736822506893"><ele>48.33333333333333</ele><time>2026-05-04T12:03:05.003Z</time></trkpt><trkpt lat="45.066764342381724" lon="9.707626679072675"><ele>48.666666666666664</ele><time>2026-05-04T12:03:06.003Z</time></trkpt><trkpt lat="45.06662129983941" lon="9.707527100127423"><ele>49.0</ele><time>2026-05-04T12:03:07.003Z</time></trkpt><trkpt lat="45.066480185928164" lon="9.70742538263343"><ele>48.0</ele><time>2026-05-04T12:03:08.003Z</time></trkpt><trkpt lat="45.06633200164173" lon="9.707322419518398"><ele>47.0</ele><time>2026-05-04T12:03:09.003Z</time></trkpt><trkpt lat="45.06618789598596" lon="9.70721423796065"><ele>46.0</ele><time>2026-05-04T12:03:10.003Z</time></trkpt><trkpt lat="45.066043059847395" lon="9.707105614593004"><ele>46.0</ele><time>2026-05-04T12:03:11.003Z</time></trkpt><trkpt lat="45.065899709078856" lon="9.707002138217414"><ele>46.0</ele><time>2026-05-04T12:03:12.003Z</time></trkpt><trkpt lat="45.065755145365365" lon="9.706895695935726"><ele>46.0</ele><time>2026-05-04T12:03:13.003Z</time></trkpt><trkpt lat="45.06560679833093" lon="9.706788825724685"><ele>45.66666666666667</ele><time>2026-05-04T12:03:14.003Z</time></trkpt><trkpt lat="45.06546547540646" lon="9.706680905931035"><ele>45.333333333333336</ele><time>2026-05-04T12:03:15.003Z</time></trkpt><trkpt lat="45.065321542849375" lon="9.706575865213185"><ele>45.0</ele><time>2026-05-04T12:03:16.003Z</time></trkpt><trkpt lat="45.065177313988585" lon="9.706471292988537"><ele>45.0</ele><time>2026-05-04T12:03:17.003Z</time></trkpt><trkpt lat="45.06503487196856" lon="9.706364866024291"><ele>45.0</ele><time>2026-05-04T12:03:18.003Z</time></trkpt><trkpt lat="45.06488797044818" lon="9.706256811556633"><ele>45.0</ele><time>2026-05-04T12:03:19.003Z</time></trkpt><trkpt lat="45.064741224146616" lon="9.706148068766902"><ele>46.33333333333333</ele><time>2026-05-04T12:03:20.003Z</time></trkpt><trkpt lat="45.0645902955764" lon="9.70603796912723"><ele>47.666666666666664</ele><time>2026-05-04T12:03:21.003Z</time></trkpt><trkpt lat="45.064442457136145" lon="9.705928552099413"><ele>49.0</ele><time>2026-05-04T12:03:22.003Z</time></trkpt><trkpt lat="45.06430074111215" lon="9.705826937027764"><ele>49.0</ele><time>2026-05-04T12:03:23.003Z</time></trkpt><trkpt lat="45.06416105099575" lon="9.70572567951321"><ele>49.0</ele><time>2026-05-04T12:03:24.003Z</time></trkpt><trkpt lat="45.06401665001628" lon="9.705621643745973"><ele>49.0</ele><time>2026-05-04T12:03:25.003Z</time></trkpt><trkpt lat="45.06386629097057" lon="9.705512525930082"><ele>48.0</ele><time>2026-05-04T12:03:26.003Z</time></trkpt><trkpt lat="45.06371924286265" lon="9.705404597630807"><ele>47.0</ele><time>2026-05-04T12:03:27.003Z</time></trkpt><trkpt lat="45.0635819559383" lon="9.705302157290078"><ele>46.0</ele><time>2026-05-04T12:03:28.003Z</time></trkpt><trkpt lat="45.06344454393746" lon="9.705200054392813"><ele>46.0</ele><time>2026-05-04T12:03:29.003Z</time></trkpt><trkpt lat="45.06330637611311" lon="9.705099220532086"><ele>46.0</ele><time>2026-05-04T12:03:30.003Z</time></trkpt><trkpt lat="45.063164445591454" lon="9.704995044584386"><ele>46.0</ele><time>2026-05-04T12:03:31.003Z</time></trkpt><trkpt lat="45.06302248876393" lon="9.704888843401767"><ele>47.333333333333336</ele><time>2026-05-04T12:03:32.003Z</time></trkpt><trkpt lat="45.06287703152952" lon="9.70478279579032"><ele>48.66666666666667</ele><time>2026-05-04T12:03:33.003Z</time></trkpt><trkpt lat="45.06273090211161" lon="9.704677269885504"><ele>50.0</ele><time>2026-05-04T12:03:34.003Z</time></trkpt><trkpt lat="45.06258678465846" lon="9.70457213638214"><ele>49.0</ele><time>2026-05-04T12:03:35.003Z</time></trkpt><trkpt lat="45.062439642051416" lon="9.70446700030507"><ele>48.0</ele><time>2026-05-04T12:03:36.003Z</time></trkpt><trkpt lat="45.0622890094511" lon="9.704357866570385"><ele>47.0</ele><time>2026-05-04T12:03:37.003Z</time></trkpt><trkpt lat="45.0621338125027" lon="9.70424584847068"><ele>47.0</ele><time>2026-05-04T12:03:38.003Z</time></trkpt><trkpt lat="45.06197956588656" lon="9.70413186905797"><ele>47.0</ele><time>2026-05-04T12:03:39.003Z</time></trkpt><trkpt lat="45.061830010594456" lon="9.704020603294095"><ele>47.0</ele><time>2026-05-04T12:03:40.003Z</time></trkpt><trkpt lat="45.061685898511925" lon="9.703914279994137"><ele>45.33333333333333</ele><time>2026-05-04T12:03:41.003Z</time></trkpt><trkpt lat="45.06154337390492" lon="9.703810165224287"><ele>43.666666666666664</ele><time>2026-05-04T12:03:42.003Z</time></trkpt><trkpt lat="45.061408286671316" lon="9.703710957158933"><ele>42.0</ele><time>2026-05-04T12:03:43.003Z</time></trkpt><trkpt lat="45.061269832633684" lon="9.703610596269467"><ele>41.75</ele><time>2026-05-04T12:03:44.003Z</time></trkpt><trkpt lat="45.061136804792646" lon="9.703515666239866"><ele>41.5</ele><time>2026-05-04T12:03:45.003Z</time></trkpt><trkpt lat="45.06100295640668" lon="9.703418512412993"><ele>41.25</ele><time>2026-05-04T12:03:46.003Z</time></trkpt><trkpt lat="45.06087191567976" lon="9.703320334223612"><ele>41.0</ele><time>2026-05-04T12:03:47.003Z</time></trkpt><trkpt lat="45.060738460416786" lon="9.703222611697003"><ele>41.0</ele><time>2026-05-04T12:03:48.003Z</time></trkpt><trkpt lat="45.06060524437744" lon="9.70312483636783"><ele>41.0</ele><time>2026-05-04T12:03:49.003Z</time></trkpt><trkpt lat="45.06046952535743" lon="9.703026587970017"><ele>41.0</ele><time>2026-05-04T12:03:50.003Z</time></trkpt><trkpt lat="45.06033567437619" lon="9.702925507758492"><ele>41.0</ele><time>2026-05-04T12:03:51.003Z</time></trkpt><trkpt lat="45.060197704785104" lon="9.70282612064478"><ele>41.0</ele><time>2026-05-04T12:03:52.003Z</time></trkpt><trkpt lat="45.060063114219425" lon="9.702731594220202"><ele>41.0</ele><time>2026-05-04T12:03:53.003Z</time></trkpt><trkpt lat="45.05993313008076" lon="9.70264092353248"><ele>44.0</ele><time>2026-05-04T12:03:54.003Z</time></trkpt><trkpt lat="45.05980598282845" lon="9.702548509382268"><ele>47.0</ele><time>2026-05-04T12:03:55.003Z</time></trkpt><trkpt lat="45.05967526607751" lon="9.702451098450812"><ele>50.0</ele><time>2026-05-04T12:03:56.003Z</time></trkpt><trkpt lat="45.059545961757266" lon="9.702345413022119"><ele>53.0</ele><time>2026-05-04T12:03:57.003Z</time></trkpt><trkpt lat="45.05941466161522" lon="9.702226840299186"><ele>53.0</ele><time>2026-05-04T12:03:58.003Z</time></trkpt><trkpt lat="45.05929124123438" lon="9.702099675682941"><ele>53.0</ele><time>2026-05-04T12:03:59.003Z</time></trkpt><trkpt lat="45.059175936906456" lon="9.701968311335149"><ele>53.0</ele><time>2026-05-04T12:04:00.003Z</time></trkpt><trkpt lat="45.05906628023871" lon="9.70183685047365"><ele>53.0</ele><time>2026-05-04T12:04:01.003Z</time></trkpt><trkpt lat="45.058963918402064" lon="9.701707162745112"><ele>52.5</ele><time>2026-05-04T12:04:02.003Z</time></trkpt><trkpt lat="45.05886615078119" lon="9.701582538352865"><ele>52.0</ele><time>2026-05-04T12:04:03.003Z</time></trkpt><trkpt lat="45.05876676685607" lon="9.70146335405975"><ele>51.5</ele><time>2026-05-04T12:04:04.003Z</time></trkpt><trkpt lat="45.0586679657314" lon="9.70134071353023"><ele>51.0</ele><time>2026-05-04T12:04:05.003Z</time></trkpt><trkpt lat="45.058584537108956" lon="9.7012186880886"><ele>51.0</ele><time>2026-05-04T12:04:06.003Z</time></trkpt><trkpt lat="45.05849598984774" lon="9.701095827856307"><ele>51.0</ele><time>2026-05-04T12:04:07.003Z</time></trkpt><trkpt lat="45.05840786970254" lon="9.700976498899362"><ele>51.0</ele><time>2026-05-04T12:04:08.003Z</time></trkpt><trkpt lat="45.058319917037316" lon="9.700870490053303"><ele>51.0</ele><time>2026-05-04T12:04:09.003Z</time></trkpt><trkpt lat="45.05823274091762" lon="9.700765516063232"><ele>51.599999999999994</ele><time>2026-05-04T12:04:10.003Z</time></trkpt><trkpt lat="45.058150859314026" lon="9.700667483225283"><ele>52.2</ele><time>2026-05-04T12:04:11.003Z</time></trkpt><trkpt lat="45.05807756240632" lon="9.700569985542856"><ele>52.800000000000004</ele><time>2026-05-04T12:04:12.003Z</time></trkpt><trkpt lat="45.05800206238054" lon="9.7004782540034"><ele>53.400000000000006</ele><time>2026-05-04T12:04:13.003Z</time></trkpt><trkpt lat="45.057927531326634" lon="9.700389026967255"><ele>54.0</ele><time>2026-05-04T12:04:14.003Z</time></trkpt><trkpt lat="45.057855433437815" lon="9.70030133962679"><ele>53.666666666666664</ele><time>2026-05-04T12:04:15.003Z</time></trkpt><trkpt lat="45.05779255474843" lon="9.700220930332614"><ele>53.33333333333333</ele><time>2026-05-04T12:04:16.003Z</time></trkpt><trkpt lat="45.05773357352711" lon="9.70015105920323"><ele>53.0</ele><time>2026-05-04T12:04:17.003Z</time></trkpt><trkpt lat="45.05768066508275" lon="9.700089291920461"><ele>52.666666666666664</ele><time>2026-05-04T12:04:18.003Z</time></trkpt><trkpt lat="45.057632496659714" lon="9.700030241459327"><ele>52.33333333333333</ele><time>2026-05-04T12:04:19.003Z</time></trkpt><trkpt lat="45.05755652145596" lon="9.699897325824942"><ele>52.0</ele><time>2026-05-04T12:04:21.003Z</time></trkpt><trkpt lat="45.05752930892718" lon="9.699809566561767"><ele>52.0</ele><time>2026-05-04T12:04:22.003Z</time></trkpt><trkpt lat="45.057493380937416" lon="9.699726916250956"><ele>52.0</ele><time>2026-05-04T12:04:23.003Z</time></trkpt><trkpt lat="45.05740186262919" lon="9.699672769695901"><ele>52.0</ele><time>2026-05-04T12:04:25.003Z</time></trkpt><trkpt lat="45.05732718092632" lon="9.699668373228196"><ele>52.0</ele><time>2026-05-04T12:04:27.003Z</time></trkpt><trkpt lat="45.05724053417011" lon="9.699837690743376"><ele>52.0</ele><time>2026-05-04T12:04:28.003Z</time></trkpt><trkpt lat="45.05725381451552" lon="9.699991767265999"><ele>52.400000000000006</ele><time>2026-05-04T12:04:29.003Z</time></trkpt><trkpt lat="45.05721765048844" lon="9.700088129947817"><ele>52.800000000000004</ele><time>2026-05-04T12:04:30.003Z</time></trkpt><trkpt lat="45.05716434228139" lon="9.700191644209513"><ele>53.2</ele><time>2026-05-04T12:04:31.003Z</time></trkpt><trkpt lat="45.05710832481421" lon="9.70030401956694"><ele>53.6</ele><time>2026-05-04T12:04:32.003Z</time></trkpt><trkpt lat="45.05704937952541" lon="9.70042314506761"><ele>54.0</ele><time>2026-05-04T12:04:33.003Z</time></trkpt><trkpt lat="45.05700527923719" lon="9.700526676710906"><ele>54.166666666666664</ele><time>2026-05-04T12:04:34.003Z</time></trkpt><trkpt lat="45.056966564181664" lon="9.700635315387585"><ele>54.33333333333333</ele><time>2026-05-04T12:04:35.003Z</time></trkpt><trkpt lat="45.05693333909686" lon="9.700733570688968"><ele>54.5</ele><time>2026-05-04T12:04:36.003Z</time></trkpt><trkpt lat="45.056899565578306" lon="9.70082583501502"><ele>54.666666666666664</ele><time>2026-05-04T12:04:37.003Z</time></trkpt><trkpt lat="45.05686117385588" lon="9.700917462441662"><ele>54.83333333333333</ele><time>2026-05-04T12:04:38.003Z</time></trkpt><trkpt lat="45.05682322471101" lon="9.701017412492574"><ele>55.0</ele><time>2026-05-04T12:04:39.003Z</time></trkpt><trkpt lat="45.056790245663436" lon="9.701119229693413"><ele>54.666666666666664</ele><time>2026-05-04T12:04:40.003Z</time></trkpt><trkpt lat="45.05678027908438" lon="9.701243367324361"><ele>54.33333333333333</ele><time>2026-05-04T12:04:41.003Z</time></trkpt><trkpt lat="45.05673736907893" lon="9.701341140301755"><ele>54.0</ele><time>2026-05-04T12:04:42.003Z</time></trkpt><trkpt lat="45.05669912736769" lon="9.701434324583557"><ele>53.66666666666667</ele><time>2026-05-04T12:04:43.003Z</time></trkpt><trkpt lat="45.0566515355865" lon="9.701506800246337"><ele>53.333333333333336</ele><time>2026-05-04T12:04:44.003Z</time></trkpt><trkpt lat="45.05659854010925" lon="9.701595244001027"><ele>53.0</ele><time>2026-05-04T12:04:45.003Z</time></trkpt><trkpt lat="45.05654514693442" lon="9.701697018892029"><ele>52.8</ele><time>2026-05-04T12:04:46.003Z</time></trkpt><trkpt lat="45.05648294689053" lon="9.701807431172387"><ele>52.599999999999994</ele><time>2026-05-04T12:04:47.003Z</time></trkpt><trkpt lat="45.056413536571135" lon="9.701923010286826"><ele>52.400000000000006</ele><time>2026-05-04T12:04:48.003Z</time></trkpt><trkpt lat="45.05633651797713" lon="9.702036945748848"><ele>52.2</ele><time>2026-05-04T12:04:49.003Z</time></trkpt><trkpt lat="45.05625626872806" lon="9.702155477907517"><ele>52.0</ele><time>2026-05-04T12:04:50.003Z</time></trkpt><trkpt lat="45.05618037991838" lon="9.70227880413815"><ele>52.0</ele><time>2026-05-04T12:04:51.003Z</time></trkpt><trkpt lat="45.05610659235234" lon="9.70237755828419"><ele>52.0</ele><time>2026-05-04T12:04:52.003Z</time></trkpt><trkpt lat="45.056039384384576" lon="9.702469692364588"><ele>52.0</ele><time>2026-05-04T12:04:53.003Z</time></trkpt><trkpt lat="45.05596590578818" lon="9.702553612041985"><ele>52.0</ele><time>2026-05-04T12:04:54.003Z</time></trkpt><trkpt lat="45.05588276067651" lon="9.702628718957405"><ele>52.0</ele><time>2026-05-04T12:04:55.003Z</time></trkpt><trkpt lat="45.05580429036647" lon="9.702690253426313"><ele>52.166666666666664</ele><time>2026-05-04T12:04:56.003Z</time></trkpt><trkpt lat="45.055722942304115" lon="9.702747230865683"><ele>52.33333333333333</ele><time>2026-05-04T12:04:57.003Z</time></trkpt><trkpt lat="45.05562922855082" lon="9.702787501589068"><ele>52.5</ele><time>2026-05-04T12:04:58.003Z</time></trkpt><trkpt lat="45.055546807692515" lon="9.70283530669688"><ele>52.66666666666667</ele><time>2026-05-04T12:04:59.003Z</time></trkpt><trkpt lat="45.05547313557014" lon="9.702881683524403"><ele>52.833333333333336</ele><time>2026-05-04T12:05:00.003Z</time></trkpt><trkpt lat="45.055397619708685" lon="9.702931651260094"><ele>53.0</ele><time>2026-05-04T12:05:01.003Z</time></trkpt><trkpt lat="45.05532486248313" lon="9.702987087739565"><ele>53.0</ele><time>2026-05-04T12:05:02.003Z</time></trkpt><trkpt lat="45.05525987875857" lon="9.703032841388902"><ele>53.0</ele><time>2026-05-04T12:05:03.003Z</time></trkpt><trkpt lat="45.055158184760444" lon="9.703107563164384"><ele>53.0</ele><time>2026-05-04T12:05:05.003Z</time></trkpt><trkpt lat="45.05504858248904" lon="9.703185802343857"><ele>53.0</ele><time>2026-05-04T12:05:07.003Z</time></trkpt><trkpt lat="45.054961703889816" lon="9.703236953485073"><ele>53.0</ele><time>2026-05-04T12:05:09.003Z</time></trkpt><trkpt lat="45.054868446862514" lon="9.703282695324805"><ele>52.833333333333336</ele><time>2026-05-04T12:05:11.003Z</time></trkpt><trkpt lat="45.054751378769964" lon="9.703350988189984"><ele>52.66666666666667</ele><time>2026-05-04T12:05:13.003Z</time></trkpt><trkpt lat="45.054679933982655" lon="9.70338390336509"><ele>52.5</ele><time>2026-05-04T12:05:14.003Z</time></trkpt><trkpt lat="45.05460119538519" lon="9.703425981081653"><ele>52.33333333333333</ele><time>2026-05-04T12:05:15.003Z</time></trkpt><trkpt lat="45.054526807464256" lon="9.703463100613211"><ele>52.166666666666664</ele><time>2026-05-04T12:05:16.003Z</time></trkpt><trkpt lat="45.05446681739556" lon="9.703493746996152"><ele>52.0</ele><time>2026-05-04T12:05:17.003Z</time></trkpt><trkpt lat="45.05436162771092" lon="9.703528509158918"><ele>52.0</ele><time>2026-05-04T12:05:19.003Z</time></trkpt><trkpt lat="45.05425985744644" lon="9.703561415838946"><ele>52.0</ele><time>2026-05-04T12:05:21.003Z</time></trkpt><trkpt lat="45.05416726516599" lon="9.703662644424899"><ele>52.0</ele><time>2026-05-04T12:05:23.003Z</time></trkpt><trkpt lat="45.05406321499473" lon="9.703757466887257"><ele>52.0</ele><time>2026-05-04T12:05:25.004Z</time></trkpt><trkpt lat="45.054002036015824" lon="9.703795023497701"><ele>52.0</ele><time>2026-05-04T12:05:26.003Z</time></trkpt><trkpt lat="45.05393872303611" lon="9.703829922895375"><ele>51.83333333333333</ele><time>2026-05-04T12:05:27.003Z</time></trkpt><trkpt lat="45.053880249382985" lon="9.703865708968397"><ele>51.666666666666664</ele><time>2026-05-04T12:05:28.003Z</time></trkpt><trkpt lat="45.053789455400185" lon="9.703922234516456"><ele>51.5</ele><time>2026-05-04T12:05:30.003Z</time></trkpt><trkpt lat="45.053699864383205" lon="9.703976183292687"><ele>51.33333333333333</ele><time>2026-05-04T12:05:32.003Z</time></trkpt><trkpt lat="45.05363496702422" lon="9.704011895423083"><ele>51.166666666666664</ele><time>2026-05-04T12:05:33.003Z</time></trkpt><trkpt lat="45.05356679973606" lon="9.704048995836233"><ele>51.0</ele><time>2026-05-04T12:05:34.003Z</time></trkpt><trkpt lat="45.0534780806801" lon="9.7040967966611"><ele>51.0</ele><time>2026-05-04T12:05:36.003Z</time></trkpt><trkpt lat="45.053405913455094" lon="9.704118745307222"><ele>51.0</ele><time>2026-05-04T12:05:39.003Z</time></trkpt><trkpt lat="45.05327981920932" lon="9.7041665578253"><ele>51.0</ele><time>2026-05-04T12:05:41.003Z</time></trkpt><trkpt lat="45.05318877860809" lon="9.704224505874759"><ele>51.0</ele><time>2026-05-04T12:05:42.003Z</time></trkpt><trkpt lat="45.0531000632775" lon="9.704280411303358"><ele>51.0</ele><time>2026-05-04T12:05:43.003Z</time></trkpt><trkpt lat="45.05300186115926" lon="9.704328786262813"><ele>51.4</ele><time>2026-05-04T12:05:44.003Z</time></trkpt><trkpt lat="45.05290796281738" lon="9.704371473164924"><ele>51.8</ele><time>2026-05-04T12:05:45.003Z</time></trkpt><trkpt lat="45.052824328227466" lon="9.704433458022454"><ele>52.199999999999996</ele><time>2026-05-04T12:05:46.003Z</time></trkpt><trkpt lat="45.052741900682214" lon="9.704493015455638"><ele>52.599999999999994</ele><time>2026-05-04T12:05:47.003Z</time></trkpt><trkpt lat="45.05265988358463" lon="9.704543720660645"><ele>53.0</ele><time>2026-05-04T12:05:48.003Z</time></trkpt><trkpt lat="45.05258732526797" lon="9.704587943819371"><ele>53.00000000000001</ele><time>2026-05-04T12:05:49.003Z</time></trkpt><trkpt lat="45.052512059011846" lon="9.704624860152915"><ele>53.0</ele><time>2026-05-04T12:05:50.003Z</time></trkpt><trkpt lat="45.05244372683416" lon="9.704658558175534"><ele>53.0</ele><time>2026-05-04T12:05:51.003Z</time></trkpt><trkpt lat="45.052381635518934" lon="9.704696458588387"><ele>53.0</ele><time>2026-05-04T12:05:52.003Z</time></trkpt><trkpt lat="45.05226327425081" lon="9.70473827862019"><ele>53.00000000000001</ele><time>2026-05-04T12:05:54.003Z</time></trkpt><trkpt lat="45.05216236214666" lon="9.704757394575056"><ele>53.0</ele><time>2026-05-04T12:05:56.003Z</time></trkpt><trkpt lat="45.052070142646926" lon="9.704781023271542"><ele>52.833333333333336</ele><time>2026-05-04T12:05:58.003Z</time></trkpt><trkpt lat="45.05198031847618" lon="9.70477992916062"><ele>52.66666666666667</ele><time>2026-05-04T12:06:01.003Z</time></trkpt><trkpt lat="45.051914317810144" lon="9.704774958885334"><ele>52.5</ele><time>2026-05-04T12:06:03.003Z</time></trkpt><trkpt lat="45.05185625178183" lon="9.704739803578057"><ele>52.33333333333333</ele><time>2026-05-04T12:06:09.003Z</time></trkpt><trkpt lat="45.05180468163326" lon="9.704838846476248"><ele>52.166666666666664</ele><time>2026-05-04T12:06:12.003Z</time></trkpt><trkpt lat="45.05176750981134" lon="9.704947945673572"><ele>52.0</ele><time>2026-05-04T12:06:14.003Z</time></trkpt><trkpt lat="45.05169002475468" lon="9.704983496310495"><ele>52.0</ele><time>2026-05-04T12:06:15.003Z</time></trkpt><trkpt lat="45.05163630674216" lon="9.705031540676494"><ele>52.0</ele><time>2026-05-04T12:06:16.003Z</time></trkpt><trkpt lat="45.05157187845745" lon="9.705081171413598"><ele>52.0</ele><time>2026-05-04T12:06:17.003Z</time></trkpt><trkpt lat="45.05147823324569" lon="9.705153180026429"><ele>52.0</ele><time>2026-05-04T12:06:19.003Z</time></trkpt><trkpt lat="45.051386836036976" lon="9.705193971180408"><ele>52.0</ele><time>2026-05-04T12:06:21.003Z</time></trkpt><trkpt lat="45.051277361496844" lon="9.705236263406317"><ele>53.8</ele><time>2026-05-04T12:06:23.003Z</time></trkpt><trkpt lat="45.05121776164152" lon="9.705298588509732"><ele>55.6</ele><time>2026-05-04T12:06:24.003Z</time></trkpt><trkpt lat="45.05115990332629" lon="9.70535938943007"><ele>57.39999999999999</ele><time>2026-05-04T12:06:25.003Z</time></trkpt><trkpt lat="45.05104985585691" lon="9.705440392466299"><ele>59.199999999999996</ele><time>2026-05-04T12:06:27.003Z</time></trkpt><trkpt lat="45.05097202701011" lon="9.705499324666226"><ele>61.0</ele><time>2026-05-04T12:06:29.003Z</time></trkpt><trkpt lat="45.050850400594044" lon="9.705589148380971"><ele>61.33333333333333</ele><time>2026-05-04T12:06:31.003Z</time></trkpt><trkpt lat="45.050780652548966" lon="9.705640078978375"><ele>61.666666666666664</ele><time>2026-05-04T12:06:32.003Z</time></trkpt><trkpt lat="45.050717412967565" lon="9.705688605388993"><ele>62.0</ele><time>2026-05-04T12:06:33.003Z</time></trkpt><trkpt lat="45.05064087338047" lon="9.705714202813228"><ele>62.33333333333333</ele><time>2026-05-04T12:06:34.003Z</time></trkpt><trkpt lat="45.05057366119264" lon="9.705764659593072"><ele>62.666666666666664</ele><time>2026-05-04T12:06:35.003Z</time></trkpt><trkpt lat="45.050509912240166" lon="9.70583513449916"><ele>63.0</ele><time>2026-05-04T12:06:36.003Z</time></trkpt><trkpt lat="45.05045235872985" lon="9.705881293800855"><ele>63.0</ele><time>2026-05-04T12:06:37.003Z</time></trkpt><trkpt lat="45.05034797933122" lon="9.705964302070887"><ele>63.0</ele><time>2026-05-04T12:06:39.003Z</time></trkpt><trkpt lat="45.05024568605353" lon="9.706059661002081"><ele>63.0</ele><time>2026-05-04T12:06:42.003Z</time></trkpt><trkpt lat="45.05015368895353" lon="9.706104022323164"><ele>63.0</ele><time>2026-05-04T12:06:44.003Z</time></trkpt><trkpt lat="45.05006708586667" lon="9.706127957184677"><ele>63.0</ele><time>2026-05-04T12:06:46.003Z</time></trkpt><trkpt lat="45.04999482720668" lon="9.70610769114554"><ele>62.0</ele><time>2026-05-04T12:06:48.003Z</time></trkpt><trkpt lat="45.04990914774699" lon="9.706043351022252"><ele>61.0</ele><time>2026-05-04T12:06:50.003Z</time></trkpt><trkpt lat="45.0498255196997" lon="9.706077412618637"><ele>60.0</ele><time>2026-05-04T12:06:52.003Z</time></trkpt><trkpt lat="45.049756078099804" lon="9.706147114679359"><ele>59.0</ele><time>2026-05-04T12:06:53.003Z</time></trkpt><trkpt lat="45.049644082620354" lon="9.706199336793354"><ele>58.0</ele><time>2026-05-04T12:06:54.003Z</time></trkpt><trkpt lat="45.049531250235546" lon="9.706241114028066"><ele>57.75</ele><time>2026-05-04T12:06:55.003Z</time></trkpt><trkpt lat="45.04940837253184" lon="9.706299960878166"><ele>57.5</ele><time>2026-05-04T12:06:56.003Z</time></trkpt><trkpt lat="45.049283883542685" lon="9.706354539022353"><ele>57.25</ele><time>2026-05-04T12:06:57.003Z</time></trkpt><trkpt lat="45.049157607233404" lon="9.706430821764005"><ele>57.0</ele><time>2026-05-04T12:06:58.003Z</time></trkpt><trkpt lat="45.04903339749575" lon="9.706505968832127"><ele>56.75</ele><time>2026-05-04T12:06:59.003Z</time></trkpt><trkpt lat="45.04890577704147" lon="9.706569867063916"><ele>56.5</ele><time>2026-05-04T12:07:00.003Z</time></trkpt><trkpt lat="45.0487889782663" lon="9.706623253026486"><ele>56.25</ele><time>2026-05-04T12:07:01.003Z</time></trkpt><trkpt lat="45.04867208401427" lon="9.70665702402015"><ele>56.0</ele><time>2026-05-04T12:07:02.003Z</time></trkpt><trkpt lat="45.0485578279371" lon="9.706636641358086"><ele>56.0</ele><time>2026-05-04T12:07:03.003Z</time></trkpt><trkpt lat="45.048443284658966" lon="9.706602084008027"><ele>56.0</ele><time>2026-05-04T12:07:04.003Z</time></trkpt><trkpt lat="45.04832713799976" lon="9.706526851248507"><ele>56.0</ele><time>2026-05-04T12:07:05.003Z</time></trkpt><trkpt lat="45.04822270118767" lon="9.706373320222335"><ele>56.0</ele><time>2026-05-04T12:07:06.003Z</time></trkpt><trkpt lat="45.04811899375745" lon="9.706238457377715"><ele>55.8</ele><time>2026-05-04T12:07:07.003Z</time></trkpt><trkpt lat="45.0480266034679" lon="9.706107823498577"><ele>55.599999999999994</ele><time>2026-05-04T12:07:08.003Z</time></trkpt><trkpt lat="45.04794533750637" lon="9.705992253652731"><ele>55.4</ele><time>2026-05-04T12:07:09.003Z</time></trkpt><trkpt lat="45.04786614002285" lon="9.705893198610251"><ele>55.2</ele><time>2026-05-04T12:07:10.003Z</time></trkpt><trkpt lat="45.04780032150029" lon="9.705804730427422"><ele>55.0</ele><time>2026-05-04T12:07:11.003Z</time></trkpt><trkpt lat="45.04774495903784" lon="9.705732856655054"><ele>55.49999999999999</ele><time>2026-05-04T12:07:12.003Z</time></trkpt><trkpt lat="45.047702378035865" lon="9.705652926992185"><ele>56.0</ele><time>2026-05-04T12:07:13.003Z</time></trkpt><trkpt lat="45.04766952814242" lon="9.705568310060187"><ele>56.5</ele><time>2026-05-04T12:07:14.003Z</time></trkpt><trkpt lat="45.04763754161991" lon="9.705475291818987"><ele>57.0</ele><time>2026-05-04T12:07:15.003Z</time></trkpt><trkpt lat="45.04761154310998" lon="9.705385410189404"><ele>57.49999999999999</ele><time>2026-05-04T12:07:16.003Z</time></trkpt><trkpt lat="45.047562513215425" lon="9.705321536471619"><ele>58.0</ele><time>2026-05-04T12:07:17.003Z</time></trkpt><trkpt lat="45.04745762717596" lon="9.705325394775356"><ele>58.0</ele><time>2026-05-04T12:07:19.003Z</time></trkpt><trkpt lat="45.04736366980018" lon="9.705414472841715"><ele>58.0</ele><time>2026-05-04T12:07:21.003Z</time></trkpt><trkpt lat="45.0473171572882" lon="9.705502893908287"><ele>58.0</ele><time>2026-05-04T12:07:22.003Z</time></trkpt><trkpt lat="45.04725303377466" lon="9.705615392844992"><ele>58.0</ele><time>2026-05-04T12:07:23.003Z</time></trkpt><trkpt lat="45.047181952171336" lon="9.70569735926323"><ele>58.0</ele><time>2026-05-04T12:07:24.003Z</time></trkpt><trkpt lat="45.04711807590555" lon="9.705754642616625"><ele>58.0</ele><time>2026-05-04T12:07:25.003Z</time></trkpt><trkpt lat="45.04699521845506" lon="9.705770051568129"><ele>58.0</ele><time>2026-05-04T12:07:27.003Z</time></trkpt><trkpt lat="45.04691717811975" lon="9.705741858590951"><ele>58.0</ele><time>2026-05-04T12:07:28.003Z</time></trkpt><trkpt lat="45.046822926208804" lon="9.705771358667054"><ele>58.0</ele><time>2026-05-04T12:07:29.003Z</time></trkpt><trkpt lat="45.046719465967456" lon="9.705574476278784"><ele>57.75</ele><time>2026-05-04T12:07:30.003Z</time></trkpt><trkpt lat="45.046604574940304" lon="9.705430206064516"><ele>57.5</ele><time>2026-05-04T12:07:31.003Z</time></trkpt><trkpt lat="45.04651193170178" lon="9.705296723793523"><ele>57.25</ele><time>2026-05-04T12:07:32.004Z</time></trkpt><trkpt lat="45.04644415754203" lon="9.705187882146909"><ele>57.0</ele><time>2026-05-04T12:07:33.003Z</time></trkpt><trkpt lat="45.04638307481497" lon="9.705078544152723"><ele>57.0</ele><time>2026-05-04T12:07:34.003Z</time></trkpt><trkpt lat="45.04632111920658" lon="9.704987620295213"><ele>57.0</ele><time>2026-05-04T12:07:35.003Z</time></trkpt><trkpt lat="45.04626952043509" lon="9.704899303041895"><ele>57.0</ele><time>2026-05-04T12:07:36.003Z</time></trkpt><trkpt lat="45.04620143492937" lon="9.704850447676545"><ele>57.0</ele><time>2026-05-04T12:07:37.003Z</time></trkpt><trkpt lat="45.046156915995496" lon="9.704787233789467"><ele>57.0</ele><time>2026-05-04T12:07:38.003Z</time></trkpt><trkpt lat="45.046067937169454" lon="9.704680225788758"><ele>57.0</ele><time>2026-05-04T12:07:40.003Z</time></trkpt><trkpt lat="45.04599074843335" lon="9.704564406967595"><ele>57.0</ele><time>2026-05-04T12:07:42.003Z</time></trkpt><trkpt lat="45.04592098643371" lon="9.704468456365085"><ele>57.0</ele><time>2026-05-04T12:07:44.003Z</time></trkpt><trkpt lat="45.04587051430554" lon="9.704399475643415"><ele>57.0</ele><time>2026-05-04T12:07:46.003Z</time></trkpt><trkpt lat="45.04580173740146" lon="9.704300136914867"><ele>57.0</ele><time>2026-05-04T12:07:49.003Z</time></trkpt><trkpt lat="45.04576407528777" lon="9.704206809465825"><ele>57.0</ele><time>2026-05-04T12:07:53.003Z</time></trkpt><trkpt lat="45.045697834415016" lon="9.704116689769991"><ele>57.0</ele><time>2026-05-04T12:07:56.003Z</time></trkpt><trkpt lat="45.04568277004992" lon="9.703981770059432"><ele>57.0</ele><time>2026-05-04T12:07:57.003Z</time></trkpt><trkpt lat="45.045621249152276" lon="9.703933066112338"><ele>57.0</ele><time>2026-05-04T12:07:58.003Z</time></trkpt><trkpt lat="45.04551290630372" lon="9.703917251316463"><ele>57.0</ele><time>2026-05-04T12:08:00.003Z</time></trkpt><trkpt lat="45.04542724020326" lon="9.703795103280237"><ele>57.0</ele><time>2026-05-04T12:08:02.003Z</time></trkpt><trkpt lat="45.04537146794825" lon="9.703748027175829"><ele>57.0</ele><time>2026-05-04T12:08:03.003Z</time></trkpt><trkpt lat="45.045318361310514" lon="9.703690405453822"><ele>57.0</ele><time>2026-05-04T12:08:04.003Z</time></trkpt><trkpt lat="45.045245334764594" lon="9.703555684977124"><ele>57.0</ele><time>2026-05-04T12:08:06.003Z</time></trkpt><trkpt lat="45.04519292421324" lon="9.703490501452064"><ele>57.0</ele><time>2026-05-04T12:08:07.003Z</time></trkpt><trkpt lat="45.04514129894498" lon="9.703427861619232"><ele>57.0</ele><time>2026-05-04T12:08:08.003Z</time></trkpt><trkpt lat="45.04508715322062" lon="9.703354585590597"><ele>57.0</ele><time>2026-05-04T12:08:09.003Z</time></trkpt><trkpt lat="45.04503618550532" lon="9.703287143982479"><ele>57.0</ele><time>2026-05-04T12:08:10.003Z</time></trkpt><trkpt lat="45.044927288734925" lon="9.703145160300423"><ele>57.0</ele><time>2026-05-04T12:08:12.003Z</time></trkpt><trkpt lat="45.04487629872074" lon="9.703076070053806"><ele>56.857142857142854</ele><time>2026-05-04T12:08:13.003Z</time></trkpt><trkpt lat="45.04482265491271" lon="9.703003048141001"><ele>56.71428571428571</ele><time>2026-05-04T12:08:14.003Z</time></trkpt><trkpt lat="45.04477014301622" lon="9.702931612421683"><ele>56.57142857142857</ele><time>2026-05-04T12:08:15.003Z</time></trkpt><trkpt lat="45.044716830630136" lon="9.702866550058967"><ele>56.42857142857143</ele><time>2026-05-04T12:08:16.003Z</time></trkpt><trkpt lat="45.0446664008436" lon="9.702794017449195"><ele>56.285714285714285</ele><time>2026-05-04T12:08:17.003Z</time></trkpt><trkpt lat="45.044618948108635" lon="9.702719800040368"><ele>56.14285714285714</ele><time>2026-05-04T12:08:18.003Z</time></trkpt><trkpt lat="45.044570945721794" lon="9.702649597430863"><ele>56.0</ele><time>2026-05-04T12:08:19.003Z</time></trkpt><trkpt lat="45.04452734280038" lon="9.702581517861471"><ele>56.333333333333336</ele><time>2026-05-04T12:08:20.003Z</time></trkpt><trkpt lat="45.044465825579174" lon="9.702525352419341"><ele>56.66666666666667</ele><time>2026-05-04T12:08:21.003Z</time></trkpt><trkpt lat="45.044417361882566" lon="9.70243064487396"><ele>57.0</ele><time>2026-05-04T12:08:22.003Z</time></trkpt><trkpt lat="45.04434803237656" lon="9.702368236375905"><ele>57.33333333333333</ele><time>2026-05-04T12:08:23.003Z</time></trkpt><trkpt lat="45.044291877671306" lon="9.702292904534248"><ele>57.666666666666664</ele><time>2026-05-04T12:08:24.003Z</time></trkpt><trkpt lat="45.044226552356804" lon="9.70221715848114"><ele>58.0</ele><time>2026-05-04T12:08:25.003Z</time></trkpt><trkpt lat="45.04416701027156" lon="9.702130643277284"><ele>58.00000000000001</ele><time>2026-05-04T12:08:26.003Z</time></trkpt><trkpt lat="45.044112983668114" lon="9.702057728109692"><ele>58.0</ele><time>2026-05-04T12:08:27.003Z</time></trkpt><trkpt lat="45.04406148643449" lon="9.701976481085014"><ele>58.00000000000001</ele><time>2026-05-04T12:08:28.003Z</time></trkpt><trkpt lat="45.04401273567473" lon="9.701908060953624"><ele>58.00000000000001</ele><time>2026-05-04T12:08:29.003Z</time></trkpt><trkpt lat="45.043956539243254" lon="9.701833626725275"><ele>58.0</ele><time>2026-05-04T12:08:30.003Z</time></trkpt><trkpt lat="45.04390130182398" lon="9.701763161252948"><ele>58.00000000000001</ele><time>2026-05-04T12:08:31.003Z</time></trkpt><trkpt lat="45.043853486722824" lon="9.701688185179254"><ele>58.00000000000001</ele><time>2026-05-04T12:08:32.003Z</time></trkpt><trkpt lat="45.043796941076984" lon="9.701602140701395"><ele>58.0</ele><time>2026-05-04T12:08:33.003Z</time></trkpt><trkpt lat="45.043720554923915" lon="9.70152428698305"><ele>58.0</ele><time>2026-05-04T12:08:34.003Z</time></trkpt><trkpt lat="45.04366475249311" lon="9.701408427872982"><ele>58.0</ele><time>2026-05-04T12:08:35.003Z</time></trkpt><trkpt lat="45.04364287401" lon="9.701294429271325"><ele>58.0</ele><time>2026-05-04T12:08:37.003Z</time></trkpt><trkpt lat="45.04359652045482" lon="9.701136086878039"><ele>58.0</ele><time>2026-05-04T12:08:43.003Z</time></trkpt><trkpt lat="45.0434508000027" lon="9.701009879053915"><ele>57.666666666666664</ele><time>2026-05-04T12:08:45.003Z</time></trkpt><trkpt lat="45.043356300599065" lon="9.701036094554686"><ele>57.33333333333333</ele><time>2026-05-04T12:08:46.003Z</time></trkpt><trkpt lat="45.043265566337745" lon="9.700984095661598"><ele>57.0</ele><time>2026-05-04T12:08:47.003Z</time></trkpt><trkpt lat="45.04319579472352" lon="9.700906989822233"><ele>56.66666666666667</ele><time>2026-05-04T12:08:48.003Z</time></trkpt><trkpt lat="45.04314959652411" lon="9.70082180647445"><ele>56.333333333333336</ele><time>2026-05-04T12:08:49.003Z</time></trkpt><trkpt lat="45.04309350296695" lon="9.700740892627918"><ele>56.0</ele><time>2026-05-04T12:08:50.003Z</time></trkpt><trkpt lat="45.04303266078822" lon="9.700670898222597"><ele>56.00000000000001</ele><time>2026-05-04T12:08:51.003Z</time></trkpt><trkpt lat="45.042975652990656" lon="9.700610470976324"><ele>56.0</ele><time>2026-05-04T12:08:52.003Z</time></trkpt><trkpt lat="45.042924750301545" lon="9.700539443101457"><ele>56.0</ele><time>2026-05-04T12:08:53.003Z</time></trkpt><trkpt lat="45.04287918659915" lon="9.700462971931195"><ele>56.0</ele><time>2026-05-04T12:08:54.003Z</time></trkpt><trkpt lat="45.04283331899801" lon="9.70038855773523"><ele>56.00000000000001</ele><time>2026-05-04T12:08:55.003Z</time></trkpt><trkpt lat="45.04278565705096" lon="9.700322675791535"><ele>56.0</ele><time>2026-05-04T12:08:56.003Z</time></trkpt><trkpt lat="45.042709183158614" lon="9.700226700022743"><ele>56.00000000000001</ele><time>2026-05-04T12:08:58.003Z</time></trkpt><trkpt lat="45.04266438961709" lon="9.70014804186306"><ele>56.0</ele><time>2026-05-04T12:09:00.003Z</time></trkpt><trkpt lat="45.04260323002721" lon="9.700075105374747"><ele>56.0</ele><time>2026-05-04T12:09:03.003Z</time></trkpt><trkpt lat="45.04254184366564" lon="9.6999656246644"><ele>56.0</ele><time>2026-05-04T12:09:10.003Z</time></trkpt><trkpt lat="45.04248133669692" lon="9.699922109675697"><ele>56.00000000000001</ele><time>2026-05-04T12:09:12.003Z</time></trkpt><trkpt lat="45.04238906505047" lon="9.699804678952793"><ele>56.0</ele><time>2026-05-04T12:09:14.003Z</time></trkpt><trkpt lat="45.04239719134773" lon="9.699654996444682"><ele>56.25</ele><time>2026-05-04T12:09:15.003Z</time></trkpt><trkpt lat="45.04240087447775" lon="9.699481503295123"><ele>56.5</ele><time>2026-05-04T12:09:16.003Z</time></trkpt><trkpt lat="45.04239608875686" lon="9.699303720990757"><ele>56.75</ele><time>2026-05-04T12:09:17.003Z</time></trkpt><trkpt lat="45.042384992344054" lon="9.699128186287755"><ele>57.0</ele><time>2026-05-04T12:09:18.003Z</time></trkpt><trkpt lat="45.04238079557843" lon="9.698952103781398"><ele>57.0</ele><time>2026-05-04T12:09:19.003Z</time></trkpt><trkpt lat="45.042388205910086" lon="9.698797349293368"><ele>57.0</ele><time>2026-05-04T12:09:20.003Z</time></trkpt><trkpt lat="45.04239085673423" lon="9.698683621943477"><ele>57.0</ele><time>2026-05-04T12:09:21.003Z</time></trkpt><trkpt lat="45.04238157529415" lon="9.698589411970122"><ele>57.0</ele><time>2026-05-04T12:09:22.003Z</time></trkpt><trkpt lat="45.042372724620925" lon="9.698500523619797"><ele>57.0</ele><time>2026-05-04T12:09:23.003Z</time></trkpt><trkpt lat="45.04236465331113" lon="9.698395584289603"><ele>57.0</ele><time>2026-05-04T12:09:24.003Z</time></trkpt><trkpt lat="45.0423790466331" lon="9.698274732079119"><ele>57.2</ele><time>2026-05-04T12:09:25.003Z</time></trkpt><trkpt lat="45.04237904663268" lon="9.698140140403261"><ele>57.400000000000006</ele><time>2026-05-04T12:09:26.003Z</time></trkpt><trkpt lat="45.04237321705676" lon="9.697988497845989"><ele>57.599999999999994</ele><time>2026-05-04T12:09:27.003Z</time></trkpt><trkpt lat="45.04237125117074" lon="9.697815476748858"><ele>57.8</ele><time>2026-05-04T12:09:28.003Z</time></trkpt><trkpt lat="45.042367526652185" lon="9.69763967899384"><ele>58.0</ele><time>2026-05-04T12:09:29.003Z</time></trkpt><trkpt lat="45.04236819868656" lon="9.697462530572881"><ele>58.25</ele><time>2026-05-04T12:09:30.003Z</time></trkpt><trkpt lat="45.042371786180624" lon="9.69728204584217"><ele>58.5</ele><time>2026-05-04T12:09:31.003Z</time></trkpt><trkpt lat="45.04237468445481" lon="9.69710130873033"><ele>58.75</ele><time>2026-05-04T12:09:32.003Z</time></trkpt><trkpt lat="45.042376513083056" lon="9.696919759147152"><ele>59.0</ele><time>2026-05-04T12:09:33.003Z</time></trkpt><trkpt lat="45.04237635188189" lon="9.696734196474118"><ele>59.5</ele><time>2026-05-04T12:09:34.003Z</time></trkpt><trkpt lat="45.042374986956446" lon="9.696554812788811"><ele>60.0</ele><time>2026-05-04T12:09:35.003Z</time></trkpt><trkpt lat="45.042374163648056" lon="9.696373115090047"><ele>60.5</ele><time>2026-05-04T12:09:36.003Z</time></trkpt><trkpt lat="45.042374131712116" lon="9.696190945875417"><ele>61.0</ele><time>2026-05-04T12:09:37.003Z</time></trkpt><trkpt lat="45.042376201735294" lon="9.69600034186163"><ele>61.0</ele><time>2026-05-04T12:09:38.003Z</time></trkpt><trkpt lat="45.04237993490766" lon="9.695809140642142"><ele>61.0</ele><time>2026-05-04T12:09:39.003Z</time></trkpt><trkpt lat="45.042373103934885" lon="9.695617541273675"><ele>61.0</ele><time>2026-05-04T12:09:40.003Z</time></trkpt><trkpt lat="45.042365764429775" lon="9.695419043820669"><ele>61.0</ele><time>2026-05-04T12:09:41.003Z</time></trkpt><trkpt lat="45.04237870649205" lon="9.695217733461893"><ele>60.75</ele><time>2026-05-04T12:09:42.004Z</time></trkpt><trkpt lat="45.042394122042154" lon="9.695022886063875"><ele>60.5</ele><time>2026-05-04T12:09:43.004Z</time></trkpt><trkpt lat="45.042401300528105" lon="9.694832885099256"><ele>60.25</ele><time>2026-05-04T12:09:44.003Z</time></trkpt><trkpt lat="45.04240452002392" lon="9.694650762669218"><ele>60.0</ele><time>2026-05-04T12:09:45.003Z</time></trkpt><trkpt lat="45.04239784213791" lon="9.694484261770402"><ele>60.2</ele><time>2026-05-04T12:09:46.003Z</time></trkpt><trkpt lat="45.04239825117315" lon="9.694350670711065"><ele>60.4</ele><time>2026-05-04T12:09:47.004Z</time></trkpt><trkpt lat="45.04239082089362" lon="9.694240255712305"><ele>60.599999999999994</ele><time>2026-05-04T12:09:48.004Z</time></trkpt><trkpt lat="45.04239060203756" lon="9.694147323879491"><ele>60.8</ele><time>2026-05-04T12:09:49.004Z</time></trkpt><trkpt lat="45.04239932556248" lon="9.693972301940954"><ele>61.0</ele><time>2026-05-04T12:09:51.004Z</time></trkpt><trkpt lat="45.0423966801439" lon="9.693784360227383"><ele>60.99999999999999</ele><time>2026-05-04T12:09:53.004Z</time></trkpt><trkpt lat="45.04240014811076" lon="9.693678706201666"><ele>61.0</ele><time>2026-05-04T12:09:54.004Z</time></trkpt><trkpt lat="45.04240032334562" lon="9.693563540993008"><ele>61.0</ele><time>2026-05-04T12:09:55.004Z</time></trkpt><trkpt lat="45.042395857540846" lon="9.693439419460583"><ele>61.0</ele><time>2026-05-04T12:09:56.004Z</time></trkpt><trkpt lat="45.042394045905084" lon="9.693315304755517"><ele>60.99999999999999</ele><time>2026-05-04T12:09:57.004Z</time></trkpt><trkpt lat="45.042395896221215" lon="9.693194216599128"><ele>61.0</ele><time>2026-05-04T12:09:58.004Z</time></trkpt><trkpt lat="45.042393232385926" lon="9.693068406253474"><ele>61.4</ele><time>2026-05-04T12:09:59.004Z</time></trkpt><trkpt lat="45.04239222530886" lon="9.692944343986097"><ele>61.8</ele><time>2026-05-04T12:10:00.004Z</time></trkpt><trkpt lat="45.04239361036614" lon="9.692810179284638"><ele>62.199999999999996</ele><time>2026-05-04T12:10:01.004Z</time></trkpt><trkpt lat="45.0423916705614" lon="9.692675102709774"><ele>62.599999999999994</ele><time>2026-05-04T12:10:02.004Z</time></trkpt><trkpt lat="45.04239611252884" lon="9.692550410399477"><ele>63.0</ele><time>2026-05-04T12:10:03.004Z</time></trkpt><trkpt lat="45.04239539893374" lon="9.692422312385691"><ele>63.166666666666664</ele><time>2026-05-04T12:10:04.004Z</time></trkpt><trkpt lat="45.042395882200466" lon="9.692294899201178"><ele>63.33333333333333</ele><time>2026-05-04T12:10:05.004Z</time></trkpt><trkpt lat="45.042386952468014" lon="9.692177532722706"><ele>63.5</ele><time>2026-05-04T12:10:06.004Z</time></trkpt><trkpt lat="45.042374392684344" lon="9.692068409614807"><ele>63.666666666666664</ele><time>2026-05-04T12:10:07.004Z</time></trkpt><trkpt lat="45.042372422741536" lon="9.691950669940558"><ele>63.83333333333333</ele><time>2026-05-04T12:10:08.004Z</time></trkpt><trkpt lat="45.042372499853315" lon="9.69183692712965"><ele>64.0</ele><time>2026-05-04T12:10:09.004Z</time></trkpt><trkpt lat="45.04239157641277" lon="9.691672452749755"><ele>64.16666666666666</ele><time>2026-05-04T12:10:11.004Z</time></trkpt><trkpt lat="45.04239326920467" lon="9.69155567126565"><ele>64.33333333333333</ele><time>2026-05-04T12:10:13.004Z</time></trkpt><trkpt lat="45.042395707022244" lon="9.691416876183332"><ele>64.5</ele><time>2026-05-04T12:10:15.004Z</time></trkpt><trkpt lat="45.042300015647776" lon="9.691377391298461"><ele>64.66666666666667</ele><time>2026-05-04T12:10:17.004Z</time></trkpt><trkpt lat="45.04222890306017" lon="9.691386100405683"><ele>64.83333333333334</ele><time>2026-05-04T12:10:18.004Z</time></trkpt><trkpt lat="45.04215625423875" lon="9.691387423606177"><ele>65.0</ele><time>2026-05-04T12:10:19.004Z</time></trkpt><trkpt lat="45.04207456153647" lon="9.6913753353286"><ele>65.0</ele><time>2026-05-04T12:10:20.004Z</time></trkpt><trkpt lat="45.04195357315892" lon="9.691365759754655"><ele>65.0</ele><time>2026-05-04T12:10:21.004Z</time></trkpt><trkpt lat="45.04181985741006" lon="9.691374736242746"><ele>65.0</ele><time>2026-05-04T12:10:22.004Z</time></trkpt><trkpt lat="45.04169409092623" lon="9.69137752576452"><ele>65.0</ele><time>2026-05-04T12:10:23.004Z</time></trkpt><trkpt lat="45.04158590405164" lon="9.691373952220538"><ele>64.4</ele><time>2026-05-04T12:10:24.004Z</time></trkpt><trkpt lat="45.04149330303636" lon="9.691371740761324"><ele>63.8</ele><time>2026-05-04T12:10:25.004Z</time></trkpt><trkpt lat="45.04141401117206" lon="9.691351399831019"><ele>63.2</ele><time>2026-05-04T12:10:26.004Z</time></trkpt><trkpt lat="45.04131763225512" lon="9.691356438822044"><ele>62.6</ele><time>2026-05-04T12:10:27.004Z</time></trkpt><trkpt lat="45.04121091656632" lon="9.691341956176194"><ele>62.0</ele><time>2026-05-04T12:10:28.004Z</time></trkpt><trkpt lat="45.041103445863726" lon="9.69134869302443"><ele>62.0</ele><time>2026-05-04T12:10:29.004Z</time></trkpt><trkpt lat="45.04098724709146" lon="9.691347533278108"><ele>62.0</ele><time>2026-05-04T12:10:30.004Z</time></trkpt><trkpt lat="45.04086262827361" lon="9.691348466108188"><ele>62.0</ele><time>2026-05-04T12:10:31.004Z</time></trkpt><trkpt lat="45.04073963565124" lon="9.691344570888944"><ele>62.0</ele><time>2026-05-04T12:10:32.004Z</time></trkpt><trkpt lat="45.040614748980886" lon="9.691338879754301"><ele>62.25</ele><time>2026-05-04T12:10:33.004Z</time></trkpt><trkpt lat="45.04048903840771" lon="9.691340694976878"><ele>62.5</ele><time>2026-05-04T12:10:34.004Z</time></trkpt><trkpt lat="45.04037167317335" lon="9.691342321547802"><ele>62.75</ele><time>2026-05-04T12:10:35.004Z</time></trkpt><trkpt lat="45.04026558687658" lon="9.691339329664153"><ele>63.0</ele><time>2026-05-04T12:10:36.004Z</time></trkpt><trkpt lat="45.040161848550184" lon="9.691341996260837"><ele>63.0</ele><time>2026-05-04T12:10:37.004Z</time></trkpt><trkpt lat="45.04005590337694" lon="9.691338793074383"><ele>63.0</ele><time>2026-05-04T12:10:38.004Z</time></trkpt><trkpt lat="45.039960131343584" lon="9.691334431216312"><ele>63.0</ele><time>2026-05-04T12:10:39.004Z</time></trkpt><trkpt lat="45.03985380933232" lon="9.691332616846132"><ele>63.0</ele><time>2026-05-04T12:10:40.004Z</time></trkpt><trkpt lat="45.039741566640835" lon="9.691333777054984"><ele>63.0</ele><time>2026-05-04T12:10:41.004Z</time></trkpt><trkpt lat="45.039640821506794" lon="9.691332578383426"><ele>62.8</ele><time>2026-05-04T12:10:42.004Z</time></trkpt><trkpt lat="45.03953347188061" lon="9.691329777969834"><ele>62.599999999999994</ele><time>2026-05-04T12:10:43.004Z</time></trkpt><trkpt lat="45.03942139276654" lon="9.691328698856129"><ele>62.400000000000006</ele><time>2026-05-04T12:10:44.004Z</time></trkpt><trkpt lat="45.03933185596664" lon="9.691333385981817"><ele>62.2</ele><time>2026-05-04T12:10:45.004Z</time></trkpt><trkpt lat="45.039247690971635" lon="9.691336558970413"><ele>62.0</ele><time>2026-05-04T12:10:46.004Z</time></trkpt><trkpt lat="45.03915620417173" lon="9.691339365511697"><ele>62.0</ele><time>2026-05-04T12:10:47.004Z</time></trkpt><trkpt lat="45.039062131197085" lon="9.691335666020557"><ele>62.0</ele><time>2026-05-04T12:10:48.004Z</time></trkpt><trkpt lat="45.03895561865675" lon="9.691334079142491"><ele>62.0</ele><time>2026-05-04T12:10:49.004Z</time></trkpt><trkpt lat="45.038851434679" lon="9.691322899297193"><ele>62.0</ele><time>2026-05-04T12:10:50.004Z</time></trkpt><trkpt lat="45.03878195386665" lon="9.691350688873934"><ele>62.0</ele><time>2026-05-04T12:10:51.004Z</time></trkpt><trkpt lat="45.03869249168877" lon="9.691305734933824"><ele>62.0</ele><time>2026-05-04T12:10:52.004Z</time></trkpt><trkpt lat="45.03861225755205" lon="9.691293196607917"><ele>62.0</ele><time>2026-05-04T12:10:53.004Z</time></trkpt><trkpt lat="45.03851805660358" lon="9.691265988806984"><ele>62.0</ele><time>2026-05-04T12:10:54.004Z</time></trkpt><trkpt lat="45.03842654299059" lon="9.691223083872117"><ele>62.0</ele><time>2026-05-04T12:10:55.004Z</time></trkpt><trkpt lat="45.03832605082838" lon="9.691164648977978"><ele>62.0</ele><time>2026-05-04T12:10:56.004Z</time></trkpt><trkpt lat="45.03822884643424" lon="9.69107096107885"><ele>62.00000000000001</ele><time>2026-05-04T12:10:57.004Z</time></trkpt><trkpt lat="45.03813578302997" lon="9.69101097301019"><ele>62.0</ele><time>2026-05-04T12:10:58.004Z</time></trkpt><trkpt lat="45.03805087147635" lon="9.690962774936107"><ele>62.0</ele><time>2026-05-04T12:10:59.004Z</time></trkpt><trkpt lat="45.03798525439796" lon="9.690907618826506"><ele>62.0</ele><time>2026-05-04T12:11:00.004Z</time></trkpt><trkpt lat="45.03792109929235" lon="9.690848084492723"><ele>62.00000000000001</ele><time>2026-05-04T12:11:01.004Z</time></trkpt><trkpt lat="45.03785774043562" lon="9.690791740302389"><ele>62.0</ele><time>2026-05-04T12:11:02.004Z</time></trkpt><trkpt lat="45.03772162713888" lon="9.690706425738854"><ele>62.00000000000001</ele><time>2026-05-04T12:11:04.004Z</time></trkpt><trkpt lat="45.037626155167985" lon="9.690602291328627"><ele>62.0</ele><time>2026-05-04T12:11:06.004Z</time></trkpt><trkpt lat="45.037588947612164" lon="9.690509294364489"><ele>62.0</ele><time>2026-05-04T12:11:07.004Z</time></trkpt><trkpt lat="45.037536913129976" lon="9.690442323307183"><ele>62.0</ele><time>2026-05-04T12:11:08.004Z</time></trkpt><trkpt lat="45.03745169935053" lon="9.690446654541304"><ele>62.00000000000001</ele><time>2026-05-04T12:11:09.004Z</time></trkpt><trkpt lat="45.03737833278159" lon="9.69044115159368"><ele>62.0</ele><time>2026-05-04T12:11:10.004Z</time></trkpt><trkpt lat="45.037301049992365" lon="9.690422297042879"><ele>62.2</ele><time>2026-05-04T12:11:11.004Z</time></trkpt><trkpt lat="45.03722501010095" lon="9.69037124311806"><ele>62.400000000000006</ele><time>2026-05-04T12:11:12.004Z</time></trkpt><trkpt lat="45.03715306287981" lon="9.69029699116432"><ele>62.599999999999994</ele><time>2026-05-04T12:11:13.004Z</time></trkpt><trkpt lat="45.03707169296581" lon="9.690220629681866"><ele>62.8</ele><time>2026-05-04T12:11:14.004Z</time></trkpt><trkpt lat="45.03698060740118" lon="9.69014731169106"><ele>63.0</ele><time>2026-05-04T12:11:15.004Z</time></trkpt><trkpt lat="45.03688393169377" lon="9.69007548546302"><ele>63.25</ele><time>2026-05-04T12:11:16.004Z</time></trkpt><trkpt lat="45.03677936141108" lon="9.690014683638001"><ele>63.5</ele><time>2026-05-04T12:11:17.004Z</time></trkpt><trkpt lat="45.03667704932101" lon="9.689941036084251"><ele>63.75</ele><time>2026-05-04T12:11:18.004Z</time></trkpt><trkpt lat="45.03657090956101" lon="9.689871436556697"><ele>64.0</ele><time>2026-05-04T12:11:19.004Z</time></trkpt><trkpt lat="45.03647050946434" lon="9.689801895127566"><ele>64.0</ele><time>2026-05-04T12:11:20.004Z</time></trkpt><trkpt lat="45.036371268200526" lon="9.689730283278632"><ele>64.0</ele><time>2026-05-04T12:11:21.004Z</time></trkpt><trkpt lat="45.03627439944562" lon="9.68966206697275"><ele>64.0</ele><time>2026-05-04T12:11:22.004Z</time></trkpt><trkpt lat="45.036179329055145" lon="9.689592939546982"><ele>64.0</ele><time>2026-05-04T12:11:23.004Z</time></trkpt><trkpt lat="45.03608545946292" lon="9.689525730026727"><ele>64.0</ele><time>2026-05-04T12:11:24.004Z</time></trkpt><trkpt lat="45.03598948553333" lon="9.689455365212597"><ele>64.2</ele><time>2026-05-04T12:11:25.004Z</time></trkpt><trkpt lat="45.03589455531908" lon="9.689384015574843"><ele>64.4</ele><time>2026-05-04T12:11:26.004Z</time></trkpt><trkpt lat="45.035795445408965" lon="9.689312808098855"><ele>64.6</ele><time>2026-05-04T12:11:27.004Z</time></trkpt><trkpt lat="45.03569642893248" lon="9.689238120953284"><ele>64.8</ele><time>2026-05-04T12:11:28.004Z</time></trkpt><trkpt lat="45.03558434017754" lon="9.689193436415762"><ele>65.0</ele><time>2026-05-04T12:11:29.004Z</time></trkpt><trkpt lat="45.035481690825264" lon="9.68911957505958"><ele>64.6</ele><time>2026-05-04T12:11:30.004Z</time></trkpt><trkpt lat="45.03537620838603" lon="9.689049193375132"><ele>64.2</ele><time>2026-05-04T12:11:31.004Z</time></trkpt><trkpt lat="45.03527267073791" lon="9.68897817055129"><ele>63.8</ele><time>2026-05-04T12:11:32.004Z</time></trkpt><trkpt lat="45.035178750407404" lon="9.688917836626791"><ele>63.4</ele><time>2026-05-04T12:11:33.004Z</time></trkpt><trkpt lat="45.03509660314207" lon="9.688859229205445"><ele>63.0</ele><time>2026-05-04T12:11:34.004Z</time></trkpt><trkpt lat="45.03500727592822" lon="9.68880386892738"><ele>63.75</ele><time>2026-05-04T12:11:35.004Z</time></trkpt><trkpt lat="45.03491110262908" lon="9.688729262151584"><ele>64.5</ele><time>2026-05-04T12:11:36.004Z</time></trkpt><trkpt lat="45.03481750014312" lon="9.68864662920086"><ele>65.25</ele><time>2026-05-04T12:11:37.004Z</time></trkpt><trkpt lat="45.03471434796948" lon="9.688567068793208"><ele>66.0</ele><time>2026-05-04T12:11:38.004Z</time></trkpt><trkpt lat="45.03461067972702" lon="9.688487718209512"><ele>66.0</ele><time>2026-05-04T12:11:39.004Z</time></trkpt><trkpt lat="45.03449670893379" lon="9.688409889646822"><ele>66.0</ele><time>2026-05-04T12:11:40.004Z</time></trkpt><trkpt lat="45.03438797013473" lon="9.688327854359327"><ele>66.0</ele><time>2026-05-04T12:11:41.003Z</time></trkpt><trkpt lat="45.034281466045584" lon="9.68825051393156"><ele>66.0</ele><time>2026-05-04T12:11:42.003Z</time></trkpt><trkpt lat="45.034171585386794" lon="9.688173031946516"><ele>67.0</ele><time>2026-05-04T12:11:43.003Z</time></trkpt><trkpt lat="45.034062446456204" lon="9.688094519214587"><ele>68.0</ele><time>2026-05-04T12:11:44.003Z</time></trkpt><trkpt lat="45.033944602860785" lon="9.688022922434508"><ele>69.0</ele><time>2026-05-04T12:11:45.003Z</time></trkpt><trkpt lat="45.03382935549229" lon="9.687938481780812"><ele>70.0</ele><time>2026-05-04T12:11:46.003Z</time></trkpt><trkpt lat="45.033718586694015" lon="9.687861317333729"><ele>70.0</ele><time>2026-05-04T12:11:47.003Z</time></trkpt><trkpt lat="45.03360864723091" lon="9.687813350943443"><ele>70.0</ele><time>2026-05-04T12:11:48.003Z</time></trkpt><trkpt lat="45.03350855365077" lon="9.687703435050082"><ele>70.0</ele><time>2026-05-04T12:11:49.003Z</time></trkpt><trkpt lat="45.03340669730826" lon="9.687616868815411"><ele>70.0</ele><time>2026-05-04T12:11:50.003Z</time></trkpt><trkpt lat="45.033306495750544" lon="9.687539827821723"><ele>69.0</ele><time>2026-05-04T12:11:51.003Z</time></trkpt><trkpt lat="45.033195975977925" lon="9.687476666584589"><ele>68.0</ele><time>2026-05-04T12:11:52.003Z</time></trkpt><trkpt lat="45.03308887458023" lon="9.687392821694942"><ele>67.0</ele><time>2026-05-04T12:11:53.003Z</time></trkpt><trkpt lat="45.032977001442035" lon="9.687311715769283"><ele>66.0</ele><time>2026-05-04T12:11:54.003Z</time></trkpt><trkpt lat="45.032879724011465" lon="9.68721621851809"><ele>66.0</ele><time>2026-05-04T12:11:55.003Z</time></trkpt><trkpt lat="45.03278734310351" lon="9.687115862399661"><ele>66.0</ele><time>2026-05-04T12:11:56.003Z</time></trkpt><trkpt lat="45.032705544132995" lon="9.687022330774788"><ele>66.0</ele><time>2026-05-04T12:11:57.003Z</time></trkpt><trkpt lat="45.03261663485301" lon="9.686940620350358"><ele>66.0</ele><time>2026-05-04T12:11:58.003Z</time></trkpt><trkpt lat="45.03253020152978" lon="9.686851870357977"><ele>66.0</ele><time>2026-05-04T12:11:59.003Z</time></trkpt><trkpt lat="45.03243890805237" lon="9.686762749797406"><ele>65.6</ele><time>2026-05-04T12:12:00.003Z</time></trkpt><trkpt lat="45.03236000999519" lon="9.686664128930357"><ele>65.19999999999999</ele><time>2026-05-04T12:12:01.003Z</time></trkpt><trkpt lat="45.03228863412949" lon="9.686568507699324"><ele>64.80000000000001</ele><time>2026-05-04T12:12:02.003Z</time></trkpt><trkpt lat="45.0322144796961" lon="9.686490572018846"><ele>64.4</ele><time>2026-05-04T12:12:03.003Z</time></trkpt><trkpt lat="45.03214763432671" lon="9.686415196808243"><ele>64.0</ele><time>2026-05-04T12:12:04.003Z</time></trkpt><trkpt lat="45.03208373301674" lon="9.686345286408153"><ele>64.0</ele><time>2026-05-04T12:12:05.003Z</time></trkpt><trkpt lat="45.03204015422203" lon="9.686260004864298"><ele>64.0</ele><time>2026-05-04T12:12:06.003Z</time></trkpt><trkpt lat="45.03198921750584" lon="9.686196500873653"><ele>64.0</ele><time>2026-05-04T12:12:07.003Z</time></trkpt><trkpt lat="45.03191423223221" lon="9.686102192327207"><ele>64.0</ele><time>2026-05-04T12:12:09.003Z</time></trkpt><trkpt lat="45.031838207956845" lon="9.686005113179705"><ele>64.0</ele><time>2026-05-04T12:12:11.003Z</time></trkpt><trkpt lat="45.03175532307011" lon="9.68589927391641"><ele>63.99999999999999</ele><time>2026-05-04T12:12:13.003Z</time></trkpt><trkpt lat="45.03166951217743" lon="9.685789701060099"><ele>64.0</ele><time>2026-05-04T12:12:15.003Z</time></trkpt><trkpt lat="45.03156938101616" lon="9.685697672762094"><ele>64.0</ele><time>2026-05-04T12:12:17.003Z</time></trkpt><trkpt lat="45.03151521707557" lon="9.685651142608043"><ele>64.0</ele><time>2026-05-04T12:12:18.003Z</time></trkpt><trkpt lat="45.031451998521916" lon="9.685632749242208"><ele>63.99999999999999</ele><time>2026-05-04T12:12:19.003Z</time></trkpt><trkpt lat="45.031381524912504" lon="9.685646390558542"><ele>64.0</ele><time>2026-05-04T12:12:20.003Z</time></trkpt><trkpt lat="45.031306655330695" lon="9.685674959955461"><ele>64.4</ele><time>2026-05-04T12:12:21.003Z</time></trkpt><trkpt lat="45.03122276116324" lon="9.685713314161532"><ele>64.80000000000001</ele><time>2026-05-04T12:12:22.003Z</time></trkpt><trkpt lat="45.0310432625374" lon="9.685782897018678"><ele>65.19999999999999</ele><time>2026-05-04T12:12:24.003Z</time></trkpt><trkpt lat="45.030962852082325" lon="9.685804802408471"><ele>65.6</ele><time>2026-05-04T12:12:25.003Z</time></trkpt><trkpt lat="45.03088779432085" lon="9.685817068337883"><ele>66.0</ele><time>2026-05-04T12:12:26.003Z</time></trkpt><trkpt lat="45.030812119380904" lon="9.685815672038505"><ele>66.16666666666667</ele><time>2026-05-04T12:12:27.003Z</time></trkpt><trkpt lat="45.030733769967355" lon="9.685780896849622"><ele>66.33333333333333</ele><time>2026-05-04T12:12:28.003Z</time></trkpt><trkpt lat="45.03065687002558" lon="9.685720613415207"><ele>66.5</ele><time>2026-05-04T12:12:29.003Z</time></trkpt><trkpt lat="45.03058153388698" lon="9.685698746767006"><ele>66.66666666666666</ele><time>2026-05-04T12:12:30.003Z</time></trkpt><trkpt lat="45.03051494759132" lon="9.685730872486138"><ele>66.83333333333333</ele><time>2026-05-04T12:12:31.003Z</time></trkpt><trkpt lat="45.03046391891394" lon="9.685818069269565"><ele>67.0</ele><time>2026-05-04T12:12:32.003Z</time></trkpt><trkpt lat="45.030416904984634" lon="9.685930848042544"><ele>67.0</ele><time>2026-05-04T12:12:33.003Z</time></trkpt><trkpt lat="45.03034953225894" lon="9.686036115281386"><ele>67.0</ele><time>2026-05-04T12:12:34.003Z</time></trkpt><trkpt lat="45.03025301817671" lon="9.68611410157201"><ele>67.0</ele><time>2026-05-04T12:12:35.003Z</time></trkpt><trkpt lat="45.03013368735032" lon="9.686161942845734"><ele>67.0</ele><time>2026-05-04T12:12:36.003Z</time></trkpt><trkpt lat="45.03001212833176" lon="9.686197950825663"><ele>66.66666666666666</ele><time>2026-05-04T12:12:37.003Z</time></trkpt><trkpt lat="45.029874586950406" lon="9.686235207798271"><ele>66.33333333333333</ele><time>2026-05-04T12:12:38.003Z</time></trkpt><trkpt lat="45.029727040998395" lon="9.686279666065605"><ele>66.0</ele><time>2026-05-04T12:12:39.003Z</time></trkpt><trkpt lat="45.029572049886575" lon="9.686329189080139"><ele>66.0</ele><time>2026-05-04T12:12:40.003Z</time></trkpt><trkpt lat="45.02941256157673" lon="9.686387325895721"><ele>66.0</ele><time>2026-05-04T12:12:41.003Z</time></trkpt><trkpt lat="45.02925004705101" lon="9.686439769422682"><ele>66.0</ele><time>2026-05-04T12:12:42.003Z</time></trkpt><trkpt lat="45.02908868324148" lon="9.686497450130604"><ele>66.33333333333333</ele><time>2026-05-04T12:12:43.003Z</time></trkpt><trkpt lat="45.0289319373297" lon="9.686560954491396"><ele>66.66666666666666</ele><time>2026-05-04T12:12:44.003Z</time></trkpt><trkpt lat="45.02876617543596" lon="9.686620695926651"><ele>67.0</ele><time>2026-05-04T12:12:45.003Z</time></trkpt><trkpt lat="45.02859539575798" lon="9.686682630925073"><ele>67.0</ele><time>2026-05-04T12:12:46.003Z</time></trkpt><trkpt lat="45.02843035939409" lon="9.686747322206866"><ele>67.0</ele><time>2026-05-04T12:12:47.003Z</time></trkpt><trkpt lat="45.02826488914033" lon="9.686811606164635"><ele>67.0</ele><time>2026-05-04T12:12:48.003Z</time></trkpt><trkpt lat="45.0281061065015" lon="9.686876464941916"><ele>67.0</ele><time>2026-05-04T12:12:49.003Z</time></trkpt><trkpt lat="45.027945231920846" lon="9.68694666604488"><ele>67.0</ele><time>2026-05-04T12:12:50.003Z</time></trkpt><trkpt lat="45.027782550850254" lon="9.68701709397038"><ele>67.0</ele><time>2026-05-04T12:12:51.003Z</time></trkpt><trkpt lat="45.027612814497395" lon="9.687084620749696"><ele>66.0</ele><time>2026-05-04T12:12:52.003Z</time></trkpt><trkpt lat="45.02743796502621" lon="9.687147057913478"><ele>65.0</ele><time>2026-05-04T12:12:53.003Z</time></trkpt><trkpt lat="45.027264088722376" lon="9.687217189101828"><ele>64.0</ele><time>2026-05-04T12:12:54.003Z</time></trkpt><trkpt lat="45.02708468619602" lon="9.687291860068505"><ele>64.0</ele><time>2026-05-04T12:12:55.003Z</time></trkpt><trkpt lat="45.02690714908144" lon="9.687366098016689"><ele>64.0</ele><time>2026-05-04T12:12:56.003Z</time></trkpt><trkpt lat="45.026736259390134" lon="9.687430270616417"><ele>64.0</ele><time>2026-05-04T12:12:57.003Z</time></trkpt><trkpt lat="45.02657782829657" lon="9.687493399722836"><ele>64.33333333333333</ele><time>2026-05-04T12:12:58.003Z</time></trkpt><trkpt lat="45.026426401736465" lon="9.687554121195596"><ele>64.66666666666667</ele><time>2026-05-04T12:12:59.003Z</time></trkpt><trkpt lat="45.02628352154976" lon="9.687615178092575"><ele>65.0</ele><time>2026-05-04T12:13:00.003Z</time></trkpt><trkpt lat="45.02613409255891" lon="9.687671366796545"><ele>65.0</ele><time>2026-05-04T12:13:01.003Z</time></trkpt><trkpt lat="45.025975365646985" lon="9.687734489159254"><ele>65.0</ele><time>2026-05-04T12:13:02.003Z</time></trkpt><trkpt lat="45.02581667363258" lon="9.687797798759853"><ele>65.0</ele><time>2026-05-04T12:13:03.003Z</time></trkpt><trkpt lat="45.02565582547424" lon="9.687866456264072"><ele>65.0</ele><time>2026-05-04T12:13:04.003Z</time></trkpt><trkpt lat="45.025487764659275" lon="9.687931855906676"><ele>65.0</ele><time>2026-05-04T12:13:05.003Z</time></trkpt><trkpt lat="45.025314139080315" lon="9.687993354926444"><ele>65.0</ele><time>2026-05-04T12:13:06.003Z</time></trkpt><trkpt lat="45.025142459683295" lon="9.688056707366878"><ele>65.66666666666667</ele><time>2026-05-04T12:13:07.003Z</time></trkpt><trkpt lat="45.02496545069741" lon="9.688124604471717"><ele>66.33333333333333</ele><time>2026-05-04T12:13:08.003Z</time></trkpt><trkpt lat="45.024789133037864" lon="9.688190614709688"><ele>67.0</ele><time>2026-05-04T12:13:09.003Z</time></trkpt><trkpt lat="45.024612138778295" lon="9.688262553722982"><ele>67.0</ele><time>2026-05-04T12:13:10.003Z</time></trkpt><trkpt lat="45.024450084969104" lon="9.688328016657955"><ele>67.0</ele><time>2026-05-04T12:13:11.003Z</time></trkpt><trkpt lat="45.024293608551275" lon="9.688393903487697"><ele>67.0</ele><time>2026-05-04T12:13:12.003Z</time></trkpt><trkpt lat="45.024132695012504" lon="9.688459229721323"><ele>66.5</ele><time>2026-05-04T12:13:13.003Z</time></trkpt><trkpt lat="45.02398338183746" lon="9.688516800757505"><ele>66.0</ele><time>2026-05-04T12:13:14.003Z</time></trkpt><trkpt lat="45.0238421949302" lon="9.688571830903674"><ele>65.5</ele><time>2026-05-04T12:13:15.003Z</time></trkpt><trkpt lat="45.02371081254448" lon="9.688625391169287"><ele>65.0</ele><time>2026-05-04T12:13:16.003Z</time></trkpt><trkpt lat="45.023591112806216" lon="9.688669298486301"><ele>65.0</ele><time>2026-05-04T12:13:17.003Z</time></trkpt><trkpt lat="45.02347738274136" lon="9.688715344637911"><ele>65.0</ele><time>2026-05-04T12:13:18.003Z</time></trkpt><trkpt lat="45.023368656132554" lon="9.688759040796294"><ele>65.0</ele><time>2026-05-04T12:13:19.003Z</time></trkpt><trkpt lat="45.02326396108486" lon="9.688796596441115"><ele>65.0</ele><time>2026-05-04T12:13:20.003Z</time></trkpt><trkpt lat="45.02316557972097" lon="9.68881342229898"><ele>65.0</ele><time>2026-05-04T12:13:21.003Z</time></trkpt><trkpt lat="45.023078141908535" lon="9.688810260050818"><ele>65.0</ele><time>2026-05-04T12:13:22.003Z</time></trkpt><trkpt lat="45.02297838434474" lon="9.688785051971188"><ele>65.0</ele><time>2026-05-04T12:13:23.003Z</time></trkpt><trkpt lat="45.022879837985904" lon="9.688749712238412"><ele>65.0</ele><time>2026-05-04T12:13:24.003Z</time></trkpt><trkpt lat="45.02281074674005" lon="9.688708668897178"><ele>65.0</ele><time>2026-05-04T12:13:25.003Z</time></trkpt><trkpt lat="45.022743778269714" lon="9.688634730075037"><ele>65.0</ele><time>2026-05-04T12:13:27.003Z</time></trkpt><trkpt lat="45.022811084713666" lon="9.688531515404387"><ele>65.0</ele><time>2026-05-04T12:13:28.003Z</time></trkpt><trkpt lat="45.022835634553395" lon="9.688392318636033"><ele>65.0</ele><time>2026-05-04T12:13:30.003Z</time></trkpt><trkpt lat="45.022856849965486" lon="9.688270871232083"><ele>65.0</ele><time>2026-05-04T12:13:32.003Z</time></trkpt><trkpt lat="45.02286879528598" lon="9.688169252499863"><ele>65.0</ele><time>2026-05-04T12:13:34.003Z</time></trkpt><trkpt lat="45.02288446020958" lon="9.688077128353463"><ele>65.0</ele><time>2026-05-04T12:13:36.003Z</time></trkpt><trkpt lat="45.02289937698768" lon="9.687982838567036"><ele>65.0</ele><time>2026-05-04T12:13:39.003Z</time></trkpt><trkpt lat="45.022871042120485" lon="9.688188177728064"><ele>65.0</ele><time>2026-05-04T12:14:00.003Z</time></trkpt><trkpt lat="45.02281076424245" lon="9.688376642945453"><ele>65.0</ele><time>2026-05-04T12:14:01.003Z</time></trkpt><trkpt lat="45.0227919707254" lon="9.688487981091916"><ele>65.0</ele><time>2026-05-04T12:14:02.003Z</time></trkpt><trkpt lat="45.02274755666642" lon="9.688633605176886"><ele>65.0</ele><time>2026-05-04T12:14:04.003Z</time></trkpt><trkpt lat="45.02268745090509" lon="9.688682967660572"><ele>65.0</ele><time>2026-05-04T12:14:06.003Z</time></trkpt><trkpt lat="45.02255608699544" lon="9.688640507021296"><ele>65.0</ele><time>2026-05-04T12:14:08.003Z</time></trkpt><trkpt lat="45.022462945876114" lon="9.688600123363237"><ele>65.0</ele><time>2026-05-04T12:14:09.003Z</time></trkpt><trkpt lat="45.022340583707745" lon="9.688563206203023"><ele>65.0</ele><time>2026-05-04T12:14:10.003Z</time></trkpt><trkpt lat="45.02223021492043" lon="9.688541964239002"><ele>65.0</ele><time>2026-05-04T12:14:11.003Z</time></trkpt><trkpt lat="45.02213275005539" lon="9.688529821230505"><ele>65.0</ele><time>2026-05-04T12:14:12.003Z</time></trkpt><trkpt lat="45.022060568816684" lon="9.688523538144816"><ele>65.0</ele><time>2026-05-04T12:14:13.003Z</time></trkpt><trkpt lat="45.0219951835064" lon="9.688512549685763"><ele>65.0</ele><time>2026-05-04T12:14:15.003Z</time></trkpt><trkpt lat="45.021926920511724" lon="9.68848374731239"><ele>65.0</ele><time>2026-05-04T12:14:19.003Z</time></trkpt><trkpt lat="45.021854557651814" lon="9.688463836832407"><ele>65.0</ele><time>2026-05-04T12:14:21.003Z</time></trkpt><trkpt lat="45.0217254386262" lon="9.688476612252495"><ele>65.0</ele><time>2026-05-04T12:14:23.003Z</time></trkpt><trkpt lat="45.0216556161388" lon="9.688514136543649"><ele>65.0</ele><time>2026-05-04T12:14:24.003Z</time></trkpt><trkpt lat="45.021586753880136" lon="9.688571487150368"><ele>65.0</ele><time>2026-05-04T12:14:25.003Z</time></trkpt><trkpt lat="45.02152026224657" lon="9.688635937314615"><ele>65.0</ele><time>2026-05-04T12:14:26.003Z</time></trkpt><trkpt lat="45.02146555298986" lon="9.688694951563164"><ele>65.0</ele><time>2026-05-04T12:14:27.003Z</time></trkpt><trkpt lat="45.02141497538282" lon="9.688750775640237"><ele>65.0</ele><time>2026-05-04T12:14:28.003Z</time></trkpt><trkpt lat="45.02136703820689" lon="9.688812942284034"><ele>65.0</ele><time>2026-05-04T12:14:29.003Z</time></trkpt><trkpt lat="45.021310163810234" lon="9.688923288927988"><ele>65.0</ele><time>2026-05-04T12:14:31.003Z</time></trkpt><trkpt lat="45.0212679639306" lon="9.689053070302073"><ele>65.0</ele><time>2026-05-04T12:14:33.003Z</time></trkpt><trkpt lat="45.02112946793284" lon="9.68913069970933"><ele>65.0</ele><time>2026-05-04T12:14:35.003Z</time></trkpt><trkpt lat="45.02105413176511" lon="9.689145074920747"><ele>65.0</ele><time>2026-05-04T12:14:36.003Z</time></trkpt><trkpt lat="45.020973863000144" lon="9.689136325884148"><ele>65.0</ele><time>2026-05-04T12:14:37.003Z</time></trkpt><trkpt lat="45.02088710774144" lon="9.689128774609006"><ele>65.0</ele><time>2026-05-04T12:14:38.003Z</time></trkpt><trkpt lat="45.02080260935683" lon="9.68912432675955"><ele>65.4</ele><time>2026-05-04T12:14:39.003Z</time></trkpt><trkpt lat="45.020721160890844" lon="9.689115200493497"><ele>65.8</ele><time>2026-05-04T12:14:40.003Z</time></trkpt><trkpt lat="45.02062931032785" lon="9.689107193973108"><ele>66.2</ele><time>2026-05-04T12:14:41.003Z</time></trkpt><trkpt lat="45.02053121798766" lon="9.689100037857347"><ele>66.6</ele><time>2026-05-04T12:14:42.003Z</time></trkpt><trkpt lat="45.02042187665181" lon="9.6890953496661"><ele>67.0</ele><time>2026-05-04T12:14:43.003Z</time></trkpt><trkpt lat="45.02030977338135" lon="9.689092780276436"><ele>67.0</ele><time>2026-05-04T12:14:44.003Z</time></trkpt><trkpt lat="45.0201906321478" lon="9.689082957809147"><ele>67.0</ele><time>2026-05-04T12:14:45.003Z</time></trkpt><trkpt lat="45.020071686338454" lon="9.689071125077952"><ele>67.0</ele><time>2026-05-04T12:14:46.003Z</time></trkpt><trkpt lat="45.01995201381866" lon="9.689061740141025"><ele>67.0</ele><time>2026-05-04T12:14:47.003Z</time></trkpt><trkpt lat="45.01983097079058" lon="9.689052906186657"><ele>67.5</ele><time>2026-05-04T12:14:48.003Z</time></trkpt><trkpt lat="45.01971626678976" lon="9.689040919552518"><ele>68.0</ele><time>2026-05-04T12:14:49.003Z</time></trkpt><trkpt lat="45.01960141533694" lon="9.689035195048607"><ele>68.5</ele><time>2026-05-04T12:14:50.003Z</time></trkpt><trkpt lat="45.01948628515753" lon="9.689027212111828"><ele>69.0</ele><time>2026-05-04T12:14:51.003Z</time></trkpt><trkpt lat="45.01937007150032" lon="9.689020212066668"><ele>69.0</ele><time>2026-05-04T12:14:52.003Z</time></trkpt><trkpt lat="45.0192509498621" lon="9.68901120202975"><ele>69.0</ele><time>2026-05-04T12:14:53.003Z</time></trkpt><trkpt lat="45.019128937219406" lon="9.689002434054624"><ele>69.0</ele><time>2026-05-04T12:14:54.003Z</time></trkpt><trkpt lat="45.019016902821704" lon="9.68898667612277"><ele>69.0</ele><time>2026-05-04T12:14:55.003Z</time></trkpt><trkpt lat="45.018910390938764" lon="9.688962841539547"><ele>69.0</ele><time>2026-05-04T12:14:56.003Z</time></trkpt><trkpt lat="45.01881275703563" lon="9.688934866423184"><ele>69.0</ele><time>2026-05-04T12:14:57.003Z</time></trkpt><trkpt lat="45.01872157927206" lon="9.688906337760466"><ele>69.0</ele><time>2026-05-04T12:14:58.003Z</time></trkpt><trkpt lat="45.01864740869279" lon="9.688863978219942"><ele>69.0</ele><time>2026-05-04T12:14:59.003Z</time></trkpt><trkpt lat="45.01859471199638" lon="9.688814794650648"><ele>69.0</ele><time>2026-05-04T12:15:00.003Z</time></trkpt><trkpt lat="45.018535256995676" lon="9.688734732023983"><ele>69.0</ele><time>2026-05-04T12:15:02.003Z</time></trkpt><trkpt lat="45.0185184736239" lon="9.688626271700565"><ele>69.0</ele><time>2026-05-04T12:15:06.003Z</time></trkpt><trkpt lat="45.018362215254136" lon="9.688616419517022"><ele>69.0</ele><time>2026-05-04T12:15:09.003Z</time></trkpt><trkpt lat="45.018279613516974" lon="9.68862951975471"><ele>69.0</ele><time>2026-05-04T12:15:13.003Z</time></trkpt><trkpt lat="45.01822770577295" lon="9.688685202439606"><ele>69.0</ele><time>2026-05-04T12:15:16.003Z</time></trkpt><trkpt lat="45.01838239607869" lon="9.688768772464172"><ele>69.0</ele><time>2026-05-04T12:18:26.004Z</time></trkpt><trkpt lat="45.018484273712964" lon="9.68872110302933"><ele>69.0</ele><time>2026-05-04T12:19:46.004Z</time></trkpt><trkpt lat="45.018456507477836" lon="9.688552863549619"><ele>69.0</ele><time>2026-05-04T12:19:48.004Z</time></trkpt><trkpt lat="45.0182523474413" lon="9.688535975483116"><ele>69.0</ele><time>2026-05-04T12:19:52.004Z</time></trkpt><trkpt lat="45.01822291618864" lon="9.688633844600146"><ele>69.0</ele><time>2026-05-04T12:19:53.004Z</time></trkpt><trkpt lat="45.01820598006025" lon="9.688761443854391"><ele>69.0</ele><time>2026-05-04T12:19:54.004Z</time></trkpt><trkpt lat="45.018160988137666" lon="9.68882970291511"><ele>69.0</ele><time>2026-05-04T12:19:55.004Z</time></trkpt><trkpt lat="45.01808604974897" lon="9.688871918900213"><ele>69.0</ele><time>2026-05-04T12:19:57.004Z</time></trkpt><trkpt lat="45.017969481789784" lon="9.688908495724727"><ele>69.0</ele><time>2026-05-04T12:20:05.005Z</time></trkpt><trkpt lat="45.0178812029011" lon="9.688914623455448"><ele>69.0</ele><time>2026-05-04T12:20:06.005Z</time></trkpt><trkpt lat="45.01776121168907" lon="9.688907610927751"><ele>69.0</ele><time>2026-05-04T12:20:07.005Z</time></trkpt><trkpt lat="45.017626564593165" lon="9.688890644594908"><ele>69.0</ele><time>2026-05-04T12:20:08.005Z</time></trkpt><trkpt lat="45.01747925867671" lon="9.688874716489828"><ele>69.0</ele><time>2026-05-04T12:20:09.005Z</time></trkpt><trkpt lat="45.01732295115639" lon="9.688863382133524"><ele>69.0</ele><time>2026-05-04T12:20:10.005Z</time></trkpt><trkpt lat="45.017150812617025" lon="9.688853813703268"><ele>68.33333333333333</ele><time>2026-05-04T12:20:11.005Z</time></trkpt><trkpt lat="45.016966959909595" lon="9.688843139317461"><ele>67.66666666666666</ele><time>2026-05-04T12:20:12.005Z</time></trkpt><trkpt lat="45.01678590237968" lon="9.68883623235752"><ele>67.0</ele><time>2026-05-04T12:20:13.005Z</time></trkpt><trkpt lat="45.016607508241066" lon="9.688828145886092"><ele>66.66666666666666</ele><time>2026-05-04T12:20:14.005Z</time></trkpt><trkpt lat="45.01643273437819" lon="9.688818559397339"><ele>66.33333333333333</ele><time>2026-05-04T12:20:15.005Z</time></trkpt><trkpt lat="45.01627539367437" lon="9.688812023612973"><ele>66.0</ele><time>2026-05-04T12:20:16.005Z</time></trkpt><trkpt lat="45.016147178117976" lon="9.688807835009516"><ele>66.0</ele><time>2026-05-04T12:20:17.005Z</time></trkpt><trkpt lat="45.01604732759589" lon="9.68880355711442"><ele>66.0</ele><time>2026-05-04T12:20:18.005Z</time></trkpt><trkpt lat="45.015949488067314" lon="9.688776564023026"><ele>66.0</ele><time>2026-05-04T12:20:20.005Z</time></trkpt><trkpt lat="45.015864144701155" lon="9.688785472091833"><ele>66.0</ele><time>2026-05-04T12:20:29.005Z</time></trkpt><trkpt lat="45.01585234623788" lon="9.689038115238661"><ele>66.0</ele><time>2026-05-04T12:20:30.005Z</time></trkpt><trkpt lat="45.015841868317494" lon="9.689167591990367"><ele>66.0</ele><time>2026-05-04T12:20:31.005Z</time></trkpt><trkpt lat="45.015832518977895" lon="9.689320563048007"><ele>66.0</ele><time>2026-05-04T12:20:32.005Z</time></trkpt><trkpt lat="45.01582108819718" lon="9.689498438323438"><ele>66.0</ele><time>2026-05-04T12:20:33.005Z</time></trkpt><trkpt lat="45.015782254271464" lon="9.689672794093388"><ele>66.6</ele><time>2026-05-04T12:20:34.005Z</time></trkpt><trkpt lat="45.01576146840472" lon="9.689832183306759"><ele>67.19999999999999</ele><time>2026-05-04T12:20:35.005Z</time></trkpt><trkpt lat="45.01574217300692" lon="9.689977524957017"><ele>67.80000000000001</ele><time>2026-05-04T12:20:36.005Z</time></trkpt><trkpt lat="45.015727223398585" lon="9.69010211611043"><ele>68.4</ele><time>2026-05-04T12:20:37.005Z</time></trkpt><trkpt lat="45.01571648922579" lon="9.690214514238821"><ele>69.0</ele><time>2026-05-04T12:20:38.005Z</time></trkpt><trkpt lat="45.01570768415442" lon="9.690319747541622"><ele>69.16666666666667</ele><time>2026-05-04T12:20:39.005Z</time></trkpt><trkpt lat="45.015701218973945" lon="9.69041532942023"><ele>69.33333333333333</ele><time>2026-05-04T12:20:40.005Z</time></trkpt><trkpt lat="45.01568439428171" lon="9.690583328448707"><ele>69.5</ele><time>2026-05-04T12:20:42.005Z</time></trkpt><trkpt lat="45.01567311651315" lon="9.690682570076575"><ele>69.66666666666666</ele><time>2026-05-04T12:20:43.005Z</time></trkpt><trkpt lat="45.01566078719438" lon="9.69079734306048"><ele>69.83333333333333</ele><time>2026-05-04T12:20:44.005Z</time></trkpt><trkpt lat="45.015643040715545" lon="9.690916774304206"><ele>70.0</ele><time>2026-05-04T12:20:45.005Z</time></trkpt><trkpt lat="45.01562606708292" lon="9.691048150361206"><ele>69.83333333333333</ele><time>2026-05-04T12:20:46.005Z</time></trkpt><trkpt lat="45.015604961970546" lon="9.691177796719213"><ele>69.66666666666666</ele><time>2026-05-04T12:20:47.005Z</time></trkpt><trkpt lat="45.01558664847359" lon="9.69131064387481"><ele>69.5</ele><time>2026-05-04T12:20:48.005Z</time></trkpt><trkpt lat="45.01557327946969" lon="9.691435998667028"><ele>69.33333333333333</ele><time>2026-05-04T12:20:49.005Z</time></trkpt><trkpt lat="45.0155633799553" lon="9.691538812576427"><ele>69.16666666666667</ele><time>2026-05-04T12:20:50.005Z</time></trkpt><trkpt lat="45.015544248621374" lon="9.691660582275276"><ele>69.0</ele><time>2026-05-04T12:20:52.005Z</time></trkpt><trkpt lat="45.015429202175085" lon="9.69165108088471"><ele>69.0</ele><time>2026-05-04T12:20:55.005Z</time></trkpt><trkpt lat="45.01535387176236" lon="9.691622469490914"><ele>69.0</ele><time>2026-05-04T12:20:56.005Z</time></trkpt><trkpt lat="45.0152676019643" lon="9.691613714644918"><ele>69.0</ele><time>2026-05-04T12:20:57.005Z</time></trkpt><trkpt lat="45.015165529495164" lon="9.691604442432688"><ele>69.0</ele><time>2026-05-04T12:20:58.005Z</time></trkpt><trkpt lat="45.015066189977645" lon="9.691592624637636"><ele>69.0</ele><time>2026-05-04T12:20:59.005Z</time></trkpt><trkpt lat="45.0149609679517" lon="9.691576546230042"><ele>68.75</ele><time>2026-05-04T12:21:00.005Z</time></trkpt><trkpt lat="45.01485325925861" lon="9.691552040450926"><ele>68.5</ele><time>2026-05-04T12:21:01.005Z</time></trkpt><trkpt lat="45.014739333599856" lon="9.69152869421364"><ele>68.25</ele><time>2026-05-04T12:21:02.005Z</time></trkpt><trkpt lat="45.01462104804529" lon="9.691509349612037"><ele>68.0</ele><time>2026-05-04T12:21:03.005Z</time></trkpt><trkpt lat="45.01450703028424" lon="9.691494764254125"><ele>68.0</ele><time>2026-05-04T12:21:04.005Z</time></trkpt><trkpt lat="45.01439295083205" lon="9.691477906526758"><ele>68.0</ele><time>2026-05-04T12:21:05.005Z</time></trkpt><trkpt lat="45.01427559421429" lon="9.691455080266596"><ele>68.0</ele><time>2026-05-04T12:21:06.005Z</time></trkpt><trkpt lat="45.014152813968785" lon="9.691419506546888"><ele>68.0</ele><time>2026-05-04T12:21:07.005Z</time></trkpt><trkpt lat="45.014027443443624" lon="9.69137200527149"><ele>68.5</ele><time>2026-05-04T12:21:08.005Z</time></trkpt><trkpt lat="45.013892273244736" lon="9.691322470847489"><ele>69.0</ele><time>2026-05-04T12:21:09.005Z</time></trkpt><trkpt lat="45.01375605459161" lon="9.691274371221208"><ele>69.5</ele><time>2026-05-04T12:21:10.005Z</time></trkpt><trkpt lat="45.01361850602647" lon="9.691227914540484"><ele>70.0</ele><time>2026-05-04T12:21:11.005Z</time></trkpt><trkpt lat="45.013477670360004" lon="9.69118179735679"><ele>70.0</ele><time>2026-05-04T12:21:12.005Z</time></trkpt><trkpt lat="45.01334268446702" lon="9.691140089806337"><ele>70.0</ele><time>2026-05-04T12:21:13.005Z</time></trkpt><trkpt lat="45.013220363625024" lon="9.69109900818276"><ele>70.0</ele><time>2026-05-04T12:21:14.005Z</time></trkpt><trkpt lat="45.01310767812128" lon="9.691064366865163"><ele>70.0</ele><time>2026-05-04T12:21:15.005Z</time></trkpt><trkpt lat="45.01300553321809" lon="9.691031703536133"><ele>70.0</ele><time>2026-05-04T12:21:16.005Z</time></trkpt><trkpt lat="45.01291479421294" lon="9.690998990638434"><ele>70.0</ele><time>2026-05-04T12:21:17.005Z</time></trkpt><trkpt lat="45.01283497364797" lon="9.690972623905923"><ele>70.0</ele><time>2026-05-04T12:21:18.005Z</time></trkpt><trkpt lat="45.012740000470394" lon="9.690942525597382"><ele>70.0</ele><time>2026-05-04T12:21:20.005Z</time></trkpt><trkpt lat="45.012659612848545" lon="9.691063632680812"><ele>70.0</ele><time>2026-05-04T12:21:28.005Z</time></trkpt><trkpt lat="45.01268053292326" lon="9.691188459852015"><ele>70.0</ele><time>2026-05-04T12:21:29.005Z</time></trkpt><trkpt lat="45.01268605797733" lon="9.691318233267694"><ele>70.0</ele><time>2026-05-04T12:21:30.005Z</time></trkpt><trkpt lat="45.012698369046994" lon="9.691471486480857"><ele>70.0</ele><time>2026-05-04T12:21:31.005Z</time></trkpt><trkpt lat="45.01271181879568" lon="9.691640610726102"><ele>70.0</ele><time>2026-05-04T12:21:32.005Z</time></trkpt><trkpt lat="45.012727010634" lon="9.691818488509762"><ele>70.0</ele><time>2026-05-04T12:21:33.005Z</time></trkpt><trkpt lat="45.0127602514844" lon="9.692010098341564"><ele>70.0</ele><time>2026-05-04T12:21:34.005Z</time></trkpt><trkpt lat="45.01277054811885" lon="9.692207832832738"><ele>70.0</ele><time>2026-05-04T12:21:35.005Z</time></trkpt><trkpt lat="45.01278577665106" lon="9.69241033663359"><ele>70.0</ele><time>2026-05-04T12:21:36.005Z</time></trkpt><trkpt lat="45.01280626319992" lon="9.692615388741123"><ele>70.0</ele><time>2026-05-04T12:21:37.005Z</time></trkpt><trkpt lat="45.012828673506114" lon="9.692828269169063"><ele>70.0</ele><time>2026-05-04T12:21:38.005Z</time></trkpt><trkpt lat="45.01284843768109" lon="9.693045883158417"><ele>70.0</ele><time>2026-05-04T12:21:39.005Z</time></trkpt><trkpt lat="45.012866148357304" lon="9.69326589939584"><ele>70.0</ele><time>2026-05-04T12:21:40.005Z</time></trkpt><trkpt lat="45.012886502516984" lon="9.693482813043572"><ele>70.33333333333333</ele><time>2026-05-04T12:21:41.005Z</time></trkpt><trkpt lat="45.01290712099393" lon="9.693701899462496"><ele>70.66666666666667</ele><time>2026-05-04T12:21:42.005Z</time></trkpt><trkpt lat="45.01292613464535" lon="9.693914524817034"><ele>71.0</ele><time>2026-05-04T12:21:43.005Z</time></trkpt><trkpt lat="45.012946568814826" lon="9.694114999749603"><ele>71.0</ele><time>2026-05-04T12:21:44.005Z</time></trkpt><trkpt lat="45.012966429510996" lon="9.694308957792888"><ele>71.0</ele><time>2026-05-04T12:21:45.005Z</time></trkpt><trkpt lat="45.01298939743647" lon="9.694509022724512"><ele>71.0</ele><time>2026-05-04T12:21:46.005Z</time></trkpt><trkpt lat="45.01300920918328" lon="9.69471121982868"><ele>71.0</ele><time>2026-05-04T12:21:47.005Z</time></trkpt><trkpt lat="45.013026768358465" lon="9.694905024317864"><ele>70.75</ele><time>2026-05-04T12:21:48.005Z</time></trkpt><trkpt lat="45.01304592936131" lon="9.69509836780928"><ele>70.5</ele><time>2026-05-04T12:21:49.005Z</time></trkpt><trkpt lat="45.013063888236495" lon="9.695296158301636"><ele>70.25</ele><time>2026-05-04T12:21:50.005Z</time></trkpt><trkpt lat="45.01307937026843" lon="9.695497095610337"><ele>70.0</ele><time>2026-05-04T12:21:51.005Z</time></trkpt><trkpt lat="45.01309086297052" lon="9.695706225055979"><ele>70.0</ele><time>2026-05-04T12:21:52.005Z</time></trkpt><trkpt lat="45.013103836152105" lon="9.695920296922658"><ele>70.0</ele><time>2026-05-04T12:21:53.005Z</time></trkpt><trkpt lat="45.01312217624446" lon="9.696129380445472"><ele>70.0</ele><time>2026-05-04T12:21:54.005Z</time></trkpt><trkpt lat="45.01313996517854" lon="9.69633076945085"><ele>70.0</ele><time>2026-05-04T12:21:55.005Z</time></trkpt><trkpt lat="45.01315095309741" lon="9.696518414820996"><ele>70.0</ele><time>2026-05-04T12:21:56.005Z</time></trkpt><trkpt lat="45.01315291206798" lon="9.696708893983333"><ele>70.0</ele><time>2026-05-04T12:21:57.005Z</time></trkpt><trkpt lat="45.013145409273015" lon="9.696899981780401"><ele>70.0</ele><time>2026-05-04T12:21:58.005Z</time></trkpt><trkpt lat="45.01312979910309" lon="9.697079719303998"><ele>70.0</ele><time>2026-05-04T12:21:59.005Z</time></trkpt><trkpt lat="45.01310305304457" lon="9.697262976441479"><ele>70.25</ele><time>2026-05-04T12:22:00.005Z</time></trkpt><trkpt lat="45.013074886284414" lon="9.697446091530887"><ele>70.5</ele><time>2026-05-04T12:22:01.005Z</time></trkpt><trkpt lat="45.01304852616447" lon="9.697634643903585"><ele>70.75</ele><time>2026-05-04T12:22:02.005Z</time></trkpt><trkpt lat="45.01301986007056" lon="9.697837853642788"><ele>71.0</ele><time>2026-05-04T12:22:03.005Z</time></trkpt><trkpt lat="45.012996937643024" lon="9.698046455261531"><ele>70.0</ele><time>2026-05-04T12:22:04.005Z</time></trkpt><trkpt lat="45.012967883702" lon="9.698263630484881"><ele>69.0</ele><time>2026-05-04T12:22:05.005Z</time></trkpt><trkpt lat="45.01294338059894" lon="9.698496815512133"><ele>68.0</ele><time>2026-05-04T12:22:06.005Z</time></trkpt><trkpt lat="45.01292293657191" lon="9.69873724052116"><ele>68.0</ele><time>2026-05-04T12:22:07.005Z</time></trkpt><trkpt lat="45.01289680606542" lon="9.698982704355112"><ele>68.0</ele><time>2026-05-04T12:22:08.005Z</time></trkpt><trkpt lat="45.01286884455407" lon="9.69922361383499"><ele>68.0</ele><time>2026-05-04T12:22:09.005Z</time></trkpt><trkpt lat="45.012842530689674" lon="9.699462049968572"><ele>66.0</ele><time>2026-05-04T12:22:10.005Z</time></trkpt><trkpt lat="45.01281788751718" lon="9.69970024910361"><ele>64.0</ele><time>2026-05-04T12:22:11.005Z</time></trkpt><trkpt lat="45.012793346647356" lon="9.699936167892334"><ele>62.0</ele><time>2026-05-04T12:22:12.005Z</time></trkpt><trkpt lat="45.01276761037375" lon="9.70015350694485"><ele>62.2</ele><time>2026-05-04T12:22:13.005Z</time></trkpt><trkpt lat="45.01274223642306" lon="9.70034226950759"><ele>62.400000000000006</ele><time>2026-05-04T12:22:14.005Z</time></trkpt><trkpt lat="45.01272579177988" lon="9.700501143119771"><ele>62.599999999999994</ele><time>2026-05-04T12:22:15.005Z</time></trkpt><trkpt lat="45.01271204009893" lon="9.700635656798484"><ele>62.8</ele><time>2026-05-04T12:22:16.005Z</time></trkpt><trkpt lat="45.012704661754654" lon="9.700737630833233"><ele>63.0</ele><time>2026-05-04T12:22:17.005Z</time></trkpt><trkpt lat="45.01266741740682" lon="9.700865255441894"><ele>63.0</ele><time>2026-05-04T12:22:19.005Z</time></trkpt><trkpt lat="45.012557589634106" lon="9.700909964127657"><ele>63.0</ele><time>2026-05-04T12:22:21.006Z</time></trkpt><trkpt lat="45.012489001041075" lon="9.700896495822379"><ele>63.0</ele><time>2026-05-04T12:22:22.006Z</time></trkpt><trkpt lat="45.01241349825474" lon="9.700877172993811"><ele>63.0</ele><time>2026-05-04T12:22:23.006Z</time></trkpt><trkpt lat="45.0123301557487" lon="9.700840536993711"><ele>63.0</ele><time>2026-05-04T12:22:24.005Z</time></trkpt><trkpt lat="45.012237387859045" lon="9.700817788972214"><ele>63.0</ele><time>2026-05-04T12:22:25.005Z</time></trkpt><trkpt lat="45.01213089557006" lon="9.700790014548572"><ele>63.75</ele><time>2026-05-04T12:22:26.005Z</time></trkpt><trkpt lat="45.01201524741055" lon="9.700767273478682"><ele>64.5</ele><time>2026-05-04T12:22:27.005Z</time></trkpt><trkpt lat="45.0118950374831" lon="9.700740995600041"><ele>65.25</ele><time>2026-05-04T12:22:28.005Z</time></trkpt><trkpt lat="45.01176337383617" lon="9.70071195019649"><ele>66.0</ele><time>2026-05-04T12:22:29.005Z</time></trkpt><trkpt lat="45.01162519861842" lon="9.700673874758134"><ele>66.5</ele><time>2026-05-04T12:22:30.005Z</time></trkpt><trkpt lat="45.01148358028676" lon="9.700638915839477"><ele>67.0</ele><time>2026-05-04T12:22:31.005Z</time></trkpt><trkpt lat="45.01134218830496" lon="9.7006065945155"><ele>67.5</ele><time>2026-05-04T12:22:32.005Z</time></trkpt><trkpt lat="45.01120151531901" lon="9.700576177127605"><ele>68.0</ele><time>2026-05-04T12:22:33.005Z</time></trkpt><trkpt lat="45.01106155072265" lon="9.70054708950539"><ele>68.0</ele><time>2026-05-04T12:22:34.005Z</time></trkpt><trkpt lat="45.01092745930752" lon="9.700520188937443"><ele>68.0</ele><time>2026-05-04T12:22:35.005Z</time></trkpt><trkpt lat="45.01078911849236" lon="9.700497171548193"><ele>68.0</ele><time>2026-05-04T12:22:36.005Z</time></trkpt><trkpt lat="45.01065337747164" lon="9.70044286540346"><ele>68.0</ele><time>2026-05-04T12:22:37.005Z</time></trkpt><trkpt lat="45.010515476324954" lon="9.700408769668202"><ele>67.75</ele><time>2026-05-04T12:22:38.005Z</time></trkpt><trkpt lat="45.01038019690013" lon="9.700375322292563"><ele>67.5</ele><time>2026-05-04T12:22:39.005Z</time></trkpt><trkpt lat="45.010251099138294" lon="9.700343403275209"><ele>67.25</ele><time>2026-05-04T12:22:40.005Z</time></trkpt><trkpt lat="45.01012294766321" lon="9.700333318607385"><ele>67.0</ele><time>2026-05-04T12:22:41.005Z</time></trkpt><trkpt lat="45.00999455351398" lon="9.70029976654528"><ele>67.0</ele><time>2026-05-04T12:22:42.005Z</time></trkpt><trkpt lat="45.00987096784189" lon="9.700263228544785"><ele>67.0</ele><time>2026-05-04T12:22:43.005Z</time></trkpt><trkpt lat="45.0097480557966" lon="9.700228515473457"><ele>67.0</ele><time>2026-05-04T12:22:44.005Z</time></trkpt><trkpt lat="45.00962446934949" lon="9.700194470519893"><ele>67.0</ele><time>2026-05-04T12:22:45.005Z</time></trkpt><trkpt lat="45.00951188880087" lon="9.70016389809564"><ele>66.83333333333333</ele><time>2026-05-04T12:22:46.005Z</time></trkpt><trkpt lat="45.009407901556706" lon="9.70013522344804"><ele>66.66666666666666</ele><time>2026-05-04T12:22:47.005Z</time></trkpt><trkpt lat="45.00931383539414" lon="9.700109538058616"><ele>66.5</ele><time>2026-05-04T12:22:48.005Z</time></trkpt><trkpt lat="45.00922705282347" lon="9.700088658932772"><ele>66.33333333333333</ele><time>2026-05-04T12:22:49.005Z</time></trkpt><trkpt lat="45.00915476111855" lon="9.700076661355732"><ele>66.16666666666667</ele><time>2026-05-04T12:22:50.005Z</time></trkpt><trkpt lat="45.00909138798855" lon="9.700077012442105"><ele>66.0</ele><time>2026-05-04T12:22:51.005Z</time></trkpt><trkpt lat="45.00902416281154" lon="9.700069615660087"><ele>66.0</ele><time>2026-05-04T12:22:52.005Z</time></trkpt><trkpt lat="45.00896244791338" lon="9.70009741430054"><ele>66.0</ele><time>2026-05-04T12:22:53.005Z</time></trkpt><trkpt lat="45.008909977373115" lon="9.70018672928477"><ele>66.0</ele><time>2026-05-04T12:22:54.005Z</time></trkpt><trkpt lat="45.008889655802015" lon="9.700307644453842"><ele>66.0</ele><time>2026-05-04T12:22:55.005Z</time></trkpt><trkpt lat="45.00887593990657" lon="9.700440501673627"><ele>66.0</ele><time>2026-05-04T12:22:56.005Z</time></trkpt><trkpt lat="45.00885916582337" lon="9.700584085772237"><ele>66.0</ele><time>2026-05-04T12:22:57.005Z</time></trkpt><trkpt lat="45.00884269388474" lon="9.70073402393662"><ele>65.8</ele><time>2026-05-04T12:22:58.005Z</time></trkpt><trkpt lat="45.008836450047866" lon="9.700888842268682"><ele>65.6</ele><time>2026-05-04T12:22:59.005Z</time></trkpt><trkpt lat="45.00882963534262" lon="9.70103199021897"><ele>65.4</ele><time>2026-05-04T12:23:00.005Z</time></trkpt><trkpt lat="45.00881802139532" lon="9.701149365521248"><ele>65.2</ele><time>2026-05-04T12:23:01.005Z</time></trkpt><trkpt lat="45.008802966643394" lon="9.701241954798663"><ele>65.0</ele><time>2026-05-04T12:23:02.005Z</time></trkpt><trkpt lat="45.00874925403489" lon="9.70137611169888"><ele>65.2</ele><time>2026-05-04T12:23:04.005Z</time></trkpt><trkpt lat="45.00864024816819" lon="9.701409388236769"><ele>65.4</ele><time>2026-05-04T12:23:06.005Z</time></trkpt><trkpt lat="45.008569540089816" lon="9.701392799910158"><ele>65.6</ele><time>2026-05-04T12:23:07.005Z</time></trkpt><trkpt lat="45.008479022449706" lon="9.701365925949357"><ele>65.8</ele><time>2026-05-04T12:23:08.005Z</time></trkpt><trkpt lat="45.008371232399966" lon="9.701326720388362"><ele>66.0</ele><time>2026-05-04T12:23:09.005Z</time></trkpt><trkpt lat="45.00824496605499" lon="9.701320673411493"><ele>66.0</ele><time>2026-05-04T12:23:10.005Z</time></trkpt><trkpt lat="45.00812089524322" lon="9.701310325857538"><ele>66.0</ele><time>2026-05-04T12:23:11.005Z</time></trkpt><trkpt lat="45.00799571860103" lon="9.701303030273134"><ele>66.0</ele><time>2026-05-04T12:23:12.005Z</time></trkpt><trkpt lat="45.007873598844014" lon="9.701300326182109"><ele>66.0</ele><time>2026-05-04T12:23:13.005Z</time></trkpt><trkpt lat="45.00775675195128" lon="9.701293358938347"><ele>66.0</ele><time>2026-05-04T12:23:14.005Z</time></trkpt><trkpt lat="45.00764076334012" lon="9.701290676387385"><ele>66.0</ele><time>2026-05-04T12:23:15.005Z</time></trkpt><trkpt lat="45.007522582040856" lon="9.701295290664348"><ele>66.0</ele><time>2026-05-04T12:23:16.005Z</time></trkpt><trkpt lat="45.007409796774034" lon="9.701301593403924"><ele>66.0</ele><time>2026-05-04T12:23:17.005Z</time></trkpt><trkpt lat="45.00731370789688" lon="9.701304911733962"><ele>66.0</ele><time>2026-05-04T12:23:18.005Z</time></trkpt><trkpt lat="45.0072191591674" lon="9.701313006239998"><ele>66.39999999999999</ele><time>2026-05-04T12:23:19.005Z</time></trkpt><trkpt lat="45.00712240532617" lon="9.701319141737926"><ele>66.8</ele><time>2026-05-04T12:23:20.005Z</time></trkpt><trkpt lat="45.00702749835528" lon="9.701324703852503"><ele>67.19999999999999</ele><time>2026-05-04T12:23:21.005Z</time></trkpt><trkpt lat="45.00693860131209" lon="9.70132799828378"><ele>67.6</ele><time>2026-05-04T12:23:22.005Z</time></trkpt><trkpt lat="45.00685255632199" lon="9.701311166020144"><ele>68.0</ele><time>2026-05-04T12:23:23.005Z</time></trkpt><trkpt lat="45.00677057283449" lon="9.70132054423081"><ele>68.0</ele><time>2026-05-04T12:23:24.005Z</time></trkpt><trkpt lat="45.00670214909303" lon="9.701322750110675"><ele>68.0</ele><time>2026-05-04T12:23:25.005Z</time></trkpt><trkpt lat="45.00660180043477" lon="9.701321047477323"><ele>68.0</ele><time>2026-05-04T12:23:27.005Z</time></trkpt><trkpt lat="45.00651578161979" lon="9.701316495027456"><ele>68.0</ele><time>2026-05-04T12:23:29.005Z</time></trkpt><trkpt lat="45.00644114861666" lon="9.701309900905699"><ele>68.0</ele><time>2026-05-04T12:23:32.005Z</time></trkpt><trkpt lat="45.00636199143595" lon="9.701269826685001"><ele>68.0</ele><time>2026-05-04T12:23:44.005Z</time></trkpt><trkpt lat="45.00624093477532" lon="9.701244155446329"><ele>68.0</ele><time>2026-05-04T12:23:46.005Z</time></trkpt><trkpt lat="45.006172238166926" lon="9.701221096563499"><ele>68.0</ele><time>2026-05-04T12:23:47.005Z</time></trkpt><trkpt lat="45.00608885190919" lon="9.701199420378451"><ele>68.0</ele><time>2026-05-04T12:23:48.005Z</time></trkpt><trkpt lat="45.00600367507487" lon="9.701174502585658"><ele>68.0</ele><time>2026-05-04T12:23:49.005Z</time></trkpt><trkpt lat="45.0059095572463" lon="9.701147963898274"><ele>68.0</ele><time>2026-05-04T12:23:50.005Z</time></trkpt><trkpt lat="45.005814850515385" lon="9.701123900703694"><ele>68.0</ele><time>2026-05-04T12:23:51.005Z</time></trkpt><trkpt lat="45.00571586630682" lon="9.701099232563415"><ele>67.6</ele><time>2026-05-04T12:23:52.005Z</time></trkpt><trkpt lat="45.00561525677718" lon="9.701071293381712"><ele>67.19999999999999</ele><time>2026-05-04T12:23:53.005Z</time></trkpt><trkpt lat="45.00551493957704" lon="9.70101914347065"><ele>66.8</ele><time>2026-05-04T12:23:54.005Z</time></trkpt><trkpt lat="45.005406370222936" lon="9.700990817830654"><ele>66.39999999999999</ele><time>2026-05-04T12:23:55.005Z</time></trkpt><trkpt lat="45.00529849659284" lon="9.700962398031189"><ele>66.0</ele><time>2026-05-04T12:23:56.005Z</time></trkpt><trkpt lat="45.00518857965664" lon="9.700922529341243"><ele>66.0</ele><time>2026-05-04T12:23:57.005Z</time></trkpt><trkpt lat="45.00506996803122" lon="9.700885955158437"><ele>66.0</ele><time>2026-05-04T12:23:58.005Z</time></trkpt><trkpt lat="45.00494722808477" lon="9.70085233091137"><ele>66.0</ele><time>2026-05-04T12:23:59.005Z</time></trkpt><trkpt lat="45.00480951019294" lon="9.700814004564556"><ele>66.0</ele><time>2026-05-04T12:24:00.005Z</time></trkpt><trkpt lat="45.004660404055436" lon="9.700775700935957"><ele>67.0</ele><time>2026-05-04T12:24:01.005Z</time></trkpt><trkpt lat="45.004513001321804" lon="9.700732020624573"><ele>68.0</ele><time>2026-05-04T12:24:02.005Z</time></trkpt><trkpt lat="45.00436442051576" lon="9.700692811670448"><ele>69.0</ele><time>2026-05-04T12:24:03.005Z</time></trkpt><trkpt lat="45.004211500413945" lon="9.700650332062807"><ele>69.0</ele><time>2026-05-04T12:24:04.005Z</time></trkpt><trkpt lat="45.00406282558545" lon="9.700613495416933"><ele>69.0</ele><time>2026-05-04T12:24:05.005Z</time></trkpt><trkpt lat="45.00391406971875" lon="9.700569963866"><ele>69.0</ele><time>2026-05-04T12:24:06.005Z</time></trkpt><trkpt lat="45.00376515838168" lon="9.70051707525659"><ele>69.0</ele><time>2026-05-04T12:24:07.005Z</time></trkpt><trkpt lat="45.00362284336884" lon="9.700474114075647"><ele>69.0</ele><time>2026-05-04T12:24:08.005Z</time></trkpt><trkpt lat="45.00347733013042" lon="9.7004294706856"><ele>69.0</ele><time>2026-05-04T12:24:09.005Z</time></trkpt><trkpt lat="45.00332991698626" lon="9.700390923779537"><ele>69.0</ele><time>2026-05-04T12:24:10.005Z</time></trkpt><trkpt lat="45.00318316475788" lon="9.700356885464325"><ele>69.33333333333333</ele><time>2026-05-04T12:24:11.005Z</time></trkpt><trkpt lat="45.003031824817164" lon="9.700317087023485"><ele>69.66666666666666</ele><time>2026-05-04T12:24:12.005Z</time></trkpt><trkpt lat="45.00287620496595" lon="9.700278516518845"><ele>70.0</ele><time>2026-05-04T12:24:13.005Z</time></trkpt><trkpt lat="45.00272332670793" lon="9.700244412953072"><ele>70.33333333333333</ele><time>2026-05-04T12:24:14.005Z</time></trkpt><trkpt lat="45.00257107880229" lon="9.70021541085652"><ele>70.66666666666667</ele><time>2026-05-04T12:24:15.005Z</time></trkpt><trkpt lat="45.0024145570373" lon="9.700182529641594"><ele>71.0</ele><time>2026-05-04T12:24:16.005Z</time></trkpt><trkpt lat="45.002252301764514" lon="9.700150785349868"><ele>71.0</ele><time>2026-05-04T12:24:17.005Z</time></trkpt><trkpt lat="45.00209476851417" lon="9.700111829945843"><ele>71.0</ele><time>2026-05-04T12:24:18.006Z</time></trkpt><trkpt lat="45.00193601612163" lon="9.700085863424682"><ele>71.0</ele><time>2026-05-04T12:24:19.006Z</time></trkpt><trkpt lat="45.00178313840386" lon="9.700056437425463"><ele>71.33333333333334</ele><time>2026-05-04T12:24:20.005Z</time></trkpt><trkpt lat="45.00163381679085" lon="9.700027328738527"><ele>71.66666666666667</ele><time>2026-05-04T12:24:21.005Z</time></trkpt><trkpt lat="45.0014845966583" lon="9.699990558657365"><ele>72.0</ele><time>2026-05-04T12:24:22.005Z</time></trkpt><trkpt lat="45.00133331915854" lon="9.69995592664315"><ele>72.0</ele><time>2026-05-04T12:24:23.006Z</time></trkpt><trkpt lat="45.001193417280994" lon="9.699907497218058"><ele>72.0</ele><time>2026-05-04T12:24:24.005Z</time></trkpt><trkpt lat="45.00107148191666" lon="9.69985210008157"><ele>72.0</ele><time>2026-05-04T12:24:25.005Z</time></trkpt><trkpt lat="45.00094870896496" lon="9.699795131785258"><ele>72.0</ele><time>2026-05-04T12:24:26.005Z</time></trkpt><trkpt lat="45.00082595327266" lon="9.699734233289153"><ele>72.0</ele><time>2026-05-04T12:24:27.006Z</time></trkpt><trkpt lat="45.00071063307487" lon="9.699671166713385"><ele>72.0</ele><time>2026-05-04T12:24:28.006Z</time></trkpt><trkpt lat="45.000473576551315" lon="9.699537537990407"><ele>72.0</ele><time>2026-05-04T12:24:30.005Z</time></trkpt><trkpt lat="45.000365599154556" lon="9.69946185428249"><ele>72.0</ele><time>2026-05-04T12:24:31.005Z</time></trkpt><trkpt lat="45.000261471489765" lon="9.699425991194728"><ele>72.0</ele><time>2026-05-04T12:24:32.005Z</time></trkpt><trkpt lat="45.000164533754415" lon="9.699442278984296"><ele>72.0</ele><time>2026-05-04T12:24:33.005Z</time></trkpt><trkpt lat="45.00007082601021" lon="9.69944296628256"><ele>72.0</ele><time>2026-05-04T12:24:34.005Z</time></trkpt><trkpt lat="44.99997012519729" lon="9.699435334982686"><ele>72.0</ele><time>2026-05-04T12:24:35.005Z</time></trkpt><trkpt lat="44.99986739343395" lon="9.699405330822977"><ele>72.5</ele><time>2026-05-04T12:24:36.005Z</time></trkpt><trkpt lat="44.99976575558498" lon="9.699340565136055"><ele>73.0</ele><time>2026-05-04T12:24:37.005Z</time></trkpt><trkpt lat="44.99964801667039" lon="9.699284858764804"><ele>73.5</ele><time>2026-05-04T12:24:38.005Z</time></trkpt><trkpt lat="44.9995239174194" lon="9.699225139643929"><ele>74.0</ele><time>2026-05-04T12:24:39.005Z</time></trkpt><trkpt lat="44.999394028518694" lon="9.699163238824887"><ele>74.0</ele><time>2026-05-04T12:24:40.005Z</time></trkpt><trkpt lat="44.999266232661235" lon="9.69910756637339"><ele>74.0</ele><time>2026-05-04T12:24:41.005Z</time></trkpt><trkpt lat="44.999141724244765" lon="9.699049865689586"><ele>74.0</ele><time>2026-05-04T12:24:42.005Z</time></trkpt><trkpt lat="44.9990208961618" lon="9.698991384772576"><ele>74.0</ele><time>2026-05-04T12:24:43.005Z</time></trkpt><trkpt lat="44.99889725780443" lon="9.69893412246425"><ele>74.5</ele><time>2026-05-04T12:24:44.005Z</time></trkpt><trkpt lat="44.99877278336324" lon="9.698876572114282"><ele>75.0</ele><time>2026-05-04T12:24:45.005Z</time></trkpt><trkpt lat="44.998646513450474" lon="9.698814114541364"><ele>75.5</ele><time>2026-05-04T12:24:46.005Z</time></trkpt><trkpt lat="44.99851701349198" lon="9.698752210241556"><ele>76.0</ele><time>2026-05-04T12:24:47.005Z</time></trkpt><trkpt lat="44.99838201647293" lon="9.698687884152326"><ele>75.5</ele><time>2026-05-04T12:24:48.005Z</time></trkpt><trkpt lat="44.99824787904622" lon="9.698618408919437"><ele>75.0</ele><time>2026-05-04T12:24:49.005Z</time></trkpt><trkpt lat="44.998115089616114" lon="9.698554582630287"><ele>74.5</ele><time>2026-05-04T12:24:50.005Z</time></trkpt><trkpt lat="44.99797960568551" lon="9.698499306577366"><ele>74.0</ele><time>2026-05-04T12:24:51.005Z</time></trkpt><trkpt lat="44.99783684679498" lon="9.698443895614473"><ele>74.0</ele><time>2026-05-04T12:24:52.005Z</time></trkpt><trkpt lat="44.99770146805862" lon="9.698404895750755"><ele>74.0</ele><time>2026-05-04T12:24:53.005Z</time></trkpt><trkpt lat="44.99757487561079" lon="9.698373025547713"><ele>74.0</ele><time>2026-05-04T12:24:54.005Z</time></trkpt><trkpt lat="44.997443712794144" lon="9.698339733636784"><ele>74.0</ele><time>2026-05-04T12:24:55.005Z</time></trkpt><trkpt lat="44.99731019801176" lon="9.698313280194665"><ele>74.0</ele><time>2026-05-04T12:24:56.005Z</time></trkpt><trkpt lat="44.99717551225888" lon="9.698290134280073"><ele>74.0</ele><time>2026-05-04T12:24:57.005Z</time></trkpt><trkpt lat="44.997045340635935" lon="9.698280057730825"><ele>74.0</ele><time>2026-05-04T12:24:58.005Z</time></trkpt><trkpt lat="44.99692212468109" lon="9.698236967836676"><ele>74.0</ele><time>2026-05-04T12:24:59.005Z</time></trkpt><trkpt lat="44.996798758571664" lon="9.698205523158329"><ele>74.0</ele><time>2026-05-04T12:25:00.005Z</time></trkpt><trkpt lat="44.996686742168464" lon="9.698172534680328"><ele>74.0</ele><time>2026-05-04T12:25:01.005Z</time></trkpt><trkpt lat="44.9965678149612" lon="9.698155045925567"><ele>74.0</ele><time>2026-05-04T12:25:02.005Z</time></trkpt><trkpt lat="44.996451839369904" lon="9.698110788236107"><ele>74.0</ele><time>2026-05-04T12:25:03.005Z</time></trkpt><trkpt lat="44.996341557952434" lon="9.698072388537108"><ele>74.4</ele><time>2026-05-04T12:25:04.005Z</time></trkpt><trkpt lat="44.996246297727765" lon="9.698043426365459"><ele>74.80000000000001</ele><time>2026-05-04T12:25:05.005Z</time></trkpt><trkpt lat="44.996164882177496" lon="9.698025544301647"><ele>75.19999999999999</ele><time>2026-05-04T12:25:06.005Z</time></trkpt><trkpt lat="44.996078564751656" lon="9.69801896473862"><ele>75.6</ele><time>2026-05-04T12:25:07.005Z</time></trkpt><trkpt lat="44.99598139746925" lon="9.697989177375494"><ele>76.0</ele><time>2026-05-04T12:25:08.005Z</time></trkpt><trkpt lat="44.995870437091824" lon="9.697981956757493"><ele>76.5</ele><time>2026-05-04T12:25:09.005Z</time></trkpt><trkpt lat="44.9957506201069" lon="9.697962509779812"><ele>77.0</ele><time>2026-05-04T12:25:10.005Z</time></trkpt><trkpt lat="44.995626195487176" lon="9.697944072630209"><ele>77.5</ele><time>2026-05-04T12:25:11.005Z</time></trkpt><trkpt lat="44.99549942448932" lon="9.697925295204794"><ele>78.0</ele><time>2026-05-04T12:25:12.005Z</time></trkpt><trkpt lat="44.995374282832294" lon="9.697901568715587"><ele>78.0</ele><time>2026-05-04T12:25:13.005Z</time></trkpt><trkpt lat="44.99524948789563" lon="9.697882331184381"><ele>78.0</ele><time>2026-05-04T12:25:14.005Z</time></trkpt><trkpt lat="44.995129529392365" lon="9.697864146533728"><ele>78.0</ele><time>2026-05-04T12:25:15.005Z</time></trkpt><trkpt lat="44.9950125330793" lon="9.697851037447974"><ele>78.0</ele><time>2026-05-04T12:25:16.005Z</time></trkpt><trkpt lat="44.994888930817446" lon="9.697829644177709"><ele>78.5</ele><time>2026-05-04T12:25:17.005Z</time></trkpt><trkpt lat="44.994761647561106" lon="9.69781107530638"><ele>79.0</ele><time>2026-05-04T12:25:18.005Z</time></trkpt><trkpt lat="44.994637777133825" lon="9.697791032318449"><ele>79.5</ele><time>2026-05-04T12:25:19.005Z</time></trkpt><trkpt lat="44.99452715580364" lon="9.697774448713224"><ele>80.0</ele><time>2026-05-04T12:25:20.005Z</time></trkpt><trkpt lat="44.99441147440446" lon="9.697762948907663"><ele>80.0</ele><time>2026-05-04T12:25:21.005Z</time></trkpt><trkpt lat="44.99429268908154" lon="9.69775520491741"><ele>80.0</ele><time>2026-05-04T12:25:22.005Z</time></trkpt><trkpt lat="44.99417491634781" lon="9.697715898413835"><ele>80.0</ele><time>2026-05-04T12:25:23.005Z</time></trkpt><trkpt lat="44.99405768781047" lon="9.697704798989053"><ele>80.0</ele><time>2026-05-04T12:25:24.005Z</time></trkpt><trkpt lat="44.993942602199496" lon="9.697680253729214"><ele>79.75</ele><time>2026-05-04T12:25:25.005Z</time></trkpt><trkpt lat="44.99382657221537" lon="9.697659712875097"><ele>79.5</ele><time>2026-05-04T12:25:26.005Z</time></trkpt><trkpt lat="44.99371352667224" lon="9.697640983388437"><ele>79.25</ele><time>2026-05-04T12:25:27.005Z</time></trkpt><trkpt lat="44.99359842987628" lon="9.697621409840266"><ele>79.0</ele><time>2026-05-04T12:25:28.005Z</time></trkpt><trkpt lat="44.99348601856328" lon="9.697601767669923"><ele>79.0</ele><time>2026-05-04T12:25:29.005Z</time></trkpt><trkpt lat="44.993389476750195" lon="9.697585956784051"><ele>79.0</ele><time>2026-05-04T12:25:30.005Z</time></trkpt><trkpt lat="44.99330577137771" lon="9.697571449510534"><ele>79.0</ele><time>2026-05-04T12:25:31.005Z</time></trkpt><trkpt lat="44.99323504246426" lon="9.697558334030878"><ele>79.0</ele><time>2026-05-04T12:25:32.005Z</time></trkpt><trkpt lat="44.99316937009184" lon="9.697548026859666"><ele>79.0</ele><time>2026-05-04T12:25:33.005Z</time></trkpt><trkpt lat="44.99305380052186" lon="9.69753306925277"><ele>79.0</ele><time>2026-05-04T12:25:35.005Z</time></trkpt><trkpt lat="44.9929563403809" lon="9.697519298565512"><ele>78.83333333333333</ele><time>2026-05-04T12:25:37.005Z</time></trkpt><trkpt lat="44.99285675782881" lon="9.697501831243363"><ele>78.66666666666666</ele><time>2026-05-04T12:25:39.005Z</time></trkpt><trkpt lat="44.992758269602746" lon="9.697417523946351"><ele>78.5</ele><time>2026-05-04T12:25:41.005Z</time></trkpt><trkpt lat="44.99272573036337" lon="9.697329787080664"><ele>78.33333333333333</ele><time>2026-05-04T12:25:42.005Z</time></trkpt><trkpt lat="44.99269636635397" lon="9.697248351410103"><ele>78.16666666666667</ele><time>2026-05-04T12:25:43.005Z</time></trkpt><trkpt lat="44.99262946203555" lon="9.69717874963059"><ele>78.0</ele><time>2026-05-04T12:25:45.005Z</time></trkpt><trkpt lat="44.99257014040986" lon="9.697230022496111"><ele>78.0</ele><time>2026-05-04T12:25:47.005Z</time></trkpt><trkpt lat="44.99256999160998" lon="9.697319455849637"><ele>78.0</ele><time>2026-05-04T12:25:49.005Z</time></trkpt><trkpt lat="44.9925752038509" lon="9.697497260730245"><ele>78.0</ele><time>2026-05-04T12:25:51.005Z</time></trkpt><trkpt lat="44.992578242088854" lon="9.697631635863758"><ele>78.0</ele><time>2026-05-04T12:25:52.005Z</time></trkpt><trkpt lat="44.99257305867862" lon="9.697768044693465"><ele>78.0</ele><time>2026-05-04T12:25:53.005Z</time></trkpt><trkpt lat="44.99257116674644" lon="9.697884457338924"><ele>78.0</ele><time>2026-05-04T12:25:54.005Z</time></trkpt><trkpt lat="44.992567329283354" lon="9.697996091335792"><ele>78.0</ele><time>2026-05-04T12:25:55.005Z</time></trkpt><trkpt lat="44.99256786036796" lon="9.698104015044416"><ele>78.0</ele><time>2026-05-04T12:25:56.005Z</time></trkpt><trkpt lat="44.992571821068815" lon="9.698206044394198"><ele>78.0</ele><time>2026-05-04T12:25:57.005Z</time></trkpt><trkpt lat="44.99257926701897" lon="9.698309759190645"><ele>78.0</ele><time>2026-05-04T12:25:58.005Z</time></trkpt><trkpt lat="44.992586169681324" lon="9.698417115933893"><ele>78.0</ele><time>2026-05-04T12:25:59.005Z</time></trkpt><trkpt lat="44.99259030993352" lon="9.698516807745966"><ele>78.0</ele><time>2026-05-04T12:26:00.005Z</time></trkpt><trkpt lat="44.99258710004408" lon="9.698609113544299"><ele>78.0</ele><time>2026-05-04T12:26:01.005Z</time></trkpt><trkpt lat="44.9925787978025" lon="9.698709835225621"><ele>78.0</ele><time>2026-05-04T12:26:02.005Z</time></trkpt><trkpt lat="44.99256992486099" lon="9.698810713329"><ele>78.0</ele><time>2026-05-04T12:26:03.005Z</time></trkpt><trkpt lat="44.99255858816449" lon="9.698967336031727"><ele>78.0</ele><time>2026-05-04T12:26:05.005Z</time></trkpt><trkpt lat="44.99255916343719" lon="9.699106464492738"><ele>78.0</ele><time>2026-05-04T12:26:07.005Z</time></trkpt><trkpt lat="44.99255602529847" lon="9.699236022609792"><ele>78.0</ele><time>2026-05-04T12:26:09.005Z</time></trkpt><trkpt lat="44.99255622687082" lon="9.699325637109665"><ele>77.6</ele><time>2026-05-04T12:26:10.005Z</time></trkpt><trkpt lat="44.99255416141138" lon="9.699425683476981"><ele>77.19999999999999</ele><time>2026-05-04T12:26:11.005Z</time></trkpt><trkpt lat="44.992551686430566" lon="9.699527749478356"><ele>76.8</ele><time>2026-05-04T12:26:12.005Z</time></trkpt><trkpt lat="44.992549671677104" lon="9.699715928519682"><ele>76.39999999999999</ele><time>2026-05-04T12:26:14.005Z</time></trkpt><trkpt lat="44.99254830066381" lon="9.69981114478845"><ele>76.0</ele><time>2026-05-04T12:26:15.005Z</time></trkpt><trkpt lat="44.99254487584181" lon="9.69997644153741"><ele>76.0</ele><time>2026-05-04T12:26:17.005Z</time></trkpt><trkpt lat="44.99254123391557" lon="9.700121618869757"><ele>76.0</ele><time>2026-05-04T12:26:19.005Z</time></trkpt><trkpt lat="44.99253123900544" lon="9.700243736442872"><ele>76.0</ele><time>2026-05-04T12:26:21.005Z</time></trkpt><trkpt lat="44.99251255284826" lon="9.700366835346248"><ele>76.0</ele><time>2026-05-04T12:26:24.006Z</time></trkpt><trkpt lat="44.99254301655281" lon="9.700467658657741"><ele>76.0</ele><time>2026-05-04T12:26:54.006Z</time></trkpt><trkpt lat="44.992571029754245" lon="9.700558875119528"><ele>76.0</ele><time>2026-05-04T12:26:57.006Z</time></trkpt><trkpt lat="44.99254204672869" lon="9.700668461746073"><ele>75.83333333333333</ele><time>2026-05-04T12:26:59.006Z</time></trkpt><trkpt lat="44.99251034313703" lon="9.700835995957272"><ele>75.66666666666666</ele><time>2026-05-04T12:27:01.006Z</time></trkpt><trkpt lat="44.99250484753961" lon="9.700947767499734"><ele>75.5</ele><time>2026-05-04T12:27:02.006Z</time></trkpt><trkpt lat="44.99250509646444" lon="9.701068855830906"><ele>75.33333333333333</ele><time>2026-05-04T12:27:03.006Z</time></trkpt><trkpt lat="44.99250240217033" lon="9.701186494426869"><ele>75.16666666666667</ele><time>2026-05-04T12:27:04.006Z</time></trkpt><trkpt lat="44.99249630932721" lon="9.701294675594323"><ele>75.0</ele><time>2026-05-04T12:27:05.006Z</time></trkpt><trkpt lat="44.992493553650434" lon="9.701400641003737"><ele>75.5</ele><time>2026-05-04T12:27:06.006Z</time></trkpt><trkpt lat="44.992497636055326" lon="9.70149965839457"><ele>76.0</ele><time>2026-05-04T12:27:07.006Z</time></trkpt><trkpt lat="44.99250339798724" lon="9.701592190271862"><ele>76.5</ele><time>2026-05-04T12:27:08.006Z</time></trkpt><trkpt lat="44.9925020794485" lon="9.70169576559718"><ele>77.0</ele><time>2026-05-04T12:27:10.006Z</time></trkpt><trkpt lat="44.99249724585012" lon="9.70181194223222"><ele>77.5</ele><time>2026-05-04T12:29:08.006Z</time></trkpt><trkpt lat="44.99249647928113" lon="9.701997264650577"><ele>78.0</ele><time>2026-05-04T12:29:10.006Z</time></trkpt><trkpt lat="44.99249515111533" lon="9.702093884978403"><ele>78.0</ele><time>2026-05-04T12:29:11.006Z</time></trkpt><trkpt lat="44.99249182920685" lon="9.702245255084309"><ele>78.0</ele><time>2026-05-04T12:29:13.006Z</time></trkpt><trkpt lat="44.99244481916297" lon="9.702332617882927"><ele>78.0</ele><time>2026-05-04T12:29:15.006Z</time></trkpt><trkpt lat="44.99235098963072" lon="9.702337005036735"><ele>78.0</ele><time>2026-05-04T12:29:17.006Z</time></trkpt><trkpt lat="44.99226766197767" lon="9.702320655883378"><ele>78.0</ele><time>2026-05-04T12:29:18.006Z</time></trkpt><trkpt lat="44.9921338479013" lon="9.70230627334619"><ele>78.0</ele><time>2026-05-04T12:29:19.006Z</time></trkpt><trkpt lat="44.99199534970202" lon="9.702299041204421"><ele>78.0</ele><time>2026-05-04T12:29:20.006Z</time></trkpt><trkpt lat="44.99185650376749" lon="9.702284614074843"><ele>78.0</ele><time>2026-05-04T12:29:21.006Z</time></trkpt><trkpt lat="44.99173444985069" lon="9.70228121608955"><ele>78.0</ele><time>2026-05-04T12:29:22.006Z</time></trkpt><trkpt lat="44.991627720235094" lon="9.702273694741782"><ele>78.0</ele><time>2026-05-04T12:29:23.006Z</time></trkpt><trkpt lat="44.99153258806006" lon="9.702264705012723"><ele>78.0</ele><time>2026-05-04T12:29:24.006Z</time></trkpt><trkpt lat="44.991437157373035" lon="9.702260731403186"><ele>78.0</ele><time>2026-05-04T12:29:25.006Z</time></trkpt><trkpt lat="44.9913428684735" lon="9.70225188321761"><ele>78.0</ele><time>2026-05-04T12:29:26.006Z</time></trkpt><trkpt lat="44.99125810957326" lon="9.702247332604552"><ele>78.0</ele><time>2026-05-04T12:29:27.006Z</time></trkpt><trkpt lat="44.99117725890583" lon="9.702245484423386"><ele>78.0</ele><time>2026-05-04T12:29:28.006Z</time></trkpt><trkpt lat="44.99107731153707" lon="9.70224188504147"><ele>78.0</ele><time>2026-05-04T12:29:29.006Z</time></trkpt><trkpt lat="44.990978694302335" lon="9.702230581521063"><ele>78.0</ele><time>2026-05-04T12:29:30.006Z</time></trkpt><trkpt lat="44.9908703955815" lon="9.702215205643562"><ele>78.0</ele><time>2026-05-04T12:29:31.006Z</time></trkpt><trkpt lat="44.99074073598118" lon="9.702204753362961"><ele>78.0</ele><time>2026-05-04T12:29:32.006Z</time></trkpt><trkpt lat="44.9905932045575" lon="9.70219499851445"><ele>79.0</ele><time>2026-05-04T12:29:33.006Z</time></trkpt><trkpt lat="44.99043243897998" lon="9.702192102074795"><ele>80.0</ele><time>2026-05-04T12:29:34.006Z</time></trkpt><trkpt lat="44.99027054057116" lon="9.70218204666527"><ele>81.0</ele><time>2026-05-04T12:29:35.006Z</time></trkpt><trkpt lat="44.99010714492838" lon="9.702172805371852"><ele>80.66666666666667</ele><time>2026-05-04T12:29:36.006Z</time></trkpt><trkpt lat="44.98993167659798" lon="9.702159207964046"><ele>80.33333333333334</ele><time>2026-05-04T12:29:37.006Z</time></trkpt><trkpt lat="44.98975274319032" lon="9.702146646229195"><ele>80.0</ele><time>2026-05-04T12:29:38.006Z</time></trkpt><trkpt lat="44.989572756456" lon="9.702137328326508"><ele>80.0</ele><time>2026-05-04T12:29:39.006Z</time></trkpt><trkpt lat="44.989388676883735" lon="9.702129381154371"><ele>80.0</ele><time>2026-05-04T12:29:40.006Z</time></trkpt><trkpt lat="44.98920061384417" lon="9.702118118662783"><ele>80.0</ele><time>2026-05-04T12:29:41.006Z</time></trkpt><trkpt lat="44.98901277104294" lon="9.702108108703941"><ele>80.66666666666667</ele><time>2026-05-04T12:29:42.006Z</time></trkpt><trkpt lat="44.98882343987726" lon="9.702095596069176"><ele>81.33333333333333</ele><time>2026-05-04T12:29:43.006Z</time></trkpt><trkpt lat="44.98863714353086" lon="9.702085072683909"><ele>82.0</ele><time>2026-05-04T12:29:44.006Z</time></trkpt><trkpt lat="44.98845756238559" lon="9.702075571946766"><ele>82.33333333333333</ele><time>2026-05-04T12:29:45.006Z</time></trkpt><trkpt lat="44.988283634937176" lon="9.70206644069591"><ele>82.66666666666667</ele><time>2026-05-04T12:29:46.006Z</time></trkpt><trkpt lat="44.9881075777585" lon="9.702053734631287"><ele>83.0</ele><time>2026-05-04T12:29:47.006Z</time></trkpt><trkpt lat="44.987933130434165" lon="9.702043207191588"><ele>83.0</ele><time>2026-05-04T12:29:48.006Z</time></trkpt><trkpt lat="44.98775877610503" lon="9.70202928163828"><ele>83.0</ele><time>2026-05-04T12:29:49.006Z</time></trkpt><trkpt lat="44.98759496826872" lon="9.702018562743358"><ele>83.0</ele><time>2026-05-04T12:29:50.006Z</time></trkpt><trkpt lat="44.987439257319785" lon="9.702010990688922"><ele>83.5</ele><time>2026-05-04T12:29:51.006Z</time></trkpt><trkpt lat="44.98729504212532" lon="9.702000903812534"><ele>84.0</ele><time>2026-05-04T12:29:52.006Z</time></trkpt><trkpt lat="44.98716220870103" lon="9.701992094114285"><ele>84.5</ele><time>2026-05-04T12:29:53.006Z</time></trkpt><trkpt lat="44.98703438815195" lon="9.701986169367393"><ele>85.0</ele><time>2026-05-04T12:29:54.006Z</time></trkpt><trkpt lat="44.98692718187215" lon="9.70197679625634"><ele>85.0</ele><time>2026-05-04T12:29:55.006Z</time></trkpt><trkpt lat="44.986842819130544" lon="9.70196918616175"><ele>85.0</ele><time>2026-05-04T12:29:56.006Z</time></trkpt><trkpt lat="44.98673749424477" lon="9.701954840150352"><ele>85.0</ele><time>2026-05-04T12:29:58.006Z</time></trkpt><trkpt lat="44.98667728315334" lon="9.701996356949051"><ele>85.0</ele><time>2026-05-04T12:30:00.006Z</time></trkpt><trkpt lat="44.986665839901185" lon="9.702128347136044"><ele>85.0</ele><time>2026-05-04T12:30:02.006Z</time></trkpt><trkpt lat="44.986661672506344" lon="9.702241806635598"><ele>85.0</ele><time>2026-05-04T12:30:03.006Z</time></trkpt><trkpt lat="44.98666351150293" lon="9.70236087608611"><ele>84.5</ele><time>2026-05-04T12:30:04.006Z</time></trkpt><trkpt lat="44.98666143844253" lon="9.702498801190927"><ele>84.0</ele><time>2026-05-04T12:30:05.006Z</time></trkpt><trkpt lat="44.986652858796816" lon="9.702652991107726"><ele>83.5</ele><time>2026-05-04T12:30:06.006Z</time></trkpt><trkpt lat="44.986642914153606" lon="9.702825373897461"><ele>83.0</ele><time>2026-05-04T12:30:07.006Z</time></trkpt><trkpt lat="44.98663098591118" lon="9.703000164098855"><ele>83.0</ele><time>2026-05-04T12:30:08.006Z</time></trkpt><trkpt lat="44.98661819568442" lon="9.703187231324872"><ele>83.0</ele><time>2026-05-04T12:30:09.006Z</time></trkpt><trkpt lat="44.986606591661705" lon="9.703381152300718"><ele>83.0</ele><time>2026-05-04T12:30:10.006Z</time></trkpt><trkpt lat="44.98659686435251" lon="9.703570332219297"><ele>83.0</ele><time>2026-05-04T12:30:11.006Z</time></trkpt><trkpt lat="44.98658555365433" lon="9.703748968551919"><ele>83.0</ele><time>2026-05-04T12:30:12.006Z</time></trkpt><trkpt lat="44.98657482936246" lon="9.703944783923372"><ele>83.0</ele><time>2026-05-04T12:30:13.006Z</time></trkpt><trkpt lat="44.98656273541917" lon="9.704144574639194"><ele>83.0</ele><time>2026-05-04T12:30:14.006Z</time></trkpt><trkpt lat="44.98654939331129" lon="9.704343404997594"><ele>83.0</ele><time>2026-05-04T12:30:15.006Z</time></trkpt><trkpt lat="44.98653656860905" lon="9.704539881687612"><ele>83.0</ele><time>2026-05-04T12:30:16.006Z</time></trkpt><trkpt lat="44.98653021210612" lon="9.704720099392482"><ele>83.0</ele><time>2026-05-04T12:30:17.006Z</time></trkpt><trkpt lat="44.98652195294123" lon="9.704884516965821"><ele>83.0</ele><time>2026-05-04T12:30:18.006Z</time></trkpt><trkpt lat="44.98650846173079" lon="9.705046728039564"><ele>83.0</ele><time>2026-05-04T12:30:19.006Z</time></trkpt><trkpt lat="44.98649817782756" lon="9.705204614665176"><ele>83.0</ele><time>2026-05-04T12:30:20.006Z</time></trkpt><trkpt lat="44.98649160479884" lon="9.70536763215983"><ele>83.0</ele><time>2026-05-04T12:30:21.006Z</time></trkpt><trkpt lat="44.98648858294472" lon="9.705539478506036"><ele>83.0</ele><time>2026-05-04T12:30:22.006Z</time></trkpt><trkpt lat="44.98647521357791" lon="9.705704559330329"><ele>83.0</ele><time>2026-05-04T12:30:23.006Z</time></trkpt><trkpt lat="44.986467441018426" lon="9.705879789765442"><ele>83.0</ele><time>2026-05-04T12:30:24.006Z</time></trkpt><trkpt lat="44.98645522086962" lon="9.706050941365238"><ele>83.0</ele><time>2026-05-04T12:30:25.006Z</time></trkpt><trkpt lat="44.98644112127844" lon="9.70622649232822"><ele>83.0</ele><time>2026-05-04T12:30:26.006Z</time></trkpt><trkpt lat="44.9864301061055" lon="9.706397458027727"><ele>83.0</ele><time>2026-05-04T12:30:27.006Z</time></trkpt><trkpt lat="44.9864199764256" lon="9.706552094732718"><ele>83.0</ele><time>2026-05-04T12:30:28.006Z</time></trkpt><trkpt lat="44.986417575882456" lon="9.706716699283586"><ele>83.0</ele><time>2026-05-04T12:30:29.006Z</time></trkpt><trkpt lat="44.98640985016946" lon="9.706880187807387"><ele>83.0</ele><time>2026-05-04T12:30:30.006Z</time></trkpt><trkpt lat="44.9864040315721" lon="9.707053193434321"><ele>83.0</ele><time>2026-05-04T12:30:31.006Z</time></trkpt><trkpt lat="44.98639641776725" lon="9.707229280115161"><ele>82.75</ele><time>2026-05-04T12:30:32.006Z</time></trkpt><trkpt lat="44.98637980073098" lon="9.707405673627765"><ele>82.5</ele><time>2026-05-04T12:30:33.006Z</time></trkpt><trkpt lat="44.986367752357566" lon="9.707586550833815"><ele>82.25</ele><time>2026-05-04T12:30:34.006Z</time></trkpt><trkpt lat="44.986353473936084" lon="9.707763538862814"><ele>82.0</ele><time>2026-05-04T12:30:35.005Z</time></trkpt><trkpt lat="44.98634192218437" lon="9.70792517874349"><ele>82.0</ele><time>2026-05-04T12:30:36.006Z</time></trkpt><trkpt lat="44.98633823794275" lon="9.70809356776597"><ele>82.0</ele><time>2026-05-04T12:30:37.006Z</time></trkpt><trkpt lat="44.986331313278725" lon="9.70826396417134"><ele>82.0</ele><time>2026-05-04T12:30:38.006Z</time></trkpt><trkpt lat="44.98631893760934" lon="9.70844395389483"><ele>82.0</ele><time>2026-05-04T12:30:39.006Z</time></trkpt><trkpt lat="44.9863082376118" lon="9.708631307746588"><ele>81.75</ele><time>2026-05-04T12:30:40.006Z</time></trkpt><trkpt lat="44.98629732669607" lon="9.708822283005762"><ele>81.5</ele><time>2026-05-04T12:30:41.006Z</time></trkpt><trkpt lat="44.986288654086586" lon="9.70900935346733"><ele>81.25</ele><time>2026-05-04T12:30:42.006Z</time></trkpt><trkpt lat="44.98627962597617" lon="9.70919329329667"><ele>81.0</ele><time>2026-05-04T12:30:43.006Z</time></trkpt><trkpt lat="44.98626932702067" lon="9.709368685917218"><ele>81.19999999999999</ele><time>2026-05-04T12:30:44.006Z</time></trkpt><trkpt lat="44.986265853393036" lon="9.709526776374016"><ele>81.39999999999999</ele><time>2026-05-04T12:30:45.006Z</time></trkpt><trkpt lat="44.986257075259026" lon="9.709665832229298"><ele>81.6</ele><time>2026-05-04T12:30:46.006Z</time></trkpt><trkpt lat="44.9862551168768" lon="9.709793525999562"><ele>81.8</ele><time>2026-05-04T12:30:47.006Z</time></trkpt><trkpt lat="44.98625027497849" lon="9.709910443991074"><ele>82.0</ele><time>2026-05-04T12:30:48.006Z</time></trkpt><trkpt lat="44.986239133529196" lon="9.710027173339201"><ele>82.0</ele><time>2026-05-04T12:30:49.006Z</time></trkpt><trkpt lat="44.98622905359385" lon="9.710152819751055"><ele>82.0</ele><time>2026-05-04T12:30:50.006Z</time></trkpt><trkpt lat="44.98622436372025" lon="9.710280394848262"><ele>82.0</ele><time>2026-05-04T12:30:51.006Z</time></trkpt><trkpt lat="44.98623047153866" lon="9.710419810418244"><ele>82.0</ele><time>2026-05-04T12:30:52.006Z</time></trkpt><trkpt lat="44.986241714983784" lon="9.710568616909098"><ele>82.0</ele><time>2026-05-04T12:30:53.006Z</time></trkpt><trkpt lat="44.98624557561773" lon="9.710720438236672"><ele>81.83333333333333</ele><time>2026-05-04T12:30:54.006Z</time></trkpt><trkpt lat="44.98623724303146" lon="9.710851150983885"><ele>81.66666666666666</ele><time>2026-05-04T12:30:55.006Z</time></trkpt><trkpt lat="44.98622615759805" lon="9.71096952695917"><ele>81.5</ele><time>2026-05-04T12:30:56.006Z</time></trkpt><trkpt lat="44.98621767244433" lon="9.711085905935128"><ele>81.33333333333333</ele><time>2026-05-04T12:30:57.006Z</time></trkpt><trkpt lat="44.98621031500012" lon="9.711207793770614"><ele>81.16666666666667</ele><time>2026-05-04T12:30:58.006Z</time></trkpt><trkpt lat="44.986203216660165" lon="9.711335397536"><ele>81.0</ele><time>2026-05-04T12:30:59.006Z</time></trkpt><trkpt lat="44.986192499705226" lon="9.71146724310772"><ele>81.0</ele><time>2026-05-04T12:31:00.006Z</time></trkpt><trkpt lat="44.986188075721934" lon="9.71161089198962"><ele>81.0</ele><time>2026-05-04T12:31:01.006Z</time></trkpt><trkpt lat="44.986187622249446" lon="9.711756448626783"><ele>81.0</ele><time>2026-05-04T12:31:02.006Z</time></trkpt><trkpt lat="44.98618712522412" lon="9.711898119872211"><ele>81.0</ele><time>2026-05-04T12:31:03.006Z</time></trkpt><trkpt lat="44.98618328834106" lon="9.712039467637926"><ele>81.0</ele><time>2026-05-04T12:31:04.006Z</time></trkpt><trkpt lat="44.98617737386761" lon="9.712182731632211"><ele>81.0</ele><time>2026-05-04T12:31:05.006Z</time></trkpt><trkpt lat="44.986177415401265" lon="9.712319799309533"><ele>81.0</ele><time>2026-05-04T12:31:06.006Z</time></trkpt><trkpt lat="44.98617895528296" lon="9.712456935933975"><ele>81.0</ele><time>2026-05-04T12:31:07.006Z</time></trkpt><trkpt lat="44.98618075225502" lon="9.712592320538704"><ele>81.0</ele><time>2026-05-04T12:31:08.006Z</time></trkpt><trkpt lat="44.98618194572381" lon="9.712732716671095"><ele>81.0</ele><time>2026-05-04T12:31:09.006Z</time></trkpt><trkpt lat="44.98618119005018" lon="9.712870075353953"><ele>81.0</ele><time>2026-05-04T12:31:10.006Z</time></trkpt><trkpt lat="44.986182252664214" lon="9.713012325728283"><ele>81.0</ele><time>2026-05-04T12:31:11.006Z</time></trkpt><trkpt lat="44.98617427371357" lon="9.713150234388667"><ele>81.0</ele><time>2026-05-04T12:31:12.006Z</time></trkpt><trkpt lat="44.986166835183326" lon="9.713279453884963"><ele>81.0</ele><time>2026-05-04T12:31:13.006Z</time></trkpt><trkpt lat="44.98616630684376" lon="9.713390286346387"><ele>81.0</ele><time>2026-05-04T12:31:14.006Z</time></trkpt><trkpt lat="44.98616568163692" lon="9.713546128277127"><ele>81.19999999999999</ele><time>2026-05-04T12:31:16.006Z</time></trkpt><trkpt lat="44.986185654948905" lon="9.71368148984039"><ele>81.39999999999999</ele><time>2026-05-04T12:31:18.006Z</time></trkpt><trkpt lat="44.98623137472767" lon="9.713796345643098"><ele>81.6</ele><time>2026-05-04T12:31:20.006Z</time></trkpt><trkpt lat="44.98635493667451" lon="9.713843170675675"><ele>81.8</ele><time>2026-05-04T12:31:22.006Z</time></trkpt><trkpt lat="44.986433175636044" lon="9.713824074036"><ele>82.0</ele><time>2026-05-04T12:31:23.006Z</time></trkpt><trkpt lat="44.98653134856368" lon="9.713791442588784"><ele>82.0</ele><time>2026-05-04T12:31:24.006Z</time></trkpt><trkpt lat="44.98664376594261" lon="9.713757764998597"><ele>82.0</ele><time>2026-05-04T12:31:25.006Z</time></trkpt><trkpt lat="44.98675160778465" lon="9.713732607121527"><ele>82.0</ele><time>2026-05-04T12:31:26.006Z</time></trkpt><trkpt lat="44.986865191840074" lon="9.7137020427289"><ele>82.0</ele><time>2026-05-04T12:31:27.006Z</time></trkpt><trkpt lat="44.986968055921835" lon="9.713681575505237"><ele>82.0</ele><time>2026-05-04T12:31:28.006Z</time></trkpt><trkpt lat="44.98705645444792" lon="9.713665342481539"><ele>81.66666666666666</ele><time>2026-05-04T12:31:29.006Z</time></trkpt><trkpt lat="44.98714541451627" lon="9.713648174277516"><ele>81.33333333333333</ele><time>2026-05-04T12:31:30.006Z</time></trkpt><trkpt lat="44.98722812604169" lon="9.713630259556952"><ele>81.0</ele><time>2026-05-04T12:31:31.006Z</time></trkpt><trkpt lat="44.987294713148806" lon="9.713623245240159"><ele>80.66666666666667</ele><time>2026-05-04T12:31:32.006Z</time></trkpt><trkpt lat="44.98738088609598" lon="9.713675899899544"><ele>80.33333333333334</ele><time>2026-05-04T12:31:34.006Z</time></trkpt><trkpt lat="44.987409593109994" lon="9.713800423641588"><ele>80.0</ele><time>2026-05-04T12:31:36.006Z</time></trkpt><trkpt lat="44.98738395248007" lon="9.713985822155763"><ele>80.0</ele><time>2026-05-04T12:31:38.006Z</time></trkpt><trkpt lat="44.987362568441014" lon="9.714109923501946"><ele>80.0</ele><time>2026-05-04T12:31:39.006Z</time></trkpt><trkpt lat="44.987347920981904" lon="9.714238994420219"><ele>80.0</ele><time>2026-05-04T12:31:40.006Z</time></trkpt><trkpt lat="44.98733289511509" lon="9.714368626245287"><ele>80.0</ele><time>2026-05-04T12:31:41.006Z</time></trkpt><trkpt lat="44.98731623896548" lon="9.714502309706813"><ele>80.0</ele><time>2026-05-04T12:31:42.006Z</time></trkpt><trkpt lat="44.987303567107666" lon="9.714635267762699"><ele>80.4</ele><time>2026-05-04T12:31:43.006Z</time></trkpt><trkpt lat="44.9872958007368" lon="9.714773681607742"><ele>80.8</ele><time>2026-05-04T12:31:44.006Z</time></trkpt><trkpt lat="44.98728210869266" lon="9.71491339938504"><ele>81.19999999999999</ele><time>2026-05-04T12:31:45.006Z</time></trkpt><trkpt lat="44.987267569887536" lon="9.715055225828662"><ele>81.6</ele><time>2026-05-04T12:31:46.006Z</time></trkpt><trkpt lat="44.98725559651302" lon="9.715194369976025"><ele>82.0</ele><time>2026-05-04T12:31:47.006Z</time></trkpt><trkpt lat="44.987245082164605" lon="9.71531907562278"><ele>82.0</ele><time>2026-05-04T12:31:48.006Z</time></trkpt><trkpt lat="44.987236932412145" lon="9.71543373621998"><ele>82.0</ele><time>2026-05-04T12:31:49.006Z</time></trkpt><trkpt lat="44.987228633333345" lon="9.715533060359167"><ele>82.0</ele><time>2026-05-04T12:31:50.006Z</time></trkpt><trkpt lat="44.98722104559358" lon="9.715664073865678"><ele>82.0</ele><time>2026-05-04T12:31:52.006Z</time></trkpt><trkpt lat="44.98721140542161" lon="9.71578375972177"><ele>82.0</ele><time>2026-05-04T12:31:54.006Z</time></trkpt><trkpt lat="44.98715444801971" lon="9.715869470023067"><ele>82.0</ele><time>2026-05-04T12:31:56.006Z</time></trkpt><trkpt lat="44.98702707409023" lon="9.7158409193208"><ele>82.0</ele><time>2026-05-04T12:31:58.006Z</time></trkpt><trkpt lat="44.98693791389109" lon="9.715798375301322"><ele>82.0</ele><time>2026-05-04T12:31:59.006Z</time></trkpt><trkpt lat="44.98683079226681" lon="9.71577263830407"><ele>82.0</ele><time>2026-05-04T12:32:00.006Z</time></trkpt><trkpt lat="44.98672153021836" lon="9.715749283057981"><ele>82.0</ele><time>2026-05-04T12:32:01.006Z</time></trkpt><trkpt lat="44.986603145677336" lon="9.715722412879813"><ele>82.0</ele><time>2026-05-04T12:32:02.006Z</time></trkpt><trkpt lat="44.9864695700277" lon="9.71569476110046"><ele>81.75</ele><time>2026-05-04T12:32:03.006Z</time></trkpt><trkpt lat="44.98632934202026" lon="9.71566150176008"><ele>81.5</ele><time>2026-05-04T12:32:04.006Z</time></trkpt><trkpt lat="44.986188777968636" lon="9.71563224721942"><ele>81.25</ele><time>2026-05-04T12:32:05.006Z</time></trkpt><trkpt lat="44.98604131886921" lon="9.715603360413088"><ele>81.0</ele><time>2026-05-04T12:32:06.006Z</time></trkpt><trkpt lat="44.98588967070451" lon="9.71557465763119"><ele>81.0</ele><time>2026-05-04T12:32:07.006Z</time></trkpt><trkpt lat="44.98573227861123" lon="9.71553828940478"><ele>81.0</ele><time>2026-05-04T12:32:08.006Z</time></trkpt><trkpt lat="44.98557672186431" lon="9.715500294223945"><ele>81.0</ele><time>2026-05-04T12:32:09.006Z</time></trkpt><trkpt lat="44.98541988725998" lon="9.71546489282535"><ele>81.0</ele><time>2026-05-04T12:32:10.006Z</time></trkpt><trkpt lat="44.985254933254886" lon="9.715430545519775"><ele>81.0</ele><time>2026-05-04T12:32:11.006Z</time></trkpt><trkpt lat="44.985089721828274" lon="9.715392386476356"><ele>81.0</ele><time>2026-05-04T12:32:12.006Z</time></trkpt><trkpt lat="44.98493664226755" lon="9.715358000007038"><ele>81.25</ele><time>2026-05-04T12:32:13.006Z</time></trkpt><trkpt lat="44.98479130183118" lon="9.71532373729316"><ele>81.5</ele><time>2026-05-04T12:32:14.006Z</time></trkpt><trkpt lat="44.98466076257926" lon="9.715297079398441"><ele>81.75</ele><time>2026-05-04T12:32:15.006Z</time></trkpt><trkpt lat="44.98453840366487" lon="9.715272960400211"><ele>82.0</ele><time>2026-05-04T12:32:16.006Z</time></trkpt><trkpt lat="44.984424850507615" lon="9.715253712674828"><ele>81.83333333333333</ele><time>2026-05-04T12:32:17.006Z</time></trkpt><trkpt lat="44.984319725553824" lon="9.715233873188177"><ele>81.66666666666666</ele><time>2026-05-04T12:32:18.006Z</time></trkpt><trkpt lat="44.984225370497846" lon="9.715210679186344"><ele>81.5</ele><time>2026-05-04T12:32:19.006Z</time></trkpt><trkpt lat="44.9841489914336" lon="9.715190956189433"><ele>81.33333333333333</ele><time>2026-05-04T12:32:20.006Z</time></trkpt><trkpt lat="44.98408202728865" lon="9.715175026191309"><ele>81.16666666666667</ele><time>2026-05-04T12:32:21.006Z</time></trkpt><trkpt lat="44.98400010983235" lon="9.715155654152168"><ele>81.0</ele><time>2026-05-04T12:32:23.006Z</time></trkpt><trkpt lat="44.983946441198" lon="9.71504604371681"><ele>81.33333333333333</ele><time>2026-05-04T12:32:27.006Z</time></trkpt><trkpt lat="44.983967916713084" lon="9.714946450329084"><ele>81.66666666666667</ele><time>2026-05-04T12:32:28.006Z</time></trkpt><trkpt lat="44.98398398989564" lon="9.714847413070707"><ele>82.0</ele><time>2026-05-04T12:32:29.006Z</time></trkpt><trkpt lat="44.983995652549154" lon="9.714739189579854"><ele>82.33333333333334</ele><time>2026-05-04T12:32:30.006Z</time></trkpt><trkpt lat="44.9839957591216" lon="9.714616745656805"><ele>82.66666666666667</ele><time>2026-05-04T12:32:31.006Z</time></trkpt><trkpt lat="44.98399570273534" lon="9.714497101109991"><ele>83.0</ele><time>2026-05-04T12:32:32.006Z</time></trkpt><trkpt lat="44.98398779042091" lon="9.71439862559017"><ele>83.2</ele><time>2026-05-04T12:32:33.006Z</time></trkpt><trkpt lat="44.98391774548204" lon="9.71427863833943"><ele>83.4</ele><time>2026-05-04T12:32:35.006Z</time></trkpt><trkpt lat="44.98378248701503" lon="9.714299073682486"><ele>83.60000000000001</ele><time>2026-05-04T12:32:37.006Z</time></trkpt><trkpt lat="44.98369041617033" lon="9.71432889037406"><ele>83.80000000000001</ele><time>2026-05-04T12:32:38.006Z</time></trkpt><trkpt lat="44.98358520037632" lon="9.714350092853728"><ele>84.0</ele><time>2026-05-04T12:32:39.006Z</time></trkpt><trkpt lat="44.98346389004941" lon="9.714368369915464"><ele>84.0</ele><time>2026-05-04T12:32:40.006Z</time></trkpt><trkpt lat="44.98333945020179" lon="9.714395785849966"><ele>84.0</ele><time>2026-05-04T12:32:41.005Z</time></trkpt><trkpt lat="44.98320222069502" lon="9.714425761558399"><ele>84.0</ele><time>2026-05-04T12:32:42.005Z</time></trkpt><trkpt lat="44.983064385174686" lon="9.714458145699734"><ele>84.0</ele><time>2026-05-04T12:32:43.005Z</time></trkpt><trkpt lat="44.98292705669837" lon="9.71448360866171"><ele>84.0</ele><time>2026-05-04T12:32:44.006Z</time></trkpt><trkpt lat="44.982787227972715" lon="9.71451444450001"><ele>84.0</ele><time>2026-05-04T12:32:45.006Z</time></trkpt><trkpt lat="44.9826409666489" lon="9.714544731087383"><ele>84.0</ele><time>2026-05-04T12:32:46.006Z</time></trkpt><trkpt lat="44.98248789931658" lon="9.71458308148857"><ele>84.0</ele><time>2026-05-04T12:32:47.005Z</time></trkpt><trkpt lat="44.982330375890285" lon="9.714621077288777"><ele>84.66666666666667</ele><time>2026-05-04T12:32:48.005Z</time></trkpt><trkpt lat="44.98216801130784" lon="9.71465879465925"><ele>85.33333333333334</ele><time>2026-05-04T12:32:49.005Z</time></trkpt><trkpt lat="44.982002092738696" lon="9.714692754826947"><ele>86.0</ele><time>2026-05-04T12:32:50.005Z</time></trkpt><trkpt lat="44.981833385663705" lon="9.714732223721471"><ele>86.33333333333334</ele><time>2026-05-04T12:32:51.005Z</time></trkpt><trkpt lat="44.98166096128385" lon="9.714771799151706"><ele>86.66666666666667</ele><time>2026-05-04T12:32:52.005Z</time></trkpt><trkpt lat="44.981484158737274" lon="9.71481231281782"><ele>87.0</ele><time>2026-05-04T12:32:53.005Z</time></trkpt><trkpt lat="44.98130495805841" lon="9.714850201155944"><ele>87.0</ele><time>2026-05-04T12:32:54.006Z</time></trkpt><trkpt lat="44.9811268592366" lon="9.714894144345818"><ele>87.0</ele><time>2026-05-04T12:32:55.006Z</time></trkpt><trkpt lat="44.980945946566074" lon="9.714936904232822"><ele>87.0</ele><time>2026-05-04T12:32:56.006Z</time></trkpt><trkpt lat="44.98076557405975" lon="9.714978010764744"><ele>87.33333333333333</ele><time>2026-05-04T12:32:57.006Z</time></trkpt><trkpt lat="44.98058358757324" lon="9.715020648597603"><ele>87.66666666666666</ele><time>2026-05-04T12:32:58.006Z</time></trkpt><trkpt lat="44.980405904477514" lon="9.71506195007077"><ele>88.0</ele><time>2026-05-04T12:32:59.006Z</time></trkpt><trkpt lat="44.980229625499305" lon="9.715104064127342"><ele>88.0</ele><time>2026-05-04T12:33:00.006Z</time></trkpt><trkpt lat="44.98005036926894" lon="9.715143157763437"><ele>88.0</ele><time>2026-05-04T12:33:01.006Z</time></trkpt><trkpt lat="44.979872408186154" lon="9.715182522152157"><ele>88.0</ele><time>2026-05-04T12:33:02.006Z</time></trkpt><trkpt lat="44.97969726339805" lon="9.71522252603555"><ele>88.0</ele><time>2026-05-04T12:33:03.006Z</time></trkpt><trkpt lat="44.97952049935413" lon="9.715263934552398"><ele>88.0</ele><time>2026-05-04T12:33:04.006Z</time></trkpt><trkpt lat="44.9793444610881" lon="9.715302939404603"><ele>88.0</ele><time>2026-05-04T12:33:05.006Z</time></trkpt><trkpt lat="44.97916583366831" lon="9.715339359719433"><ele>88.33333333333333</ele><time>2026-05-04T12:33:06.006Z</time></trkpt><trkpt lat="44.97898943346547" lon="9.71537845514729"><ele>88.66666666666667</ele><time>2026-05-04T12:33:07.006Z</time></trkpt><trkpt lat="44.97881253086798" lon="9.715419162898497"><ele>89.0</ele><time>2026-05-04T12:33:08.006Z</time></trkpt><trkpt lat="44.978636590417565" lon="9.715463287777094"><ele>89.0</ele><time>2026-05-04T12:33:09.006Z</time></trkpt><trkpt lat="44.978461895372135" lon="9.715501569050168"><ele>89.0</ele><time>2026-05-04T12:33:10.006Z</time></trkpt><trkpt lat="44.97828424342322" lon="9.71554203959578"><ele>89.0</ele><time>2026-05-04T12:33:11.006Z</time></trkpt><trkpt lat="44.97810937120482" lon="9.715579996099315"><ele>89.33333333333334</ele><time>2026-05-04T12:33:12.006Z</time></trkpt><trkpt lat="44.97793234999317" lon="9.715617719671105"><ele>89.66666666666667</ele><time>2026-05-04T12:33:13.006Z</time></trkpt><trkpt lat="44.97776109950028" lon="9.715658292871813"><ele>90.0</ele><time>2026-05-04T12:33:14.006Z</time></trkpt><trkpt lat="44.97759433879939" lon="9.715697178515503"><ele>90.33333333333333</ele><time>2026-05-04T12:33:15.006Z</time></trkpt><trkpt lat="44.97742749636363" lon="9.715738906901315"><ele>90.66666666666666</ele><time>2026-05-04T12:33:16.006Z</time></trkpt><trkpt lat="44.97726129751948" lon="9.715779945151954"><ele>91.0</ele><time>2026-05-04T12:33:17.006Z</time></trkpt><trkpt lat="44.97709840310721" lon="9.715822792394718"><ele>91.0</ele><time>2026-05-04T12:33:18.006Z</time></trkpt><trkpt lat="44.9769277057545" lon="9.715863042589927"><ele>91.0</ele><time>2026-05-04T12:33:19.006Z</time></trkpt><trkpt lat="44.97675695149381" lon="9.715899329830702"><ele>91.0</ele><time>2026-05-04T12:33:20.006Z</time></trkpt><trkpt lat="44.97658364749871" lon="9.715936373791843"><ele>91.66666666666666</ele><time>2026-05-04T12:33:21.006Z</time></trkpt><trkpt lat="44.97641671853614" lon="9.715976619826877"><ele>92.33333333333333</ele><time>2026-05-04T12:33:22.006Z</time></trkpt><trkpt lat="44.97625663338371" lon="9.716013484505117"><ele>93.0</ele><time>2026-05-04T12:33:23.006Z</time></trkpt><trkpt lat="44.97610386570789" lon="9.716050747791082"><ele>93.0</ele><time>2026-05-04T12:33:24.006Z</time></trkpt><trkpt lat="44.97595511297752" lon="9.716089492327617"><ele>93.0</ele><time>2026-05-04T12:33:25.006Z</time></trkpt><trkpt lat="44.97581460745355" lon="9.71612149305126"><ele>93.0</ele><time>2026-05-04T12:33:26.006Z</time></trkpt><trkpt lat="44.975668536529874" lon="9.716148683211012"><ele>93.0</ele><time>2026-05-04T12:33:27.006Z</time></trkpt><trkpt lat="44.97553216076515" lon="9.71616258661521"><ele>92.75</ele><time>2026-05-04T12:33:28.006Z</time></trkpt><trkpt lat="44.975414676948795" lon="9.71619010413472"><ele>92.5</ele><time>2026-05-04T12:33:29.006Z</time></trkpt><trkpt lat="44.97530677610394" lon="9.716224472701308"><ele>92.25</ele><time>2026-05-04T12:33:30.006Z</time></trkpt><trkpt lat="44.97519526932508" lon="9.716253159860544"><ele>92.0</ele><time>2026-05-04T12:33:31.006Z</time></trkpt><trkpt lat="44.97507425191296" lon="9.71627531182651"><ele>92.5</ele><time>2026-05-04T12:33:32.006Z</time></trkpt><trkpt lat="44.9749516189369" lon="9.716305982622062"><ele>93.0</ele><time>2026-05-04T12:33:33.006Z</time></trkpt><trkpt lat="44.9748163134632" lon="9.716341948087093"><ele>93.5</ele><time>2026-05-04T12:33:34.006Z</time></trkpt><trkpt lat="44.974680374781094" lon="9.716374834549232"><ele>94.0</ele><time>2026-05-04T12:33:35.006Z</time></trkpt><trkpt lat="44.97453812119454" lon="9.71640673061938"><ele>94.0</ele><time>2026-05-04T12:33:36.006Z</time></trkpt><trkpt lat="44.974395573894775" lon="9.716444606202334"><ele>94.0</ele><time>2026-05-04T12:33:37.006Z</time></trkpt><trkpt lat="44.97424827633915" lon="9.716483392433558"><ele>94.0</ele><time>2026-05-04T12:33:38.006Z</time></trkpt><trkpt lat="44.97409769905441" lon="9.716517057897253"><ele>94.0</ele><time>2026-05-04T12:33:39.006Z</time></trkpt><trkpt lat="44.973942121165365" lon="9.716554926802276"><ele>93.33333333333333</ele><time>2026-05-04T12:33:40.006Z</time></trkpt><trkpt lat="44.97378590503103" lon="9.71659536817984"><ele>92.66666666666667</ele><time>2026-05-04T12:33:41.006Z</time></trkpt><trkpt lat="44.97362572264704" lon="9.716635206126972"><ele>92.0</ele><time>2026-05-04T12:33:42.006Z</time></trkpt><trkpt lat="44.97346521212441" lon="9.716681481349841"><ele>92.0</ele><time>2026-05-04T12:33:43.006Z</time></trkpt><trkpt lat="44.97329694511742" lon="9.716722443815458"><ele>92.0</ele><time>2026-05-04T12:33:44.006Z</time></trkpt><trkpt lat="44.973130438085484" lon="9.716764428742923"><ele>92.0</ele><time>2026-05-04T12:33:45.006Z</time></trkpt><trkpt lat="44.97295852923525" lon="9.716802789933471"><ele>92.0</ele><time>2026-05-04T12:33:46.006Z</time></trkpt><trkpt lat="44.972786697096645" lon="9.716845512982397"><ele>92.0</ele><time>2026-05-04T12:33:47.006Z</time></trkpt><trkpt lat="44.97261184555366" lon="9.716889086132968"><ele>92.0</ele><time>2026-05-04T12:33:48.006Z</time></trkpt><trkpt lat="44.972431973975795" lon="9.716940342320095"><ele>92.66666666666667</ele><time>2026-05-04T12:33:49.006Z</time></trkpt><trkpt lat="44.97224784052268" lon="9.716989319313562"><ele>93.33333333333333</ele><time>2026-05-04T12:33:50.006Z</time></trkpt><trkpt lat="44.97205764301199" lon="9.717036311377553"><ele>94.0</ele><time>2026-05-04T12:33:51.006Z</time></trkpt><trkpt lat="44.97186186871514" lon="9.717080656054431"><ele>94.33333333333333</ele><time>2026-05-04T12:33:52.006Z</time></trkpt><trkpt lat="44.97167065649614" lon="9.717107182775448"><ele>94.66666666666667</ele><time>2026-05-04T12:33:53.006Z</time></trkpt><trkpt lat="44.97148123972468" lon="9.717131309694059"><ele>95.0</ele><time>2026-05-04T12:33:54.006Z</time></trkpt><trkpt lat="44.971287729059235" lon="9.71715320894344"><ele>95.0</ele><time>2026-05-04T12:33:55.006Z</time></trkpt><trkpt lat="44.97109615062247" lon="9.717174712457851"><ele>95.0</ele><time>2026-05-04T12:33:56.006Z</time></trkpt><trkpt lat="44.970904834050316" lon="9.71719901411364"><ele>95.0</ele><time>2026-05-04T12:33:57.006Z</time></trkpt><trkpt lat="44.97071947606375" lon="9.717220872496583"><ele>95.66666666666667</ele><time>2026-05-04T12:33:58.006Z</time></trkpt><trkpt lat="44.97055027843304" lon="9.7172438020302"><ele>96.33333333333334</ele><time>2026-05-04T12:33:59.006Z</time></trkpt><trkpt lat="44.970394175912475" lon="9.717267159417782"><ele>97.0</ele><time>2026-05-04T12:34:00.006Z</time></trkpt><trkpt lat="44.97023783488096" lon="9.71728286129122"><ele>97.0</ele><time>2026-05-04T12:34:01.006Z</time></trkpt><trkpt lat="44.970084186413494" lon="9.7173002922223"><ele>97.0</ele><time>2026-05-04T12:34:02.006Z</time></trkpt><trkpt lat="44.9699293451401" lon="9.717316198805507"><ele>97.0</ele><time>2026-05-04T12:34:03.006Z</time></trkpt><trkpt lat="44.969776203116204" lon="9.717334439588932"><ele>96.0</ele><time>2026-05-04T12:34:04.006Z</time></trkpt><trkpt lat="44.969619527930966" lon="9.717351443391246"><ele>95.0</ele><time>2026-05-04T12:34:05.006Z</time></trkpt><trkpt lat="44.96945763577152" lon="9.717377142412289"><ele>94.0</ele><time>2026-05-04T12:34:06.006Z</time></trkpt><trkpt lat="44.96929722980016" lon="9.717406058222544"><ele>95.0</ele><time>2026-05-04T12:34:07.006Z</time></trkpt><trkpt lat="44.96913050970275" lon="9.71744316565805"><ele>96.0</ele><time>2026-05-04T12:34:08.006Z</time></trkpt><trkpt lat="44.96897108676194" lon="9.71748463978661"><ele>97.0</ele><time>2026-05-04T12:34:09.006Z</time></trkpt><trkpt lat="44.96880531616466" lon="9.717541460385283"><ele>97.0</ele><time>2026-05-04T12:34:10.006Z</time></trkpt><trkpt lat="44.968634531613375" lon="9.717592964141089"><ele>97.0</ele><time>2026-05-04T12:34:11.006Z</time></trkpt><trkpt lat="44.968452368889636" lon="9.717628180007107"><ele>97.0</ele><time>2026-05-04T12:34:12.006Z</time></trkpt><trkpt lat="44.968268092884415" lon="9.717660782183891"><ele>96.66666666666667</ele><time>2026-05-04T12:34:13.006Z</time></trkpt><trkpt lat="44.96808357566212" lon="9.717690562932303"><ele>96.33333333333334</ele><time>2026-05-04T12:34:14.006Z</time></trkpt><trkpt lat="44.9679014469247" lon="9.717715010813418"><ele>96.0</ele><time>2026-05-04T12:34:15.006Z</time></trkpt><trkpt lat="44.96772604554548" lon="9.717739003948763"><ele>96.0</ele><time>2026-05-04T12:34:16.006Z</time></trkpt><trkpt lat="44.96755213405952" lon="9.71776158974215"><ele>96.0</ele><time>2026-05-04T12:34:17.006Z</time></trkpt><trkpt lat="44.96738234008473" lon="9.717782964766595"><ele>96.0</ele><time>2026-05-04T12:34:18.006Z</time></trkpt><trkpt lat="44.967213095510374" lon="9.71781096114149"><ele>96.0</ele><time>2026-05-04T12:34:19.006Z</time></trkpt><trkpt lat="44.96705415260555" lon="9.717832096504958"><ele>96.0</ele><time>2026-05-04T12:34:20.006Z</time></trkpt><trkpt lat="44.966903012350855" lon="9.71786032036343"><ele>96.0</ele><time>2026-05-04T12:34:21.006Z</time></trkpt><trkpt lat="44.96675858877486" lon="9.717882113964693"><ele>97.0</ele><time>2026-05-04T12:34:22.006Z</time></trkpt><trkpt lat="44.96661516424137" lon="9.717899370262641"><ele>98.0</ele><time>2026-05-04T12:34:23.006Z</time></trkpt><trkpt lat="44.96647483602285" lon="9.71791535702681"><ele>99.0</ele><time>2026-05-04T12:34:24.006Z</time></trkpt><trkpt lat="44.96632806333153" lon="9.717936402100698"><ele>100.0</ele><time>2026-05-04T12:34:25.006Z</time></trkpt><trkpt lat="44.9661719391034" lon="9.717955995170593"><ele>100.0</ele><time>2026-05-04T12:34:26.006Z</time></trkpt><trkpt lat="44.96601491328661" lon="9.717980635562832"><ele>100.0</ele><time>2026-05-04T12:34:27.006Z</time></trkpt><trkpt lat="44.96585217616967" lon="9.71800372574846"><ele>100.0</ele><time>2026-05-04T12:34:28.006Z</time></trkpt><trkpt lat="44.96568998132092" lon="9.718029240232644"><ele>99.66666666666667</ele><time>2026-05-04T12:34:29.006Z</time></trkpt><trkpt lat="44.96552950474566" lon="9.718049490501272"><ele>99.33333333333334</ele><time>2026-05-04T12:34:30.006Z</time></trkpt><trkpt lat="44.965370804076066" lon="9.71807598858289"><ele>99.0</ele><time>2026-05-04T12:34:31.006Z</time></trkpt><trkpt lat="44.96520785278133" lon="9.718102117267708"><ele>99.0</ele><time>2026-05-04T12:34:32.006Z</time></trkpt><trkpt lat="44.965038778690094" lon="9.718129935543043"><ele>99.0</ele><time>2026-05-04T12:34:33.006Z</time></trkpt><trkpt lat="44.96487243251748" lon="9.718149478603832"><ele>99.0</ele><time>2026-05-04T12:34:34.006Z</time></trkpt><trkpt lat="44.9646996512236" lon="9.718176123757623"><ele>99.0</ele><time>2026-05-04T12:34:35.006Z</time></trkpt><trkpt lat="44.96453262660131" lon="9.718199431497151"><ele>99.0</ele><time>2026-05-04T12:34:36.006Z</time></trkpt><trkpt lat="44.96436430230066" lon="9.718225085302176"><ele>99.0</ele><time>2026-05-04T12:34:37.006Z</time></trkpt><trkpt lat="44.96418261387201" lon="9.718251926212943"><ele>99.0</ele><time>2026-05-04T12:34:38.006Z</time></trkpt><trkpt lat="44.9640119586083" lon="9.71827712536501"><ele>99.0</ele><time>2026-05-04T12:34:39.006Z</time></trkpt><trkpt lat="44.96383497024375" lon="9.718309188790917"><ele>99.0</ele><time>2026-05-04T12:34:40.006Z</time></trkpt><trkpt lat="44.96366145117533" lon="9.718336328588727"><ele>99.0</ele><time>2026-05-04T12:34:41.006Z</time></trkpt><trkpt lat="44.96348829680046" lon="9.718357258749739"><ele>99.0</ele><time>2026-05-04T12:34:42.006Z</time></trkpt><trkpt lat="44.9633172735387" lon="9.718379648564959"><ele>99.0</ele><time>2026-05-04T12:34:43.006Z</time></trkpt><trkpt lat="44.963152527342565" lon="9.71840483494005"><ele>99.75</ele><time>2026-05-04T12:34:44.006Z</time></trkpt><trkpt lat="44.962994610022236" lon="9.718420219252558"><ele>100.5</ele><time>2026-05-04T12:34:45.006Z</time></trkpt><trkpt lat="44.9628554885154" lon="9.718423406498058"><ele>101.25</ele><time>2026-05-04T12:34:46.006Z</time></trkpt><trkpt lat="44.96271872261555" lon="9.71841476309363"><ele>102.0</ele><time>2026-05-04T12:34:47.005Z</time></trkpt><trkpt lat="44.962580012415685" lon="9.718383313569786"><ele>101.33333333333334</ele><time>2026-05-04T12:34:48.005Z</time></trkpt><trkpt lat="44.96243521467002" lon="9.718339125268278"><ele>100.66666666666667</ele><time>2026-05-04T12:34:49.005Z</time></trkpt><trkpt lat="44.962289178855876" lon="9.718281881112018"><ele>100.0</ele><time>2026-05-04T12:34:50.005Z</time></trkpt><trkpt lat="44.96213835983708" lon="9.71821851426882"><ele>100.0</ele><time>2026-05-04T12:34:51.005Z</time></trkpt><trkpt lat="44.961987078605475" lon="9.718150517242893"><ele>100.0</ele><time>2026-05-04T12:34:52.005Z</time></trkpt><trkpt lat="44.96183373731237" lon="9.718089877960276"><ele>100.0</ele><time>2026-05-04T12:34:53.005Z</time></trkpt><trkpt lat="44.96167900134823" lon="9.7180285144193"><ele>100.0</ele><time>2026-05-04T12:34:54.006Z</time></trkpt><trkpt lat="44.96151796598388" lon="9.717962294430372"><ele>100.0</ele><time>2026-05-04T12:34:55.006Z</time></trkpt><trkpt lat="44.96135602070696" lon="9.717898889247152"><ele>100.0</ele><time>2026-05-04T12:34:56.005Z</time></trkpt><trkpt lat="44.961199229439195" lon="9.71783630863617"><ele>100.0</ele><time>2026-05-04T12:34:57.006Z</time></trkpt><trkpt lat="44.96104032982983" lon="9.717766626732436"><ele>100.0</ele><time>2026-05-04T12:34:58.006Z</time></trkpt><trkpt lat="44.960886559791206" lon="9.717705097209453"><ele>100.0</ele><time>2026-05-04T12:34:59.005Z</time></trkpt><trkpt lat="44.960730729749294" lon="9.717655737643708"><ele>100.66666666666667</ele><time>2026-05-04T12:35:00.005Z</time></trkpt><trkpt lat="44.960566137045674" lon="9.717614677450781"><ele>101.33333333333334</ele><time>2026-05-04T12:35:01.005Z</time></trkpt><trkpt lat="44.96040078933812" lon="9.717576697995405"><ele>102.0</ele><time>2026-05-04T12:35:02.005Z</time></trkpt><trkpt lat="44.9602351315957" lon="9.717539764409795"><ele>102.0</ele><time>2026-05-04T12:35:03.005Z</time></trkpt><trkpt lat="44.96006865213988" lon="9.717497817227391"><ele>102.0</ele><time>2026-05-04T12:35:04.005Z</time></trkpt><trkpt lat="44.959901831232706" lon="9.717448604799593"><ele>102.0</ele><time>2026-05-04T12:35:05.005Z</time></trkpt><trkpt lat="44.95973790841003" lon="9.71740052676088"><ele>102.0</ele><time>2026-05-04T12:35:06.005Z</time></trkpt><trkpt lat="44.95957447891739" lon="9.71734710601446"><ele>102.0</ele><time>2026-05-04T12:35:07.005Z</time></trkpt><trkpt lat="44.95941019508824" lon="9.717300023493948"><ele>102.0</ele><time>2026-05-04T12:35:08.005Z</time></trkpt><trkpt lat="44.95924585392277" lon="9.717254806275974"><ele>102.66666666666666</ele><time>2026-05-04T12:35:09.005Z</time></trkpt><trkpt lat="44.9590802019577" lon="9.717207156038238"><ele>103.33333333333333</ele><time>2026-05-04T12:35:10.005Z</time></trkpt><trkpt lat="44.958913003380886" lon="9.717154606845353"><ele>104.0</ele><time>2026-05-04T12:35:11.005Z</time></trkpt><trkpt lat="44.958745485721174" lon="9.71710533281246"><ele>104.0</ele><time>2026-05-04T12:35:12.005Z</time></trkpt><trkpt lat="44.958573134500334" lon="9.717060275013734"><ele>104.0</ele><time>2026-05-04T12:35:13.005Z</time></trkpt><trkpt lat="44.95840561066481" lon="9.71701216990635"><ele>104.0</ele><time>2026-05-04T12:35:14.005Z</time></trkpt><trkpt lat="44.95824555355777" lon="9.716962455708709"><ele>104.33333333333333</ele><time>2026-05-04T12:35:15.005Z</time></trkpt><trkpt lat="44.9580865161015" lon="9.716915684559526"><ele>104.66666666666666</ele><time>2026-05-04T12:35:16.005Z</time></trkpt><trkpt lat="44.9579313045155" lon="9.716873295256443"><ele>105.0</ele><time>2026-05-04T12:35:17.005Z</time></trkpt><trkpt lat="44.95777677531221" lon="9.716830957098137"><ele>105.0</ele><time>2026-05-04T12:35:18.005Z</time></trkpt><trkpt lat="44.9576288295545" lon="9.716787115431659"><ele>105.0</ele><time>2026-05-04T12:35:19.005Z</time></trkpt><trkpt lat="44.95748985360253" lon="9.716747956071869"><ele>105.0</ele><time>2026-05-04T12:35:20.005Z</time></trkpt><trkpt lat="44.957354886140706" lon="9.716710971057456"><ele>105.0</ele><time>2026-05-04T12:35:21.005Z</time></trkpt><trkpt lat="44.95722363241994" lon="9.716670468168406"><ele>105.0</ele><time>2026-05-04T12:35:22.005Z</time></trkpt><trkpt lat="44.957088737562366" lon="9.716633217906786"><ele>105.0</ele><time>2026-05-04T12:35:23.005Z</time></trkpt><trkpt lat="44.9569642073228" lon="9.716597007750732"><ele>105.0</ele><time>2026-05-04T12:35:24.005Z</time></trkpt><trkpt lat="44.95684974661969" lon="9.716561893693715"><ele>105.0</ele><time>2026-05-04T12:35:25.005Z</time></trkpt><trkpt lat="44.95674529760774" lon="9.716528882594414"><ele>105.33333333333333</ele><time>2026-05-04T12:35:26.005Z</time></trkpt><trkpt lat="44.95665357873997" lon="9.716504019930193"><ele>105.66666666666666</ele><time>2026-05-04T12:35:27.005Z</time></trkpt><trkpt lat="44.95657126489746" lon="9.716484764992991"><ele>106.0</ele><time>2026-05-04T12:35:28.005Z</time></trkpt><trkpt lat="44.95650626320822" lon="9.716467217220806"><ele>106.33333333333333</ele><time>2026-05-04T12:35:29.005Z</time></trkpt><trkpt lat="44.95641629023435" lon="9.716440756286456"><ele>106.66666666666666</ele><time>2026-05-04T12:35:31.005Z</time></trkpt><trkpt lat="44.956338904766746" lon="9.716466828963673"><ele>107.0</ele><time>2026-05-04T12:35:38.005Z</time></trkpt><trkpt lat="44.95629506002054" lon="9.716601210475801"><ele>106.99999999999999</ele><time>2026-05-04T12:35:40.005Z</time></trkpt><trkpt lat="44.95629653186682" lon="9.71671637406149"><ele>107.0</ele><time>2026-05-04T12:35:41.005Z</time></trkpt><trkpt lat="44.95630192760294" lon="9.71684150206042"><ele>107.0</ele><time>2026-05-04T12:35:42.005Z</time></trkpt><trkpt lat="44.95631772491819" lon="9.71697713490386"><ele>107.0</ele><time>2026-05-04T12:35:43.005Z</time></trkpt><trkpt lat="44.95633251530264" lon="9.717095613135973"><ele>106.99999999999999</ele><time>2026-05-04T12:35:44.005Z</time></trkpt><trkpt lat="44.95633317380514" lon="9.717195515838142"><ele>107.0</ele><time>2026-05-04T12:35:45.005Z</time></trkpt><trkpt lat="44.95630973904902" lon="9.717285240757448"><ele>106.6</ele><time>2026-05-04T12:35:46.005Z</time></trkpt><trkpt lat="44.956263307573806" lon="9.71736770310321"><ele>106.19999999999999</ele><time>2026-05-04T12:35:47.005Z</time></trkpt><trkpt lat="44.95622209812395" lon="9.717460988172638"><ele>105.8</ele><time>2026-05-04T12:35:48.005Z</time></trkpt><trkpt lat="44.95619692352369" lon="9.717580132113575"><ele>105.4</ele><time>2026-05-04T12:35:49.005Z</time></trkpt><trkpt lat="44.95618662989385" lon="9.717728638699668"><ele>105.0</ele><time>2026-05-04T12:35:50.005Z</time></trkpt><trkpt lat="44.9561796166389" lon="9.717894633970005"><ele>104.75</ele><time>2026-05-04T12:35:51.005Z</time></trkpt><trkpt lat="44.956167412768686" lon="9.718068883323165"><ele>104.5</ele><time>2026-05-04T12:35:52.005Z</time></trkpt><trkpt lat="44.956150168343974" lon="9.718241149503488"><ele>104.25</ele><time>2026-05-04T12:35:53.005Z</time></trkpt><trkpt lat="44.95613446458996" lon="9.718418624946123"><ele>104.0</ele><time>2026-05-04T12:35:54.005Z</time></trkpt><trkpt lat="44.95611544910258" lon="9.718591375515727"><ele>104.0</ele><time>2026-05-04T12:35:55.005Z</time></trkpt><trkpt lat="44.95610081442351" lon="9.718745651030872"><ele>104.0</ele><time>2026-05-04T12:35:56.005Z</time></trkpt><trkpt lat="44.95609027612553" lon="9.71887868591878"><ele>104.0</ele><time>2026-05-04T12:35:57.005Z</time></trkpt><trkpt lat="44.95607838823538" lon="9.719003830112994"><ele>104.0</ele><time>2026-05-04T12:35:58.005Z</time></trkpt><trkpt lat="44.95606660862365" lon="9.719125189071562"><ele>104.0</ele><time>2026-05-04T12:35:59.005Z</time></trkpt><trkpt lat="44.95605193897094" lon="9.719258736877196"><ele>104.0</ele><time>2026-05-04T12:36:00.005Z</time></trkpt><trkpt lat="44.95603501214515" lon="9.71939762070049"><ele>104.0</ele><time>2026-05-04T12:36:01.005Z</time></trkpt><trkpt lat="44.956028277996246" lon="9.719534749184158"><ele>104.0</ele><time>2026-05-04T12:36:02.005Z</time></trkpt><trkpt lat="44.95601718157929" lon="9.719659186526753"><ele>104.0</ele><time>2026-05-04T12:36:03.005Z</time></trkpt><trkpt lat="44.95600010093293" lon="9.719783613279024"><ele>104.0</ele><time>2026-05-04T12:36:04.005Z</time></trkpt><trkpt lat="44.955993035090565" lon="9.719908026721631"><ele>103.83333333333333</ele><time>2026-05-04T12:36:05.005Z</time></trkpt><trkpt lat="44.955984189961306" lon="9.72001675669639"><ele>103.66666666666666</ele><time>2026-05-04T12:36:06.005Z</time></trkpt><trkpt lat="44.955973795620444" lon="9.720112916475292"><ele>103.5</ele><time>2026-05-04T12:36:07.005Z</time></trkpt><trkpt lat="44.95596238889389" lon="9.720201148330792"><ele>103.33333333333334</ele><time>2026-05-04T12:36:08.005Z</time></trkpt><trkpt lat="44.95594478077458" lon="9.720363754121616"><ele>103.16666666666667</ele><time>2026-05-04T12:36:10.005Z</time></trkpt><trkpt lat="44.95593453924234" lon="9.720522104058727"><ele>103.0</ele><time>2026-05-04T12:36:12.005Z</time></trkpt><trkpt lat="44.955917420286845" lon="9.720647410725425"><ele>102.50000000000001</ele><time>2026-05-04T12:36:14.005Z</time></trkpt><trkpt lat="44.95589641813865" lon="9.720738242478392"><ele>102.0</ele><time>2026-05-04T12:36:16.005Z</time></trkpt><trkpt lat="44.955883410320475" lon="9.720844016094349"><ele>101.5</ele><time>2026-05-04T12:36:19.005Z</time></trkpt><trkpt lat="44.95592551442727" lon="9.720691633834049"><ele>101.0</ele><time>2026-05-04T12:37:08.006Z</time></trkpt><trkpt lat="44.95593439160315" lon="9.720584617648058"><ele>100.50000000000001</ele><time>2026-05-04T12:37:09.006Z</time></trkpt><trkpt lat="44.95594535061978" lon="9.720467318729815"><ele>100.0</ele><time>2026-05-04T12:37:10.006Z</time></trkpt><trkpt lat="44.95595836572283" lon="9.720283930377656"><ele>100.6</ele><time>2026-05-04T12:37:11.006Z</time></trkpt><trkpt lat="44.95597380469006" lon="9.720125013598722"><ele>101.2</ele><time>2026-05-04T12:37:12.006Z</time></trkpt><trkpt lat="44.955992414281035" lon="9.71997647496952"><ele>101.80000000000001</ele><time>2026-05-04T12:37:13.006Z</time></trkpt><trkpt lat="44.956007333182356" lon="9.719824141294508"><ele>102.4</ele><time>2026-05-04T12:37:14.006Z</time></trkpt><trkpt lat="44.95601728304646" lon="9.719669718911222"><ele>103.0</ele><time>2026-05-04T12:37:15.006Z</time></trkpt><trkpt lat="44.956027616416954" lon="9.719513785643159"><ele>103.25</ele><time>2026-05-04T12:37:16.006Z</time></trkpt><trkpt lat="44.95604713170718" lon="9.719358716295885"><ele>103.5</ele><time>2026-05-04T12:37:17.006Z</time></trkpt><trkpt lat="44.956066233065386" lon="9.719197354982288"><ele>103.75</ele><time>2026-05-04T12:37:18.006Z</time></trkpt><trkpt lat="44.95608550585181" lon="9.719019393700199"><ele>104.0</ele><time>2026-05-04T12:37:19.006Z</time></trkpt><trkpt lat="44.956099530570846" lon="9.718840999798656"><ele>104.0</ele><time>2026-05-04T12:37:20.006Z</time></trkpt><trkpt lat="44.9561145010147" lon="9.71866638506983"><ele>104.0</ele><time>2026-05-04T12:37:21.006Z</time></trkpt><trkpt lat="44.95613073310279" lon="9.718499799915385"><ele>104.0</ele><time>2026-05-04T12:37:22.006Z</time></trkpt><trkpt lat="44.95614911608359" lon="9.718328413688843"><ele>104.0</ele><time>2026-05-04T12:37:23.006Z</time></trkpt><trkpt lat="44.956165022037105" lon="9.718153011038815"><ele>104.0</ele><time>2026-05-04T12:37:24.006Z</time></trkpt><trkpt lat="44.95617924102109" lon="9.717988629358404"><ele>104.0</ele><time>2026-05-04T12:37:25.006Z</time></trkpt><trkpt lat="44.956189336168464" lon="9.717843019681776"><ele>104.0</ele><time>2026-05-04T12:37:26.006Z</time></trkpt><trkpt lat="44.95620140748969" lon="9.717710496673178"><ele>104.0</ele><time>2026-05-04T12:37:27.006Z</time></trkpt><trkpt lat="44.956213015584304" lon="9.71758991356009"><ele>104.0</ele><time>2026-05-04T12:37:28.006Z</time></trkpt><trkpt lat="44.956224967328104" lon="9.717490100365502"><ele>104.2</ele><time>2026-05-04T12:37:29.006Z</time></trkpt><trkpt lat="44.95628158335153" lon="9.71736910192"><ele>104.4</ele><time>2026-05-04T12:37:31.006Z</time></trkpt><trkpt lat="44.95634024558073" lon="9.717331119866312"><ele>104.6</ele><time>2026-05-04T12:37:33.006Z</time></trkpt><trkpt lat="44.95639497377944" lon="9.717172161752877"><ele>104.8</ele><time>2026-05-04T12:37:43.006Z</time></trkpt><trkpt lat="44.95637678406661" lon="9.717047363875466"><ele>105.0</ele><time>2026-05-04T12:37:44.006Z</time></trkpt><trkpt lat="44.95635745488196" lon="9.716910699228325"><ele>105.4</ele><time>2026-05-04T12:37:45.006Z</time></trkpt><trkpt lat="44.956343729189186" lon="9.716765963353218"><ele>105.8</ele><time>2026-05-04T12:37:46.006Z</time></trkpt><trkpt lat="44.95633514526355" lon="9.716654519465308"><ele>106.19999999999999</ele><time>2026-05-04T12:37:47.006Z</time></trkpt><trkpt lat="44.95629848861948" lon="9.716512990954252"><ele>106.6</ele><time>2026-05-04T12:37:49.006Z</time></trkpt><trkpt lat="44.95618360404527" lon="9.716478033409976"><ele>107.0</ele><time>2026-05-04T12:37:51.006Z</time></trkpt><trkpt lat="44.956114274169465" lon="9.716472265630003"><ele>106.99999999999999</ele><time>2026-05-04T12:37:52.006Z</time></trkpt><trkpt lat="44.956047091725935" lon="9.716454219102422"><ele>107.0</ele><time>2026-05-04T12:37:53.006Z</time></trkpt><trkpt lat="44.95596366915145" lon="9.716432669228455"><ele>107.0</ele><time>2026-05-04T12:37:54.006Z</time></trkpt><trkpt lat="44.955877504659824" lon="9.716419456652886"><ele>107.0</ele><time>2026-05-04T12:37:55.006Z</time></trkpt><trkpt lat="44.955785727050554" lon="9.716407778114371"><ele>106.99999999999999</ele><time>2026-05-04T12:37:56.006Z</time></trkpt><trkpt lat="44.95567719912155" lon="9.716381568345561"><ele>107.0</ele><time>2026-05-04T12:37:57.006Z</time></trkpt><trkpt lat="44.95555551248029" lon="9.716351866448758"><ele>106.75</ele><time>2026-05-04T12:37:58.006Z</time></trkpt><trkpt lat="44.95543004146691" lon="9.716325250559898"><ele>106.5</ele><time>2026-05-04T12:37:59.006Z</time></trkpt><trkpt lat="44.95530040538604" lon="9.716288690570552"><ele>106.25</ele><time>2026-05-04T12:38:00.006Z</time></trkpt><trkpt lat="44.955162075720686" lon="9.716252782310722"><ele>106.0</ele><time>2026-05-04T12:38:01.006Z</time></trkpt><trkpt lat="44.9550161637527" lon="9.716217599705708"><ele>105.75</ele><time>2026-05-04T12:38:02.006Z</time></trkpt><trkpt lat="44.95486807386832" lon="9.716181041694966"><ele>105.5</ele><time>2026-05-04T12:38:03.006Z</time></trkpt><trkpt lat="44.95472285927342" lon="9.716144861698321"><ele>105.25</ele><time>2026-05-04T12:38:04.006Z</time></trkpt><trkpt lat="44.954582721305904" lon="9.716113541600444"><ele>105.0</ele><time>2026-05-04T12:38:05.006Z</time></trkpt><trkpt lat="44.954452915257924" lon="9.716084496753538"><ele>105.5</ele><time>2026-05-04T12:38:06.006Z</time></trkpt><trkpt lat="44.954329508446314" lon="9.716054268141603"><ele>106.0</ele><time>2026-05-04T12:38:07.006Z</time></trkpt><trkpt lat="44.95420707276983" lon="9.716026041140482"><ele>106.5</ele><time>2026-05-04T12:38:08.006Z</time></trkpt><trkpt lat="44.9540803366976" lon="9.715995641885414"><ele>107.0</ele><time>2026-05-04T12:38:09.006Z</time></trkpt><trkpt lat="44.953952827208674" lon="9.715959481925282"><ele>107.0</ele><time>2026-05-04T12:38:10.006Z</time></trkpt><trkpt lat="44.95382440850317" lon="9.715918084131447"><ele>107.0</ele><time>2026-05-04T12:38:11.006Z</time></trkpt><trkpt lat="44.9536945127875" lon="9.71588057730787"><ele>107.0</ele><time>2026-05-04T12:38:12.006Z</time></trkpt><trkpt lat="44.95355961210126" lon="9.71584616742428"><ele>107.0</ele><time>2026-05-04T12:38:13.006Z</time></trkpt><trkpt lat="44.95342057913704" lon="9.715810394456382"><ele>107.25</ele><time>2026-05-04T12:38:14.006Z</time></trkpt><trkpt lat="44.95327882052419" lon="9.715769386589349"><ele>107.5</ele><time>2026-05-04T12:38:15.006Z</time></trkpt><trkpt lat="44.95313530810473" lon="9.715726087438405"><ele>107.75</ele><time>2026-05-04T12:38:16.006Z</time></trkpt><trkpt lat="44.95298746043701" lon="9.7156823850924"><ele>108.0</ele><time>2026-05-04T12:38:17.006Z</time></trkpt><trkpt lat="44.95283951660909" lon="9.715635942394522"><ele>108.0</ele><time>2026-05-04T12:38:18.006Z</time></trkpt><trkpt lat="44.95268698605475" lon="9.71559355453536"><ele>108.0</ele><time>2026-05-04T12:38:19.006Z</time></trkpt><trkpt lat="44.9525328169305" lon="9.715548087336867"><ele>108.0</ele><time>2026-05-04T12:38:20.006Z</time></trkpt><trkpt lat="44.95237214882908" lon="9.715499493757802"><ele>108.0</ele><time>2026-05-04T12:38:21.006Z</time></trkpt><trkpt lat="44.952221805899434" lon="9.715456985184453"><ele>108.0</ele><time>2026-05-04T12:38:22.006Z</time></trkpt><trkpt lat="44.95208941666326" lon="9.715419210805221"><ele>108.0</ele><time>2026-05-04T12:38:23.006Z</time></trkpt><trkpt lat="44.951965375711744" lon="9.715384927454345"><ele>108.0</ele><time>2026-05-04T12:38:24.006Z</time></trkpt><trkpt lat="44.95185917139158" lon="9.715355172152188"><ele>108.0</ele><time>2026-05-04T12:38:25.006Z</time></trkpt><trkpt lat="44.95176787491574" lon="9.715325041671464"><ele>108.00000000000001</ele><time>2026-05-04T12:38:26.006Z</time></trkpt><trkpt lat="44.95169375572066" lon="9.715295634610563"><ele>108.00000000000001</ele><time>2026-05-04T12:38:27.006Z</time></trkpt><trkpt lat="44.95158605956974" lon="9.715253043751693"><ele>108.0</ele><time>2026-05-04T12:38:29.006Z</time></trkpt><trkpt lat="44.951506513540146" lon="9.715217888276554"><ele>108.0</ele><time>2026-05-04T12:38:31.006Z</time></trkpt><trkpt lat="44.95139311661143" lon="9.715155660938652"><ele>108.4</ele><time>2026-05-04T12:38:33.006Z</time></trkpt><trkpt lat="44.95132196210341" lon="9.715121407331065"><ele>108.80000000000001</ele><time>2026-05-04T12:38:34.006Z</time></trkpt><trkpt lat="44.95124125410314" lon="9.715084853212744"><ele>109.2</ele><time>2026-05-04T12:38:35.006Z</time></trkpt><trkpt lat="44.951151664998925" lon="9.715048492024495"><ele>109.6</ele><time>2026-05-04T12:38:36.006Z</time></trkpt><trkpt lat="44.9510535025256" lon="9.715004769710808"><ele>110.0</ele><time>2026-05-04T12:38:37.006Z</time></trkpt><trkpt lat="44.9509467570457" lon="9.714952115519871"><ele>109.75</ele><time>2026-05-04T12:38:38.006Z</time></trkpt><trkpt lat="44.950830776420275" lon="9.714900038003575"><ele>109.5</ele><time>2026-05-04T12:38:39.006Z</time></trkpt><trkpt lat="44.950707425605785" lon="9.714844433509057"><ele>109.25</ele><time>2026-05-04T12:38:40.006Z</time></trkpt><trkpt lat="44.950575973415575" lon="9.714786024361366"><ele>109.0</ele><time>2026-05-04T12:38:41.006Z</time></trkpt><trkpt lat="44.950446683570284" lon="9.714725756080002"><ele>109.0</ele><time>2026-05-04T12:38:42.006Z</time></trkpt><trkpt lat="44.95031137656856" lon="9.714665505351922"><ele>109.0</ele><time>2026-05-04T12:38:43.006Z</time></trkpt><trkpt lat="44.95017056953184" lon="9.714600091545522"><ele>109.0</ele><time>2026-05-04T12:38:44.006Z</time></trkpt><trkpt lat="44.95002376260577" lon="9.71453733574332"><ele>109.0</ele><time>2026-05-04T12:38:45.006Z</time></trkpt><trkpt lat="44.94987347459342" lon="9.71447267494928"><ele>109.5</ele><time>2026-05-04T12:38:46.006Z</time></trkpt><trkpt lat="44.94972284689011" lon="9.714408925369291"><ele>110.0</ele><time>2026-05-04T12:38:47.006Z</time></trkpt><trkpt lat="44.94958934306201" lon="9.714350973237936"><ele>110.5</ele><time>2026-05-04T12:38:48.006Z</time></trkpt><trkpt lat="44.94946181675722" lon="9.714293694293978"><ele>111.0</ele><time>2026-05-04T12:38:49.006Z</time></trkpt><trkpt lat="44.94934737868095" lon="9.714242045825973"><ele>111.0</ele><time>2026-05-04T12:38:50.006Z</time></trkpt><trkpt lat="44.949235392188086" lon="9.71419317491504"><ele>111.0</ele><time>2026-05-04T12:38:51.006Z</time></trkpt><trkpt lat="44.949132336101336" lon="9.714147785659444"><ele>111.0</ele><time>2026-05-04T12:38:52.006Z</time></trkpt><trkpt lat="44.94902539079027" lon="9.714101838867064"><ele>111.0</ele><time>2026-05-04T12:38:53.006Z</time></trkpt><trkpt lat="44.94891339218781" lon="9.714056502405619"><ele>112.0</ele><time>2026-05-04T12:38:54.006Z</time></trkpt><trkpt lat="44.948797124321096" lon="9.714008428443885"><ele>113.0</ele><time>2026-05-04T12:38:55.006Z</time></trkpt><trkpt lat="44.94867714258197" lon="9.713957130351622"><ele>114.0</ele><time>2026-05-04T12:38:56.006Z</time></trkpt><trkpt lat="44.948561323175056" lon="9.71390394745269"><ele>115.0</ele><time>2026-05-04T12:38:57.006Z</time></trkpt><trkpt lat="44.94845536875041" lon="9.713852463670024"><ele>114.50000000000001</ele><time>2026-05-04T12:38:58.006Z</time></trkpt><trkpt lat="44.94836669607936" lon="9.71380486104107"><ele>114.0</ele><time>2026-05-04T12:38:59.006Z</time></trkpt><trkpt lat="44.948297560133355" lon="9.71377103960463"><ele>113.5</ele><time>2026-05-04T12:39:00.006Z</time></trkpt><trkpt lat="44.94820723890342" lon="9.713743818544279"><ele>113.0</ele><time>2026-05-04T12:39:02.005Z</time></trkpt><trkpt lat="44.94814158735808" lon="9.713765563121175"><ele>112.50000000000001</ele><time>2026-05-04T12:39:05.006Z</time></trkpt><trkpt lat="44.94811133219549" lon="9.713888141697556"><ele>112.0</ele><time>2026-05-04T12:39:07.006Z</time></trkpt><trkpt lat="44.94807955061524" lon="9.71403756084161"><ele>112.00000000000001</ele><time>2026-05-04T12:39:09.006Z</time></trkpt><trkpt lat="44.94805870912252" lon="9.714121911615806"><ele>112.0</ele><time>2026-05-04T12:39:10.006Z</time></trkpt><trkpt lat="44.94802233553924" lon="9.714289658818545"><ele>112.0</ele><time>2026-05-04T12:39:12.006Z</time></trkpt><trkpt lat="44.948005461648904" lon="9.714378873866085"><ele>112.0</ele><time>2026-05-04T12:39:13.006Z</time></trkpt><trkpt lat="44.94799000889999" lon="9.714470903591339"><ele>112.00000000000001</ele><time>2026-05-04T12:39:14.006Z</time></trkpt><trkpt lat="44.947971269816115" lon="9.714564304272223"><ele>112.0</ele><time>2026-05-04T12:39:15.006Z</time></trkpt><trkpt lat="44.947954027399526" lon="9.71465250019531"><ele>112.0</ele><time>2026-05-04T12:39:16.006Z</time></trkpt><trkpt lat="44.94793483791887" lon="9.714743312020117"><ele>112.0</ele><time>2026-05-04T12:39:17.005Z</time></trkpt><trkpt lat="44.94791635581076" lon="9.714832340455379"><ele>112.0</ele><time>2026-05-04T12:39:18.005Z</time></trkpt><trkpt lat="44.94789662502989" lon="9.71492626770448"><ele>112.0</ele><time>2026-05-04T12:39:19.005Z</time></trkpt><trkpt lat="44.9478750525269" lon="9.715016168003846"><ele>112.0</ele><time>2026-05-04T12:39:20.005Z</time></trkpt><trkpt lat="44.947847509031206" lon="9.715101160407196"><ele>112.0</ele><time>2026-05-04T12:39:21.004Z</time></trkpt><trkpt lat="44.9478178852716" lon="9.715188348915127"><ele>112.0</ele><time>2026-05-04T12:39:22.004Z</time></trkpt><trkpt lat="44.947794250825055" lon="9.715276754467554"><ele>111.6</ele><time>2026-05-04T12:39:23.004Z</time></trkpt><trkpt lat="44.94776777869986" lon="9.715412437622948"><ele>111.19999999999999</ele><time>2026-05-04T12:39:25.004Z</time></trkpt><trkpt lat="44.947750318372165" lon="9.715518320085787"><ele>110.8</ele><time>2026-05-04T12:39:27.003Z</time></trkpt><trkpt lat="44.94769067000318" lon="9.715608757686635"><ele>110.4</ele><time>2026-05-04T12:39:30.003Z</time></trkpt><trkpt lat="44.94761821355198" lon="9.71571032751757"><ele>110.0</ele><time>2026-05-04T12:39:32.003Z</time></trkpt><trkpt lat="44.94756778092289" lon="9.715825313026025"><ele>109.99999999999999</ele><time>2026-05-04T12:39:34.002Z</time></trkpt><trkpt lat="44.94756092014352" lon="9.715933211382996"><ele>110.0</ele><time>2026-05-04T12:39:36.002Z</time></trkpt><trkpt lat="44.94753728906528" lon="9.716020709035881"><ele>110.0</ele><time>2026-05-04T12:39:38.002Z</time></trkpt><trkpt lat="44.94750250538445" lon="9.716102214226916"><ele>110.0</ele><time>2026-05-04T12:39:40.002Z</time></trkpt><trkpt lat="44.94744415880772" lon="9.716152622713205"><ele>110.0</ele><time>2026-05-04T12:39:42.002Z</time></trkpt><trkpt lat="44.94735324592298" lon="9.716166348294918"><ele>109.99999999999999</ele><time>2026-05-04T12:39:44.002Z</time></trkpt><trkpt lat="44.94728272375492" lon="9.716143486169543"><ele>110.0</ele><time>2026-05-04T12:39:45.002Z</time></trkpt><trkpt lat="44.94721881462361" lon="9.716113142488012"><ele>110.6</ele><time>2026-05-04T12:39:46.002Z</time></trkpt><trkpt lat="44.94711096438332" lon="9.716058639295378"><ele>111.2</ele><time>2026-05-04T12:39:48.002Z</time></trkpt><trkpt lat="44.94703401745693" lon="9.716005161925983"><ele>111.80000000000001</ele><time>2026-05-04T12:39:50.001Z</time></trkpt><trkpt lat="44.94699731237559" lon="9.715889407775773"><ele>112.4</ele><time>2026-05-04T12:39:52.001Z</time></trkpt><trkpt lat="44.94703805730734" lon="9.715747345329817"><ele>113.0</ele><time>2026-05-04T12:39:54.001Z</time></trkpt><trkpt lat="44.94697237217917" lon="9.715678741636106"><ele>112.99999999999999</ele><time>2026-05-04T12:39:58.001Z</time></trkpt><trkpt lat="44.94689854097524" lon="9.715770397247292"><ele>113.0</ele><time>2026-05-04T12:40:00.001Z</time></trkpt><trkpt lat="44.94688030174266" lon="9.715858573913726"><ele>113.0</ele><time>2026-05-04T12:40:01.001Z</time></trkpt><trkpt lat="44.9468630269755" lon="9.715972479293047"><ele>113.0</ele><time>2026-05-04T12:40:02.001Z</time></trkpt><trkpt lat="44.946837742594425" lon="9.716100975051964"><ele>112.99999999999999</ele><time>2026-05-04T12:40:03.001Z</time></trkpt><trkpt lat="44.946814902777454" lon="9.716246864032822"><ele>113.0</ele><time>2026-05-04T12:40:04.001Z</time></trkpt><trkpt lat="44.94680163371615" lon="9.716412912682289"><ele>113.0</ele><time>2026-05-04T12:40:05.001Z</time></trkpt><trkpt lat="44.94677572047223" lon="9.716585841970307"><ele>113.0</ele><time>2026-05-04T12:40:06.001Z</time></trkpt><trkpt lat="44.94674132301808" lon="9.716761605852374"><ele>113.0</ele><time>2026-05-04T12:40:07.001Z</time></trkpt><trkpt lat="44.94670227568418" lon="9.716957251861707"><ele>113.0</ele><time>2026-05-04T12:40:08.001Z</time></trkpt><trkpt lat="44.946660091391166" lon="9.717180795728622"><ele>113.0</ele><time>2026-05-04T12:40:09.001Z</time></trkpt><trkpt lat="44.94662293735073" lon="9.717380517854465"><ele>113.0</ele><time>2026-05-04T12:40:10.001Z</time></trkpt><trkpt lat="44.94658984701269" lon="9.71754460240285"><ele>113.0</ele><time>2026-05-04T12:40:11.001Z</time></trkpt><trkpt lat="44.946553955257414" lon="9.717677963587477"><ele>113.0</ele><time>2026-05-04T12:40:12.001Z</time></trkpt><trkpt lat="44.94652581180784" lon="9.71779453016592"><ele>113.0</ele><time>2026-05-04T12:40:13.001Z</time></trkpt><trkpt lat="44.94649937276448" lon="9.717923821921662"><ele>113.00000000000001</ele><time>2026-05-04T12:40:14.001Z</time></trkpt><trkpt lat="44.94648463159989" lon="9.718064597605462"><ele>113.00000000000001</ele><time>2026-05-04T12:40:15.001Z</time></trkpt><trkpt lat="44.946467508951244" lon="9.71820839361546"><ele>113.0</ele><time>2026-05-04T12:40:16.001Z</time></trkpt><trkpt lat="44.94643978074963" lon="9.718365974985263"><ele>113.0</ele><time>2026-05-04T12:40:17.001Z</time></trkpt><trkpt lat="44.94640697259979" lon="9.718528626036091"><ele>113.25</ele><time>2026-05-04T12:40:18.001Z</time></trkpt><trkpt lat="44.94637902920335" lon="9.718701085063453"><ele>113.5</ele><time>2026-05-04T12:40:19.001Z</time></trkpt><trkpt lat="44.946351026356474" lon="9.718881299882243"><ele>113.75</ele><time>2026-05-04T12:40:20.001Z</time></trkpt><trkpt lat="44.946317857269534" lon="9.719051487540684"><ele>114.0</ele><time>2026-05-04T12:40:21.001Z</time></trkpt><trkpt lat="44.94628635561187" lon="9.719196656227997"><ele>114.0</ele><time>2026-05-04T12:40:22.001Z</time></trkpt><trkpt lat="44.94625933705872" lon="9.719326262686963"><ele>114.0</ele><time>2026-05-04T12:40:23.001Z</time></trkpt><trkpt lat="44.946234903989144" lon="9.719459513919361"><ele>114.0</ele><time>2026-05-04T12:40:24.001Z</time></trkpt><trkpt lat="44.94620893897492" lon="9.719599559524163"><ele>114.0</ele><time>2026-05-04T12:40:25.001Z</time></trkpt><trkpt lat="44.946188182412705" lon="9.719738059754283"><ele>114.0</ele><time>2026-05-04T12:40:26.001Z</time></trkpt><trkpt lat="44.94617107504485" lon="9.719875606909378"><ele>114.0</ele><time>2026-05-04T12:40:27.001Z</time></trkpt><trkpt lat="44.94614883894083" lon="9.720012088787014"><ele>114.0</ele><time>2026-05-04T12:40:28.001Z</time></trkpt><trkpt lat="44.94613068776153" lon="9.720136181312576"><ele>114.0</ele><time>2026-05-04T12:40:29.001Z</time></trkpt><trkpt lat="44.946105668072306" lon="9.720259553606782"><ele>114.0</ele><time>2026-05-04T12:40:30.001Z</time></trkpt><trkpt lat="44.94608547514392" lon="9.720367030575071"><ele>114.0</ele><time>2026-05-04T12:40:31.001Z</time></trkpt><trkpt lat="44.94607108927764" lon="9.720473284679283"><ele>114.0</ele><time>2026-05-04T12:40:32.001Z</time></trkpt><trkpt lat="44.94605571605835" lon="9.72058534838846"><ele>114.0</ele><time>2026-05-04T12:40:33.001Z</time></trkpt><trkpt lat="44.94603331142905" lon="9.720693575240718"><ele>114.0</ele><time>2026-05-04T12:40:34.001Z</time></trkpt><trkpt lat="44.94601391506958" lon="9.720786803849078"><ele>114.0</ele><time>2026-05-04T12:40:35.001Z</time></trkpt><trkpt lat="44.94597716770783" lon="9.720930829749145"><ele>114.0</ele><time>2026-05-04T12:40:37.001Z</time></trkpt><trkpt lat="44.94593302455598" lon="9.721052876293893"><ele>114.0</ele><time>2026-05-04T12:40:39.001Z</time></trkpt><trkpt lat="44.945888521125404" lon="9.721179567290264"><ele>113.16666666666667</ele><time>2026-05-04T12:40:41.001Z</time></trkpt><trkpt lat="44.9458349831236" lon="9.721298403149355"><ele>112.33333333333334</ele><time>2026-05-04T12:40:43.001Z</time></trkpt><trkpt lat="44.94578067306094" lon="9.721364902792551"><ele>111.5</ele><time>2026-05-04T12:40:45.001Z</time></trkpt><trkpt lat="44.945713154663174" lon="9.721384091368055"><ele>110.66666666666667</ele><time>2026-05-04T12:40:47.001Z</time></trkpt><trkpt lat="44.945631957454" lon="9.721376686597518"><ele>109.83333333333334</ele><time>2026-05-04T12:40:49.001Z</time></trkpt><trkpt lat="44.94553107330353" lon="9.721348857068119"><ele>109.0</ele><time>2026-05-04T12:40:51.001Z</time></trkpt><trkpt lat="44.94546648772285" lon="9.721339328688272"><ele>109.0</ele><time>2026-05-04T12:40:52.001Z</time></trkpt><trkpt lat="44.9453511349404" lon="9.721323771607677"><ele>109.0</ele><time>2026-05-04T12:40:54.001Z</time></trkpt><trkpt lat="44.94528027074571" lon="9.721307285590987"><ele>109.0</ele><time>2026-05-04T12:40:55.001Z</time></trkpt><trkpt lat="44.945215351369384" lon="9.721297839155598"><ele>109.0</ele><time>2026-05-04T12:40:56.001Z</time></trkpt><trkpt lat="44.94509660261976" lon="9.72130090391025"><ele>109.0</ele><time>2026-05-04T12:40:58.001Z</time></trkpt><trkpt lat="44.94500318703992" lon="9.721316201982967"><ele>109.00000000000001</ele><time>2026-05-04T12:41:00.001Z</time></trkpt><trkpt lat="44.94492238794416" lon="9.721359897841838"><ele>109.0</ele><time>2026-05-04T12:41:03.001Z</time></trkpt><trkpt lat="44.94485707410095" lon="9.721396781678646"><ele>109.0</ele><time>2026-05-04T12:41:05.001Z</time></trkpt><trkpt lat="44.94476680227008" lon="9.721436054352845"><ele>109.0</ele><time>2026-05-04T12:41:07Z</time></trkpt><trkpt lat="44.94470122760474" lon="9.72144129866022"><ele>109.00000000000001</ele><time>2026-05-04T12:41:10Z</time></trkpt><trkpt lat="44.9447363006786" lon="9.721388216443728"><ele>109.0</ele><time>2026-05-04T12:43:21.001Z</time></trkpt><trkpt lat="44.9448417283613" lon="9.72137369963422"><ele>109.00000000000001</ele><time>2026-05-04T12:43:23.001Z</time></trkpt><trkpt lat="44.94494700299712" lon="9.721355950708553"><ele>109.0</ele><time>2026-05-04T12:43:25Z</time></trkpt><trkpt lat="44.94501045875833" lon="9.721352167614931"><ele>109.0</ele><time>2026-05-04T12:43:26Z</time></trkpt><trkpt lat="44.945138113194936" lon="9.721357579131405"><ele>109.0</ele><time>2026-05-04T12:43:28Z</time></trkpt><trkpt lat="44.94520822092712" lon="9.721364674115511"><ele>109.00000000000001</ele><time>2026-05-04T12:43:29Z</time></trkpt><trkpt lat="44.94527881144402" lon="9.721373306279348"><ele>109.0</ele><time>2026-05-04T12:43:30Z</time></trkpt><trkpt lat="44.94534360978254" lon="9.721378728346508"><ele>109.00000000000001</ele><time>2026-05-04T12:43:31Z</time></trkpt><trkpt lat="44.945453214393766" lon="9.72139857130684"><ele>109.0</ele><time>2026-05-04T12:43:33Z</time></trkpt><trkpt lat="44.945534624068166" lon="9.721439268820772"><ele>109.0</ele><time>2026-05-04T12:43:35Z</time></trkpt><trkpt lat="44.945609559700195" lon="9.721458758974313"><ele>109.0</ele><time>2026-05-04T12:43:37Z</time></trkpt><trkpt lat="44.945676198665886" lon="9.72145278952917"><ele>109.00000000000001</ele><time>2026-05-04T12:43:39Z</time></trkpt><trkpt lat="44.945740022699255" lon="9.721446091380107"><ele>109.0</ele><time>2026-05-04T12:43:41Z</time></trkpt><trkpt lat="44.945807852619986" lon="9.721484248549793"><ele>109.6</ele><time>2026-05-04T12:43:44Z</time></trkpt><trkpt lat="44.94590344147329" lon="9.721298605270803"><ele>110.2</ele><time>2026-05-04T12:43:46Z</time></trkpt><trkpt lat="44.945944533334455" lon="9.721169433132951"><ele>110.79999999999998</ele><time>2026-05-04T12:43:48Z</time></trkpt><trkpt lat="44.945980089187266" lon="9.721044600734109"><ele>111.39999999999999</ele><time>2026-05-04T12:43:50Z</time></trkpt><trkpt lat="44.946003618577336" lon="9.720956661845996"><ele>112.0</ele><time>2026-05-04T12:43:51Z</time></trkpt><trkpt lat="44.946036921999905" lon="9.720820647168482"><ele>112.33333333333334</ele><time>2026-05-04T12:43:53Z</time></trkpt><trkpt lat="44.94605805564666" lon="9.720677587097901"><ele>112.66666666666667</ele><time>2026-05-04T12:43:55Z</time></trkpt><trkpt lat="44.94607160565168" lon="9.720588421485775"><ele>113.0</ele><time>2026-05-04T12:43:56Z</time></trkpt><trkpt lat="44.946092170295074" lon="9.720484467101807"><ele>113.33333333333334</ele><time>2026-05-04T12:43:57Z</time></trkpt><trkpt lat="44.94610840872282" lon="9.720381471242005"><ele>113.66666666666667</ele><time>2026-05-04T12:43:58Z</time></trkpt><trkpt lat="44.94612558048786" lon="9.72026910217333"><ele>114.0</ele><time>2026-05-04T12:43:59Z</time></trkpt><trkpt lat="44.94614433007434" lon="9.720153575846709"><ele>114.0</ele><time>2026-05-04T12:44:00Z</time></trkpt><trkpt lat="44.94616331906854" lon="9.720035521687247"><ele>114.0</ele><time>2026-05-04T12:44:01Z</time></trkpt><trkpt lat="44.94618544931515" lon="9.719917847372056"><ele>114.0</ele><time>2026-05-04T12:44:02Z</time></trkpt><trkpt lat="44.946228597723724" lon="9.719664600796335"><ele>114.0</ele><time>2026-05-04T12:44:04Z</time></trkpt><trkpt lat="44.94624069761558" lon="9.719531182086437"><ele>114.0</ele><time>2026-05-04T12:44:05Z</time></trkpt><trkpt lat="44.9462632774845" lon="9.719397476720466"><ele>114.0</ele><time>2026-05-04T12:44:06Z</time></trkpt><trkpt lat="44.946289210660794" lon="9.719266116087391"><ele>114.0</ele><time>2026-05-04T12:44:07Z</time></trkpt><trkpt lat="44.946312006329684" lon="9.719128957245855"><ele>114.0</ele><time>2026-05-04T12:44:08Z</time></trkpt><trkpt lat="44.94633173408925" lon="9.718978606788182"><ele>114.0</ele><time>2026-05-04T12:44:09Z</time></trkpt><trkpt lat="44.946359086733715" lon="9.718824880700847"><ele>114.0</ele><time>2026-05-04T12:44:10Z</time></trkpt><trkpt lat="44.94638359563175" lon="9.718668076929957"><ele>114.0</ele><time>2026-05-04T12:44:11Z</time></trkpt><trkpt lat="44.94640994182221" lon="9.718511771200136"><ele>114.0</ele><time>2026-05-04T12:44:12Z</time></trkpt><trkpt lat="44.946438983511136" lon="9.71835000918411"><ele>114.0</ele><time>2026-05-04T12:44:13Z</time></trkpt><trkpt lat="44.94646576433177" lon="9.718185391796336"><ele>113.75</ele><time>2026-05-04T12:44:14Z</time></trkpt><trkpt lat="44.946501405581905" lon="9.718026868815718"><ele>113.5</ele><time>2026-05-04T12:44:15Z</time></trkpt><trkpt lat="44.94652870531589" lon="9.717863894283107"><ele>113.25</ele><time>2026-05-04T12:44:16Z</time></trkpt><trkpt lat="44.94655512256464" lon="9.717706188038377"><ele>113.0</ele><time>2026-05-04T12:44:17Z</time></trkpt><trkpt lat="44.94658047044264" lon="9.717554865758645"><ele>113.0</ele><time>2026-05-04T12:44:18Z</time></trkpt><trkpt lat="44.946607455744186" lon="9.717393768341134"><ele>113.0</ele><time>2026-05-04T12:44:19Z</time></trkpt><trkpt lat="44.9466341596947" lon="9.71722996626252"><ele>113.0</ele><time>2026-05-04T12:44:20Z</time></trkpt><trkpt lat="44.946655290120724" lon="9.71705901068431"><ele>113.0</ele><time>2026-05-04T12:44:21Z</time></trkpt><trkpt lat="44.94669190408599" lon="9.716892437063471"><ele>112.75</ele><time>2026-05-04T12:44:22Z</time></trkpt><trkpt lat="44.94671716826105" lon="9.716718127924814"><ele>112.5</ele><time>2026-05-04T12:44:23Z</time></trkpt><trkpt lat="44.94674667551915" lon="9.716550950502564"><ele>112.25</ele><time>2026-05-04T12:44:24Z</time></trkpt><trkpt lat="44.946786356563734" lon="9.716394016526136"><ele>112.0</ele><time>2026-05-04T12:44:25Z</time></trkpt><trkpt lat="44.94681360986351" lon="9.716237024607443"><ele>112.25</ele><time>2026-05-04T12:44:26Z</time></trkpt><trkpt lat="44.946831530162946" lon="9.716068612894967"><ele>112.5</ele><time>2026-05-04T12:44:27Z</time></trkpt><trkpt lat="44.94685431654574" lon="9.715901388977093"><ele>112.75</ele><time>2026-05-04T12:44:28Z</time></trkpt><trkpt lat="44.94688492529926" lon="9.71573163310249"><ele>113.0</ele><time>2026-05-04T12:44:29Z</time></trkpt><trkpt lat="44.946910498217676" lon="9.715562913179916"><ele>113.0</ele><time>2026-05-04T12:44:30Z</time></trkpt><trkpt lat="44.94693784109479" lon="9.715399285363043"><ele>113.0</ele><time>2026-05-04T12:44:31Z</time></trkpt><trkpt lat="44.946973996064635" lon="9.715242127892864"><ele>113.0</ele><time>2026-05-04T12:44:32Z</time></trkpt><trkpt lat="44.94700125172161" lon="9.715093707803032"><ele>113.0</ele><time>2026-05-04T12:44:33Z</time></trkpt><trkpt lat="44.947020375057896" lon="9.7149423026148"><ele>113.25</ele><time>2026-05-04T12:44:34Z</time></trkpt><trkpt lat="44.947041243560506" lon="9.7147886560167"><ele>113.5</ele><time>2026-05-04T12:44:35Z</time></trkpt><trkpt lat="44.94706975645922" lon="9.71463292732777"><ele>113.75</ele><time>2026-05-04T12:44:36Z</time></trkpt><trkpt lat="44.947100433163584" lon="9.714472156131874"><ele>114.0</ele><time>2026-05-04T12:44:37Z</time></trkpt><trkpt lat="44.947129624372266" lon="9.714314836158254"><ele>114.0</ele><time>2026-05-04T12:44:38Z</time></trkpt><trkpt lat="44.94716115710173" lon="9.714155644695328"><ele>114.0</ele><time>2026-05-04T12:44:39Z</time></trkpt><trkpt lat="44.94719177316434" lon="9.713991493919753"><ele>114.0</ele><time>2026-05-04T12:44:40Z</time></trkpt><trkpt lat="44.947211266571706" lon="9.713834839851105"><ele>114.0</ele><time>2026-05-04T12:44:41Z</time></trkpt><trkpt lat="44.947233444647054" lon="9.713701239363257"><ele>114.0</ele><time>2026-05-04T12:44:42Z</time></trkpt><trkpt lat="44.94725044207455" lon="9.713579343434148"><ele>114.0</ele><time>2026-05-04T12:44:43Z</time></trkpt><trkpt lat="44.94726647124002" lon="9.713491825476982"><ele>114.0</ele><time>2026-05-04T12:44:44Z</time></trkpt><trkpt lat="44.94729084006281" lon="9.713347158374292"><ele>114.0</ele><time>2026-05-04T12:44:46Z</time></trkpt><trkpt lat="44.94731904174593" lon="9.713254757829617"><ele>114.0</ele><time>2026-05-04T12:44:48Z</time></trkpt><trkpt lat="44.94720635459055" lon="9.713141448432063"><ele>114.0</ele><time>2026-05-04T12:44:50Z</time></trkpt><trkpt lat="44.94708026940049" lon="9.713084756776436"><ele>114.0</ele><time>2026-05-04T12:44:52Z</time></trkpt><trkpt lat="44.94700266163597" lon="9.71304847401332"><ele>114.0</ele><time>2026-05-04T12:44:53Z</time></trkpt><trkpt lat="44.94691711727937" lon="9.713006343486548"><ele>114.0</ele><time>2026-05-04T12:44:54Z</time></trkpt><trkpt lat="44.94681689686688" lon="9.71298080276765"><ele>114.0</ele><time>2026-05-04T12:44:55Z</time></trkpt><trkpt lat="44.946722741635845" lon="9.71291902087653"><ele>114.0</ele><time>2026-05-04T12:44:56Z</time></trkpt><trkpt lat="44.9466164866581" lon="9.712876888728138"><ele>114.0</ele><time>2026-05-04T12:44:57Z</time></trkpt><trkpt lat="44.9465074824147" lon="9.712830821401278"><ele>114.0</ele><time>2026-05-04T12:44:58Z</time></trkpt><trkpt lat="44.946397848113314" lon="9.712758404288872"><ele>114.0</ele><time>2026-05-04T12:44:59Z</time></trkpt><trkpt lat="44.94628023771646" lon="9.712713594121585"><ele>114.0</ele><time>2026-05-04T12:45:00Z</time></trkpt><trkpt lat="44.94615982593845" lon="9.712659346010529"><ele>114.0</ele><time>2026-05-04T12:45:01Z</time></trkpt><trkpt lat="44.94604127487978" lon="9.712605027164685"><ele>114.0</ele><time>2026-05-04T12:45:02Z</time></trkpt><trkpt lat="44.94592073562201" lon="9.712554746473575"><ele>114.0</ele><time>2026-05-04T12:45:03Z</time></trkpt><trkpt lat="44.9458054032516" lon="9.712507210342674"><ele>114.0</ele><time>2026-05-04T12:45:04Z</time></trkpt><trkpt lat="44.94568370879145" lon="9.712430188251206"><ele>114.5</ele><time>2026-05-04T12:45:05Z</time></trkpt><trkpt lat="44.94555493494461" lon="9.712377439848062"><ele>115.0</ele><time>2026-05-04T12:45:06Z</time></trkpt><trkpt lat="44.94542479271269" lon="9.712325544934167"><ele>115.5</ele><time>2026-05-04T12:45:07Z</time></trkpt><trkpt lat="44.94529896905977" lon="9.712276319061194"><ele>116.0</ele><time>2026-05-04T12:45:08Z</time></trkpt><trkpt lat="44.94517536960247" lon="9.712231378696204"><ele>116.0</ele><time>2026-05-04T12:45:09Z</time></trkpt><trkpt lat="44.9450533995717" lon="9.712162007437604"><ele>116.0</ele><time>2026-05-04T12:45:10Z</time></trkpt><trkpt lat="44.94492887669153" lon="9.712118094889751"><ele>116.0</ele><time>2026-05-04T12:45:11Z</time></trkpt><trkpt lat="44.94480881010481" lon="9.712073784911203"><ele>116.0</ele><time>2026-05-04T12:45:12Z</time></trkpt><trkpt lat="44.94469194294991" lon="9.71202674567203"><ele>115.75</ele><time>2026-05-04T12:45:13Z</time></trkpt><trkpt lat="44.94458054065633" lon="9.711977856596558"><ele>115.5</ele><time>2026-05-04T12:45:14Z</time></trkpt><trkpt lat="44.944468877260846" lon="9.711929790110513"><ele>115.25</ele><time>2026-05-04T12:45:15Z</time></trkpt><trkpt lat="44.94435372420859" lon="9.711887441231385"><ele>115.0</ele><time>2026-05-04T12:45:16Z</time></trkpt><trkpt lat="44.94424867350148" lon="9.71184799441218"><ele>115.0</ele><time>2026-05-04T12:45:17.001Z</time></trkpt><trkpt lat="44.94414802497568" lon="9.71181260503989"><ele>115.0</ele><time>2026-05-04T12:45:18.001Z</time></trkpt><trkpt lat="44.94404145895941" lon="9.711769104809711"><ele>115.0</ele><time>2026-05-04T12:45:19.001Z</time></trkpt><trkpt lat="44.94393887661012" lon="9.711726886181728"><ele>115.0</ele><time>2026-05-04T12:45:20Z</time></trkpt><trkpt lat="44.94384051595567" lon="9.711695193878084"><ele>115.0</ele><time>2026-05-04T12:45:21Z</time></trkpt><trkpt lat="44.94373592242015" lon="9.711687013788143"><ele>115.0</ele><time>2026-05-04T12:45:22Z</time></trkpt><trkpt lat="44.94363399749277" lon="9.711702611754903"><ele>115.0</ele><time>2026-05-04T12:45:23Z</time></trkpt><trkpt lat="44.94352585090393" lon="9.71174078003494"><ele>115.0</ele><time>2026-05-04T12:45:24Z</time></trkpt><trkpt lat="44.943417132249" lon="9.71179283606675"><ele>115.0</ele><time>2026-05-04T12:45:25Z</time></trkpt><trkpt lat="44.94330870899711" lon="9.711856017753878"><ele>115.0</ele><time>2026-05-04T12:45:26Z</time></trkpt><trkpt lat="44.94320897699606" lon="9.711890187963135"><ele>115.16666666666667</ele><time>2026-05-04T12:45:27Z</time></trkpt><trkpt lat="44.94312542918783" lon="9.711946616191058"><ele>115.33333333333334</ele><time>2026-05-04T12:45:28Z</time></trkpt><trkpt lat="44.94305221059981" lon="9.71200487070089"><ele>115.5</ele><time>2026-05-04T12:45:29Z</time></trkpt><trkpt lat="44.94299636013367" lon="9.712082837634652"><ele>115.66666666666666</ele><time>2026-05-04T12:45:30.001Z</time></trkpt><trkpt lat="44.94292389060391" lon="9.712099862766353"><ele>115.83333333333333</ele><time>2026-05-04T12:45:31.001Z</time></trkpt><trkpt lat="44.942850395696034" lon="9.712057747281884"><ele>116.0</ele><time>2026-05-04T12:45:32.001Z</time></trkpt><trkpt lat="44.94275985581103" lon="9.712021570261443"><ele>116.0</ele><time>2026-05-04T12:45:33.001Z</time></trkpt><trkpt lat="44.942654335704766" lon="9.711977985855238"><ele>116.0</ele><time>2026-05-04T12:45:34.001Z</time></trkpt><trkpt lat="44.942517214075174" lon="9.711948489067755"><ele>116.0</ele><time>2026-05-04T12:45:35.001Z</time></trkpt><trkpt lat="44.94238913998524" lon="9.711877800815119"><ele>116.0</ele><time>2026-05-04T12:45:36.001Z</time></trkpt><trkpt lat="44.942252005754" lon="9.711833000822446"><ele>116.25</ele><time>2026-05-04T12:45:37.001Z</time></trkpt><trkpt lat="44.94212210732125" lon="9.71178604392635"><ele>116.5</ele><time>2026-05-04T12:45:38.001Z</time></trkpt><trkpt lat="44.941998609999835" lon="9.71173693935612"><ele>116.75</ele><time>2026-05-04T12:45:39.001Z</time></trkpt><trkpt lat="44.94187515328241" lon="9.711689804090781"><ele>117.0</ele><time>2026-05-04T12:45:40.001Z</time></trkpt><trkpt lat="44.94176140134658" lon="9.711627995912645"><ele>117.0</ele><time>2026-05-04T12:45:41.001Z</time></trkpt><trkpt lat="44.94164226193324" lon="9.711593994789544"><ele>117.0</ele><time>2026-05-04T12:45:42.001Z</time></trkpt><trkpt lat="44.941522168541816" lon="9.711553779277763"><ele>117.0</ele><time>2026-05-04T12:45:43.001Z</time></trkpt><trkpt lat="44.941406022619276" lon="9.711487144314123"><ele>117.0</ele><time>2026-05-04T12:45:44.001Z</time></trkpt><trkpt lat="44.9412862323399" lon="9.711449450704269"><ele>117.0</ele><time>2026-05-04T12:45:45.001Z</time></trkpt><trkpt lat="44.94116777651729" lon="9.71140548152534"><ele>117.0</ele><time>2026-05-04T12:45:46.001Z</time></trkpt><trkpt lat="44.941056060242346" lon="9.711360056982844"><ele>117.0</ele><time>2026-05-04T12:45:47.001Z</time></trkpt><trkpt lat="44.94095034018399" lon="9.711321172495207"><ele>117.0</ele><time>2026-05-04T12:45:48.001Z</time></trkpt><trkpt lat="44.94084406233457" lon="9.711279796326876"><ele>117.25</ele><time>2026-05-04T12:45:49.001Z</time></trkpt><trkpt lat="44.940738258254136" lon="9.711243006487216"><ele>117.5</ele><time>2026-05-04T12:45:50.001Z</time></trkpt><trkpt lat="44.940628036873434" lon="9.711211500351231"><ele>117.75</ele><time>2026-05-04T12:45:51.001Z</time></trkpt><trkpt lat="44.94051266316928" lon="9.711180268552928"><ele>118.0</ele><time>2026-05-04T12:45:52.001Z</time></trkpt><trkpt lat="44.94040149531617" lon="9.711122783335721"><ele>118.0</ele><time>2026-05-04T12:45:53.001Z</time></trkpt><trkpt lat="44.94028826847821" lon="9.711085245468778"><ele>118.0</ele><time>2026-05-04T12:45:54.001Z</time></trkpt><trkpt lat="44.94016968254647" lon="9.711050907601338"><ele>118.0</ele><time>2026-05-04T12:45:55.001Z</time></trkpt><trkpt lat="44.9400504723922" lon="9.711014661778664"><ele>118.0</ele><time>2026-05-04T12:45:56.001Z</time></trkpt><trkpt lat="44.939933442276896" lon="9.710978430751508"><ele>118.25</ele><time>2026-05-04T12:45:57.001Z</time></trkpt><trkpt lat="44.93982135475548" lon="9.710953749897357"><ele>118.5</ele><time>2026-05-04T12:45:58.001Z</time></trkpt><trkpt lat="44.939703868147845" lon="9.710920078593535"><ele>118.75</ele><time>2026-05-04T12:45:59.001Z</time></trkpt><trkpt lat="44.93958810255372" lon="9.710885770877391"><ele>119.0</ele><time>2026-05-04T12:46:00.001Z</time></trkpt><trkpt lat="44.93946742211335" lon="9.710856620177681"><ele>119.0</ele><time>2026-05-04T12:46:01.001Z</time></trkpt><trkpt lat="44.93934370247236" lon="9.710797474535974"><ele>119.0</ele><time>2026-05-04T12:46:02.001Z</time></trkpt><trkpt lat="44.93921643919823" lon="9.71075780693127"><ele>119.0</ele><time>2026-05-04T12:46:03.001Z</time></trkpt><trkpt lat="44.93909122252339" lon="9.710717810807123"><ele>119.0</ele><time>2026-05-04T12:46:04.001Z</time></trkpt><trkpt lat="44.938964122982114" lon="9.710679340422235"><ele>119.25</ele><time>2026-05-04T12:46:05.001Z</time></trkpt><trkpt lat="44.93883569106442" lon="9.710638525295291"><ele>119.5</ele><time>2026-05-04T12:46:06.001Z</time></trkpt><trkpt lat="44.938708052454956" lon="9.71059072411571"><ele>119.75</ele><time>2026-05-04T12:46:07.001Z</time></trkpt><trkpt lat="44.93858520057398" lon="9.710543318431508"><ele>120.0</ele><time>2026-05-04T12:46:08.001Z</time></trkpt><trkpt lat="44.93845997300119" lon="9.710495486383609"><ele>120.0</ele><time>2026-05-04T12:46:09.001Z</time></trkpt><trkpt lat="44.93833545192232" lon="9.71044638211644"><ele>120.0</ele><time>2026-05-04T12:46:10.001Z</time></trkpt><trkpt lat="44.93820992518265" lon="9.71039390746463"><ele>120.0</ele><time>2026-05-04T12:46:11.001Z</time></trkpt><trkpt lat="44.93808586994962" lon="9.710345825095224"><ele>120.0</ele><time>2026-05-04T12:46:12.001Z</time></trkpt><trkpt lat="44.93796156641417" lon="9.71029575701235"><ele>120.0</ele><time>2026-05-04T12:46:13.001Z</time></trkpt><trkpt lat="44.937845763785454" lon="9.710242216216923"><ele>120.0</ele><time>2026-05-04T12:46:14.001Z</time></trkpt><trkpt lat="44.93773072238287" lon="9.710199605405634"><ele>120.0</ele><time>2026-05-04T12:46:15.001Z</time></trkpt><trkpt lat="44.93761391906804" lon="9.710159608463814"><ele>120.0</ele><time>2026-05-04T12:46:16.001Z</time></trkpt><trkpt lat="44.93750369547049" lon="9.710117509297211"><ele>120.16666666666667</ele><time>2026-05-04T12:46:17.001Z</time></trkpt><trkpt lat="44.93740000080178" lon="9.710082114702418"><ele>120.33333333333334</ele><time>2026-05-04T12:46:18.001Z</time></trkpt><trkpt lat="44.937309102286264" lon="9.710048671071322"><ele>120.5</ele><time>2026-05-04T12:46:19.001Z</time></trkpt><trkpt lat="44.937219493154004" lon="9.710033105019646"><ele>120.66666666666667</ele><time>2026-05-04T12:46:20.001Z</time></trkpt><trkpt lat="44.93713915811695" lon="9.710026755860875"><ele>120.83333333333334</ele><time>2026-05-04T12:46:21.001Z</time></trkpt><trkpt lat="44.93707364334915" lon="9.71003618644169"><ele>121.0</ele><time>2026-05-04T12:46:22.001Z</time></trkpt><trkpt lat="44.93700484855919" lon="9.710058968526338"><ele>121.0</ele><time>2026-05-04T12:46:23.001Z</time></trkpt><trkpt lat="44.93693728995924" lon="9.710107855681143"><ele>121.0</ele><time>2026-05-04T12:46:24.001Z</time></trkpt><trkpt lat="44.936880954386055" lon="9.710200895499007"><ele>121.0</ele><time>2026-05-04T12:46:25.001Z</time></trkpt><trkpt lat="44.936833296646576" lon="9.710322417716819"><ele>121.0</ele><time>2026-05-04T12:46:26.001Z</time></trkpt><trkpt lat="44.936802314938035" lon="9.71046950813168"><ele>121.0</ele><time>2026-05-04T12:46:27.001Z</time></trkpt><trkpt lat="44.93677886919309" lon="9.710607404572281"><ele>121.0</ele><time>2026-05-04T12:46:28.001Z</time></trkpt><trkpt lat="44.936760492536656" lon="9.71071141331376"><ele>121.0</ele><time>2026-05-04T12:46:29.001Z</time></trkpt><trkpt lat="44.93673273768651" lon="9.710792044373193"><ele>121.0</ele><time>2026-05-04T12:46:30.001Z</time></trkpt><trkpt lat="44.93664692873804" lon="9.71088192619942"><ele>121.0</ele><time>2026-05-04T12:46:32.001Z</time></trkpt><trkpt lat="44.936505960626036" lon="9.710817183027148"><ele>121.0</ele><time>2026-05-04T12:46:34.001Z</time></trkpt><trkpt lat="44.936409695772475" lon="9.710791695411784"><ele>121.19999999999999</ele><time>2026-05-04T12:46:35.001Z</time></trkpt><trkpt lat="44.93630859168473" lon="9.710741853100975"><ele>121.39999999999999</ele><time>2026-05-04T12:46:36.001Z</time></trkpt><trkpt lat="44.93620393773188" lon="9.710706764328432"><ele>121.6</ele><time>2026-05-04T12:46:37.001Z</time></trkpt><trkpt lat="44.93610830612354" lon="9.71068524400979"><ele>121.8</ele><time>2026-05-04T12:46:38.001Z</time></trkpt><trkpt lat="44.93603545837316" lon="9.710660315489385"><ele>122.0</ele><time>2026-05-04T12:46:39.001Z</time></trkpt><trkpt lat="44.935972626849306" lon="9.7106347660408"><ele>121.99999999999999</ele><time>2026-05-04T12:46:40.001Z</time></trkpt><trkpt lat="44.93591034995424" lon="9.710611699710027"><ele>122.0</ele><time>2026-05-04T12:46:41.001Z</time></trkpt><trkpt lat="44.93580299299531" lon="9.71054182327776"><ele>122.0</ele><time>2026-05-04T12:46:43Z</time></trkpt><trkpt lat="44.935731379090626" lon="9.71050728801602"><ele>122.0</ele><time>2026-05-04T12:46:45Z</time></trkpt><trkpt lat="44.93566794335345" lon="9.710490135585287"><ele>121.99999999999999</ele><time>2026-05-04T12:47:06Z</time></trkpt><trkpt lat="44.93558878254133" lon="9.710607479745038"><ele>122.0</ele><time>2026-05-04T12:47:09Z</time></trkpt><trkpt lat="44.93556155564929" lon="9.71069113040486"><ele>121.83333333333333</ele><time>2026-05-04T12:47:10Z</time></trkpt><trkpt lat="44.935535465106675" lon="9.710793786881801"><ele>121.66666666666666</ele><time>2026-05-04T12:47:11Z</time></trkpt><trkpt lat="44.9355079944713" lon="9.710908921348867"><ele>121.5</ele><time>2026-05-04T12:47:12Z</time></trkpt><trkpt lat="44.935479180764375" lon="9.71104249811991"><ele>121.33333333333334</ele><time>2026-05-04T12:47:13Z</time></trkpt><trkpt lat="44.935455275086554" lon="9.711147414794686"><ele>121.16666666666667</ele><time>2026-05-04T12:47:14Z</time></trkpt><trkpt lat="44.93542792607616" lon="9.711243542930466"><ele>121.0</ele><time>2026-05-04T12:47:15Z</time></trkpt><trkpt lat="44.93540065289802" lon="9.71133128003147"><ele>121.00000000000001</ele><time>2026-05-04T12:47:16Z</time></trkpt><trkpt lat="44.93536975634844" lon="9.711410617305322"><ele>121.0</ele><time>2026-05-04T12:47:17Z</time></trkpt><trkpt lat="44.93532033724487" lon="9.711487969286338"><ele>121.0</ele><time>2026-05-04T12:47:18Z</time></trkpt><trkpt lat="44.9352620543842" lon="9.711539989566894"><ele>121.0</ele><time>2026-05-04T12:47:19Z</time></trkpt><trkpt lat="44.93518630227308" lon="9.711575252684588"><ele>121.00000000000001</ele><time>2026-05-04T12:47:20Z</time></trkpt><trkpt lat="44.9350996985415" lon="9.71155457313675"><ele>121.0</ele><time>2026-05-04T12:47:21Z</time></trkpt><trkpt lat="44.934993203103524" lon="9.711588284639152"><ele>121.16666666666667</ele><time>2026-05-04T12:47:22Z</time></trkpt><trkpt lat="44.9348925776974" lon="9.711609997419826"><ele>121.33333333333334</ele><time>2026-05-04T12:47:23Z</time></trkpt><trkpt lat="44.93480893350269" lon="9.711640530889325"><ele>121.5</ele><time>2026-05-04T12:47:24Z</time></trkpt><trkpt lat="44.934740004618114" lon="9.711674407921002"><ele>121.66666666666666</ele><time>2026-05-04T12:47:25Z</time></trkpt><trkpt lat="44.93467422057717" lon="9.711715966944208"><ele>121.83333333333333</ele><time>2026-05-04T12:47:26Z</time></trkpt><trkpt lat="44.93460358161111" lon="9.711745000352636"><ele>122.0</ele><time>2026-05-04T12:47:27Z</time></trkpt><trkpt lat="44.93454967001634" lon="9.71179703913894"><ele>122.0</ele><time>2026-05-04T12:47:28Z</time></trkpt><trkpt lat="44.93449612670212" lon="9.711906857659873"><ele>121.99999999999999</ele><time>2026-05-04T12:47:30Z</time></trkpt><trkpt lat="44.934422222602976" lon="9.711938569687048"><ele>121.99999999999999</ele><time>2026-05-04T12:47:32Z</time></trkpt><trkpt lat="44.93434173556222" lon="9.711801051317778"><ele>122.0</ele><time>2026-05-04T12:47:34Z</time></trkpt><trkpt lat="44.93425942946524" lon="9.71167031632589"><ele>122.0</ele><time>2026-05-04T12:47:36Z</time></trkpt><trkpt lat="44.93420686493406" lon="9.711599018420657"><ele>121.99999999999999</ele><time>2026-05-04T12:47:37Z</time></trkpt><trkpt lat="44.934103462876784" lon="9.71146456452571"><ele>122.0</ele><time>2026-05-04T12:47:39Z</time></trkpt><trkpt lat="44.93404170145753" lon="9.711399114008351"><ele>122.0</ele><time>2026-05-04T12:47:40Z</time></trkpt><trkpt lat="44.9339852238745" lon="9.71134374214372"><ele>122.0</ele><time>2026-05-04T12:47:41Z</time></trkpt><trkpt lat="44.933927102885285" lon="9.7113039443837"><ele>121.99999999999999</ele><time>2026-05-04T12:47:42Z</time></trkpt><trkpt lat="44.933884800531544" lon="9.71123479295618"><ele>122.0</ele><time>2026-05-04T12:47:43Z</time></trkpt><trkpt lat="44.933815566962856" lon="9.71121825954261"><ele>122.0</ele><time>2026-05-04T12:47:44Z</time></trkpt><trkpt lat="44.933743752137694" lon="9.711166632292162"><ele>121.99999999999999</ele><time>2026-05-04T12:47:45Z</time></trkpt><trkpt lat="44.933669899772845" lon="9.711105367957066"><ele>121.99999999999999</ele><time>2026-05-04T12:47:46Z</time></trkpt><trkpt lat="44.93359249030265" lon="9.711014693019829"><ele>122.0</ele><time>2026-05-04T12:47:47Z</time></trkpt><trkpt lat="44.93353276243903" lon="9.710914006394793"><ele>122.0</ele><time>2026-05-04T12:47:48Z</time></trkpt><trkpt lat="44.93348290802533" lon="9.710801564306628"><ele>122.19999999999999</ele><time>2026-05-04T12:47:49Z</time></trkpt><trkpt lat="44.93343503192829" lon="9.710684784826636"><ele>122.39999999999999</ele><time>2026-05-04T12:47:50Z</time></trkpt><trkpt lat="44.933384281079874" lon="9.710578415496693"><ele>122.60000000000001</ele><time>2026-05-04T12:47:51Z</time></trkpt><trkpt lat="44.93332948131261" lon="9.710470936116678"><ele>122.80000000000001</ele><time>2026-05-04T12:47:52Z</time></trkpt><trkpt lat="44.933268783792045" lon="9.71036276650522"><ele>123.0</ele><time>2026-05-04T12:47:53Z</time></trkpt><trkpt lat="44.933234386207005" lon="9.710230193852105"><ele>123.2</ele><time>2026-05-04T12:47:54Z</time></trkpt><trkpt lat="44.93318419649915" lon="9.7101164690154"><ele>123.4</ele><time>2026-05-04T12:47:55Z</time></trkpt><trkpt lat="44.93313807739841" lon="9.71001276319428"><ele>123.60000000000001</ele><time>2026-05-04T12:47:56Z</time></trkpt><trkpt lat="44.93308505590715" lon="9.709903829785743"><ele>123.80000000000001</ele><time>2026-05-04T12:47:57Z</time></trkpt><trkpt lat="44.9330318112804" lon="9.709807104011626"><ele>124.0</ele><time>2026-05-04T12:47:58Z</time></trkpt><trkpt lat="44.93296311063193" lon="9.709706140086343"><ele>124.0</ele><time>2026-05-04T12:47:59Z</time></trkpt><trkpt lat="44.93288548575198" lon="9.709618309109972"><ele>124.0</ele><time>2026-05-04T12:48:00Z</time></trkpt><trkpt lat="44.93279898011569" lon="9.709547841289684"><ele>124.0</ele><time>2026-05-04T12:48:01Z</time></trkpt><trkpt lat="44.93271957001454" lon="9.709466004685174"><ele>124.0</ele><time>2026-05-04T12:48:02Z</time></trkpt><trkpt lat="44.932639642224395" lon="9.709388424437371"><ele>124.0</ele><time>2026-05-04T12:48:03Z</time></trkpt><trkpt lat="44.9325607272966" lon="9.70931978241941"><ele>124.0</ele><time>2026-05-04T12:48:04Z</time></trkpt><trkpt lat="44.93248053107547" lon="9.709251276589677"><ele>124.0</ele><time>2026-05-04T12:48:05Z</time></trkpt><trkpt lat="44.93239907959374" lon="9.7091818458616"><ele>124.0</ele><time>2026-05-04T12:48:06Z</time></trkpt><trkpt lat="44.93232322976644" lon="9.709104825570309"><ele>124.0</ele><time>2026-05-04T12:48:07Z</time></trkpt><trkpt lat="44.932245892205785" lon="9.70902003420541"><ele>124.0</ele><time>2026-05-04T12:48:08Z</time></trkpt><trkpt lat="44.93216553053232" lon="9.708927822307018"><ele>124.0</ele><time>2026-05-04T12:48:09Z</time></trkpt><trkpt lat="44.932084892983355" lon="9.708836011938109"><ele>124.0</ele><time>2026-05-04T12:48:10Z</time></trkpt><trkpt lat="44.9320020303377" lon="9.708740666843367"><ele>124.0</ele><time>2026-05-04T12:48:11Z</time></trkpt><trkpt lat="44.93192036878575" lon="9.708653950646113"><ele>124.0</ele><time>2026-05-04T12:48:12Z</time></trkpt><trkpt lat="44.931837843221636" lon="9.708582608834872"><ele>124.0</ele><time>2026-05-04T12:48:13Z</time></trkpt><trkpt lat="44.931745135394685" lon="9.708513153763016"><ele>124.2</ele><time>2026-05-04T12:48:14Z</time></trkpt><trkpt lat="44.931650708589956" lon="9.708444365194199"><ele>124.4</ele><time>2026-05-04T12:48:15Z</time></trkpt><trkpt lat="44.931561351704445" lon="9.708374619269417"><ele>124.6</ele><time>2026-05-04T12:48:16Z</time></trkpt><trkpt lat="44.93147680527236" lon="9.708316902903336"><ele>124.8</ele><time>2026-05-04T12:48:17Z</time></trkpt><trkpt lat="44.93140460139235" lon="9.708250207686442"><ele>125.0</ele><time>2026-05-04T12:48:18Z</time></trkpt><trkpt lat="44.93134604582848" lon="9.708178279756618"><ele>125.0</ele><time>2026-05-04T12:48:19Z</time></trkpt><trkpt lat="44.931296157550555" lon="9.70808447964442"><ele>125.0</ele><time>2026-05-04T12:48:20Z</time></trkpt><trkpt lat="44.9312398576476" lon="9.707970107593628"><ele>125.0</ele><time>2026-05-04T12:48:21Z</time></trkpt><trkpt lat="44.931192603845076" lon="9.707829530893049"><ele>125.0</ele><time>2026-05-04T12:48:22Z</time></trkpt><trkpt lat="44.93114672152183" lon="9.707679068430739"><ele>125.0</ele><time>2026-05-04T12:48:23Z</time></trkpt><trkpt lat="44.93109457624378" lon="9.707520092134214"><ele>125.75</ele><time>2026-05-04T12:48:24Z</time></trkpt><trkpt lat="44.93103146005761" lon="9.707352529411652"><ele>126.5</ele><time>2026-05-04T12:48:25Z</time></trkpt><trkpt lat="44.93097231543935" lon="9.707186898234827"><ele>127.25</ele><time>2026-05-04T12:48:26Z</time></trkpt><trkpt lat="44.93092621323807" lon="9.707031141736199"><ele>128.0</ele><time>2026-05-04T12:48:27Z</time></trkpt><trkpt lat="44.93088459498553" lon="9.706890503752003"><ele>128.20000000000002</ele><time>2026-05-04T12:48:28Z</time></trkpt><trkpt lat="44.930845128647185" lon="9.70676297089723"><ele>128.4</ele><time>2026-05-04T12:48:29Z</time></trkpt><trkpt lat="44.93078643827344" lon="9.706653254748327"><ele>128.60000000000002</ele><time>2026-05-04T12:48:30Z</time></trkpt><trkpt lat="44.93071366772881" lon="9.7065491961285"><ele>128.8</ele><time>2026-05-04T12:48:31Z</time></trkpt><trkpt lat="44.93061516168978" lon="9.706446821287624"><ele>129.0</ele><time>2026-05-04T12:48:32Z</time></trkpt><trkpt lat="44.93048535824013" lon="9.706331759920594"><ele>129.0</ele><time>2026-05-04T12:48:33Z</time></trkpt><trkpt lat="44.93035250741991" lon="9.706217512429436"><ele>129.0</ele><time>2026-05-04T12:48:34Z</time></trkpt><trkpt lat="44.930237708257316" lon="9.706098057791463"><ele>129.0</ele><time>2026-05-04T12:48:35Z</time></trkpt><trkpt lat="44.93013055443593" lon="9.705957723508755"><ele>129.0</ele><time>2026-05-04T12:48:36Z</time></trkpt><trkpt lat="44.93001589612073" lon="9.705848335789037"><ele>128.5</ele><time>2026-05-04T12:48:37Z</time></trkpt><trkpt lat="44.9298985882376" lon="9.705752278036412"><ele>128.0</ele><time>2026-05-04T12:48:38Z</time></trkpt><trkpt lat="44.92978903876699" lon="9.705660882046809"><ele>127.5</ele><time>2026-05-04T12:48:39Z</time></trkpt><trkpt lat="44.92968492283719" lon="9.70558346555437"><ele>127.0</ele><time>2026-05-04T12:48:40Z</time></trkpt><trkpt lat="44.929571376746" lon="9.705517161147826"><ele>127.0</ele><time>2026-05-04T12:48:41Z</time></trkpt><trkpt lat="44.92945565448161" lon="9.705464857039747"><ele>127.0</ele><time>2026-05-04T12:48:42Z</time></trkpt><trkpt lat="44.929342075615054" lon="9.705423758834087"><ele>127.0</ele><time>2026-05-04T12:48:43Z</time></trkpt><trkpt lat="44.92923434594864" lon="9.705376593316142"><ele>127.0</ele><time>2026-05-04T12:48:44Z</time></trkpt><trkpt lat="44.929142143234436" lon="9.705316390019542"><ele>127.0</ele><time>2026-05-04T12:48:45Z</time></trkpt><trkpt lat="44.92906782105681" lon="9.70525199070236"><ele>126.99999999999999</ele><time>2026-05-04T12:48:46Z</time></trkpt><trkpt lat="44.92900333948747" lon="9.70517522092049"><ele>126.99999999999999</ele><time>2026-05-04T12:48:47Z</time></trkpt><trkpt lat="44.928945586167686" lon="9.705081702787831"><ele>127.0</ele><time>2026-05-04T12:48:48Z</time></trkpt><trkpt lat="44.92889818569503" lon="9.704957790046953"><ele>127.0</ele><time>2026-05-04T12:48:49Z</time></trkpt><trkpt lat="44.928857363419986" lon="9.704826765236085"><ele>127.6</ele><time>2026-05-04T12:48:50Z</time></trkpt><trkpt lat="44.92880950037353" lon="9.704697130259584"><ele>128.2</ele><time>2026-05-04T12:48:51Z</time></trkpt><trkpt lat="44.92875139919931" lon="9.704578356655539"><ele>128.8</ele><time>2026-05-04T12:48:52Z</time></trkpt><trkpt lat="44.928706461443994" lon="9.704455500135904"><ele>129.4</ele><time>2026-05-04T12:48:53Z</time></trkpt><trkpt lat="44.92865222136719" lon="9.7043263849962"><ele>130.0</ele><time>2026-05-04T12:48:54Z</time></trkpt><trkpt lat="44.92859379473666" lon="9.70419877657672"><ele>129.75</ele><time>2026-05-04T12:48:55Z</time></trkpt><trkpt lat="44.92853517835802" lon="9.704063530874357"><ele>129.5</ele><time>2026-05-04T12:48:56Z</time></trkpt><trkpt lat="44.92847794839937" lon="9.703920981757452"><ele>129.25</ele><time>2026-05-04T12:48:57Z</time></trkpt><trkpt lat="44.928424919586114" lon="9.703771519548111"><ele>129.0</ele><time>2026-05-04T12:48:58Z</time></trkpt><trkpt lat="44.92837441912431" lon="9.703624720005234"><ele>129.4</ele><time>2026-05-04T12:48:59Z</time></trkpt><trkpt lat="44.928321589166046" lon="9.703476396955445"><ele>129.8</ele><time>2026-05-04T12:49:00Z</time></trkpt><trkpt lat="44.92826349002992" lon="9.70333946513907"><ele>130.2</ele><time>2026-05-04T12:49:01Z</time></trkpt><trkpt lat="44.928209396453695" lon="9.703213619931102"><ele>130.6</ele><time>2026-05-04T12:49:02Z</time></trkpt><trkpt lat="44.92815370459268" lon="9.703082788983554"><ele>131.0</ele><time>2026-05-04T12:49:03Z</time></trkpt><trkpt lat="44.928086730472664" lon="9.702963212421702"><ele>131.0</ele><time>2026-05-04T12:49:04Z</time></trkpt><trkpt lat="44.928013315015505" lon="9.702854185336895"><ele>131.0</ele><time>2026-05-04T12:49:05Z</time></trkpt><trkpt lat="44.927940831823854" lon="9.702736434646207"><ele>131.0</ele><time>2026-05-04T12:49:06Z</time></trkpt><trkpt lat="44.92787731090114" lon="9.702609152005707"><ele>131.0</ele><time>2026-05-04T12:49:07Z</time></trkpt><trkpt lat="44.92782622658096" lon="9.70248155428593"><ele>131.0</ele><time>2026-05-04T12:49:08Z</time></trkpt><trkpt lat="44.92777594652712" lon="9.702350246568036"><ele>131.2</ele><time>2026-05-04T12:49:09Z</time></trkpt><trkpt lat="44.927725729416835" lon="9.702232012290636"><ele>131.39999999999998</ele><time>2026-05-04T12:49:10Z</time></trkpt><trkpt lat="44.92766098950146" lon="9.702123716356976"><ele>131.6</ele><time>2026-05-04T12:49:11Z</time></trkpt><trkpt lat="44.92759228524402" lon="9.702003524114964"><ele>131.79999999999998</ele><time>2026-05-04T12:49:12Z</time></trkpt><trkpt lat="44.92753065984146" lon="9.701897474970547"><ele>132.0</ele><time>2026-05-04T12:49:13Z</time></trkpt><trkpt lat="44.92745345906846" lon="9.701801219800636"><ele>131.6</ele><time>2026-05-04T12:49:14Z</time></trkpt><trkpt lat="44.927377798147425" lon="9.701698251360886"><ele>131.2</ele><time>2026-05-04T12:49:15Z</time></trkpt><trkpt lat="44.927308310351044" lon="9.701603749980288"><ele>130.8</ele><time>2026-05-04T12:49:16Z</time></trkpt><trkpt lat="44.92724549873883" lon="9.701507301161302"><ele>130.4</ele><time>2026-05-04T12:49:17Z</time></trkpt><trkpt lat="44.92719076962044" lon="9.701403765878645"><ele>130.0</ele><time>2026-05-04T12:49:18Z</time></trkpt><trkpt lat="44.92714634391389" lon="9.701309740885621"><ele>130.00000000000003</ele><time>2026-05-04T12:49:19Z</time></trkpt><trkpt lat="44.927103222728164" lon="9.701230263419768"><ele>130.0</ele><time>2026-05-04T12:49:20Z</time></trkpt><trkpt lat="44.92706050815793" lon="9.70114834997256"><ele>130.0</ele><time>2026-05-04T12:49:21Z</time></trkpt><trkpt lat="44.927023673010375" lon="9.701067380628402"><ele>130.0</ele><time>2026-05-04T12:49:22Z</time></trkpt><trkpt lat="44.92698937887698" lon="9.700970151455431"><ele>130.0</ele><time>2026-05-04T12:49:23Z</time></trkpt><trkpt lat="44.92695943069726" lon="9.700869067693944"><ele>130.00000000000003</ele><time>2026-05-04T12:49:24Z</time></trkpt><trkpt lat="44.92694192785629" lon="9.700776124355322"><ele>130.0</ele><time>2026-05-04T12:49:25Z</time></trkpt><trkpt lat="44.92692094071027" lon="9.700672945856336"><ele>130.0</ele><time>2026-05-04T12:49:26Z</time></trkpt><trkpt lat="44.926888515189304" lon="9.700567775630422"><ele>130.0</ele><time>2026-05-04T12:49:27Z</time></trkpt><trkpt lat="44.92685300431013" lon="9.700469104461584"><ele>130.0</ele><time>2026-05-04T12:49:28Z</time></trkpt><trkpt lat="44.926820539002755" lon="9.700378706667946"><ele>130.0</ele><time>2026-05-04T12:49:29Z</time></trkpt><trkpt lat="44.92677791291743" lon="9.700306372251074"><ele>130.0</ele><time>2026-05-04T12:49:30Z</time></trkpt><trkpt lat="44.92673185464027" lon="9.700241258326884"><ele>130.0</ele><time>2026-05-04T12:49:31Z</time></trkpt><trkpt lat="44.926642505752945" lon="9.70012620085406"><ele>130.4</ele><time>2026-05-04T12:49:33Z</time></trkpt><trkpt lat="44.926547042010675" lon="9.70002703736913"><ele>130.8</ele><time>2026-05-04T12:49:35Z</time></trkpt><trkpt lat="44.92646026594336" lon="9.699949432415398"><ele>131.2</ele><time>2026-05-04T12:49:37Z</time></trkpt><trkpt lat="44.92639198834249" lon="9.699877495747025"><ele>131.6</ele><time>2026-05-04T12:49:39Z</time></trkpt><trkpt lat="44.9263337526453" lon="9.699813759847729"><ele>132.0</ele><time>2026-05-04T12:49:41Z</time></trkpt><trkpt lat="44.92625789923434" lon="9.699734618811593"><ele>132.0</ele><time>2026-05-04T12:49:43Z</time></trkpt><trkpt lat="44.92619316954747" lon="9.699665121791769"><ele>132.0</ele><time>2026-05-04T12:49:44Z</time></trkpt><trkpt lat="44.92613440883087" lon="9.699599453787009"><ele>132.0</ele><time>2026-05-04T12:49:45Z</time></trkpt><trkpt lat="44.926079743871085" lon="9.699526797162992"><ele>132.0</ele><time>2026-05-04T12:49:46Z</time></trkpt><trkpt lat="44.92602793325852" lon="9.699436456104392"><ele>132.0</ele><time>2026-05-04T12:49:47Z</time></trkpt><trkpt lat="44.92596728918523" lon="9.699324820073477"><ele>132.0</ele><time>2026-05-04T12:49:48Z</time></trkpt><trkpt lat="44.92591241220333" lon="9.699190552792135"><ele>132.25</ele><time>2026-05-04T12:49:49Z</time></trkpt><trkpt lat="44.92585257507749" lon="9.699034110338207"><ele>132.5</ele><time>2026-05-04T12:49:50Z</time></trkpt><trkpt lat="44.92578159531162" lon="9.698882297288248"><ele>132.75</ele><time>2026-05-04T12:49:51Z</time></trkpt><trkpt lat="44.925708267829535" lon="9.698727116193444"><ele>133.0</ele><time>2026-05-04T12:49:52Z</time></trkpt><trkpt lat="44.92563282369394" lon="9.698569760240662"><ele>133.16666666666669</ele><time>2026-05-04T12:49:53Z</time></trkpt><trkpt lat="44.92556689479566" lon="9.698437681412937"><ele>133.33333333333334</ele><time>2026-05-04T12:49:54Z</time></trkpt><trkpt lat="44.925529138704455" lon="9.698333580042704"><ele>133.5</ele><time>2026-05-04T12:49:55Z</time></trkpt><trkpt lat="44.92548818905866" lon="9.698256155814006"><ele>133.66666666666666</ele><time>2026-05-04T12:49:56Z</time></trkpt><trkpt lat="44.92544003269238" lon="9.698169492284263"><ele>133.83333333333331</ele><time>2026-05-04T12:49:57Z</time></trkpt><trkpt lat="44.92537491582919" lon="9.698089528188811"><ele>134.0</ele><time>2026-05-04T12:49:58Z</time></trkpt><trkpt lat="44.925268935417776" lon="9.69799747135891"><ele>134.0</ele><time>2026-05-04T12:49:59Z</time></trkpt><trkpt lat="44.92514470307553" lon="9.697899570077823"><ele>134.0</ele><time>2026-05-04T12:50:00Z</time></trkpt><trkpt lat="44.92501576291163" lon="9.697803771669921"><ele>134.0</ele><time>2026-05-04T12:50:01Z</time></trkpt><trkpt lat="44.924897494175184" lon="9.697692479491968"><ele>134.0</ele><time>2026-05-04T12:50:02Z</time></trkpt><trkpt lat="44.924801816350836" lon="9.697569199557824"><ele>134.66666666666666</ele><time>2026-05-04T12:50:03Z</time></trkpt><trkpt lat="44.92469752926838" lon="9.697445902498753"><ele>135.33333333333334</ele><time>2026-05-04T12:50:04Z</time></trkpt><trkpt lat="44.92456253999526" lon="9.697350182269558"><ele>136.0</ele><time>2026-05-04T12:50:05Z</time></trkpt><trkpt lat="44.9244014439502" lon="9.6972858773407"><ele>136.0</ele><time>2026-05-04T12:50:06Z</time></trkpt><trkpt lat="44.924260036973536" lon="9.697223363813302"><ele>136.0</ele><time>2026-05-04T12:50:07Z</time></trkpt><trkpt lat="44.924137642217765" lon="9.697162767305137"><ele>136.0</ele><time>2026-05-04T12:50:08Z</time></trkpt><trkpt lat="44.924024778623945" lon="9.697100065668927"><ele>136.0</ele><time>2026-05-04T12:50:09Z</time></trkpt><trkpt lat="44.92393125437703" lon="9.6970225999581"><ele>135.75</ele><time>2026-05-04T12:50:10Z</time></trkpt><trkpt lat="44.92384396708791" lon="9.696918810421051"><ele>135.5</ele><time>2026-05-04T12:50:11Z</time></trkpt><trkpt lat="44.923757097928984" lon="9.69681700005885"><ele>135.25</ele><time>2026-05-04T12:50:12Z</time></trkpt><trkpt lat="44.92368053705493" lon="9.696707303677593"><ele>135.0</ele><time>2026-05-04T12:50:13Z</time></trkpt><trkpt lat="44.92360527373438" lon="9.696582048131878"><ele>135.0</ele><time>2026-05-04T12:50:14Z</time></trkpt><trkpt lat="44.923520975931055" lon="9.69642662342026"><ele>135.0</ele><time>2026-05-04T12:50:15Z</time></trkpt><trkpt lat="44.9234197277503" lon="9.69623382693484"><ele>135.0</ele><time>2026-05-04T12:50:16Z</time></trkpt><trkpt lat="44.92332059767138" lon="9.696034019706671"><ele>135.5</ele><time>2026-05-04T12:50:17Z</time></trkpt><trkpt lat="44.923222810525495" lon="9.69586713492155"><ele>136.0</ele><time>2026-05-04T12:50:18Z</time></trkpt><trkpt lat="44.92312808263762" lon="9.695721997117206"><ele>136.5</ele><time>2026-05-04T12:50:19Z</time></trkpt><trkpt lat="44.92304050837622" lon="9.695584337135912"><ele>137.0</ele><time>2026-05-04T12:50:20Z</time></trkpt><trkpt lat="44.92295476931179" lon="9.695454798774119"><ele>137.0</ele><time>2026-05-04T12:50:21Z</time></trkpt><trkpt lat="44.92286806892015" lon="9.6953213199753"><ele>137.0</ele><time>2026-05-04T12:50:22Z</time></trkpt><trkpt lat="44.92279377793861" lon="9.69518473260643"><ele>137.0</ele><time>2026-05-04T12:50:23Z</time></trkpt><trkpt lat="44.92272299636935" lon="9.695054903967092"><ele>137.0</ele><time>2026-05-04T12:50:24Z</time></trkpt><trkpt lat="44.922646861274366" lon="9.694923761335758"><ele>137.0</ele><time>2026-05-04T12:50:25Z</time></trkpt><trkpt lat="44.92256837655441" lon="9.69481405429688"><ele>137.0</ele><time>2026-05-04T12:50:26Z</time></trkpt><trkpt lat="44.92249458028301" lon="9.694702168185541"><ele>137.0</ele><time>2026-05-04T12:50:27Z</time></trkpt><trkpt lat="44.922421880317366" lon="9.69459284604754"><ele>137.0</ele><time>2026-05-04T12:50:28Z</time></trkpt><trkpt lat="44.922351910462424" lon="9.694490882535177"><ele>137.0</ele><time>2026-05-04T12:50:29Z</time></trkpt><trkpt lat="44.92226483327137" lon="9.694393282524345"><ele>137.0</ele><time>2026-05-04T12:50:30Z</time></trkpt><trkpt lat="44.9221754750256" lon="9.694309913373992"><ele>137.0</ele><time>2026-05-04T12:50:31Z</time></trkpt><trkpt lat="44.92207375580044" lon="9.694243140842008"><ele>137.0</ele><time>2026-05-04T12:50:32Z</time></trkpt><trkpt lat="44.921973323765535" lon="9.694180199324867"><ele>137.0</ele><time>2026-05-04T12:50:33Z</time></trkpt><trkpt lat="44.92186227504103" lon="9.694119052225261"><ele>137.0</ele><time>2026-05-04T12:50:34Z</time></trkpt><trkpt lat="44.921743979891765" lon="9.694068724930732"><ele>137.25</ele><time>2026-05-04T12:50:35Z</time></trkpt><trkpt lat="44.92162701278682" lon="9.694028088209548"><ele>137.5</ele><time>2026-05-04T12:50:36Z</time></trkpt><trkpt lat="44.921511162022874" lon="9.693999661646869"><ele>137.75</ele><time>2026-05-04T12:50:37Z</time></trkpt><trkpt lat="44.921393214157355" lon="9.693978407470427"><ele>138.0</ele><time>2026-05-04T12:50:38Z</time></trkpt><trkpt lat="44.92128492840348" lon="9.693949570475525"><ele>138.0</ele><time>2026-05-04T12:50:39Z</time></trkpt><trkpt lat="44.921183151520545" lon="9.693914118454684"><ele>138.0</ele><time>2026-05-04T12:50:40Z</time></trkpt><trkpt lat="44.92109370927421" lon="9.693859330825857"><ele>138.0</ele><time>2026-05-04T12:50:41Z</time></trkpt><trkpt lat="44.92100197503163" lon="9.693781777801929"><ele>138.0</ele><time>2026-05-04T12:50:42Z</time></trkpt><trkpt lat="44.92091199325743" lon="9.693695181180336"><ele>138.0</ele><time>2026-05-04T12:50:43Z</time></trkpt><trkpt lat="44.920820282051025" lon="9.693606367755843"><ele>138.75</ele><time>2026-05-04T12:50:44Z</time></trkpt><trkpt lat="44.92073325296835" lon="9.693498347325697"><ele>139.5</ele><time>2026-05-04T12:50:45Z</time></trkpt><trkpt lat="44.9206391704829" lon="9.693402208199329"><ele>140.25</ele><time>2026-05-04T12:50:46Z</time></trkpt><trkpt lat="44.920547913990944" lon="9.693314963322985"><ele>141.0</ele><time>2026-05-04T12:50:47Z</time></trkpt><trkpt lat="44.92045545007261" lon="9.69322803297073"><ele>141.0</ele><time>2026-05-04T12:50:48Z</time></trkpt><trkpt lat="44.92036264686683" lon="9.69314257011471"><ele>141.0</ele><time>2026-05-04T12:50:49Z</time></trkpt><trkpt lat="44.92027117116804" lon="9.693050214910047"><ele>141.0</ele><time>2026-05-04T12:50:50Z</time></trkpt><trkpt lat="44.92017897121545" lon="9.692953700967863"><ele>141.0</ele><time>2026-05-04T12:50:51Z</time></trkpt><trkpt lat="44.92008700952685" lon="9.692856374119074"><ele>141.25</ele><time>2026-05-04T12:50:52Z</time></trkpt><trkpt lat="44.91999809179953" lon="9.692748676421624"><ele>141.5</ele><time>2026-05-04T12:50:53Z</time></trkpt><trkpt lat="44.91991244805014" lon="9.692632921040637"><ele>141.75</ele><time>2026-05-04T12:50:54Z</time></trkpt><trkpt lat="44.919823405344346" lon="9.692530869757201"><ele>142.0</ele><time>2026-05-04T12:50:55Z</time></trkpt><trkpt lat="44.91972083757836" lon="9.692440234065053"><ele>142.0</ele><time>2026-05-04T12:50:56Z</time></trkpt><trkpt lat="44.919621584857296" lon="9.692367248514543"><ele>142.0</ele><time>2026-05-04T12:50:57Z</time></trkpt><trkpt lat="44.91951879720593" lon="9.692312346529146"><ele>142.0</ele><time>2026-05-04T12:50:58Z</time></trkpt><trkpt lat="44.919414707181744" lon="9.692273617015935"><ele>142.0</ele><time>2026-05-04T12:50:59Z</time></trkpt><trkpt lat="44.91930329571935" lon="9.692236418589417"><ele>142.0</ele><time>2026-05-04T12:51:00Z</time></trkpt><trkpt lat="44.919191875464335" lon="9.69220471183776"><ele>142.0</ele><time>2026-05-04T12:51:01Z</time></trkpt><trkpt lat="44.91909029415614" lon="9.692172400148413"><ele>142.0</ele><time>2026-05-04T12:51:02Z</time></trkpt><trkpt lat="44.918990404534796" lon="9.692134917486754"><ele>142.0</ele><time>2026-05-04T12:51:03Z</time></trkpt><trkpt lat="44.91888374982054" lon="9.69208866156163"><ele>142.0</ele><time>2026-05-04T12:51:04Z</time></trkpt><trkpt lat="44.91877183371581" lon="9.692041460129936"><ele>142.0</ele><time>2026-05-04T12:51:05Z</time></trkpt><trkpt lat="44.91865494258579" lon="9.691984656208474"><ele>142.0</ele><time>2026-05-04T12:51:06Z</time></trkpt><trkpt lat="44.91854197884824" lon="9.691926558049571"><ele>142.0</ele><time>2026-05-04T12:51:07Z</time></trkpt><trkpt lat="44.91842814983681" lon="9.691858438932071"><ele>142.0</ele><time>2026-05-04T12:51:08Z</time></trkpt><trkpt lat="44.91831204176389" lon="9.691785957206518"><ele>142.0</ele><time>2026-05-04T12:51:09Z</time></trkpt><trkpt lat="44.91819992768852" lon="9.69171139056692"><ele>142.25</ele><time>2026-05-04T12:51:10Z</time></trkpt><trkpt lat="44.91808622789698" lon="9.691637772920425"><ele>142.5</ele><time>2026-05-04T12:51:11Z</time></trkpt><trkpt lat="44.917977327654654" lon="9.691565494232993"><ele>142.75</ele><time>2026-05-04T12:51:12Z</time></trkpt><trkpt lat="44.91787788435974" lon="9.69148561909991"><ele>143.0</ele><time>2026-05-04T12:51:13Z</time></trkpt><trkpt lat="44.91777750471659" lon="9.691406617770246"><ele>143.0</ele><time>2026-05-04T12:51:14Z</time></trkpt><trkpt lat="44.917681428479476" lon="9.69133595475325"><ele>143.0</ele><time>2026-05-04T12:51:15Z</time></trkpt><trkpt lat="44.91759243039378" lon="9.691262594491468"><ele>143.0</ele><time>2026-05-04T12:51:16Z</time></trkpt><trkpt lat="44.91750258741342" lon="9.69118957251302"><ele>143.0</ele><time>2026-05-04T12:51:17Z</time></trkpt><trkpt lat="44.91740726999747" lon="9.691114576688575"><ele>143.0</ele><time>2026-05-04T12:51:18Z</time></trkpt><trkpt lat="44.91730876847903" lon="9.691042498976723"><ele>143.0</ele><time>2026-05-04T12:51:19Z</time></trkpt><trkpt lat="44.91721962849055" lon="9.690967696489585"><ele>143.0</ele><time>2026-05-04T12:51:20Z</time></trkpt><trkpt lat="44.91713729846486" lon="9.69089935435228"><ele>143.0</ele><time>2026-05-04T12:51:21Z</time></trkpt><trkpt lat="44.917057726490334" lon="9.690819565520972"><ele>143.0</ele><time>2026-05-04T12:51:22Z</time></trkpt><trkpt lat="44.91697584604866" lon="9.690738329424084"><ele>143.0</ele><time>2026-05-04T12:51:23Z</time></trkpt><trkpt lat="44.91690996160101" lon="9.690657941208244"><ele>143.0</ele><time>2026-05-04T12:51:24Z</time></trkpt><trkpt lat="44.91684461281299" lon="9.690563614443763"><ele>143.0</ele><time>2026-05-04T12:51:25Z</time></trkpt><trkpt lat="44.916783731399356" lon="9.690465530719377"><ele>143.0</ele><time>2026-05-04T12:51:26Z</time></trkpt><trkpt lat="44.916675830667685" lon="9.69033416199357"><ele>143.0</ele><time>2026-05-04T12:51:28Z</time></trkpt><trkpt lat="44.916577894252356" lon="9.690290811836713"><ele>143.0</ele><time>2026-05-04T12:51:30Z</time></trkpt><trkpt lat="44.91649528530306" lon="9.690346325178014"><ele>143.4</ele><time>2026-05-04T12:51:32Z</time></trkpt><trkpt lat="44.91645996618755" lon="9.690424202147186"><ele>143.8</ele><time>2026-05-04T12:51:33Z</time></trkpt><trkpt lat="44.916423105664954" lon="9.690581043099055"><ele>144.2</ele><time>2026-05-04T12:51:35Z</time></trkpt><trkpt lat="44.91637500234941" lon="9.690690368451296"><ele>144.6</ele><time>2026-05-04T12:51:37Z</time></trkpt><trkpt lat="44.916268712167835" lon="9.690753738017392"><ele>145.0</ele><time>2026-05-04T12:51:39Z</time></trkpt><trkpt lat="44.91619500976044" lon="9.690785879202942"><ele>145.0</ele><time>2026-05-04T12:51:40Z</time></trkpt><trkpt lat="44.916114638443815" lon="9.690803301612114"><ele>145.0</ele><time>2026-05-04T12:51:41Z</time></trkpt><trkpt lat="44.91602401926274" lon="9.69081398879806"><ele>145.0</ele><time>2026-05-04T12:51:42Z</time></trkpt><trkpt lat="44.915942822289324" lon="9.690822870679817"><ele>145.0</ele><time>2026-05-04T12:51:43Z</time></trkpt><trkpt lat="44.915852125423704" lon="9.69083436776546"><ele>145.0</ele><time>2026-05-04T12:51:44Z</time></trkpt><trkpt lat="44.91575421415568" lon="9.690845588623427"><ele>145.0</ele><time>2026-05-04T12:51:45Z</time></trkpt><trkpt lat="44.91566489102477" lon="9.69084082641095"><ele>145.0</ele><time>2026-05-04T12:51:46Z</time></trkpt><trkpt lat="44.915571570529266" lon="9.69081846313193"><ele>145.0</ele><time>2026-05-04T12:51:47Z</time></trkpt><trkpt lat="44.91547814596432" lon="9.69076368384081"><ele>145.0</ele><time>2026-05-04T12:51:48Z</time></trkpt><trkpt lat="44.915390439972654" lon="9.69069700146672"><ele>145.0</ele><time>2026-05-04T12:51:49Z</time></trkpt><trkpt lat="44.91531361816949" lon="9.690637522873805"><ele>145.0</ele><time>2026-05-04T12:51:50Z</time></trkpt><trkpt lat="44.915225184927934" lon="9.690580558779157"><ele>145.0</ele><time>2026-05-04T12:51:51Z</time></trkpt><trkpt lat="44.915124543023374" lon="9.690543723867131"><ele>145.0</ele><time>2026-05-04T12:51:52Z</time></trkpt><trkpt lat="44.9150189615117" lon="9.69053408545277"><ele>145.0</ele><time>2026-05-04T12:51:53Z</time></trkpt><trkpt lat="44.914901209585956" lon="9.690556226532005"><ele>145.0</ele><time>2026-05-04T12:51:54Z</time></trkpt><trkpt lat="44.91478654080885" lon="9.690597272602433"><ele>145.0</ele><time>2026-05-04T12:51:55Z</time></trkpt><trkpt lat="44.91468930091009" lon="9.690627304537282"><ele>145.0</ele><time>2026-05-04T12:51:56Z</time></trkpt><trkpt lat="44.914597603034" lon="9.690637890097719"><ele>145.0</ele><time>2026-05-04T12:51:57Z</time></trkpt><trkpt lat="44.91450166976504" lon="9.69063196876137"><ele>145.0</ele><time>2026-05-04T12:51:58Z</time></trkpt><trkpt lat="44.914410150832644" lon="9.690613972708862"><ele>145.0</ele><time>2026-05-04T12:51:59Z</time></trkpt><trkpt lat="44.914316880849135" lon="9.69058295481459"><ele>145.0</ele><time>2026-05-04T12:52:00Z</time></trkpt><trkpt lat="44.91421357881785" lon="9.69053041822155"><ele>145.0</ele><time>2026-05-04T12:52:01Z</time></trkpt><trkpt lat="44.9140953718066" lon="9.690460340730898"><ele>145.0</ele><time>2026-05-04T12:52:02Z</time></trkpt><trkpt lat="44.91397906714657" lon="9.690396313726923"><ele>145.0</ele><time>2026-05-04T12:52:03Z</time></trkpt><trkpt lat="44.913870054635034" lon="9.690333517841928"><ele>145.0</ele><time>2026-05-04T12:52:04Z</time></trkpt><trkpt lat="44.913761882505376" lon="9.690274720698133"><ele>145.0</ele><time>2026-05-04T12:52:05Z</time></trkpt><trkpt lat="44.91365843883769" lon="9.690210481677585"><ele>145.0</ele><time>2026-05-04T12:52:06Z</time></trkpt><trkpt lat="44.91356456429849" lon="9.690130334146614"><ele>145.0</ele><time>2026-05-04T12:52:07Z</time></trkpt><trkpt lat="44.91347345421397" lon="9.690042806210903"><ele>145.0</ele><time>2026-05-04T12:52:08Z</time></trkpt><trkpt lat="44.913385073128765" lon="9.689959805305946"><ele>145.0</ele><time>2026-05-04T12:52:09Z</time></trkpt><trkpt lat="44.91330470298733" lon="9.689898328064992"><ele>145.0</ele><time>2026-05-04T12:52:10Z</time></trkpt><trkpt lat="44.91320985344553" lon="9.689878700735374"><ele>145.0</ele><time>2026-05-04T12:52:11Z</time></trkpt><trkpt lat="44.91310737129745" lon="9.689877796116475"><ele>145.0</ele><time>2026-05-04T12:52:12Z</time></trkpt><trkpt lat="44.91298663231555" lon="9.689895318447435"><ele>145.0</ele><time>2026-05-04T12:52:13Z</time></trkpt><trkpt lat="44.9128775292952" lon="9.689917880118916"><ele>145.0</ele><time>2026-05-04T12:52:14Z</time></trkpt><trkpt lat="44.91277323960055" lon="9.689910248689763"><ele>145.0</ele><time>2026-05-04T12:52:15Z</time></trkpt><trkpt lat="44.91266875553717" lon="9.689890169041538"><ele>145.0</ele><time>2026-05-04T12:52:16Z</time></trkpt><trkpt lat="44.91256084944255" lon="9.689856118600305"><ele>145.0</ele><time>2026-05-04T12:52:17Z</time></trkpt><trkpt lat="44.91247080384486" lon="9.689821462177242"><ele>145.0</ele><time>2026-05-04T12:52:18Z</time></trkpt><trkpt lat="44.91239225901793" lon="9.689791745337477"><ele>145.0</ele><time>2026-05-04T12:52:19Z</time></trkpt><trkpt lat="44.91231745449361" lon="9.689754520717681"><ele>145.6</ele><time>2026-05-04T12:52:20Z</time></trkpt><trkpt lat="44.912239442929625" lon="9.68970467211171"><ele>146.2</ele><time>2026-05-04T12:52:21Z</time></trkpt><trkpt lat="44.912164204880185" lon="9.689657301957107"><ele>146.8</ele><time>2026-05-04T12:52:22Z</time></trkpt><trkpt lat="44.9120829422974" lon="9.689619846692999"><ele>147.4</ele><time>2026-05-04T12:52:23Z</time></trkpt><trkpt lat="44.91198728093171" lon="9.689587219260778"><ele>148.0</ele><time>2026-05-04T12:52:24Z</time></trkpt><trkpt lat="44.91188583190538" lon="9.689535070716763"><ele>148.0</ele><time>2026-05-04T12:52:25Z</time></trkpt><trkpt lat="44.91178832692892" lon="9.689472672315045"><ele>148.0</ele><time>2026-05-04T12:52:26Z</time></trkpt><trkpt lat="44.91168453279166" lon="9.689404510348826"><ele>148.0</ele><time>2026-05-04T12:52:27Z</time></trkpt><trkpt lat="44.911591763954284" lon="9.689358371731695"><ele>148.0</ele><time>2026-05-04T12:52:28Z</time></trkpt><trkpt lat="44.91150070397595" lon="9.689317097326375"><ele>148.0</ele><time>2026-05-04T12:52:29Z</time></trkpt><trkpt lat="44.91140773993199" lon="9.68927648355649"><ele>148.33333333333334</ele><time>2026-05-04T12:52:30Z</time></trkpt><trkpt lat="44.91131146049844" lon="9.689234696382282"><ele>148.66666666666669</ele><time>2026-05-04T12:52:31Z</time></trkpt><trkpt lat="44.91121917641082" lon="9.68921706135945"><ele>149.0</ele><time>2026-05-04T12:52:32Z</time></trkpt><trkpt lat="44.91112879836028" lon="9.689191348208244"><ele>149.33333333333334</ele><time>2026-05-04T12:52:33Z</time></trkpt><trkpt lat="44.911054273288585" lon="9.689148712842131"><ele>149.66666666666666</ele><time>2026-05-04T12:52:34Z</time></trkpt><trkpt lat="44.91098219306504" lon="9.689098566768301"><ele>150.0</ele><time>2026-05-04T12:52:35Z</time></trkpt><trkpt lat="44.910911452072106" lon="9.689021316875083"><ele>150.16666666666666</ele><time>2026-05-04T12:52:36Z</time></trkpt><trkpt lat="44.91085322223058" lon="9.688960002922073"><ele>150.33333333333334</ele><time>2026-05-04T12:52:37Z</time></trkpt><trkpt lat="44.91075897595085" lon="9.688874745142641"><ele>150.5</ele><time>2026-05-04T12:52:39Z</time></trkpt><trkpt lat="44.91069462272257" lon="9.68883738089011"><ele>150.66666666666669</ele><time>2026-05-04T12:52:40Z</time></trkpt><trkpt lat="44.91062708515146" lon="9.688796600766661"><ele>150.83333333333334</ele><time>2026-05-04T12:52:41Z</time></trkpt><trkpt lat="44.910557250742606" lon="9.6887351682451"><ele>151.0</ele><time>2026-05-04T12:52:43Z</time></trkpt><trkpt lat="44.91049301917106" lon="9.688635259159225"><ele>151.0</ele><time>2026-05-04T12:52:46Z</time></trkpt><trkpt lat="44.91055305705522" lon="9.688546730583159"><ele>151.0</ele><time>2026-05-04T12:52:49Z</time></trkpt><trkpt lat="44.91067747910037" lon="9.68852148264968"><ele>151.0</ele><time>2026-05-04T12:52:51Z</time></trkpt><trkpt lat="44.910752630465" lon="9.688556811298344"><ele>151.0</ele><time>2026-05-04T12:52:52Z</time></trkpt><trkpt lat="44.91082871850831" lon="9.688590978996192"><ele>151.0</ele><time>2026-05-04T12:52:53Z</time></trkpt><trkpt lat="44.91089311510916" lon="9.688600862946869"><ele>151.0</ele><time>2026-05-04T12:52:54Z</time></trkpt><trkpt lat="44.91097016790218" lon="9.68850575465622"><ele>150.8</ele><time>2026-05-04T12:52:56Z</time></trkpt><trkpt lat="44.91101994005325" lon="9.688325356094351"><ele>150.6</ele><time>2026-05-04T12:52:58Z</time></trkpt><trkpt lat="44.9110423167634" lon="9.688204418417941"><ele>150.4</ele><time>2026-05-04T12:52:59Z</time></trkpt><trkpt lat="44.91106131850151" lon="9.688087330359243"><ele>150.2</ele><time>2026-05-04T12:53:00Z</time></trkpt><trkpt lat="44.91105830097163" lon="9.687953089802921"><ele>150.0</ele><time>2026-05-04T12:53:01Z</time></trkpt><trkpt lat="44.91105485069228" lon="9.68781953249729"><ele>149.8</ele><time>2026-05-04T12:53:02Z</time></trkpt><trkpt lat="44.91106206340653" lon="9.687679370466308"><ele>149.6</ele><time>2026-05-04T12:53:03Z</time></trkpt><trkpt lat="44.911087707687166" lon="9.687530314681231"><ele>149.4</ele><time>2026-05-04T12:53:04Z</time></trkpt><trkpt lat="44.911121279177806" lon="9.68737982652798"><ele>149.2</ele><time>2026-05-04T12:53:05Z</time></trkpt><trkpt lat="44.911157609529425" lon="9.68722412777126"><ele>149.0</ele><time>2026-05-04T12:53:06Z</time></trkpt><trkpt lat="44.911187969984056" lon="9.687070027581047"><ele>149.5</ele><time>2026-05-04T12:53:07Z</time></trkpt><trkpt lat="44.91120831462062" lon="9.686903469417395"><ele>150.0</ele><time>2026-05-04T12:53:08Z</time></trkpt><trkpt lat="44.91122936858374" lon="9.686731953455403"><ele>150.5</ele><time>2026-05-04T12:53:09Z</time></trkpt><trkpt lat="44.9112479271036" lon="9.686563513913626"><ele>151.0</ele><time>2026-05-04T12:53:10Z</time></trkpt><trkpt lat="44.911262841819614" lon="9.686392671894232"><ele>151.0</ele><time>2026-05-04T12:53:11Z</time></trkpt><trkpt lat="44.911269293468415" lon="9.686223648931708"><ele>151.0</ele><time>2026-05-04T12:53:12Z</time></trkpt><trkpt lat="44.911256813987734" lon="9.686053735069455"><ele>151.0</ele><time>2026-05-04T12:53:13Z</time></trkpt><trkpt lat="44.911234104008116" lon="9.685884672790165"><ele>151.0</ele><time>2026-05-04T12:53:14Z</time></trkpt><trkpt lat="44.911199848768284" lon="9.685708731504613"><ele>151.0</ele><time>2026-05-04T12:53:15Z</time></trkpt><trkpt lat="44.911171276942895" lon="9.685534697554317"><ele>151.0</ele><time>2026-05-04T12:53:16Z</time></trkpt><trkpt lat="44.91113381963755" lon="9.685375554868724"><ele>151.0</ele><time>2026-05-04T12:53:17Z</time></trkpt><trkpt lat="44.91109381173879" lon="9.685212316853608"><ele>151.0</ele><time>2026-05-04T12:53:18Z</time></trkpt><trkpt lat="44.91105837420489" lon="9.685049559475043"><ele>150.5</ele><time>2026-05-04T12:53:19Z</time></trkpt><trkpt lat="44.9110223759662" lon="9.684884378122968"><ele>150.0</ele><time>2026-05-04T12:53:20Z</time></trkpt><trkpt lat="44.91098983402641" lon="9.684729300620411"><ele>149.5</ele><time>2026-05-04T12:53:21Z</time></trkpt><trkpt lat="44.91095920011244" lon="9.684557674975638"><ele>149.0</ele><time>2026-05-04T12:53:22Z</time></trkpt><trkpt lat="44.910924886254904" lon="9.684389407396944"><ele>149.75</ele><time>2026-05-04T12:53:23Z</time></trkpt><trkpt lat="44.91088732638607" lon="9.684219679556158"><ele>150.5</ele><time>2026-05-04T12:53:24Z</time></trkpt><trkpt lat="44.91085604604961" lon="9.68404397119635"><ele>151.25</ele><time>2026-05-04T12:53:25Z</time></trkpt><trkpt lat="44.91082571672898" lon="9.683882972833546"><ele>152.0</ele><time>2026-05-04T12:53:26Z</time></trkpt><trkpt lat="44.910796865186114" lon="9.68374126050755"><ele>152.0</ele><time>2026-05-04T12:53:27Z</time></trkpt><trkpt lat="44.91076909988224" lon="9.683617789220143"><ele>152.0</ele><time>2026-05-04T12:53:28Z</time></trkpt><trkpt lat="44.91074308673626" lon="9.6835009489868"><ele>152.0</ele><time>2026-05-04T12:53:29Z</time></trkpt><trkpt lat="44.91072826787043" lon="9.683374876936789"><ele>152.0</ele><time>2026-05-04T12:53:30Z</time></trkpt><trkpt lat="44.910725019690034" lon="9.683239739167488"><ele>152.0</ele><time>2026-05-04T12:53:31Z</time></trkpt><trkpt lat="44.91073838123399" lon="9.683088506746287"><ele>152.0</ele><time>2026-05-04T12:53:32Z</time></trkpt><trkpt lat="44.91076217065378" lon="9.682928648878205"><ele>152.0</ele><time>2026-05-04T12:53:33Z</time></trkpt><trkpt lat="44.91078752508386" lon="9.682757696743174"><ele>152.0</ele><time>2026-05-04T12:53:34Z</time></trkpt><trkpt lat="44.91082219747125" lon="9.682582978778596"><ele>152.0</ele><time>2026-05-04T12:53:35Z</time></trkpt><trkpt lat="44.91085412867784" lon="9.682409711289067"><ele>152.0</ele><time>2026-05-04T12:53:36Z</time></trkpt><trkpt lat="44.91087664900673" lon="9.68224141951255"><ele>152.0</ele><time>2026-05-04T12:53:37Z</time></trkpt><trkpt lat="44.910899535844266" lon="9.682086566480574"><ele>152.0</ele><time>2026-05-04T12:53:38Z</time></trkpt><trkpt lat="44.91092133872814" lon="9.681937243412625"><ele>152.0</ele><time>2026-05-04T12:53:39Z</time></trkpt><trkpt lat="44.910933687994316" lon="9.6817730752483"><ele>152.0</ele><time>2026-05-04T12:53:40Z</time></trkpt><trkpt lat="44.91094125602627" lon="9.681602577234958"><ele>152.0</ele><time>2026-05-04T12:53:41Z</time></trkpt><trkpt lat="44.91094446618299" lon="9.681427395975746"><ele>152.0</ele><time>2026-05-04T12:53:42Z</time></trkpt><trkpt lat="44.91094768816657" lon="9.681244764901884"><ele>152.0</ele><time>2026-05-04T12:53:43Z</time></trkpt><trkpt lat="44.910950237894504" lon="9.681066688052857"><ele>152.0</ele><time>2026-05-04T12:53:44Z</time></trkpt><trkpt lat="44.91095612571873" lon="9.680883811815272"><ele>152.0</ele><time>2026-05-04T12:53:45Z</time></trkpt><trkpt lat="44.91096289800333" lon="9.68070858997968"><ele>152.0</ele><time>2026-05-04T12:53:46Z</time></trkpt><trkpt lat="44.910970321388476" lon="9.68052406739129"><ele>152.0</ele><time>2026-05-04T12:53:47Z</time></trkpt><trkpt lat="44.91097709973582" lon="9.680339089252666"><ele>152.0</ele><time>2026-05-04T12:53:48Z</time></trkpt><trkpt lat="44.91098534786465" lon="9.680150899409876"><ele>152.0</ele><time>2026-05-04T12:53:49Z</time></trkpt><trkpt lat="44.91098944017198" lon="9.679977536938846"><ele>152.0</ele><time>2026-05-04T12:53:50Z</time></trkpt><trkpt lat="44.91099618015714" lon="9.679797463303549"><ele>152.0</ele><time>2026-05-04T12:53:51.001Z</time></trkpt><trkpt lat="44.91100396772484" lon="9.679619877134925"><ele>152.0</ele><time>2026-05-04T12:53:52.001Z</time></trkpt><trkpt lat="44.91100944892346" lon="9.679439351147362"><ele>152.0</ele><time>2026-05-04T12:53:53Z</time></trkpt><trkpt lat="44.91101388020371" lon="9.679273995041461"><ele>152.0</ele><time>2026-05-04T12:53:54Z</time></trkpt><trkpt lat="44.911015735475175" lon="9.679132057434133"><ele>152.0</ele><time>2026-05-04T12:53:55Z</time></trkpt><trkpt lat="44.911019999660084" lon="9.678989320788084"><ele>152.0</ele><time>2026-05-04T12:53:56Z</time></trkpt><trkpt lat="44.91102643110046" lon="9.678838895349017"><ele>152.16666666666666</ele><time>2026-05-04T12:53:57Z</time></trkpt><trkpt lat="44.91103149199605" lon="9.678696415970398"><ele>152.33333333333331</ele><time>2026-05-04T12:53:58Z</time></trkpt><trkpt lat="44.91103585098107" lon="9.678574551336945"><ele>152.5</ele><time>2026-05-04T12:53:59Z</time></trkpt><trkpt lat="44.91103755506945" lon="9.678460166498661"><ele>152.66666666666666</ele><time>2026-05-04T12:54:00Z</time></trkpt><trkpt lat="44.911044721162476" lon="9.678360383745515"><ele>152.83333333333334</ele><time>2026-05-04T12:54:01Z</time></trkpt><trkpt lat="44.911053123939965" lon="9.678266214583177"><ele>153.0</ele><time>2026-05-04T12:54:02Z</time></trkpt><trkpt lat="44.91107918711515" lon="9.678075084002293"><ele>153.33333333333334</ele><time>2026-05-04T12:54:04Z</time></trkpt><trkpt lat="44.91107889185568" lon="9.677975240635032"><ele>153.66666666666666</ele><time>2026-05-04T12:54:06Z</time></trkpt><trkpt lat="44.91101947177671" lon="9.677929943405344"><ele>154.0</ele><time>2026-05-04T12:54:08Z</time></trkpt><trkpt lat="44.91091089972169" lon="9.677879241617672"><ele>154.33333333333331</ele><time>2026-05-04T12:54:10Z</time></trkpt><trkpt lat="44.91084554958957" lon="9.677840547631526"><ele>154.66666666666666</ele><time>2026-05-04T12:54:11Z</time></trkpt><trkpt lat="44.91073038512023" lon="9.677789091065106"><ele>155.0</ele><time>2026-05-04T12:54:13Z</time></trkpt><trkpt lat="44.91066632607582" lon="9.677780404407743"><ele>155.16666666666666</ele><time>2026-05-04T12:54:14Z</time></trkpt><trkpt lat="44.9105990577683" lon="9.677793269482022"><ele>155.33333333333331</ele><time>2026-05-04T12:54:15Z</time></trkpt><trkpt lat="44.910527907367836" lon="9.6778368167495"><ele>155.5</ele><time>2026-05-04T12:54:16Z</time></trkpt><trkpt lat="44.910449049040984" lon="9.677890062282415"><ele>155.66666666666666</ele><time>2026-05-04T12:54:17Z</time></trkpt><trkpt lat="44.91036789292776" lon="9.67792200446059"><ele>155.83333333333334</ele><time>2026-05-04T12:54:18Z</time></trkpt><trkpt lat="44.91028836826815" lon="9.677929168473286"><ele>156.0</ele><time>2026-05-04T12:54:19Z</time></trkpt><trkpt lat="44.910194409094885" lon="9.677915327169462"><ele>156.0</ele><time>2026-05-04T12:54:20Z</time></trkpt><trkpt lat="44.91008093629107" lon="9.6778880381711"><ele>156.0</ele><time>2026-05-04T12:54:21Z</time></trkpt><trkpt lat="44.90995614234858" lon="9.677851840595467"><ele>156.0</ele><time>2026-05-04T12:54:22Z</time></trkpt><trkpt lat="44.90984113188849" lon="9.677823850571206"><ele>156.0</ele><time>2026-05-04T12:54:23Z</time></trkpt><trkpt lat="44.90974157528178" lon="9.677802429388667"><ele>156.2</ele><time>2026-05-04T12:54:24Z</time></trkpt><trkpt lat="44.909643906794635" lon="9.677787630619337"><ele>156.39999999999998</ele><time>2026-05-04T12:54:25Z</time></trkpt><trkpt lat="44.90954106554929" lon="9.677767938050822"><ele>156.6</ele><time>2026-05-04T12:54:26Z</time></trkpt><trkpt lat="44.90943523416578" lon="9.67774998283345"><ele>156.79999999999998</ele><time>2026-05-04T12:54:27Z</time></trkpt><trkpt lat="44.909332977477426" lon="9.67773851870645"><ele>157.0</ele><time>2026-05-04T12:54:28Z</time></trkpt><trkpt lat="44.90924019603596" lon="9.677725436883824"><ele>157.4</ele><time>2026-05-04T12:54:29Z</time></trkpt><trkpt lat="44.90914454303816" lon="9.677712355218562"><ele>157.79999999999998</ele><time>2026-05-04T12:54:30Z</time></trkpt><trkpt lat="44.909049034523974" lon="9.677690075724728"><ele>158.2</ele><time>2026-05-04T12:54:31Z</time></trkpt><trkpt lat="44.90895061262765" lon="9.67767285771748"><ele>158.6</ele><time>2026-05-04T12:54:32Z</time></trkpt><trkpt lat="44.908859139357" lon="9.677648005406182"><ele>159.0</ele><time>2026-05-04T12:54:33Z</time></trkpt><trkpt lat="44.908779334832396" lon="9.677623201533875"><ele>159.0</ele><time>2026-05-04T12:54:34Z</time></trkpt><trkpt lat="44.908708070919886" lon="9.677599404473956"><ele>159.0</ele><time>2026-05-04T12:54:35Z</time></trkpt><trkpt lat="44.90864380812427" lon="9.677574453123638"><ele>159.0</ele><time>2026-05-04T12:54:36Z</time></trkpt><trkpt lat="44.908537675576554" lon="9.677516073355784"><ele>159.0</ele><time>2026-05-04T12:54:38Z</time></trkpt><trkpt lat="44.90845702635553" lon="9.677447040228897"><ele>159.0</ele><time>2026-05-04T12:54:40Z</time></trkpt><trkpt lat="44.908379654053164" lon="9.677371410631359"><ele>159.0</ele><time>2026-05-04T12:54:42Z</time></trkpt><trkpt lat="44.908289000956444" lon="9.67731877824925"><ele>159.2</ele><time>2026-05-04T12:54:44Z</time></trkpt><trkpt lat="44.90819239028129" lon="9.67727949177392"><ele>159.4</ele><time>2026-05-04T12:54:46Z</time></trkpt><trkpt lat="44.90810784646803" lon="9.677259108839147"><ele>159.6</ele><time>2026-05-04T12:54:48Z</time></trkpt><trkpt lat="44.90799613099538" lon="9.67725325851557"><ele>159.8</ele><time>2026-05-04T12:54:50Z</time></trkpt><trkpt lat="44.907873950631824" lon="9.67727812940339"><ele>160.0</ele><time>2026-05-04T12:54:52Z</time></trkpt><trkpt lat="44.907750176810616" lon="9.677329954647735"><ele>160.0</ele><time>2026-05-04T12:54:54Z</time></trkpt><trkpt lat="44.907678239064694" lon="9.677347917414155"><ele>160.0</ele><time>2026-05-04T12:54:55Z</time></trkpt><trkpt lat="44.907610046527346" lon="9.677363175908482"><ele>160.0</ele><time>2026-05-04T12:54:56Z</time></trkpt><trkpt lat="44.90753944355317" lon="9.677371030617918"><ele>160.0</ele><time>2026-05-04T12:54:57Z</time></trkpt><trkpt lat="44.90746143362905" lon="9.677366086719747"><ele>160.0</ele><time>2026-05-04T12:54:58Z</time></trkpt><trkpt lat="44.90737814160951" lon="9.677348173330047"><ele>160.0</ele><time>2026-05-04T12:54:59Z</time></trkpt><trkpt lat="44.90729599299257" lon="9.677317932740795"><ele>160.16666666666669</ele><time>2026-05-04T12:55:00Z</time></trkpt><trkpt lat="44.90721835191295" lon="9.677293767085407"><ele>160.33333333333334</ele><time>2026-05-04T12:55:01Z</time></trkpt><trkpt lat="44.90710445094961" lon="9.677265551739158"><ele>160.5</ele><time>2026-05-04T12:55:03Z</time></trkpt><trkpt lat="44.90701880568313" lon="9.677231174984575"><ele>160.66666666666666</ele><time>2026-05-04T12:55:05Z</time></trkpt><trkpt lat="44.906949067892874" lon="9.677162109404327"><ele>160.83333333333331</ele><time>2026-05-04T12:55:07Z</time></trkpt><trkpt lat="44.90687236010603" lon="9.677177431282917"><ele>161.0</ele><time>2026-05-04T12:55:10Z</time></trkpt><trkpt lat="44.906828735827595" lon="9.67726598884477"><ele>161.0</ele><time>2026-05-04T12:55:12Z</time></trkpt><trkpt lat="44.90677199938303" lon="9.677333442528056"><ele>161.0</ele><time>2026-05-04T12:55:14Z</time></trkpt><trkpt lat="44.90670895026011" lon="9.677340286541828"><ele>161.0</ele><time>2026-05-04T12:55:15Z</time></trkpt><trkpt lat="44.90663217217679" lon="9.677317719516163"><ele>161.0</ele><time>2026-05-04T12:55:16Z</time></trkpt><trkpt lat="44.90652481023738" lon="9.677278982005623"><ele>161.0</ele><time>2026-05-04T12:55:17Z</time></trkpt><trkpt lat="44.906382894677186" lon="9.677239683254927"><ele>160.66666666666666</ele><time>2026-05-04T12:55:18Z</time></trkpt><trkpt lat="44.906222301159126" lon="9.677202856842914"><ele>160.33333333333334</ele><time>2026-05-04T12:55:19Z</time></trkpt><trkpt lat="44.90605874228225" lon="9.677166769273915"><ele>160.0</ele><time>2026-05-04T12:55:20Z</time></trkpt><trkpt lat="44.90589252484204" lon="9.6771287316773"><ele>159.66666666666669</ele><time>2026-05-04T12:55:21Z</time></trkpt><trkpt lat="44.9057240504299" lon="9.677093487405529"><ele>159.33333333333334</ele><time>2026-05-04T12:55:22Z</time></trkpt><trkpt lat="44.90557815845644" lon="9.677063909643664"><ele>159.0</ele><time>2026-05-04T12:55:23Z</time></trkpt><trkpt lat="44.905440747660776" lon="9.677028459231508"><ele>159.0</ele><time>2026-05-04T12:55:24Z</time></trkpt><trkpt lat="44.905304005259964" lon="9.676993429243295"><ele>159.0</ele><time>2026-05-04T12:55:25Z</time></trkpt><trkpt lat="44.9051751621321" lon="9.676965182825436"><ele>159.0</ele><time>2026-05-04T12:55:26Z</time></trkpt><trkpt lat="44.90506369226772" lon="9.676943611324232"><ele>159.0</ele><time>2026-05-04T12:55:27Z</time></trkpt><trkpt lat="44.904962552212496" lon="9.676922151345956"><ele>159.4</ele><time>2026-05-04T12:55:28Z</time></trkpt><trkpt lat="44.90485456941033" lon="9.676896047449404"><ele>159.8</ele><time>2026-05-04T12:55:29Z</time></trkpt><trkpt lat="44.90475663168473" lon="9.676877106922062"><ele>160.20000000000002</ele><time>2026-05-04T12:55:30Z</time></trkpt><trkpt lat="44.904664589372445" lon="9.676858925431445"><ele>160.60000000000002</ele><time>2026-05-04T12:55:31Z</time></trkpt><trkpt lat="44.904569319479975" lon="9.67684803425516"><ele>161.0</ele><time>2026-05-04T12:55:32Z</time></trkpt><trkpt lat="44.90447376670926" lon="9.676833890826877"><ele>161.0</ele><time>2026-05-04T12:55:33Z</time></trkpt><trkpt lat="44.90438031107533" lon="9.676813829457"><ele>161.0</ele><time>2026-05-04T12:55:34Z</time></trkpt><trkpt lat="44.90429574327283" lon="9.676794767387333"><ele>161.0</ele><time>2026-05-04T12:55:35Z</time></trkpt><trkpt lat="44.90422219067891" lon="9.67677682686"><ele>161.0</ele><time>2026-05-04T12:55:36Z</time></trkpt><trkpt lat="44.90412655989421" lon="9.676726723682798"><ele>161.0</ele><time>2026-05-04T12:55:38Z</time></trkpt><trkpt lat="44.9040574299431" lon="9.676649607185896"><ele>161.0</ele><time>2026-05-04T12:55:40Z</time></trkpt><trkpt lat="44.90404707817194" lon="9.676515976042761"><ele>161.0</ele><time>2026-05-04T12:56:01Z</time></trkpt><trkpt lat="44.90406788690324" lon="9.676424381496371"><ele>161.0</ele><time>2026-05-04T12:56:02Z</time></trkpt><trkpt lat="44.904112892349374" lon="9.67632987356718"><ele>161.0</ele><time>2026-05-04T12:56:03Z</time></trkpt><trkpt lat="44.90416699759134" lon="9.676219797482284"><ele>161.0</ele><time>2026-05-04T12:56:04Z</time></trkpt><trkpt lat="44.90422562364727" lon="9.676114860881992"><ele>161.0</ele><time>2026-05-04T12:56:05Z</time></trkpt><trkpt lat="44.904292162742586" lon="9.676005686050656"><ele>161.0</ele><time>2026-05-04T12:56:06Z</time></trkpt><trkpt lat="44.904356841798545" lon="9.675887515601334"><ele>161.0</ele><time>2026-05-04T12:56:07Z</time></trkpt><trkpt lat="44.90442399459259" lon="9.67576089390159"><ele>161.0</ele><time>2026-05-04T12:56:08Z</time></trkpt><trkpt lat="44.904496384857" lon="9.67563430837719"><ele>161.0</ele><time>2026-05-04T12:56:09Z</time></trkpt><trkpt lat="44.904567688289795" lon="9.675512436204377"><ele>161.0</ele><time>2026-05-04T12:56:10Z</time></trkpt><trkpt lat="44.904633726962004" lon="9.675389335483676"><ele>161.0</ele><time>2026-05-04T12:56:11Z</time></trkpt><trkpt lat="44.90470127605282" lon="9.675263935140164"><ele>161.0</ele><time>2026-05-04T12:56:12Z</time></trkpt><trkpt lat="44.904770044805055" lon="9.675136684659012"><ele>161.0</ele><time>2026-05-04T12:56:13Z</time></trkpt><trkpt lat="44.90483628996037" lon="9.675016707687812"><ele>161.0</ele><time>2026-05-04T12:56:14Z</time></trkpt><trkpt lat="44.904904052846256" lon="9.674892412486244"><ele>161.0</ele><time>2026-05-04T12:56:15Z</time></trkpt><trkpt lat="44.90496914777179" lon="9.674770864575915"><ele>161.0</ele><time>2026-05-04T12:56:16Z</time></trkpt><trkpt lat="44.90503305856108" lon="9.6746505196198"><ele>161.0</ele><time>2026-05-04T12:56:17Z</time></trkpt><trkpt lat="44.90509845800811" lon="9.67453864725062"><ele>161.0</ele><time>2026-05-04T12:56:18Z</time></trkpt><trkpt lat="44.905166182858615" lon="9.674418952983888"><ele>161.0</ele><time>2026-05-04T12:56:19Z</time></trkpt><trkpt lat="44.90523367581625" lon="9.674297200009741"><ele>161.0</ele><time>2026-05-04T12:56:20Z</time></trkpt><trkpt lat="44.90529957464103" lon="9.674167114529551"><ele>161.0</ele><time>2026-05-04T12:56:21Z</time></trkpt><trkpt lat="44.90536224622352" lon="9.6740388544289"><ele>161.0</ele><time>2026-05-04T12:56:22Z</time></trkpt><trkpt lat="44.90542594620561" lon="9.673913616570006"><ele>161.0</ele><time>2026-05-04T12:56:23Z</time></trkpt><trkpt lat="44.90548848428863" lon="9.673785772861317"><ele>161.0</ele><time>2026-05-04T12:56:24Z</time></trkpt><trkpt lat="44.90555885558613" lon="9.673650780467048"><ele>161.0</ele><time>2026-05-04T12:56:25Z</time></trkpt><trkpt lat="44.90562473869749" lon="9.673527073885886"><ele>161.0</ele><time>2026-05-04T12:56:26Z</time></trkpt><trkpt lat="44.905681854492954" lon="9.673422351226236"><ele>161.0</ele><time>2026-05-04T12:56:27Z</time></trkpt><trkpt lat="44.905732737866124" lon="9.673330957624911"><ele>161.0</ele><time>2026-05-04T12:56:28Z</time></trkpt><trkpt lat="44.905767242447986" lon="9.673235347323937"><ele>161.0</ele><time>2026-05-04T12:56:29Z</time></trkpt><trkpt lat="44.90577128867569" lon="9.673140965582753"><ele>161.0</ele><time>2026-05-04T12:56:30Z</time></trkpt><trkpt lat="44.90573834414542" lon="9.673049370989842"><ele>161.0</ele><time>2026-05-04T12:56:31Z</time></trkpt><trkpt lat="44.90568309235865" lon="9.672966875178481"><ele>161.0</ele><time>2026-05-04T12:56:32Z</time></trkpt><trkpt lat="44.905601207595986" lon="9.672901510451284"><ele>161.0</ele><time>2026-05-04T12:56:33Z</time></trkpt><trkpt lat="44.90549769946058" lon="9.672828125004104"><ele>161.0</ele><time>2026-05-04T12:56:34Z</time></trkpt><trkpt lat="44.90538934162868" lon="9.672730726608401"><ele>161.0</ele><time>2026-05-04T12:56:35Z</time></trkpt><trkpt lat="44.90528157776366" lon="9.672628100827486"><ele>161.0</ele><time>2026-05-04T12:56:36Z</time></trkpt><trkpt lat="44.90516550296323" lon="9.672523908793014"><ele>161.5</ele><time>2026-05-04T12:56:37Z</time></trkpt><trkpt lat="44.90505509572043" lon="9.672423952928762"><ele>162.0</ele><time>2026-05-04T12:56:38Z</time></trkpt><trkpt lat="44.9049541727584" lon="9.672325518438669"><ele>162.5</ele><time>2026-05-04T12:56:39Z</time></trkpt><trkpt lat="44.904865277128934" lon="9.672233202506348"><ele>163.0</ele><time>2026-05-04T12:56:40Z</time></trkpt><trkpt lat="44.904783360818136" lon="9.67215358436945"><ele>163.0</ele><time>2026-05-04T12:56:41Z</time></trkpt><trkpt lat="44.90471501542028" lon="9.67208767099627"><ele>163.0</ele><time>2026-05-04T12:56:42Z</time></trkpt><trkpt lat="44.90464869695466" lon="9.672029444392411"><ele>163.0</ele><time>2026-05-04T12:56:43Z</time></trkpt><trkpt lat="44.904578687376066" lon="9.671974204978872"><ele>163.0</ele><time>2026-05-04T12:56:44Z</time></trkpt><trkpt lat="44.904519263947506" lon="9.671924831500489"><ele>163.0</ele><time>2026-05-04T12:56:45Z</time></trkpt><trkpt lat="44.90443786915098" lon="9.671850874249746"><ele>163.0</ele><time>2026-05-04T12:56:47Z</time></trkpt><trkpt lat="44.904420094662576" lon="9.671732855897686"><ele>163.0</ele><time>2026-05-04T12:56:49Z</time></trkpt><trkpt lat="44.9044354855188" lon="9.671641437845732"><ele>163.0</ele><time>2026-05-04T12:56:50Z</time></trkpt><trkpt lat="44.904480646276475" lon="9.671536409220957"><ele>163.0</ele><time>2026-05-04T12:56:51Z</time></trkpt><trkpt lat="44.90453954458378" lon="9.671432071777671"><ele>163.0</ele><time>2026-05-04T12:56:52Z</time></trkpt><trkpt lat="44.904596850364484" lon="9.67130264645066"><ele>163.0</ele><time>2026-05-04T12:56:53Z</time></trkpt><trkpt lat="44.90464570296705" lon="9.671156179132598"><ele>163.0</ele><time>2026-05-04T12:56:54Z</time></trkpt><trkpt lat="44.904695807690786" lon="9.671005266974785"><ele>163.0</ele><time>2026-05-04T12:56:55Z</time></trkpt><trkpt lat="44.904749770545976" lon="9.67085404856301"><ele>163.0</ele><time>2026-05-04T12:56:56Z</time></trkpt><trkpt lat="44.9048072802877" lon="9.670696697134565"><ele>163.0</ele><time>2026-05-04T12:56:57Z</time></trkpt><trkpt lat="44.90486527597092" lon="9.670540496631004"><ele>163.0</ele><time>2026-05-04T12:56:58Z</time></trkpt><trkpt lat="44.90491255641761" lon="9.670403449208319"><ele>163.0</ele><time>2026-05-04T12:56:59Z</time></trkpt><trkpt lat="44.90495535479832" lon="9.67028167319376"><ele>163.0</ele><time>2026-05-04T12:57:00Z</time></trkpt><trkpt lat="44.90499243267647" lon="9.67017168645972"><ele>163.0</ele><time>2026-05-04T12:57:01Z</time></trkpt><trkpt lat="44.90503239948219" lon="9.670059190499671"><ele>163.0</ele><time>2026-05-04T12:57:02Z</time></trkpt><trkpt lat="44.905074480384584" lon="9.669944364923794"><ele>163.8</ele><time>2026-05-04T12:57:03Z</time></trkpt><trkpt lat="44.905114155069505" lon="9.669832135347898"><ele>164.60000000000002</ele><time>2026-05-04T12:57:04Z</time></trkpt><trkpt lat="44.9051476046416" lon="9.66973574658744"><ele>165.39999999999998</ele><time>2026-05-04T12:57:05Z</time></trkpt><trkpt lat="44.90520565297895" lon="9.669593273980178"><ele>166.2</ele><time>2026-05-04T12:57:07Z</time></trkpt><trkpt lat="44.90528297747469" lon="9.669476666890677"><ele>167.0</ele><time>2026-05-04T12:57:09Z</time></trkpt><trkpt lat="44.90533927371372" lon="9.669346673573372"><ele>167.66666666666666</ele><time>2026-05-04T12:57:11Z</time></trkpt><trkpt lat="44.90539728631731" lon="9.66919512406452"><ele>168.33333333333331</ele><time>2026-05-04T12:57:13Z</time></trkpt><trkpt lat="44.905433990119185" lon="9.669112784387135"><ele>169.0</ele><time>2026-05-04T12:57:14Z</time></trkpt><trkpt lat="44.90548396117141" lon="9.669024609574222"><ele>169.66666666666666</ele><time>2026-05-04T12:57:15Z</time></trkpt><trkpt lat="44.905533353856356" lon="9.668963353074062"><ele>170.33333333333334</ele><time>2026-05-04T12:57:16Z</time></trkpt><trkpt lat="44.90562670306821" lon="9.668904436261844"><ele>171.0</ele><time>2026-05-04T12:57:18Z</time></trkpt><trkpt lat="44.90569451556813" lon="9.668923981578189"><ele>171.0</ele><time>2026-05-04T12:57:21Z</time></trkpt><trkpt lat="44.905642430282825" lon="9.668856355698077"><ele>171.0</ele><time>2026-05-04T12:57:28Z</time></trkpt><trkpt lat="44.90557031571143" lon="9.668812283873404"><ele>171.0</ele><time>2026-05-04T12:57:29Z</time></trkpt><trkpt lat="44.90543986479548" lon="9.668704635870556"><ele>171.0</ele><time>2026-05-04T12:57:30Z</time></trkpt><trkpt lat="44.9053404198176" lon="9.668624763360688"><ele>171.0</ele><time>2026-05-04T12:57:31Z</time></trkpt><trkpt lat="44.90524047134456" lon="9.66853582484577"><ele>172.0</ele><time>2026-05-04T12:57:32Z</time></trkpt><trkpt lat="44.90515316761184" lon="9.668447325131055"><ele>173.0</ele><time>2026-05-04T12:57:33Z</time></trkpt><trkpt lat="44.90506146456771" lon="9.668343504014942"><ele>174.0</ele><time>2026-05-04T12:57:34Z</time></trkpt><trkpt lat="44.9049764314605" lon="9.66823236749434"><ele>175.0</ele><time>2026-05-04T12:57:35Z</time></trkpt><trkpt lat="44.90489589543085" lon="9.66812688758415"><ele>175.0</ele><time>2026-05-04T12:57:36Z</time></trkpt><trkpt lat="44.90483313392124" lon="9.668010207757574"><ele>175.0</ele><time>2026-05-04T12:57:37Z</time></trkpt><trkpt lat="44.904773730942544" lon="9.667896268694827"><ele>175.0</ele><time>2026-05-04T12:57:38Z</time></trkpt><trkpt lat="44.904719366460945" lon="9.66779062974085"><ele>175.0</ele><time>2026-05-04T12:57:39Z</time></trkpt><trkpt lat="44.904670101118334" lon="9.667700564243288"><ele>175.0</ele><time>2026-05-04T12:57:40Z</time></trkpt><trkpt lat="44.90462598034818" lon="9.66762424726138"><ele>175.0</ele><time>2026-05-04T12:57:41Z</time></trkpt><trkpt lat="44.904590229952674" lon="9.667549800228683"><ele>175.16666666666669</ele><time>2026-05-04T12:57:42Z</time></trkpt><trkpt lat="44.90451345754657" lon="9.667425965230937"><ele>175.33333333333334</ele><time>2026-05-04T12:57:44Z</time></trkpt><trkpt lat="44.904471135133754" lon="9.66734676475895"><ele>175.5</ele><time>2026-05-04T12:57:45Z</time></trkpt><trkpt lat="44.90442061522993" lon="9.667281779744942"><ele>175.66666666666666</ele><time>2026-05-04T12:57:46Z</time></trkpt><trkpt lat="44.90436277906361" lon="9.667226705914429"><ele>175.83333333333331</ele><time>2026-05-04T12:57:47Z</time></trkpt><trkpt lat="44.90429262489715" lon="9.66717447352637"><ele>176.0</ele><time>2026-05-04T12:57:48Z</time></trkpt><trkpt lat="44.904151536641834" lon="9.667074527059164"><ele>176.0</ele><time>2026-05-04T12:57:50Z</time></trkpt><trkpt lat="44.90406984155266" lon="9.667034539180134"><ele>176.0</ele><time>2026-05-04T12:57:51Z</time></trkpt><trkpt lat="44.90399456759428" lon="9.66701522510668"><ele>176.0</ele><time>2026-05-04T12:57:52Z</time></trkpt><trkpt lat="44.9038831465954" lon="9.66698804156359"><ele>176.0</ele><time>2026-05-04T12:57:53Z</time></trkpt><trkpt lat="44.90377063286812" lon="9.666972602013844"><ele>176.0</ele><time>2026-05-04T12:57:54Z</time></trkpt><trkpt lat="44.90368511346804" lon="9.666958588070148"><ele>176.0</ele><time>2026-05-04T12:57:55Z</time></trkpt><trkpt lat="44.903585446543964" lon="9.666961905309801"><ele>176.0</ele><time>2026-05-04T12:57:56Z</time></trkpt><trkpt lat="44.90349567210686" lon="9.666924214853031"><ele>176.0</ele><time>2026-05-04T12:57:57.001Z</time></trkpt><trkpt lat="44.90339698577235" lon="9.666883644501253"><ele>176.0</ele><time>2026-05-04T12:57:58.001Z</time></trkpt><trkpt lat="44.90329836949101" lon="9.66682592223202"><ele>176.0</ele><time>2026-05-04T12:57:59Z</time></trkpt><trkpt lat="44.90320625070218" lon="9.666750782803476"><ele>176.5</ele><time>2026-05-04T12:58:00Z</time></trkpt><trkpt lat="44.90312761967853" lon="9.666677329615151"><ele>177.0</ele><time>2026-05-04T12:58:01Z</time></trkpt><trkpt lat="44.90306409429352" lon="9.666594824483925"><ele>177.5</ele><time>2026-05-04T12:58:02Z</time></trkpt><trkpt lat="44.90300417462057" lon="9.666503884862994"><ele>178.0</ele><time>2026-05-04T12:58:03Z</time></trkpt><trkpt lat="44.902947105560465" lon="9.66640133968902"><ele>178.5</ele><time>2026-05-04T12:58:04Z</time></trkpt><trkpt lat="44.90289776364741" lon="9.666301217670203"><ele>179.0</ele><time>2026-05-04T12:58:05Z</time></trkpt><trkpt lat="44.90284577343175" lon="9.666209055362229"><ele>179.6</ele><time>2026-05-04T12:58:06Z</time></trkpt><trkpt lat="44.90276905368894" lon="9.66609806012554"><ele>180.2</ele><time>2026-05-04T12:58:08Z</time></trkpt><trkpt lat="44.90276513680426" lon="9.665986426128692"><ele>180.79999999999998</ele><time>2026-05-04T12:58:11Z</time></trkpt><trkpt lat="44.90284700931346" lon="9.665961252610636"><ele>181.39999999999998</ele><time>2026-05-04T12:58:13Z</time></trkpt><trkpt lat="44.90292115678996" lon="9.665973851541322"><ele>182.0</ele><time>2026-05-04T12:58:14Z</time></trkpt><trkpt lat="44.90302013775456" lon="9.665891089373371"><ele>182.0</ele><time>2026-05-04T12:58:16Z</time></trkpt><trkpt lat="44.903068731816504" lon="9.665803269107519"><ele>182.0</ele><time>2026-05-04T12:58:17Z</time></trkpt><trkpt lat="44.90310686874575" lon="9.665696271362703"><ele>182.0</ele><time>2026-05-04T12:58:18Z</time></trkpt><trkpt lat="44.90315195579713" lon="9.665588487238013"><ele>182.0</ele><time>2026-05-04T12:58:19Z</time></trkpt><trkpt lat="44.903208915571774" lon="9.665499177756077"><ele>182.0</ele><time>2026-05-04T12:58:20Z</time></trkpt><trkpt lat="44.90326818919395" lon="9.665417823469332"><ele>182.0</ele><time>2026-05-04T12:58:21Z</time></trkpt><trkpt lat="44.90333197880826" lon="9.665342113075493"><ele>182.0</ele><time>2026-05-04T12:58:22Z</time></trkpt><trkpt lat="44.90338253360913" lon="9.665249346438577"><ele>182.0</ele><time>2026-05-04T12:58:23Z</time></trkpt><trkpt lat="44.90342481808913" lon="9.665149578168847"><ele>182.0</ele><time>2026-05-04T12:58:24Z</time></trkpt><trkpt lat="44.90346156697352" lon="9.66504589193201"><ele>182.0</ele><time>2026-05-04T12:58:25Z</time></trkpt><trkpt lat="44.90349013947841" lon="9.664939909520971"><ele>182.0</ele><time>2026-05-04T12:58:26Z</time></trkpt><trkpt lat="44.90351959146149" lon="9.664831084772157"><ele>182.0</ele><time>2026-05-04T12:58:27Z</time></trkpt><trkpt lat="44.90355196913785" lon="9.664730658161744"><ele>182.0</ele><time>2026-05-04T12:58:28Z</time></trkpt><trkpt lat="44.90358014198387" lon="9.664626506628101"><ele>182.0</ele><time>2026-05-04T12:58:29Z</time></trkpt><trkpt lat="44.90360675499327" lon="9.664523785655255"><ele>182.0</ele><time>2026-05-04T12:58:30Z</time></trkpt><trkpt lat="44.90363553111535" lon="9.664431464815957"><ele>182.0</ele><time>2026-05-04T12:58:31Z</time></trkpt><trkpt lat="44.90367042204777" lon="9.664338818523031"><ele>182.0</ele><time>2026-05-04T12:58:32Z</time></trkpt><trkpt lat="44.90370425576591" lon="9.664225416693613"><ele>182.0</ele><time>2026-05-04T12:58:33Z</time></trkpt><trkpt lat="44.90373374871181" lon="9.664096535982981"><ele>181.8</ele><time>2026-05-04T12:58:34Z</time></trkpt><trkpt lat="44.903768334526056" lon="9.663960998800764"><ele>181.6</ele><time>2026-05-04T12:58:35Z</time></trkpt><trkpt lat="44.90380679849605" lon="9.663811789451902"><ele>181.4</ele><time>2026-05-04T12:58:36Z</time></trkpt><trkpt lat="44.90384235270875" lon="9.66366642675331"><ele>181.20000000000002</ele><time>2026-05-04T12:58:37Z</time></trkpt><trkpt lat="44.90386999995948" lon="9.663536315445969"><ele>181.0</ele><time>2026-05-04T12:58:38Z</time></trkpt><trkpt lat="44.903887352440435" lon="9.663426220167887"><ele>180.8</ele><time>2026-05-04T12:58:39Z</time></trkpt><trkpt lat="44.90390498290062" lon="9.663331051414048"><ele>180.60000000000002</ele><time>2026-05-04T12:58:40Z</time></trkpt><trkpt lat="44.90392700514459" lon="9.663220212012963"><ele>180.4</ele><time>2026-05-04T12:58:42Z</time></trkpt><trkpt lat="44.90390292352496" lon="9.663114269025483"><ele>180.2</ele><time>2026-05-04T12:58:48Z</time></trkpt><trkpt lat="44.90379049061145" lon="9.663054445134808"><ele>180.0</ele><time>2026-05-04T12:58:50Z</time></trkpt><trkpt lat="44.90368802704839" lon="9.663066610739925"><ele>180.0</ele><time>2026-05-04T12:58:51Z</time></trkpt><trkpt lat="44.903573761001965" lon="9.663070849792678"><ele>180.0</ele><time>2026-05-04T12:58:52Z</time></trkpt><trkpt lat="44.9034474240643" lon="9.663070948822282"><ele>180.0</ele><time>2026-05-04T12:58:53Z</time></trkpt><trkpt lat="44.90330925868639" lon="9.663067179240699"><ele>180.0</ele><time>2026-05-04T12:58:54Z</time></trkpt><trkpt lat="44.903159539803234" lon="9.663058504999382"><ele>180.33333333333334</ele><time>2026-05-04T12:58:55Z</time></trkpt><trkpt lat="44.90300975420979" lon="9.663057976696459"><ele>180.66666666666669</ele><time>2026-05-04T12:58:56Z</time></trkpt><trkpt lat="44.902851971074135" lon="9.663047203088476"><ele>181.0</ele><time>2026-05-04T12:58:57Z</time></trkpt><trkpt lat="44.9026936435517" lon="9.66301663159162"><ele>181.33333333333334</ele><time>2026-05-04T12:58:58Z</time></trkpt><trkpt lat="44.90253069216762" lon="9.662967073350398"><ele>181.66666666666666</ele><time>2026-05-04T12:58:59Z</time></trkpt><trkpt lat="44.902362132236185" lon="9.662903970586669"><ele>182.0</ele><time>2026-05-04T12:59:00Z</time></trkpt><trkpt lat="44.902204793431544" lon="9.662824392621161"><ele>182.0</ele><time>2026-05-04T12:59:01Z</time></trkpt><trkpt lat="44.90205419981255" lon="9.662740224354863"><ele>182.0</ele><time>2026-05-04T12:59:02Z</time></trkpt><trkpt lat="44.901902412716176" lon="9.66266009710096"><ele>182.0</ele><time>2026-05-04T12:59:03Z</time></trkpt><trkpt lat="44.901746028295605" lon="9.662584132407105"><ele>182.0</ele><time>2026-05-04T12:59:04Z</time></trkpt><trkpt lat="44.9015954875271" lon="9.662498252640967"><ele>182.0</ele><time>2026-05-04T12:59:05Z</time></trkpt><trkpt lat="44.90144795132357" lon="9.662408550565555"><ele>182.0</ele><time>2026-05-04T12:59:06Z</time></trkpt><trkpt lat="44.9013051384306" lon="9.662313930047798"><ele>182.0</ele><time>2026-05-04T12:59:07Z</time></trkpt><trkpt lat="44.901171282566324" lon="9.66221470830905"><ele>182.0</ele><time>2026-05-04T12:59:08Z</time></trkpt><trkpt lat="44.901035956114384" lon="9.662103495401764"><ele>182.0</ele><time>2026-05-04T12:59:09Z</time></trkpt><trkpt lat="44.9009028615475" lon="9.66199384480697"><ele>183.33333333333331</ele><time>2026-05-04T12:59:10Z</time></trkpt><trkpt lat="44.90076759956419" lon="9.661879098496776"><ele>184.66666666666666</ele><time>2026-05-04T12:59:11Z</time></trkpt><trkpt lat="44.900628079368055" lon="9.661764271348272"><ele>186.0</ele><time>2026-05-04T12:59:12Z</time></trkpt><trkpt lat="44.90048510837597" lon="9.661664314317278"><ele>186.0</ele><time>2026-05-04T12:59:13Z</time></trkpt><trkpt lat="44.90034066443832" lon="9.661574755034046"><ele>186.0</ele><time>2026-05-04T12:59:14Z</time></trkpt><trkpt lat="44.9001959454899" lon="9.661487270899174"><ele>186.0</ele><time>2026-05-04T12:59:15Z</time></trkpt><trkpt lat="44.900056160303734" lon="9.66140106208029"><ele>186.0</ele><time>2026-05-04T12:59:16Z</time></trkpt><trkpt lat="44.89992520001811" lon="9.66131165492745"><ele>186.0</ele><time>2026-05-04T12:59:17Z</time></trkpt><trkpt lat="44.89978807534473" lon="9.661221511903932"><ele>186.0</ele><time>2026-05-04T12:59:18Z</time></trkpt><trkpt lat="44.89965270702049" lon="9.661135555197854"><ele>186.0</ele><time>2026-05-04T12:59:19Z</time></trkpt><trkpt lat="44.89951881994616" lon="9.661047821666955"><ele>186.5</ele><time>2026-05-04T12:59:20Z</time></trkpt><trkpt lat="44.899383741302856" lon="9.660954135982735"><ele>187.0</ele><time>2026-05-04T12:59:21Z</time></trkpt><trkpt lat="44.899250395021454" lon="9.660860751350047"><ele>187.5</ele><time>2026-05-04T12:59:22Z</time></trkpt><trkpt lat="44.89912056134256" lon="9.660760986937484"><ele>188.0</ele><time>2026-05-04T12:59:23Z</time></trkpt><trkpt lat="44.898991450054474" lon="9.66066220104861"><ele>188.0</ele><time>2026-05-04T12:59:24Z</time></trkpt><trkpt lat="44.898865507670365" lon="9.660561306272324"><ele>188.0</ele><time>2026-05-04T12:59:25Z</time></trkpt><trkpt lat="44.898742862277714" lon="9.660456107297856"><ele>188.0</ele><time>2026-05-04T12:59:26Z</time></trkpt><trkpt lat="44.89862166621553" lon="9.660352739847275"><ele>188.0</ele><time>2026-05-04T12:59:27Z</time></trkpt><trkpt lat="44.898499285391594" lon="9.660246071182751"><ele>188.0</ele><time>2026-05-04T12:59:28Z</time></trkpt><trkpt lat="44.89837716899203" lon="9.660138757290712"><ele>188.0</ele><time>2026-05-04T12:59:29Z</time></trkpt><trkpt lat="44.89825403844525" lon="9.660033449043762"><ele>188.0</ele><time>2026-05-04T12:59:30Z</time></trkpt><trkpt lat="44.89813301740135" lon="9.659925215531429"><ele>188.0</ele><time>2026-05-04T12:59:31Z</time></trkpt><trkpt lat="44.89801299036387" lon="9.65981142446657"><ele>188.0</ele><time>2026-05-04T12:59:32Z</time></trkpt><trkpt lat="44.897896378433245" lon="9.659692805266534"><ele>188.0</ele><time>2026-05-04T12:59:33Z</time></trkpt><trkpt lat="44.89778466274032" lon="9.65957602179062"><ele>188.0</ele><time>2026-05-04T12:59:34Z</time></trkpt><trkpt lat="44.89767872431532" lon="9.659460566940389"><ele>188.0</ele><time>2026-05-04T12:59:35Z</time></trkpt><trkpt lat="44.897572049704884" lon="9.659362031854634"><ele>189.0</ele><time>2026-05-04T12:59:36Z</time></trkpt><trkpt lat="44.89746496640783" lon="9.659274811704654"><ele>190.0</ele><time>2026-05-04T12:59:37Z</time></trkpt><trkpt lat="44.89735397341221" lon="9.659189650791937"><ele>191.0</ele><time>2026-05-04T12:59:38Z</time></trkpt><trkpt lat="44.897239716103826" lon="9.659103416073334"><ele>192.0</ele><time>2026-05-04T12:59:39Z</time></trkpt><trkpt lat="44.89712772438786" lon="9.65902123465356"><ele>192.0</ele><time>2026-05-04T12:59:40Z</time></trkpt><trkpt lat="44.89701474669363" lon="9.658937518716495"><ele>192.0</ele><time>2026-05-04T12:59:41Z</time></trkpt><trkpt lat="44.896901799011886" lon="9.658856317591175"><ele>192.0</ele><time>2026-05-04T12:59:42Z</time></trkpt><trkpt lat="44.89679035451658" lon="9.65877649265319"><ele>192.0</ele><time>2026-05-04T12:59:43Z</time></trkpt><trkpt lat="44.89668768701174" lon="9.65869385838811"><ele>192.6</ele><time>2026-05-04T12:59:44Z</time></trkpt><trkpt lat="44.89658923125157" lon="9.658613015853916"><ele>193.2</ele><time>2026-05-04T12:59:45Z</time></trkpt><trkpt lat="44.89649072193128" lon="9.658537956864773"><ele>193.8</ele><time>2026-05-04T12:59:46Z</time></trkpt><trkpt lat="44.89639727837448" lon="9.658459602517603"><ele>194.4</ele><time>2026-05-04T12:59:47Z</time></trkpt><trkpt lat="44.89630856490704" lon="9.65838564450635"><ele>195.0</ele><time>2026-05-04T12:59:48Z</time></trkpt><trkpt lat="44.8962141128896" lon="9.658310281267504"><ele>195.0</ele><time>2026-05-04T12:59:49Z</time></trkpt><trkpt lat="44.89612004332342" lon="9.658230597653393"><ele>195.0</ele><time>2026-05-04T12:59:50Z</time></trkpt><trkpt lat="44.896023142495686" lon="9.658141245929095"><ele>195.0</ele><time>2026-05-04T12:59:51Z</time></trkpt><trkpt lat="44.895932812959906" lon="9.65804353236358"><ele>195.0</ele><time>2026-05-04T12:59:52Z</time></trkpt><trkpt lat="44.895838786933936" lon="9.657941629238639"><ele>194.75</ele><time>2026-05-04T12:59:53Z</time></trkpt><trkpt lat="44.8957394446592" lon="9.65784333703081"><ele>194.5</ele><time>2026-05-04T12:59:54Z</time></trkpt><trkpt lat="44.89563523355303" lon="9.657758123201022"><ele>194.25</ele><time>2026-05-04T12:59:55Z</time></trkpt><trkpt lat="44.895533809934165" lon="9.657689127215734"><ele>194.0</ele><time>2026-05-04T12:59:56Z</time></trkpt><trkpt lat="44.89543746351086" lon="9.657625466507124"><ele>193.75</ele><time>2026-05-04T12:59:57Z</time></trkpt><trkpt lat="44.8953467823216" lon="9.65756648833984"><ele>193.5</ele><time>2026-05-04T12:59:58Z</time></trkpt><trkpt lat="44.89526237103668" lon="9.657509355823436"><ele>193.25</ele><time>2026-05-04T12:59:59.001Z</time></trkpt><trkpt lat="44.89511100868897" lon="9.657419129932032"><ele>193.0</ele><time>2026-05-04T13:00:01Z</time></trkpt><trkpt lat="44.895014933086856" lon="9.65734061493357"><ele>192.99999999999997</ele><time>2026-05-04T13:00:03Z</time></trkpt><trkpt lat="44.89499479561727" lon="9.657247793804318"><ele>193.0</ele><time>2026-05-04T13:00:05Z</time></trkpt><trkpt lat="44.89503633223284" lon="9.657141625018763"><ele>193.0</ele><time>2026-05-04T13:00:07Z</time></trkpt><trkpt lat="44.89507825033969" lon="9.657069067950957"><ele>193.0</ele><time>2026-05-04T13:00:08Z</time></trkpt><trkpt lat="44.89513053045507" lon="9.656988643937328"><ele>192.99999999999997</ele><time>2026-05-04T13:00:09Z</time></trkpt><trkpt lat="44.89518315742243" lon="9.656880204923278"><ele>193.0</ele><time>2026-05-04T13:00:10Z</time></trkpt><trkpt lat="44.89523849398709" lon="9.656761336160999"><ele>193.0</ele><time>2026-05-04T13:00:11Z</time></trkpt><trkpt lat="44.89528913723457" lon="9.656642231753937"><ele>193.0</ele><time>2026-05-04T13:00:12Z</time></trkpt><trkpt lat="44.89533586438525" lon="9.656530689283551"><ele>193.0</ele><time>2026-05-04T13:00:13Z</time></trkpt><trkpt lat="44.895387551807524" lon="9.656418303642619"><ele>193.0</ele><time>2026-05-04T13:00:14Z</time></trkpt><trkpt lat="44.895448564777176" lon="9.656307285988207"><ele>193.0</ele><time>2026-05-04T13:00:15Z</time></trkpt><trkpt lat="44.89551576882151" lon="9.656192573241322"><ele>193.4</ele><time>2026-05-04T13:00:16Z</time></trkpt><trkpt lat="44.89558251299011" lon="9.656067823935098"><ele>193.8</ele><time>2026-05-04T13:00:17Z</time></trkpt><trkpt lat="44.8956545980078" lon="9.655935905947189"><ele>194.2</ele><time>2026-05-04T13:00:18Z</time></trkpt><trkpt lat="44.89572408868609" lon="9.655811360692915"><ele>194.6</ele><time>2026-05-04T13:00:19Z</time></trkpt><trkpt lat="44.89578752592211" lon="9.655700537449702"><ele>195.0</ele><time>2026-05-04T13:00:20Z</time></trkpt><trkpt lat="44.89584146837418" lon="9.655583413550032"><ele>195.0</ele><time>2026-05-04T13:00:21Z</time></trkpt><trkpt lat="44.895878534655516" lon="9.655443905822882"><ele>195.0</ele><time>2026-05-04T13:00:22Z</time></trkpt><trkpt lat="44.89590088885537" lon="9.65530256685707"><ele>195.0</ele><time>2026-05-04T13:00:23Z</time></trkpt><trkpt lat="44.89591179082519" lon="9.655153365488449"><ele>195.0</ele><time>2026-05-04T13:00:24Z</time></trkpt><trkpt lat="44.89592440882281" lon="9.654991818355263"><ele>195.0</ele><time>2026-05-04T13:00:25Z</time></trkpt><trkpt lat="44.895933304178214" lon="9.654825091631926"><ele>194.75</ele><time>2026-05-04T13:00:26Z</time></trkpt><trkpt lat="44.89594376233015" lon="9.654656148060349"><ele>194.5</ele><time>2026-05-04T13:00:27Z</time></trkpt><trkpt lat="44.89596300503894" lon="9.654488157310036"><ele>194.25</ele><time>2026-05-04T13:00:28Z</time></trkpt><trkpt lat="44.895997063305366" lon="9.654315330824621"><ele>194.0</ele><time>2026-05-04T13:00:29Z</time></trkpt><trkpt lat="44.896047589177144" lon="9.654143568991117"><ele>195.0</ele><time>2026-05-04T13:00:30Z</time></trkpt><trkpt lat="44.89610283655137" lon="9.653971495096402"><ele>196.0</ele><time>2026-05-04T13:00:31Z</time></trkpt><trkpt lat="44.89616564521657" lon="9.653802487034682"><ele>197.0</ele><time>2026-05-04T13:00:32Z</time></trkpt><trkpt lat="44.89622844254319" lon="9.653637988250475"><ele>198.0</ele><time>2026-05-04T13:00:33Z</time></trkpt><trkpt lat="44.896291612968085" lon="9.653472442229186"><ele>199.25</ele><time>2026-05-04T13:00:34Z</time></trkpt><trkpt lat="44.89635811683237" lon="9.65330999740919"><ele>200.5</ele><time>2026-05-04T13:00:35Z</time></trkpt><trkpt lat="44.89642796401286" lon="9.653148602218332"><ele>201.75</ele><time>2026-05-04T13:00:36Z</time></trkpt><trkpt lat="44.896499010686945" lon="9.65299158383445"><ele>203.0</ele><time>2026-05-04T13:00:37Z</time></trkpt><trkpt lat="44.896571902385126" lon="9.65283463793983"><ele>204.8</ele><time>2026-05-04T13:00:38Z</time></trkpt><trkpt lat="44.896640999715025" lon="9.652678682069386"><ele>206.60000000000002</ele><time>2026-05-04T13:00:39Z</time></trkpt><trkpt lat="44.89668896890252" lon="9.65252671961124"><ele>208.39999999999998</ele><time>2026-05-04T13:00:40Z</time></trkpt><trkpt lat="44.89670490338962" lon="9.652392999897453"><ele>210.2</ele><time>2026-05-04T13:00:41Z</time></trkpt><trkpt lat="44.89673274184455" lon="9.652276216513112"><ele>212.0</ele><time>2026-05-04T13:00:42Z</time></trkpt><trkpt lat="44.89677904987436" lon="9.652176197660953"><ele>213.66666666666669</ele><time>2026-05-04T13:00:43Z</time></trkpt><trkpt lat="44.89686403491177" lon="9.652111186611451"><ele>215.33333333333334</ele><time>2026-05-04T13:00:44Z</time></trkpt><trkpt lat="44.89695835700913" lon="9.652099142888085"><ele>217.0</ele><time>2026-05-04T13:00:45Z</time></trkpt><trkpt lat="44.897031921534804" lon="9.652113018484442"><ele>218.66666666666669</ele><time>2026-05-04T13:00:46Z</time></trkpt><trkpt lat="44.89712944410255" lon="9.652050931587166"><ele>220.33333333333334</ele><time>2026-05-04T13:00:48Z</time></trkpt><trkpt lat="44.89714554457391" lon="9.651944844977365"><ele>222.0</ele><time>2026-05-04T13:00:49Z</time></trkpt><trkpt lat="44.8971310963359" lon="9.65180249474642"><ele>223.83333333333334</ele><time>2026-05-04T13:00:50Z</time></trkpt><trkpt lat="44.897111019057306" lon="9.651677787072233"><ele>225.66666666666669</ele><time>2026-05-04T13:00:51Z</time></trkpt><trkpt lat="44.897109945861644" lon="9.651584996412614"><ele>227.5</ele><time>2026-05-04T13:00:52Z</time></trkpt><trkpt lat="44.8971287386067" lon="9.651492655034366"><ele>229.33333333333334</ele><time>2026-05-04T13:00:53Z</time></trkpt><trkpt lat="44.89722308115859" lon="9.651425008848078"><ele>231.16666666666669</ele><time>2026-05-04T13:00:55Z</time></trkpt><trkpt lat="44.897292622623034" lon="9.65140356365674"><ele>233.0</ele><time>2026-05-04T13:00:56Z</time></trkpt><trkpt lat="44.8973487276138" lon="9.651355152495979"><ele>233.0</ele><time>2026-05-04T13:00:57Z</time></trkpt><trkpt lat="44.897387714828355" lon="9.651272950568995"><ele>233.0</ele><time>2026-05-04T13:00:58Z</time></trkpt><trkpt lat="44.89740584790614" lon="9.651126974911294"><ele>233.0</ele><time>2026-05-04T13:01:00Z</time></trkpt><trkpt lat="44.89735475684663" lon="9.650971766100346"><ele>233.0</ele><time>2026-05-04T13:01:02Z</time></trkpt><trkpt lat="44.897298523409084" lon="9.650890412139754"><ele>233.0</ele><time>2026-05-04T13:01:03Z</time></trkpt><trkpt lat="44.89724440167319" lon="9.650812200450096"><ele>234.4</ele><time>2026-05-04T13:01:04Z</time></trkpt><trkpt lat="44.897165881599484" lon="9.650738602975329"><ele>235.8</ele><time>2026-05-04T13:01:05Z</time></trkpt><trkpt lat="44.897082676098655" lon="9.650709174670567"><ele>237.2</ele><time>2026-05-04T13:01:06Z</time></trkpt><trkpt lat="44.89697209647008" lon="9.650710001208314"><ele>238.6</ele><time>2026-05-04T13:01:07Z</time></trkpt><trkpt lat="44.89685723353531" lon="9.650736064612984"><ele>240.0</ele><time>2026-05-04T13:01:08Z</time></trkpt><trkpt lat="44.89674054657851" lon="9.650772425197417"><ele>240.25</ele><time>2026-05-04T13:01:09Z</time></trkpt><trkpt lat="44.896624495045195" lon="9.650796100303598"><ele>240.5</ele><time>2026-05-04T13:01:10Z</time></trkpt><trkpt lat="44.896497150713344" lon="9.650802483763533"><ele>240.75</ele><time>2026-05-04T13:01:11Z</time></trkpt><trkpt lat="44.89636871633289" lon="9.65078206992327"><ele>241.0</ele><time>2026-05-04T13:01:12Z</time></trkpt><trkpt lat="44.89625310100422" lon="9.65074510248147"><ele>241.0</ele><time>2026-05-04T13:01:13Z</time></trkpt><trkpt lat="44.89613165795481" lon="9.650699954966367"><ele>241.0</ele><time>2026-05-04T13:01:14Z</time></trkpt><trkpt lat="44.896005546620984" lon="9.650641056688269"><ele>241.0</ele><time>2026-05-04T13:01:15Z</time></trkpt><trkpt lat="44.89588164576486" lon="9.650571481830504"><ele>241.0</ele><time>2026-05-04T13:01:16Z</time></trkpt><trkpt lat="44.895757492239284" lon="9.650491522200094"><ele>241.75</ele><time>2026-05-04T13:01:17Z</time></trkpt><trkpt lat="44.8956460333255" lon="9.65039418350042"><ele>242.5</ele><time>2026-05-04T13:01:18Z</time></trkpt><trkpt lat="44.89554171344843" lon="9.650281148057394"><ele>243.25</ele><time>2026-05-04T13:01:19Z</time></trkpt><trkpt lat="44.89543482784085" lon="9.650157588005026"><ele>244.0</ele><time>2026-05-04T13:01:20Z</time></trkpt><trkpt lat="44.895325541414344" lon="9.650029215951196"><ele>244.0</ele><time>2026-05-04T13:01:21Z</time></trkpt><trkpt lat="44.895211952435254" lon="9.649904152853669"><ele>244.0</ele><time>2026-05-04T13:01:22Z</time></trkpt><trkpt lat="44.89510042663111" lon="9.649781125549454"><ele>244.0</ele><time>2026-05-04T13:01:23Z</time></trkpt><trkpt lat="44.89498812434948" lon="9.649668308569094"><ele>244.0</ele><time>2026-05-04T13:01:24Z</time></trkpt><trkpt lat="44.89487461203389" lon="9.64958347004599"><ele>243.75</ele><time>2026-05-04T13:01:25Z</time></trkpt><trkpt lat="44.89476452738808" lon="9.649510594033757"><ele>243.5</ele><time>2026-05-04T13:01:26Z</time></trkpt><trkpt lat="44.89464825487451" lon="9.649450865891618"><ele>243.25</ele><time>2026-05-04T13:01:27Z</time></trkpt><trkpt lat="44.894516616936556" lon="9.649404480998495"><ele>243.0</ele><time>2026-05-04T13:01:28Z</time></trkpt><trkpt lat="44.894379728052385" lon="9.649359378607752"><ele>244.66666666666669</ele><time>2026-05-04T13:01:29Z</time></trkpt><trkpt lat="44.894242907959324" lon="9.649289818454434"><ele>246.33333333333334</ele><time>2026-05-04T13:01:30Z</time></trkpt><trkpt lat="44.89410387679573" lon="9.649195147350962"><ele>248.0</ele><time>2026-05-04T13:01:31Z</time></trkpt><trkpt lat="44.89396303482681" lon="9.64909559361358"><ele>248.0</ele><time>2026-05-04T13:01:32Z</time></trkpt><trkpt lat="44.89381966135418" lon="9.648993476446522"><ele>248.0</ele><time>2026-05-04T13:01:33Z</time></trkpt><trkpt lat="44.89367484424263" lon="9.648891946606613"><ele>248.0</ele><time>2026-05-04T13:01:34Z</time></trkpt><trkpt lat="44.893533253630956" lon="9.64877947171445"><ele>247.0</ele><time>2026-05-04T13:01:35Z</time></trkpt><trkpt lat="44.893393041610324" lon="9.648658459438634"><ele>246.0</ele><time>2026-05-04T13:01:36Z</time></trkpt><trkpt lat="44.893249558713045" lon="9.648538078615237"><ele>245.0</ele><time>2026-05-04T13:01:37Z</time></trkpt><trkpt lat="44.89311821686685" lon="9.64843591351136"><ele>246.75</ele><time>2026-05-04T13:01:38Z</time></trkpt><trkpt lat="44.8930021389886" lon="9.648343826570882"><ele>248.5</ele><time>2026-05-04T13:01:39Z</time></trkpt><trkpt lat="44.892896445304565" lon="9.648239329687764"><ele>250.25</ele><time>2026-05-04T13:01:40Z</time></trkpt><trkpt lat="44.892797457795524" lon="9.648106912369936"><ele>252.0</ele><time>2026-05-04T13:01:41Z</time></trkpt><trkpt lat="44.89269920533351" lon="9.64796465058665"><ele>252.0</ele><time>2026-05-04T13:01:42Z</time></trkpt><trkpt lat="44.892609648918445" lon="9.647827112641444"><ele>252.0</ele><time>2026-05-04T13:01:43Z</time></trkpt><trkpt lat="44.89252854797325" lon="9.647706966857852"><ele>252.0</ele><time>2026-05-04T13:01:44Z</time></trkpt><trkpt lat="44.892452097459504" lon="9.647592736793728"><ele>252.0</ele><time>2026-05-04T13:01:45Z</time></trkpt><trkpt lat="44.89237128207198" lon="9.647475501540764"><ele>253.0</ele><time>2026-05-04T13:01:46Z</time></trkpt><trkpt lat="44.892296730205736" lon="9.647361546830352"><ele>254.0</ele><time>2026-05-04T13:01:47Z</time></trkpt><trkpt lat="44.892232201843115" lon="9.647252179250788"><ele>255.0</ele><time>2026-05-04T13:01:48Z</time></trkpt><trkpt lat="44.892175751419565" lon="9.647129210649357"><ele>256.0</ele><time>2026-05-04T13:01:49Z</time></trkpt><trkpt lat="44.89214176959684" lon="9.646984709262407"><ele>257.0</ele><time>2026-05-04T13:01:50Z</time></trkpt><trkpt lat="44.89213543703008" lon="9.646831041382612"><ele>258.0</ele><time>2026-05-04T13:01:51Z</time></trkpt><trkpt lat="44.8921284682838" lon="9.646691929912494"><ele>259.0</ele><time>2026-05-04T13:01:52Z</time></trkpt><trkpt lat="44.892108402122155" lon="9.646552578007075"><ele>260.0</ele><time>2026-05-04T13:01:53Z</time></trkpt><trkpt lat="44.89206052030809" lon="9.646416841889513"><ele>261.0</ele><time>2026-05-04T13:01:54Z</time></trkpt><trkpt lat="44.89199128182387" lon="9.646301770580148"><ele>262.0</ele><time>2026-05-04T13:01:55Z</time></trkpt><trkpt lat="44.8919305935176" lon="9.64619038380745"><ele>262.8</ele><time>2026-05-04T13:01:56Z</time></trkpt><trkpt lat="44.89187120870242" lon="9.646087811291672"><ele>263.6</ele><time>2026-05-04T13:01:57Z</time></trkpt><trkpt lat="44.891790755338114" lon="9.646010134613059"><ele>264.40000000000003</ele><time>2026-05-04T13:01:58Z</time></trkpt><trkpt lat="44.891695039641576" lon="9.645948187698561"><ele>265.2</ele><time>2026-05-04T13:01:59Z</time></trkpt><trkpt lat="44.891598684981794" lon="9.645884725643034"><ele>266.0</ele><time>2026-05-04T13:02:00Z</time></trkpt><trkpt lat="44.89150086020342" lon="9.645808458405119"><ele>266.0</ele><time>2026-05-04T13:02:01Z</time></trkpt><trkpt lat="44.8914042947883" lon="9.645719440358455"><ele>266.0</ele><time>2026-05-04T13:02:02Z</time></trkpt><trkpt lat="44.89130609125735" lon="9.645613487619613"><ele>266.0</ele><time>2026-05-04T13:02:03Z</time></trkpt><trkpt lat="44.89121270379578" lon="9.645501686638802"><ele>266.0</ele><time>2026-05-04T13:02:04Z</time></trkpt><trkpt lat="44.89111835386146" lon="9.645388603011739"><ele>267.75</ele><time>2026-05-04T13:02:05Z</time></trkpt><trkpt lat="44.891027113234514" lon="9.645278247310415"><ele>269.5</ele><time>2026-05-04T13:02:06Z</time></trkpt><trkpt lat="44.8909429931212" lon="9.64516542919048"><ele>271.25</ele><time>2026-05-04T13:02:07Z</time></trkpt><trkpt lat="44.890843833169335" lon="9.645066802388813"><ele>273.0</ele><time>2026-05-04T13:02:08Z</time></trkpt><trkpt lat="44.89073564564038" lon="9.644983632708156"><ele>273.75</ele><time>2026-05-04T13:02:09Z</time></trkpt><trkpt lat="44.89062223771783" lon="9.644902015352473"><ele>274.5</ele><time>2026-05-04T13:02:10Z</time></trkpt><trkpt lat="44.890503907725616" lon="9.644812851603316"><ele>275.25</ele><time>2026-05-04T13:02:11Z</time></trkpt><trkpt lat="44.89038376610037" lon="9.644720473749572"><ele>276.0</ele><time>2026-05-04T13:02:12Z</time></trkpt><trkpt lat="44.89027900786994" lon="9.64462807694808"><ele>276.0</ele><time>2026-05-04T13:02:13Z</time></trkpt><trkpt lat="44.890194632213664" lon="9.644556032412373"><ele>276.0</ele><time>2026-05-04T13:02:14.001Z</time></trkpt><trkpt lat="44.89012758644426" lon="9.644497744499427"><ele>276.0</ele><time>2026-05-04T13:02:15Z</time></trkpt><trkpt lat="44.890073387108174" lon="9.644448625017803"><ele>276.0</ele><time>2026-05-04T13:02:16Z</time></trkpt><trkpt lat="44.89001700446333" lon="9.644398935871354"><ele>276.0</ele><time>2026-05-04T13:02:18Z</time></trkpt><trkpt lat="44.88994796637419" lon="9.644368246160667"><ele>276.0</ele><time>2026-05-04T13:02:28Z</time></trkpt><trkpt lat="44.88986683358018" lon="9.644284412421706"><ele>276.8333333333333</ele><time>2026-05-04T13:02:30Z</time></trkpt><trkpt lat="44.88979847183045" lon="9.644237123098252"><ele>277.6666666666667</ele><time>2026-05-04T13:02:31Z</time></trkpt><trkpt lat="44.88972905335994" lon="9.644181452888077"><ele>278.5</ele><time>2026-05-04T13:02:32Z</time></trkpt><trkpt lat="44.88963710291002" lon="9.644117458768877"><ele>279.33333333333337</ele><time>2026-05-04T13:02:34Z</time></trkpt><trkpt lat="44.88956335210358" lon="9.644167661376642"><ele>280.1666666666667</ele><time>2026-05-04T13:02:36Z</time></trkpt><trkpt lat="44.88951987358941" lon="9.644246582043692"><ele>281.0</ele><time>2026-05-04T13:02:37Z</time></trkpt><trkpt lat="44.88946615551515" lon="9.644333042300067"><ele>281.0</ele><time>2026-05-04T13:02:38Z</time></trkpt><trkpt lat="44.8893934031017" lon="9.644399138934887"><ele>281.0</ele><time>2026-05-04T13:02:39Z</time></trkpt><trkpt lat="44.88930302097113" lon="9.644455706895208"><ele>281.0</ele><time>2026-05-04T13:02:40Z</time></trkpt><trkpt lat="44.88920689804472" lon="9.64449345005921"><ele>281.0</ele><time>2026-05-04T13:02:41Z</time></trkpt><trkpt lat="44.88910840234365" lon="9.644526226187194"><ele>281.0</ele><time>2026-05-04T13:02:42Z</time></trkpt><trkpt lat="44.88901743682151" lon="9.64456401526409"><ele>281.0</ele><time>2026-05-04T13:02:43Z</time></trkpt><trkpt lat="44.88893038960763" lon="9.644607304342298"><ele>281.0</ele><time>2026-05-04T13:02:44Z</time></trkpt><trkpt lat="44.88884718564442" lon="9.644653726231704"><ele>281.0</ele><time>2026-05-04T13:02:45Z</time></trkpt><trkpt lat="44.88877613119168" lon="9.644710220216782"><ele>281.0</ele><time>2026-05-04T13:02:46Z</time></trkpt><trkpt lat="44.88871266717845" lon="9.644794934085951"><ele>281.0</ele><time>2026-05-04T13:02:47Z</time></trkpt><trkpt lat="44.88865970312079" lon="9.644909768535099"><ele>281.0</ele><time>2026-05-04T13:02:48Z</time></trkpt><trkpt lat="44.888613941028005" lon="9.645030260914083"><ele>281.0</ele><time>2026-05-04T13:02:49Z</time></trkpt><trkpt lat="44.888578058505544" lon="9.64518076427299"><ele>281.0</ele><time>2026-05-04T13:02:50Z</time></trkpt><trkpt lat="44.8885455457877" lon="9.645354891141343"><ele>281.0</ele><time>2026-05-04T13:02:51Z</time></trkpt><trkpt lat="44.88851402124973" lon="9.645519613543396"><ele>281.0</ele><time>2026-05-04T13:02:52Z</time></trkpt><trkpt lat="44.888479895378794" lon="9.645676350512206"><ele>275.75</ele><time>2026-05-04T13:02:53Z</time></trkpt><trkpt lat="44.8884251796682" lon="9.645823093881257"><ele>270.5</ele><time>2026-05-04T13:02:54Z</time></trkpt><trkpt lat="44.88835512764562" lon="9.645952351236486"><ele>265.25</ele><time>2026-05-04T13:02:55Z</time></trkpt><trkpt lat="44.88828560627261" lon="9.646088071229112"><ele>260.0</ele><time>2026-05-04T13:02:56Z</time></trkpt><trkpt lat="44.88822347507232" lon="9.646216924071348"><ele>257.8</ele><time>2026-05-04T13:02:57Z</time></trkpt><trkpt lat="44.888151088183264" lon="9.646340071886389"><ele>255.6</ele><time>2026-05-04T13:02:58Z</time></trkpt><trkpt lat="44.88807764195859" lon="9.646449067242218"><ele>253.39999999999998</ele><time>2026-05-04T13:02:59Z</time></trkpt><trkpt lat="44.88801203512158" lon="9.646548583452489"><ele>251.2</ele><time>2026-05-04T13:03:00Z</time></trkpt><trkpt lat="44.887943820450595" lon="9.646630483250517"><ele>249.0</ele><time>2026-05-04T13:03:01Z</time></trkpt><trkpt lat="44.8878674024678" lon="9.64670151472845"><ele>249.0</ele><time>2026-05-04T13:03:02Z</time></trkpt><trkpt lat="44.88778181471103" lon="9.646767599072989"><ele>248.99999999999997</ele><time>2026-05-04T13:03:03Z</time></trkpt><trkpt lat="44.88769235614064" lon="9.64681843694541"><ele>248.99999999999997</ele><time>2026-05-04T13:03:04Z</time></trkpt><trkpt lat="44.88759344280028" lon="9.646857964883692"><ele>249.0</ele><time>2026-05-04T13:03:05Z</time></trkpt><trkpt lat="44.88748039989334" lon="9.646894882243894"><ele>249.0</ele><time>2026-05-04T13:03:06Z</time></trkpt><trkpt lat="44.88736735849419" lon="9.646929373251748"><ele>244.0</ele><time>2026-05-04T13:03:07Z</time></trkpt><trkpt lat="44.887250708282856" lon="9.64696473362735"><ele>239.0</ele><time>2026-05-04T13:03:08Z</time></trkpt><trkpt lat="44.887138541063926" lon="9.647010651423372"><ele>234.0</ele><time>2026-05-04T13:03:09Z</time></trkpt><trkpt lat="44.88703798100794" lon="9.64708837184837"><ele>229.0</ele><time>2026-05-04T13:03:10Z</time></trkpt><trkpt lat="44.88695357404395" lon="9.647176595184485"><ele>228.99999999999997</ele><time>2026-05-04T13:03:11Z</time></trkpt><trkpt lat="44.886866279603964" lon="9.64723420136963"><ele>229.0</ele><time>2026-05-04T13:03:12Z</time></trkpt><trkpt lat="44.88677623702322" lon="9.647272910511228"><ele>229.0</ele><time>2026-05-04T13:03:13Z</time></trkpt><trkpt lat="44.88669219977674" lon="9.647285273391189"><ele>229.0</ele><time>2026-05-04T13:03:14Z</time></trkpt><trkpt lat="44.88662368704513" lon="9.647281091378348"><ele>228.99999999999997</ele><time>2026-05-04T13:03:15Z</time></trkpt><trkpt lat="44.88655583127442" lon="9.647329124110279"><ele>229.0</ele><time>2026-05-04T13:03:16Z</time></trkpt><trkpt lat="44.88650448731505" lon="9.647440822822752"><ele>228.0</ele><time>2026-05-04T13:03:17Z</time></trkpt><trkpt lat="44.88645779361976" lon="9.647562014936915"><ele>226.99999999999997</ele><time>2026-05-04T13:03:18Z</time></trkpt><trkpt lat="44.886412250982296" lon="9.64769595206206"><ele>225.99999999999997</ele><time>2026-05-04T13:03:19Z</time></trkpt><trkpt lat="44.886363687643836" lon="9.647825192385952"><ele>225.0</ele><time>2026-05-04T13:03:20Z</time></trkpt><trkpt lat="44.88630708113665" lon="9.647942938208248"><ele>224.0</ele><time>2026-05-04T13:03:21Z</time></trkpt><trkpt lat="44.8862471646959" lon="9.648038329625448"><ele>222.79999999999998</ele><time>2026-05-04T13:03:22Z</time></trkpt><trkpt lat="44.8861713257922" lon="9.648107160947221"><ele>221.59999999999997</ele><time>2026-05-04T13:03:23Z</time></trkpt><trkpt lat="44.88607781777263" lon="9.648157023722979"><ele>220.4</ele><time>2026-05-04T13:03:24Z</time></trkpt><trkpt lat="44.88597575557067" lon="9.648209827920935"><ele>219.2</ele><time>2026-05-04T13:03:25Z</time></trkpt><trkpt lat="44.885870098102195" lon="9.648259715151058"><ele>218.0</ele><time>2026-05-04T13:03:26Z</time></trkpt><trkpt lat="44.885784045647846" lon="9.648298473476043"><ele>216.33333333333334</ele><time>2026-05-04T13:03:27Z</time></trkpt><trkpt lat="44.88570601096092" lon="9.648326445980999"><ele>214.66666666666669</ele><time>2026-05-04T13:03:28Z</time></trkpt><trkpt lat="44.885633833122384" lon="9.64835579385782"><ele>213.0</ele><time>2026-05-04T13:03:29Z</time></trkpt><trkpt lat="44.885564171084674" lon="9.648409089333319"><ele>211.33333333333331</ele><time>2026-05-04T13:03:30Z</time></trkpt><trkpt lat="44.885485708304174" lon="9.648500971591705"><ele>209.66666666666666</ele><time>2026-05-04T13:03:31Z</time></trkpt><trkpt lat="44.88541513245882" lon="9.648613470465024"><ele>208.0</ele><time>2026-05-04T13:03:32Z</time></trkpt><trkpt lat="44.88534504389717" lon="9.648710796397934"><ele>206.83333333333331</ele><time>2026-05-04T13:03:33Z</time></trkpt><trkpt lat="44.885272519512064" lon="9.648800952658224"><ele>205.66666666666666</ele><time>2026-05-04T13:03:34Z</time></trkpt><trkpt lat="44.88520807298918" lon="9.648875832796294"><ele>204.5</ele><time>2026-05-04T13:03:35Z</time></trkpt><trkpt lat="44.885136898349884" lon="9.648961771742584"><ele>203.33333333333331</ele><time>2026-05-04T13:03:37Z</time></trkpt><trkpt lat="44.88507400890432" lon="9.648949655223939"><ele>202.16666666666666</ele><time>2026-05-04T13:03:41Z</time></trkpt><trkpt lat="44.8850360215247" lon="9.648862269447031"><ele>201.0</ele><time>2026-05-04T13:03:42Z</time></trkpt><trkpt lat="44.884989850874724" lon="9.648775560908133"><ele>201.0</ele><time>2026-05-04T13:03:43Z</time></trkpt><trkpt lat="44.88494276444114" lon="9.648693717402974"><ele>201.0</ele><time>2026-05-04T13:03:44Z</time></trkpt><trkpt lat="44.88489746655384" lon="9.648613736267915"><ele>201.0</ele><time>2026-05-04T13:03:45Z</time></trkpt><trkpt lat="44.8848493808227" lon="9.648531823563749"><ele>201.0</ele><time>2026-05-04T13:03:46Z</time></trkpt><trkpt lat="44.88479679517066" lon="9.648458402778472"><ele>201.0</ele><time>2026-05-04T13:03:47Z</time></trkpt><trkpt lat="44.88473806489115" lon="9.64839683659834"><ele>201.0</ele><time>2026-05-04T13:03:48Z</time></trkpt><trkpt lat="44.88467150115902" lon="9.648355556482436"><ele>201.0</ele><time>2026-05-04T13:03:49Z</time></trkpt><trkpt lat="44.884596535723695" lon="9.648322387592788"><ele>201.0</ele><time>2026-05-04T13:03:50Z</time></trkpt><trkpt lat="44.88451072374315" lon="9.648283098798753"><ele>201.0</ele><time>2026-05-04T13:03:51Z</time></trkpt><trkpt lat="44.884418183639966" lon="9.648220379746055"><ele>201.0</ele><time>2026-05-04T13:03:52Z</time></trkpt><trkpt lat="44.88432829851864" lon="9.6481615531245"><ele>201.0</ele><time>2026-05-04T13:03:53Z</time></trkpt><trkpt lat="44.884237690150826" lon="9.648096902566685"><ele>201.0</ele><time>2026-05-04T13:03:54Z</time></trkpt><trkpt lat="44.88414171426145" lon="9.648026808195253"><ele>200.8</ele><time>2026-05-04T13:03:55Z</time></trkpt><trkpt lat="44.88405120575868" lon="9.647959704855127"><ele>200.60000000000002</ele><time>2026-05-04T13:03:56Z</time></trkpt><trkpt lat="44.88396606584898" lon="9.647896048016754"><ele>200.4</ele><time>2026-05-04T13:03:57Z</time></trkpt><trkpt lat="44.88388602465205" lon="9.647838357562673"><ele>200.2</ele><time>2026-05-04T13:03:58Z</time></trkpt><trkpt lat="44.883807229329044" lon="9.647784742276537"><ele>200.0</ele><time>2026-05-04T13:03:59Z</time></trkpt><trkpt lat="44.88372257294441" lon="9.647729656213494"><ele>200.8</ele><time>2026-05-04T13:04:00Z</time></trkpt><trkpt lat="44.88363707634965" lon="9.647668544966912"><ele>201.6</ele><time>2026-05-04T13:04:01Z</time></trkpt><trkpt lat="44.88354945766002" lon="9.647610337000646"><ele>202.39999999999998</ele><time>2026-05-04T13:04:02Z</time></trkpt><trkpt lat="44.883452018542606" lon="9.647542572165573"><ele>203.2</ele><time>2026-05-04T13:04:03Z</time></trkpt><trkpt lat="44.88335458531678" lon="9.647465262942887"><ele>204.0</ele><time>2026-05-04T13:04:04Z</time></trkpt><trkpt lat="44.8832600270358" lon="9.647392184159438"><ele>204.0</ele><time>2026-05-04T13:04:05Z</time></trkpt><trkpt lat="44.8831648296582" lon="9.647321874070238"><ele>204.0</ele><time>2026-05-04T13:04:06Z</time></trkpt><trkpt lat="44.88307375508858" lon="9.647256217890568"><ele>204.0</ele><time>2026-05-04T13:04:07Z</time></trkpt><trkpt lat="44.882986788656225" lon="9.647193375443893"><ele>204.0</ele><time>2026-05-04T13:04:08Z</time></trkpt><trkpt lat="44.88290510120375" lon="9.647136387720158"><ele>204.0</ele><time>2026-05-04T13:04:09Z</time></trkpt><trkpt lat="44.882839446441835" lon="9.647086802156206"><ele>204.0</ele><time>2026-05-04T13:04:10Z</time></trkpt><trkpt lat="44.88276573094804" lon="9.647037053383901"><ele>204.0</ele><time>2026-05-04T13:04:11Z</time></trkpt><trkpt lat="44.882675286016955" lon="9.646981014916031"><ele>204.0</ele><time>2026-05-04T13:04:12.001Z</time></trkpt><trkpt lat="44.88257971932744" lon="9.646913129437367"><ele>204.0</ele><time>2026-05-04T13:04:13.001Z</time></trkpt><trkpt lat="44.8824719888593" lon="9.64683795610251"><ele>204.0</ele><time>2026-05-04T13:04:14Z</time></trkpt><trkpt lat="44.88236011992974" lon="9.646759926424751"><ele>205.25</ele><time>2026-05-04T13:04:15Z</time></trkpt><trkpt lat="44.88224045812778" lon="9.646681319199004"><ele>206.5</ele><time>2026-05-04T13:04:16Z</time></trkpt><trkpt lat="44.882114064323424" lon="9.646590163264703"><ele>207.75</ele><time>2026-05-04T13:04:17Z</time></trkpt><trkpt lat="44.88198626625776" lon="9.646495628864974"><ele>209.0</ele><time>2026-05-04T13:04:18Z</time></trkpt><trkpt lat="44.88185237798863" lon="9.646424109537724"><ele>207.25</ele><time>2026-05-04T13:04:19Z</time></trkpt><trkpt lat="44.88171026624086" lon="9.646388671863232"><ele>205.5</ele><time>2026-05-04T13:04:20Z</time></trkpt><trkpt lat="44.88156143654064" lon="9.64640395985219"><ele>203.75</ele><time>2026-05-04T13:04:21Z</time></trkpt><trkpt lat="44.8814088944112" lon="9.64643861946291"><ele>202.0</ele><time>2026-05-04T13:04:22Z</time></trkpt><trkpt lat="44.881259211078934" lon="9.64648377705132"><ele>202.0</ele><time>2026-05-04T13:04:23.001Z</time></trkpt><trkpt lat="44.88110687463367" lon="9.64653215632445"><ele>202.0</ele><time>2026-05-04T13:04:24Z</time></trkpt><trkpt lat="44.880953754656666" lon="9.646559941745904"><ele>202.0</ele><time>2026-05-04T13:04:25Z</time></trkpt><trkpt lat="44.88079969773397" lon="9.646559066429193"><ele>200.66666666666666</ele><time>2026-05-04T13:04:26Z</time></trkpt><trkpt lat="44.88064837449042" lon="9.646564183169335"><ele>199.33333333333331</ele><time>2026-05-04T13:04:27Z</time></trkpt><trkpt lat="44.88049600062602" lon="9.64657776628895"><ele>198.0</ele><time>2026-05-04T13:04:28Z</time></trkpt><trkpt lat="44.88035043029281" lon="9.646610197941621"><ele>198.0</ele><time>2026-05-04T13:04:29Z</time></trkpt><trkpt lat="44.880221322637105" lon="9.646671645858822"><ele>198.0</ele><time>2026-05-04T13:04:30Z</time></trkpt><trkpt lat="44.880097935305045" lon="9.646766042820753"><ele>198.0</ele><time>2026-05-04T13:04:31Z</time></trkpt><trkpt lat="44.879979569588244" lon="9.646903984115697"><ele>198.0</ele><time>2026-05-04T13:04:32Z</time></trkpt><trkpt lat="44.87986138570996" lon="9.64709318308942"><ele>197.33333333333331</ele><time>2026-05-04T13:04:33Z</time></trkpt><trkpt lat="44.87974898822548" lon="9.647239258316086"><ele>196.66666666666666</ele><time>2026-05-04T13:04:34Z</time></trkpt><trkpt lat="44.879632872621606" lon="9.647378907184518"><ele>196.0</ele><time>2026-05-04T13:04:35Z</time></trkpt><trkpt lat="44.879521443313955" lon="9.647531669372453"><ele>196.0</ele><time>2026-05-04T13:04:36Z</time></trkpt><trkpt lat="44.879426794785125" lon="9.647673471864453"><ele>196.0</ele><time>2026-05-04T13:04:37Z</time></trkpt><trkpt lat="44.879341308859914" lon="9.647804836261173"><ele>196.0</ele><time>2026-05-04T13:04:38Z</time></trkpt><trkpt lat="44.87926012816444" lon="9.647913489230422"><ele>196.0</ele><time>2026-05-04T13:04:39Z</time></trkpt><trkpt lat="44.879179667112155" lon="9.648012315025028"><ele>196.49999999999997</ele><time>2026-05-04T13:04:40Z</time></trkpt><trkpt lat="44.87910970258108" lon="9.648096404403082"><ele>197.0</ele><time>2026-05-04T13:04:41Z</time></trkpt><trkpt lat="44.87904263409066" lon="9.648175632892281"><ele>197.5</ele><time>2026-05-04T13:04:42Z</time></trkpt><trkpt lat="44.87897145238969" lon="9.648221674630014"><ele>198.0</ele><time>2026-05-04T13:04:43Z</time></trkpt><trkpt lat="44.87887886019439" lon="9.64828944428202"><ele>198.49999999999997</ele><time>2026-05-04T13:04:45Z</time></trkpt><trkpt lat="44.87879798304678" lon="9.648328929809162"><ele>199.0</ele><time>2026-05-04T13:04:47Z</time></trkpt><trkpt lat="44.87866088038814" lon="9.64835917557553"><ele>199.0</ele><time>2026-05-04T13:04:49Z</time></trkpt><trkpt lat="44.87856351895889" lon="9.648357146755709"><ele>199.0</ele><time>2026-05-04T13:04:50Z</time></trkpt><trkpt lat="44.87845397016109" lon="9.648357608596381"><ele>199.0</ele><time>2026-05-04T13:04:51Z</time></trkpt><trkpt lat="44.87833906428968" lon="9.64835568071665"><ele>199.0</ele><time>2026-05-04T13:04:52Z</time></trkpt><trkpt lat="44.87820344531753" lon="9.648338809282519"><ele>199.75</ele><time>2026-05-04T13:04:53Z</time></trkpt><trkpt lat="44.878067905258334" lon="9.648302026022554"><ele>200.5</ele><time>2026-05-04T13:04:54Z</time></trkpt><trkpt lat="44.87793731515503" lon="9.648235251944802"><ele>201.25</ele><time>2026-05-04T13:04:55Z</time></trkpt><trkpt lat="44.87779799589835" lon="9.648156319423123"><ele>202.0</ele><time>2026-05-04T13:04:56Z</time></trkpt><trkpt lat="44.877644528247735" lon="9.648059173085024"><ele>201.66666666666666</ele><time>2026-05-04T13:04:57Z</time></trkpt><trkpt lat="44.87749974922774" lon="9.64795809329293"><ele>201.33333333333331</ele><time>2026-05-04T13:04:58Z</time></trkpt><trkpt lat="44.877366471139375" lon="9.647839189520829"><ele>201.0</ele><time>2026-05-04T13:04:59Z</time></trkpt><trkpt lat="44.87722512381316" lon="9.64772331872807"><ele>205.33333333333331</ele><time>2026-05-04T13:05:00Z</time></trkpt><trkpt lat="44.87708732771032" lon="9.647603262481896"><ele>209.66666666666666</ele><time>2026-05-04T13:05:01Z</time></trkpt><trkpt lat="44.87694927228123" lon="9.647478305249608"><ele>214.0</ele><time>2026-05-04T13:05:02Z</time></trkpt><trkpt lat="44.87680962761219" lon="9.64734517433689"><ele>213.33333333333331</ele><time>2026-05-04T13:05:03Z</time></trkpt><trkpt lat="44.87667323065658" lon="9.647202509967377"><ele>212.66666666666669</ele><time>2026-05-04T13:05:04Z</time></trkpt><trkpt lat="44.876533963890815" lon="9.647052197434542"><ele>212.0</ele><time>2026-05-04T13:05:05Z</time></trkpt><trkpt lat="44.876395524090974" lon="9.646894523337842"><ele>212.0</ele><time>2026-05-04T13:05:06Z</time></trkpt><trkpt lat="44.876255563489735" lon="9.64673693486209"><ele>212.0</ele><time>2026-05-04T13:05:07Z</time></trkpt><trkpt lat="44.8761116579403" lon="9.646583062771496"><ele>212.0</ele><time>2026-05-04T13:05:08Z</time></trkpt><trkpt lat="44.875976699247055" lon="9.646422464410755"><ele>212.33333333333334</ele><time>2026-05-04T13:05:09Z</time></trkpt><trkpt lat="44.87584661816154" lon="9.646253331667246"><ele>212.66666666666669</ele><time>2026-05-04T13:05:10Z</time></trkpt><trkpt lat="44.87571325302517" lon="9.646073068351976"><ele>213.0</ele><time>2026-05-04T13:05:11Z</time></trkpt><trkpt lat="44.875588605258706" lon="9.645893158128704"><ele>213.0</ele><time>2026-05-04T13:05:12Z</time></trkpt><trkpt lat="44.875470477968896" lon="9.64571595398114"><ele>213.0</ele><time>2026-05-04T13:05:13Z</time></trkpt><trkpt lat="44.875350985197095" lon="9.645550307377874"><ele>213.0</ele><time>2026-05-04T13:05:14Z</time></trkpt><trkpt lat="44.87523956787906" lon="9.645369369541097"><ele>211.0</ele><time>2026-05-04T13:05:15Z</time></trkpt><trkpt lat="44.875129948432665" lon="9.64519555525846"><ele>209.0</ele><time>2026-05-04T13:05:16Z</time></trkpt><trkpt lat="44.87502864844781" lon="9.645034670650666"><ele>207.0</ele><time>2026-05-04T13:05:17Z</time></trkpt><trkpt lat="44.87493151320957" lon="9.644871218119718"><ele>207.0</ele><time>2026-05-04T13:05:18Z</time></trkpt><trkpt lat="44.87483189926124" lon="9.644697326449954"><ele>207.0</ele><time>2026-05-04T13:05:19Z</time></trkpt><trkpt lat="44.87474109350304" lon="9.644519040315705"><ele>207.0</ele><time>2026-05-04T13:05:20Z</time></trkpt><trkpt lat="44.87465959944862" lon="9.644335540026212"><ele>211.5</ele><time>2026-05-04T13:05:21Z</time></trkpt><trkpt lat="44.87457725563483" lon="9.644175249021893"><ele>216.0</ele><time>2026-05-04T13:05:22Z</time></trkpt><trkpt lat="44.87450673533129" lon="9.64401074198591"><ele>220.5</ele><time>2026-05-04T13:05:23Z</time></trkpt><trkpt lat="44.87444759407006" lon="9.64386229198569"><ele>225.0</ele><time>2026-05-04T13:05:24Z</time></trkpt><trkpt lat="44.87440529935886" lon="9.643748521890922"><ele>225.0</ele><time>2026-05-04T13:05:25Z</time></trkpt><trkpt lat="44.87436350748453" lon="9.643673382764064"><ele>225.0</ele><time>2026-05-04T13:05:26Z</time></trkpt><trkpt lat="44.874306480945556" lon="9.643618316574456"><ele>225.0</ele><time>2026-05-04T13:05:27Z</time></trkpt><trkpt lat="44.87424414361227" lon="9.64360223206547"><ele>225.0</ele><time>2026-05-04T13:05:28Z</time></trkpt><trkpt lat="44.87414376843579" lon="9.643651225554189"><ele>225.0</ele><time>2026-05-04T13:05:29Z</time></trkpt><trkpt lat="44.8740175907336" lon="9.643749398953988"><ele>218.5</ele><time>2026-05-04T13:05:30Z</time></trkpt><trkpt lat="44.873855100544034" lon="9.643770543829946"><ele>212.0</ele><time>2026-05-04T13:05:31Z</time></trkpt><trkpt lat="44.873718894991875" lon="9.643821487458972"><ele>205.5</ele><time>2026-05-04T13:05:32Z</time></trkpt><trkpt lat="44.87358053698368" lon="9.64387357539816"><ele>199.0</ele><time>2026-05-04T13:05:33Z</time></trkpt><trkpt lat="44.87345190368905" lon="9.643924923463352"><ele>199.0</ele><time>2026-05-04T13:05:34Z</time></trkpt><trkpt lat="44.87333592958233" lon="9.64396902835564"><ele>199.0</ele><time>2026-05-04T13:05:35Z</time></trkpt><trkpt lat="44.873233055519535" lon="9.644013743208863"><ele>199.0</ele><time>2026-05-04T13:05:36Z</time></trkpt><trkpt lat="44.8731408896093" lon="9.644056078937655"><ele>199.0</ele><time>2026-05-04T13:05:37Z</time></trkpt><trkpt lat="44.873066901640115" lon="9.644084933559952"><ele>199.0</ele><time>2026-05-04T13:05:38Z</time></trkpt><trkpt lat="44.87299914236658" lon="9.644105542269159"><ele>199.0</ele><time>2026-05-04T13:05:39Z</time></trkpt><trkpt lat="44.87284814456781" lon="9.644049567691761"><ele>199.0</ele><time>2026-05-04T13:05:41Z</time></trkpt><trkpt lat="44.8727786627921" lon="9.643982701047541"><ele>199.0</ele><time>2026-05-04T13:05:42Z</time></trkpt><trkpt lat="44.87272687988764" lon="9.643914650843005"><ele>199.0</ele><time>2026-05-04T13:05:43Z</time></trkpt><trkpt lat="44.87266440522391" lon="9.643861802528715"><ele>199.0</ele><time>2026-05-04T13:05:44Z</time></trkpt><trkpt lat="44.872579565303504" lon="9.643859662491726"><ele>200.39999999999998</ele><time>2026-05-04T13:05:45Z</time></trkpt><trkpt lat="44.87250108561704" lon="9.64389838469817"><ele>201.8</ele><time>2026-05-04T13:05:46Z</time></trkpt><trkpt lat="44.87245203256504" lon="9.643983371641877"><ele>203.2</ele><time>2026-05-04T13:05:47Z</time></trkpt><trkpt lat="44.872406706332164" lon="9.644089307782837"><ele>204.60000000000002</ele><time>2026-05-04T13:05:48Z</time></trkpt><trkpt lat="44.87235352286079" lon="9.644205097725893"><ele>206.0</ele><time>2026-05-04T13:05:49Z</time></trkpt><trkpt lat="44.87229087051937" lon="9.6444715412977"><ele>206.0</ele><time>2026-05-04T13:05:51Z</time></trkpt><trkpt lat="44.87227153940752" lon="9.644619848475115"><ele>206.0</ele><time>2026-05-04T13:05:52Z</time></trkpt><trkpt lat="44.87225473347879" lon="9.644779161806163"><ele>206.0</ele><time>2026-05-04T13:05:53Z</time></trkpt><trkpt lat="44.87224232097972" lon="9.644954911872121"><ele>206.0</ele><time>2026-05-04T13:05:54Z</time></trkpt><trkpt lat="44.87222315342685" lon="9.64514263960004"><ele>205.75</ele><time>2026-05-04T13:05:55Z</time></trkpt><trkpt lat="44.87220007228227" lon="9.64533522776801"><ele>205.5</ele><time>2026-05-04T13:05:56Z</time></trkpt><trkpt lat="44.87217886645294" lon="9.645538848514697"><ele>205.25</ele><time>2026-05-04T13:05:57Z</time></trkpt><trkpt lat="44.87215681103698" lon="9.645738842852632"><ele>205.0</ele><time>2026-05-04T13:05:58Z</time></trkpt><trkpt lat="44.87214051129825" lon="9.64591951650786"><ele>205.0</ele><time>2026-05-04T13:05:59Z</time></trkpt><trkpt lat="44.87211606052184" lon="9.646081612832143"><ele>205.0</ele><time>2026-05-04T13:06:00Z</time></trkpt><trkpt lat="44.872098174348395" lon="9.646219668190728"><ele>205.0</ele><time>2026-05-04T13:06:00.999Z</time></trkpt><trkpt lat="44.8720696350802" lon="9.646314772515437"><ele>205.0</ele><time>2026-05-04T13:06:01.999Z</time></trkpt><trkpt lat="44.87195920223226" lon="9.64639527061361"><ele>205.0</ele><time>2026-05-04T13:06:03.998Z</time></trkpt><trkpt lat="44.8718680711907" lon="9.646392323426515"><ele>204.6</ele><time>2026-05-04T13:06:04.997Z</time></trkpt><trkpt lat="44.87177532698705" lon="9.646386124254644"><ele>204.2</ele><time>2026-05-04T13:06:05.997Z</time></trkpt><trkpt lat="44.87168267584066" lon="9.646357927132291"><ele>203.8</ele><time>2026-05-04T13:06:06.997Z</time></trkpt><trkpt lat="44.87158109332206" lon="9.646299859747044"><ele>203.4</ele><time>2026-05-04T13:06:07.996Z</time></trkpt><trkpt lat="44.871469099523274" lon="9.646235107955672"><ele>203.0</ele><time>2026-05-04T13:06:08.996Z</time></trkpt><trkpt lat="44.87135686385168" lon="9.646181768293475"><ele>204.5</ele><time>2026-05-04T13:06:09.996Z</time></trkpt><trkpt lat="44.87123898099749" lon="9.646121895641324"><ele>206.0</ele><time>2026-05-04T13:06:10.996Z</time></trkpt><trkpt lat="44.871117141521964" lon="9.646052461575097"><ele>207.5</ele><time>2026-05-04T13:06:11.995Z</time></trkpt><trkpt lat="44.87099635347906" lon="9.645977087467983"><ele>209.0</ele><time>2026-05-04T13:06:12.995Z</time></trkpt><trkpt lat="44.870870934858445" lon="9.645900797179909"><ele>209.39999999999998</ele><time>2026-05-04T13:06:13.995Z</time></trkpt><trkpt lat="44.870758904911014" lon="9.645839997428133"><ele>209.8</ele><time>2026-05-04T13:06:14.995Z</time></trkpt><trkpt lat="44.87065765867482" lon="9.645780448847294"><ele>210.2</ele><time>2026-05-04T13:06:15.995Z</time></trkpt><trkpt lat="44.87056615949376" lon="9.645726086576335"><ele>210.60000000000002</ele><time>2026-05-04T13:06:16.996Z</time></trkpt><trkpt lat="44.87048317506625" lon="9.645684852175714"><ele>211.0</ele><time>2026-05-04T13:06:17.995Z</time></trkpt><trkpt lat="44.870424733932765" lon="9.645651694043131"><ele>211.0</ele><time>2026-05-04T13:06:18.994Z</time></trkpt><trkpt lat="44.870316952096175" lon="9.645583036632031"><ele>211.0</ele><time>2026-05-04T13:06:20.994Z</time></trkpt><trkpt lat="44.87024929292078" lon="9.645543936646577"><ele>211.0</ele><time>2026-05-04T13:06:21.994Z</time></trkpt><trkpt lat="44.87017043536927" lon="9.645513456053761"><ele>211.0</ele><time>2026-05-04T13:06:22.994Z</time></trkpt><trkpt lat="44.8700271311932" lon="9.64542759820896"><ele>211.0</ele><time>2026-05-04T13:06:24.994Z</time></trkpt><trkpt lat="44.869932445920966" lon="9.645384282783857"><ele>211.4</ele><time>2026-05-04T13:06:26.994Z</time></trkpt><trkpt lat="44.86986108715219" lon="9.645420715867418"><ele>211.8</ele><time>2026-05-04T13:06:29.994Z</time></trkpt><trkpt lat="44.869807405356845" lon="9.645591846351103"><ele>212.20000000000002</ele><time>2026-05-04T13:06:31.994Z</time></trkpt><trkpt lat="44.869769636307254" lon="9.645706388562981"><ele>212.60000000000002</ele><time>2026-05-04T13:06:32.994Z</time></trkpt><trkpt lat="44.86974345908425" lon="9.645852492215962"><ele>213.0</ele><time>2026-05-04T13:06:33.993Z</time></trkpt><trkpt lat="44.86971296222531" lon="9.645978066692841"><ele>213.0</ele><time>2026-05-04T13:06:34.993Z</time></trkpt><trkpt lat="44.869679263654845" lon="9.646093445470575"><ele>213.0</ele><time>2026-05-04T13:06:35.993Z</time></trkpt><trkpt lat="44.86964140429639" lon="9.646183854640542"><ele>213.0</ele><time>2026-05-04T13:06:36.993Z</time></trkpt><trkpt lat="44.869606129228316" lon="9.646279205143284"><ele>213.0</ele><time>2026-05-04T13:06:37.993Z</time></trkpt><trkpt lat="44.86957903739312" lon="9.646401621692101"><ele>213.0</ele><time>2026-05-04T13:06:38.993Z</time></trkpt><trkpt lat="44.86955507350406" lon="9.64652980047281"><ele>213.0</ele><time>2026-05-04T13:06:39.993Z</time></trkpt><trkpt lat="44.869531305135936" lon="9.646673223575352"><ele>213.0</ele><time>2026-05-04T13:06:40.993Z</time></trkpt><trkpt lat="44.86950069747575" lon="9.646831499075246"><ele>213.0</ele><time>2026-05-04T13:06:41.993Z</time></trkpt><trkpt lat="44.86946942910257" lon="9.646993062263057"><ele>213.0</ele><time>2026-05-04T13:06:42.993Z</time></trkpt><trkpt lat="44.869434830433995" lon="9.647131803003074"><ele>213.0</ele><time>2026-05-04T13:06:43.993Z</time></trkpt><trkpt lat="44.86941471602927" lon="9.647260394143254"><ele>213.0</ele><time>2026-05-04T13:06:44.993Z</time></trkpt><trkpt lat="44.86939799459167" lon="9.647385979773889"><ele>212.66666666666666</ele><time>2026-05-04T13:06:45.993Z</time></trkpt><trkpt lat="44.86939810870914" lon="9.647510087434608"><ele>212.33333333333331</ele><time>2026-05-04T13:06:46.993Z</time></trkpt><trkpt lat="44.869407854358386" lon="9.647619774900882"><ele>212.0</ele><time>2026-05-04T13:06:47.993Z</time></trkpt><trkpt lat="44.86943036333572" lon="9.647707189737721"><ele>211.66666666666666</ele><time>2026-05-04T13:06:48.993Z</time></trkpt><trkpt lat="44.86947598314611" lon="9.647809695519332"><ele>211.33333333333331</ele><time>2026-05-04T13:06:49.993Z</time></trkpt><trkpt lat="44.86953035328899" lon="9.64791290187415"><ele>211.0</ele><time>2026-05-04T13:06:50.993Z</time></trkpt><trkpt lat="44.86958846064752" lon="9.648024892399013"><ele>210.5</ele><time>2026-05-04T13:06:51.993Z</time></trkpt><trkpt lat="44.86965417150792" lon="9.648144053604792"><ele>210.0</ele><time>2026-05-04T13:06:52.993Z</time></trkpt><trkpt lat="44.86972082899822" lon="9.648274564651278"><ele>209.5</ele><time>2026-05-04T13:06:53.993Z</time></trkpt><trkpt lat="44.86979415634486" lon="9.648406317209187"><ele>209.0</ele><time>2026-05-04T13:06:54.993Z</time></trkpt><trkpt lat="44.869867003318966" lon="9.64853693652261"><ele>209.25</ele><time>2026-05-04T13:06:55.993Z</time></trkpt><trkpt lat="44.86995608563691" lon="9.648658122367397"><ele>209.5</ele><time>2026-05-04T13:06:56.993Z</time></trkpt><trkpt lat="44.870061356348806" lon="9.648764650004711"><ele>209.75</ele><time>2026-05-04T13:06:57.993Z</time></trkpt><trkpt lat="44.87017453235682" lon="9.648851190122766"><ele>210.0</ele><time>2026-05-04T13:06:58.993Z</time></trkpt><trkpt lat="44.87029012514311" lon="9.648911067316162"><ele>210.0</ele><time>2026-05-04T13:06:59.993Z</time></trkpt><trkpt lat="44.87039873290384" lon="9.648950699212337"><ele>210.0</ele><time>2026-05-04T13:07:00.993Z</time></trkpt><trkpt lat="44.87049457866824" lon="9.648988272669037"><ele>210.0</ele><time>2026-05-04T13:07:01.993Z</time></trkpt><trkpt lat="44.87058936112739" lon="9.649029094189283"><ele>210.0</ele><time>2026-05-04T13:07:02.993Z</time></trkpt><trkpt lat="44.870679586700646" lon="9.649077584804788"><ele>210.0</ele><time>2026-05-04T13:07:03.993Z</time></trkpt><trkpt lat="44.87076657229167" lon="9.649127383080286"><ele>210.0</ele><time>2026-05-04T13:07:04.993Z</time></trkpt><trkpt lat="44.87084445927482" lon="9.649177669487607"><ele>210.0</ele><time>2026-05-04T13:07:05.993Z</time></trkpt><trkpt lat="44.870925017407124" lon="9.64923874220153"><ele>210.0</ele><time>2026-05-04T13:07:06.993Z</time></trkpt><trkpt lat="44.87100607684356" lon="9.649291879583041"><ele>210.0</ele><time>2026-05-04T13:07:07.993Z</time></trkpt><trkpt lat="44.87107595782333" lon="9.649344236140287"><ele>210.0</ele><time>2026-05-04T13:07:08.993Z</time></trkpt><trkpt lat="44.87113936118661" lon="9.649391282977176"><ele>210.0</ele><time>2026-05-04T13:07:09.993Z</time></trkpt><trkpt lat="44.87121857988619" lon="9.649512120387536"><ele>210.0</ele><time>2026-05-04T13:07:11.993Z</time></trkpt><trkpt lat="44.87124081969648" lon="9.649677388384578"><ele>210.0</ele><time>2026-05-04T13:07:13.993Z</time></trkpt><trkpt lat="44.871232797251885" lon="9.649798818702052"><ele>210.0</ele><time>2026-05-04T13:07:14.993Z</time></trkpt><trkpt lat="44.8712415097145" lon="9.649913143271348"><ele>210.0</ele><time>2026-05-04T13:07:15.993Z</time></trkpt><trkpt lat="44.871249857956045" lon="9.650004163989522"><ele>210.0</ele><time>2026-05-04T13:07:16.992Z</time></trkpt><trkpt lat="44.87125665988619" lon="9.65018734571277"><ele>210.0</ele><time>2026-05-04T13:07:18.992Z</time></trkpt><trkpt lat="44.871235128346484" lon="9.65028709198049"><ele>210.0</ele><time>2026-05-04T13:07:19.992Z</time></trkpt><trkpt lat="44.871187764372785" lon="9.650382810783873"><ele>210.0</ele><time>2026-05-04T13:07:20.992Z</time></trkpt><trkpt lat="44.8711320725933" lon="9.650488160841627"><ele>210.0</ele><time>2026-05-04T13:07:21.992Z</time></trkpt><trkpt lat="44.87107770661816" lon="9.6505945095502"><ele>210.0</ele><time>2026-05-04T13:07:22.992Z</time></trkpt><trkpt lat="44.87101984571038" lon="9.650712596194568"><ele>210.0</ele><time>2026-05-04T13:07:23.992Z</time></trkpt><trkpt lat="44.87095605874055" lon="9.65083954672757"><ele>212.5</ele><time>2026-05-04T13:07:24.992Z</time></trkpt><trkpt lat="44.87089662821393" lon="9.650946618650151"><ele>215.0</ele><time>2026-05-04T13:07:25.992Z</time></trkpt><trkpt lat="44.87084392343994" lon="9.651031374822692"><ele>217.5</ele><time>2026-05-04T13:07:26.992Z</time></trkpt><trkpt lat="44.87080391928929" lon="9.651122334789731"><ele>220.0</ele><time>2026-05-04T13:07:27.992Z</time></trkpt><trkpt lat="44.87078053642674" lon="9.65121562190844"><ele>222.5</ele><time>2026-05-04T13:07:28.992Z</time></trkpt><trkpt lat="44.87078332836217" lon="9.651316214481195"><ele>225.0</ele><time>2026-05-04T13:07:29.992Z</time></trkpt><trkpt lat="44.87082673404796" lon="9.651409228751321"><ele>225.25</ele><time>2026-05-04T13:07:30.992Z</time></trkpt><trkpt lat="44.8709115884003" lon="9.65150653403666"><ele>225.5</ele><time>2026-05-04T13:07:31.992Z</time></trkpt><trkpt lat="44.87100340638377" lon="9.651594281480875"><ele>225.75</ele><time>2026-05-04T13:07:32.992Z</time></trkpt><trkpt lat="44.87110680096279" lon="9.651682755495015"><ele>226.0</ele><time>2026-05-04T13:07:33.992Z</time></trkpt><trkpt lat="44.87120834085899" lon="9.651765769829376"><ele>226.0</ele><time>2026-05-04T13:07:34.992Z</time></trkpt><trkpt lat="44.87129730679421" lon="9.651841367978497"><ele>226.00000000000003</ele><time>2026-05-04T13:07:35.992Z</time></trkpt><trkpt lat="44.871367396305004" lon="9.651912559481046"><ele>226.00000000000003</ele><time>2026-05-04T13:07:36.992Z</time></trkpt><trkpt lat="44.871431664544396" lon="9.65198835378572"><ele>226.0</ele><time>2026-05-04T13:07:37.992Z</time></trkpt><trkpt lat="44.87147859954547" lon="9.652088420332218"><ele>226.0</ele><time>2026-05-04T13:07:38.992Z</time></trkpt><trkpt lat="44.87152013693687" lon="9.652215732528328"><ele>229.0</ele><time>2026-05-04T13:07:39.992Z</time></trkpt><trkpt lat="44.87152110751641" lon="9.652396463986502"><ele>232.00000000000003</ele><time>2026-05-04T13:07:40.992Z</time></trkpt><trkpt lat="44.87153564376349" lon="9.652558957644535"><ele>235.00000000000003</ele><time>2026-05-04T13:07:41.992Z</time></trkpt><trkpt lat="44.87156094594132" lon="9.65268893540356"><ele>238.0</ele><time>2026-05-04T13:07:42.992Z</time></trkpt><trkpt lat="44.87157132944599" lon="9.652803185690965"><ele>241.0</ele><time>2026-05-04T13:07:43.992Z</time></trkpt><trkpt lat="44.87156879416389" lon="9.652954337322118"><ele>241.8</ele><time>2026-05-04T13:07:45.992Z</time></trkpt><trkpt lat="44.8714947607371" lon="9.652988387137832"><ele>242.60000000000002</ele><time>2026-05-04T13:07:46.992Z</time></trkpt><trkpt lat="44.871405676251335" lon="9.653014782772896"><ele>243.4</ele><time>2026-05-04T13:07:47.992Z</time></trkpt><trkpt lat="44.87132104296298" lon="9.653023284038303"><ele>244.2</ele><time>2026-05-04T13:07:48.992Z</time></trkpt><trkpt lat="44.871196314105866" lon="9.65300931046238"><ele>245.0</ele><time>2026-05-04T13:07:49.992Z</time></trkpt><trkpt lat="44.87107478032556" lon="9.652997856253167"><ele>245.0</ele><time>2026-05-04T13:07:50.992Z</time></trkpt><trkpt lat="44.87095585580082" lon="9.652994900846426"><ele>245.0</ele><time>2026-05-04T13:07:51.992Z</time></trkpt><trkpt lat="44.870830991022956" lon="9.652980768731386"><ele>245.0</ele><time>2026-05-04T13:07:52.992Z</time></trkpt><trkpt lat="44.87072395992858" lon="9.652941205658912"><ele>245.0</ele><time>2026-05-04T13:07:53.992Z</time></trkpt><trkpt lat="44.87064959670793" lon="9.652936846947256"><ele>245.0</ele><time>2026-05-04T13:07:54.992Z</time></trkpt><trkpt lat="44.870557443663124" lon="9.652951812071608"><ele>248.2</ele><time>2026-05-04T13:07:55.992Z</time></trkpt><trkpt lat="44.870448270572545" lon="9.652937695804406"><ele>251.4</ele><time>2026-05-04T13:07:56.992Z</time></trkpt><trkpt lat="44.87034603323979" lon="9.65288270488244"><ele>254.60000000000002</ele><time>2026-05-04T13:07:57.992Z</time></trkpt><trkpt lat="44.870241578643295" lon="9.65281543996872"><ele>257.8</ele><time>2026-05-04T13:07:58.992Z</time></trkpt><trkpt lat="44.870144769003105" lon="9.65277096853514"><ele>261.0</ele><time>2026-05-04T13:07:59.992Z</time></trkpt><trkpt lat="44.87007030868796" lon="9.652752806998032"><ele>262.8</ele><time>2026-05-04T13:08:00.992Z</time></trkpt><trkpt lat="44.869994244105" lon="9.6527708780339"><ele>264.6</ele><time>2026-05-04T13:08:01.992Z</time></trkpt><trkpt lat="44.869930092818265" lon="9.652836851061668"><ele>266.4</ele><time>2026-05-04T13:08:02.992Z</time></trkpt><trkpt lat="44.86986671498189" lon="9.652946098269364"><ele>268.2</ele><time>2026-05-04T13:08:03.992Z</time></trkpt><trkpt lat="44.869806443332806" lon="9.653088011764563"><ele>270.0</ele><time>2026-05-04T13:08:04.992Z</time></trkpt><trkpt lat="44.869740207906325" lon="9.653252303344932"><ele>271.25</ele><time>2026-05-04T13:08:05.992Z</time></trkpt><trkpt lat="44.86967264699135" lon="9.653437686336343"><ele>272.5</ele><time>2026-05-04T13:08:06.992Z</time></trkpt><trkpt lat="44.86960339801638" lon="9.653620362810013"><ele>273.75</ele><time>2026-05-04T13:08:07.992Z</time></trkpt><trkpt lat="44.86951754871354" lon="9.653800417761733"><ele>275.0</ele><time>2026-05-04T13:08:08.992Z</time></trkpt><trkpt lat="44.869428083852895" lon="9.653985178550498"><ele>275.2</ele><time>2026-05-04T13:08:09.992Z</time></trkpt><trkpt lat="44.869354750346105" lon="9.654153877586092"><ele>275.4</ele><time>2026-05-04T13:08:10.992Z</time></trkpt><trkpt lat="44.86930467093401" lon="9.654295511112194"><ele>275.6</ele><time>2026-05-04T13:08:11.992Z</time></trkpt><trkpt lat="44.8692730796032" lon="9.654411635581177"><ele>275.8</ele><time>2026-05-04T13:08:12.992Z</time></trkpt><trkpt lat="44.86925182489203" lon="9.654497866550622"><ele>276.0</ele><time>2026-05-04T13:08:13.992Z</time></trkpt><trkpt lat="44.86918118227717" lon="9.654585742608047"><ele>278.2</ele><time>2026-05-04T13:08:15.992Z</time></trkpt><trkpt lat="44.869118163386226" lon="9.654581426307526"><ele>280.40000000000003</ele><time>2026-05-04T13:08:16.992Z</time></trkpt><trkpt lat="44.86902856208226" lon="9.654549032902603"><ele>282.6</ele><time>2026-05-04T13:08:17.992Z</time></trkpt><trkpt lat="44.86889392912564" lon="9.654488144402713"><ele>284.8</ele><time>2026-05-04T13:08:18.992Z</time></trkpt><trkpt lat="44.868768289769726" lon="9.654445585490103"><ele>287.0</ele><time>2026-05-04T13:08:19.992Z</time></trkpt><trkpt lat="44.868663622938655" lon="9.654408868755105"><ele>287.2</ele><time>2026-05-04T13:08:20.992Z</time></trkpt><trkpt lat="44.86857528258762" lon="9.654365490004544"><ele>287.4</ele><time>2026-05-04T13:08:21.992Z</time></trkpt><trkpt lat="44.86849401478415" lon="9.654327775878167"><ele>287.6</ele><time>2026-05-04T13:08:22.992Z</time></trkpt><trkpt lat="44.86841103748113" lon="9.654287081428476"><ele>287.8</ele><time>2026-05-04T13:08:23.993Z</time></trkpt><trkpt lat="44.86831737790524" lon="9.654236025562478"><ele>288.0</ele><time>2026-05-04T13:08:24.993Z</time></trkpt><trkpt lat="44.86823010261992" lon="9.654176596052586"><ele>289.8333333333333</ele><time>2026-05-04T13:08:25.993Z</time></trkpt><trkpt lat="44.868157031477594" lon="9.654111975257859"><ele>291.6666666666667</ele><time>2026-05-04T13:08:26.993Z</time></trkpt><trkpt lat="44.868091828909144" lon="9.654042669293212"><ele>293.5</ele><time>2026-05-04T13:08:27.993Z</time></trkpt><trkpt lat="44.86802504676225" lon="9.65396843303335"><ele>295.33333333333337</ele><time>2026-05-04T13:08:28.993Z</time></trkpt><trkpt lat="44.86795828979397" lon="9.65389181574154"><ele>297.1666666666667</ele><time>2026-05-04T13:08:29.992Z</time></trkpt><trkpt lat="44.86789528932537" lon="9.653813288527402"><ele>299.0</ele><time>2026-05-04T13:08:30.992Z</time></trkpt><trkpt lat="44.86783480069752" lon="9.653732706580504"><ele>299.0</ele><time>2026-05-04T13:08:31.993Z</time></trkpt><trkpt lat="44.867773553630705" lon="9.653652819728404"><ele>299.0</ele><time>2026-05-04T13:08:32.992Z</time></trkpt><trkpt lat="44.86772178685736" lon="9.653566326148123"><ele>299.0</ele><time>2026-05-04T13:08:33.992Z</time></trkpt><trkpt lat="44.867663350480925" lon="9.653483173247462"><ele>299.0</ele><time>2026-05-04T13:08:34.993Z</time></trkpt><trkpt lat="44.86759497475122" lon="9.653408643061466"><ele>299.0</ele><time>2026-05-04T13:08:35.992Z</time></trkpt><trkpt lat="44.867522806918934" lon="9.65333788323783"><ele>299.0</ele><time>2026-05-04T13:08:36.992Z</time></trkpt><trkpt lat="44.8674452218729" lon="9.65326415563643"><ele>300.5</ele><time>2026-05-04T13:08:37.992Z</time></trkpt><trkpt lat="44.86736971067694" lon="9.653206464623784"><ele>302.0</ele><time>2026-05-04T13:08:38.992Z</time></trkpt><trkpt lat="44.86729808020499" lon="9.653159877470515"><ele>303.5</ele><time>2026-05-04T13:08:39.992Z</time></trkpt><trkpt lat="44.867227052591176" lon="9.653135386984536"><ele>305.0</ele><time>2026-05-04T13:08:40.992Z</time></trkpt><trkpt lat="44.867145654273074" lon="9.653126278729367"><ele>306.5</ele><time>2026-05-04T13:08:41.992Z</time></trkpt><trkpt lat="44.86706227709676" lon="9.65312654359675"><ele>308.0</ele><time>2026-05-04T13:08:42.992Z</time></trkpt><trkpt lat="44.86697250282171" lon="9.653120535090679"><ele>308.0</ele><time>2026-05-04T13:08:43.992Z</time></trkpt><trkpt lat="44.86688156994596" lon="9.65312337138544"><ele>308.0</ele><time>2026-05-04T13:08:44.992Z</time></trkpt><trkpt lat="44.8667874196061" lon="9.65314752603415"><ele>308.0</ele><time>2026-05-04T13:08:45.992Z</time></trkpt><trkpt lat="44.86668768126289" lon="9.653194779290505"><ele>308.0</ele><time>2026-05-04T13:08:46.992Z</time></trkpt><trkpt lat="44.86659036055154" lon="9.653267639031927"><ele>308.0</ele><time>2026-05-04T13:08:47.992Z</time></trkpt><trkpt lat="44.86650284158371" lon="9.653348548608493"><ele>308.6</ele><time>2026-05-04T13:08:48.992Z</time></trkpt><trkpt lat="44.86642444271799" lon="9.653444756434318"><ele>309.20000000000005</ele><time>2026-05-04T13:08:49.992Z</time></trkpt><trkpt lat="44.866350787856746" lon="9.65354914103243"><ele>309.8</ele><time>2026-05-04T13:08:50.992Z</time></trkpt><trkpt lat="44.866279132142864" lon="9.653657702327346"><ele>310.40000000000003</ele><time>2026-05-04T13:08:51.992Z</time></trkpt><trkpt lat="44.86620881233435" lon="9.653770134438268"><ele>311.0</ele><time>2026-05-04T13:08:52.992Z</time></trkpt><trkpt lat="44.866134938572685" lon="9.653870812668952"><ele>312.6</ele><time>2026-05-04T13:08:53.992Z</time></trkpt><trkpt lat="44.86606259521786" lon="9.653977207466378"><ele>314.20000000000005</ele><time>2026-05-04T13:08:54.992Z</time></trkpt><trkpt lat="44.86599546922526" lon="9.654090172195394"><ele>315.79999999999995</ele><time>2026-05-04T13:08:55.992Z</time></trkpt><trkpt lat="44.86592643879145" lon="9.654197869483767"><ele>317.4</ele><time>2026-05-04T13:08:56.992Z</time></trkpt><trkpt lat="44.865850808895566" lon="9.654305767925692"><ele>319.0</ele><time>2026-05-04T13:08:57.992Z</time></trkpt><trkpt lat="44.86577223984658" lon="9.654410867745073"><ele>322.6</ele><time>2026-05-04T13:08:58.992Z</time></trkpt><trkpt lat="44.86569413382263" lon="9.654526489411047"><ele>326.2</ele><time>2026-05-04T13:08:59.992Z</time></trkpt><trkpt lat="44.86561797355489" lon="9.654644085926193"><ele>329.8</ele><time>2026-05-04T13:09:00.992Z</time></trkpt><trkpt lat="44.865538800085744" lon="9.65474476373128"><ele>333.40000000000003</ele><time>2026-05-04T13:09:01.992Z</time></trkpt><trkpt lat="44.86546050737366" lon="9.65484623178983"><ele>337.0</ele><time>2026-05-04T13:09:02.992Z</time></trkpt><trkpt lat="44.86538544437717" lon="9.654960484470516"><ele>337.0</ele><time>2026-05-04T13:09:03.992Z</time></trkpt><trkpt lat="44.86531420303178" lon="9.655075390232309"><ele>337.0</ele><time>2026-05-04T13:09:04.992Z</time></trkpt><trkpt lat="44.865259431297986" lon="9.655202377066463"><ele>337.0</ele><time>2026-05-04T13:09:05.992Z</time></trkpt><trkpt lat="44.86521455255611" lon="9.655338915983474"><ele>337.0</ele><time>2026-05-04T13:09:06.992Z</time></trkpt><trkpt lat="44.86517329512928" lon="9.655473756100518"><ele>337.0</ele><time>2026-05-04T13:09:07.992Z</time></trkpt><trkpt lat="44.8651353747139" lon="9.655595421022142"><ele>339.0</ele><time>2026-05-04T13:09:08.992Z</time></trkpt><trkpt lat="44.86509796073479" lon="9.655710338329241"><ele>341.0</ele><time>2026-05-04T13:09:09.992Z</time></trkpt><trkpt lat="44.86509710193076" lon="9.65582344814631"><ele>343.0</ele><time>2026-05-04T13:09:10.992Z</time></trkpt><trkpt lat="44.86503692831979" lon="9.655966810224824"><ele>345.0</ele><time>2026-05-04T13:09:12.992Z</time></trkpt><trkpt lat="44.8649696925176" lon="9.656030153043867"><ele>347.0</ele><time>2026-05-04T13:09:13.992Z</time></trkpt><trkpt lat="44.86488669377133" lon="9.656089421970192"><ele>345.0</ele><time>2026-05-04T13:09:14.992Z</time></trkpt><trkpt lat="44.864787909329934" lon="9.656127550115873"><ele>343.0</ele><time>2026-05-04T13:09:15.992Z</time></trkpt><trkpt lat="44.86467857194488" lon="9.656162935145108"><ele>341.0</ele><time>2026-05-04T13:09:16.992Z</time></trkpt><trkpt lat="44.864560927318955" lon="9.656185121472895"><ele>339.0</ele><time>2026-05-04T13:09:17.992Z</time></trkpt><trkpt lat="44.86443709497437" lon="9.656232416098554"><ele>339.0</ele><time>2026-05-04T13:09:18.992Z</time></trkpt><trkpt lat="44.86432315504623" lon="9.65629869192902"><ele>339.0</ele><time>2026-05-04T13:09:19.992Z</time></trkpt><trkpt lat="44.86421326147761" lon="9.656365228153179"><ele>339.0</ele><time>2026-05-04T13:09:20.992Z</time></trkpt><trkpt lat="44.86411566774853" lon="9.656435265178864"><ele>339.0</ele><time>2026-05-04T13:09:21.992Z</time></trkpt><trkpt lat="44.86402266714552" lon="9.656512726565136"><ele>341.2</ele><time>2026-05-04T13:09:22.992Z</time></trkpt><trkpt lat="44.86392568100516" lon="9.656574775738212"><ele>343.4</ele><time>2026-05-04T13:09:23.992Z</time></trkpt><trkpt lat="44.86382385707477" lon="9.656625623905958"><ele>345.6</ele><time>2026-05-04T13:09:24.992Z</time></trkpt><trkpt lat="44.863719244305244" lon="9.656658366607704"><ele>347.8</ele><time>2026-05-04T13:09:25.992Z</time></trkpt><trkpt lat="44.86361955266601" lon="9.656687819280512"><ele>350.0</ele><time>2026-05-04T13:09:26.992Z</time></trkpt><trkpt lat="44.863522960042985" lon="9.656722773998313"><ele>350.6666666666667</ele><time>2026-05-04T13:09:27.992Z</time></trkpt><trkpt lat="44.863423572857926" lon="9.656755142609482"><ele>351.33333333333337</ele><time>2026-05-04T13:09:28.992Z</time></trkpt><trkpt lat="44.86333056750621" lon="9.656797169526701"><ele>352.0</ele><time>2026-05-04T13:09:29.992Z</time></trkpt><trkpt lat="44.86325415645561" lon="9.656826935730743"><ele>352.6666666666667</ele><time>2026-05-04T13:09:30.992Z</time></trkpt><trkpt lat="44.86319082407589" lon="9.656856983783005"><ele>353.3333333333333</ele><time>2026-05-04T13:09:32.992Z</time></trkpt><trkpt lat="44.863105002464266" lon="9.65692535664352"><ele>354.0</ele><time>2026-05-04T13:10:04.992Z</time></trkpt><trkpt lat="44.86304126004197" lon="9.65695001896905"><ele>354.2</ele><time>2026-05-04T13:10:05.992Z</time></trkpt><trkpt lat="44.862962717870076" lon="9.656976064106841"><ele>354.4</ele><time>2026-05-04T13:10:06.992Z</time></trkpt><trkpt lat="44.862870532529875" lon="9.657005596134303"><ele>354.6</ele><time>2026-05-04T13:10:07.992Z</time></trkpt><trkpt lat="44.862774254052965" lon="9.65700459418105"><ele>354.8</ele><time>2026-05-04T13:10:08.992Z</time></trkpt><trkpt lat="44.86267268207391" lon="9.656985450462209"><ele>355.0</ele><time>2026-05-04T13:10:09.992Z</time></trkpt><trkpt lat="44.86256534972318" lon="9.656948466307222"><ele>355.0</ele><time>2026-05-04T13:10:10.992Z</time></trkpt><trkpt lat="44.86244680764481" lon="9.656912640194717"><ele>355.0</ele><time>2026-05-04T13:10:11.992Z</time></trkpt><trkpt lat="44.86231455128566" lon="9.6568938043365"><ele>355.0</ele><time>2026-05-04T13:10:12.992Z</time></trkpt><trkpt lat="44.862180646338324" lon="9.656884377885998"><ele>355.0</ele><time>2026-05-04T13:10:13.992Z</time></trkpt><trkpt lat="44.86204021016005" lon="9.656893902547672"><ele>355.0</ele><time>2026-05-04T13:10:14.992Z</time></trkpt><trkpt lat="44.86190410344525" lon="9.656903968567283"><ele>355.0</ele><time>2026-05-04T13:10:15.992Z</time></trkpt><trkpt lat="44.86176706143675" lon="9.656931477878015"><ele>355.0</ele><time>2026-05-04T13:10:16.992Z</time></trkpt><trkpt lat="44.86164690368862" lon="9.656981624730939"><ele>355.0</ele><time>2026-05-04T13:10:17.992Z</time></trkpt><trkpt lat="44.86153788975286" lon="9.65705744246889"><ele>358.25</ele><time>2026-05-04T13:10:18.992Z</time></trkpt><trkpt lat="44.861442912801955" lon="9.657160970013747"><ele>361.5</ele><time>2026-05-04T13:10:19.992Z</time></trkpt><trkpt lat="44.861349924932384" lon="9.657277857245257"><ele>364.75</ele><time>2026-05-04T13:10:20.992Z</time></trkpt><trkpt lat="44.86125676754537" lon="9.65740321507467"><ele>368.0</ele><time>2026-05-04T13:10:21.992Z</time></trkpt><trkpt lat="44.86116266313526" lon="9.657536823989085"><ele>368.0</ele><time>2026-05-04T13:10:22.992Z</time></trkpt><trkpt lat="44.8610661555907" lon="9.657671208966947"><ele>368.0</ele><time>2026-05-04T13:10:23.992Z</time></trkpt><trkpt lat="44.860978507497975" lon="9.657806532618618"><ele>368.0</ele><time>2026-05-04T13:10:24.992Z</time></trkpt><trkpt lat="44.860905856465" lon="9.657918203687219"><ele>368.0</ele><time>2026-05-04T13:10:25.992Z</time></trkpt><trkpt lat="44.86085416115176" lon="9.658051373183927"><ele>370.4</ele><time>2026-05-04T13:10:26.992Z</time></trkpt><trkpt lat="44.86081900317779" lon="9.65818613570516"><ele>372.79999999999995</ele><time>2026-05-04T13:10:27.992Z</time></trkpt><trkpt lat="44.860791000206355" lon="9.65834406952934"><ele>375.2</ele><time>2026-05-04T13:10:28.992Z</time></trkpt><trkpt lat="44.86076362479443" lon="9.658506757272777"><ele>377.6</ele><time>2026-05-04T13:10:29.992Z</time></trkpt><trkpt lat="44.86074062362392" lon="9.65865295767148"><ele>380.0</ele><time>2026-05-04T13:10:30.993Z</time></trkpt><trkpt lat="44.8607372710887" lon="9.658805825592328"><ele>380.4</ele><time>2026-05-04T13:10:31.993Z</time></trkpt><trkpt lat="44.86075448535851" lon="9.65897319023043"><ele>380.8</ele><time>2026-05-04T13:10:32.993Z</time></trkpt><trkpt lat="44.860754592489386" lon="9.659137433241925"><ele>381.20000000000005</ele><time>2026-05-04T13:10:33.992Z</time></trkpt><trkpt lat="44.86075046440599" lon="9.659280826563315"><ele>381.6</ele><time>2026-05-04T13:10:34.992Z</time></trkpt><trkpt lat="44.86073672798977" lon="9.659380480749316"><ele>382.0</ele><time>2026-05-04T13:10:35.992Z</time></trkpt><trkpt lat="44.86069538028717" lon="9.659484747218722"><ele>382.0</ele><time>2026-05-04T13:10:37.992Z</time></trkpt><trkpt lat="44.86062104318" lon="9.659580031369694"><ele>382.0</ele><time>2026-05-04T13:10:39.993Z</time></trkpt><trkpt lat="44.860556015542606" lon="9.659633458787978"><ele>382.0</ele><time>2026-05-04T13:10:40.992Z</time></trkpt><trkpt lat="44.86047510658076" lon="9.65968468479055"><ele>382.0</ele><time>2026-05-04T13:10:41.992Z</time></trkpt><trkpt lat="44.860381768979245" lon="9.659729308640152"><ele>382.0</ele><time>2026-05-04T13:10:42.992Z</time></trkpt><trkpt lat="44.86028661925527" lon="9.659780616234647"><ele>382.0</ele><time>2026-05-04T13:10:43.992Z</time></trkpt><trkpt lat="44.86019059363726" lon="9.659843136896631"><ele>382.0</ele><time>2026-05-04T13:10:44.992Z</time></trkpt><trkpt lat="44.86010489181898" lon="9.659911751911684"><ele>382.0</ele><time>2026-05-04T13:10:45.992Z</time></trkpt><trkpt lat="44.8600179334473" lon="9.660004622034874"><ele>382.0</ele><time>2026-05-04T13:10:46.992Z</time></trkpt><trkpt lat="44.85993214894597" lon="9.660104567115967"><ele>382.0</ele><time>2026-05-04T13:10:47.992Z</time></trkpt><trkpt lat="44.85984389273722" lon="9.660226454282906"><ele>384.75</ele><time>2026-05-04T13:10:48.992Z</time></trkpt><trkpt lat="44.859761743503974" lon="9.660343816376262"><ele>387.5</ele><time>2026-05-04T13:10:49.992Z</time></trkpt><trkpt lat="44.859670154356394" lon="9.660444451187798"><ele>390.25</ele><time>2026-05-04T13:10:50.992Z</time></trkpt><trkpt lat="44.859567867407094" lon="9.660534832946217"><ele>393.0</ele><time>2026-05-04T13:10:51.992Z</time></trkpt><trkpt lat="44.85946402727053" lon="9.66062369324683"><ele>393.0</ele><time>2026-05-04T13:10:52.992Z</time></trkpt><trkpt lat="44.859347030424466" lon="9.660725711613189"><ele>393.0</ele><time>2026-05-04T13:10:53.992Z</time></trkpt><trkpt lat="44.859239019120565" lon="9.660836909989913"><ele>393.0</ele><time>2026-05-04T13:10:54.992Z</time></trkpt><trkpt lat="44.85913194686964" lon="9.66094698815878"><ele>393.0</ele><time>2026-05-04T13:10:55.992Z</time></trkpt><trkpt lat="44.859038084034005" lon="9.661058264171057"><ele>394.2</ele><time>2026-05-04T13:10:56.992Z</time></trkpt><trkpt lat="44.858951720233826" lon="9.661155218260232"><ele>395.4</ele><time>2026-05-04T13:10:57.992Z</time></trkpt><trkpt lat="44.85884252654971" lon="9.661217216367806"><ele>396.59999999999997</ele><time>2026-05-04T13:10:58.992Z</time></trkpt><trkpt lat="44.85873773717478" lon="9.66126657704124"><ele>397.79999999999995</ele><time>2026-05-04T13:10:59.992Z</time></trkpt><trkpt lat="44.8586395829281" lon="9.661305799077622"><ele>399.0</ele><time>2026-05-04T13:11:00.992Z</time></trkpt><trkpt lat="44.858563993080274" lon="9.661336028029627"><ele>399.0</ele><time>2026-05-04T13:11:01.992Z</time></trkpt><trkpt lat="44.858484252712785" lon="9.661407090949542"><ele>399.0</ele><time>2026-05-04T13:11:03.992Z</time></trkpt><trkpt lat="44.858394712572725" lon="9.66142813867204"><ele>399.0</ele><time>2026-05-04T13:11:05.992Z</time></trkpt><trkpt lat="44.85831331173859" lon="9.6613771188023"><ele>399.0</ele><time>2026-05-04T13:11:07.992Z</time></trkpt><trkpt lat="44.858254267147224" lon="9.661326162544464"><ele>399.0</ele><time>2026-05-04T13:11:09.992Z</time></trkpt><trkpt lat="44.85818707558957" lon="9.661274373285641"><ele>399.0</ele><time>2026-05-04T13:11:11.992Z</time></trkpt><trkpt lat="44.8581078453047" lon="9.661216140320898"><ele>397.0</ele><time>2026-05-04T13:11:14.992Z</time></trkpt><trkpt lat="44.8580432344176" lon="9.661205150393124"><ele>395.0</ele><time>2026-05-04T13:11:15.992Z</time></trkpt><trkpt lat="44.857964405056315" lon="9.661227737393792"><ele>393.0</ele><time>2026-05-04T13:11:16.992Z</time></trkpt><trkpt lat="44.857874048882096" lon="9.661289633224149"><ele>391.0</ele><time>2026-05-04T13:11:17.992Z</time></trkpt><trkpt lat="44.85777961699487" lon="9.661369873627958"><ele>389.0</ele><time>2026-05-04T13:11:18.992Z</time></trkpt><trkpt lat="44.857681328821485" lon="9.661452424041185"><ele>386.0</ele><time>2026-05-04T13:11:19.992Z</time></trkpt><trkpt lat="44.8575788458359" lon="9.661529291248776"><ele>383.0</ele><time>2026-05-04T13:11:20.992Z</time></trkpt><trkpt lat="44.85747785170734" lon="9.661600246756425"><ele>380.0</ele><time>2026-05-04T13:11:21.992Z</time></trkpt><trkpt lat="44.85737895461616" lon="9.66166834872745"><ele>377.0</ele><time>2026-05-04T13:11:22.992Z</time></trkpt><trkpt lat="44.857277853905295" lon="9.661724340182031"><ele>374.0</ele><time>2026-05-04T13:11:23.992Z</time></trkpt><trkpt lat="44.85717746149252" lon="9.661771148668597"><ele>374.0</ele><time>2026-05-04T13:11:24.992Z</time></trkpt><trkpt lat="44.85708192880259" lon="9.661802239923379"><ele>374.0</ele><time>2026-05-04T13:11:25.992Z</time></trkpt><trkpt lat="44.85699262759279" lon="9.661820457119614"><ele>374.0</ele><time>2026-05-04T13:11:26.992Z</time></trkpt><trkpt lat="44.85690636832506" lon="9.661822758389302"><ele>374.0</ele><time>2026-05-04T13:11:27.992Z</time></trkpt><trkpt lat="44.856826005746974" lon="9.661825748365782"><ele>374.0</ele><time>2026-05-04T13:11:28.992Z</time></trkpt><trkpt lat="44.85676247531631" lon="9.66182726590554"><ele>374.0</ele><time>2026-05-04T13:11:29.992Z</time></trkpt><trkpt lat="44.85667219902135" lon="9.661809382295713"><ele>373.5</ele><time>2026-05-04T13:11:31.992Z</time></trkpt><trkpt lat="44.8565948788699" lon="9.661776160698953"><ele>373.0</ele><time>2026-05-04T13:11:34.992Z</time></trkpt><trkpt lat="44.85644281783178" lon="9.661844685076144"><ele>372.5</ele><time>2026-05-04T13:11:36.992Z</time></trkpt><trkpt lat="44.856344589672204" lon="9.661889550015564"><ele>372.0</ele><time>2026-05-04T13:11:37.992Z</time></trkpt><trkpt lat="44.85624434119276" lon="9.66195875462154"><ele>371.75</ele><time>2026-05-04T13:11:38.992Z</time></trkpt><trkpt lat="44.856139710913666" lon="9.662030728576505"><ele>371.5</ele><time>2026-05-04T13:11:39.992Z</time></trkpt><trkpt lat="44.85603446617109" lon="9.66210224096272"><ele>371.25</ele><time>2026-05-04T13:11:40.992Z</time></trkpt><trkpt lat="44.85592217126587" lon="9.662172646180013"><ele>371.0</ele><time>2026-05-04T13:11:41.992Z</time></trkpt><trkpt lat="44.85580444897906" lon="9.66224784934573"><ele>372.5</ele><time>2026-05-04T13:11:42.992Z</time></trkpt><trkpt lat="44.85568441624524" lon="9.66233493040439"><ele>374.0</ele><time>2026-05-04T13:11:43.992Z</time></trkpt><trkpt lat="44.855568904125064" lon="9.662426010518725"><ele>375.5</ele><time>2026-05-04T13:11:44.992Z</time></trkpt><trkpt lat="44.85546610258572" lon="9.662511931406677"><ele>377.0</ele><time>2026-05-04T13:11:45.992Z</time></trkpt><trkpt lat="44.85536948269833" lon="9.662585429669495"><ele>377.0</ele><time>2026-05-04T13:11:46.992Z</time></trkpt><trkpt lat="44.85529064090952" lon="9.662678710147155"><ele>377.0</ele><time>2026-05-04T13:11:47.992Z</time></trkpt><trkpt lat="44.85522382425261" lon="9.662796537363887"><ele>377.0</ele><time>2026-05-04T13:11:48.992Z</time></trkpt><trkpt lat="44.85518569102189" lon="9.662926575860665"><ele>377.0</ele><time>2026-05-04T13:11:49.992Z</time></trkpt><trkpt lat="44.85515993936688" lon="9.663061779536536"><ele>377.0</ele><time>2026-05-04T13:11:50.992Z</time></trkpt><trkpt lat="44.855160105622595" lon="9.663174761521061"><ele>377.0</ele><time>2026-05-04T13:11:51.992Z</time></trkpt><trkpt lat="44.85518359457801" lon="9.6632970875066"><ele>377.0</ele><time>2026-05-04T13:11:52.992Z</time></trkpt><trkpt lat="44.85524585733443" lon="9.663412897864353"><ele>377.0</ele><time>2026-05-04T13:11:53.992Z</time></trkpt><trkpt lat="44.8553429090427" lon="9.66351916343136"><ele>377.0</ele><time>2026-05-04T13:11:54.992Z</time></trkpt><trkpt lat="44.85544157190826" lon="9.663623460126518"><ele>377.0</ele><time>2026-05-04T13:11:55.992Z</time></trkpt><trkpt lat="44.855527497756604" lon="9.663740946024879"><ele>379.5</ele><time>2026-05-04T13:11:56.992Z</time></trkpt><trkpt lat="44.85561060616415" lon="9.663873804071503"><ele>382.0</ele><time>2026-05-04T13:11:57.992Z</time></trkpt><trkpt lat="44.85568870449322" lon="9.664041840267357"><ele>384.5</ele><time>2026-05-04T13:11:58.992Z</time></trkpt><trkpt lat="44.85575401299028" lon="9.66421920898084"><ele>387.0</ele><time>2026-05-04T13:11:59.992Z</time></trkpt><trkpt lat="44.85583249226164" lon="9.664391912390274"><ele>388.0</ele><time>2026-05-04T13:12:00.992Z</time></trkpt><trkpt lat="44.855912213978854" lon="9.664551502988767"><ele>389.0</ele><time>2026-05-04T13:12:01.992Z</time></trkpt><trkpt lat="44.85598649156623" lon="9.664700100394944"><ele>390.0</ele><time>2026-05-04T13:12:02.992Z</time></trkpt><trkpt lat="44.85606068580942" lon="9.664825604660212"><ele>391.0</ele><time>2026-05-04T13:12:03.992Z</time></trkpt><trkpt lat="44.85612462049474" lon="9.66494419407968"><ele>391.0</ele><time>2026-05-04T13:12:04.992Z</time></trkpt><trkpt lat="44.8561745908589" lon="9.665067131729666"><ele>391.0</ele><time>2026-05-04T13:12:05.992Z</time></trkpt><trkpt lat="44.856211849897" lon="9.665196843511286"><ele>391.0</ele><time>2026-05-04T13:12:06.992Z</time></trkpt><trkpt lat="44.85622990899586" lon="9.665323898801121"><ele>391.0</ele><time>2026-05-04T13:12:07.992Z</time></trkpt><trkpt lat="44.85622537763286" lon="9.665467009645553"><ele>391.0</ele><time>2026-05-04T13:12:08.992Z</time></trkpt><trkpt lat="44.856195314874505" lon="9.665588289817393"><ele>391.0</ele><time>2026-05-04T13:12:09.992Z</time></trkpt><trkpt lat="44.85612588957057" lon="9.665705329428137"><ele>391.0</ele><time>2026-05-04T13:12:10.992Z</time></trkpt><trkpt lat="44.85606157832972" lon="9.665818297116056"><ele>391.0</ele><time>2026-05-04T13:12:11.992Z</time></trkpt><trkpt lat="44.8560128339292" lon="9.66593211896695"><ele>391.0</ele><time>2026-05-04T13:12:12.992Z</time></trkpt><trkpt lat="44.855947833955184" lon="9.666072159853057"><ele>391.0</ele><time>2026-05-04T13:12:13.992Z</time></trkpt><trkpt lat="44.855885384574904" lon="9.666223160109793"><ele>391.6</ele><time>2026-05-04T13:12:14.992Z</time></trkpt><trkpt lat="44.855830693835266" lon="9.666375611606684"><ele>392.20000000000005</ele><time>2026-05-04T13:12:15.992Z</time></trkpt><trkpt lat="44.855780935894835" lon="9.66652055050597"><ele>392.79999999999995</ele><time>2026-05-04T13:12:16.992Z</time></trkpt><trkpt lat="44.85572593918409" lon="9.66665191353912"><ele>393.4</ele><time>2026-05-04T13:12:17.992Z</time></trkpt><trkpt lat="44.85566840643995" lon="9.666760727235667"><ele>394.0</ele><time>2026-05-04T13:12:18.992Z</time></trkpt><trkpt lat="44.85561014075936" lon="9.666853457051563"><ele>393.6</ele><time>2026-05-04T13:12:19.992Z</time></trkpt><trkpt lat="44.85554909508694" lon="9.666981848962795"><ele>393.2</ele><time>2026-05-04T13:12:20.992Z</time></trkpt><trkpt lat="44.855484656413594" lon="9.66710333873923"><ele>392.8</ele><time>2026-05-04T13:12:21.992Z</time></trkpt><trkpt lat="44.85543108870408" lon="9.667212481121158"><ele>392.40000000000003</ele><time>2026-05-04T13:12:22.992Z</time></trkpt><trkpt lat="44.85538376330565" lon="9.66730700785159"><ele>392.0</ele><time>2026-05-04T13:12:23.992Z</time></trkpt><trkpt lat="44.855327078972714" lon="9.667388371360598"><ele>391.99999999999994</ele><time>2026-05-04T13:12:24.992Z</time></trkpt><trkpt lat="44.85526196613395" lon="9.667452991700593"><ele>392.0</ele><time>2026-05-04T13:12:25.992Z</time></trkpt><trkpt lat="44.855195572459415" lon="9.66749776514135"><ele>392.0</ele><time>2026-05-04T13:12:26.992Z</time></trkpt><trkpt lat="44.85511933113698" lon="9.667509183035655"><ele>392.0</ele><time>2026-05-04T13:12:27.992Z</time></trkpt><trkpt lat="44.85503078798732" lon="9.66747581335033"><ele>391.99999999999994</ele><time>2026-05-04T13:12:28.992Z</time></trkpt><trkpt lat="44.85492441981567" lon="9.667389686921187"><ele>392.0</ele><time>2026-05-04T13:12:29.992Z</time></trkpt><trkpt lat="44.85481870922288" lon="9.667308703651129"><ele>391.5</ele><time>2026-05-04T13:12:30.992Z</time></trkpt><trkpt lat="44.85470034028055" lon="9.667229369185403"><ele>391.0</ele><time>2026-05-04T13:12:31.992Z</time></trkpt><trkpt lat="44.85457968091011" lon="9.667175860896679"><ele>390.5</ele><time>2026-05-04T13:12:32.992Z</time></trkpt><trkpt lat="44.85446030939477" lon="9.667154072483369"><ele>390.0</ele><time>2026-05-04T13:12:33.992Z</time></trkpt><trkpt lat="44.85433003173525" lon="9.66716651610671"><ele>389.25</ele><time>2026-05-04T13:12:34.992Z</time></trkpt><trkpt lat="44.85419985857873" lon="9.667215159286586"><ele>388.5</ele><time>2026-05-04T13:12:35.992Z</time></trkpt><trkpt lat="44.854083969994115" lon="9.66728692336757"><ele>387.75</ele><time>2026-05-04T13:12:36.992Z</time></trkpt><trkpt lat="44.85397511791514" lon="9.667373465028552"><ele>387.0</ele><time>2026-05-04T13:12:37.992Z</time></trkpt><trkpt lat="44.8538716804227" lon="9.667457318572549"><ele>387.0</ele><time>2026-05-04T13:12:38.992Z</time></trkpt><trkpt lat="44.85376035214748" lon="9.667524780107493"><ele>387.0</ele><time>2026-05-04T13:12:39.992Z</time></trkpt><trkpt lat="44.85363904404631" lon="9.667558271310353"><ele>387.0</ele><time>2026-05-04T13:12:40.992Z</time></trkpt><trkpt lat="44.853516273787086" lon="9.667563641509494"><ele>387.0</ele><time>2026-05-04T13:12:41.992Z</time></trkpt><trkpt lat="44.853400173088176" lon="9.667537696127955"><ele>386.0</ele><time>2026-05-04T13:12:42.992Z</time></trkpt><trkpt lat="44.85328044218774" lon="9.667490660045441"><ele>385.0</ele><time>2026-05-04T13:12:43.992Z</time></trkpt><trkpt lat="44.85314986927048" lon="9.667435631716844"><ele>384.0</ele><time>2026-05-04T13:12:44.992Z</time></trkpt><trkpt lat="44.853014986325505" lon="9.667390337258725"><ele>383.0</ele><time>2026-05-04T13:12:45.992Z</time></trkpt><trkpt lat="44.85288621364111" lon="9.667344016359184"><ele>383.0</ele><time>2026-05-04T13:12:46.991Z</time></trkpt><trkpt lat="44.852765980955255" lon="9.667295374877435"><ele>383.0</ele><time>2026-05-04T13:12:47.991Z</time></trkpt><trkpt lat="44.852654466424866" lon="9.66725298635834"><ele>383.0</ele><time>2026-05-04T13:12:48.991Z</time></trkpt><trkpt lat="44.85255764655352" lon="9.66719795635973"><ele>383.0</ele><time>2026-05-04T13:12:49.991Z</time></trkpt><trkpt lat="44.85247885214667" lon="9.667141702900848"><ele>383.0</ele><time>2026-05-04T13:12:50.991Z</time></trkpt><trkpt lat="44.852411598485936" lon="9.667078094733661"><ele>383.4</ele><time>2026-05-04T13:12:51.991Z</time></trkpt><trkpt lat="44.85234555078029" lon="9.66699732265376"><ele>383.79999999999995</ele><time>2026-05-04T13:12:52.991Z</time></trkpt><trkpt lat="44.852275038658625" lon="9.666890098009038"><ele>384.2</ele><time>2026-05-04T13:12:53.991Z</time></trkpt><trkpt lat="44.852207914777985" lon="9.666772445388604"><ele>384.6</ele><time>2026-05-04T13:12:54.991Z</time></trkpt><trkpt lat="44.85213552823817" lon="9.666656437684154"><ele>385.0</ele><time>2026-05-04T13:12:55.991Z</time></trkpt><trkpt lat="44.85205969981168" lon="9.666546976778687"><ele>385.00000000000006</ele><time>2026-05-04T13:12:56.991Z</time></trkpt><trkpt lat="44.85198416281723" lon="9.666460792608198"><ele>385.0</ele><time>2026-05-04T13:12:57.991Z</time></trkpt><trkpt lat="44.851923258765396" lon="9.666389262904655"><ele>385.0</ele><time>2026-05-04T13:12:58.991Z</time></trkpt><trkpt lat="44.8518576189869" lon="9.666316795467685"><ele>385.0</ele><time>2026-05-04T13:12:59.991Z</time></trkpt><trkpt lat="44.851790139758165" lon="9.666233245908046"><ele>385.00000000000006</ele><time>2026-05-04T13:13:00.991Z</time></trkpt><trkpt lat="44.85172696908905" lon="9.666149354783323"><ele>385.0</ele><time>2026-05-04T13:13:01.991Z</time></trkpt><trkpt lat="44.85167258843253" lon="9.666087881466654"><ele>385.6</ele><time>2026-05-04T13:13:02.991Z</time></trkpt><trkpt lat="44.85155934885082" lon="9.666093902069488"><ele>386.2</ele><time>2026-05-04T13:13:04.991Z</time></trkpt><trkpt lat="44.851507306473216" lon="9.66616287606101"><ele>386.79999999999995</ele><time>2026-05-04T13:13:05.991Z</time></trkpt><trkpt lat="44.85148301434726" lon="9.666271585982134"><ele>387.4</ele><time>2026-05-04T13:13:06.991Z</time></trkpt><trkpt lat="44.85148432924368" lon="9.666406344497569"><ele>388.0</ele><time>2026-05-04T13:13:07.991Z</time></trkpt><trkpt lat="44.851512372794105" lon="9.666553438552228"><ele>388.0</ele><time>2026-05-04T13:13:08.991Z</time></trkpt><trkpt lat="44.851562385129505" lon="9.666705784675537"><ele>388.0</ele><time>2026-05-04T13:13:09.991Z</time></trkpt><trkpt lat="44.85161076061477" lon="9.666867668369225"><ele>388.0</ele><time>2026-05-04T13:13:10.991Z</time></trkpt><trkpt lat="44.85163359681524" lon="9.66702212064533"><ele>388.0</ele><time>2026-05-04T13:13:11.991Z</time></trkpt><trkpt lat="44.851632660457156" lon="9.66719297790815"><ele>389.0</ele><time>2026-05-04T13:13:12.991Z</time></trkpt><trkpt lat="44.85161919061056" lon="9.667375661250327"><ele>390.0</ele><time>2026-05-04T13:13:13.991Z</time></trkpt><trkpt lat="44.851614820252514" lon="9.667565582830637"><ele>391.0</ele><time>2026-05-04T13:13:14.991Z</time></trkpt><trkpt lat="44.85161565098615" lon="9.667765981851158"><ele>392.0</ele><time>2026-05-04T13:13:15.991Z</time></trkpt><trkpt lat="44.8516257828012" lon="9.667958944803049"><ele>392.0</ele><time>2026-05-04T13:13:16.991Z</time></trkpt><trkpt lat="44.85164484575898" lon="9.668127575096483"><ele>392.0</ele><time>2026-05-04T13:13:17.991Z</time></trkpt><trkpt lat="44.85166897632695" lon="9.668282178381737"><ele>392.0</ele><time>2026-05-04T13:13:18.991Z</time></trkpt><trkpt lat="44.85170203207032" lon="9.668416588074669"><ele>392.0</ele><time>2026-05-04T13:13:19.991Z</time></trkpt><trkpt lat="44.85173139934105" lon="9.66852668423407"><ele>392.0</ele><time>2026-05-04T13:13:20.991Z</time></trkpt><trkpt lat="44.85173180752092" lon="9.668689156754127"><ele>392.0</ele><time>2026-05-04T13:13:22.991Z</time></trkpt><trkpt lat="44.8516660730514" lon="9.66881107180248"><ele>392.0</ele><time>2026-05-04T13:13:24.991Z</time></trkpt><trkpt lat="44.85156865559861" lon="9.668878751664828"><ele>392.0</ele><time>2026-05-04T13:13:26.991Z</time></trkpt><trkpt lat="44.851439426320376" lon="9.668863381445075"><ele>392.0</ele><time>2026-05-04T13:13:28.991Z</time></trkpt><trkpt lat="44.851318823219486" lon="9.668863944375257"><ele>391.99999999999994</ele><time>2026-05-04T13:13:30.991Z</time></trkpt><trkpt lat="44.85125820988576" lon="9.668897319167696"><ele>392.0</ele><time>2026-05-04T13:13:31.991Z</time></trkpt><trkpt lat="44.85119692432084" lon="9.668966562245508"><ele>392.0</ele><time>2026-05-04T13:13:32.991Z</time></trkpt><trkpt lat="44.85112705710198" lon="9.66905525865868"><ele>392.0</ele><time>2026-05-04T13:13:33.991Z</time></trkpt><trkpt lat="44.85104685317533" lon="9.669139451682438"><ele>391.99999999999994</ele><time>2026-05-04T13:13:34.991Z</time></trkpt><trkpt lat="44.85096592208665" lon="9.669211531399329"><ele>392.0</ele><time>2026-05-04T13:13:35.991Z</time></trkpt><trkpt lat="44.85088882607844" lon="9.669271763668855"><ele>391.75</ele><time>2026-05-04T13:13:36.991Z</time></trkpt><trkpt lat="44.850811410219244" lon="9.669337734392926"><ele>391.5</ele><time>2026-05-04T13:13:37.991Z</time></trkpt><trkpt lat="44.85064014007349" lon="9.669427126940265"><ele>391.25</ele><time>2026-05-04T13:13:39.991Z</time></trkpt><trkpt lat="44.85055079801115" lon="9.669415170295304"><ele>391.0</ele><time>2026-05-04T13:13:40.991Z</time></trkpt><trkpt lat="44.85044829068989" lon="9.66935994115328"><ele>391.0</ele><time>2026-05-04T13:13:41.991Z</time></trkpt><trkpt lat="44.85035164823673" lon="9.669301977301398"><ele>391.0</ele><time>2026-05-04T13:13:42.991Z</time></trkpt><trkpt lat="44.85026524862209" lon="9.66926097573176"><ele>391.0</ele><time>2026-05-04T13:13:43.991Z</time></trkpt><trkpt lat="44.850186140168034" lon="9.669224914464735"><ele>391.0</ele><time>2026-05-04T13:13:44.991Z</time></trkpt><trkpt lat="44.850093963424015" lon="9.66921661840332"><ele>391.0</ele><time>2026-05-04T13:13:45.991Z</time></trkpt><trkpt lat="44.84998974114568" lon="9.669240691663383"><ele>391.20000000000005</ele><time>2026-05-04T13:13:46.991Z</time></trkpt><trkpt lat="44.84989439565627" lon="9.669317681274704"><ele>391.40000000000003</ele><time>2026-05-04T13:13:47.991Z</time></trkpt><trkpt lat="44.849822364803124" lon="9.669429875440393"><ele>391.6</ele><time>2026-05-04T13:13:48.991Z</time></trkpt><trkpt lat="44.8497512748856" lon="9.669550914292216"><ele>391.8</ele><time>2026-05-04T13:13:49.991Z</time></trkpt><trkpt lat="44.849682830536906" lon="9.669655491194947"><ele>392.0</ele><time>2026-05-04T13:13:50.991Z</time></trkpt><trkpt lat="44.84961261475351" lon="9.669759705709605"><ele>389.40000000000003</ele><time>2026-05-04T13:13:51.991Z</time></trkpt><trkpt lat="44.849540683243845" lon="9.669848568273006"><ele>386.8</ele><time>2026-05-04T13:13:52.991Z</time></trkpt><trkpt lat="44.84946198635145" lon="9.669918047937175"><ele>384.2</ele><time>2026-05-04T13:13:53.991Z</time></trkpt><trkpt lat="44.84937466877618" lon="9.669958381395965"><ele>381.6</ele><time>2026-05-04T13:13:54.991Z</time></trkpt><trkpt lat="44.84927071290415" lon="9.669953113316746"><ele>379.0</ele><time>2026-05-04T13:13:55.991Z</time></trkpt><trkpt lat="44.849147915607816" lon="9.66992549004021"><ele>379.0</ele><time>2026-05-04T13:13:56.991Z</time></trkpt><trkpt lat="44.84902412113663" lon="9.669903642168592"><ele>379.0</ele><time>2026-05-04T13:13:57.991Z</time></trkpt><trkpt lat="44.84889105381106" lon="9.669896155274216"><ele>379.0</ele><time>2026-05-04T13:13:58.991Z</time></trkpt><trkpt lat="44.84876409506052" lon="9.669898961023483"><ele>379.0</ele><time>2026-05-04T13:13:59.991Z</time></trkpt><trkpt lat="44.84864092611452" lon="9.669936379142708"><ele>379.0</ele><time>2026-05-04T13:14:00.991Z</time></trkpt><trkpt lat="44.84853733219739" lon="9.669992190169623"><ele>379.0</ele><time>2026-05-04T13:14:01.991Z</time></trkpt><trkpt lat="44.848444738542874" lon="9.670084681059524"><ele>379.0</ele><time>2026-05-04T13:14:02.991Z</time></trkpt><trkpt lat="44.84836996361256" lon="9.670198238315908"><ele>379.0</ele><time>2026-05-04T13:14:03.991Z</time></trkpt><trkpt lat="44.848313425129824" lon="9.670334235197279"><ele>379.0</ele><time>2026-05-04T13:14:04.991Z</time></trkpt><trkpt lat="44.84825954568803" lon="9.67045534708429"><ele>376.6</ele><time>2026-05-04T13:14:05.991Z</time></trkpt><trkpt lat="44.84819442434984" lon="9.67057372622839"><ele>374.2</ele><time>2026-05-04T13:14:06.991Z</time></trkpt><trkpt lat="44.8481111887925" lon="9.67068731146949"><ele>371.8</ele><time>2026-05-04T13:14:07.991Z</time></trkpt><trkpt lat="44.848023500661526" lon="9.670775013870884"><ele>369.40000000000003</ele><time>2026-05-04T13:14:08.991Z</time></trkpt><trkpt lat="44.84795683708916" lon="9.67085169186998"><ele>367.0</ele><time>2026-05-04T13:14:09.991Z</time></trkpt><trkpt lat="44.84787901971136" lon="9.67093954073329"><ele>367.0</ele><time>2026-05-04T13:14:11.991Z</time></trkpt><trkpt lat="44.84790982056932" lon="9.671041445413106"><ele>367.0</ele><time>2026-05-04T13:14:45.992Z</time></trkpt><trkpt lat="44.84800046063622" lon="9.671077416474718"><ele>367.0</ele><time>2026-05-04T13:14:48.992Z</time></trkpt><trkpt lat="44.8480720716702" lon="9.671107739248145"><ele>367.0</ele><time>2026-05-04T13:14:50.992Z</time></trkpt><trkpt lat="44.84814835004409" lon="9.671134733482784"><ele>367.0</ele><time>2026-05-04T13:14:52.992Z</time></trkpt><trkpt lat="44.84822127864173" lon="9.67117440624675"><ele>367.0</ele><time>2026-05-04T13:14:54.992Z</time></trkpt><trkpt lat="44.848298673856014" lon="9.671250014570703"><ele>364.8333333333333</ele><time>2026-05-04T13:14:56.992Z</time></trkpt><trkpt lat="44.84836923428143" lon="9.671358316521316"><ele>362.66666666666663</ele><time>2026-05-04T13:14:58.992Z</time></trkpt><trkpt lat="44.84842004334066" lon="9.671467948561599"><ele>360.5</ele><time>2026-05-04T13:15:00.992Z</time></trkpt><trkpt lat="44.84847148988362" lon="9.671571076669219"><ele>358.3333333333333</ele><time>2026-05-04T13:15:02.992Z</time></trkpt><trkpt lat="44.8485060082174" lon="9.671677128401377"><ele>356.1666666666667</ele><time>2026-05-04T13:15:04.992Z</time></trkpt><trkpt lat="44.84852014186636" lon="9.671777271307112"><ele>354.0</ele><time>2026-05-04T13:15:06.992Z</time></trkpt><trkpt lat="44.848554788858095" lon="9.671855660753794"><ele>352.3333333333333</ele><time>2026-05-04T13:15:08.992Z</time></trkpt><trkpt lat="44.84859761386841" lon="9.671944907476924"><ele>350.6666666666667</ele><time>2026-05-04T13:15:10.992Z</time></trkpt><trkpt lat="44.84861977227003" lon="9.67206158452854"><ele>349.0</ele><time>2026-05-04T13:15:19.992Z</time></trkpt><trkpt lat="44.84866002738317" lon="9.672169690151923"><ele>347.33333333333337</ele><time>2026-05-04T13:15:21.992Z</time></trkpt><trkpt lat="44.84870646361293" lon="9.672240319390193"><ele>345.6666666666667</ele><time>2026-05-04T13:15:23.992Z</time></trkpt><trkpt lat="44.848759418322224" lon="9.672298613046197"><ele>344.0</ele><time>2026-05-04T13:15:27.992Z</time></trkpt><trkpt lat="44.84869940927599" lon="9.672363005993942"><ele>344.0</ele><time>2026-05-04T13:15:33.992Z</time></trkpt><trkpt lat="44.84862134985845" lon="9.672292580089096"><ele>344.0</ele><time>2026-05-04T13:15:35.992Z</time></trkpt><trkpt lat="44.84853714170586" lon="9.67224942016746"><ele>344.0</ele><time>2026-05-04T13:15:37.992Z</time></trkpt><trkpt lat="44.84843992899855" lon="9.672195163896097"><ele>344.0</ele><time>2026-05-04T13:15:39.992Z</time></trkpt><trkpt lat="44.84837669206572" lon="9.672165774982712"><ele>344.0</ele><time>2026-05-04T13:15:41.992Z</time></trkpt><trkpt lat="44.84829030366837" lon="9.6721710704764"><ele>344.0</ele><time>2026-05-04T13:15:45.992Z</time></trkpt><trkpt lat="44.84820083378506" lon="9.672178149782779"><ele>343.33333333333337</ele><time>2026-05-04T13:15:52.992Z</time></trkpt><trkpt lat="44.84813319698104" lon="9.67222761264509"><ele>342.6666666666667</ele><time>2026-05-04T13:15:54.992Z</time></trkpt><trkpt lat="44.84804974916616" lon="9.672315550924665"><ele>342.0</ele><time>2026-05-04T13:15:56.992Z</time></trkpt><trkpt lat="44.84799055126832" lon="9.672374122827154"><ele>341.3333333333333</ele><time>2026-05-04T13:15:57.992Z</time></trkpt><trkpt lat="44.84792896743367" lon="9.672428681796015"><ele>340.66666666666663</ele><time>2026-05-04T13:15:58.992Z</time></trkpt><trkpt lat="44.84787254718954" lon="9.672484477187675"><ele>340.0</ele><time>2026-05-04T13:15:59.992Z</time></trkpt><trkpt lat="44.847784321083" lon="9.672562961911298"><ele>340.0</ele><time>2026-05-04T13:16:01.992Z</time></trkpt><trkpt lat="44.84769920383546" lon="9.672642976611556"><ele>340.0</ele><time>2026-05-04T13:16:03.992Z</time></trkpt><trkpt lat="44.84761452571744" lon="9.672701876816172"><ele>340.0</ele><time>2026-05-04T13:16:05.992Z</time></trkpt><trkpt lat="44.847545908654894" lon="9.672753632281257"><ele>340.0</ele><time>2026-05-04T13:16:07.992Z</time></trkpt><trkpt lat="44.84748547980299" lon="9.672789375064141"><ele>340.0</ele><time>2026-05-04T13:16:09.992Z</time></trkpt><trkpt lat="44.84739158426898" lon="9.672795384103855"><ele>340.0</ele><time>2026-05-04T13:16:12.992Z</time></trkpt><trkpt lat="44.84730303680584" lon="9.672766009155897"><ele>339.8</ele><time>2026-05-04T13:16:14.992Z</time></trkpt><trkpt lat="44.847215766429436" lon="9.672698106965711"><ele>339.6</ele><time>2026-05-04T13:16:16.992Z</time></trkpt><trkpt lat="44.8471347633837" lon="9.672623060201571"><ele>339.4</ele><time>2026-05-04T13:16:18.992Z</time></trkpt><trkpt lat="44.847048369788624" lon="9.672551922744328"><ele>339.2</ele><time>2026-05-04T13:16:20.992Z</time></trkpt><trkpt lat="44.846946176044916" lon="9.672465444862524"><ele>339.0</ele><time>2026-05-04T13:16:22.992Z</time></trkpt><trkpt lat="44.84684776061275" lon="9.672405519174681"><ele>337.6</ele><time>2026-05-04T13:16:24.992Z</time></trkpt><trkpt lat="44.846769390530994" lon="9.67239980361745"><ele>336.2</ele><time>2026-05-04T13:16:26.992Z</time></trkpt><trkpt lat="44.846676230170615" lon="9.672442656179674"><ele>334.8</ele><time>2026-05-04T13:16:28.992Z</time></trkpt><trkpt lat="44.8466123621927" lon="9.672480087031479"><ele>333.40000000000003</ele><time>2026-05-04T13:16:29.992Z</time></trkpt><trkpt lat="44.846516508057206" lon="9.672558459563911"><ele>332.0</ele><time>2026-05-04T13:16:31.992Z</time></trkpt><trkpt lat="44.84643047691492" lon="9.67261156566001"><ele>332.0</ele><time>2026-05-04T13:16:33.992Z</time></trkpt><trkpt lat="44.84636695393948" lon="9.67265138888471"><ele>332.0</ele><time>2026-05-04T13:16:34.992Z</time></trkpt><trkpt lat="44.846305216178806" lon="9.672703424837826"><ele>332.0</ele><time>2026-05-04T13:16:35.992Z</time></trkpt><trkpt lat="44.84623669201472" lon="9.672744938904765"><ele>332.0</ele><time>2026-05-04T13:16:36.992Z</time></trkpt><trkpt lat="44.846176483239425" lon="9.67279072511677"><ele>332.0</ele><time>2026-05-04T13:16:37.992Z</time></trkpt><trkpt lat="44.84607684191519" lon="9.67283681108491"><ele>332.0</ele><time>2026-05-04T13:16:39.992Z</time></trkpt><trkpt lat="44.84601117396262" lon="9.672850700411718"><ele>331.20000000000005</ele><time>2026-05-04T13:16:40.992Z</time></trkpt><trkpt lat="44.845900665347436" lon="9.67283212492599"><ele>330.4</ele><time>2026-05-04T13:16:42.992Z</time></trkpt><trkpt lat="44.845810006940184" lon="9.67278022117858"><ele>329.6</ele><time>2026-05-04T13:16:44.992Z</time></trkpt><trkpt lat="44.84575572743405" lon="9.672724701869049"><ele>328.79999999999995</ele><time>2026-05-04T13:16:45.991Z</time></trkpt><trkpt lat="44.84569409033545" lon="9.672637405819014"><ele>328.0</ele><time>2026-05-04T13:16:46.991Z</time></trkpt><trkpt lat="44.84561891699128" lon="9.672517105429257"><ele>328.0</ele><time>2026-05-04T13:16:48.992Z</time></trkpt><trkpt lat="44.84555544916233" lon="9.67245119312591"><ele>328.0</ele><time>2026-05-04T13:16:50.991Z</time></trkpt><trkpt lat="44.84548192310148" lon="9.67244879446838"><ele>328.0</ele><time>2026-05-04T13:16:52.991Z</time></trkpt><trkpt lat="44.845380272334346" lon="9.672497870869746"><ele>328.0</ele><time>2026-05-04T13:16:54.991Z</time></trkpt><trkpt lat="44.84529636133157" lon="9.672566160598551"><ele>328.0</ele><time>2026-05-04T13:16:56.991Z</time></trkpt><trkpt lat="44.84525432869411" lon="9.672690648917984"><ele>326.3333333333333</ele><time>2026-05-04T13:16:58.991Z</time></trkpt><trkpt lat="44.845238933591624" lon="9.672777410392984"><ele>324.66666666666663</ele><time>2026-05-04T13:16:59.991Z</time></trkpt><trkpt lat="44.84516238059822" lon="9.672899746035256"><ele>323.0</ele><time>2026-05-04T13:17:01.991Z</time></trkpt><trkpt lat="44.845089791706464" lon="9.672961920264779"><ele>321.3333333333333</ele><time>2026-05-04T13:17:02.991Z</time></trkpt><trkpt lat="44.84501058652556" lon="9.673005471840419"><ele>319.6666666666667</ele><time>2026-05-04T13:17:03.991Z</time></trkpt><trkpt lat="44.844935432463764" lon="9.673070599107104"><ele>318.0</ele><time>2026-05-04T13:17:04.991Z</time></trkpt><trkpt lat="44.84485408967654" lon="9.673158004289041"><ele>317.8333333333333</ele><time>2026-05-04T13:17:05.991Z</time></trkpt><trkpt lat="44.844772692187306" lon="9.673220474622584"><ele>317.6666666666667</ele><time>2026-05-04T13:17:06.991Z</time></trkpt><trkpt lat="44.844699032135445" lon="9.673260232812991"><ele>317.5</ele><time>2026-05-04T13:17:07.991Z</time></trkpt><trkpt lat="44.844633877603506" lon="9.673269877819255"><ele>317.33333333333337</ele><time>2026-05-04T13:17:08.991Z</time></trkpt><trkpt lat="44.8445081889221" lon="9.67328976837627"><ele>317.1666666666667</ele><time>2026-05-04T13:17:10.991Z</time></trkpt><trkpt lat="44.844440321426724" lon="9.673299383691257"><ele>317.0</ele><time>2026-05-04T13:17:11.991Z</time></trkpt><trkpt lat="44.84437653931076" lon="9.673318632973055"><ele>317.0</ele><time>2026-05-04T13:17:12.991Z</time></trkpt><trkpt lat="44.84431106835435" lon="9.673348150703736"><ele>317.0</ele><time>2026-05-04T13:17:13.991Z</time></trkpt><trkpt lat="44.844238046275784" lon="9.673375210188414"><ele>317.0</ele><time>2026-05-04T13:17:14.991Z</time></trkpt><trkpt lat="44.844158638374644" lon="9.673402000945154"><ele>317.0</ele><time>2026-05-04T13:17:15.991Z</time></trkpt><trkpt lat="44.844088575523045" lon="9.673425901669722"><ele>317.0</ele><time>2026-05-04T13:17:16.991Z</time></trkpt><trkpt lat="44.84402128525194" lon="9.673452606607926"><ele>317.0</ele><time>2026-05-04T13:17:17.991Z</time></trkpt><trkpt lat="44.843957885516375" lon="9.673491985722102"><ele>317.0</ele><time>2026-05-04T13:17:18.991Z</time></trkpt><trkpt lat="44.84385378551978" lon="9.673539602400254"><ele>316.2</ele><time>2026-05-04T13:17:20.991Z</time></trkpt><trkpt lat="44.84375222691804" lon="9.673571982254426"><ele>315.4</ele><time>2026-05-04T13:17:22.991Z</time></trkpt><trkpt lat="44.84367422707887" lon="9.673609791292257"><ele>314.6</ele><time>2026-05-04T13:17:24.991Z</time></trkpt><trkpt lat="44.84359564183339" lon="9.673670311658759"><ele>313.8</ele><time>2026-05-04T13:17:26.991Z</time></trkpt><trkpt lat="44.8435145981945" lon="9.6737180980471"><ele>313.0</ele><time>2026-05-04T13:17:28.991Z</time></trkpt><trkpt lat="44.84342346991033" lon="9.673729795756618"><ele>313.0</ele><time>2026-05-04T13:17:30.991Z</time></trkpt><trkpt lat="44.84335664688564" lon="9.67375012362288"><ele>313.0</ele><time>2026-05-04T13:17:31.991Z</time></trkpt><trkpt lat="44.843287717403086" lon="9.673775412993942"><ele>313.0</ele><time>2026-05-04T13:17:32.991Z</time></trkpt><trkpt lat="44.84320971151009" lon="9.673790925201503"><ele>313.0</ele><time>2026-05-04T13:17:33.991Z</time></trkpt><trkpt lat="44.843123860008234" lon="9.673823943898382"><ele>313.0</ele><time>2026-05-04T13:17:34.991Z</time></trkpt><trkpt lat="44.843040165180035" lon="9.673869027994641"><ele>313.0</ele><time>2026-05-04T13:17:35.991Z</time></trkpt><trkpt lat="44.84296479467662" lon="9.673918440315422"><ele>313.0</ele><time>2026-05-04T13:17:36.991Z</time></trkpt><trkpt lat="44.842853114804264" lon="9.673980799143688"><ele>313.0</ele><time>2026-05-04T13:17:38.991Z</time></trkpt><trkpt lat="44.84278235260193" lon="9.674039199781413"><ele>313.0</ele><time>2026-05-04T13:17:39.991Z</time></trkpt><trkpt lat="44.84271016698361" lon="9.674129024385103"><ele>313.0</ele><time>2026-05-04T13:17:40.991Z</time></trkpt><trkpt lat="44.842638374207986" lon="9.674195881421308"><ele>313.0</ele><time>2026-05-04T13:17:41.991Z</time></trkpt><trkpt lat="44.84255961309168" lon="9.674246308725083"><ele>315.0</ele><time>2026-05-04T13:17:42.991Z</time></trkpt><trkpt lat="44.84246437478228" lon="9.674310104302814"><ele>317.0</ele><time>2026-05-04T13:17:43.991Z</time></trkpt><trkpt lat="44.842368054447036" lon="9.674361130453049"><ele>319.0</ele><time>2026-05-04T13:17:44.991Z</time></trkpt><trkpt lat="44.84226007725615" lon="9.674409546743941"><ele>321.0</ele><time>2026-05-04T13:17:45.991Z</time></trkpt><trkpt lat="44.84213089887812" lon="9.674465330512128"><ele>321.0</ele><time>2026-05-04T13:17:46.991Z</time></trkpt><trkpt lat="44.842002745817354" lon="9.674495723632763"><ele>321.0</ele><time>2026-05-04T13:17:47.991Z</time></trkpt><trkpt lat="44.841894628761786" lon="9.674521008062298"><ele>321.0</ele><time>2026-05-04T13:17:48.991Z</time></trkpt><trkpt lat="44.84178106341175" lon="9.674535084168227"><ele>321.0</ele><time>2026-05-04T13:17:49.991Z</time></trkpt><trkpt lat="44.8416730614927" lon="9.67459271146126"><ele>321.5</ele><time>2026-05-04T13:17:50.991Z</time></trkpt><trkpt lat="44.841569965461694" lon="9.674658800214539"><ele>322.0</ele><time>2026-05-04T13:17:51.991Z</time></trkpt><trkpt lat="44.84146383649501" lon="9.674740493379462"><ele>322.5</ele><time>2026-05-04T13:17:52.991Z</time></trkpt><trkpt lat="44.841349107111775" lon="9.67479835695078"><ele>323.0</ele><time>2026-05-04T13:17:53.991Z</time></trkpt><trkpt lat="44.84123148806587" lon="9.674811942890466"><ele>323.0</ele><time>2026-05-04T13:17:54.991Z</time></trkpt><trkpt lat="44.84110938377512" lon="9.674792547365787"><ele>323.0</ele><time>2026-05-04T13:17:55.991Z</time></trkpt><trkpt lat="44.840978678965335" lon="9.674735888570533"><ele>323.0</ele><time>2026-05-04T13:17:56.991Z</time></trkpt><trkpt lat="44.84084456001046" lon="9.674694254705415"><ele>323.0</ele><time>2026-05-04T13:17:57.991Z</time></trkpt><trkpt lat="44.84071882856403" lon="9.674643785628543"><ele>324.0</ele><time>2026-05-04T13:17:58.991Z</time></trkpt><trkpt lat="44.84061302465419" lon="9.674574236093356"><ele>325.0</ele><time>2026-05-04T13:17:59.991Z</time></trkpt><trkpt lat="44.84051375707461" lon="9.674492244073758"><ele>326.0</ele><time>2026-05-04T13:18:00.991Z</time></trkpt><trkpt lat="44.8404104115475" lon="9.674444396845391"><ele>327.0</ele><time>2026-05-04T13:18:01.991Z</time></trkpt><trkpt lat="44.84033093083888" lon="9.674459311457605"><ele>328.0</ele><time>2026-05-04T13:18:02.991Z</time></trkpt><trkpt lat="44.840254002320485" lon="9.674491140571513"><ele>328.0</ele><time>2026-05-04T13:18:03.991Z</time></trkpt><trkpt lat="44.840155277438924" lon="9.674515147511467"><ele>328.0</ele><time>2026-05-04T13:18:04.991Z</time></trkpt><trkpt lat="44.840054539938926" lon="9.674493050497691"><ele>328.0</ele><time>2026-05-04T13:18:05.991Z</time></trkpt><trkpt lat="44.83994355849809" lon="9.674466783991315"><ele>328.0</ele><time>2026-05-04T13:18:06.991Z</time></trkpt><trkpt lat="44.839818691306" lon="9.674474431918968"><ele>328.0</ele><time>2026-05-04T13:18:07.991Z</time></trkpt><trkpt lat="44.83969163972152" lon="9.674521972515963"><ele>329.5</ele><time>2026-05-04T13:18:08.991Z</time></trkpt><trkpt lat="44.839553612048206" lon="9.67456772850038"><ele>331.0</ele><time>2026-05-04T13:18:09.991Z</time></trkpt><trkpt lat="44.83941187794393" lon="9.674581953314043"><ele>332.5</ele><time>2026-05-04T13:18:10.991Z</time></trkpt><trkpt lat="44.83927146271759" lon="9.67458981602526"><ele>334.0</ele><time>2026-05-04T13:18:11.991Z</time></trkpt><trkpt lat="44.83912517135763" lon="9.674587836064038"><ele>334.79999999999995</ele><time>2026-05-04T13:18:12.991Z</time></trkpt><trkpt lat="44.83899414402886" lon="9.67457631840758"><ele>335.59999999999997</ele><time>2026-05-04T13:18:13.991Z</time></trkpt><trkpt lat="44.8388743211868" lon="9.674540471816435"><ele>336.4</ele><time>2026-05-04T13:18:14.991Z</time></trkpt><trkpt lat="44.838771861416845" lon="9.674502281323404"><ele>337.2</ele><time>2026-05-04T13:18:15.991Z</time></trkpt><trkpt lat="44.83868847737232" lon="9.6744640008747"><ele>338.0</ele><time>2026-05-04T13:18:16.991Z</time></trkpt><trkpt lat="44.83861512137827" lon="9.674442729053197"><ele>338.0</ele><time>2026-05-04T13:18:17.991Z</time></trkpt><trkpt lat="44.838508685348515" lon="9.674511801818888"><ele>338.0</ele><time>2026-05-04T13:18:19.991Z</time></trkpt><trkpt lat="44.83848169325604" lon="9.674607049936842"><ele>338.0</ele><time>2026-05-04T13:18:20.991Z</time></trkpt><trkpt lat="44.838486338765996" lon="9.67471936584199"><ele>338.0</ele><time>2026-05-04T13:18:21.991Z</time></trkpt><trkpt lat="44.838523965241244" lon="9.674828813642069"><ele>338.0</ele><time>2026-05-04T13:18:22.991Z</time></trkpt><trkpt lat="44.83858817581379" lon="9.674923975483635"><ele>338.0</ele><time>2026-05-04T13:18:23.991Z</time></trkpt><trkpt lat="44.838677067993984" lon="9.675003486534345"><ele>338.0</ele><time>2026-05-04T13:18:24.991Z</time></trkpt><trkpt lat="44.838772474891364" lon="9.675050921233675"><ele>338.0</ele><time>2026-05-04T13:18:25.991Z</time></trkpt><trkpt lat="44.83887487423638" lon="9.675061440407868"><ele>338.0</ele><time>2026-05-04T13:18:26.991Z</time></trkpt><trkpt lat="44.838985532259784" lon="9.67507165297887"><ele>338.0</ele><time>2026-05-04T13:18:27.991Z</time></trkpt><trkpt lat="44.839099522831646" lon="9.675093950366783"><ele>338.0</ele><time>2026-05-04T13:18:28.991Z</time></trkpt><trkpt lat="44.83938993772371" lon="9.675189336113261"><ele>337.2</ele><time>2026-05-04T13:18:31.991Z</time></trkpt><trkpt lat="44.83946874581213" lon="9.675260734949722"><ele>336.4</ele><time>2026-05-04T13:18:32.991Z</time></trkpt><trkpt lat="44.83952856351524" lon="9.675347055241026"><ele>335.59999999999997</ele><time>2026-05-04T13:18:33.991Z</time></trkpt><trkpt lat="44.83958711639809" lon="9.675452748625744"><ele>334.79999999999995</ele><time>2026-05-04T13:18:34.991Z</time></trkpt><trkpt lat="44.83962171142666" lon="9.675589849540101"><ele>334.0</ele><time>2026-05-04T13:18:35.991Z</time></trkpt><trkpt lat="44.839642879428396" lon="9.675725872526614"><ele>336.3333333333333</ele><time>2026-05-04T13:18:36.991Z</time></trkpt><trkpt lat="44.83966883665342" lon="9.675840994880742"><ele>338.66666666666663</ele><time>2026-05-04T13:18:37.991Z</time></trkpt><trkpt lat="44.83971048838013" lon="9.675947102185125"><ele>341.0</ele><time>2026-05-04T13:18:38.991Z</time></trkpt><trkpt lat="44.839783515397556" lon="9.676007110944587"><ele>343.3333333333333</ele><time>2026-05-04T13:18:39.991Z</time></trkpt><trkpt lat="44.83987387641012" lon="9.676034652064669"><ele>345.6666666666667</ele><time>2026-05-04T13:18:40.991Z</time></trkpt><trkpt lat="44.83996716381922" lon="9.676038138214757"><ele>348.0</ele><time>2026-05-04T13:18:41.991Z</time></trkpt><trkpt lat="44.84006190732215" lon="9.676049580544216"><ele>348.0</ele><time>2026-05-04T13:18:42.991Z</time></trkpt><trkpt lat="44.84014182846209" lon="9.676085073893969"><ele>348.0</ele><time>2026-05-04T13:18:43.991Z</time></trkpt><trkpt lat="44.84021257716503" lon="9.676127669353935"><ele>348.0</ele><time>2026-05-04T13:18:44.991Z</time></trkpt><trkpt lat="44.84029455849052" lon="9.676149842218539"><ele>348.0</ele><time>2026-05-04T13:18:45.991Z</time></trkpt><trkpt lat="44.84038971280825" lon="9.676146804763649"><ele>348.0</ele><time>2026-05-04T13:18:46.991Z</time></trkpt><trkpt lat="44.840478434042815" lon="9.676121049534908"><ele>348.0</ele><time>2026-05-04T13:18:47.991Z</time></trkpt><trkpt lat="44.84061571279851" lon="9.676098964826199"><ele>350.5</ele><time>2026-05-04T13:18:49.991Z</time></trkpt><trkpt lat="44.84069909289903" lon="9.67610715548697"><ele>353.0</ele><time>2026-05-04T13:18:50.991Z</time></trkpt><trkpt lat="44.84078507082095" lon="9.676138877614285"><ele>355.5</ele><time>2026-05-04T13:18:51.991Z</time></trkpt><trkpt lat="44.84087759905567" lon="9.676152344882222"><ele>358.0</ele><time>2026-05-04T13:18:52.991Z</time></trkpt><trkpt lat="44.84095395694025" lon="9.676171306675528"><ele>360.5</ele><time>2026-05-04T13:18:53.991Z</time></trkpt><trkpt lat="44.841030445316115" lon="9.676195898143414"><ele>363.0</ele><time>2026-05-04T13:18:54.991Z</time></trkpt><trkpt lat="44.84108974540487" lon="9.676254968906536"><ele>363.0</ele><time>2026-05-04T13:18:55.991Z</time></trkpt><trkpt lat="44.8411057328592" lon="9.676380500555952"><ele>363.0</ele><time>2026-05-04T13:18:57.991Z</time></trkpt><trkpt lat="44.84102739757341" lon="9.67639995470398"><ele>363.0</ele><time>2026-05-04T13:18:59.991Z</time></trkpt><trkpt lat="44.8409592226075" lon="9.676338364390617"><ele>363.0</ele><time>2026-05-04T13:19:00.991Z</time></trkpt><trkpt lat="44.84087562588413" lon="9.676321237933136"><ele>363.0</ele><time>2026-05-04T13:19:01.991Z</time></trkpt><trkpt lat="44.84077463847459" lon="9.676343034768013"><ele>363.0</ele><time>2026-05-04T13:19:02.991Z</time></trkpt><trkpt lat="44.84066180802288" lon="9.676383897689892"><ele>364.0</ele><time>2026-05-04T13:19:03.99Z</time></trkpt><trkpt lat="44.8405450948352" lon="9.676420459453869"><ele>365.0</ele><time>2026-05-04T13:19:04.991Z</time></trkpt><trkpt lat="44.84044412602221" lon="9.676457399009212"><ele>366.0</ele><time>2026-05-04T13:19:05.991Z</time></trkpt><trkpt lat="44.84035324637965" lon="9.676489449813113"><ele>367.0</ele><time>2026-05-04T13:19:06.991Z</time></trkpt><trkpt lat="44.840272701415614" lon="9.676520627014995"><ele>368.0</ele><time>2026-05-04T13:19:07.991Z</time></trkpt><trkpt lat="44.84020823138305" lon="9.676582919250976"><ele>368.0</ele><time>2026-05-04T13:19:08.991Z</time></trkpt><trkpt lat="44.84015853999323" lon="9.676680699130904"><ele>368.0</ele><time>2026-05-04T13:19:09.991Z</time></trkpt><trkpt lat="44.84013575889428" lon="9.676813556130213"><ele>368.0</ele><time>2026-05-04T13:19:10.991Z</time></trkpt><trkpt lat="44.8401137104198" lon="9.676960532623657"><ele>368.0</ele><time>2026-05-04T13:19:11.991Z</time></trkpt><trkpt lat="44.840076573379605" lon="9.677116908169435"><ele>368.0</ele><time>2026-05-04T13:19:12.991Z</time></trkpt><trkpt lat="44.84002693403503" lon="9.677271434083805"><ele>368.5</ele><time>2026-05-04T13:19:13.991Z</time></trkpt><trkpt lat="44.8399783727057" lon="9.67740990878313"><ele>369.0</ele><time>2026-05-04T13:19:14.991Z</time></trkpt><trkpt lat="44.839926321240824" lon="9.677504306199546"><ele>369.5</ele><time>2026-05-04T13:19:15.991Z</time></trkpt><trkpt lat="44.83986109134255" lon="9.677549909892988"><ele>370.0</ele><time>2026-05-04T13:19:16.991Z</time></trkpt><trkpt lat="44.839782542184835" lon="9.67755441185249"><ele>370.5</ele><time>2026-05-04T13:19:17.991Z</time></trkpt><trkpt lat="44.83968913256224" lon="9.677520297212814"><ele>371.0</ele><time>2026-05-04T13:19:18.991Z</time></trkpt><trkpt lat="44.839579363742544" lon="9.677464502107279"><ele>371.0</ele><time>2026-05-04T13:19:19.991Z</time></trkpt><trkpt lat="44.83944749853873" lon="9.677397560435859"><ele>371.0</ele><time>2026-05-04T13:19:20.991Z</time></trkpt><trkpt lat="44.83930123670827" lon="9.677329245191684"><ele>371.0</ele><time>2026-05-04T13:19:21.991Z</time></trkpt><trkpt lat="44.839174896149125" lon="9.677255878147239"><ele>371.0</ele><time>2026-05-04T13:19:22.991Z</time></trkpt><trkpt lat="44.83907407729502" lon="9.67720005217921"><ele>372.20000000000005</ele><time>2026-05-04T13:19:23.991Z</time></trkpt><trkpt lat="44.838983238306646" lon="9.677174419031111"><ele>373.40000000000003</ele><time>2026-05-04T13:19:24.991Z</time></trkpt><trkpt lat="44.83889370252053" lon="9.67720381833392"><ele>374.6</ele><time>2026-05-04T13:19:25.991Z</time></trkpt><trkpt lat="44.83879950783462" lon="9.677261253881229"><ele>375.8</ele><time>2026-05-04T13:19:26.991Z</time></trkpt><trkpt lat="44.838729528840034" lon="9.677357495158429"><ele>377.0</ele><time>2026-05-04T13:19:27.991Z</time></trkpt><trkpt lat="44.83866006325762" lon="9.677465078416846"><ele>377.0</ele><time>2026-05-04T13:19:28.991Z</time></trkpt><trkpt lat="44.83858318792693" lon="9.67754556606328"><ele>377.0</ele><time>2026-05-04T13:19:29.991Z</time></trkpt><trkpt lat="44.83849010951884" lon="9.677590740970606"><ele>377.0</ele><time>2026-05-04T13:19:30.991Z</time></trkpt><trkpt lat="44.83837713033475" lon="9.677583368720384"><ele>377.0</ele><time>2026-05-04T13:19:31.991Z</time></trkpt><trkpt lat="44.838255903195595" lon="9.677539555147003"><ele>377.0</ele><time>2026-05-04T13:19:32.991Z</time></trkpt><trkpt lat="44.838143935710065" lon="9.677474889809162"><ele>377.6</ele><time>2026-05-04T13:19:33.991Z</time></trkpt><trkpt lat="44.838044793802105" lon="9.677441231959643"><ele>378.20000000000005</ele><time>2026-05-04T13:19:34.991Z</time></trkpt><trkpt lat="44.83795236975627" lon="9.677474068152481"><ele>378.8</ele><time>2026-05-04T13:19:35.991Z</time></trkpt><trkpt lat="44.837857577324165" lon="9.677546549586744"><ele>379.4</ele><time>2026-05-04T13:19:36.991Z</time></trkpt><trkpt lat="44.83776694095099" lon="9.67760561969457"><ele>380.0</ele><time>2026-05-04T13:19:37.991Z</time></trkpt><trkpt lat="44.837674751859716" lon="9.677624364991924"><ele>380.8</ele><time>2026-05-04T13:19:38.991Z</time></trkpt><trkpt lat="44.83758148265409" lon="9.677565903849095"><ele>381.6</ele><time>2026-05-04T13:19:39.991Z</time></trkpt><trkpt lat="44.837494554035466" lon="9.677475610766606"><ele>382.4</ele><time>2026-05-04T13:19:40.991Z</time></trkpt><trkpt lat="44.83740868058802" lon="9.67738921784814"><ele>383.2</ele><time>2026-05-04T13:19:41.991Z</time></trkpt><trkpt lat="44.83731320038436" lon="9.677318584758146"><ele>384.0</ele><time>2026-05-04T13:19:42.991Z</time></trkpt><trkpt lat="44.83722807265912" lon="9.677250965544747"><ele>384.0</ele><time>2026-05-04T13:19:43.991Z</time></trkpt><trkpt lat="44.83716776693184" lon="9.677188609538833"><ele>384.0</ele><time>2026-05-04T13:19:44.991Z</time></trkpt><trkpt lat="44.8370821944843" lon="9.677130793309797"><ele>384.0</ele><time>2026-05-04T13:19:46.991Z</time></trkpt><trkpt lat="44.83701559961981" lon="9.677124967624666"><ele>384.0</ele><time>2026-05-04T13:19:49.991Z</time></trkpt><trkpt lat="44.8369461995439" lon="9.677150068958484"><ele>384.0</ele><time>2026-05-04T13:19:52.991Z</time></trkpt><trkpt lat="44.83686347959322" lon="9.67721385775484"><ele>384.0</ele><time>2026-05-04T13:19:54.991Z</time></trkpt><trkpt lat="44.836750632897804" lon="9.677270910009298"><ele>384.1666666666667</ele><time>2026-05-04T13:19:56.991Z</time></trkpt><trkpt lat="44.83663462043113" lon="9.677335580835226"><ele>384.33333333333337</ele><time>2026-05-04T13:19:58.991Z</time></trkpt><trkpt lat="44.83656866674493" lon="9.677377848779658"><ele>384.5</ele><time>2026-05-04T13:19:59.991Z</time></trkpt><trkpt lat="44.836506429420794" lon="9.677427245296222"><ele>384.6666666666667</ele><time>2026-05-04T13:20:00.991Z</time></trkpt><trkpt lat="44.836443470011396" lon="9.677469688097126"><ele>384.83333333333337</ele><time>2026-05-04T13:20:01.991Z</time></trkpt><trkpt lat="44.836387951137944" lon="9.677522646326963"><ele>385.0</ele><time>2026-05-04T13:20:02.991Z</time></trkpt><trkpt lat="44.836330579177584" lon="9.677571354913987"><ele>385.00000000000006</ele><time>2026-05-04T13:20:03.991Z</time></trkpt><trkpt lat="44.83622961197383" lon="9.677618437348368"><ele>385.0</ele><time>2026-05-04T13:20:05.991Z</time></trkpt><trkpt lat="44.83616478719157" lon="9.67767259529967"><ele>385.0</ele><time>2026-05-04T13:20:08.991Z</time></trkpt><trkpt lat="44.836215549921526" lon="9.677730594075667"><ele>385.0</ele><time>2026-05-04T13:20:11.991Z</time></trkpt><trkpt lat="44.83627279123497" lon="9.677663236515905"><ele>385.00000000000006</ele><time>2026-05-04T13:20:13.991Z</time></trkpt><trkpt lat="44.836313154011336" lon="9.67759480055429"><ele>385.0</ele><time>2026-05-04T13:20:14.991Z</time></trkpt><trkpt lat="44.83636014605299" lon="9.677524199070698"><ele>385.0</ele><time>2026-05-04T13:20:15.991Z</time></trkpt><trkpt lat="44.83642748495004" lon="9.677458586335826"><ele>385.0</ele><time>2026-05-04T13:20:16.991Z</time></trkpt><trkpt lat="44.83650222442473" lon="9.67739098056844"><ele>385.0</ele><time>2026-05-04T13:20:17.991Z</time></trkpt><trkpt lat="44.83658645490511" lon="9.677324101596026"><ele>385.0</ele><time>2026-05-04T13:20:18.991Z</time></trkpt><trkpt lat="44.83668186621816" lon="9.677263691155396"><ele>385.0</ele><time>2026-05-04T13:20:19.991Z</time></trkpt><trkpt lat="44.836777461863115" lon="9.677225086020865"><ele>385.00000000000006</ele><time>2026-05-04T13:20:20.991Z</time></trkpt><trkpt lat="44.83685071297131" lon="9.677196389252263"><ele>385.0</ele><time>2026-05-04T13:20:21.991Z</time></trkpt><trkpt lat="44.836937573595506" lon="9.677171828420263"><ele>385.0</ele><time>2026-05-04T13:20:23.991Z</time></trkpt><trkpt lat="44.83696108854506" lon="9.677080400724414"><ele>385.0</ele><time>2026-05-04T13:20:27.99Z</time></trkpt><trkpt lat="44.83689886612015" lon="9.67703668101503"><ele>385.00000000000006</ele><time>2026-05-04T13:20:29.99Z</time></trkpt><trkpt lat="44.83683527962349" lon="9.677016258064462"><ele>385.0</ele><time>2026-05-04T13:20:30.99Z</time></trkpt><trkpt lat="44.83675454791539" lon="9.676960593029122"><ele>386.6</ele><time>2026-05-04T13:20:31.99Z</time></trkpt><trkpt lat="44.836669604469186" lon="9.67688391412997"><ele>388.2</ele><time>2026-05-04T13:20:32.99Z</time></trkpt><trkpt lat="44.83658383170775" lon="9.676798826202598"><ele>389.79999999999995</ele><time>2026-05-04T13:20:33.99Z</time></trkpt><trkpt lat="44.836505884754736" lon="9.67671503459535"><ele>391.4</ele><time>2026-05-04T13:20:34.99Z</time></trkpt><trkpt lat="44.836423398118455" lon="9.676649146080761"><ele>393.0</ele><time>2026-05-04T13:20:35.99Z</time></trkpt><trkpt lat="44.83635068473454" lon="9.676579102343755"><ele>393.00000000000006</ele><time>2026-05-04T13:20:36.99Z</time></trkpt><trkpt lat="44.83628840892157" lon="9.676501614944373"><ele>393.0</ele><time>2026-05-04T13:20:37.99Z</time></trkpt><trkpt lat="44.83624601828542" lon="9.67642874664064"><ele>393.0</ele><time>2026-05-04T13:20:38.99Z</time></trkpt><trkpt lat="44.836206237351945" lon="9.676348187856659"><ele>393.0</ele><time>2026-05-04T13:20:39.99Z</time></trkpt><trkpt lat="44.836175616993486" lon="9.676257118843287"><ele>393.0</ele><time>2026-05-04T13:20:40.99Z</time></trkpt><trkpt lat="44.83615360722991" lon="9.676159531287045"><ele>393.00000000000006</ele><time>2026-05-04T13:20:41.99Z</time></trkpt><trkpt lat="44.83613381143374" lon="9.676056482841746"><ele>393.0</ele><time>2026-05-04T13:20:42.99Z</time></trkpt><trkpt lat="44.8361149780136" lon="9.67595372402318"><ele>392.8333333333333</ele><time>2026-05-04T13:20:43.99Z</time></trkpt><trkpt lat="44.83609714219894" lon="9.675853565032066"><ele>392.66666666666663</ele><time>2026-05-04T13:20:44.99Z</time></trkpt><trkpt lat="44.83601943940482" lon="9.675684703520401"><ele>392.5</ele><time>2026-05-04T13:20:46.99Z</time></trkpt><trkpt lat="44.835966507433184" lon="9.675619125082079"><ele>392.3333333333333</ele><time>2026-05-04T13:20:47.99Z</time></trkpt><trkpt lat="44.83590083968623" lon="9.675572699618165"><ele>392.16666666666663</ele><time>2026-05-04T13:20:48.99Z</time></trkpt><trkpt lat="44.835827834700446" lon="9.675547251036178"><ele>392.0</ele><time>2026-05-04T13:20:49.99Z</time></trkpt><trkpt lat="44.835757460828766" lon="9.675544133086937"><ele>394.6</ele><time>2026-05-04T13:20:50.99Z</time></trkpt><trkpt lat="44.835671779156186" lon="9.675564142280471"><ele>397.20000000000005</ele><time>2026-05-04T13:20:51.99Z</time></trkpt><trkpt lat="44.83558195770217" lon="9.675563222618138"><ele>399.8</ele><time>2026-05-04T13:20:52.99Z</time></trkpt><trkpt lat="44.835487838915576" lon="9.675577504923519"><ele>402.4</ele><time>2026-05-04T13:20:53.99Z</time></trkpt><trkpt lat="44.835386166674645" lon="9.675575093933798"><ele>405.0</ele><time>2026-05-04T13:20:54.99Z</time></trkpt><trkpt lat="44.835292759675845" lon="9.67557021175456"><ele>405.0</ele><time>2026-05-04T13:20:55.99Z</time></trkpt><trkpt lat="44.83520172616042" lon="9.675570312196573"><ele>405.0</ele><time>2026-05-04T13:20:56.99Z</time></trkpt><trkpt lat="44.835115224330956" lon="9.675571768013706"><ele>405.0</ele><time>2026-05-04T13:20:57.991Z</time></trkpt><trkpt lat="44.83501386427756" lon="9.67559875656888"><ele>405.0</ele><time>2026-05-04T13:20:58.99Z</time></trkpt><trkpt lat="44.83490575202779" lon="9.675640342613107"><ele>405.0</ele><time>2026-05-04T13:20:59.99Z</time></trkpt><trkpt lat="44.83480967159366" lon="9.67566844574193"><ele>404.8</ele><time>2026-05-04T13:21:00.99Z</time></trkpt><trkpt lat="44.83471428490777" lon="9.675691200813047"><ele>404.6</ele><time>2026-05-04T13:21:01.991Z</time></trkpt><trkpt lat="44.83460438098452" lon="9.67570930237974"><ele>404.4</ele><time>2026-05-04T13:21:02.991Z</time></trkpt><trkpt lat="44.834499106336914" lon="9.675732421111311"><ele>404.2</ele><time>2026-05-04T13:21:03.99Z</time></trkpt><trkpt lat="44.83439477793236" lon="9.675739305948651"><ele>404.0</ele><time>2026-05-04T13:21:04.991Z</time></trkpt><trkpt lat="44.83429514819469" lon="9.675731787268457"><ele>404.0</ele><time>2026-05-04T13:21:05.991Z</time></trkpt><trkpt lat="44.83420188943744" lon="9.675726843679858"><ele>404.0</ele><time>2026-05-04T13:21:06.991Z</time></trkpt><trkpt lat="44.834105218182295" lon="9.675672838609502"><ele>404.0</ele><time>2026-05-04T13:21:07.99Z</time></trkpt><trkpt lat="44.83401446324654" lon="9.675649593369316"><ele>404.0</ele><time>2026-05-04T13:21:08.99Z</time></trkpt><trkpt lat="44.83392829958225" lon="9.675622496883143"><ele>404.0</ele><time>2026-05-04T13:21:09.99Z</time></trkpt><trkpt lat="44.833844705082676" lon="9.675595676594918"><ele>403.99999999999994</ele><time>2026-05-04T13:21:10.99Z</time></trkpt><trkpt lat="44.833755184737385" lon="9.675592553172104"><ele>404.0</ele><time>2026-05-04T13:21:11.99Z</time></trkpt><trkpt lat="44.83367421737326" lon="9.675560385406087"><ele>404.0</ele><time>2026-05-04T13:21:12.99Z</time></trkpt><trkpt lat="44.83360807315813" lon="9.675551904341667"><ele>404.0</ele><time>2026-05-04T13:21:13.99Z</time></trkpt><trkpt lat="44.8335446348861" lon="9.675515349672862"><ele>403.99999999999994</ele><time>2026-05-04T13:21:14.99Z</time></trkpt><trkpt lat="44.833474785592266" lon="9.67549228273736"><ele>404.0</ele><time>2026-05-04T13:21:15.99Z</time></trkpt><trkpt lat="44.833406098024994" lon="9.675445004850191"><ele>403.8333333333333</ele><time>2026-05-04T13:21:16.99Z</time></trkpt><trkpt lat="44.83333974228386" lon="9.67538876892037"><ele>403.66666666666663</ele><time>2026-05-04T13:21:17.99Z</time></trkpt><trkpt lat="44.83327587051001" lon="9.67532334001709"><ele>403.5</ele><time>2026-05-04T13:21:18.99Z</time></trkpt><trkpt lat="44.83320767473694" lon="9.675257959595726"><ele>403.33333333333337</ele><time>2026-05-04T13:21:19.99Z</time></trkpt><trkpt lat="44.83313881373668" lon="9.67520757813061"><ele>403.1666666666667</ele><time>2026-05-04T13:21:20.99Z</time></trkpt><trkpt lat="44.83306900014755" lon="9.675172710662368"><ele>403.0</ele><time>2026-05-04T13:21:21.99Z</time></trkpt><trkpt lat="44.83300559389394" lon="9.675111541218822"><ele>402.00000000000006</ele><time>2026-05-04T13:21:22.99Z</time></trkpt><trkpt lat="44.83293120398221" lon="9.675065360425585"><ele>401.0</ele><time>2026-05-04T13:21:23.99Z</time></trkpt><trkpt lat="44.83286310426126" lon="9.675021532113353"><ele>400.0</ele><time>2026-05-04T13:21:24.99Z</time></trkpt><trkpt lat="44.83280472476989" lon="9.674977102071296"><ele>399.0</ele><time>2026-05-04T13:21:25.99Z</time></trkpt><trkpt lat="44.83274405156105" lon="9.674917029223263"><ele>398.00000000000006</ele><time>2026-05-04T13:21:26.99Z</time></trkpt><trkpt lat="44.83268957350736" lon="9.674839581190762"><ele>397.0</ele><time>2026-05-04T13:21:27.99Z</time></trkpt><trkpt lat="44.83263142825891" lon="9.674753438215232"><ele>397.1666666666667</ele><time>2026-05-04T13:21:28.99Z</time></trkpt><trkpt lat="44.832574351567125" lon="9.674663955318792"><ele>397.33333333333337</ele><time>2026-05-04T13:21:29.99Z</time></trkpt><trkpt lat="44.83251622458423" lon="9.674571663900695"><ele>397.5</ele><time>2026-05-04T13:21:30.99Z</time></trkpt><trkpt lat="44.832463187257154" lon="9.674488360513722"><ele>397.66666666666663</ele><time>2026-05-04T13:21:31.99Z</time></trkpt><trkpt lat="44.83241781259827" lon="9.674403560897138"><ele>397.8333333333333</ele><time>2026-05-04T13:21:32.99Z</time></trkpt><trkpt lat="44.83237286750139" lon="9.674313681927233"><ele>398.0</ele><time>2026-05-04T13:21:33.99Z</time></trkpt><trkpt lat="44.83232021982615" lon="9.674206546530364"><ele>398.0</ele><time>2026-05-04T13:21:34.99Z</time></trkpt><trkpt lat="44.83226382717344" lon="9.674076941128439"><ele>398.0</ele><time>2026-05-04T13:21:35.99Z</time></trkpt><trkpt lat="44.83220554098905" lon="9.67395309690519"><ele>398.0</ele><time>2026-05-04T13:21:36.99Z</time></trkpt><trkpt lat="44.83214647871866" lon="9.673837442671857"><ele>398.0</ele><time>2026-05-04T13:21:37.99Z</time></trkpt><trkpt lat="44.83209189424306" lon="9.673721513848609"><ele>398.0</ele><time>2026-05-04T13:21:38.99Z</time></trkpt><trkpt lat="44.83203593347884" lon="9.673608685405547"><ele>398.59999999999997</ele><time>2026-05-04T13:21:39.99Z</time></trkpt><trkpt lat="44.83198365658321" lon="9.673496128357996"><ele>399.2</ele><time>2026-05-04T13:21:40.99Z</time></trkpt><trkpt lat="44.831930208385344" lon="9.673407497414344"><ele>399.8</ele><time>2026-05-04T13:21:41.99Z</time></trkpt><trkpt lat="44.83183691223849" lon="9.673357103495977"><ele>400.4</ele><time>2026-05-04T13:21:43.99Z</time></trkpt><trkpt lat="44.83175754804359" lon="9.673384208299062"><ele>401.0</ele><time>2026-05-04T13:21:44.99Z</time></trkpt><trkpt lat="44.8316468945426" lon="9.673390409787196"><ele>405.25</ele><time>2026-05-04T13:21:45.99Z</time></trkpt><trkpt lat="44.83152742242935" lon="9.673417805197234"><ele>409.5</ele><time>2026-05-04T13:21:46.99Z</time></trkpt><trkpt lat="44.83140798292399" lon="9.673439399191341"><ele>413.75</ele><time>2026-05-04T13:21:47.99Z</time></trkpt><trkpt lat="44.83128107548385" lon="9.673461142599526"><ele>418.0</ele><time>2026-05-04T13:21:48.99Z</time></trkpt><trkpt lat="44.83117258344419" lon="9.673476060805022"><ele>418.00000000000006</ele><time>2026-05-04T13:21:49.99Z</time></trkpt><trkpt lat="44.8310969476623" lon="9.673495420441984"><ele>418.0</ele><time>2026-05-04T13:21:50.99Z</time></trkpt><trkpt lat="44.83103549412076" lon="9.673539985286785"><ele>418.0</ele><time>2026-05-04T13:21:51.99Z</time></trkpt><trkpt lat="44.8309648820246" lon="9.673693059145116"><ele>418.0</ele><time>2026-05-04T13:21:53.99Z</time></trkpt><trkpt lat="44.83092015653582" lon="9.673788951094137"><ele>418.00000000000006</ele><time>2026-05-04T13:21:54.99Z</time></trkpt><trkpt lat="44.83087665214757" lon="9.673881363000042"><ele>418.0</ele><time>2026-05-04T13:21:55.99Z</time></trkpt><trkpt lat="44.83080901236598" lon="9.674003342528874"><ele>420.33333333333337</ele><time>2026-05-04T13:21:57.99Z</time></trkpt><trkpt lat="44.83074348635802" lon="9.674095080553954"><ele>422.6666666666667</ele><time>2026-05-04T13:22:00.99Z</time></trkpt><trkpt lat="44.8306485614281" lon="9.674046900940382"><ele>425.0</ele><time>2026-05-04T13:22:02.99Z</time></trkpt><trkpt lat="44.83058795709557" lon="9.674006424130091"><ele>427.33333333333337</ele><time>2026-05-04T13:22:03.99Z</time></trkpt><trkpt lat="44.830520232939556" lon="9.673983238154953"><ele>429.6666666666667</ele><time>2026-05-04T13:22:04.99Z</time></trkpt><trkpt lat="44.83043058976102" lon="9.673960263502156"><ele>432.0</ele><time>2026-05-04T13:22:05.99Z</time></trkpt><trkpt lat="44.8303353612102" lon="9.673951662293184"><ele>432.0</ele><time>2026-05-04T13:22:06.99Z</time></trkpt><trkpt lat="44.83024591993372" lon="9.67392445782325"><ele>432.00000000000006</ele><time>2026-05-04T13:22:07.99Z</time></trkpt><trkpt lat="44.83015883724075" lon="9.67389821775801"><ele>432.00000000000006</ele><time>2026-05-04T13:22:08.99Z</time></trkpt><trkpt lat="44.830071249313846" lon="9.673870451587867"><ele>432.0</ele><time>2026-05-04T13:22:09.99Z</time></trkpt><trkpt lat="44.82998362637536" lon="9.673826218749827"><ele>432.0</ele><time>2026-05-04T13:22:10.99Z</time></trkpt><trkpt lat="44.82990429140203" lon="9.673768505751891"><ele>432.8</ele><time>2026-05-04T13:22:11.99Z</time></trkpt><trkpt lat="44.82982255639867" lon="9.673693814450587"><ele>433.6</ele><time>2026-05-04T13:22:12.99Z</time></trkpt><trkpt lat="44.82974643438827" lon="9.67359382217674"><ele>434.40000000000003</ele><time>2026-05-04T13:22:13.99Z</time></trkpt><trkpt lat="44.829672181126945" lon="9.673508020452369"><ele>435.20000000000005</ele><time>2026-05-04T13:22:14.99Z</time></trkpt><trkpt lat="44.829595645729256" lon="9.67343768997284"><ele>436.0</ele><time>2026-05-04T13:22:15.99Z</time></trkpt><trkpt lat="44.82954364036087" lon="9.673348364283456"><ele>436.50000000000006</ele><time>2026-05-04T13:22:16.99Z</time></trkpt><trkpt lat="44.829480615147276" lon="9.673273856925334"><ele>437.0</ele><time>2026-05-04T13:22:17.99Z</time></trkpt><trkpt lat="44.829417453495616" lon="9.673222126751218"><ele>437.5</ele><time>2026-05-04T13:22:18.99Z</time></trkpt><trkpt lat="44.82930334768663" lon="9.673190726984087"><ele>438.0</ele><time>2026-05-04T13:22:20.99Z</time></trkpt><trkpt lat="44.82923879433676" lon="9.6732118763078"><ele>438.50000000000006</ele><time>2026-05-04T13:22:21.99Z</time></trkpt><trkpt lat="44.829166143565935" lon="9.673268401846855"><ele>439.0</ele><time>2026-05-04T13:22:22.99Z</time></trkpt><trkpt lat="44.829103670271046" lon="9.673312206509332"><ele>442.00000000000006</ele><time>2026-05-04T13:22:23.99Z</time></trkpt><trkpt lat="44.829039312057574" lon="9.673357987970872"><ele>445.0</ele><time>2026-05-04T13:22:24.99Z</time></trkpt><trkpt lat="44.82896721065757" lon="9.673351684643194"><ele>448.0</ele><time>2026-05-04T13:22:25.99Z</time></trkpt><trkpt lat="44.82888435578109" lon="9.673343837317189"><ele>451.0</ele><time>2026-05-04T13:22:26.99Z</time></trkpt><trkpt lat="44.82879647757006" lon="9.673325266685506"><ele>454.00000000000006</ele><time>2026-05-04T13:22:27.99Z</time></trkpt><trkpt lat="44.82870070584685" lon="9.673340963892265"><ele>457.0</ele><time>2026-05-04T13:22:28.99Z</time></trkpt><trkpt lat="44.828594595157696" lon="9.673318828104984"><ele>457.00000000000006</ele><time>2026-05-04T13:22:29.99Z</time></trkpt><trkpt lat="44.828490788709004" lon="9.673318986698588"><ele>457.0</ele><time>2026-05-04T13:22:30.99Z</time></trkpt><trkpt lat="44.828390006571354" lon="9.673310743753236"><ele>457.0</ele><time>2026-05-04T13:22:31.99Z</time></trkpt><trkpt lat="44.82830082283333" lon="9.673285615784124"><ele>457.0</ele><time>2026-05-04T13:22:32.99Z</time></trkpt><trkpt lat="44.82822652915577" lon="9.67326628032476"><ele>457.00000000000006</ele><time>2026-05-04T13:22:33.99Z</time></trkpt><trkpt lat="44.8281567057922" lon="9.673230062484222"><ele>457.0</ele><time>2026-05-04T13:22:34.99Z</time></trkpt><trkpt lat="44.82811086297554" lon="9.673165538952706"><ele>458.20000000000005</ele><time>2026-05-04T13:22:35.99Z</time></trkpt><trkpt lat="44.828002367590095" lon="9.67309880677711"><ele>459.40000000000003</ele><time>2026-05-04T13:22:37.99Z</time></trkpt><trkpt lat="44.827918690883706" lon="9.673023819960083"><ele>460.59999999999997</ele><time>2026-05-04T13:22:39.99Z</time></trkpt><trkpt lat="44.827792148737785" lon="9.673022885871601"><ele>461.79999999999995</ele><time>2026-05-04T13:22:41.99Z</time></trkpt><trkpt lat="44.82769949400867" lon="9.673064340031223"><ele>463.0</ele><time>2026-05-04T13:22:42.99Z</time></trkpt><trkpt lat="44.827608274087176" lon="9.673105287984267"><ele>464.59999999999997</ele><time>2026-05-04T13:22:43.99Z</time></trkpt><trkpt lat="44.827526710263434" lon="9.673122031832087"><ele>466.19999999999993</ele><time>2026-05-04T13:22:44.99Z</time></trkpt><trkpt lat="44.82744756502812" lon="9.673158093298646"><ele>467.8</ele><time>2026-05-04T13:22:45.99Z</time></trkpt><trkpt lat="44.82736383289534" lon="9.673206495247548"><ele>469.4</ele><time>2026-05-04T13:22:46.99Z</time></trkpt><trkpt lat="44.827273066411095" lon="9.673284201620422"><ele>471.0</ele><time>2026-05-04T13:22:47.99Z</time></trkpt><trkpt lat="44.82717005665713" lon="9.673343013408813"><ele>471.0</ele><time>2026-05-04T13:22:48.99Z</time></trkpt><trkpt lat="44.82707199505575" lon="9.67340636080356"><ele>471.0</ele><time>2026-05-04T13:22:49.99Z</time></trkpt><trkpt lat="44.82697865864614" lon="9.673479258075925"><ele>471.0</ele><time>2026-05-04T13:22:50.99Z</time></trkpt><trkpt lat="44.82690609348537" lon="9.673554175406602"><ele>471.0</ele><time>2026-05-04T13:22:51.99Z</time></trkpt><trkpt lat="44.826840384851295" lon="9.673625068136984"><ele>471.0</ele><time>2026-05-04T13:22:52.99Z</time></trkpt><trkpt lat="44.826764072662186" lon="9.673650694508842"><ele>473.25</ele><time>2026-05-04T13:22:53.99Z</time></trkpt><trkpt lat="44.82666819067397" lon="9.673631653852608"><ele>475.5</ele><time>2026-05-04T13:22:54.99Z</time></trkpt><trkpt lat="44.82655438587394" lon="9.6735664182408"><ele>477.75</ele><time>2026-05-04T13:22:55.99Z</time></trkpt><trkpt lat="44.82643214318433" lon="9.673479251626402"><ele>480.0</ele><time>2026-05-04T13:22:56.99Z</time></trkpt><trkpt lat="44.82631387871293" lon="9.673404384609107"><ele>480.0</ele><time>2026-05-04T13:22:57.99Z</time></trkpt><trkpt lat="44.826188101375294" lon="9.673325694150252"><ele>480.0</ele><time>2026-05-04T13:22:58.99Z</time></trkpt><trkpt lat="44.82607618429105" lon="9.673225109456798"><ele>480.0</ele><time>2026-05-04T13:22:59.99Z</time></trkpt><trkpt lat="44.82599771144585" lon="9.673104298659768"><ele>480.0</ele><time>2026-05-04T13:23:00.99Z</time></trkpt><trkpt lat="44.825934912970546" lon="9.672987044162303"><ele>482.0</ele><time>2026-05-04T13:23:01.99Z</time></trkpt><trkpt lat="44.82586532133042" lon="9.67287756451766"><ele>484.0</ele><time>2026-05-04T13:23:02.99Z</time></trkpt><trkpt lat="44.82578510108805" lon="9.672785966761497"><ele>486.0</ele><time>2026-05-04T13:23:03.99Z</time></trkpt><trkpt lat="44.82569032080469" lon="9.672711027532133"><ele>488.0</ele><time>2026-05-04T13:23:04.991Z</time></trkpt><trkpt lat="44.82558561778311" lon="9.672646689171907"><ele>490.0</ele><time>2026-05-04T13:23:05.991Z</time></trkpt><trkpt lat="44.82548164645853" lon="9.67256389914242"><ele>490.0</ele><time>2026-05-04T13:23:06.99Z</time></trkpt><trkpt lat="44.82538839747045" lon="9.672439603287707"><ele>490.0</ele><time>2026-05-04T13:23:07.991Z</time></trkpt><trkpt lat="44.82529145618995" lon="9.672292690947463"><ele>490.0</ele><time>2026-05-04T13:23:08.991Z</time></trkpt><trkpt lat="44.825185677150515" lon="9.672151397500839"><ele>490.0</ele><time>2026-05-04T13:23:09.99Z</time></trkpt><trkpt lat="44.82507478853028" lon="9.672037191382705"><ele>492.6</ele><time>2026-05-04T13:23:10.99Z</time></trkpt><trkpt lat="44.824965527294246" lon="9.671932961321266"><ele>495.2</ele><time>2026-05-04T13:23:11.99Z</time></trkpt><trkpt lat="44.824865967248364" lon="9.671850903314212"><ele>497.79999999999995</ele><time>2026-05-04T13:23:12.991Z</time></trkpt><trkpt lat="44.82479212948313" lon="9.671761494828768"><ele>500.4</ele><time>2026-05-04T13:23:13.99Z</time></trkpt><trkpt lat="44.82474027001036" lon="9.671670558247811"><ele>503.0</ele><time>2026-05-04T13:23:14.99Z</time></trkpt><trkpt lat="44.824694486282866" lon="9.671589736521685"><ele>502.99999999999994</ele><time>2026-05-04T13:23:15.991Z</time></trkpt><trkpt lat="44.82464924135622" lon="9.671465405747947"><ele>503.0</ele><time>2026-05-04T13:23:17.99Z</time></trkpt><trkpt lat="44.824607294960764" lon="9.671373043551311"><ele>503.0</ele><time>2026-05-04T13:23:20.99Z</time></trkpt><trkpt lat="44.82461591753537" lon="9.671464467373879"><ele>503.0</ele><time>2026-05-04T13:26:04.991Z</time></trkpt><trkpt lat="44.824571661005216" lon="9.671319006233311"><ele>502.99999999999994</ele><time>2026-05-04T13:31:18.986Z</time></trkpt><trkpt lat="44.824527757540004" lon="9.671254115506319"><ele>503.0</ele><time>2026-05-04T13:31:19.986Z</time></trkpt><trkpt lat="44.824419738866716" lon="9.671124979518057"><ele>501.75</ele><time>2026-05-04T13:31:21.986Z</time></trkpt><trkpt lat="44.82433863786926" lon="9.671054490048622"><ele>500.5</ele><time>2026-05-04T13:31:22.986Z</time></trkpt><trkpt lat="44.82420804964433" lon="9.670965057023434"><ele>499.25</ele><time>2026-05-04T13:31:23.986Z</time></trkpt><trkpt lat="44.82409626666948" lon="9.670843621706302"><ele>498.0</ele><time>2026-05-04T13:31:24.986Z</time></trkpt><trkpt lat="44.82398926210701" lon="9.670738855808784"><ele>502.0</ele><time>2026-05-04T13:31:25.986Z</time></trkpt><trkpt lat="44.82388402776512" lon="9.670632091651923"><ele>506.0</ele><time>2026-05-04T13:31:26.987Z</time></trkpt><trkpt lat="44.823780653010026" lon="9.67059984288371"><ele>510.0</ele><time>2026-05-04T13:31:27.987Z</time></trkpt><trkpt lat="44.82366800082256" lon="9.670541260051984"><ele>514.0</ele><time>2026-05-04T13:31:28.987Z</time></trkpt><trkpt lat="44.8235480591214" lon="9.670491941208665"><ele>515.5</ele><time>2026-05-04T13:31:29.986Z</time></trkpt><trkpt lat="44.82341933431566" lon="9.670447761020585"><ele>517.0</ele><time>2026-05-04T13:31:30.987Z</time></trkpt><trkpt lat="44.82328518576694" lon="9.670414126806568"><ele>518.5</ele><time>2026-05-04T13:31:31.987Z</time></trkpt><trkpt lat="44.823149079332794" lon="9.670368183426426"><ele>520.0</ele><time>2026-05-04T13:31:32.987Z</time></trkpt><trkpt lat="44.82301094546633" lon="9.670323992470246"><ele>520.25</ele><time>2026-05-04T13:31:33.987Z</time></trkpt><trkpt lat="44.82288777179134" lon="9.670237508319621"><ele>520.5</ele><time>2026-05-04T13:31:34.987Z</time></trkpt><trkpt lat="44.822781543655395" lon="9.670186535953022"><ele>520.75</ele><time>2026-05-04T13:31:35.987Z</time></trkpt><trkpt lat="44.82268603481583" lon="9.670139808827683"><ele>521.0</ele><time>2026-05-04T13:31:36.987Z</time></trkpt><trkpt lat="44.82258581026149" lon="9.670091263887679"><ele>521.75</ele><time>2026-05-04T13:31:37.987Z</time></trkpt><trkpt lat="44.82247478310272" lon="9.670037895107075"><ele>522.5</ele><time>2026-05-04T13:31:38.987Z</time></trkpt><trkpt lat="44.82235634439931" lon="9.669980963742148"><ele>523.25</ele><time>2026-05-04T13:31:39.987Z</time></trkpt><trkpt lat="44.82223482098035" lon="9.669922682942241"><ele>524.0</ele><time>2026-05-04T13:31:40.987Z</time></trkpt><trkpt lat="44.822123778351944" lon="9.669811397000238"><ele>524.0</ele><time>2026-05-04T13:31:41.987Z</time></trkpt><trkpt lat="44.82202647875326" lon="9.669679000830609"><ele>524.0</ele><time>2026-05-04T13:31:42.987Z</time></trkpt><trkpt lat="44.82195597882299" lon="9.66950622846883"><ele>524.0</ele><time>2026-05-04T13:31:43.987Z</time></trkpt><trkpt lat="44.82189982515785" lon="9.669307230982017"><ele>524.0</ele><time>2026-05-04T13:31:44.987Z</time></trkpt><trkpt lat="44.82183891620112" lon="9.669129730471987"><ele>524.75</ele><time>2026-05-04T13:31:45.987Z</time></trkpt><trkpt lat="44.821766793919856" lon="9.668970520163695"><ele>525.5</ele><time>2026-05-04T13:31:46.987Z</time></trkpt><trkpt lat="44.821693740936645" lon="9.668805448206268"><ele>526.25</ele><time>2026-05-04T13:31:47.987Z</time></trkpt><trkpt lat="44.821599021012844" lon="9.668639572145153"><ele>527.0</ele><time>2026-05-04T13:31:48.987Z</time></trkpt><trkpt lat="44.82149567863431" lon="9.668463558523198"><ele>527.0</ele><time>2026-05-04T13:31:49.987Z</time></trkpt><trkpt lat="44.82139882733179" lon="9.668291169717559"><ele>527.0</ele><time>2026-05-04T13:31:50.987Z</time></trkpt><trkpt lat="44.821307811202686" lon="9.668135538558738"><ele>527.0</ele><time>2026-05-04T13:31:51.987Z</time></trkpt><trkpt lat="44.82122144353051" lon="9.667993280458846"><ele>527.0</ele><time>2026-05-04T13:31:52.987Z</time></trkpt><trkpt lat="44.82115703620593" lon="9.667831583756966"><ele>528.0</ele><time>2026-05-04T13:31:53.987Z</time></trkpt><trkpt lat="44.8210978140131" lon="9.667684778804686"><ele>529.0</ele><time>2026-05-04T13:31:54.987Z</time></trkpt><trkpt lat="44.82105015889429" lon="9.667543807240722"><ele>530.0</ele><time>2026-05-04T13:31:55.987Z</time></trkpt><trkpt lat="44.82101003464444" lon="9.66742013037337"><ele>531.0</ele><time>2026-05-04T13:31:56.987Z</time></trkpt><trkpt lat="44.82095140145402" lon="9.667303641229536"><ele>532.0</ele><time>2026-05-04T13:31:57.987Z</time></trkpt><trkpt lat="44.82091037748866" lon="9.66716707153946"><ele>532.0</ele><time>2026-05-04T13:31:58.987Z</time></trkpt><trkpt lat="44.82085866874975" lon="9.667034720864347"><ele>532.0</ele><time>2026-05-04T13:31:59.987Z</time></trkpt><trkpt lat="44.820808489562" lon="9.666909049878502"><ele>532.0</ele><time>2026-05-04T13:32:00.987Z</time></trkpt><trkpt lat="44.82076027623591" lon="9.666783891275353"><ele>532.0</ele><time>2026-05-04T13:32:01.987Z</time></trkpt><trkpt lat="44.82072288299133" lon="9.666652271670364"><ele>532.0</ele><time>2026-05-04T13:32:02.987Z</time></trkpt><trkpt lat="44.82070477575829" lon="9.666516090386995"><ele>531.8333333333334</ele><time>2026-05-04T13:32:03.987Z</time></trkpt><trkpt lat="44.82071531047978" lon="9.666392048847134"><ele>531.6666666666667</ele><time>2026-05-04T13:32:04.987Z</time></trkpt><trkpt lat="44.820775490519004" lon="9.666310009242855"><ele>531.5</ele><time>2026-05-04T13:32:05.987Z</time></trkpt><trkpt lat="44.820826762573525" lon="9.666213866421757"><ele>531.3333333333334</ele><time>2026-05-04T13:32:06.987Z</time></trkpt><trkpt lat="44.820849025514356" lon="9.666097863358234"><ele>531.1666666666666</ele><time>2026-05-04T13:32:07.987Z</time></trkpt><trkpt lat="44.82084624266791" lon="9.665982384655086"><ele>531.0</ele><time>2026-05-04T13:32:08.987Z</time></trkpt><trkpt lat="44.82081859717837" lon="9.66584649270797"><ele>529.4</ele><time>2026-05-04T13:32:09.987Z</time></trkpt><trkpt lat="44.82075003393216" lon="9.665716634953203"><ele>527.8</ele><time>2026-05-04T13:32:10.987Z</time></trkpt><trkpt lat="44.82067796193945" lon="9.665606101433298"><ele>526.1999999999999</ele><time>2026-05-04T13:32:11.987Z</time></trkpt><trkpt lat="44.82059578921768" lon="9.66551561968692"><ele>524.6</ele><time>2026-05-04T13:32:12.987Z</time></trkpt><trkpt lat="44.820508119136946" lon="9.66545646726434"><ele>523.0</ele><time>2026-05-04T13:32:13.987Z</time></trkpt><trkpt lat="44.820408505468606" lon="9.665445856430122"><ele>523.0</ele><time>2026-05-04T13:32:14.987Z</time></trkpt><trkpt lat="44.82031311945737" lon="9.665430436072956"><ele>523.0</ele><time>2026-05-04T13:32:15.987Z</time></trkpt><trkpt lat="44.820217513702865" lon="9.66543004551716"><ele>523.0</ele><time>2026-05-04T13:32:16.987Z</time></trkpt><trkpt lat="44.82012335346943" lon="9.665406337660261"><ele>523.0</ele><time>2026-05-04T13:32:17.987Z</time></trkpt><trkpt lat="44.82003224855492" lon="9.66542783870775"><ele>523.0</ele><time>2026-05-04T13:32:18.987Z</time></trkpt><trkpt lat="44.819946092879796" lon="9.665402044295735"><ele>522.0</ele><time>2026-05-04T13:32:19.987Z</time></trkpt><trkpt lat="44.81984910552595" lon="9.665386964520152"><ele>521.0</ele><time>2026-05-04T13:32:20.987Z</time></trkpt><trkpt lat="44.81976013027961" lon="9.66541023359533"><ele>520.0</ele><time>2026-05-04T13:32:21.987Z</time></trkpt><trkpt lat="44.81967436970442" lon="9.665450388233058"><ele>519.0</ele><time>2026-05-04T13:32:22.987Z</time></trkpt><trkpt lat="44.81959471175874" lon="9.665513039584429"><ele>518.0</ele><time>2026-05-04T13:32:23.987Z</time></trkpt><trkpt lat="44.819529874799926" lon="9.665580795246065"><ele>518.0</ele><time>2026-05-04T13:32:24.987Z</time></trkpt><trkpt lat="44.81946305184013" lon="9.665648637498323"><ele>518.0</ele><time>2026-05-04T13:32:25.987Z</time></trkpt><trkpt lat="44.81938337274541" lon="9.6656994535404"><ele>518.0</ele><time>2026-05-04T13:32:26.987Z</time></trkpt><trkpt lat="44.81927957525692" lon="9.665732122113852"><ele>518.0</ele><time>2026-05-04T13:32:27.987Z</time></trkpt><trkpt lat="44.819176591358165" lon="9.665757512520592"><ele>518.0</ele><time>2026-05-04T13:32:28.987Z</time></trkpt><trkpt lat="44.81907462092897" lon="9.66577118450921"><ele>516.5</ele><time>2026-05-04T13:32:29.987Z</time></trkpt><trkpt lat="44.81898701456736" lon="9.66577264959457"><ele>515.0</ele><time>2026-05-04T13:32:30.987Z</time></trkpt><trkpt lat="44.818912628432706" lon="9.665760366457622"><ele>513.5</ele><time>2026-05-04T13:32:31.987Z</time></trkpt><trkpt lat="44.81881735646864" lon="9.665681657686997"><ele>512.0</ele><time>2026-05-04T13:32:33.987Z</time></trkpt><trkpt lat="44.81880626119799" lon="9.66559028188391"><ele>510.49999999999994</ele><time>2026-05-04T13:32:35.987Z</time></trkpt><trkpt lat="44.81872629653433" lon="9.665544281836114"><ele>509.0</ele><time>2026-05-04T13:32:38.987Z</time></trkpt><trkpt lat="44.81861760360203" lon="9.665455515663998"><ele>507.0</ele><time>2026-05-04T13:32:40.987Z</time></trkpt><trkpt lat="44.81845837933639" lon="9.66559579102389"><ele>505.0</ele><time>2026-05-04T13:32:41.987Z</time></trkpt><trkpt lat="44.81835709496395" lon="9.665565018034805"><ele>503.0</ele><time>2026-05-04T13:32:42.987Z</time></trkpt><trkpt lat="44.818266369914866" lon="9.665542175625788"><ele>501.0</ele><time>2026-05-04T13:32:43.987Z</time></trkpt><trkpt lat="44.81817850825597" lon="9.665543508962985"><ele>501.0</ele><time>2026-05-04T13:32:44.987Z</time></trkpt><trkpt lat="44.81807966563883" lon="9.665571555813598"><ele>501.0</ele><time>2026-05-04T13:32:45.987Z</time></trkpt><trkpt lat="44.81799335443871" lon="9.665608013808429"><ele>501.0</ele><time>2026-05-04T13:32:46.987Z</time></trkpt><trkpt lat="44.81789663752792" lon="9.6656278929176"><ele>501.0</ele><time>2026-05-04T13:32:47.987Z</time></trkpt><trkpt lat="44.81780877825452" lon="9.665627222511253"><ele>501.0</ele><time>2026-05-04T13:32:48.987Z</time></trkpt><trkpt lat="44.81772915396267" lon="9.66562415814543"><ele>501.0</ele><time>2026-05-04T13:32:49.987Z</time></trkpt><trkpt lat="44.817657910061335" lon="9.665633166100394"><ele>501.0</ele><time>2026-05-04T13:32:50.987Z</time></trkpt><trkpt lat="44.817594888440915" lon="9.665651287622762"><ele>501.0</ele><time>2026-05-04T13:32:51.987Z</time></trkpt><trkpt lat="44.81753602384416" lon="9.665684632205123"><ele>501.0</ele><time>2026-05-04T13:32:52.987Z</time></trkpt><trkpt lat="44.817471721480906" lon="9.665797648836898"><ele>501.0</ele><time>2026-05-04T13:32:54.987Z</time></trkpt><trkpt lat="44.817525774037925" lon="9.665915034135814"><ele>501.0</ele><time>2026-05-04T13:32:56.987Z</time></trkpt><trkpt lat="44.8175925689325" lon="9.665922460723372"><ele>501.0</ele><time>2026-05-04T13:32:57.987Z</time></trkpt><trkpt lat="44.817668465214496" lon="9.665907960692346"><ele>501.0</ele><time>2026-05-04T13:32:58.987Z</time></trkpt><trkpt lat="44.8177444532944" lon="9.665916437312742"><ele>501.0</ele><time>2026-05-04T13:32:59.987Z</time></trkpt><trkpt lat="44.81781085470057" lon="9.665949755138573"><ele>501.0</ele><time>2026-05-04T13:33:00.987Z</time></trkpt><trkpt lat="44.81791695592157" lon="9.666068036237691"><ele>501.0</ele><time>2026-05-04T13:33:02.987Z</time></trkpt><trkpt lat="44.81796872775489" lon="9.666161053695289"><ele>501.0</ele><time>2026-05-04T13:33:03.987Z</time></trkpt><trkpt lat="44.818015797386" lon="9.666265019917478"><ele>499.3333333333333</ele><time>2026-05-04T13:33:04.987Z</time></trkpt><trkpt lat="44.81805397361056" lon="9.666364390726562"><ele>497.66666666666663</ele><time>2026-05-04T13:33:05.987Z</time></trkpt><trkpt lat="44.81808994134434" lon="9.666461032520857"><ele>496.0</ele><time>2026-05-04T13:33:06.987Z</time></trkpt><trkpt lat="44.818127344518075" lon="9.66656036844005"><ele>494.3333333333333</ele><time>2026-05-04T13:33:07.987Z</time></trkpt><trkpt lat="44.81816812934333" lon="9.666670053882184"><ele>492.66666666666663</ele><time>2026-05-04T13:33:08.987Z</time></trkpt><trkpt lat="44.81821412495525" lon="9.666784718208339"><ele>491.0</ele><time>2026-05-04T13:33:09.987Z</time></trkpt><trkpt lat="44.818268391748475" lon="9.666880910049557"><ele>491.66666666666663</ele><time>2026-05-04T13:33:10.987Z</time></trkpt><trkpt lat="44.81832743106759" lon="9.666958395039027"><ele>492.3333333333333</ele><time>2026-05-04T13:33:11.987Z</time></trkpt><trkpt lat="44.81839055766769" lon="9.66703005332943"><ele>493.0</ele><time>2026-05-04T13:33:12.987Z</time></trkpt><trkpt lat="44.81845722174921" lon="9.667102670374181"><ele>493.66666666666663</ele><time>2026-05-04T13:33:13.987Z</time></trkpt><trkpt lat="44.81853053651858" lon="9.667177155265426"><ele>494.3333333333333</ele><time>2026-05-04T13:33:14.987Z</time></trkpt><trkpt lat="44.818598007443974" lon="9.667247818598346"><ele>495.0</ele><time>2026-05-04T13:33:15.987Z</time></trkpt><trkpt lat="44.818661188293895" lon="9.667316511923847"><ele>495.0</ele><time>2026-05-04T13:33:16.987Z</time></trkpt><trkpt lat="44.818710040051286" lon="9.667395401663969"><ele>495.0</ele><time>2026-05-04T13:33:17.987Z</time></trkpt><trkpt lat="44.81874104504439" lon="9.667488984433362"><ele>495.0</ele><time>2026-05-04T13:33:18.987Z</time></trkpt><trkpt lat="44.818759754846404" lon="9.667587477437797"><ele>495.0</ele><time>2026-05-04T13:33:19.987Z</time></trkpt><trkpt lat="44.818754637813775" lon="9.66768961888208"><ele>495.0</ele><time>2026-05-04T13:33:20.987Z</time></trkpt><trkpt lat="44.818788673851365" lon="9.667766013545545"><ele>495.0</ele><time>2026-05-04T13:33:21.987Z</time></trkpt><trkpt lat="44.818854347108285" lon="9.667881443608257"><ele>493.3333333333333</ele><time>2026-05-04T13:33:23.987Z</time></trkpt><trkpt lat="44.818912660543845" lon="9.667972138890581"><ele>491.66666666666663</ele><time>2026-05-04T13:33:25.987Z</time></trkpt><trkpt lat="44.8188687016235" lon="9.668055072314328"><ele>490.0</ele><time>2026-05-04T13:33:27.987Z</time></trkpt><trkpt lat="44.81875388936964" lon="9.66804348411625"><ele>488.3333333333333</ele><time>2026-05-04T13:33:29.987Z</time></trkpt><trkpt lat="44.81867808735646" lon="9.668005568322094"><ele>486.66666666666663</ele><time>2026-05-04T13:33:30.987Z</time></trkpt><trkpt lat="44.81859901505444" lon="9.667993784612499"><ele>485.0</ele><time>2026-05-04T13:33:31.987Z</time></trkpt><trkpt lat="44.81851710083717" lon="9.667978730544434"><ele>482.8333333333333</ele><time>2026-05-04T13:33:32.986Z</time></trkpt><trkpt lat="44.81843561400382" lon="9.66800574205021"><ele>480.66666666666663</ele><time>2026-05-04T13:33:33.987Z</time></trkpt><trkpt lat="44.81835086659187" lon="9.668008147449658"><ele>478.5</ele><time>2026-05-04T13:33:34.987Z</time></trkpt><trkpt lat="44.81827211973921" lon="9.667999031495004"><ele>476.33333333333337</ele><time>2026-05-04T13:33:35.986Z</time></trkpt><trkpt lat="44.81819080911646" lon="9.667954930867372"><ele>474.1666666666667</ele><time>2026-05-04T13:33:36.986Z</time></trkpt><trkpt lat="44.81810104144329" lon="9.667886564890054"><ele>472.0</ele><time>2026-05-04T13:33:37.986Z</time></trkpt><trkpt lat="44.81800923476814" lon="9.667802988512468"><ele>472.20000000000005</ele><time>2026-05-04T13:33:38.987Z</time></trkpt><trkpt lat="44.81791655376883" lon="9.667730775609318"><ele>472.40000000000003</ele><time>2026-05-04T13:33:39.987Z</time></trkpt><trkpt lat="44.817829647956174" lon="9.66766834523075"><ele>472.59999999999997</ele><time>2026-05-04T13:33:40.987Z</time></trkpt><trkpt lat="44.81775506579738" lon="9.667588241119551"><ele>472.79999999999995</ele><time>2026-05-04T13:33:41.987Z</time></trkpt><trkpt lat="44.81767433412979" lon="9.667543682144622"><ele>473.0</ele><time>2026-05-04T13:33:42.987Z</time></trkpt><trkpt lat="44.817601257236944" lon="9.667497333897"><ele>473.0</ele><time>2026-05-04T13:33:43.987Z</time></trkpt><trkpt lat="44.81750256060042" lon="9.667416049978884"><ele>472.99999999999994</ele><time>2026-05-04T13:33:45.986Z</time></trkpt><trkpt lat="44.81742591764897" lon="9.667478642015205"><ele>472.99999999999994</ele><time>2026-05-04T13:33:47.986Z</time></trkpt><trkpt lat="44.817447303602" lon="9.667681610148502"><ele>473.0</ele><time>2026-05-04T13:33:49.986Z</time></trkpt><trkpt lat="44.81753691474121" lon="9.66772287258108"><ele>473.0</ele><time>2026-05-04T13:33:50.986Z</time></trkpt><trkpt lat="44.817598288373496" lon="9.66775139093319"><ele>472.79999999999995</ele><time>2026-05-04T13:33:51.986Z</time></trkpt><trkpt lat="44.81769459584486" lon="9.667820498530673"><ele>472.59999999999997</ele><time>2026-05-04T13:33:53.986Z</time></trkpt><trkpt lat="44.81777234087703" lon="9.667934496505119"><ele>472.40000000000003</ele><time>2026-05-04T13:33:55.986Z</time></trkpt><trkpt lat="44.81782078345432" lon="9.668011993022475"><ele>472.20000000000005</ele><time>2026-05-04T13:33:56.986Z</time></trkpt><trkpt lat="44.81787500344423" lon="9.668104490638681"><ele>472.0</ele><time>2026-05-04T13:33:57.986Z</time></trkpt><trkpt lat="44.81793119992982" lon="9.668208521829168"><ele>472.0</ele><time>2026-05-04T13:33:58.986Z</time></trkpt><trkpt lat="44.81797797626392" lon="9.66832789944595"><ele>472.0</ele><time>2026-05-04T13:33:59.986Z</time></trkpt><trkpt lat="44.81801349380232" lon="9.66847014208873"><ele>472.0</ele><time>2026-05-04T13:34:00.986Z</time></trkpt><trkpt lat="44.818053250125836" lon="9.668634164292758"><ele>472.0</ele><time>2026-05-04T13:34:01.986Z</time></trkpt><trkpt lat="44.81809277692688" lon="9.668805795509389"><ele>469.40000000000003</ele><time>2026-05-04T13:34:02.986Z</time></trkpt><trkpt lat="44.818130443851985" lon="9.668980383399015"><ele>466.80000000000007</ele><time>2026-05-04T13:34:03.986Z</time></trkpt><trkpt lat="44.81815989604535" lon="9.669126763568464"><ele>464.2</ele><time>2026-05-04T13:34:04.986Z</time></trkpt><trkpt lat="44.818184644211044" lon="9.669255646157513"><ele>461.6</ele><time>2026-05-04T13:34:05.986Z</time></trkpt><trkpt lat="44.81821340238263" lon="9.669394194184918"><ele>459.0</ele><time>2026-05-04T13:34:06.986Z</time></trkpt><trkpt lat="44.81822896654035" lon="9.669540204096963"><ele>457.5</ele><time>2026-05-04T13:34:07.986Z</time></trkpt><trkpt lat="44.818229139400934" lon="9.669699113326262"><ele>456.0</ele><time>2026-05-04T13:34:08.986Z</time></trkpt><trkpt lat="44.8182261344674" lon="9.669861389314258"><ele>454.5</ele><time>2026-05-04T13:34:09.986Z</time></trkpt><trkpt lat="44.81823054538558" lon="9.670020075503999"><ele>453.0</ele><time>2026-05-04T13:34:10.986Z</time></trkpt><trkpt lat="44.81824464468553" lon="9.670181583202035"><ele>451.0</ele><time>2026-05-04T13:34:11.986Z</time></trkpt><trkpt lat="44.81827183830054" lon="9.67034015313451"><ele>449.0</ele><time>2026-05-04T13:34:12.986Z</time></trkpt><trkpt lat="44.8183087449403" lon="9.670489786709762"><ele>447.0</ele><time>2026-05-04T13:34:13.986Z</time></trkpt><trkpt lat="44.81836323106789" lon="9.670629226185294"><ele>445.0</ele><time>2026-05-04T13:34:14.986Z</time></trkpt><trkpt lat="44.81842151672526" lon="9.67077154520583"><ele>446.8</ele><time>2026-05-04T13:34:15.986Z</time></trkpt><trkpt lat="44.81848747222565" lon="9.670911740785977"><ele>448.6</ele><time>2026-05-04T13:34:16.986Z</time></trkpt><trkpt lat="44.818533334396" lon="9.671053490538903"><ele>450.4</ele><time>2026-05-04T13:34:17.986Z</time></trkpt><trkpt lat="44.818548638645126" lon="9.671193874268328"><ele>452.2</ele><time>2026-05-04T13:34:18.986Z</time></trkpt><trkpt lat="44.81850771925552" lon="9.67132863792299"><ele>454.0</ele><time>2026-05-04T13:34:19.986Z</time></trkpt><trkpt lat="44.81848654258054" lon="9.671469483076057"><ele>454.0</ele><time>2026-05-04T13:34:20.986Z</time></trkpt><trkpt lat="44.81845783575909" lon="9.671580644945617"><ele>454.0</ele><time>2026-05-04T13:34:21.986Z</time></trkpt><trkpt lat="44.81846687973366" lon="9.671696726725873"><ele>454.0</ele><time>2026-05-04T13:34:22.986Z</time></trkpt><trkpt lat="44.81851796944068" lon="9.671818857435337"><ele>454.0</ele><time>2026-05-04T13:34:23.986Z</time></trkpt><trkpt lat="44.8185889556674" lon="9.671936892327158"><ele>454.0</ele><time>2026-05-04T13:34:24.986Z</time></trkpt><trkpt lat="44.81868196781026" lon="9.67204275795698"><ele>451.0</ele><time>2026-05-04T13:34:25.986Z</time></trkpt><trkpt lat="44.81877244595997" lon="9.672154292969434"><ele>448.0</ele><time>2026-05-04T13:34:26.986Z</time></trkpt><trkpt lat="44.81885014624582" lon="9.672268220508128"><ele>445.0</ele><time>2026-05-04T13:34:27.986Z</time></trkpt><trkpt lat="44.81891676110064" lon="9.672391269661277"><ele>442.0</ele><time>2026-05-04T13:34:28.986Z</time></trkpt><trkpt lat="44.81897662528468" lon="9.672520020857505"><ele>442.0</ele><time>2026-05-04T13:34:29.986Z</time></trkpt><trkpt lat="44.819022980446405" lon="9.672649603023926"><ele>442.00000000000006</ele><time>2026-05-04T13:34:30.986Z</time></trkpt><trkpt lat="44.81903995784666" lon="9.67279817803267"><ele>442.00000000000006</ele><time>2026-05-04T13:34:31.986Z</time></trkpt><trkpt lat="44.8190470710463" lon="9.672950493097742"><ele>442.0</ele><time>2026-05-04T13:34:32.986Z</time></trkpt><trkpt lat="44.81906189698293" lon="9.673107074040109"><ele>442.0</ele><time>2026-05-04T13:34:33.986Z</time></trkpt><trkpt lat="44.81904504881047" lon="9.673280608832563"><ele>439.75</ele><time>2026-05-04T13:34:34.986Z</time></trkpt><trkpt lat="44.819024665427015" lon="9.673471862450079"><ele>437.5</ele><time>2026-05-04T13:34:35.986Z</time></trkpt><trkpt lat="44.819003212233184" lon="9.67364736959395"><ele>435.25</ele><time>2026-05-04T13:34:36.986Z</time></trkpt><trkpt lat="44.818982337322716" lon="9.673818843357504"><ele>433.0</ele><time>2026-05-04T13:34:37.986Z</time></trkpt><trkpt lat="44.818959885035056" lon="9.673985484918946"><ele>432.2</ele><time>2026-05-04T13:34:38.986Z</time></trkpt><trkpt lat="44.81893715895725" lon="9.67414755340755"><ele>431.4</ele><time>2026-05-04T13:34:39.986Z</time></trkpt><trkpt lat="44.81890835754867" lon="9.674300679345551"><ele>430.59999999999997</ele><time>2026-05-04T13:34:40.986Z</time></trkpt><trkpt lat="44.818861226969155" lon="9.674437734939866"><ele>429.79999999999995</ele><time>2026-05-04T13:34:41.986Z</time></trkpt><trkpt lat="44.81881442536852" lon="9.674558121402143"><ele>429.0</ele><time>2026-05-04T13:34:42.986Z</time></trkpt><trkpt lat="44.81879535558191" lon="9.67468283487301"><ele>427.2</ele><time>2026-05-04T13:34:43.986Z</time></trkpt><trkpt lat="44.81881027879262" lon="9.67482072270007"><ele>425.4</ele><time>2026-05-04T13:34:44.986Z</time></trkpt><trkpt lat="44.81886101795986" lon="9.674966625562872"><ele>423.6</ele><time>2026-05-04T13:34:45.986Z</time></trkpt><trkpt lat="44.81890570353938" lon="9.675112859456291"><ele>421.8</ele><time>2026-05-04T13:34:46.986Z</time></trkpt><trkpt lat="44.81895201461339" lon="9.675246697228463"><ele>420.0</ele><time>2026-05-04T13:34:47.986Z</time></trkpt><trkpt lat="44.81899053246921" lon="9.675356590301668"><ele>418.2</ele><time>2026-05-04T13:34:48.986Z</time></trkpt><trkpt lat="44.81902641884835" lon="9.675436526017767"><ele>416.4</ele><time>2026-05-04T13:34:49.986Z</time></trkpt><trkpt lat="44.81911540465175" lon="9.675564954969483"><ele>414.6</ele><time>2026-05-04T13:34:51.986Z</time></trkpt><trkpt lat="44.819162853836055" lon="9.675636894254728"><ele>412.8</ele><time>2026-05-04T13:34:52.986Z</time></trkpt><trkpt lat="44.81921242945364" lon="9.675712057516558"><ele>411.0</ele><time>2026-05-04T13:34:53.986Z</time></trkpt><trkpt lat="44.81942417026593" lon="9.675583435128194"><ele>410.20000000000005</ele><time>2026-05-04T13:34:54.986Z</time></trkpt><trkpt lat="44.819526540541844" lon="9.67559400686262"><ele>409.40000000000003</ele><time>2026-05-04T13:34:55.986Z</time></trkpt><trkpt lat="44.81962168852834" lon="9.675600882139628"><ele>408.6</ele><time>2026-05-04T13:34:56.986Z</time></trkpt><trkpt lat="44.81970638768036" lon="9.675598119756353"><ele>407.8</ele><time>2026-05-04T13:34:57.986Z</time></trkpt><trkpt lat="44.81980804515416" lon="9.675566329569577"><ele>407.0</ele><time>2026-05-04T13:34:59.986Z</time></trkpt><trkpt lat="44.81983190103787" lon="9.67568624564127"><ele>407.0</ele><time>2026-05-04T13:35:01.986Z</time></trkpt><trkpt lat="44.81972351101795" lon="9.675778756689096"><ele>407.0</ele><time>2026-05-04T13:35:03.986Z</time></trkpt><trkpt lat="44.819625275816136" lon="9.675810777781406"><ele>407.0</ele><time>2026-05-04T13:35:04.986Z</time></trkpt><trkpt lat="44.81951718607729" lon="9.6758562778009"><ele>407.0</ele><time>2026-05-04T13:35:05.986Z</time></trkpt><trkpt lat="44.81940994980967" lon="9.67590590351179"><ele>408.0</ele><time>2026-05-04T13:35:06.986Z</time></trkpt><trkpt lat="44.81930034216001" lon="9.675961364360807"><ele>409.0</ele><time>2026-05-04T13:35:07.986Z</time></trkpt><trkpt lat="44.819206116541466" lon="9.676052326274604"><ele>410.0</ele><time>2026-05-04T13:35:08.986Z</time></trkpt><trkpt lat="44.81911797412854" lon="9.676147161655452"><ele>411.0</ele><time>2026-05-04T13:35:09.986Z</time></trkpt><trkpt lat="44.81902815019225" lon="9.676255880670887"><ele>408.8</ele><time>2026-05-04T13:35:10.986Z</time></trkpt><trkpt lat="44.81894911267335" lon="9.67635469247728"><ele>406.6</ele><time>2026-05-04T13:35:11.986Z</time></trkpt><trkpt lat="44.8188924767592" lon="9.67645670245438"><ele>404.4</ele><time>2026-05-04T13:35:12.986Z</time></trkpt><trkpt lat="44.81884443485278" lon="9.676565729606455"><ele>402.2</ele><time>2026-05-04T13:35:13.986Z</time></trkpt><trkpt lat="44.818809838980066" lon="9.67668404718237"><ele>400.0</ele><time>2026-05-04T13:35:14.986Z</time></trkpt><trkpt lat="44.81879090281464" lon="9.676822248019793"><ele>397.6</ele><time>2026-05-04T13:35:15.986Z</time></trkpt><trkpt lat="44.81878729221852" lon="9.67697298781611"><ele>395.2</ele><time>2026-05-04T13:35:16.986Z</time></trkpt><trkpt lat="44.818801456368156" lon="9.677134832341398"><ele>392.79999999999995</ele><time>2026-05-04T13:35:17.986Z</time></trkpt><trkpt lat="44.818830157023626" lon="9.677280994774293"><ele>390.4</ele><time>2026-05-04T13:35:18.986Z</time></trkpt><trkpt lat="44.81883713306245" lon="9.67742651928383"><ele>388.0</ele><time>2026-05-04T13:35:19.986Z</time></trkpt><trkpt lat="44.81882534733631" lon="9.677566333250708"><ele>388.00000000000006</ele><time>2026-05-04T13:35:20.986Z</time></trkpt><trkpt lat="44.81879564289058" lon="9.677692578668504"><ele>388.0</ele><time>2026-05-04T13:35:21.986Z</time></trkpt><trkpt lat="44.81875570719002" lon="9.677820711423106"><ele>388.0</ele><time>2026-05-04T13:35:22.986Z</time></trkpt><trkpt lat="44.81870375868932" lon="9.677931775587668"><ele>388.0</ele><time>2026-05-04T13:35:23.986Z</time></trkpt><trkpt lat="44.81864355694148" lon="9.678003721469947"><ele>388.00000000000006</ele><time>2026-05-04T13:35:24.986Z</time></trkpt><trkpt lat="44.818567525111725" lon="9.678040464903331"><ele>388.0</ele><time>2026-05-04T13:35:25.986Z</time></trkpt><trkpt lat="44.81849005211185" lon="9.67804880231258"><ele>387.4</ele><time>2026-05-04T13:35:26.986Z</time></trkpt><trkpt lat="44.81840527771796" lon="9.67800933544274"><ele>386.79999999999995</ele><time>2026-05-04T13:35:27.986Z</time></trkpt><trkpt lat="44.81829657328038" lon="9.677972759080607"><ele>386.2</ele><time>2026-05-04T13:35:28.986Z</time></trkpt><trkpt lat="44.818193832470044" lon="9.677932611266073"><ele>385.6</ele><time>2026-05-04T13:35:29.986Z</time></trkpt><trkpt lat="44.81810102713548" lon="9.677885305302176"><ele>385.0</ele><time>2026-05-04T13:35:30.986Z</time></trkpt><trkpt lat="44.81801011840045" lon="9.677847019963872"><ele>385.00000000000006</ele><time>2026-05-04T13:35:31.986Z</time></trkpt><trkpt lat="44.817920285051656" lon="9.677845436067335"><ele>385.0</ele><time>2026-05-04T13:35:32.986Z</time></trkpt><trkpt lat="44.817841426129306" lon="9.677846919669904"><ele>385.0</ele><time>2026-05-04T13:35:33.986Z</time></trkpt><trkpt lat="44.817758570403996" lon="9.677851226938795"><ele>385.0</ele><time>2026-05-04T13:35:34.986Z</time></trkpt><trkpt lat="44.817690320524335" lon="9.677806131173496"><ele>385.00000000000006</ele><time>2026-05-04T13:35:35.986Z</time></trkpt><trkpt lat="44.81763570689659" lon="9.677707580385079"><ele>385.0</ele><time>2026-05-04T13:35:36.986Z</time></trkpt><trkpt lat="44.81758701633011" lon="9.677581944382176"><ele>385.0</ele><time>2026-05-04T13:35:37.986Z</time></trkpt><trkpt lat="44.81754576074084" lon="9.677414259442394"><ele>385.0</ele><time>2026-05-04T13:35:38.986Z</time></trkpt><trkpt lat="44.81751035585289" lon="9.677269128543557"><ele>385.0</ele><time>2026-05-04T13:35:39.987Z</time></trkpt><trkpt lat="44.817469200060366" lon="9.67713322104688"><ele>385.0</ele><time>2026-05-04T13:35:40.987Z</time></trkpt><trkpt lat="44.81741030327205" lon="9.677024493250617"><ele>385.0</ele><time>2026-05-04T13:35:41.987Z</time></trkpt><trkpt lat="44.81734380449136" lon="9.676931584672534"><ele>385.0</ele><time>2026-05-04T13:35:42.987Z</time></trkpt><trkpt lat="44.817271612577215" lon="9.67684137063503"><ele>385.0</ele><time>2026-05-04T13:35:43.987Z</time></trkpt><trkpt lat="44.817196799132965" lon="9.676785691759552"><ele>385.0</ele><time>2026-05-04T13:35:44.987Z</time></trkpt><trkpt lat="44.81709951189641" lon="9.676776131378958"><ele>385.0</ele><time>2026-05-04T13:35:45.986Z</time></trkpt><trkpt lat="44.816996679271796" lon="9.676777941020676"><ele>385.0</ele><time>2026-05-04T13:35:46.986Z</time></trkpt><trkpt lat="44.81689675830638" lon="9.676750030264254"><ele>385.0</ele><time>2026-05-04T13:35:47.987Z</time></trkpt><trkpt lat="44.81682006125777" lon="9.676676325789897"><ele>385.0</ele><time>2026-05-04T13:35:48.987Z</time></trkpt><trkpt lat="44.81675661707776" lon="9.676559302307743"><ele>385.0</ele><time>2026-05-04T13:35:49.987Z</time></trkpt><trkpt lat="44.81670152926869" lon="9.676432806280834"><ele>385.0</ele><time>2026-05-04T13:35:50.987Z</time></trkpt><trkpt lat="44.81665649212503" lon="9.676292024877707"><ele>385.0</ele><time>2026-05-04T13:35:51.987Z</time></trkpt><trkpt lat="44.8166110443148" lon="9.676152985850704"><ele>382.6666666666667</ele><time>2026-05-04T13:35:52.987Z</time></trkpt><trkpt lat="44.816558833142096" lon="9.676036057420879"><ele>380.33333333333337</ele><time>2026-05-04T13:35:53.987Z</time></trkpt><trkpt lat="44.816511072783484" lon="9.675937736876875"><ele>378.0</ele><time>2026-05-04T13:35:54.987Z</time></trkpt><trkpt lat="44.816470129776086" lon="9.675858603815936"><ele>375.6666666666667</ele><time>2026-05-04T13:35:55.987Z</time></trkpt><trkpt lat="44.81641417057006" lon="9.675807999988235"><ele>373.33333333333337</ele><time>2026-05-04T13:35:56.987Z</time></trkpt><trkpt lat="44.816347683500325" lon="9.675844784595828"><ele>371.0</ele><time>2026-05-04T13:35:57.987Z</time></trkpt><trkpt lat="44.81629907122526" lon="9.675909917219949"><ele>371.0</ele><time>2026-05-04T13:35:58.987Z</time></trkpt><trkpt lat="44.816278743977826" lon="9.676014430738812"><ele>371.0</ele><time>2026-05-04T13:35:59.987Z</time></trkpt><trkpt lat="44.81627999467559" lon="9.67614342721382"><ele>371.0</ele><time>2026-05-04T13:36:00.987Z</time></trkpt><trkpt lat="44.81627816796191" lon="9.676285742082694"><ele>371.0</ele><time>2026-05-04T13:36:01.987Z</time></trkpt><trkpt lat="44.81626104490265" lon="9.676422770635554"><ele>371.0</ele><time>2026-05-04T13:36:02.987Z</time></trkpt><trkpt lat="44.81622276577907" lon="9.676566478935674"><ele>370.33333333333337</ele><time>2026-05-04T13:36:03.987Z</time></trkpt><trkpt lat="44.81617623733425" lon="9.676691735071207"><ele>369.6666666666667</ele><time>2026-05-04T13:36:04.987Z</time></trkpt><trkpt lat="44.8161224443235" lon="9.67678854603856"><ele>369.0</ele><time>2026-05-04T13:36:05.987Z</time></trkpt><trkpt lat="44.81607092210504" lon="9.676862212496701"><ele>368.3333333333333</ele><time>2026-05-04T13:36:06.987Z</time></trkpt><trkpt lat="44.81602948715202" lon="9.676938758786912"><ele>367.66666666666663</ele><time>2026-05-04T13:36:07.987Z</time></trkpt><trkpt lat="44.81599613733752" lon="9.677024869035863"><ele>367.0</ele><time>2026-05-04T13:36:08.987Z</time></trkpt><trkpt lat="44.81596665554333" lon="9.677120545667627"><ele>366.3333333333333</ele><time>2026-05-04T13:36:09.987Z</time></trkpt><trkpt lat="44.81594105796329" lon="9.677231038780056"><ele>365.66666666666663</ele><time>2026-05-04T13:36:10.987Z</time></trkpt><trkpt lat="44.81592183921022" lon="9.677339426735708"><ele>365.0</ele><time>2026-05-04T13:36:11.987Z</time></trkpt><trkpt lat="44.815917045260576" lon="9.677454726849286"><ele>364.3333333333333</ele><time>2026-05-04T13:36:12.987Z</time></trkpt><trkpt lat="44.81593542204047" lon="9.677560999845383"><ele>363.6666666666667</ele><time>2026-05-04T13:36:13.987Z</time></trkpt><trkpt lat="44.81597545648875" lon="9.677664922830536"><ele>363.0</ele><time>2026-05-04T13:36:14.987Z</time></trkpt><trkpt lat="44.81603665451005" lon="9.677749333909922"><ele>362.0</ele><time>2026-05-04T13:36:15.987Z</time></trkpt><trkpt lat="44.816092482952364" lon="9.677820172805868"><ele>361.0</ele><time>2026-05-04T13:36:16.987Z</time></trkpt><trkpt lat="44.81612596226043" lon="9.677916605859872"><ele>360.0</ele><time>2026-05-04T13:36:17.987Z</time></trkpt><trkpt lat="44.816154522519525" lon="9.678042585363519"><ele>359.0</ele><time>2026-05-04T13:36:18.987Z</time></trkpt><trkpt lat="44.81616324646979" lon="9.678182237961057"><ele>358.0</ele><time>2026-05-04T13:36:19.987Z</time></trkpt><trkpt lat="44.816163127365776" lon="9.678302828254315"><ele>357.0</ele><time>2026-05-04T13:36:20.987Z</time></trkpt><trkpt lat="44.81616474815985" lon="9.6783969229462"><ele>357.0</ele><time>2026-05-04T13:36:21.987Z</time></trkpt><trkpt lat="44.81616213572255" lon="9.67850910350455"><ele>357.0</ele><time>2026-05-04T13:36:23.987Z</time></trkpt><trkpt lat="44.81611332829195" lon="9.678573852852494"><ele>357.0</ele><time>2026-05-04T13:36:25.987Z</time></trkpt><trkpt lat="44.816016739337336" lon="9.678597903133191"><ele>357.0</ele><time>2026-05-04T13:36:27.987Z</time></trkpt><trkpt lat="44.815910167876666" lon="9.678595084924888"><ele>357.0</ele><time>2026-05-04T13:36:29.987Z</time></trkpt><trkpt lat="44.81581495100728" lon="9.678587082429832"><ele>357.0</ele><time>2026-05-04T13:36:31.987Z</time></trkpt><trkpt lat="44.815775640238726" lon="9.67849255924007"><ele>355.8333333333333</ele><time>2026-05-04T13:36:33.987Z</time></trkpt><trkpt lat="44.81572028936291" lon="9.678386204051485"><ele>354.6666666666667</ele><time>2026-05-04T13:36:34.987Z</time></trkpt><trkpt lat="44.81569852759249" lon="9.678256248400862"><ele>353.5</ele><time>2026-05-04T13:36:35.987Z</time></trkpt><trkpt lat="44.81567696362563" lon="9.678157645902242"><ele>352.33333333333337</ele><time>2026-05-04T13:36:36.987Z</time></trkpt><trkpt lat="44.81560664681383" lon="9.678092164192982"><ele>351.1666666666667</ele><time>2026-05-04T13:36:38.987Z</time></trkpt><trkpt lat="44.815508091627194" lon="9.678065861083612"><ele>350.0</ele><time>2026-05-04T13:36:41.987Z</time></trkpt><trkpt lat="44.81539692533894" lon="9.678125424358152"><ele>350.0</ele><time>2026-05-04T13:36:43.987Z</time></trkpt><trkpt lat="44.81532736240295" lon="9.678146649263853"><ele>350.0</ele><time>2026-05-04T13:36:44.987Z</time></trkpt><trkpt lat="44.815244826366396" lon="9.678182542621581"><ele>350.0</ele><time>2026-05-04T13:36:45.987Z</time></trkpt><trkpt lat="44.81517112294092" lon="9.6782319762851"><ele>350.0</ele><time>2026-05-04T13:36:46.987Z</time></trkpt><trkpt lat="44.815106055728144" lon="9.678256607387352"><ele>350.0</ele><time>2026-05-04T13:36:47.987Z</time></trkpt><trkpt lat="44.81503422601395" lon="9.678243480135242"><ele>350.0</ele><time>2026-05-04T13:36:48.987Z</time></trkpt><trkpt lat="44.814958004121166" lon="9.678221262777308"><ele>350.5</ele><time>2026-05-04T13:36:49.987Z</time></trkpt><trkpt lat="44.81487701956956" lon="9.67821122539398"><ele>351.0</ele><time>2026-05-04T13:36:50.987Z</time></trkpt><trkpt lat="44.814793342084755" lon="9.678177934052222"><ele>351.5</ele><time>2026-05-04T13:36:51.987Z</time></trkpt><trkpt lat="44.81470870632541" lon="9.678144419847456"><ele>352.0</ele><time>2026-05-04T13:36:52.987Z</time></trkpt><trkpt lat="44.81462581112316" lon="9.678103982889894"><ele>352.5</ele><time>2026-05-04T13:36:53.987Z</time></trkpt><trkpt lat="44.81454019823924" lon="9.678081536820784"><ele>353.0</ele><time>2026-05-04T13:36:54.987Z</time></trkpt><trkpt lat="44.814441802850794" lon="9.678076243993488"><ele>353.0</ele><time>2026-05-04T13:36:55.987Z</time></trkpt><trkpt lat="44.81433751721119" lon="9.678093844237406"><ele>353.0</ele><time>2026-05-04T13:36:56.987Z</time></trkpt><trkpt lat="44.81422518768142" lon="9.678105883720953"><ele>353.0</ele><time>2026-05-04T13:36:57.987Z</time></trkpt><trkpt lat="44.814106079961114" lon="9.67812502108085"><ele>353.0</ele><time>2026-05-04T13:36:58.987Z</time></trkpt><trkpt lat="44.813990621109454" lon="9.678165696357578"><ele>354.4</ele><time>2026-05-04T13:36:59.987Z</time></trkpt><trkpt lat="44.81387891327731" lon="9.67821065678131"><ele>355.79999999999995</ele><time>2026-05-04T13:37:00.987Z</time></trkpt><trkpt lat="44.81376604630543" lon="9.678239592902488"><ele>357.2</ele><time>2026-05-04T13:37:01.987Z</time></trkpt><trkpt lat="44.813654897992805" lon="9.678253680464648"><ele>358.6</ele><time>2026-05-04T13:37:02.987Z</time></trkpt><trkpt lat="44.8135578293412" lon="9.678286659954587"><ele>360.0</ele><time>2026-05-04T13:37:03.987Z</time></trkpt><trkpt lat="44.81347707975426" lon="9.678330271556197"><ele>360.4</ele><time>2026-05-04T13:37:04.987Z</time></trkpt><trkpt lat="44.81341051799585" lon="9.678403468968984"><ele>360.8</ele><time>2026-05-04T13:37:05.987Z</time></trkpt><trkpt lat="44.81334990886853" lon="9.678506372669498"><ele>361.20000000000005</ele><time>2026-05-04T13:37:06.987Z</time></trkpt><trkpt lat="44.81327989691293" lon="9.678605452558601"><ele>361.6</ele><time>2026-05-04T13:37:07.987Z</time></trkpt><trkpt lat="44.81320885970243" lon="9.678685113527882"><ele>362.0</ele><time>2026-05-04T13:37:08.987Z</time></trkpt><trkpt lat="44.81313119429936" lon="9.678745069543044"><ele>362.0</ele><time>2026-05-04T13:37:09.987Z</time></trkpt><trkpt lat="44.81304376140362" lon="9.678762567880057"><ele>362.0</ele><time>2026-05-04T13:37:10.987Z</time></trkpt><trkpt lat="44.81296409333896" lon="9.678737781099866"><ele>362.0</ele><time>2026-05-04T13:37:11.987Z</time></trkpt><trkpt lat="44.81287143346671" lon="9.678684186461357"><ele>362.0</ele><time>2026-05-04T13:37:12.987Z</time></trkpt><trkpt lat="44.81276413065053" lon="9.678635463603165"><ele>362.0</ele><time>2026-05-04T13:37:13.987Z</time></trkpt><trkpt lat="44.812638829769504" lon="9.67859051895251"><ele>367.0</ele><time>2026-05-04T13:37:14.987Z</time></trkpt><trkpt lat="44.81251998975315" lon="9.678536709675491"><ele>372.0</ele><time>2026-05-04T13:37:15.987Z</time></trkpt><trkpt lat="44.8123946265839" lon="9.678481795380447"><ele>377.0</ele><time>2026-05-04T13:37:16.987Z</time></trkpt><trkpt lat="44.812271833125976" lon="9.678432430887383"><ele>382.0</ele><time>2026-05-04T13:37:17.987Z</time></trkpt><trkpt lat="44.81215857301193" lon="9.678387141315723"><ele>382.0</ele><time>2026-05-04T13:37:18.987Z</time></trkpt><trkpt lat="44.812050271649476" lon="9.678332062383829"><ele>382.0</ele><time>2026-05-04T13:37:19.987Z</time></trkpt><trkpt lat="44.81195513740014" lon="9.678254932179923"><ele>382.0</ele><time>2026-05-04T13:37:20.987Z</time></trkpt><trkpt lat="44.811864515140826" lon="9.678171736695186"><ele>382.0</ele><time>2026-05-04T13:37:21.987Z</time></trkpt><trkpt lat="44.8117823768762" lon="9.678088857271229"><ele>382.0</ele><time>2026-05-04T13:37:22.987Z</time></trkpt><trkpt lat="44.811712493707304" lon="9.67801021773409"><ele>383.8333333333333</ele><time>2026-05-04T13:37:23.987Z</time></trkpt><trkpt lat="44.81166272279981" lon="9.677914900565694"><ele>385.66666666666663</ele><time>2026-05-04T13:37:24.987Z</time></trkpt><trkpt lat="44.81162665818098" lon="9.677813696153109"><ele>387.5</ele><time>2026-05-04T13:37:25.987Z</time></trkpt><trkpt lat="44.811602290213926" lon="9.677709151417462"><ele>389.3333333333333</ele><time>2026-05-04T13:37:26.987Z</time></trkpt><trkpt lat="44.81156474568514" lon="9.677604275081984"><ele>391.1666666666667</ele><time>2026-05-04T13:37:27.987Z</time></trkpt><trkpt lat="44.81150975858789" lon="9.677517650331518"><ele>393.0</ele><time>2026-05-04T13:37:28.987Z</time></trkpt><trkpt lat="44.811442584101776" lon="9.677443549552914"><ele>393.5</ele><time>2026-05-04T13:37:29.987Z</time></trkpt><trkpt lat="44.811362328891896" lon="9.677397427879924"><ele>394.0</ele><time>2026-05-04T13:37:30.987Z</time></trkpt><trkpt lat="44.81128083783274" lon="9.677360550834873"><ele>394.5</ele><time>2026-05-04T13:37:31.987Z</time></trkpt><trkpt lat="44.81119434621903" lon="9.67732060816213"><ele>395.0</ele><time>2026-05-04T13:37:32.987Z</time></trkpt><trkpt lat="44.81113207296332" lon="9.677265948072721"><ele>395.5</ele><time>2026-05-04T13:37:33.987Z</time></trkpt><trkpt lat="44.81109185306476" lon="9.677194219692963"><ele>396.0</ele><time>2026-05-04T13:37:34.987Z</time></trkpt><trkpt lat="44.81108119773902" lon="9.67708885375935"><ele>396.0</ele><time>2026-05-04T13:37:35.987Z</time></trkpt><trkpt lat="44.81110351359564" lon="9.676977335618094"><ele>396.0</ele><time>2026-05-04T13:37:36.987Z</time></trkpt><trkpt lat="44.81114913019096" lon="9.67689020044249"><ele>396.0</ele><time>2026-05-04T13:37:37.987Z</time></trkpt><trkpt lat="44.811226038950736" lon="9.676826865730513"><ele>396.0</ele><time>2026-05-04T13:37:38.987Z</time></trkpt><trkpt lat="44.811320632450474" lon="9.676775236128334"><ele>396.0</ele><time>2026-05-04T13:37:39.987Z</time></trkpt><trkpt lat="44.8114029834765" lon="9.676697467564967"><ele>396.0</ele><time>2026-05-04T13:37:40.987Z</time></trkpt><trkpt lat="44.811466062198484" lon="9.676609566301691"><ele>398.6</ele><time>2026-05-04T13:37:41.987Z</time></trkpt><trkpt lat="44.81150338874174" lon="9.67649755783774"><ele>401.20000000000005</ele><time>2026-05-04T13:37:42.987Z</time></trkpt><trkpt lat="44.81152381923004" lon="9.67636014130738"><ele>403.79999999999995</ele><time>2026-05-04T13:37:43.987Z</time></trkpt><trkpt lat="44.8115454241595" lon="9.676215139211807"><ele>406.4</ele><time>2026-05-04T13:37:44.986Z</time></trkpt><trkpt lat="44.81155622753427" lon="9.676087956448457"><ele>409.0</ele><time>2026-05-04T13:37:45.986Z</time></trkpt><trkpt lat="44.811546737507314" lon="9.675988813069132"><ele>412.00000000000006</ele><time>2026-05-04T13:37:46.986Z</time></trkpt><trkpt lat="44.811517214034566" lon="9.675897108249417"><ele>415.0</ele><time>2026-05-04T13:37:47.987Z</time></trkpt><trkpt lat="44.81146247000069" lon="9.675836514468136"><ele>418.0</ele><time>2026-05-04T13:37:48.987Z</time></trkpt><trkpt lat="44.81137509482671" lon="9.675792090526656"><ele>421.0</ele><time>2026-05-04T13:37:49.987Z</time></trkpt><trkpt lat="44.81128764996029" lon="9.675758917681812"><ele>424.00000000000006</ele><time>2026-05-04T13:37:50.986Z</time></trkpt><trkpt lat="44.81121499826966" lon="9.675749020598932"><ele>427.0</ele><time>2026-05-04T13:37:51.987Z</time></trkpt><trkpt lat="44.81113617296952" lon="9.675770978615917"><ele>427.0</ele><time>2026-05-04T13:37:52.987Z</time></trkpt><trkpt lat="44.81105733437435" lon="9.675856938455745"><ele>427.0</ele><time>2026-05-04T13:37:53.986Z</time></trkpt><trkpt lat="44.810961457042175" lon="9.675957451515266"><ele>427.0</ele><time>2026-05-04T13:37:54.987Z</time></trkpt><trkpt lat="44.810867763348455" lon="9.676054916410125"><ele>427.0</ele><time>2026-05-04T13:37:55.987Z</time></trkpt><trkpt lat="44.81077574262157" lon="9.676174545462954"><ele>426.0</ele><time>2026-05-04T13:37:56.986Z</time></trkpt><trkpt lat="44.810697666125456" lon="9.676292620549189"><ele>425.00000000000006</ele><time>2026-05-04T13:37:57.986Z</time></trkpt><trkpt lat="44.81063344598487" lon="9.676371351977725"><ele>424.0</ele><time>2026-05-04T13:37:58.986Z</time></trkpt><trkpt lat="44.81056651849453" lon="9.676403110093013"><ele>423.0</ele><time>2026-05-04T13:37:59.986Z</time></trkpt><trkpt lat="44.81048022522257" lon="9.676423913552192"><ele>422.0</ele><time>2026-05-04T13:38:00.986Z</time></trkpt><trkpt lat="44.81038329787319" lon="9.676418695189273"><ele>422.0</ele><time>2026-05-04T13:38:01.986Z</time></trkpt><trkpt lat="44.81030981501818" lon="9.67639236423817"><ele>422.0</ele><time>2026-05-04T13:38:02.986Z</time></trkpt><trkpt lat="44.81025450898837" lon="9.676275984971518"><ele>422.0</ele><time>2026-05-04T13:38:03.986Z</time></trkpt><trkpt lat="44.81020188966323" lon="9.676093307115346"><ele>422.0</ele><time>2026-05-04T13:38:04.986Z</time></trkpt><trkpt lat="44.81014107004586" lon="9.67592041909677"><ele>425.0</ele><time>2026-05-04T13:38:05.986Z</time></trkpt><trkpt lat="44.8100901213041" lon="9.675764041892675"><ele>428.0</ele><time>2026-05-04T13:38:06.986Z</time></trkpt><trkpt lat="44.81005185351049" lon="9.675623956550497"><ele>431.00000000000006</ele><time>2026-05-04T13:38:07.986Z</time></trkpt><trkpt lat="44.810005110511064" lon="9.675500049540918"><ele>434.0</ele><time>2026-05-04T13:38:08.986Z</time></trkpt><trkpt lat="44.80996505422321" lon="9.675386560329054"><ele>437.0</ele><time>2026-05-04T13:38:09.986Z</time></trkpt><trkpt lat="44.80992448712749" lon="9.675281346742668"><ele>440.20000000000005</ele><time>2026-05-04T13:38:10.986Z</time></trkpt><trkpt lat="44.80986590445912" lon="9.67513223756591"><ele>443.40000000000003</ele><time>2026-05-04T13:38:12.986Z</time></trkpt><trkpt lat="44.80982987097103" lon="9.675057910248395"><ele>446.59999999999997</ele><time>2026-05-04T13:38:13.986Z</time></trkpt><trkpt lat="44.80974624220062" lon="9.674961018765352"><ele>449.79999999999995</ele><time>2026-05-04T13:38:15.986Z</time></trkpt><trkpt lat="44.80965531795283" lon="9.67490761570696"><ele>453.0</ele><time>2026-05-04T13:38:17.986Z</time></trkpt><trkpt lat="44.80955252476471" lon="9.674905953613063"><ele>453.0</ele><time>2026-05-04T13:38:19.986Z</time></trkpt><trkpt lat="44.809429776130145" lon="9.674943263936822"><ele>453.0</ele><time>2026-05-04T13:38:21.986Z</time></trkpt><trkpt lat="44.80936610436839" lon="9.674993689591673"><ele>453.0</ele><time>2026-05-04T13:38:22.986Z</time></trkpt><trkpt lat="44.80930445198104" lon="9.675060854845565"><ele>453.0</ele><time>2026-05-04T13:38:23.986Z</time></trkpt><trkpt lat="44.8092576464436" lon="9.675128224980691"><ele>453.0</ele><time>2026-05-04T13:38:24.986Z</time></trkpt><trkpt lat="44.80922683730734" lon="9.675218073443833"><ele>453.0</ele><time>2026-05-04T13:38:25.986Z</time></trkpt><trkpt lat="44.80921290984262" lon="9.67532015413474"><ele>452.2</ele><time>2026-05-04T13:38:26.986Z</time></trkpt><trkpt lat="44.809197744137045" lon="9.675440250218895"><ele>451.4</ele><time>2026-05-04T13:38:27.986Z</time></trkpt><trkpt lat="44.80918110669869" lon="9.675569364749583"><ele>450.59999999999997</ele><time>2026-05-04T13:38:28.986Z</time></trkpt><trkpt lat="44.80915969019712" lon="9.67570341251228"><ele>449.79999999999995</ele><time>2026-05-04T13:38:29.986Z</time></trkpt><trkpt lat="44.80911671977951" lon="9.675839828320118"><ele>449.0</ele><time>2026-05-04T13:38:30.986Z</time></trkpt><trkpt lat="44.809064834563486" lon="9.675976633246128"><ele>446.75</ele><time>2026-05-04T13:38:31.986Z</time></trkpt><trkpt lat="44.80901717080922" lon="9.67612088808732"><ele>444.5</ele><time>2026-05-04T13:38:32.986Z</time></trkpt><trkpt lat="44.80897101467321" lon="9.676269185870137"><ele>442.25</ele><time>2026-05-04T13:38:33.986Z</time></trkpt><trkpt lat="44.808924976003496" lon="9.67641898438619"><ele>440.0</ele><time>2026-05-04T13:38:34.986Z</time></trkpt><trkpt lat="44.80886636168521" lon="9.67655621013186"><ele>440.0</ele><time>2026-05-04T13:38:35.986Z</time></trkpt><trkpt lat="44.80880423642018" lon="9.676658183049447"><ele>440.0</ele><time>2026-05-04T13:38:36.986Z</time></trkpt><trkpt lat="44.808751422942116" lon="9.676727295576265"><ele>440.0</ele><time>2026-05-04T13:38:37.986Z</time></trkpt><trkpt lat="44.80863573655693" lon="9.676767138981578"><ele>440.0</ele><time>2026-05-04T13:38:39.986Z</time></trkpt><trkpt lat="44.80853281293548" lon="9.676744730873805"><ele>440.0</ele><time>2026-05-04T13:38:40.986Z</time></trkpt><trkpt lat="44.8084314948403" lon="9.676751005961597"><ele>439.8</ele><time>2026-05-04T13:38:41.986Z</time></trkpt><trkpt lat="44.80833398271411" lon="9.6768018338487"><ele>439.6</ele><time>2026-05-04T13:38:42.986Z</time></trkpt><trkpt lat="44.80824662954273" lon="9.676869694051202"><ele>439.4</ele><time>2026-05-04T13:38:43.986Z</time></trkpt><trkpt lat="44.80816882124664" lon="9.676948997427152"><ele>439.2</ele><time>2026-05-04T13:38:44.986Z</time></trkpt><trkpt lat="44.80810426189049" lon="9.677016418456596"><ele>439.0</ele><time>2026-05-04T13:38:45.986Z</time></trkpt><trkpt lat="44.808037810858764" lon="9.677050104275084"><ele>439.0</ele><time>2026-05-04T13:38:46.986Z</time></trkpt><trkpt lat="44.80796563717894" lon="9.677028629381041"><ele>439.0</ele><time>2026-05-04T13:38:47.986Z</time></trkpt><trkpt lat="44.807897783346384" lon="9.676979948958776"><ele>439.0</ele><time>2026-05-04T13:38:48.986Z</time></trkpt><trkpt lat="44.807833431424775" lon="9.676853120490676"><ele>439.0</ele><time>2026-05-04T13:38:49.986Z</time></trkpt><trkpt lat="44.807749266462345" lon="9.676690597479114"><ele>439.0</ele><time>2026-05-04T13:38:50.986Z</time></trkpt><trkpt lat="44.80767114281674" lon="9.676551561215822"><ele>442.2</ele><time>2026-05-04T13:38:51.986Z</time></trkpt><trkpt lat="44.80761149086776" lon="9.676426645707378"><ele>445.4</ele><time>2026-05-04T13:38:52.986Z</time></trkpt><trkpt lat="44.80758257343733" lon="9.676299163914395"><ele>448.6</ele><time>2026-05-04T13:38:53.986Z</time></trkpt><trkpt lat="44.80755826756605" lon="9.676205289020636"><ele>451.8</ele><time>2026-05-04T13:38:54.986Z</time></trkpt><trkpt lat="44.807524082843365" lon="9.676050575033766"><ele>455.0</ele><time>2026-05-04T13:38:56.986Z</time></trkpt><trkpt lat="44.807500372469015" lon="9.675967772225478"><ele>456.3333333333333</ele><time>2026-05-04T13:38:57.986Z</time></trkpt><trkpt lat="44.807461732218705" lon="9.675891913478662"><ele>457.66666666666663</ele><time>2026-05-04T13:38:58.986Z</time></trkpt><trkpt lat="44.80741299056305" lon="9.675817614020241"><ele>459.0</ele><time>2026-05-04T13:38:59.986Z</time></trkpt><trkpt lat="44.8073519400126" lon="9.675740259545632"><ele>460.33333333333337</ele><time>2026-05-04T13:39:00.986Z</time></trkpt><trkpt lat="44.80728615985771" lon="9.67566522749851"><ele>461.6666666666667</ele><time>2026-05-04T13:39:01.986Z</time></trkpt><trkpt lat="44.80722037537223" lon="9.6755886612752"><ele>463.0</ele><time>2026-05-04T13:39:02.986Z</time></trkpt><trkpt lat="44.80716822064213" lon="9.675528863764534"><ele>463.0</ele><time>2026-05-04T13:39:03.986Z</time></trkpt><trkpt lat="44.80712028208655" lon="9.675449451600983"><ele>462.99999999999994</ele><time>2026-05-04T13:39:05.986Z</time></trkpt><trkpt lat="44.80707791100794" lon="9.675353622069547"><ele>462.99999999999994</ele><time>2026-05-04T13:39:18.986Z</time></trkpt><trkpt lat="44.806988484764794" lon="9.675221612030256"><ele>463.0</ele><time>2026-05-04T13:39:20.986Z</time></trkpt><trkpt lat="44.80692747258666" lon="9.675153811227492"><ele>463.0</ele><time>2026-05-04T13:39:21.986Z</time></trkpt><trkpt lat="44.806852185353314" lon="9.675085861815482"><ele>463.79999999999995</ele><time>2026-05-04T13:39:22.986Z</time></trkpt><trkpt lat="44.80676369447258" lon="9.675010178161433"><ele>464.59999999999997</ele><time>2026-05-04T13:39:23.986Z</time></trkpt><trkpt lat="44.80668795181993" lon="9.674940288067443"><ele>465.40000000000003</ele><time>2026-05-04T13:39:24.986Z</time></trkpt><trkpt lat="44.8066046520501" lon="9.674864126016768"><ele>466.20000000000005</ele><time>2026-05-04T13:39:25.986Z</time></trkpt><trkpt lat="44.806529849367585" lon="9.674798883883023"><ele>467.0</ele><time>2026-05-04T13:39:26.986Z</time></trkpt><trkpt lat="44.80646459650907" lon="9.674754432972893"><ele>466.99999999999994</ele><time>2026-05-04T13:39:27.986Z</time></trkpt><trkpt lat="44.80639033985973" lon="9.674718780117798"><ele>467.0</ele><time>2026-05-04T13:39:28.986Z</time></trkpt><trkpt lat="44.806321176164744" lon="9.674677097569663"><ele>467.0</ele><time>2026-05-04T13:39:29.986Z</time></trkpt><trkpt lat="44.80625513522034" lon="9.67461687901328"><ele>467.0</ele><time>2026-05-04T13:39:30.986Z</time></trkpt><trkpt lat="44.80619319086617" lon="9.674528000019281"><ele>466.99999999999994</ele><time>2026-05-04T13:39:31.986Z</time></trkpt><trkpt lat="44.80611836049475" lon="9.674399843915317"><ele>467.0</ele><time>2026-05-04T13:39:32.986Z</time></trkpt><trkpt lat="44.80603960493331" lon="9.67428697046767"><ele>468.40000000000003</ele><time>2026-05-04T13:39:33.986Z</time></trkpt><trkpt lat="44.80595273764132" lon="9.674185502163972"><ele>469.80000000000007</ele><time>2026-05-04T13:39:34.986Z</time></trkpt><trkpt lat="44.805862417980734" lon="9.674094654238322"><ele>471.2</ele><time>2026-05-04T13:39:35.986Z</time></trkpt><trkpt lat="44.8057867636486" lon="9.674001891416209"><ele>472.6</ele><time>2026-05-04T13:39:36.986Z</time></trkpt><trkpt lat="44.80571939589509" lon="9.673910249731517"><ele>474.0</ele><time>2026-05-04T13:39:37.986Z</time></trkpt><trkpt lat="44.805665782019155" lon="9.673822684334963"><ele>474.0</ele><time>2026-05-04T13:39:38.986Z</time></trkpt><trkpt lat="44.80562372655638" lon="9.673709099189697"><ele>474.0</ele><time>2026-05-04T13:39:39.985Z</time></trkpt><trkpt lat="44.805599659442116" lon="9.673594499681533"><ele>474.0</ele><time>2026-05-04T13:39:40.984Z</time></trkpt><trkpt lat="44.80558894179152" lon="9.673463247094334"><ele>474.0</ele><time>2026-05-04T13:39:41.983Z</time></trkpt><trkpt lat="44.805583250053694" lon="9.673331295118379"><ele>474.0</ele><time>2026-05-04T13:39:42.982Z</time></trkpt><trkpt lat="44.80557216797421" lon="9.673176205179589"><ele>477.2</ele><time>2026-05-04T13:39:43.981Z</time></trkpt><trkpt lat="44.805555564141876" lon="9.673026480206318"><ele>480.4</ele><time>2026-05-04T13:39:44.98Z</time></trkpt><trkpt lat="44.8055216310462" lon="9.672888217030538"><ele>483.6</ele><time>2026-05-04T13:39:45.979Z</time></trkpt><trkpt lat="44.805464076049084" lon="9.672743925869783"><ele>486.8</ele><time>2026-05-04T13:39:46.979Z</time></trkpt><trkpt lat="44.80540008992853" lon="9.672623252100191"><ele>490.0</ele><time>2026-05-04T13:39:47.978Z</time></trkpt><trkpt lat="44.80533104120265" lon="9.672515185874026"><ele>488.25</ele><time>2026-05-04T13:39:48.977Z</time></trkpt><trkpt lat="44.805243339704944" lon="9.672418176180209"><ele>486.5</ele><time>2026-05-04T13:39:49.977Z</time></trkpt><trkpt lat="44.805143080991904" lon="9.67232758160524"><ele>484.75</ele><time>2026-05-04T13:39:50.977Z</time></trkpt><trkpt lat="44.805017719219784" lon="9.672233437691116"><ele>483.0</ele><time>2026-05-04T13:39:51.976Z</time></trkpt><trkpt lat="44.80491932138888" lon="9.67213017186995"><ele>483.0</ele><time>2026-05-04T13:39:52.976Z</time></trkpt><trkpt lat="44.80484763100334" lon="9.672042872190366"><ele>483.0</ele><time>2026-05-04T13:39:53.976Z</time></trkpt><trkpt lat="44.80477926220463" lon="9.671977939811873"><ele>483.0</ele><time>2026-05-04T13:39:54.975Z</time></trkpt><trkpt lat="44.80470120898961" lon="9.671951167480518"><ele>483.0</ele><time>2026-05-04T13:39:55.974Z</time></trkpt><trkpt lat="44.80462078622091" lon="9.671957315685457"><ele>483.0</ele><time>2026-05-04T13:39:56.975Z</time></trkpt><trkpt lat="44.80455242615275" lon="9.67200472028114"><ele>483.0</ele><time>2026-05-04T13:39:57.974Z</time></trkpt><trkpt lat="44.80449170257701" lon="9.672083239645927"><ele>483.0</ele><time>2026-05-04T13:39:58.974Z</time></trkpt><trkpt lat="44.80441981569179" lon="9.672218503735941"><ele>482.99999999999994</ele><time>2026-05-04T13:39:59.973Z</time></trkpt><trkpt lat="44.80434717743284" lon="9.672338703506643"><ele>482.99999999999994</ele><time>2026-05-04T13:40:00.973Z</time></trkpt><trkpt lat="44.80429069230207" lon="9.672429680754563"><ele>483.0</ele><time>2026-05-04T13:40:01.972Z</time></trkpt><trkpt lat="44.80424676925855" lon="9.672498637932758"><ele>483.0</ele><time>2026-05-04T13:40:02.972Z</time></trkpt><trkpt lat="44.80417930800318" lon="9.672595802118026"><ele>483.1666666666667</ele><time>2026-05-04T13:40:04.972Z</time></trkpt><trkpt lat="44.804122039139166" lon="9.672653736834304"><ele>483.33333333333337</ele><time>2026-05-04T13:40:06.971Z</time></trkpt><trkpt lat="44.80404389709627" lon="9.672700939069864"><ele>483.5</ele><time>2026-05-04T13:40:08.971Z</time></trkpt><trkpt lat="44.80395936970863" lon="9.67274028713126"><ele>483.6666666666667</ele><time>2026-05-04T13:40:10.971Z</time></trkpt><trkpt lat="44.80388705864092" lon="9.6727480571911"><ele>483.83333333333337</ele><time>2026-05-04T13:40:12.97Z</time></trkpt><trkpt lat="44.803805843992436" lon="9.672690221305539"><ele>484.0</ele><time>2026-05-04T13:40:14.97Z</time></trkpt><trkpt lat="44.803729561082726" lon="9.672547057339118"><ele>484.00000000000006</ele><time>2026-05-04T13:40:16.97Z</time></trkpt><trkpt lat="44.803658189358956" lon="9.672401795461807"><ele>484.0</ele><time>2026-05-04T13:40:18.97Z</time></trkpt><trkpt lat="44.80361636140645" lon="9.672327100203338"><ele>484.0</ele><time>2026-05-04T13:40:19.97Z</time></trkpt><trkpt lat="44.803566277603984" lon="9.672255572386579"><ele>484.0</ele><time>2026-05-04T13:40:20.97Z</time></trkpt><trkpt lat="44.80351816462457" lon="9.672185439920947"><ele>484.00000000000006</ele><time>2026-05-04T13:40:21.969Z</time></trkpt><trkpt lat="44.80346324618698" lon="9.672114139594317"><ele>484.0</ele><time>2026-05-04T13:40:22.969Z</time></trkpt><trkpt lat="44.803410474062346" lon="9.672041246998909"><ele>485.00000000000006</ele><time>2026-05-04T13:40:23.969Z</time></trkpt><trkpt lat="44.80335887451505" lon="9.671984376446517"><ele>486.0</ele><time>2026-05-04T13:40:24.969Z</time></trkpt><trkpt lat="44.803304583725975" lon="9.671932448132225"><ele>487.0</ele><time>2026-05-04T13:40:25.969Z</time></trkpt><trkpt lat="44.80324608779841" lon="9.671887304001377"><ele>488.0</ele><time>2026-05-04T13:40:26.969Z</time></trkpt><trkpt lat="44.803160793517215" lon="9.671842949969827"><ele>489.00000000000006</ele><time>2026-05-04T13:40:28.969Z</time></trkpt><trkpt lat="44.803114114137216" lon="9.671736431830304"><ele>490.0</ele><time>2026-05-04T13:40:31.969Z</time></trkpt><trkpt lat="44.8031832186265" lon="9.671631686007482"><ele>491.4</ele><time>2026-05-04T13:40:34.969Z</time></trkpt><trkpt lat="44.803274237141785" lon="9.67156941657891"><ele>492.8</ele><time>2026-05-04T13:40:36.969Z</time></trkpt><trkpt lat="44.80337065023023" lon="9.671501521269054"><ele>494.20000000000005</ele><time>2026-05-04T13:40:38.969Z</time></trkpt><trkpt lat="44.803471542927376" lon="9.671433135098203"><ele>495.6</ele><time>2026-05-04T13:40:40.969Z</time></trkpt><trkpt lat="44.80356114387955" lon="9.671371849798692"><ele>497.0</ele><time>2026-05-04T13:40:42.969Z</time></trkpt><trkpt lat="44.8036393258862" lon="9.671328555830303"><ele>496.99999999999994</ele><time>2026-05-04T13:40:44.968Z</time></trkpt><trkpt lat="44.80356748457328" lon="9.671348284673149"><ele>497.0</ele><time>2026-05-04T13:41:16.968Z</time></trkpt><trkpt lat="44.803493381905355" lon="9.671384031736697"><ele>497.0</ele><time>2026-05-04T13:41:20.968Z</time></trkpt><trkpt lat="44.80342106087323" lon="9.671411745022404"><ele>497.0</ele><time>2026-05-04T13:41:24.968Z</time></trkpt><trkpt lat="44.80335919578871" lon="9.67137909411689"><ele>496.99999999999994</ele><time>2026-05-04T13:41:26.968Z</time></trkpt><trkpt lat="44.80325141688883" lon="9.671310251922941"><ele>497.0</ele><time>2026-05-04T13:41:28.968Z</time></trkpt><trkpt lat="44.80314510258833" lon="9.671251736208896"><ele>498.16666666666663</ele><time>2026-05-04T13:41:30.968Z</time></trkpt><trkpt lat="44.803054024134674" lon="9.671209146174046"><ele>499.3333333333333</ele><time>2026-05-04T13:41:32.968Z</time></trkpt><trkpt lat="44.80300235084414" lon="9.671120735375535"><ele>500.5</ele><time>2026-05-04T13:41:34.968Z</time></trkpt><trkpt lat="44.803023619428316" lon="9.67100593836248"><ele>501.66666666666663</ele><time>2026-05-04T13:41:36.968Z</time></trkpt><trkpt lat="44.80311927183013" lon="9.670944610945314"><ele>502.8333333333333</ele><time>2026-05-04T13:41:38.968Z</time></trkpt><trkpt lat="44.80318080541622" lon="9.670924830337029"><ele>504.0</ele><time>2026-05-04T13:41:39.968Z</time></trkpt><trkpt lat="44.8032425676719" lon="9.670905270803443"><ele>505.5</ele><time>2026-05-04T13:41:40.968Z</time></trkpt><trkpt lat="44.80331314298599" lon="9.670877301057306"><ele>507.0</ele><time>2026-05-04T13:41:41.968Z</time></trkpt><trkpt lat="44.803389056834085" lon="9.67085737000549"><ele>508.5</ele><time>2026-05-04T13:41:42.968Z</time></trkpt><trkpt lat="44.803476438353826" lon="9.670824948187784"><ele>510.0</ele><time>2026-05-04T13:41:43.968Z</time></trkpt><trkpt lat="44.80355656090653" lon="9.670788845060425"><ele>511.5</ele><time>2026-05-04T13:41:44.968Z</time></trkpt><trkpt lat="44.80363771374951" lon="9.670751220435585"><ele>513.0</ele><time>2026-05-04T13:41:45.968Z</time></trkpt><trkpt lat="44.80372377795216" lon="9.670707528577676"><ele>513.0</ele><time>2026-05-04T13:41:46.968Z</time></trkpt><trkpt lat="44.803809244100904" lon="9.670655366661084"><ele>513.0</ele><time>2026-05-04T13:41:47.968Z</time></trkpt><trkpt lat="44.80388924636629" lon="9.67059366876799"><ele>513.0</ele><time>2026-05-04T13:41:48.968Z</time></trkpt><trkpt lat="44.803950101779485" lon="9.670539966595642"><ele>513.0</ele><time>2026-05-04T13:41:49.968Z</time></trkpt><trkpt lat="44.80401040967409" lon="9.670487392191983"><ele>513.0</ele><time>2026-05-04T13:41:50.968Z</time></trkpt><trkpt lat="44.80406506836907" lon="9.670426810550703"><ele>513.0</ele><time>2026-05-04T13:41:51.968Z</time></trkpt><trkpt lat="44.80416138875963" lon="9.670351805719147"><ele>513.0</ele><time>2026-05-04T13:41:53.968Z</time></trkpt><trkpt lat="44.80421238090268" lon="9.670295443185847"><ele>513.0</ele><time>2026-05-04T13:41:54.968Z</time></trkpt><trkpt lat="44.80426378865243" lon="9.670208705832668"><ele>513.0</ele><time>2026-05-04T13:41:55.968Z</time></trkpt><trkpt lat="44.804299016067596" lon="9.67011559750108"><ele>513.0</ele><time>2026-05-04T13:41:56.968Z</time></trkpt><trkpt lat="44.80432817045247" lon="9.670017847882976"><ele>513.0</ele><time>2026-05-04T13:41:57.968Z</time></trkpt><trkpt lat="44.80433375674072" lon="9.669897024514384"><ele>513.0</ele><time>2026-05-04T13:41:58.968Z</time></trkpt><trkpt lat="44.80434391734563" lon="9.66977435388621"><ele>515.1666666666666</ele><time>2026-05-04T13:41:59.968Z</time></trkpt><trkpt lat="44.804376431888365" lon="9.669659296994714"><ele>517.3333333333334</ele><time>2026-05-04T13:42:00.969Z</time></trkpt><trkpt lat="44.804392585534714" lon="9.669562109457257"><ele>519.5</ele><time>2026-05-04T13:42:01.969Z</time></trkpt><trkpt lat="44.80441780842111" lon="9.669453619236002"><ele>521.6666666666667</ele><time>2026-05-04T13:42:02.968Z</time></trkpt><trkpt lat="44.80444262041363" lon="9.669348617506843"><ele>523.8333333333334</ele><time>2026-05-04T13:42:03.968Z</time></trkpt><trkpt lat="44.80446580744839" lon="9.669237949988085"><ele>526.0</ele><time>2026-05-04T13:42:04.968Z</time></trkpt><trkpt lat="44.80449600568053" lon="9.669122502570106"><ele>529.1666666666667</ele><time>2026-05-04T13:42:05.969Z</time></trkpt><trkpt lat="44.804524113943714" lon="9.669025323598838"><ele>532.3333333333334</ele><time>2026-05-04T13:42:06.969Z</time></trkpt><trkpt lat="44.80455652695415" lon="9.668932865111808"><ele>535.5</ele><time>2026-05-04T13:42:07.969Z</time></trkpt><trkpt lat="44.804592502718215" lon="9.668837622002707"><ele>538.6666666666666</ele><time>2026-05-04T13:42:08.968Z</time></trkpt><trkpt lat="44.80461531159886" lon="9.668745210532975"><ele>541.8333333333333</ele><time>2026-05-04T13:42:09.968Z</time></trkpt><trkpt lat="44.80469344687522" lon="9.668628505212224"><ele>545.0</ele><time>2026-05-04T13:42:11.968Z</time></trkpt><trkpt lat="44.80480637263804" lon="9.66856882048311"><ele>546.8571428571429</ele><time>2026-05-04T13:42:13.968Z</time></trkpt><trkpt lat="44.804882048371674" lon="9.668557804542735"><ele>548.7142857142858</ele><time>2026-05-04T13:42:14.968Z</time></trkpt><trkpt lat="44.80495489655545" lon="9.668550314382882"><ele>550.5714285714286</ele><time>2026-05-04T13:42:15.968Z</time></trkpt><trkpt lat="44.805025884702665" lon="9.668549430611414"><ele>552.4285714285714</ele><time>2026-05-04T13:42:16.968Z</time></trkpt><trkpt lat="44.8050997889062" lon="9.668582409036565"><ele>554.2857142857142</ele><time>2026-05-04T13:42:17.968Z</time></trkpt><trkpt lat="44.80517123069018" lon="9.66861823000822"><ele>556.1428571428571</ele><time>2026-05-04T13:42:18.968Z</time></trkpt><trkpt lat="44.80523869348368" lon="9.668667393308557"><ele>558.0</ele><time>2026-05-04T13:42:19.968Z</time></trkpt><trkpt lat="44.80531411783445" lon="9.66872443155458"><ele>559.6666666666666</ele><time>2026-05-04T13:42:20.968Z</time></trkpt><trkpt lat="44.80538847576097" lon="9.668780063552617"><ele>561.3333333333334</ele><time>2026-05-04T13:42:21.968Z</time></trkpt><trkpt lat="44.80545693696288" lon="9.668810511696654"><ele>563.0</ele><time>2026-05-04T13:42:22.968Z</time></trkpt><trkpt lat="44.805523562180596" lon="9.668840791905756"><ele>564.6666666666667</ele><time>2026-05-04T13:42:23.968Z</time></trkpt><trkpt lat="44.80562442825182" lon="9.668952198006407"><ele>566.3333333333334</ele><time>2026-05-04T13:42:25.968Z</time></trkpt><trkpt lat="44.805668570112644" lon="9.669051362307243"><ele>568.0</ele><time>2026-05-04T13:42:26.968Z</time></trkpt><trkpt lat="44.805699639727614" lon="9.669138412538995"><ele>568.0</ele><time>2026-05-04T13:42:27.968Z</time></trkpt><trkpt lat="44.80572670401657" lon="9.669235496093792"><ele>568.0</ele><time>2026-05-04T13:42:28.968Z</time></trkpt><trkpt lat="44.805776168888976" lon="9.669313012300874"><ele>568.0</ele><time>2026-05-04T13:42:29.968Z</time></trkpt><trkpt lat="44.80587867502725" lon="9.66941896325051"><ele>568.0</ele><time>2026-05-04T13:42:31.968Z</time></trkpt><trkpt lat="44.805933712019815" lon="9.669488437465862"><ele>568.0</ele><time>2026-05-04T13:42:32.968Z</time></trkpt><trkpt lat="44.80599555883425" lon="9.669549261879292"><ele>568.0</ele><time>2026-05-04T13:42:33.968Z</time></trkpt><trkpt lat="44.806102727114784" lon="9.6696552363423"><ele>566.8</ele><time>2026-05-04T13:42:35.968Z</time></trkpt><trkpt lat="44.806212287509574" lon="9.669674411930396"><ele>565.5999999999999</ele><time>2026-05-04T13:42:37.968Z</time></trkpt><trkpt lat="44.80626819656853" lon="9.66962842703074"><ele>564.4000000000001</ele><time>2026-05-04T13:42:38.968Z</time></trkpt><trkpt lat="44.80637576312425" lon="9.669504306224997"><ele>563.2</ele><time>2026-05-04T13:42:40.968Z</time></trkpt><trkpt lat="44.80643194705475" lon="9.669463921395026"><ele>562.0</ele><time>2026-05-04T13:42:41.968Z</time></trkpt><trkpt lat="44.806561803450435" lon="9.66945068861438"><ele>562.0</ele><time>2026-05-04T13:42:43.968Z</time></trkpt><trkpt lat="44.80664578845228" lon="9.669453277257098"><ele>562.0</ele><time>2026-05-04T13:42:45.968Z</time></trkpt><trkpt lat="44.80668613749607" lon="9.66936385769335"><ele>562.0</ele><time>2026-05-04T13:42:47.968Z</time></trkpt><trkpt lat="44.806672416201316" lon="9.669255021938337"><ele>562.0</ele><time>2026-05-04T13:42:49.968Z</time></trkpt><trkpt lat="44.80661953983632" lon="9.669165334721878"><ele>562.0</ele><time>2026-05-04T13:42:51.968Z</time></trkpt><trkpt lat="44.8065628051463" lon="9.669054352164126"><ele>562.0</ele><time>2026-05-04T13:42:53.968Z</time></trkpt><trkpt lat="44.80650377086992" lon="9.668975218614422"><ele>565.1666666666667</ele><time>2026-05-04T13:42:55.968Z</time></trkpt><trkpt lat="44.806382985728796" lon="9.66896740901954"><ele>568.3333333333334</ele><time>2026-05-04T13:42:57.968Z</time></trkpt><trkpt lat="44.80630358562865" lon="9.668960634789341"><ele>571.5</ele><time>2026-05-04T13:42:58.968Z</time></trkpt><trkpt lat="44.80621909702487" lon="9.668894966445336"><ele>574.6666666666666</ele><time>2026-05-04T13:43:00.968Z</time></trkpt><trkpt lat="44.80619939110742" lon="9.668804762407934"><ele>577.8333333333333</ele><time>2026-05-04T13:43:01.968Z</time></trkpt><trkpt lat="44.8061881336818" lon="9.668712263268631"><ele>581.0</ele><time>2026-05-04T13:43:02.968Z</time></trkpt><trkpt lat="44.80617845252717" lon="9.668611682467528"><ele>584.0</ele><time>2026-05-04T13:43:03.968Z</time></trkpt><trkpt lat="44.806160190990184" lon="9.668519324140506"><ele>587.0</ele><time>2026-05-04T13:43:04.968Z</time></trkpt><trkpt lat="44.806130417929104" lon="9.66839417530113"><ele>590.0</ele><time>2026-05-04T13:43:06.968Z</time></trkpt><trkpt lat="44.80622414971771" lon="9.668340858873682"><ele>593.0</ele><time>2026-05-04T13:43:09.968Z</time></trkpt><trkpt lat="44.80628795254567" lon="9.668352238065216"><ele>596.0</ele><time>2026-05-04T13:43:10.968Z</time></trkpt><trkpt lat="44.80637341220123" lon="9.668386213011583"><ele>599.0</ele><time>2026-05-04T13:43:12.968Z</time></trkpt><trkpt lat="44.80647944965993" lon="9.668419301602832"><ele>599.0</ele><time>2026-05-04T13:43:14.968Z</time></trkpt><trkpt lat="44.80658128902332" lon="9.668308324123918"><ele>599.0</ele><time>2026-05-04T13:43:16.967Z</time></trkpt><trkpt lat="44.806574052023365" lon="9.668140573978569"><ele>599.0</ele><time>2026-05-04T13:43:18.967Z</time></trkpt><trkpt lat="44.806509534320256" lon="9.667989862575874"><ele>599.0</ele><time>2026-05-04T13:43:20.967Z</time></trkpt><trkpt lat="44.80646187192798" lon="9.667905924109466"><ele>599.0</ele><time>2026-05-04T13:43:21.967Z</time></trkpt><trkpt lat="44.80643508223198" lon="9.667815338453801"><ele>600.5714285714286</ele><time>2026-05-04T13:43:22.967Z</time></trkpt><trkpt lat="44.8064182792216" lon="9.6677153547517"><ele>602.1428571428571</ele><time>2026-05-04T13:43:23.967Z</time></trkpt><trkpt lat="44.80640994066865" lon="9.667615984342135"><ele>603.7142857142858</ele><time>2026-05-04T13:43:24.967Z</time></trkpt><trkpt lat="44.80640392788152" lon="9.667523614352639"><ele>605.2857142857142</ele><time>2026-05-04T13:43:25.967Z</time></trkpt><trkpt lat="44.80640242409157" lon="9.667416663933567"><ele>606.8571428571428</ele><time>2026-05-04T13:43:26.967Z</time></trkpt><trkpt lat="44.80639851804823" lon="9.667322924183654"><ele>608.4285714285714</ele><time>2026-05-04T13:43:27.967Z</time></trkpt><trkpt lat="44.80639599624628" lon="9.667204735605772"><ele>610.0</ele><time>2026-05-04T13:43:28.967Z</time></trkpt><trkpt lat="44.806393364541414" lon="9.66710236832608"><ele>610.0</ele><time>2026-05-04T13:43:29.967Z</time></trkpt><trkpt lat="44.806384491535795" lon="9.666984800598533"><ele>610.0</ele><time>2026-05-04T13:43:30.967Z</time></trkpt><trkpt lat="44.806378024433585" lon="9.66686063275278"><ele>610.0</ele><time>2026-05-04T13:43:31.967Z</time></trkpt><trkpt lat="44.80637591445147" lon="9.666738003165454"><ele>610.0</ele><time>2026-05-04T13:43:32.967Z</time></trkpt><trkpt lat="44.806372627516886" lon="9.666609107894171"><ele>610.0</ele><time>2026-05-04T13:43:33.967Z</time></trkpt><trkpt lat="44.80636047894267" lon="9.666483467465953"><ele>610.0</ele><time>2026-05-04T13:43:34.967Z</time></trkpt><trkpt lat="44.806322385300646" lon="9.666328500352526"><ele>609.8333333333334</ele><time>2026-05-04T13:43:36.967Z</time></trkpt><trkpt lat="44.806279095341004" lon="9.666215095531893"><ele>609.6666666666667</ele><time>2026-05-04T13:43:37.967Z</time></trkpt><trkpt lat="44.806226258230694" lon="9.666100514550228"><ele>609.5</ele><time>2026-05-04T13:43:38.967Z</time></trkpt><trkpt lat="44.80616426812689" lon="9.665995286519113"><ele>609.3333333333334</ele><time>2026-05-04T13:43:39.967Z</time></trkpt><trkpt lat="44.80611587268331" lon="9.665900562529023"><ele>609.1666666666666</ele><time>2026-05-04T13:43:40.967Z</time></trkpt><trkpt lat="44.80609249041216" lon="9.665799623380439"><ele>609.0</ele><time>2026-05-04T13:43:41.967Z</time></trkpt><trkpt lat="44.806075627990815" lon="9.665682649441925"><ele>610.6</ele><time>2026-05-04T13:43:42.967Z</time></trkpt><trkpt lat="44.80603760441313" lon="9.665568921296169"><ele>612.2</ele><time>2026-05-04T13:43:43.967Z</time></trkpt><trkpt lat="44.80598342576526" lon="9.665472289036506"><ele>613.8000000000001</ele><time>2026-05-04T13:43:44.967Z</time></trkpt><trkpt lat="44.80592795438703" lon="9.66541480459358"><ele>615.4</ele><time>2026-05-04T13:43:45.967Z</time></trkpt><trkpt lat="44.80584382467857" lon="9.665329227427986"><ele>617.0</ele><time>2026-05-04T13:43:47.967Z</time></trkpt><trkpt lat="44.80581727494155" lon="9.66517214882954"><ele>617.6666666666666</ele><time>2026-05-04T13:43:49.967Z</time></trkpt><trkpt lat="44.805794244242506" lon="9.665082951174915"><ele>618.3333333333333</ele><time>2026-05-04T13:43:50.967Z</time></trkpt><trkpt lat="44.80576366378159" lon="9.664988973337117"><ele>619.0</ele><time>2026-05-04T13:43:51.967Z</time></trkpt><trkpt lat="44.80572868034088" lon="9.66489511465526"><ele>619.6666666666666</ele><time>2026-05-04T13:43:52.967Z</time></trkpt><trkpt lat="44.805674390604544" lon="9.66482155906374"><ele>620.3333333333334</ele><time>2026-05-04T13:43:53.967Z</time></trkpt><trkpt lat="44.80562284964717" lon="9.664740119417042"><ele>621.0</ele><time>2026-05-04T13:43:54.967Z</time></trkpt><trkpt lat="44.805568951481135" lon="9.664654933414646"><ele>621.0</ele><time>2026-05-04T13:43:55.967Z</time></trkpt><trkpt lat="44.80554941635998" lon="9.66447875813903"><ele>621.0</ele><time>2026-05-04T13:43:57.967Z</time></trkpt><trkpt lat="44.805558915349955" lon="9.664378638358308"><ele>621.0</ele><time>2026-05-04T13:43:58.967Z</time></trkpt><trkpt lat="44.80556735220977" lon="9.66424994096057"><ele>621.0</ele><time>2026-05-04T13:43:59.967Z</time></trkpt><trkpt lat="44.80555782301324" lon="9.664109817840139"><ele>621.0</ele><time>2026-05-04T13:44:00.967Z</time></trkpt><trkpt lat="44.80556210298184" lon="9.663975366205069"><ele>621.6666666666666</ele><time>2026-05-04T13:44:01.967Z</time></trkpt><trkpt lat="44.805574081233246" lon="9.663844127784362"><ele>622.3333333333334</ele><time>2026-05-04T13:44:02.968Z</time></trkpt><trkpt lat="44.80559546262945" lon="9.663719266289116"><ele>623.0</ele><time>2026-05-04T13:44:03.968Z</time></trkpt><trkpt lat="44.80559606468974" lon="9.663627919506734"><ele>623.6666666666667</ele><time>2026-05-04T13:44:04.968Z</time></trkpt><trkpt lat="44.805577941106336" lon="9.663542777507534"><ele>624.3333333333334</ele><time>2026-05-04T13:44:05.968Z</time></trkpt><trkpt lat="44.80556064675201" lon="9.663441830130626"><ele>625.0</ele><time>2026-05-04T13:44:06.968Z</time></trkpt><trkpt lat="44.805527234350635" lon="9.663333965608595"><ele>627.5</ele><time>2026-05-04T13:44:07.968Z</time></trkpt><trkpt lat="44.805483703908926" lon="9.663242862226536"><ele>630.0</ele><time>2026-05-04T13:44:08.968Z</time></trkpt><trkpt lat="44.805439450823" lon="9.663164980584517"><ele>632.5</ele><time>2026-05-04T13:44:09.968Z</time></trkpt><trkpt lat="44.80537158223605" lon="9.663105769927558"><ele>635.0</ele><time>2026-05-04T13:44:10.968Z</time></trkpt><trkpt lat="44.80529336322602" lon="9.663065485281917"><ele>637.5</ele><time>2026-05-04T13:44:11.968Z</time></trkpt><trkpt lat="44.80521138899018" lon="9.663000050554192"><ele>640.0</ele><time>2026-05-04T13:44:12.968Z</time></trkpt><trkpt lat="44.80515821410702" lon="9.662937681042656"><ele>640.2</ele><time>2026-05-04T13:44:13.968Z</time></trkpt><trkpt lat="44.80511924176873" lon="9.662838997433038"><ele>640.4</ele><time>2026-05-04T13:44:14.968Z</time></trkpt><trkpt lat="44.80507727054179" lon="9.662723455884308"><ele>640.5999999999999</ele><time>2026-05-04T13:44:15.968Z</time></trkpt><trkpt lat="44.80502202035928" lon="9.662606347804031"><ele>640.8</ele><time>2026-05-04T13:44:16.968Z</time></trkpt><trkpt lat="44.804961620359094" lon="9.662490781378931"><ele>641.0</ele><time>2026-05-04T13:44:17.968Z</time></trkpt><trkpt lat="44.80490420150348" lon="9.662380725887427"><ele>643.1666666666666</ele><time>2026-05-04T13:44:18.968Z</time></trkpt><trkpt lat="44.804867756458265" lon="9.66224903688624"><ele>645.3333333333333</ele><time>2026-05-04T13:44:19.968Z</time></trkpt><trkpt lat="44.80485368119125" lon="9.662120325146347"><ele>647.5</ele><time>2026-05-04T13:44:20.968Z</time></trkpt><trkpt lat="44.80485645263915" lon="9.662025960269567"><ele>649.6666666666666</ele><time>2026-05-04T13:44:21.968Z</time></trkpt><trkpt lat="44.8048605884905" lon="9.66193070945599"><ele>651.8333333333334</ele><time>2026-05-04T13:44:22.968Z</time></trkpt><trkpt lat="44.80484481404814" lon="9.661820102408258"><ele>654.0</ele><time>2026-05-04T13:44:23.968Z</time></trkpt><trkpt lat="44.8048039585707" lon="9.66171795564164"><ele>655.6</ele><time>2026-05-04T13:44:24.968Z</time></trkpt><trkpt lat="44.804771127878475" lon="9.661609207773044"><ele>657.2</ele><time>2026-05-04T13:44:25.968Z</time></trkpt><trkpt lat="44.804779403914544" lon="9.661413595715198"><ele>658.8000000000001</ele><time>2026-05-04T13:44:27.968Z</time></trkpt><trkpt lat="44.8048094872738" lon="9.661298914888365"><ele>660.4000000000001</ele><time>2026-05-04T13:44:28.968Z</time></trkpt><trkpt lat="44.80484745020347" lon="9.66119116988706"><ele>662.0</ele><time>2026-05-04T13:44:29.968Z</time></trkpt><trkpt lat="44.80487056770813" lon="9.661081202165594"><ele>662.0</ele><time>2026-05-04T13:44:30.968Z</time></trkpt><trkpt lat="44.80487643711338" lon="9.66095092808872"><ele>662.0</ele><time>2026-05-04T13:44:31.968Z</time></trkpt><trkpt lat="44.804859609895914" lon="9.660839236389485"><ele>662.0</ele><time>2026-05-04T13:44:32.968Z</time></trkpt><trkpt lat="44.804823660983146" lon="9.66074937376504"><ele>662.0</ele><time>2026-05-04T13:44:33.968Z</time></trkpt><trkpt lat="44.804774743560465" lon="9.66066937161443"><ele>662.0</ele><time>2026-05-04T13:44:34.968Z</time></trkpt><trkpt lat="44.80472533785791" lon="9.660607350163204"><ele>662.0</ele><time>2026-05-04T13:44:35.967Z</time></trkpt><trkpt lat="44.804671314383214" lon="9.66056122301969"><ele>662.0</ele><time>2026-05-04T13:44:36.967Z</time></trkpt><trkpt lat="44.80460689380786" lon="9.6605289173887"><ele>662.0</ele><time>2026-05-04T13:44:37.967Z</time></trkpt><trkpt lat="44.804519854601416" lon="9.66051277308987"><ele>662.0</ele><time>2026-05-04T13:44:38.967Z</time></trkpt><trkpt lat="44.8044413921344" lon="9.66049001654774"><ele>662.0</ele><time>2026-05-04T13:44:39.967Z</time></trkpt><trkpt lat="44.80437533639113" lon="9.660463322757021"><ele>662.0</ele><time>2026-05-04T13:44:40.967Z</time></trkpt><trkpt lat="44.804306229935364" lon="9.660424490856881"><ele>662.0</ele><time>2026-05-04T13:44:41.967Z</time></trkpt><trkpt lat="44.804199733801205" lon="9.660319055694146"><ele>664.4000000000001</ele><time>2026-05-04T13:44:43.967Z</time></trkpt><trkpt lat="44.80409411483436" lon="9.660204871990969"><ele>666.8000000000001</ele><time>2026-05-04T13:44:45.967Z</time></trkpt><trkpt lat="44.80404582449049" lon="9.660121432299137"><ele>669.2</ele><time>2026-05-04T13:44:46.967Z</time></trkpt><trkpt lat="44.80400861246809" lon="9.660022749515857"><ele>671.6</ele><time>2026-05-04T13:44:47.967Z</time></trkpt><trkpt lat="44.80397078611735" lon="9.65991279839351"><ele>674.0</ele><time>2026-05-04T13:44:48.967Z</time></trkpt><trkpt lat="44.80392668979951" lon="9.659806493048015"><ele>674.0</ele><time>2026-05-04T13:44:49.967Z</time></trkpt><trkpt lat="44.803875963811024" lon="9.659706219702802"><ele>674.0</ele><time>2026-05-04T13:44:50.967Z</time></trkpt><trkpt lat="44.8038240290353" lon="9.659590918850572"><ele>674.0</ele><time>2026-05-04T13:44:51.967Z</time></trkpt><trkpt lat="44.803788073404355" lon="9.659481306952532"><ele>674.0</ele><time>2026-05-04T13:44:52.967Z</time></trkpt><trkpt lat="44.8037636816954" lon="9.659382224859"><ele>674.0</ele><time>2026-05-04T13:44:53.967Z</time></trkpt><trkpt lat="44.80373795989069" lon="9.659260438526328"><ele>674.0</ele><time>2026-05-04T13:44:54.967Z</time></trkpt><trkpt lat="44.80372595097885" lon="9.659143688194723"><ele>673.8000000000001</ele><time>2026-05-04T13:44:55.967Z</time></trkpt><trkpt lat="44.803721787301576" lon="9.659028674230907"><ele>673.6</ele><time>2026-05-04T13:44:56.967Z</time></trkpt><trkpt lat="44.803709530153874" lon="9.65891783779301"><ele>673.4</ele><time>2026-05-04T13:44:57.967Z</time></trkpt><trkpt lat="44.80367614649633" lon="9.658794839898007"><ele>673.2</ele><time>2026-05-04T13:44:58.967Z</time></trkpt><trkpt lat="44.803629941735046" lon="9.6586556982329"><ele>673.0</ele><time>2026-05-04T13:44:59.967Z</time></trkpt><trkpt lat="44.803571155868376" lon="9.658533629789527"><ele>673.0</ele><time>2026-05-04T13:45:00.967Z</time></trkpt><trkpt lat="44.80349948272283" lon="9.6584200928254"><ele>673.0</ele><time>2026-05-04T13:45:01.967Z</time></trkpt><trkpt lat="44.803419789229515" lon="9.658299906365801"><ele>673.0</ele><time>2026-05-04T13:45:02.967Z</time></trkpt><trkpt lat="44.80333288446789" lon="9.65818247127417"><ele>673.0</ele><time>2026-05-04T13:45:03.967Z</time></trkpt><trkpt lat="44.80324931037599" lon="9.65806976447606"><ele>675.0</ele><time>2026-05-04T13:45:04.967Z</time></trkpt><trkpt lat="44.80318449660027" lon="9.65796683483449"><ele>677.0</ele><time>2026-05-04T13:45:05.967Z</time></trkpt><trkpt lat="44.8031437109176" lon="9.657870421477885"><ele>679.0</ele><time>2026-05-04T13:45:06.967Z</time></trkpt><trkpt lat="44.80310372957422" lon="9.65774491155523"><ele>681.0</ele><time>2026-05-04T13:45:07.967Z</time></trkpt><trkpt lat="44.80308653075252" lon="9.657631981270043"><ele>683.0</ele><time>2026-05-04T13:45:08.967Z</time></trkpt><trkpt lat="44.80307328700097" lon="9.65751830766463"><ele>685.0</ele><time>2026-05-04T13:45:09.967Z</time></trkpt><trkpt lat="44.803046366132854" lon="9.657426882252317"><ele>687.4</ele><time>2026-05-04T13:45:10.967Z</time></trkpt><trkpt lat="44.802992427895525" lon="9.6573625022465"><ele>689.8</ele><time>2026-05-04T13:45:11.967Z</time></trkpt><trkpt lat="44.80291424697283" lon="9.65731450721994"><ele>692.2</ele><time>2026-05-04T13:45:12.967Z</time></trkpt><trkpt lat="44.802809666762585" lon="9.657266700136915"><ele>694.6</ele><time>2026-05-04T13:45:13.967Z</time></trkpt><trkpt lat="44.80270503906607" lon="9.657179506176703"><ele>697.0</ele><time>2026-05-04T13:45:14.967Z</time></trkpt><trkpt lat="44.80261840893763" lon="9.657087085153195"><ele>697.0</ele><time>2026-05-04T13:45:15.967Z</time></trkpt><trkpt lat="44.8025537632277" lon="9.657014564184232"><ele>697.0</ele><time>2026-05-04T13:45:16.967Z</time></trkpt><trkpt lat="44.80249405975556" lon="9.656966187060872"><ele>697.0</ele><time>2026-05-04T13:45:17.967Z</time></trkpt><trkpt lat="44.80242035261875" lon="9.656946940082346"><ele>697.0</ele><time>2026-05-04T13:45:18.967Z</time></trkpt><trkpt lat="44.80230737072896" lon="9.656966317041674"><ele>697.0</ele><time>2026-05-04T13:45:19.967Z</time></trkpt><trkpt lat="44.80220579248099" lon="9.656995437004491"><ele>697.0</ele><time>2026-05-04T13:45:20.967Z</time></trkpt><trkpt lat="44.80211635730859" lon="9.656999173979772"><ele>697.0</ele><time>2026-05-04T13:45:21.967Z</time></trkpt><trkpt lat="44.80203073672091" lon="9.656988306297313"><ele>697.0</ele><time>2026-05-04T13:45:22.967Z</time></trkpt><trkpt lat="44.801953003487306" lon="9.65694927412457"><ele>697.0</ele><time>2026-05-04T13:45:23.967Z</time></trkpt><trkpt lat="44.80189001121572" lon="9.656902481094184"><ele>697.0</ele><time>2026-05-04T13:45:24.967Z</time></trkpt><trkpt lat="44.801835395138234" lon="9.656833830757284"><ele>697.0</ele><time>2026-05-04T13:45:25.967Z</time></trkpt><trkpt lat="44.80177356788058" lon="9.656726145548966"><ele>697.0</ele><time>2026-05-04T13:45:26.967Z</time></trkpt><trkpt lat="44.80171111724463" lon="9.656620922874048"><ele>699.8</ele><time>2026-05-04T13:45:27.967Z</time></trkpt><trkpt lat="44.801639561438364" lon="9.65651530669459"><ele>702.6</ele><time>2026-05-04T13:45:28.967Z</time></trkpt><trkpt lat="44.801560967770456" lon="9.656430046453282"><ele>705.4</ele><time>2026-05-04T13:45:29.967Z</time></trkpt><trkpt lat="44.801486490049356" lon="9.656362497369265"><ele>708.1999999999999</ele><time>2026-05-04T13:45:30.967Z</time></trkpt><trkpt lat="44.80140194697712" lon="9.656325228455685"><ele>711.0</ele><time>2026-05-04T13:45:31.967Z</time></trkpt><trkpt lat="44.80129710082613" lon="9.65629284480904"><ele>711.0</ele><time>2026-05-04T13:45:32.967Z</time></trkpt><trkpt lat="44.80118309215845" lon="9.656251930005363"><ele>711.0</ele><time>2026-05-04T13:45:33.967Z</time></trkpt><trkpt lat="44.80108411519012" lon="9.656214099516596"><ele>711.0</ele><time>2026-05-04T13:45:34.967Z</time></trkpt><trkpt lat="44.80099460594139" lon="9.656168834237842"><ele>711.0</ele><time>2026-05-04T13:45:35.967Z</time></trkpt><trkpt lat="44.80091114213028" lon="9.656115938484435"><ele>711.0</ele><time>2026-05-04T13:45:36.967Z</time></trkpt><trkpt lat="44.80083775569337" lon="9.656056782867559"><ele>713.0</ele><time>2026-05-04T13:45:37.967Z</time></trkpt><trkpt lat="44.80076846806816" lon="9.656008544948454"><ele>715.0</ele><time>2026-05-04T13:45:38.967Z</time></trkpt><trkpt lat="44.80068674436844" lon="9.655981504897294"><ele>717.0</ele><time>2026-05-04T13:45:39.967Z</time></trkpt><trkpt lat="44.8005917066823" lon="9.65599132451519"><ele>719.0</ele><time>2026-05-04T13:45:40.967Z</time></trkpt><trkpt lat="44.80048062855523" lon="9.656017245848687"><ele>721.0</ele><time>2026-05-04T13:45:41.967Z</time></trkpt><trkpt lat="44.800383040307025" lon="9.65603984721671"><ele>721.0</ele><time>2026-05-04T13:45:42.967Z</time></trkpt><trkpt lat="44.800297522394864" lon="9.656086027872682"><ele>721.0</ele><time>2026-05-04T13:45:43.967Z</time></trkpt><trkpt lat="44.80021645441644" lon="9.656125561015797"><ele>721.0</ele><time>2026-05-04T13:45:44.967Z</time></trkpt><trkpt lat="44.80014661492364" lon="9.656181242973549"><ele>721.0</ele><time>2026-05-04T13:45:45.967Z</time></trkpt><trkpt lat="44.80009330840116" lon="9.65625379894626"><ele>721.0</ele><time>2026-05-04T13:45:46.967Z</time></trkpt><trkpt lat="44.80007460693759" lon="9.656352266376922"><ele>721.0</ele><time>2026-05-04T13:45:47.967Z</time></trkpt><trkpt lat="44.80006485940158" lon="9.65646718706231"><ele>722.0</ele><time>2026-05-04T13:45:48.967Z</time></trkpt><trkpt lat="44.800087813802314" lon="9.656552768402037"><ele>723.0</ele><time>2026-05-04T13:45:49.967Z</time></trkpt><trkpt lat="44.80006627383082" lon="9.656674835034298"><ele>724.0</ele><time>2026-05-04T13:45:50.967Z</time></trkpt><trkpt lat="44.79998393373787" lon="9.65676942885321"><ele>725.0</ele><time>2026-05-04T13:45:52.967Z</time></trkpt><trkpt lat="44.79986995236082" lon="9.65675350321489"><ele>726.0</ele><time>2026-05-04T13:45:54.967Z</time></trkpt><trkpt lat="44.79981202532297" lon="9.65669709541408"><ele>727.0</ele><time>2026-05-04T13:45:55.967Z</time></trkpt><trkpt lat="44.799722126391174" lon="9.656578451765307"><ele>727.0</ele><time>2026-05-04T13:45:57.967Z</time></trkpt><trkpt lat="44.79966249289715" lon="9.656510806864532"><ele>727.0</ele><time>2026-05-04T13:45:58.967Z</time></trkpt><trkpt lat="44.799600968162835" lon="9.656422220543627"><ele>727.0</ele><time>2026-05-04T13:45:59.967Z</time></trkpt><trkpt lat="44.799537470995205" lon="9.656325210120661"><ele>727.0</ele><time>2026-05-04T13:46:00.967Z</time></trkpt><trkpt lat="44.79945770932266" lon="9.656245334072539"><ele>727.0</ele><time>2026-05-04T13:46:01.967Z</time></trkpt><trkpt lat="44.79939488108666" lon="9.656180274839349"><ele>727.0</ele><time>2026-05-04T13:46:02.967Z</time></trkpt><trkpt lat="44.799330367156216" lon="9.656089352790366"><ele>728.1666666666667</ele><time>2026-05-04T13:46:04.967Z</time></trkpt><trkpt lat="44.799288705924354" lon="9.655991664111275"><ele>729.3333333333334</ele><time>2026-05-04T13:46:08.967Z</time></trkpt><trkpt lat="44.79924424222309" lon="9.6559107318686"><ele>730.5</ele><time>2026-05-04T13:46:12.968Z</time></trkpt><trkpt lat="44.79919625876077" lon="9.655823944169576"><ele>731.6666666666666</ele><time>2026-05-04T13:46:14.968Z</time></trkpt><trkpt lat="44.7991217539296" lon="9.655694101793305"><ele>732.8333333333333</ele><time>2026-05-04T13:46:16.968Z</time></trkpt><trkpt lat="44.799078842411575" lon="9.655624893874919"><ele>734.0</ele><time>2026-05-04T13:46:17.968Z</time></trkpt><trkpt lat="44.79903318344142" lon="9.65555431903417"><ele>734.0</ele><time>2026-05-04T13:46:18.968Z</time></trkpt><trkpt lat="44.79894609719969" lon="9.655446973273243"><ele>734.0</ele><time>2026-05-04T13:46:20.968Z</time></trkpt><trkpt lat="44.79889400056005" lon="9.655333127329078"><ele>734.0</ele><time>2026-05-04T13:46:22.968Z</time></trkpt><trkpt lat="44.79884383979582" lon="9.655250652291537"><ele>734.0</ele><time>2026-05-04T13:46:24.968Z</time></trkpt><trkpt lat="44.798791391829475" lon="9.655148339546193"><ele>734.0</ele><time>2026-05-04T13:46:26.968Z</time></trkpt><trkpt lat="44.79872883606313" lon="9.65504056360492"><ele>733.4000000000001</ele><time>2026-05-04T13:46:28.968Z</time></trkpt><trkpt lat="44.798650453503875" lon="9.654958734887202"><ele>732.8</ele><time>2026-05-04T13:46:30.968Z</time></trkpt><trkpt lat="44.79856153235544" lon="9.654879368066586"><ele>732.2</ele><time>2026-05-04T13:46:32.968Z</time></trkpt><trkpt lat="44.7984901436285" lon="9.654836794446393"><ele>731.5999999999999</ele><time>2026-05-04T13:46:34.968Z</time></trkpt><trkpt lat="44.79838672446507" lon="9.65477714877238"><ele>731.0</ele><time>2026-05-04T13:46:36.968Z</time></trkpt><trkpt lat="44.79829532166899" lon="9.654716939820789"><ele>731.0</ele><time>2026-05-04T13:46:38.968Z</time></trkpt><trkpt lat="44.79820320286439" lon="9.65466155579681"><ele>731.0</ele><time>2026-05-04T13:46:40.968Z</time></trkpt><trkpt lat="44.7981113810006" lon="9.654585115335589"><ele>731.0</ele><time>2026-05-04T13:46:42.968Z</time></trkpt><trkpt lat="44.79801446562284" lon="9.654521110578964"><ele>731.0</ele><time>2026-05-04T13:46:44.968Z</time></trkpt><trkpt lat="44.797922624241785" lon="9.654439068903113"><ele>731.0</ele><time>2026-05-04T13:46:46.968Z</time></trkpt><trkpt lat="44.79785902044631" lon="9.654371990065181"><ele>731.0</ele><time>2026-05-04T13:46:47.968Z</time></trkpt><trkpt lat="44.79778148384504" lon="9.654307626330866"><ele>731.0</ele><time>2026-05-04T13:46:48.968Z</time></trkpt><trkpt lat="44.79771682428394" lon="9.654216489295342"><ele>731.0</ele><time>2026-05-04T13:46:49.968Z</time></trkpt><trkpt lat="44.79765189896142" lon="9.654096917935313"><ele>731.0</ele><time>2026-05-04T13:46:50.968Z</time></trkpt><trkpt lat="44.79759139825916" lon="9.653967806107229"><ele>731.0</ele><time>2026-05-04T13:46:51.968Z</time></trkpt><trkpt lat="44.79752715734226" lon="9.653864942406637"><ele>730.8333333333333</ele><time>2026-05-04T13:46:52.968Z</time></trkpt><trkpt lat="44.79745710066051" lon="9.653787150138372"><ele>730.6666666666666</ele><time>2026-05-04T13:46:53.968Z</time></trkpt><trkpt lat="44.79738940769887" lon="9.653721638780702"><ele>730.5</ele><time>2026-05-04T13:46:54.968Z</time></trkpt><trkpt lat="44.79732005729671" lon="9.65368108671675"><ele>730.3333333333334</ele><time>2026-05-04T13:46:55.968Z</time></trkpt><trkpt lat="44.797238339321225" lon="9.653647210898262"><ele>730.1666666666667</ele><time>2026-05-04T13:46:56.968Z</time></trkpt><trkpt lat="44.79714470251796" lon="9.653626933261718"><ele>730.0</ele><time>2026-05-04T13:46:57.968Z</time></trkpt><trkpt lat="44.79706199380661" lon="9.653608025481047"><ele>730.0</ele><time>2026-05-04T13:46:58.968Z</time></trkpt><trkpt lat="44.796982492648574" lon="9.65357738377319"><ele>730.0</ele><time>2026-05-04T13:46:59.968Z</time></trkpt><trkpt lat="44.79690548895211" lon="9.653529321316062"><ele>730.0</ele><time>2026-05-04T13:47:00.968Z</time></trkpt><trkpt lat="44.796851293333454" lon="9.653457586745267"><ele>730.0</ele><time>2026-05-04T13:47:01.968Z</time></trkpt><trkpt lat="44.79678225701906" lon="9.653353474739454"><ele>730.0</ele><time>2026-05-04T13:47:02.968Z</time></trkpt><trkpt lat="44.79673487261288" lon="9.653252369526113"><ele>730.0</ele><time>2026-05-04T13:47:03.968Z</time></trkpt><trkpt lat="44.796701354199996" lon="9.653165126867293"><ele>730.2</ele><time>2026-05-04T13:47:04.968Z</time></trkpt><trkpt lat="44.796655184084855" lon="9.653039550858013"><ele>730.4</ele><time>2026-05-04T13:47:06.968Z</time></trkpt><trkpt lat="44.79658870740111" lon="9.652962695876294"><ele>730.5999999999999</ele><time>2026-05-04T13:47:08.968Z</time></trkpt><trkpt lat="44.79649887901716" lon="9.6529186116775"><ele>730.8</ele><time>2026-05-04T13:47:10.968Z</time></trkpt><trkpt lat="44.79642308974921" lon="9.652898565426847"><ele>731.0</ele><time>2026-05-04T13:47:11.968Z</time></trkpt><trkpt lat="44.79632565980176" lon="9.652879398232123"><ele>731.0</ele><time>2026-05-04T13:47:12.968Z</time></trkpt><trkpt lat="44.79622188099257" lon="9.652852230003923"><ele>731.0</ele><time>2026-05-04T13:47:13.968Z</time></trkpt><trkpt lat="44.796112956690514" lon="9.652815709541049"><ele>731.0</ele><time>2026-05-04T13:47:14.968Z</time></trkpt><trkpt lat="44.79599406013294" lon="9.652778666566446"><ele>731.0</ele><time>2026-05-04T13:47:15.968Z</time></trkpt><trkpt lat="44.795888351915764" lon="9.652748853039661"><ele>731.0</ele><time>2026-05-04T13:47:16.968Z</time></trkpt><trkpt lat="44.79579007359344" lon="9.652728293758171"><ele>729.0</ele><time>2026-05-04T13:47:17.968Z</time></trkpt><trkpt lat="44.79569973012235" lon="9.652700211244559"><ele>727.0</ele><time>2026-05-04T13:47:18.968Z</time></trkpt><trkpt lat="44.795605499641894" lon="9.652651162045776"><ele>725.0</ele><time>2026-05-04T13:47:19.968Z</time></trkpt><trkpt lat="44.79551202702587" lon="9.652588309350245"><ele>723.0</ele><time>2026-05-04T13:47:20.968Z</time></trkpt><trkpt lat="44.79540837771783" lon="9.65255283316306"><ele>721.0</ele><time>2026-05-04T13:47:21.967Z</time></trkpt><trkpt lat="44.79529468594955" lon="9.652533123729787"><ele>721.0</ele><time>2026-05-04T13:47:22.967Z</time></trkpt><trkpt lat="44.795195308419885" lon="9.652516737988691"><ele>721.0</ele><time>2026-05-04T13:47:23.967Z</time></trkpt><trkpt lat="44.79509400164448" lon="9.652491977613552"><ele>721.0</ele><time>2026-05-04T13:47:24.967Z</time></trkpt><trkpt lat="44.794988870180134" lon="9.652443194314833"><ele>721.0</ele><time>2026-05-04T13:47:25.967Z</time></trkpt><trkpt lat="44.794881212912735" lon="9.652381614024764"><ele>721.0</ele><time>2026-05-04T13:47:26.967Z</time></trkpt><trkpt lat="44.79478435325321" lon="9.652318199570422"><ele>720.0</ele><time>2026-05-04T13:47:27.967Z</time></trkpt><trkpt lat="44.79468981808327" lon="9.652287156137469"><ele>719.0</ele><time>2026-05-04T13:47:28.967Z</time></trkpt><trkpt lat="44.79459478585969" lon="9.652292094140604"><ele>718.0</ele><time>2026-05-04T13:47:29.967Z</time></trkpt><trkpt lat="44.794501522047184" lon="9.652289793319962"><ele>717.0</ele><time>2026-05-04T13:47:30.967Z</time></trkpt><trkpt lat="44.79440414796909" lon="9.652307272748166"><ele>716.0</ele><time>2026-05-04T13:47:31.967Z</time></trkpt><trkpt lat="44.79430612712534" lon="9.652344814991872"><ele>715.8333333333333</ele><time>2026-05-04T13:47:32.967Z</time></trkpt><trkpt lat="44.79420923786512" lon="9.652391402673985"><ele>715.6666666666666</ele><time>2026-05-04T13:47:33.967Z</time></trkpt><trkpt lat="44.794114738906266" lon="9.652406134671738"><ele>715.5</ele><time>2026-05-04T13:47:34.967Z</time></trkpt><trkpt lat="44.79404647826941" lon="9.652412405197838"><ele>715.3333333333334</ele><time>2026-05-04T13:47:35.967Z</time></trkpt><trkpt lat="44.79395484331898" lon="9.652344072178636"><ele>715.1666666666667</ele><time>2026-05-04T13:47:37.967Z</time></trkpt><trkpt lat="44.79389986826088" lon="9.652296532004206"><ele>715.0</ele><time>2026-05-04T13:47:38.967Z</time></trkpt><trkpt lat="44.79384283185695" lon="9.652248428584969"><ele>715.0</ele><time>2026-05-04T13:47:39.967Z</time></trkpt><trkpt lat="44.793771480062425" lon="9.65220884484563"><ele>715.0</ele><time>2026-05-04T13:47:40.967Z</time></trkpt><trkpt lat="44.793717598762285" lon="9.652124013172278"><ele>715.0</ele><time>2026-05-04T13:47:41.967Z</time></trkpt><trkpt lat="44.79364717373079" lon="9.652060559405326"><ele>715.0</ele><time>2026-05-04T13:47:42.967Z</time></trkpt><trkpt lat="44.79356426394468" lon="9.651978328814089"><ele>715.0</ele><time>2026-05-04T13:47:43.967Z</time></trkpt><trkpt lat="44.79348906393472" lon="9.651888446727321"><ele>715.0</ele><time>2026-05-04T13:47:44.967Z</time></trkpt><trkpt lat="44.79341123214977" lon="9.651804781662422"><ele>715.8</ele><time>2026-05-04T13:47:45.967Z</time></trkpt><trkpt lat="44.79333005460536" lon="9.65169397831341"><ele>716.6</ele><time>2026-05-04T13:47:46.967Z</time></trkpt><trkpt lat="44.793238511265216" lon="9.651624896544957"><ele>717.4000000000001</ele><time>2026-05-04T13:47:47.967Z</time></trkpt><trkpt lat="44.79315023851975" lon="9.651579372291813"><ele>718.2</ele><time>2026-05-04T13:47:48.967Z</time></trkpt><trkpt lat="44.79306387718197" lon="9.651534205361616"><ele>719.0</ele><time>2026-05-04T13:47:49.967Z</time></trkpt><trkpt lat="44.792988524844674" lon="9.651485125413487"><ele>719.0</ele><time>2026-05-04T13:47:50.967Z</time></trkpt><trkpt lat="44.792905061855656" lon="9.651422917503956"><ele>719.0</ele><time>2026-05-04T13:47:51.967Z</time></trkpt><trkpt lat="44.79282375052393" lon="9.651323864869937"><ele>719.0</ele><time>2026-05-04T13:47:52.967Z</time></trkpt><trkpt lat="44.79272875144271" lon="9.651224265711146"><ele>719.0</ele><time>2026-05-04T13:47:53.967Z</time></trkpt><trkpt lat="44.79262439013134" lon="9.651113178785808"><ele>720.75</ele><time>2026-05-04T13:47:54.967Z</time></trkpt><trkpt lat="44.79251549177103" lon="9.651016475371373"><ele>722.5</ele><time>2026-05-04T13:47:55.967Z</time></trkpt><trkpt lat="44.79240900626967" lon="9.650928892759184"><ele>724.25</ele><time>2026-05-04T13:47:56.967Z</time></trkpt><trkpt lat="44.79229759898033" lon="9.650852118776053"><ele>726.0</ele><time>2026-05-04T13:47:57.967Z</time></trkpt><trkpt lat="44.79219493410168" lon="9.650771360343573"><ele>726.0</ele><time>2026-05-04T13:47:58.967Z</time></trkpt><trkpt lat="44.792089762641794" lon="9.650720016698108"><ele>726.0</ele><time>2026-05-04T13:47:59.967Z</time></trkpt><trkpt lat="44.792005035844646" lon="9.65066424040918"><ele>726.0</ele><time>2026-05-04T13:48:00.967Z</time></trkpt><trkpt lat="44.791932011367805" lon="9.65061970627216"><ele>726.0</ele><time>2026-05-04T13:48:01.967Z</time></trkpt><trkpt lat="44.79186082096654" lon="9.650565686807589"><ele>726.0</ele><time>2026-05-04T13:48:02.967Z</time></trkpt><trkpt lat="44.791776062678935" lon="9.65049419463237"><ele>724.8</ele><time>2026-05-04T13:48:03.967Z</time></trkpt><trkpt lat="44.791690332710154" lon="9.650411462281284"><ele>723.5999999999999</ele><time>2026-05-04T13:48:04.967Z</time></trkpt><trkpt lat="44.791613375728886" lon="9.650310350663577"><ele>722.4</ele><time>2026-05-04T13:48:05.967Z</time></trkpt><trkpt lat="44.791542966013374" lon="9.650222007719314"><ele>721.2</ele><time>2026-05-04T13:48:06.967Z</time></trkpt><trkpt lat="44.791475466768595" lon="9.650143701814734"><ele>720.0</ele><time>2026-05-04T13:48:07.967Z</time></trkpt><trkpt lat="44.791414132118206" lon="9.650069000157906"><ele>722.1666666666666</ele><time>2026-05-04T13:48:08.967Z</time></trkpt><trkpt lat="44.79136267232641" lon="9.649978317055375"><ele>724.3333333333334</ele><time>2026-05-04T13:48:09.967Z</time></trkpt><trkpt lat="44.79131409620903" lon="9.649872182445188"><ele>726.5</ele><time>2026-05-04T13:48:10.967Z</time></trkpt><trkpt lat="44.79127849876947" lon="9.649756041555975"><ele>728.6666666666667</ele><time>2026-05-04T13:48:11.967Z</time></trkpt><trkpt lat="44.791236883438515" lon="9.649636414951608"><ele>730.8333333333334</ele><time>2026-05-04T13:48:12.967Z</time></trkpt><trkpt lat="44.79117816492716" lon="9.649535561464909"><ele>733.0</ele><time>2026-05-04T13:48:13.967Z</time></trkpt><trkpt lat="44.79110125767777" lon="9.649467916751426"><ele>734.0</ele><time>2026-05-04T13:48:14.968Z</time></trkpt><trkpt lat="44.79102553033058" lon="9.64943252887823"><ele>735.0</ele><time>2026-05-04T13:48:15.967Z</time></trkpt><trkpt lat="44.79095637691624" lon="9.649406224052154"><ele>736.0</ele><time>2026-05-04T13:48:16.967Z</time></trkpt><trkpt lat="44.79088392448785" lon="9.649421525534875"><ele>737.0</ele><time>2026-05-04T13:48:17.968Z</time></trkpt><trkpt lat="44.79079935190279" lon="9.649410422578361"><ele>738.0</ele><time>2026-05-04T13:48:18.967Z</time></trkpt><trkpt lat="44.79072102907992" lon="9.649428946409694"><ele>739.0</ele><time>2026-05-04T13:48:19.967Z</time></trkpt><trkpt lat="44.79063659391003" lon="9.649451147560095"><ele>735.5</ele><time>2026-05-04T13:48:20.967Z</time></trkpt><trkpt lat="44.790562613195796" lon="9.649489605454688"><ele>732.0</ele><time>2026-05-04T13:48:21.967Z</time></trkpt><trkpt lat="44.790487381917295" lon="9.649470828944887"><ele>728.5</ele><time>2026-05-04T13:48:22.967Z</time></trkpt><trkpt lat="44.790412249236724" lon="9.649487186376946"><ele>725.0</ele><time>2026-05-04T13:48:23.967Z</time></trkpt><trkpt lat="44.79034179357292" lon="9.649502931926609"><ele>721.5</ele><time>2026-05-04T13:48:24.967Z</time></trkpt><trkpt lat="44.790269634658564" lon="9.649524703846533"><ele>718.0</ele><time>2026-05-04T13:48:25.967Z</time></trkpt><trkpt lat="44.79019571875186" lon="9.649536981457864"><ele>716.8333333333334</ele><time>2026-05-04T13:48:26.967Z</time></trkpt><trkpt lat="44.79013254367652" lon="9.649532969959367"><ele>715.6666666666667</ele><time>2026-05-04T13:48:27.968Z</time></trkpt><trkpt lat="44.79005935747463" lon="9.649521318777737"><ele>714.5</ele><time>2026-05-04T13:48:29.968Z</time></trkpt><trkpt lat="44.789968689575794" lon="9.649497550696461"><ele>713.3333333333334</ele><time>2026-05-04T13:48:31.968Z</time></trkpt><trkpt lat="44.78988679968668" lon="9.649477557809911"><ele>712.1666666666666</ele><time>2026-05-04T13:48:33.968Z</time></trkpt><trkpt lat="44.789802036756946" lon="9.64941715122028"><ele>711.0</ele><time>2026-05-04T13:48:35.968Z</time></trkpt><trkpt lat="44.789714517801926" lon="9.64936381137588"><ele>715.25</ele><time>2026-05-04T13:48:37.968Z</time></trkpt><trkpt lat="44.78961970392597" lon="9.649266697306725"><ele>719.5</ele><time>2026-05-04T13:48:39.968Z</time></trkpt><trkpt lat="44.78952086037097" lon="9.649100673644218"><ele>723.75</ele><time>2026-05-04T13:48:41.968Z</time></trkpt><trkpt lat="44.789465659267044" lon="9.648953259313384"><ele>728.0</ele><time>2026-05-04T13:48:42.968Z</time></trkpt><trkpt lat="44.78940467495815" lon="9.64881186751292"><ele>725.0</ele><time>2026-05-04T13:48:43.968Z</time></trkpt><trkpt lat="44.78931623113431" lon="9.648673514761878"><ele>722.0</ele><time>2026-05-04T13:48:44.968Z</time></trkpt><trkpt lat="44.78923939598781" lon="9.648556067054647"><ele>719.0</ele><time>2026-05-04T13:48:45.968Z</time></trkpt><trkpt lat="44.78916106527594" lon="9.648450892764442"><ele>716.0</ele><time>2026-05-04T13:48:46.968Z</time></trkpt><trkpt lat="44.78907558007562" lon="9.648349548430547"><ele>716.0</ele><time>2026-05-04T13:48:47.968Z</time></trkpt><trkpt lat="44.78899735140129" lon="9.648245821102746"><ele>716.0</ele><time>2026-05-04T13:48:48.968Z</time></trkpt><trkpt lat="44.78891077067431" lon="9.648125152188191"><ele>716.0</ele><time>2026-05-04T13:48:49.968Z</time></trkpt><trkpt lat="44.7888425330495" lon="9.647988241918837"><ele>716.0</ele><time>2026-05-04T13:48:50.968Z</time></trkpt><trkpt lat="44.78875768145949" lon="9.647887226773156"><ele>714.5999999999999</ele><time>2026-05-04T13:48:51.968Z</time></trkpt><trkpt lat="44.788676858656714" lon="9.647788576478886"><ele>713.2</ele><time>2026-05-04T13:48:52.968Z</time></trkpt><trkpt lat="44.78859986521891" lon="9.647721467636112"><ele>711.8</ele><time>2026-05-04T13:48:53.968Z</time></trkpt><trkpt lat="44.78852330562407" lon="9.647657304905621"><ele>710.4000000000001</ele><time>2026-05-04T13:48:54.968Z</time></trkpt><trkpt lat="44.7884244342048" lon="9.647606059436377"><ele>709.0</ele><time>2026-05-04T13:48:55.968Z</time></trkpt><trkpt lat="44.78829952929909" lon="9.647550745892286"><ele>704.3333333333334</ele><time>2026-05-04T13:48:56.967Z</time></trkpt><trkpt lat="44.788155749436505" lon="9.647479901335965"><ele>699.6666666666666</ele><time>2026-05-04T13:48:57.967Z</time></trkpt><trkpt lat="44.78801487153954" lon="9.647395208300301"><ele>695.0</ele><time>2026-05-04T13:48:58.967Z</time></trkpt><trkpt lat="44.78788080576962" lon="9.647297959630928"><ele>695.0</ele><time>2026-05-04T13:48:59.967Z</time></trkpt><trkpt lat="44.78775700591346" lon="9.647212368297284"><ele>695.0</ele><time>2026-05-04T13:49:00.967Z</time></trkpt><trkpt lat="44.787657800057126" lon="9.647124537428942"><ele>695.0</ele><time>2026-05-04T13:49:01.967Z</time></trkpt><trkpt lat="44.78757219872768" lon="9.647073705222367"><ele>695.0</ele><time>2026-05-04T13:49:02.967Z</time></trkpt><trkpt lat="44.787491656124644" lon="9.647001569048067"><ele>695.0</ele><time>2026-05-04T13:49:03.967Z</time></trkpt><trkpt lat="44.78739612834674" lon="9.646952735303772"><ele>693.0</ele><time>2026-05-04T13:49:04.967Z</time></trkpt><trkpt lat="44.78727964443354" lon="9.646913814867766"><ele>691.0</ele><time>2026-05-04T13:49:05.967Z</time></trkpt><trkpt lat="44.78714756102711" lon="9.64688549998874"><ele>689.0</ele><time>2026-05-04T13:49:06.967Z</time></trkpt><trkpt lat="44.78702121966742" lon="9.646896789864664"><ele>687.0</ele><time>2026-05-04T13:49:07.967Z</time></trkpt><trkpt lat="44.78690520458896" lon="9.646908262268056"><ele>686.8333333333334</ele><time>2026-05-04T13:49:08.967Z</time></trkpt><trkpt lat="44.78680309043455" lon="9.646917367086385"><ele>686.6666666666666</ele><time>2026-05-04T13:49:09.967Z</time></trkpt><trkpt lat="44.78672083137167" lon="9.6469118454155"><ele>686.5</ele><time>2026-05-04T13:49:10.967Z</time></trkpt><trkpt lat="44.786649977223625" lon="9.646881110600718"><ele>686.3333333333333</ele><time>2026-05-04T13:49:11.967Z</time></trkpt><trkpt lat="44.786599391393075" lon="9.646821807979494"><ele>686.1666666666666</ele><time>2026-05-04T13:49:12.967Z</time></trkpt><trkpt lat="44.78654108266761" lon="9.646726288185995"><ele>686.0</ele><time>2026-05-04T13:49:14.967Z</time></trkpt><trkpt lat="44.786410122675925" lon="9.64665821502008"><ele>686.0</ele><time>2026-05-04T13:49:17.967Z</time></trkpt><trkpt lat="44.786312478443016" lon="9.646633564624354"><ele>686.0</ele><time>2026-05-04T13:49:18.967Z</time></trkpt><trkpt lat="44.7862133091546" lon="9.646603378502169"><ele>686.0</ele><time>2026-05-04T13:49:19.967Z</time></trkpt><trkpt lat="44.786102326699634" lon="9.646574668206188"><ele>686.0</ele><time>2026-05-04T13:49:20.967Z</time></trkpt><trkpt lat="44.78598281017364" lon="9.646528385727112"><ele>686.0</ele><time>2026-05-04T13:49:21.967Z</time></trkpt><trkpt lat="44.78585794219101" lon="9.646492445121178"><ele>684.75</ele><time>2026-05-04T13:49:22.967Z</time></trkpt><trkpt lat="44.78572491474013" lon="9.64644303041669"><ele>683.5</ele><time>2026-05-04T13:49:23.967Z</time></trkpt><trkpt lat="44.785595819394054" lon="9.64637653073612"><ele>682.25</ele><time>2026-05-04T13:49:24.967Z</time></trkpt><trkpt lat="44.7854801669385" lon="9.64630050506934"><ele>681.0</ele><time>2026-05-04T13:49:25.967Z</time></trkpt><trkpt lat="44.785378585539185" lon="9.646206035009367"><ele>680.75</ele><time>2026-05-04T13:49:26.967Z</time></trkpt><trkpt lat="44.78529261261525" lon="9.646086992899198"><ele>680.5</ele><time>2026-05-04T13:49:27.967Z</time></trkpt><trkpt lat="44.78521996180675" lon="9.64594669606731"><ele>680.25</ele><time>2026-05-04T13:49:28.967Z</time></trkpt><trkpt lat="44.78518431202084" lon="9.645787541628945"><ele>680.0</ele><time>2026-05-04T13:49:29.967Z</time></trkpt><trkpt lat="44.78510415881836" lon="9.645511464616765"><ele>681.1666666666666</ele><time>2026-05-04T13:49:31.967Z</time></trkpt><trkpt lat="44.78507073999138" lon="9.645401171193614"><ele>682.3333333333333</ele><time>2026-05-04T13:49:32.967Z</time></trkpt><trkpt lat="44.78501803076299" lon="9.645312124730204"><ele>683.5</ele><time>2026-05-04T13:49:33.967Z</time></trkpt><trkpt lat="44.78494995143337" lon="9.645242570978441"><ele>684.6666666666666</ele><time>2026-05-04T13:49:34.967Z</time></trkpt><trkpt lat="44.78488006446271" lon="9.64518635871684"><ele>685.8333333333334</ele><time>2026-05-04T13:49:35.967Z</time></trkpt><trkpt lat="44.784822241681745" lon="9.645116510333132"><ele>687.0</ele><time>2026-05-04T13:49:36.967Z</time></trkpt><trkpt lat="44.7847455716891" lon="9.6450714722047"><ele>687.0</ele><time>2026-05-04T13:49:37.967Z</time></trkpt><trkpt lat="44.78465215283499" lon="9.645016457903271"><ele>687.0</ele><time>2026-05-04T13:49:38.967Z</time></trkpt><trkpt lat="44.784532344707976" lon="9.644945902978549"><ele>687.0</ele><time>2026-05-04T13:49:39.967Z</time></trkpt><trkpt lat="44.78442272008547" lon="9.644878651371986"><ele>687.0</ele><time>2026-05-04T13:49:40.967Z</time></trkpt><trkpt lat="44.784315412821144" lon="9.644811940357465"><ele>689.0</ele><time>2026-05-04T13:49:41.967Z</time></trkpt><trkpt lat="44.78421322365607" lon="9.644779051250245"><ele>691.0</ele><time>2026-05-04T13:49:42.967Z</time></trkpt><trkpt lat="44.78411652595528" lon="9.64471998187237"><ele>693.0</ele><time>2026-05-04T13:49:43.967Z</time></trkpt><trkpt lat="44.78401932680348" lon="9.644659827480853"><ele>695.0</ele><time>2026-05-04T13:49:44.967Z</time></trkpt><trkpt lat="44.78391566454515" lon="9.644563475220268"><ele>697.0</ele><time>2026-05-04T13:49:45.967Z</time></trkpt><trkpt lat="44.783833935750565" lon="9.64452133869838"><ele>697.0</ele><time>2026-05-04T13:49:46.967Z</time></trkpt><trkpt lat="44.78376987519471" lon="9.64448730772494"><ele>697.0</ele><time>2026-05-04T13:49:47.967Z</time></trkpt><trkpt lat="44.78369750002399" lon="9.644462016506548"><ele>697.0</ele><time>2026-05-04T13:49:49.967Z</time></trkpt><trkpt lat="44.783629603622074" lon="9.644443467653664"><ele>697.0</ele><time>2026-05-04T13:49:52.967Z</time></trkpt><trkpt lat="44.783562242573936" lon="9.644401956929988"><ele>697.0</ele><time>2026-05-04T13:50:39.967Z</time></trkpt><trkpt lat="44.78350503456295" lon="9.644344786761607"><ele>697.0</ele><time>2026-05-04T13:50:41.967Z</time></trkpt><trkpt lat="44.78348157304826" lon="9.64443357482032"><ele>697.0</ele><time>2026-05-04T13:50:46.966Z</time></trkpt><trkpt lat="44.783553581141426" lon="9.644472570099278"><ele>697.0</ele><time>2026-05-04T13:50:48.966Z</time></trkpt><trkpt lat="44.78362298278045" lon="9.644475093201574"><ele>697.0</ele><time>2026-05-04T13:50:49.966Z</time></trkpt><trkpt lat="44.78377493752653" lon="9.644508886225166"><ele>697.0</ele><time>2026-05-04T13:50:50.966Z</time></trkpt><trkpt lat="44.78389482684844" lon="9.644578618608481"><ele>697.0</ele><time>2026-05-04T13:50:51.966Z</time></trkpt><trkpt lat="44.78401975785305" lon="9.644675456698524"><ele>697.0</ele><time>2026-05-04T13:50:52.966Z</time></trkpt><trkpt lat="44.784150964478094" lon="9.644760257034466"><ele>697.0</ele><time>2026-05-04T13:50:53.966Z</time></trkpt><trkpt lat="44.78426893568002" lon="9.644849197313874"><ele>697.0</ele><time>2026-05-04T13:50:54.966Z</time></trkpt><trkpt lat="44.78437450594705" lon="9.644930551852008"><ele>697.0</ele><time>2026-05-04T13:50:55.966Z</time></trkpt><trkpt lat="44.784483378323706" lon="9.645004191756161"><ele>695.0</ele><time>2026-05-04T13:50:56.966Z</time></trkpt><trkpt lat="44.784597860796985" lon="9.645081708393974"><ele>693.0</ele><time>2026-05-04T13:50:57.966Z</time></trkpt><trkpt lat="44.784699755989884" lon="9.645135847939923"><ele>691.0</ele><time>2026-05-04T13:50:58.966Z</time></trkpt><trkpt lat="44.784777959546794" lon="9.645169329425512"><ele>689.0</ele><time>2026-05-04T13:50:59.966Z</time></trkpt><trkpt lat="44.784853584744354" lon="9.645204333602766"><ele>687.0</ele><time>2026-05-04T13:51:00.966Z</time></trkpt><trkpt lat="44.7849300223269" lon="9.645260720633582"><ele>687.6666666666666</ele><time>2026-05-04T13:51:01.966Z</time></trkpt><trkpt lat="44.78498594262903" lon="9.64534011096965"><ele>688.3333333333334</ele><time>2026-05-04T13:51:02.966Z</time></trkpt><trkpt lat="44.78502720598165" lon="9.64544419140524"><ele>689.0</ele><time>2026-05-04T13:51:03.966Z</time></trkpt><trkpt lat="44.78506397307757" lon="9.645566473383417"><ele>689.6666666666667</ele><time>2026-05-04T13:51:04.966Z</time></trkpt><trkpt lat="44.78509230096096" lon="9.64568525143863"><ele>690.3333333333334</ele><time>2026-05-04T13:51:05.966Z</time></trkpt><trkpt lat="44.78512084479381" lon="9.645810199329015"><ele>691.0</ele><time>2026-05-04T13:51:06.966Z</time></trkpt><trkpt lat="44.78515239956863" lon="9.645917752246245"><ele>689.3333333333334</ele><time>2026-05-04T13:51:07.966Z</time></trkpt><trkpt lat="44.7851902617836" lon="9.646020564493504"><ele>687.6666666666667</ele><time>2026-05-04T13:51:08.966Z</time></trkpt><trkpt lat="44.78523784226855" lon="9.646114588361089"><ele>686.0</ele><time>2026-05-04T13:51:09.966Z</time></trkpt><trkpt lat="44.785300518808256" lon="9.646197428849408"><ele>684.3333333333334</ele><time>2026-05-04T13:51:10.966Z</time></trkpt><trkpt lat="44.78536838084513" lon="9.64624451443434"><ele>682.6666666666666</ele><time>2026-05-04T13:51:11.966Z</time></trkpt><trkpt lat="44.7854310057426" lon="9.64628754808155"><ele>681.0</ele><time>2026-05-04T13:51:12.966Z</time></trkpt><trkpt lat="44.785490137776065" lon="9.646328966191568"><ele>681.0</ele><time>2026-05-04T13:51:13.966Z</time></trkpt><trkpt lat="44.785593709935746" lon="9.646380848763872"><ele>681.0</ele><time>2026-05-04T13:51:15.966Z</time></trkpt><trkpt lat="44.785658202371145" lon="9.646413785624215"><ele>681.0</ele><time>2026-05-04T13:51:17.966Z</time></trkpt><trkpt lat="44.78560059034825" lon="9.646475605151563"><ele>681.0</ele><time>2026-05-04T13:51:22.966Z</time></trkpt><trkpt lat="44.78551081629986" lon="9.64644113451999"><ele>681.0</ele><time>2026-05-04T13:51:24.966Z</time></trkpt><trkpt lat="44.78542491479674" lon="9.646433337832267"><ele>681.0</ele><time>2026-05-04T13:51:25.966Z</time></trkpt><trkpt lat="44.785361431064835" lon="9.646437125247354"><ele>681.0</ele><time>2026-05-04T13:51:26.966Z</time></trkpt><trkpt lat="44.78524638566355" lon="9.646440085198275"><ele>681.0</ele><time>2026-05-04T13:51:28.966Z</time></trkpt><trkpt lat="44.78513686963662" lon="9.64640515677912"><ele>681.0</ele><time>2026-05-04T13:51:30.966Z</time></trkpt><trkpt lat="44.78504959587448" lon="9.646378115908833"><ele>681.0</ele><time>2026-05-04T13:51:32.966Z</time></trkpt><trkpt lat="44.78498945638385" lon="9.646312782119496"><ele>681.0</ele><time>2026-05-04T13:51:34.966Z</time></trkpt><trkpt lat="44.784920841472" lon="9.646257222456738"><ele>682.6666666666666</ele><time>2026-05-04T13:51:36.966Z</time></trkpt><trkpt lat="44.78485840186618" lon="9.646126154716882"><ele>684.3333333333334</ele><time>2026-05-04T13:51:38.966Z</time></trkpt><trkpt lat="44.78481329531164" lon="9.646053258547973"><ele>686.0</ele><time>2026-05-04T13:51:40.966Z</time></trkpt><trkpt lat="44.78476373584318" lon="9.645998101476243"><ele>687.6666666666667</ele><time>2026-05-04T13:51:44.966Z</time></trkpt><trkpt lat="44.78468811307887" lon="9.64593060949064"><ele>689.3333333333334</ele><time>2026-05-04T13:51:47.966Z</time></trkpt><trkpt lat="44.784625292158886" lon="9.645850425354292"><ele>691.0</ele><time>2026-05-04T13:51:49.966Z</time></trkpt><trkpt lat="44.78455756346972" lon="9.645763410939946"><ele>691.0</ele><time>2026-05-04T13:51:51.966Z</time></trkpt><trkpt lat="44.78450369348501" lon="9.645697271661994"><ele>691.0</ele><time>2026-05-04T13:51:53.966Z</time></trkpt><trkpt lat="44.78441747635285" lon="9.645591635079676"><ele>691.0</ele><time>2026-05-04T13:51:56.966Z</time></trkpt><trkpt lat="44.784365405772895" lon="9.64552109692448"><ele>691.0</ele><time>2026-05-04T13:51:58.966Z</time></trkpt><trkpt lat="44.784287492233325" lon="9.645459914907105"><ele>691.0</ele><time>2026-05-04T13:52:00.966Z</time></trkpt><trkpt lat="44.78421676396013" lon="9.645377232341094"><ele>691.0</ele><time>2026-05-04T13:52:02.966Z</time></trkpt><trkpt lat="44.784136247230485" lon="9.645322232918154"><ele>692.0</ele><time>2026-05-04T13:52:04.966Z</time></trkpt><trkpt lat="44.78407317421126" lon="9.645269521554752"><ele>693.0</ele><time>2026-05-04T13:52:06.966Z</time></trkpt><trkpt lat="44.78400273890012" lon="9.645183148637294"><ele>694.0</ele><time>2026-05-04T13:52:08.966Z</time></trkpt><trkpt lat="44.78392301435383" lon="9.645124102152373"><ele>695.0</ele><time>2026-05-04T13:52:10.966Z</time></trkpt><trkpt lat="44.78382314267183" lon="9.645104356909876"><ele>696.0</ele><time>2026-05-04T13:52:12.966Z</time></trkpt><trkpt lat="44.78374451217478" lon="9.64509929607876"><ele>697.0</ele><time>2026-05-04T13:52:14.966Z</time></trkpt><trkpt lat="44.783676004014545" lon="9.645065870263808"><ele>697.0</ele><time>2026-05-04T13:52:16.966Z</time></trkpt><trkpt lat="44.78355061938458" lon="9.645048989734114"><ele>697.0</ele><time>2026-05-04T13:52:18.966Z</time></trkpt><trkpt lat="44.78347803286078" lon="9.645043789716443"><ele>697.0</ele><time>2026-05-04T13:52:19.966Z</time></trkpt><trkpt lat="44.78337978536489" lon="9.64501021948976"><ele>697.0</ele><time>2026-05-04T13:52:21.966Z</time></trkpt><trkpt lat="44.78329036335079" lon="9.645004863383415"><ele>697.0</ele><time>2026-05-04T13:52:23.966Z</time></trkpt><trkpt lat="44.783184213228864" lon="9.645027920476386"><ele>696.8</ele><time>2026-05-04T13:52:25.966Z</time></trkpt><trkpt lat="44.78310003506147" lon="9.645058661085178"><ele>696.6</ele><time>2026-05-04T13:52:27.967Z</time></trkpt><trkpt lat="44.78301784049368" lon="9.645134523917985"><ele>696.4</ele><time>2026-05-04T13:52:29.967Z</time></trkpt><trkpt lat="44.782943467492316" lon="9.645226316763111"><ele>696.1999999999999</ele><time>2026-05-04T13:52:31.967Z</time></trkpt><trkpt lat="44.782850005179576" lon="9.645281176481923"><ele>696.0</ele><time>2026-05-04T13:52:33.967Z</time></trkpt><trkpt lat="44.782771974571126" lon="9.645334661825784"><ele>696.0</ele><time>2026-05-04T13:52:35.967Z</time></trkpt><trkpt lat="44.78270257560298" lon="9.645414912632942"><ele>696.0</ele><time>2026-05-04T13:52:37.967Z</time></trkpt><trkpt lat="44.782639274765295" lon="9.64550300027534"><ele>696.0</ele><time>2026-05-04T13:52:39.967Z</time></trkpt><trkpt lat="44.782554112934996" lon="9.6455656082236"><ele>696.0</ele><time>2026-05-04T13:52:41.967Z</time></trkpt><trkpt lat="44.782476529169585" lon="9.64563372797425"><ele>696.0</ele><time>2026-05-04T13:52:43.967Z</time></trkpt><trkpt lat="44.78238807358494" lon="9.6456455007806"><ele>698.4</ele><time>2026-05-04T13:52:45.967Z</time></trkpt><trkpt lat="44.782315484043785" lon="9.645676050884889"><ele>700.8</ele><time>2026-05-04T13:52:47.967Z</time></trkpt><trkpt lat="44.782229065049044" lon="9.645711239203763"><ele>703.1999999999999</ele><time>2026-05-04T13:52:49.967Z</time></trkpt><trkpt lat="44.782155586927445" lon="9.645801401419229"><ele>705.5999999999999</ele><time>2026-05-04T13:52:51.967Z</time></trkpt><trkpt lat="44.782066581771666" lon="9.645884474931965"><ele>708.0</ele><time>2026-05-04T13:52:53.967Z</time></trkpt><trkpt lat="44.78199278552559" lon="9.645955334095266"><ele>708.0</ele><time>2026-05-04T13:52:55.967Z</time></trkpt><trkpt lat="44.78192736697647" lon="9.645998693738171"><ele>708.0</ele><time>2026-05-04T13:52:57.967Z</time></trkpt><trkpt lat="44.781840623057" lon="9.646022833213788"><ele>708.0</ele><time>2026-05-04T13:52:59.967Z</time></trkpt><trkpt lat="44.78174448976199" lon="9.64605527454162"><ele>708.0</ele><time>2026-05-04T13:53:01.967Z</time></trkpt><trkpt lat="44.78165994994685" lon="9.646096591614976"><ele>708.0</ele><time>2026-05-04T13:53:03.967Z</time></trkpt><trkpt lat="44.78156237266775" lon="9.64614507520116"><ele>709.4</ele><time>2026-05-04T13:53:05.967Z</time></trkpt><trkpt lat="44.78150841711981" lon="9.64620663316692"><ele>710.8</ele><time>2026-05-04T13:53:07.967Z</time></trkpt><trkpt lat="44.78145229951988" lon="9.646303562340133"><ele>712.2</ele><time>2026-05-04T13:53:09.967Z</time></trkpt><trkpt lat="44.78139102586299" lon="9.646416857333532"><ele>713.6</ele><time>2026-05-04T13:53:11.967Z</time></trkpt><trkpt lat="44.78133463027489" lon="9.646532388135904"><ele>715.0</ele><time>2026-05-04T13:53:13.967Z</time></trkpt><trkpt lat="44.781246553212235" lon="9.64658587440644"><ele>715.0</ele><time>2026-05-04T13:53:15.967Z</time></trkpt><trkpt lat="44.78118158543772" lon="9.646591858823971"><ele>715.0</ele><time>2026-05-04T13:53:16.967Z</time></trkpt><trkpt lat="44.781069325060145" lon="9.646589740386165"><ele>715.0</ele><time>2026-05-04T13:53:18.967Z</time></trkpt><trkpt lat="44.78095764167699" lon="9.64660825655587"><ele>715.0</ele><time>2026-05-04T13:53:20.967Z</time></trkpt><trkpt lat="44.78085919724121" lon="9.646637235196042"><ele>715.0</ele><time>2026-05-04T13:53:22.967Z</time></trkpt><trkpt lat="44.780756067891254" lon="9.64668443610958"><ele>716.2</ele><time>2026-05-04T13:53:24.967Z</time></trkpt><trkpt lat="44.78064600933206" lon="9.646722022152813"><ele>717.4</ele><time>2026-05-04T13:53:26.967Z</time></trkpt><trkpt lat="44.78058248065865" lon="9.646743712828963"><ele>718.5999999999999</ele><time>2026-05-04T13:53:27.967Z</time></trkpt><trkpt lat="44.78048566774309" lon="9.646767997342362"><ele>719.8</ele><time>2026-05-04T13:53:29.967Z</time></trkpt><trkpt lat="44.78037324081818" lon="9.646773973652515"><ele>721.0</ele><time>2026-05-04T13:53:31.967Z</time></trkpt><trkpt lat="44.78025486578171" lon="9.646791528673116"><ele>720.1666666666667</ele><time>2026-05-04T13:53:33.967Z</time></trkpt><trkpt lat="44.78015673638188" lon="9.646796794345274"><ele>719.3333333333334</ele><time>2026-05-04T13:53:35.967Z</time></trkpt><trkpt lat="44.7800807030577" lon="9.64684426029582"><ele>718.5</ele><time>2026-05-04T13:53:37.967Z</time></trkpt><trkpt lat="44.78001446443472" lon="9.646895269823702"><ele>717.6666666666666</ele><time>2026-05-04T13:53:39.967Z</time></trkpt><trkpt lat="44.77992727481383" lon="9.647001626990203"><ele>716.8333333333333</ele><time>2026-05-04T13:53:41.966Z</time></trkpt><trkpt lat="44.77987916323243" lon="9.64706954248548"><ele>716.0</ele><time>2026-05-04T13:53:42.966Z</time></trkpt><trkpt lat="44.7798327268093" lon="9.64714327780152"><ele>716.0000000000001</ele><time>2026-05-04T13:53:43.966Z</time></trkpt><trkpt lat="44.77978353691411" lon="9.647202717754874"><ele>716.0</ele><time>2026-05-04T13:53:44.966Z</time></trkpt><trkpt lat="44.779735791068894" lon="9.647270728269978"><ele>716.0</ele><time>2026-05-04T13:53:45.966Z</time></trkpt><trkpt lat="44.77969103720936" lon="9.64733956848545"><ele>716.0</ele><time>2026-05-04T13:53:46.966Z</time></trkpt><trkpt lat="44.77963635161956" lon="9.647388878267256"><ele>716.0</ele><time>2026-05-04T13:53:47.966Z</time></trkpt><trkpt lat="44.77954028750795" lon="9.647444144145451"><ele>716.0000000000001</ele><time>2026-05-04T13:53:49.966Z</time></trkpt><trkpt lat="44.779468704025646" lon="9.647464639051359"><ele>716.0</ele><time>2026-05-04T13:53:50.966Z</time></trkpt><trkpt lat="44.77940210415554" lon="9.647502122143708"><ele>717.0000000000001</ele><time>2026-05-04T13:53:51.966Z</time></trkpt><trkpt lat="44.77933460753173" lon="9.647537570115949"><ele>718.0</ele><time>2026-05-04T13:53:52.966Z</time></trkpt><trkpt lat="44.779276936739144" lon="9.647581506744833"><ele>719.0</ele><time>2026-05-04T13:53:53.966Z</time></trkpt><trkpt lat="44.77921701952744" lon="9.647617866765122"><ele>720.0</ele><time>2026-05-04T13:53:54.966Z</time></trkpt><trkpt lat="44.77915382388225" lon="9.6476334791754"><ele>721.0</ele><time>2026-05-04T13:53:55.966Z</time></trkpt><trkpt lat="44.779070722937774" lon="9.647676996427556"><ele>722.0000000000001</ele><time>2026-05-04T13:53:57.966Z</time></trkpt><trkpt lat="44.7790330651481" lon="9.64775138597114"><ele>723.0</ele><time>2026-05-04T13:53:59.966Z</time></trkpt><trkpt lat="44.778974601982505" lon="9.647791844355234"><ele>723.0</ele><time>2026-05-04T13:54:01.966Z</time></trkpt><trkpt lat="44.778885046122404" lon="9.64782443968307"><ele>723.0</ele><time>2026-05-04T13:54:04.966Z</time></trkpt><trkpt lat="44.77881262944983" lon="9.647823380587598"><ele>723.0</ele><time>2026-05-04T13:54:06.966Z</time></trkpt><trkpt lat="44.77873242226365" lon="9.647845656862609"><ele>723.0</ele><time>2026-05-04T13:54:08.966Z</time></trkpt><trkpt lat="44.77867048122588" lon="9.647862437587978"><ele>723.0</ele><time>2026-05-04T13:54:10.966Z</time></trkpt><trkpt lat="44.77855987824946" lon="9.647877158051001"><ele>723.0</ele><time>2026-05-04T13:54:12.966Z</time></trkpt><trkpt lat="44.77845392591196" lon="9.64793007850247"><ele>723.0000000000001</ele><time>2026-05-04T13:54:14.966Z</time></trkpt><trkpt lat="44.77839510530357" lon="9.647977171444012"><ele>723.0</ele><time>2026-05-04T13:54:20.966Z</time></trkpt><trkpt lat="44.77835379778872" lon="9.648052209677125"><ele>723.0</ele><time>2026-05-04T13:54:45.964Z</time></trkpt><trkpt lat="44.77833851725489" lon="9.648144870601191"><ele>723.0</ele><time>2026-05-04T13:54:48.96Z</time></trkpt><trkpt lat="44.778244818846886" lon="9.64815558132496"><ele>723.0</ele><time>2026-05-04T13:54:52.955Z</time></trkpt><trkpt lat="44.77816888204121" lon="9.64818059641039"><ele>723.0000000000001</ele><time>2026-05-04T13:54:54.953Z</time></trkpt><trkpt lat="44.77810950706847" lon="9.64822331256514"><ele>723.0</ele><time>2026-05-04T13:54:57.95Z</time></trkpt><trkpt lat="44.77801435204941" lon="9.64826137373922"><ele>723.0</ele><time>2026-05-04T13:55:05.945Z</time></trkpt><trkpt lat="44.77794246742442" lon="9.648268800610687"><ele>723.0</ele><time>2026-05-04T13:55:08.944Z</time></trkpt><trkpt lat="44.777857329196465" lon="9.648235543919245"><ele>723.0</ele><time>2026-05-04T13:55:11.943Z</time></trkpt><trkpt lat="44.77779467602741" lon="9.648226588044423"><ele>723.0</ele><time>2026-05-04T13:55:14.942Z</time></trkpt><trkpt lat="44.77771939664357" lon="9.648261568960969"><ele>723.0</ele><time>2026-05-04T13:55:16.942Z</time></trkpt><trkpt lat="44.777652726473114" lon="9.648276357811287"><ele>723.0</ele><time>2026-05-04T13:55:18.941Z</time></trkpt><trkpt lat="44.7775630037554" lon="9.648299366656781"><ele>722.4285714285714</ele><time>2026-05-04T13:55:21.94Z</time></trkpt><trkpt lat="44.77749925082439" lon="9.648306519599284"><ele>721.8571428571429</ele><time>2026-05-04T13:55:24.94Z</time></trkpt><trkpt lat="44.77742503411131" lon="9.64831236777893"><ele>721.2857142857142</ele><time>2026-05-04T13:55:29.939Z</time></trkpt><trkpt lat="44.77735311055394" lon="9.648292252764525"><ele>720.7142857142858</ele><time>2026-05-04T13:55:33.939Z</time></trkpt><trkpt lat="44.77728558024991" lon="9.648300224325078"><ele>720.1428571428571</ele><time>2026-05-04T13:55:36.939Z</time></trkpt><trkpt lat="44.77722244540782" lon="9.648310054010576"><ele>719.5714285714286</ele><time>2026-05-04T13:57:51.937Z</time></trkpt><trkpt lat="44.77713774393511" lon="9.64824339750808"><ele>719.0</ele><time>2026-05-04T13:57:58.937Z</time></trkpt><trkpt lat="44.777047364537616" lon="9.648203691618695"><ele>719.0</ele><time>2026-05-04T13:58:00.937Z</time></trkpt><trkpt lat="44.77696429091023" lon="9.648230219662493"><ele>719.0</ele><time>2026-05-04T13:58:02.937Z</time></trkpt><trkpt lat="44.776884900610504" lon="9.648248455831004"><ele>719.0</ele><time>2026-05-04T13:58:04.937Z</time></trkpt><trkpt lat="44.7768122871508" lon="9.648230110444839"><ele>719.0</ele><time>2026-05-04T13:59:55.935Z</time></trkpt><trkpt lat="44.77672901006507" lon="9.648224928933027"><ele>719.0</ele><time>2026-05-04T14:00:01.935Z</time></trkpt><trkpt lat="44.776650921496824" lon="9.648209872040699"><ele>719.0</ele><time>2026-05-04T14:00:05.935Z</time></trkpt><trkpt lat="44.7765848051567" lon="9.648180830722684"><ele>719.3333333333333</ele><time>2026-05-04T14:00:08.935Z</time></trkpt><trkpt lat="44.77649557231131" lon="9.648207542446839"><ele>719.6666666666666</ele><time>2026-05-04T14:00:10.935Z</time></trkpt><trkpt lat="44.77643109885662" lon="9.648239151702983"><ele>720.0</ele><time>2026-05-04T14:00:12.935Z</time></trkpt><trkpt lat="44.776354132949564" lon="9.64828112405499"><ele>720.3333333333334</ele><time>2026-05-04T14:01:08.934Z</time></trkpt><trkpt lat="44.776283861102975" lon="9.648303489623164"><ele>720.6666666666667</ele><time>2026-05-04T14:01:11.934Z</time></trkpt><trkpt lat="44.7762120272298" lon="9.648345269966036"><ele>721.0</ele><time>2026-05-04T14:01:14.934Z</time></trkpt><trkpt lat="44.776117746450886" lon="9.648389649661718"><ele>721.0</ele><time>2026-05-04T14:01:17.934Z</time></trkpt><trkpt lat="44.77604808183765" lon="9.648433345388801"><ele>721.0</ele><time>2026-05-04T14:01:19.934Z</time></trkpt><trkpt lat="44.77597314575562" lon="9.64847441143275"><ele>721.0</ele><time>2026-05-04T14:01:21.934Z</time></trkpt><trkpt lat="44.77591735944385" lon="9.648520088878996"><ele>721.0</ele><time>2026-05-04T14:01:23.934Z</time></trkpt><trkpt lat="44.77585219907236" lon="9.648543441018587"><ele>721.0</ele><time>2026-05-04T14:01:25.934Z</time></trkpt><trkpt lat="44.77578007806089" lon="9.648597248647768"><ele>721.0</ele><time>2026-05-04T14:01:27.934Z</time></trkpt><trkpt lat="44.77566961686158" lon="9.648710213582598"><ele>720.0</ele><time>2026-05-04T14:01:29.934Z</time></trkpt><trkpt lat="44.77559698229456" lon="9.648739179877412"><ele>719.0</ele><time>2026-05-04T14:01:30.934Z</time></trkpt><trkpt lat="44.775518998434876" lon="9.648749415665227"><ele>718.0</ele><time>2026-05-04T14:01:31.934Z</time></trkpt><trkpt lat="44.77543576551013" lon="9.648730545085122"><ele>717.0</ele><time>2026-05-04T14:01:32.933Z</time></trkpt><trkpt lat="44.77534425949551" lon="9.648702247910219"><ele>716.0</ele><time>2026-05-04T14:01:33.933Z</time></trkpt><trkpt lat="44.775244792754215" lon="9.648682717212678"><ele>715.0</ele><time>2026-05-04T14:01:34.933Z</time></trkpt><trkpt lat="44.775138163466146" lon="9.648660576388336"><ele>714.75</ele><time>2026-05-04T14:01:35.933Z</time></trkpt><trkpt lat="44.77503185562762" lon="9.648635621279702"><ele>714.5</ele><time>2026-05-04T14:01:36.933Z</time></trkpt><trkpt lat="44.77491314466496" lon="9.648607388399258"><ele>714.25</ele><time>2026-05-04T14:01:37.933Z</time></trkpt><trkpt lat="44.774788900927646" lon="9.648579603742936"><ele>714.0</ele><time>2026-05-04T14:01:38.933Z</time></trkpt><trkpt lat="44.77465825545389" lon="9.648552495224076"><ele>714.5</ele><time>2026-05-04T14:01:39.933Z</time></trkpt><trkpt lat="44.77452567650474" lon="9.648517515181883"><ele>715.0</ele><time>2026-05-04T14:01:40.933Z</time></trkpt><trkpt lat="44.77439129065968" lon="9.64846705424257"><ele>715.5</ele><time>2026-05-04T14:01:41.933Z</time></trkpt><trkpt lat="44.77426167446538" lon="9.648411374744926"><ele>716.0</ele><time>2026-05-04T14:01:42.933Z</time></trkpt><trkpt lat="44.77413004766036" lon="9.648349033220695"><ele>716.0</ele><time>2026-05-04T14:01:43.933Z</time></trkpt><trkpt lat="44.77399493000959" lon="9.648297160666806"><ele>716.0</ele><time>2026-05-04T14:01:44.933Z</time></trkpt><trkpt lat="44.77385911074926" lon="9.648248277216206"><ele>716.0</ele><time>2026-05-04T14:01:45.933Z</time></trkpt><trkpt lat="44.77372352434699" lon="9.64820010004427"><ele>716.0</ele><time>2026-05-04T14:01:46.933Z</time></trkpt><trkpt lat="44.77358408239149" lon="9.648152947404647"><ele>716.75</ele><time>2026-05-04T14:01:47.933Z</time></trkpt><trkpt lat="44.77344225588847" lon="9.648103733771663"><ele>717.5</ele><time>2026-05-04T14:01:48.933Z</time></trkpt><trkpt lat="44.77329677377149" lon="9.648060517371032"><ele>718.25</ele><time>2026-05-04T14:01:49.933Z</time></trkpt><trkpt lat="44.77314603916181" lon="9.648029054290602"><ele>719.0</ele><time>2026-05-04T14:01:50.933Z</time></trkpt><trkpt lat="44.77299552911789" lon="9.647985979303197"><ele>719.0</ele><time>2026-05-04T14:01:51.933Z</time></trkpt><trkpt lat="44.77284393966512" lon="9.647934577960912"><ele>719.0</ele><time>2026-05-04T14:01:52.933Z</time></trkpt><trkpt lat="44.772692333968756" lon="9.647879499243627"><ele>719.0</ele><time>2026-05-04T14:01:53.933Z</time></trkpt><trkpt lat="44.772534852800696" lon="9.64782380982783"><ele>719.75</ele><time>2026-05-04T14:01:54.933Z</time></trkpt><trkpt lat="44.77238990212971" lon="9.647797554863654"><ele>720.5</ele><time>2026-05-04T14:01:55.933Z</time></trkpt><trkpt lat="44.772247837755444" lon="9.64777866821572"><ele>721.25</ele><time>2026-05-04T14:01:56.933Z</time></trkpt><trkpt lat="44.77212454027105" lon="9.64780913534364"><ele>722.0</ele><time>2026-05-04T14:01:57.933Z</time></trkpt><trkpt lat="44.772003546212005" lon="9.647875339295828"><ele>722.0</ele><time>2026-05-04T14:01:58.933Z</time></trkpt><trkpt lat="44.7718859651244" lon="9.647983137089742"><ele>722.0</ele><time>2026-05-04T14:01:59.933Z</time></trkpt><trkpt lat="44.771774480090265" lon="9.64810538747681"><ele>722.0</ele><time>2026-05-04T14:02:00.933Z</time></trkpt><trkpt lat="44.77167772312113" lon="9.648232639367437"><ele>722.0</ele><time>2026-05-04T14:02:01.933Z</time></trkpt><trkpt lat="44.77158533816425" lon="9.648351445134594"><ele>724.25</ele><time>2026-05-04T14:02:02.933Z</time></trkpt><trkpt lat="44.771480986384006" lon="9.648449030052701"><ele>726.5</ele><time>2026-05-04T14:02:03.933Z</time></trkpt><trkpt lat="44.7713628870826" lon="9.648532505018824"><ele>728.75</ele><time>2026-05-04T14:02:04.933Z</time></trkpt><trkpt lat="44.77122552259914" lon="9.648581779427753"><ele>731.0</ele><time>2026-05-04T14:02:05.933Z</time></trkpt><trkpt lat="44.7710702743316" lon="9.648615865679057"><ele>731.6666666666666</ele><time>2026-05-04T14:02:06.933Z</time></trkpt><trkpt lat="44.770902850091325" lon="9.648669507197193"><ele>732.3333333333334</ele><time>2026-05-04T14:02:07.933Z</time></trkpt><trkpt lat="44.77073074175823" lon="9.648732263476377"><ele>733.0</ele><time>2026-05-04T14:02:08.933Z</time></trkpt><trkpt lat="44.77055478276826" lon="9.648804689999665"><ele>733.0</ele><time>2026-05-04T14:02:09.933Z</time></trkpt><trkpt lat="44.77038775112033" lon="9.648887923070793"><ele>733.0</ele><time>2026-05-04T14:02:10.933Z</time></trkpt><trkpt lat="44.77022912286387" lon="9.648975338529842"><ele>733.0</ele><time>2026-05-04T14:02:11.933Z</time></trkpt><trkpt lat="44.77008495195968" lon="9.649066008270871"><ele>737.6666666666667</ele><time>2026-05-04T14:02:12.933Z</time></trkpt><trkpt lat="44.769951471040166" lon="9.64917755357336"><ele>742.3333333333334</ele><time>2026-05-04T14:02:13.933Z</time></trkpt><trkpt lat="44.76982674336446" lon="9.649321922497132"><ele>747.0</ele><time>2026-05-04T14:02:14.933Z</time></trkpt><trkpt lat="44.769714115160255" lon="9.649479109989162"><ele>747.0</ele><time>2026-05-04T14:02:15.933Z</time></trkpt><trkpt lat="44.76962771095636" lon="9.649610323957743"><ele>747.0</ele><time>2026-05-04T14:02:16.933Z</time></trkpt><trkpt lat="44.76955196913742" lon="9.64970768588155"><ele>747.0</ele><time>2026-05-04T14:02:17.933Z</time></trkpt><trkpt lat="44.76946633638308" lon="9.649795691642405"><ele>747.0</ele><time>2026-05-04T14:02:18.933Z</time></trkpt><trkpt lat="44.76936911609142" lon="9.649860371958038"><ele>747.0</ele><time>2026-05-04T14:02:19.933Z</time></trkpt><trkpt lat="44.7692645606473" lon="9.649884622318027"><ele>748.2</ele><time>2026-05-04T14:02:20.933Z</time></trkpt><trkpt lat="44.769161957001" lon="9.64985452154976"><ele>749.4000000000001</ele><time>2026-05-04T14:02:21.933Z</time></trkpt><trkpt lat="44.76906307518877" lon="9.649811814639566"><ele>750.5999999999999</ele><time>2026-05-04T14:02:22.933Z</time></trkpt><trkpt lat="44.76898389050572" lon="9.649753735801564"><ele>751.8</ele><time>2026-05-04T14:02:23.933Z</time></trkpt><trkpt lat="44.76889712336671" lon="9.64967609736229"><ele>753.0</ele><time>2026-05-04T14:02:24.933Z</time></trkpt><trkpt lat="44.76879246508638" lon="9.64960077847629"><ele>753.0</ele><time>2026-05-04T14:02:25.933Z</time></trkpt><trkpt lat="44.76867396960868" lon="9.649551920941109"><ele>753.0</ele><time>2026-05-04T14:02:26.933Z</time></trkpt><trkpt lat="44.768548613012555" lon="9.649532980911676"><ele>753.0</ele><time>2026-05-04T14:02:27.933Z</time></trkpt><trkpt lat="44.76842365628497" lon="9.649542637626574"><ele>753.0</ele><time>2026-05-04T14:02:28.933Z</time></trkpt><trkpt lat="44.768302133065305" lon="9.6495956559039"><ele>754.25</ele><time>2026-05-04T14:02:29.933Z</time></trkpt><trkpt lat="44.76817655395727" lon="9.649677272601954"><ele>755.5</ele><time>2026-05-04T14:02:30.933Z</time></trkpt><trkpt lat="44.768050235896546" lon="9.64977450558935"><ele>756.75</ele><time>2026-05-04T14:02:31.933Z</time></trkpt><trkpt lat="44.76791344844395" lon="9.649861006350255"><ele>758.0</ele><time>2026-05-04T14:02:32.933Z</time></trkpt><trkpt lat="44.76776823394206" lon="9.649940448418121"><ele>760.6666666666666</ele><time>2026-05-04T14:02:33.933Z</time></trkpt><trkpt lat="44.76761480167363" lon="9.650027660333867"><ele>763.3333333333334</ele><time>2026-05-04T14:02:34.933Z</time></trkpt><trkpt lat="44.76747182540037" lon="9.65011435907675"><ele>766.0</ele><time>2026-05-04T14:02:35.933Z</time></trkpt><trkpt lat="44.767348586373906" lon="9.650203667050507"><ele>764.25</ele><time>2026-05-04T14:02:36.933Z</time></trkpt><trkpt lat="44.76723726006087" lon="9.65030162372494"><ele>762.5</ele><time>2026-05-04T14:02:37.933Z</time></trkpt><trkpt lat="44.76714068046643" lon="9.650377008078214"><ele>760.75</ele><time>2026-05-04T14:02:38.933Z</time></trkpt><trkpt lat="44.76703614481586" lon="9.650424277398931"><ele>759.0</ele><time>2026-05-04T14:02:39.933Z</time></trkpt><trkpt lat="44.76692324925734" lon="9.650459263375083"><ele>761.25</ele><time>2026-05-04T14:02:40.933Z</time></trkpt><trkpt lat="44.76679653191885" lon="9.650480381240179"><ele>763.5</ele><time>2026-05-04T14:02:41.933Z</time></trkpt><trkpt lat="44.76665205138225" lon="9.65048249352383"><ele>765.75</ele><time>2026-05-04T14:02:42.933Z</time></trkpt><trkpt lat="44.76650735019989" lon="9.650488797527515"><ele>768.0</ele><time>2026-05-04T14:02:43.933Z</time></trkpt><trkpt lat="44.76637167539823" lon="9.650483550955775"><ele>768.0</ele><time>2026-05-04T14:02:44.933Z</time></trkpt><trkpt lat="44.76626122141598" lon="9.650492224377675"><ele>768.0</ele><time>2026-05-04T14:02:45.933Z</time></trkpt><trkpt lat="44.76615378615053" lon="9.650545974623961"><ele>768.0</ele><time>2026-05-04T14:02:46.933Z</time></trkpt><trkpt lat="44.766061579729524" lon="9.650636335515895"><ele>768.0</ele><time>2026-05-04T14:02:47.933Z</time></trkpt><trkpt lat="44.765991416551316" lon="9.650748546341138"><ele>768.0</ele><time>2026-05-04T14:02:48.933Z</time></trkpt><trkpt lat="44.765944188558606" lon="9.650875145713043"><ele>769.75</ele><time>2026-05-04T14:02:49.933Z</time></trkpt><trkpt lat="44.76593056440553" lon="9.651035634780076"><ele>771.5</ele><time>2026-05-04T14:02:50.933Z</time></trkpt><trkpt lat="44.765936020159764" lon="9.651216815102444"><ele>773.25</ele><time>2026-05-04T14:02:51.933Z</time></trkpt><trkpt lat="44.76593709821384" lon="9.651397235456276"><ele>775.0</ele><time>2026-05-04T14:02:52.932Z</time></trkpt><trkpt lat="44.76592669141847" lon="9.651585202244076"><ele>775.0</ele><time>2026-05-04T14:02:53.932Z</time></trkpt><trkpt lat="44.76593145266078" lon="9.651771160309767"><ele>775.0</ele><time>2026-05-04T14:02:54.932Z</time></trkpt><trkpt lat="44.76597025701329" lon="9.65195697373287"><ele>775.0</ele><time>2026-05-04T14:02:55.933Z</time></trkpt><trkpt lat="44.76606053653734" lon="9.652131964962534"><ele>775.0</ele><time>2026-05-04T14:02:56.933Z</time></trkpt><trkpt lat="44.76615862062195" lon="9.652299780290281"><ele>773.0</ele><time>2026-05-04T14:02:57.933Z</time></trkpt><trkpt lat="44.766259394428985" lon="9.652468622148673"><ele>771.0</ele><time>2026-05-04T14:02:58.933Z</time></trkpt><trkpt lat="44.766358341452715" lon="9.652620223223575"><ele>769.0</ele><time>2026-05-04T14:02:59.933Z</time></trkpt><trkpt lat="44.76643419876168" lon="9.652783545532271"><ele>767.0</ele><time>2026-05-04T14:03:00.933Z</time></trkpt><trkpt lat="44.766486819555794" lon="9.652971915206825"><ele>767.0</ele><time>2026-05-04T14:03:01.933Z</time></trkpt><trkpt lat="44.766517539829124" lon="9.653189482800643"><ele>767.0</ele><time>2026-05-04T14:03:02.933Z</time></trkpt><trkpt lat="44.76653344293522" lon="9.653443746285394"><ele>767.0</ele><time>2026-05-04T14:03:03.933Z</time></trkpt><trkpt lat="44.766551463654686" lon="9.65373433204111"><ele>767.0</ele><time>2026-05-04T14:03:04.933Z</time></trkpt><trkpt lat="44.76656963461726" lon="9.654025683619656"><ele>767.0</ele><time>2026-05-04T14:03:05.933Z</time></trkpt><trkpt lat="44.76659858877199" lon="9.654308234393083"><ele>767.0</ele><time>2026-05-04T14:03:06.933Z</time></trkpt><trkpt lat="44.76665782908181" lon="9.654567967229108"><ele>767.6666666666666</ele><time>2026-05-04T14:03:07.932Z</time></trkpt><trkpt lat="44.76673686147541" lon="9.654814343964386"><ele>768.3333333333333</ele><time>2026-05-04T14:03:08.933Z</time></trkpt><trkpt lat="44.76681291598869" lon="9.65505167985325"><ele>769.0</ele><time>2026-05-04T14:03:09.933Z</time></trkpt><trkpt lat="44.7668793815836" lon="9.655266498088844"><ele>766.5</ele><time>2026-05-04T14:03:10.933Z</time></trkpt><trkpt lat="44.766930568833615" lon="9.655450402846988"><ele>764.0</ele><time>2026-05-04T14:03:11.933Z</time></trkpt><trkpt lat="44.76696689398216" lon="9.65561515226819"><ele>761.5</ele><time>2026-05-04T14:03:12.933Z</time></trkpt><trkpt lat="44.766982730706985" lon="9.655792077173992"><ele>759.0</ele><time>2026-05-04T14:03:13.933Z</time></trkpt><trkpt lat="44.76696915981248" lon="9.655994329312461"><ele>758.6666666666666</ele><time>2026-05-04T14:03:14.933Z</time></trkpt><trkpt lat="44.766936482139165" lon="9.656219797249813"><ele>758.3333333333333</ele><time>2026-05-04T14:03:15.933Z</time></trkpt><trkpt lat="44.766913128414764" lon="9.656467619620985"><ele>758.0</ele><time>2026-05-04T14:03:16.933Z</time></trkpt><trkpt lat="44.76691928021416" lon="9.656723846415495"><ele>758.6666666666666</ele><time>2026-05-04T14:03:17.933Z</time></trkpt><trkpt lat="44.766949130806566" lon="9.656979316922975"><ele>759.3333333333334</ele><time>2026-05-04T14:03:18.933Z</time></trkpt><trkpt lat="44.767000944736765" lon="9.657212790114604"><ele>760.0</ele><time>2026-05-04T14:03:19.933Z</time></trkpt><trkpt lat="44.767050761853874" lon="9.657413773948992"><ele>760.0</ele><time>2026-05-04T14:03:20.933Z</time></trkpt><trkpt lat="44.76710880968036" lon="9.657586415659898"><ele>760.0</ele><time>2026-05-04T14:03:21.933Z</time></trkpt><trkpt lat="44.76719442478534" lon="9.657721741260374"><ele>760.0</ele><time>2026-05-04T14:03:22.933Z</time></trkpt><trkpt lat="44.76727776355961" lon="9.657843753485935"><ele>760.0</ele><time>2026-05-04T14:03:23.933Z</time></trkpt><trkpt lat="44.76733374657862" lon="9.657952010568277"><ele>761.0</ele><time>2026-05-04T14:03:24.933Z</time></trkpt><trkpt lat="44.76735646537207" lon="9.658063265671498"><ele>762.0</ele><time>2026-05-04T14:03:25.933Z</time></trkpt><trkpt lat="44.767351105310695" lon="9.65820086870857"><ele>763.0</ele><time>2026-05-04T14:03:26.933Z</time></trkpt><trkpt lat="44.7673246217318" lon="9.658368349945299"><ele>764.0</ele><time>2026-05-04T14:03:27.933Z</time></trkpt><trkpt lat="44.76730861915225" lon="9.65854247203046"><ele>765.0</ele><time>2026-05-04T14:03:28.933Z</time></trkpt><trkpt lat="44.76730074731787" lon="9.658695726817191"><ele>765.0</ele><time>2026-05-04T14:03:29.933Z</time></trkpt><trkpt lat="44.76729146027269" lon="9.658849474288743"><ele>765.0</ele><time>2026-05-04T14:03:30.933Z</time></trkpt><trkpt lat="44.76726651942893" lon="9.659001971840015"><ele>765.0</ele><time>2026-05-04T14:03:31.933Z</time></trkpt><trkpt lat="44.76721380063702" lon="9.65913415258756"><ele>765.0</ele><time>2026-05-04T14:03:32.933Z</time></trkpt><trkpt lat="44.76715664381881" lon="9.659258154577516"><ele>765.0</ele><time>2026-05-04T14:03:33.933Z</time></trkpt><trkpt lat="44.76709854475255" lon="9.659387302080386"><ele>765.8</ele><time>2026-05-04T14:03:34.933Z</time></trkpt><trkpt lat="44.7670784921707" lon="9.659533037559259"><ele>766.6</ele><time>2026-05-04T14:03:35.933Z</time></trkpt><trkpt lat="44.76710761092692" lon="9.659671171648288"><ele>767.4000000000001</ele><time>2026-05-04T14:03:36.933Z</time></trkpt><trkpt lat="44.767162369132436" lon="9.659814953631638"><ele>768.2</ele><time>2026-05-04T14:03:37.933Z</time></trkpt><trkpt lat="44.76720638101715" lon="9.659961535105749"><ele>769.0</ele><time>2026-05-04T14:03:38.933Z</time></trkpt><trkpt lat="44.76723105582404" lon="9.660121568431913"><ele>769.0</ele><time>2026-05-04T14:03:39.933Z</time></trkpt><trkpt lat="44.767252898984694" lon="9.66028025200557"><ele>769.0</ele><time>2026-05-04T14:03:40.933Z</time></trkpt><trkpt lat="44.76725943266091" lon="9.660433713771267"><ele>769.0</ele><time>2026-05-04T14:03:41.933Z</time></trkpt><trkpt lat="44.76724222959475" lon="9.660575956885111"><ele>769.0</ele><time>2026-05-04T14:03:42.933Z</time></trkpt><trkpt lat="44.76721028419271" lon="9.660697622552547"><ele>769.0</ele><time>2026-05-04T14:03:43.933Z</time></trkpt><trkpt lat="44.76715768549016" lon="9.660801726402054"><ele>768.75</ele><time>2026-05-04T14:03:44.933Z</time></trkpt><trkpt lat="44.767069210628264" lon="9.66090408789709"><ele>768.5</ele><time>2026-05-04T14:03:45.933Z</time></trkpt><trkpt lat="44.76696593499967" lon="9.660998098104738"><ele>768.25</ele><time>2026-05-04T14:03:46.933Z</time></trkpt><trkpt lat="44.7668721559564" lon="9.661093577749728"><ele>768.0</ele><time>2026-05-04T14:03:47.933Z</time></trkpt><trkpt lat="44.76677847060979" lon="9.661181694338206"><ele>770.0</ele><time>2026-05-04T14:03:48.933Z</time></trkpt><trkpt lat="44.76669535006139" lon="9.6612725737565"><ele>772.0</ele><time>2026-05-04T14:03:49.933Z</time></trkpt><trkpt lat="44.766630316041436" lon="9.66139184751973"><ele>774.0</ele><time>2026-05-04T14:03:50.933Z</time></trkpt><trkpt lat="44.76659243809536" lon="9.661540244058946"><ele>776.0</ele><time>2026-05-04T14:03:51.933Z</time></trkpt><trkpt lat="44.76657110963898" lon="9.66173043854514"><ele>776.0</ele><time>2026-05-04T14:03:52.933Z</time></trkpt><trkpt lat="44.76654507497069" lon="9.661868261818032"><ele>776.0</ele><time>2026-05-04T14:03:53.933Z</time></trkpt><trkpt lat="44.7665224565857" lon="9.661991927007366"><ele>776.0</ele><time>2026-05-04T14:03:54.933Z</time></trkpt><trkpt lat="44.766466308557426" lon="9.6621352158622"><ele>776.0</ele><time>2026-05-04T14:03:55.933Z</time></trkpt><trkpt lat="44.76640012011067" lon="9.662308376122779"><ele>776.0</ele><time>2026-05-04T14:03:56.933Z</time></trkpt><trkpt lat="44.76632140429654" lon="9.662518947399048"><ele>776.25</ele><time>2026-05-04T14:03:57.932Z</time></trkpt><trkpt lat="44.76624237144502" lon="9.66273791228829"><ele>776.5</ele><time>2026-05-04T14:03:58.932Z</time></trkpt><trkpt lat="44.76618418289102" lon="9.662934051673036"><ele>776.75</ele><time>2026-05-04T14:03:59.932Z</time></trkpt><trkpt lat="44.76615145048594" lon="9.663099530048928"><ele>777.0</ele><time>2026-05-04T14:04:00.932Z</time></trkpt><trkpt lat="44.76613919478643" lon="9.663264633502052"><ele>777.0</ele><time>2026-05-04T14:04:01.932Z</time></trkpt><trkpt lat="44.76617225703059" lon="9.663437862826942"><ele>777.0</ele><time>2026-05-04T14:04:02.932Z</time></trkpt><trkpt lat="44.766252958306666" lon="9.663616305205714"><ele>777.0</ele><time>2026-05-04T14:04:03.932Z</time></trkpt><trkpt lat="44.766361505937354" lon="9.66379786548189"><ele>777.0</ele><time>2026-05-04T14:04:04.932Z</time></trkpt><trkpt lat="44.76648526687466" lon="9.663985926837158"><ele>778.0</ele><time>2026-05-04T14:04:05.932Z</time></trkpt><trkpt lat="44.76658866870489" lon="9.664158628418729"><ele>779.0</ele><time>2026-05-04T14:04:06.932Z</time></trkpt><trkpt lat="44.76668101681607" lon="9.664299231230316"><ele>780.0</ele><time>2026-05-04T14:04:07.932Z</time></trkpt><trkpt lat="44.76676987168178" lon="9.664426725355288"><ele>781.0</ele><time>2026-05-04T14:04:08.932Z</time></trkpt><trkpt lat="44.766837354927546" lon="9.664554028361751"><ele>780.0</ele><time>2026-05-04T14:04:09.932Z</time></trkpt><trkpt lat="44.76686636639439" lon="9.664686642417655"><ele>779.0</ele><time>2026-05-04T14:04:10.932Z</time></trkpt><trkpt lat="44.766877612393024" lon="9.664822984010113"><ele>778.0</ele><time>2026-05-04T14:04:11.932Z</time></trkpt><trkpt lat="44.76685650303018" lon="9.664977286580385"><ele>777.0</ele><time>2026-05-04T14:04:12.932Z</time></trkpt><trkpt lat="44.766808202270866" lon="9.66515970744329"><ele>776.0</ele><time>2026-05-04T14:04:13.932Z</time></trkpt><trkpt lat="44.766802521589476" lon="9.665332047935427"><ele>777.4</ele><time>2026-05-04T14:04:14.932Z</time></trkpt><trkpt lat="44.76685241225697" lon="9.665489872770191"><ele>778.8</ele><time>2026-05-04T14:04:15.932Z</time></trkpt><trkpt lat="44.76691502657175" lon="9.665628315889192"><ele>780.1999999999999</ele><time>2026-05-04T14:04:16.932Z</time></trkpt><trkpt lat="44.76697368040678" lon="9.665712498528356"><ele>781.5999999999999</ele><time>2026-05-04T14:04:17.932Z</time></trkpt><trkpt lat="44.76698486590581" lon="9.665818422429691"><ele>783.0</ele><time>2026-05-04T14:04:19.932Z</time></trkpt><trkpt lat="44.76691641542007" lon="9.665849002889527"><ele>784.75</ele><time>2026-05-04T14:04:21.932Z</time></trkpt><trkpt lat="44.76677917878405" lon="9.665760836203965"><ele>786.5</ele><time>2026-05-04T14:04:23.932Z</time></trkpt><trkpt lat="44.766660580494765" lon="9.665684609614537"><ele>788.25</ele><time>2026-05-04T14:04:24.932Z</time></trkpt><trkpt lat="44.76653183528552" lon="9.665638741815629"><ele>790.0</ele><time>2026-05-04T14:04:25.932Z</time></trkpt><trkpt lat="44.76638529239499" lon="9.665583459620585"><ele>790.0</ele><time>2026-05-04T14:04:26.932Z</time></trkpt><trkpt lat="44.76623819601006" lon="9.665515315731746"><ele>790.0</ele><time>2026-05-04T14:04:27.932Z</time></trkpt><trkpt lat="44.76609668301671" lon="9.66542525746866"><ele>790.0</ele><time>2026-05-04T14:04:28.932Z</time></trkpt><trkpt lat="44.76596418120322" lon="9.66533752263316"><ele>790.75</ele><time>2026-05-04T14:04:29.932Z</time></trkpt><trkpt lat="44.765848848673706" lon="9.665268436975134"><ele>791.5</ele><time>2026-05-04T14:04:30.932Z</time></trkpt><trkpt lat="44.76573082197871" lon="9.66524018705442"><ele>792.25</ele><time>2026-05-04T14:04:31.932Z</time></trkpt><trkpt lat="44.765605714737426" lon="9.66525847051361"><ele>793.0</ele><time>2026-05-04T14:04:32.932Z</time></trkpt><trkpt lat="44.76547092281957" lon="9.665318818165991"><ele>793.0</ele><time>2026-05-04T14:04:33.932Z</time></trkpt><trkpt lat="44.76533694844375" lon="9.665413727872314"><ele>793.0</ele><time>2026-05-04T14:04:34.932Z</time></trkpt><trkpt lat="44.76519768973924" lon="9.665547046021302"><ele>793.0</ele><time>2026-05-04T14:04:35.932Z</time></trkpt><trkpt lat="44.76505207496902" lon="9.66566541636778"><ele>795.3333333333333</ele><time>2026-05-04T14:04:36.932Z</time></trkpt><trkpt lat="44.76490427327827" lon="9.665783312873742"><ele>797.6666666666667</ele><time>2026-05-04T14:04:37.932Z</time></trkpt><trkpt lat="44.76475763421911" lon="9.665903883415453"><ele>800.0</ele><time>2026-05-04T14:04:38.932Z</time></trkpt><trkpt lat="44.76460317670366" lon="9.666013821795785"><ele>801.6666666666667</ele><time>2026-05-04T14:04:39.932Z</time></trkpt><trkpt lat="44.764442879273794" lon="9.666116143850193"><ele>803.3333333333333</ele><time>2026-05-04T14:04:40.932Z</time></trkpt><trkpt lat="44.76428124865415" lon="9.666219433683"><ele>805.0</ele><time>2026-05-04T14:04:41.932Z</time></trkpt><trkpt lat="44.764135620670864" lon="9.666310600856217"><ele>805.0</ele><time>2026-05-04T14:04:42.932Z</time></trkpt><trkpt lat="44.76401071490183" lon="9.66639332948162"><ele>805.0</ele><time>2026-05-04T14:04:43.932Z</time></trkpt><trkpt lat="44.76389073819589" lon="9.66646553248882"><ele>805.0</ele><time>2026-05-04T14:04:44.932Z</time></trkpt><trkpt lat="44.76377692444368" lon="9.666499875820591"><ele>805.0</ele><time>2026-05-04T14:04:45.932Z</time></trkpt><trkpt lat="44.763680509940784" lon="9.666489324020551"><ele>804.9999999999999</ele><time>2026-05-04T14:04:46.932Z</time></trkpt><trkpt lat="44.763583048959326" lon="9.666480159244033"><ele>805.0</ele><time>2026-05-04T14:04:47.932Z</time></trkpt><trkpt lat="44.76349837197269" lon="9.666459686659998"><ele>805.0</ele><time>2026-05-04T14:04:48.932Z</time></trkpt><trkpt lat="44.763430088630805" lon="9.666430986296085"><ele>805.0</ele><time>2026-05-04T14:04:49.932Z</time></trkpt><trkpt lat="44.76333742942191" lon="9.666394906694691"><ele>804.9999999999999</ele><time>2026-05-04T14:04:51.932Z</time></trkpt><trkpt lat="44.76330446473553" lon="9.666476365821818"><ele>805.0</ele><time>2026-05-04T14:04:53.932Z</time></trkpt><trkpt lat="44.76329570478256" lon="9.666634461888584"><ele>805.4</ele><time>2026-05-04T14:04:55.932Z</time></trkpt><trkpt lat="44.76329733110504" lon="9.666752919444521"><ele>805.8</ele><time>2026-05-04T14:04:56.932Z</time></trkpt><trkpt lat="44.763300661837334" lon="9.666884588654518"><ele>806.2</ele><time>2026-05-04T14:04:57.932Z</time></trkpt><trkpt lat="44.76331175779359" lon="9.667033728184027"><ele>806.6</ele><time>2026-05-04T14:04:58.932Z</time></trkpt><trkpt lat="44.76332162529998" lon="9.66718457016954"><ele>807.0</ele><time>2026-05-04T14:04:59.932Z</time></trkpt><trkpt lat="44.76332459872359" lon="9.667335502717519"><ele>807.0</ele><time>2026-05-04T14:05:00.932Z</time></trkpt><trkpt lat="44.763313244932924" lon="9.667479647610984"><ele>807.0</ele><time>2026-05-04T14:05:01.931Z</time></trkpt><trkpt lat="44.76329240930861" lon="9.667616745754449"><ele>807.0</ele><time>2026-05-04T14:05:02.931Z</time></trkpt><trkpt lat="44.76325797288902" lon="9.667753324909768"><ele>807.0</ele><time>2026-05-04T14:05:03.931Z</time></trkpt><trkpt lat="44.763204695019496" lon="9.667886294775968"><ele>807.0</ele><time>2026-05-04T14:05:04.931Z</time></trkpt><trkpt lat="44.763150393955314" lon="9.66803104187994"><ele>805.4000000000001</ele><time>2026-05-04T14:05:05.931Z</time></trkpt><trkpt lat="44.76309951957501" lon="9.668180461903056"><ele>803.8000000000001</ele><time>2026-05-04T14:05:06.931Z</time></trkpt><trkpt lat="44.76304223032852" lon="9.668303129071953"><ele>802.2</ele><time>2026-05-04T14:05:07.931Z</time></trkpt><trkpt lat="44.762978708478066" lon="9.668410487101507"><ele>800.6</ele><time>2026-05-04T14:05:08.931Z</time></trkpt><trkpt lat="44.76290062205576" lon="9.668519465849522"><ele>799.0</ele><time>2026-05-04T14:05:09.931Z</time></trkpt><trkpt lat="44.76282313049624" lon="9.66862549116646"><ele>796.6</ele><time>2026-05-04T14:05:10.931Z</time></trkpt><trkpt lat="44.76274606782876" lon="9.668725375511729"><ele>794.2</ele><time>2026-05-04T14:05:11.931Z</time></trkpt><trkpt lat="44.76267415892686" lon="9.668824604731158"><ele>791.8000000000001</ele><time>2026-05-04T14:05:12.931Z</time></trkpt><trkpt lat="44.76260489244501" lon="9.668920445249057"><ele>789.4000000000001</ele><time>2026-05-04T14:05:13.931Z</time></trkpt><trkpt lat="44.76253801869519" lon="9.669008134765935"><ele>787.0</ele><time>2026-05-04T14:05:14.931Z</time></trkpt><trkpt lat="44.76247915326284" lon="9.669088105716058"><ele>786.8571428571429</ele><time>2026-05-04T14:05:15.931Z</time></trkpt><trkpt lat="44.76242952082512" lon="9.66917061787231"><ele>786.7142857142857</ele><time>2026-05-04T14:05:16.931Z</time></trkpt><trkpt lat="44.762398517272274" lon="9.669249958722261"><ele>786.5714285714287</ele><time>2026-05-04T14:05:17.931Z</time></trkpt><trkpt lat="44.76236889474241" lon="9.669328864145669"><ele>786.4285714285714</ele><time>2026-05-04T14:05:18.931Z</time></trkpt><trkpt lat="44.76236359501307" lon="9.669418541251424"><ele>786.2857142857143</ele><time>2026-05-04T14:05:19.931Z</time></trkpt><trkpt lat="44.76239187504723" lon="9.669516760025655"><ele>786.1428571428572</ele><time>2026-05-04T14:05:20.931Z</time></trkpt><trkpt lat="44.76243719183308" lon="9.669620306415068"><ele>786.0</ele><time>2026-05-04T14:05:21.931Z</time></trkpt><trkpt lat="44.762498850006125" lon="9.66971088039585"><ele>784.5999999999999</ele><time>2026-05-04T14:05:22.931Z</time></trkpt><trkpt lat="44.76254758634048" lon="9.669788895113316"><ele>783.2</ele><time>2026-05-04T14:05:23.931Z</time></trkpt><trkpt lat="44.76255444530109" lon="9.669958686161419"><ele>781.8</ele><time>2026-05-04T14:05:25.931Z</time></trkpt><trkpt lat="44.762504824137565" lon="9.670107404192276"><ele>780.4000000000001</ele><time>2026-05-04T14:05:27.931Z</time></trkpt><trkpt lat="44.76244246152849" lon="9.67016989735466"><ele>779.0</ele><time>2026-05-04T14:05:28.931Z</time></trkpt><trkpt lat="44.76236033873294" lon="9.670210728144161"><ele>779.0000000000001</ele><time>2026-05-04T14:05:29.931Z</time></trkpt><trkpt lat="44.76229172420137" lon="9.670239999413448"><ele>779.0</ele><time>2026-05-04T14:05:30.931Z</time></trkpt><trkpt lat="44.76221247760363" lon="9.670271795820835"><ele>779.0</ele><time>2026-05-04T14:05:31.931Z</time></trkpt><trkpt lat="44.76213531590341" lon="9.67031416301931"><ele>779.0</ele><time>2026-05-04T14:05:32.931Z</time></trkpt><trkpt lat="44.762069093750355" lon="9.670342863821595"><ele>779.0000000000001</ele><time>2026-05-04T14:05:33.931Z</time></trkpt><trkpt lat="44.761959119066205" lon="9.67037361233726"><ele>779.0</ele><time>2026-05-04T14:05:35.931Z</time></trkpt><trkpt lat="44.7618458771839" lon="9.670322241281653"><ele>777.3333333333334</ele><time>2026-05-04T14:05:37.931Z</time></trkpt><trkpt lat="44.76181019427369" lon="9.670238181204477"><ele>775.6666666666667</ele><time>2026-05-04T14:05:38.931Z</time></trkpt><trkpt lat="44.76177669701616" lon="9.670143086013521"><ele>774.0</ele><time>2026-05-04T14:05:39.931Z</time></trkpt><trkpt lat="44.76175805775925" lon="9.670033654921214"><ele>772.3333333333333</ele><time>2026-05-04T14:05:40.931Z</time></trkpt><trkpt lat="44.76173673855761" lon="9.66991284245249"><ele>770.6666666666666</ele><time>2026-05-04T14:05:41.931Z</time></trkpt><trkpt lat="44.7617062587983" lon="9.669821819030094"><ele>769.0</ele><time>2026-05-04T14:05:42.931Z</time></trkpt><trkpt lat="44.76166526148937" lon="9.66973285047514"><ele>769.0</ele><time>2026-05-04T14:05:43.931Z</time></trkpt><trkpt lat="44.761592794893744" lon="9.66967298741617"><ele>769.0</ele><time>2026-05-04T14:05:44.931Z</time></trkpt><trkpt lat="44.76149588839607" lon="9.669620226597141"><ele>769.0</ele><time>2026-05-04T14:05:45.931Z</time></trkpt><trkpt lat="44.76140122356517" lon="9.669550754176463"><ele>769.0</ele><time>2026-05-04T14:05:46.931Z</time></trkpt><trkpt lat="44.76131004505994" lon="9.669489712528913"><ele>769.0</ele><time>2026-05-04T14:05:47.931Z</time></trkpt><trkpt lat="44.76122149295438" lon="9.669454452954588"><ele>769.0</ele><time>2026-05-04T14:05:48.931Z</time></trkpt><trkpt lat="44.761142323112644" lon="9.669465132669698"><ele>769.0</ele><time>2026-05-04T14:05:49.931Z</time></trkpt><trkpt lat="44.7610593109696" lon="9.669505365639884"><ele>769.0</ele><time>2026-05-04T14:05:50.931Z</time></trkpt><trkpt lat="44.76097513472016" lon="9.669537946878885"><ele>769.0</ele><time>2026-05-04T14:05:51.931Z</time></trkpt><trkpt lat="44.760881104566614" lon="9.669568186062039"><ele>769.0</ele><time>2026-05-04T14:05:52.931Z</time></trkpt><trkpt lat="44.76077441040452" lon="9.669592937385412"><ele>765.75</ele><time>2026-05-04T14:05:53.931Z</time></trkpt><trkpt lat="44.76065412940148" lon="9.669601189341675"><ele>762.5</ele><time>2026-05-04T14:05:54.931Z</time></trkpt><trkpt lat="44.760524315045394" lon="9.669589447248496"><ele>759.25</ele><time>2026-05-04T14:05:55.931Z</time></trkpt><trkpt lat="44.76039057151036" lon="9.669563271556092"><ele>756.0</ele><time>2026-05-04T14:05:56.931Z</time></trkpt><trkpt lat="44.76027803071467" lon="9.669522001647824"><ele>755.4</ele><time>2026-05-04T14:05:57.931Z</time></trkpt><trkpt lat="44.76017521999533" lon="9.669488430418005"><ele>754.8</ele><time>2026-05-04T14:05:58.931Z</time></trkpt><trkpt lat="44.760076818190186" lon="9.66945802191443"><ele>754.1999999999999</ele><time>2026-05-04T14:05:59.931Z</time></trkpt><trkpt lat="44.75997573058215" lon="9.669420495949698"><ele>753.5999999999999</ele><time>2026-05-04T14:06:00.931Z</time></trkpt><trkpt lat="44.75987805874744" lon="9.669391655909399"><ele>753.0</ele><time>2026-05-04T14:06:01.931Z</time></trkpt><trkpt lat="44.75978407922999" lon="9.669385422692471"><ele>753.0</ele><time>2026-05-04T14:06:02.931Z</time></trkpt><trkpt lat="44.75968680366596" lon="9.66941091207093"><ele>753.0</ele><time>2026-05-04T14:06:03.931Z</time></trkpt><trkpt lat="44.75958196234545" lon="9.669464368700059"><ele>753.0</ele><time>2026-05-04T14:06:04.931Z</time></trkpt><trkpt lat="44.75947250155569" lon="9.669526240448846"><ele>753.0</ele><time>2026-05-04T14:06:05.93Z</time></trkpt><trkpt lat="44.75937386104266" lon="9.669570372141568"><ele>753.0</ele><time>2026-05-04T14:06:06.93Z</time></trkpt><trkpt lat="44.75928484544792" lon="9.669595822429581"><ele>753.8</ele><time>2026-05-04T14:06:07.93Z</time></trkpt><trkpt lat="44.75920800368114" lon="9.669613183069462"><ele>754.5999999999999</ele><time>2026-05-04T14:06:08.93Z</time></trkpt><trkpt lat="44.75912235629308" lon="9.669619897809923"><ele>755.4000000000001</ele><time>2026-05-04T14:06:09.93Z</time></trkpt><trkpt lat="44.759020406883025" lon="9.669619348887192"><ele>756.2</ele><time>2026-05-04T14:06:10.93Z</time></trkpt><trkpt lat="44.75890960977973" lon="9.669625426154715"><ele>757.0</ele><time>2026-05-04T14:06:11.93Z</time></trkpt><trkpt lat="44.758797091984675" lon="9.66962374310725"><ele>757.0</ele><time>2026-05-04T14:06:12.93Z</time></trkpt><trkpt lat="44.75871038493932" lon="9.669624754403253"><ele>757.0</ele><time>2026-05-04T14:06:13.93Z</time></trkpt><trkpt lat="44.75863986966156" lon="9.669647594183717"><ele>757.0</ele><time>2026-05-04T14:06:14.93Z</time></trkpt><trkpt lat="44.75857793982075" lon="9.669700154280314"><ele>757.0</ele><time>2026-05-04T14:06:15.93Z</time></trkpt><trkpt lat="44.75852791146506" lon="9.669799611590149"><ele>757.0</ele><time>2026-05-04T14:06:16.93Z</time></trkpt><trkpt lat="44.75848913524072" lon="9.669917226925536"><ele>757.0</ele><time>2026-05-04T14:06:17.93Z</time></trkpt><trkpt lat="44.75847712573719" lon="9.67003874056255"><ele>757.6666666666667</ele><time>2026-05-04T14:06:18.93Z</time></trkpt><trkpt lat="44.758455980927415" lon="9.670126311160166"><ele>758.3333333333334</ele><time>2026-05-04T14:06:19.93Z</time></trkpt><trkpt lat="44.75838727282886" lon="9.67020612828733"><ele>759.0</ele><time>2026-05-04T14:06:21.93Z</time></trkpt><trkpt lat="44.758318866153445" lon="9.67022837214342"><ele>759.6666666666666</ele><time>2026-05-04T14:06:22.93Z</time></trkpt><trkpt lat="44.75822078354447" lon="9.670243738770745"><ele>760.3333333333333</ele><time>2026-05-04T14:06:23.93Z</time></trkpt><trkpt lat="44.75813435887623" lon="9.670275301194764"><ele>761.0</ele><time>2026-05-04T14:06:24.93Z</time></trkpt><trkpt lat="44.758062034366276" lon="9.670317626229897"><ele>760.5</ele><time>2026-05-04T14:06:25.93Z</time></trkpt><trkpt lat="44.758001868501054" lon="9.670388507027072"><ele>760.0</ele><time>2026-05-04T14:06:26.93Z</time></trkpt><trkpt lat="44.75792067784224" lon="9.670469495686923"><ele>759.5</ele><time>2026-05-04T14:06:27.93Z</time></trkpt><trkpt lat="44.75783803212586" lon="9.670533011882817"><ele>759.0</ele><time>2026-05-04T14:06:28.93Z</time></trkpt><trkpt lat="44.75775767327562" lon="9.670574914552388"><ele>758.5</ele><time>2026-05-04T14:06:29.93Z</time></trkpt><trkpt lat="44.757677632465544" lon="9.670602048376342"><ele>758.0</ele><time>2026-05-04T14:06:30.93Z</time></trkpt><trkpt lat="44.75759762016618" lon="9.670633361350239"><ele>758.0</ele><time>2026-05-04T14:06:31.93Z</time></trkpt><trkpt lat="44.757521956412866" lon="9.670663202106109"><ele>758.0</ele><time>2026-05-04T14:06:32.93Z</time></trkpt><trkpt lat="44.75745556751428" lon="9.67071355369885"><ele>758.0</ele><time>2026-05-04T14:06:33.93Z</time></trkpt><trkpt lat="44.75739350388572" lon="9.670801963191453"><ele>758.0</ele><time>2026-05-04T14:06:34.93Z</time></trkpt><trkpt lat="44.75733730555557" lon="9.670896329399383"><ele>758.0</ele><time>2026-05-04T14:06:35.93Z</time></trkpt><trkpt lat="44.75728093603512" lon="9.671006202523627"><ele>758.0</ele><time>2026-05-04T14:06:36.93Z</time></trkpt><trkpt lat="44.757233886634516" lon="9.671120689000254"><ele>757.0</ele><time>2026-05-04T14:06:37.93Z</time></trkpt><trkpt lat="44.75719271248327" lon="9.671220516385704"><ele>756.0</ele><time>2026-05-04T14:06:38.93Z</time></trkpt><trkpt lat="44.75715666407031" lon="9.671312625037386"><ele>755.0</ele><time>2026-05-04T14:06:39.93Z</time></trkpt><trkpt lat="44.75710206348245" lon="9.671392576410918"><ele>754.0</ele><time>2026-05-04T14:06:40.93Z</time></trkpt><trkpt lat="44.75704663095716" lon="9.671482858576018"><ele>753.0</ele><time>2026-05-04T14:06:41.93Z</time></trkpt><trkpt lat="44.75698149608261" lon="9.671574720121466"><ele>752.0</ele><time>2026-05-04T14:06:42.93Z</time></trkpt><trkpt lat="44.75691280406371" lon="9.671654435559848"><ele>752.8</ele><time>2026-05-04T14:06:43.93Z</time></trkpt><trkpt lat="44.756830320005676" lon="9.671720913409066"><ele>753.6</ele><time>2026-05-04T14:06:44.93Z</time></trkpt><trkpt lat="44.756746150257655" lon="9.671790942545648"><ele>754.4</ele><time>2026-05-04T14:06:45.93Z</time></trkpt><trkpt lat="44.75665417860505" lon="9.671861922195527"><ele>755.1999999999999</ele><time>2026-05-04T14:06:46.93Z</time></trkpt><trkpt lat="44.7565665135314" lon="9.67193591723732"><ele>756.0</ele><time>2026-05-04T14:06:47.93Z</time></trkpt><trkpt lat="44.75648759986362" lon="9.671993218690174"><ele>756.0</ele><time>2026-05-04T14:06:48.93Z</time></trkpt><trkpt lat="44.75642075075573" lon="9.672039453017774"><ele>756.0</ele><time>2026-05-04T14:06:49.93Z</time></trkpt><trkpt lat="44.75632147148725" lon="9.672105757675997"><ele>756.0</ele><time>2026-05-04T14:06:51.93Z</time></trkpt><trkpt lat="44.75623638192583" lon="9.67208420156091"><ele>756.0</ele><time>2026-05-04T14:06:53.93Z</time></trkpt><trkpt lat="44.756191792669455" lon="9.672019963614769"><ele>756.0</ele><time>2026-05-04T14:06:54.93Z</time></trkpt><trkpt lat="44.75614887955617" lon="9.671891269400273"><ele>756.0</ele><time>2026-05-04T14:06:56.93Z</time></trkpt><trkpt lat="44.75616932107409" lon="9.671771258343007"><ele>756.8</ele><time>2026-05-04T14:06:58.93Z</time></trkpt><trkpt lat="44.7560741181791" lon="9.671723639391455"><ele>757.5999999999999</ele><time>2026-05-04T14:07:02.93Z</time></trkpt><trkpt lat="44.75600455820206" lon="9.671771486149062"><ele>758.4</ele><time>2026-05-04T14:07:03.93Z</time></trkpt><trkpt lat="44.75589893242252" lon="9.671808930195176"><ele>759.2</ele><time>2026-05-04T14:07:05.93Z</time></trkpt><trkpt lat="44.755794603596485" lon="9.671873424636757"><ele>760.0</ele><time>2026-05-04T14:07:07.93Z</time></trkpt><trkpt lat="44.755678315322534" lon="9.671956129961181"><ele>761.5</ele><time>2026-05-04T14:07:09.93Z</time></trkpt><trkpt lat="44.75561430779003" lon="9.671987060517678"><ele>763.0</ele><time>2026-05-04T14:07:10.93Z</time></trkpt><trkpt lat="44.75556253781088" lon="9.672044151088903"><ele>764.5</ele><time>2026-05-04T14:07:11.93Z</time></trkpt><trkpt lat="44.75549328361483" lon="9.672092449760052"><ele>766.0</ele><time>2026-05-04T14:07:12.93Z</time></trkpt><trkpt lat="44.755424044224995" lon="9.672131660810672"><ele>767.4999999999999</ele><time>2026-05-04T14:07:13.93Z</time></trkpt><trkpt lat="44.755350845735094" lon="9.672162839815512"><ele>769.0</ele><time>2026-05-04T14:07:14.93Z</time></trkpt><trkpt lat="44.7552623367367" lon="9.6722036073349"><ele>769.2</ele><time>2026-05-04T14:07:15.93Z</time></trkpt><trkpt lat="44.755175568327175" lon="9.672242372368617"><ele>769.4000000000001</ele><time>2026-05-04T14:07:16.929Z</time></trkpt><trkpt lat="44.755079999928846" lon="9.67229567410049"><ele>769.6</ele><time>2026-05-04T14:07:17.93Z</time></trkpt><trkpt lat="44.754988153512045" lon="9.672344312540224"><ele>769.8</ele><time>2026-05-04T14:07:18.93Z</time></trkpt><trkpt lat="44.754909694858355" lon="9.672391415417882"><ele>770.0</ele><time>2026-05-04T14:07:19.93Z</time></trkpt><trkpt lat="44.754838588782455" lon="9.672427038764003"><ele>770.0000000000001</ele><time>2026-05-04T14:07:20.93Z</time></trkpt><trkpt lat="44.75476199240386" lon="9.672455617030217"><ele>770.0</ele><time>2026-05-04T14:07:21.93Z</time></trkpt><trkpt lat="44.754682107061974" lon="9.672482967627818"><ele>770.0</ele><time>2026-05-04T14:07:22.93Z</time></trkpt><trkpt lat="44.75459892208507" lon="9.672497716223813"><ele>770.0</ele><time>2026-05-04T14:07:23.93Z</time></trkpt><trkpt lat="44.7545123256839" lon="9.672500951689132"><ele>770.0000000000001</ele><time>2026-05-04T14:07:24.93Z</time></trkpt><trkpt lat="44.75441480231889" lon="9.67249556267752"><ele>770.0</ele><time>2026-05-04T14:07:25.93Z</time></trkpt><trkpt lat="44.75431269835888" lon="9.672488433977106"><ele>770.4</ele><time>2026-05-04T14:07:26.93Z</time></trkpt><trkpt lat="44.75419995133345" lon="9.67249373107653"><ele>770.8</ele><time>2026-05-04T14:07:27.93Z</time></trkpt><trkpt lat="44.75410011205612" lon="9.672506822586785"><ele>771.2</ele><time>2026-05-04T14:07:28.93Z</time></trkpt><trkpt lat="44.7540102102351" lon="9.672527998967801"><ele>771.6</ele><time>2026-05-04T14:07:29.93Z</time></trkpt><trkpt lat="44.75392538584879" lon="9.672555027734147"><ele>772.0</ele><time>2026-05-04T14:07:30.93Z</time></trkpt><trkpt lat="44.7538398437478" lon="9.672585549002157"><ele>771.9999999999999</ele><time>2026-05-04T14:07:31.93Z</time></trkpt><trkpt lat="44.75376229408375" lon="9.672616639107849"><ele>772.0</ele><time>2026-05-04T14:07:32.93Z</time></trkpt><trkpt lat="44.75369052914144" lon="9.672647716030216"><ele>772.0</ele><time>2026-05-04T14:07:33.93Z</time></trkpt><trkpt lat="44.75361348379679" lon="9.672682148307695"><ele>772.0</ele><time>2026-05-04T14:07:34.93Z</time></trkpt><trkpt lat="44.753528755847434" lon="9.672723806735014"><ele>771.9999999999999</ele><time>2026-05-04T14:07:35.93Z</time></trkpt><trkpt lat="44.75344351816361" lon="9.672757428020388"><ele>772.0</ele><time>2026-05-04T14:07:36.93Z</time></trkpt><trkpt lat="44.75335243861504" lon="9.672782030725438"><ele>769.4000000000001</ele><time>2026-05-04T14:07:37.93Z</time></trkpt><trkpt lat="44.753258146401535" lon="9.672807465298822"><ele>766.8000000000001</ele><time>2026-05-04T14:07:38.93Z</time></trkpt><trkpt lat="44.75315526842268" lon="9.672829907340319"><ele>764.2</ele><time>2026-05-04T14:07:39.93Z</time></trkpt><trkpt lat="44.753042794576245" lon="9.672858725008485"><ele>761.6</ele><time>2026-05-04T14:07:40.93Z</time></trkpt><trkpt lat="44.75292953342401" lon="9.672885478076122"><ele>759.0</ele><time>2026-05-04T14:07:41.93Z</time></trkpt><trkpt lat="44.75282419006168" lon="9.672918579078148"><ele>759.0</ele><time>2026-05-04T14:07:42.93Z</time></trkpt><trkpt lat="44.75272438756086" lon="9.672939232737798"><ele>759.0</ele><time>2026-05-04T14:07:43.93Z</time></trkpt><trkpt lat="44.7526257247884" lon="9.672969636863382"><ele>759.0</ele><time>2026-05-04T14:07:44.93Z</time></trkpt><trkpt lat="44.752534975157324" lon="9.67300704656782"><ele>759.0</ele><time>2026-05-04T14:07:45.93Z</time></trkpt><trkpt lat="44.752454205885876" lon="9.673068694335173"><ele>759.0</ele><time>2026-05-04T14:07:46.93Z</time></trkpt><trkpt lat="44.75237003501428" lon="9.673105735268813"><ele>760.8333333333334</ele><time>2026-05-04T14:07:47.93Z</time></trkpt><trkpt lat="44.75229276136235" lon="9.673128453141812"><ele>762.6666666666667</ele><time>2026-05-04T14:07:48.93Z</time></trkpt><trkpt lat="44.75220009318577" lon="9.673161227204142"><ele>764.5</ele><time>2026-05-04T14:07:49.93Z</time></trkpt><trkpt lat="44.75211644483176" lon="9.673188602853019"><ele>766.3333333333334</ele><time>2026-05-04T14:07:50.93Z</time></trkpt><trkpt lat="44.75204014800542" lon="9.673212575623554"><ele>768.1666666666667</ele><time>2026-05-04T14:07:51.93Z</time></trkpt><trkpt lat="44.75195827077973" lon="9.67322190532336"><ele>770.0</ele><time>2026-05-04T14:07:52.93Z</time></trkpt><trkpt lat="44.75188693048162" lon="9.67322038707472"><ele>770.6666666666667</ele><time>2026-05-04T14:07:53.93Z</time></trkpt><trkpt lat="44.75181612788115" lon="9.673199501473984"><ele>771.3333333333334</ele><time>2026-05-04T14:07:54.93Z</time></trkpt><trkpt lat="44.751754829724426" lon="9.673166951722997"><ele>772.0</ele><time>2026-05-04T14:07:55.93Z</time></trkpt><trkpt lat="44.75169653974058" lon="9.673124891012382"><ele>772.6666666666667</ele><time>2026-05-04T14:07:56.93Z</time></trkpt><trkpt lat="44.751626715901494" lon="9.673045970982242"><ele>773.3333333333334</ele><time>2026-05-04T14:07:57.93Z</time></trkpt><trkpt lat="44.751561898077355" lon="9.672942683020654"><ele>774.0</ele><time>2026-05-04T14:07:58.93Z</time></trkpt><trkpt lat="44.75151630611608" lon="9.672844483955375"><ele>776.4000000000001</ele><time>2026-05-04T14:07:59.93Z</time></trkpt><trkpt lat="44.751475433591864" lon="9.672771089234448"><ele>778.8</ele><time>2026-05-04T14:08:00.93Z</time></trkpt><trkpt lat="44.75134568228365" lon="9.672705935499403"><ele>781.2</ele><time>2026-05-04T14:08:02.93Z</time></trkpt><trkpt lat="44.75125923013963" lon="9.672700027646522"><ele>783.5999999999999</ele><time>2026-05-04T14:08:03.93Z</time></trkpt><trkpt lat="44.7511758932048" lon="9.672708462892611"><ele>786.0</ele><time>2026-05-04T14:08:04.929Z</time></trkpt><trkpt lat="44.751096737415416" lon="9.67273709056923"><ele>784.8</ele><time>2026-05-04T14:08:05.929Z</time></trkpt><trkpt lat="44.7510128863361" lon="9.672778718255813"><ele>783.5999999999999</ele><time>2026-05-04T14:08:06.929Z</time></trkpt><trkpt lat="44.75092564762292" lon="9.67283181126387"><ele>782.4</ele><time>2026-05-04T14:08:07.929Z</time></trkpt><trkpt lat="44.75083639401638" lon="9.672889866580576"><ele>781.2</ele><time>2026-05-04T14:08:08.929Z</time></trkpt><trkpt lat="44.75075518166521" lon="9.672941598528439"><ele>780.0</ele><time>2026-05-04T14:08:09.929Z</time></trkpt><trkpt lat="44.75066603004162" lon="9.672992026096574"><ele>780.0</ele><time>2026-05-04T14:08:10.929Z</time></trkpt><trkpt lat="44.750573870769614" lon="9.673033832967205"><ele>780.0</ele><time>2026-05-04T14:08:11.929Z</time></trkpt><trkpt lat="44.750491778777445" lon="9.673063881650945"><ele>780.0</ele><time>2026-05-04T14:08:12.929Z</time></trkpt><trkpt lat="44.75042631697708" lon="9.673090214076717"><ele>780.0</ele><time>2026-05-04T14:08:13.929Z</time></trkpt><trkpt lat="44.75031177162923" lon="9.673095188946109"><ele>780.0</ele><time>2026-05-04T14:08:15.929Z</time></trkpt><trkpt lat="44.75024159827745" lon="9.673021998714283"><ele>781.75</ele><time>2026-05-04T14:08:17.929Z</time></trkpt><trkpt lat="44.75016499435442" lon="9.67286730740509"><ele>783.5</ele><time>2026-05-04T14:08:19.929Z</time></trkpt><trkpt lat="44.75011298358409" lon="9.672754693325846"><ele>785.25</ele><time>2026-05-04T14:08:20.929Z</time></trkpt><trkpt lat="44.75005190650197" lon="9.672629763403691"><ele>787.0</ele><time>2026-05-04T14:08:21.929Z</time></trkpt><trkpt lat="44.74998410105173" lon="9.67248775737967"><ele>788.2</ele><time>2026-05-04T14:08:22.929Z</time></trkpt><trkpt lat="44.74991498089616" lon="9.67232724855672"><ele>789.4000000000001</ele><time>2026-05-04T14:08:23.929Z</time></trkpt><trkpt lat="44.74985228938029" lon="9.672187659953433"><ele>790.5999999999999</ele><time>2026-05-04T14:08:24.929Z</time></trkpt><trkpt lat="44.749800407966575" lon="9.67208046295271"><ele>791.8</ele><time>2026-05-04T14:08:25.929Z</time></trkpt><trkpt lat="44.74975627828494" lon="9.671984922615994"><ele>793.0</ele><time>2026-05-04T14:08:26.929Z</time></trkpt><trkpt lat="44.74971911256718" lon="9.671842642378795"><ele>794.4285714285714</ele><time>2026-05-04T14:08:28.929Z</time></trkpt><trkpt lat="44.749656859763604" lon="9.671759624182712"><ele>795.8571428571429</ele><time>2026-05-04T14:08:30.929Z</time></trkpt><trkpt lat="44.749594389443004" lon="9.671729395159392"><ele>797.2857142857142</ele><time>2026-05-04T14:08:31.929Z</time></trkpt><trkpt lat="44.74953032965358" lon="9.671682482156907"><ele>798.7142857142858</ele><time>2026-05-04T14:08:32.929Z</time></trkpt><trkpt lat="44.749462653146665" lon="9.671631330058114"><ele>800.1428571428571</ele><time>2026-05-04T14:08:33.929Z</time></trkpt><trkpt lat="44.74939925806148" lon="9.671597467509713"><ele>801.5714285714286</ele><time>2026-05-04T14:08:34.929Z</time></trkpt><trkpt lat="44.74933685811864" lon="9.671575026736274"><ele>803.0</ele><time>2026-05-04T14:08:35.929Z</time></trkpt><trkpt lat="44.74927569566887" lon="9.671548777886116"><ele>803.4</ele><time>2026-05-04T14:08:36.929Z</time></trkpt><trkpt lat="44.74918262975267" lon="9.67150363454089"><ele>803.8</ele><time>2026-05-04T14:08:38.929Z</time></trkpt><trkpt lat="44.749061486507394" lon="9.67148015326382"><ele>804.2</ele><time>2026-05-04T14:08:40.929Z</time></trkpt><trkpt lat="44.7489514373933" lon="9.67148694695572"><ele>804.6</ele><time>2026-05-04T14:08:42.929Z</time></trkpt><trkpt lat="44.748856602525436" lon="9.671533809547144"><ele>805.0</ele><time>2026-05-04T14:08:45.929Z</time></trkpt><trkpt lat="44.74878361100364" lon="9.671569198978151"><ele>805.0</ele><time>2026-05-04T14:08:48.929Z</time></trkpt><trkpt lat="44.74868983812999" lon="9.671615641875526"><ele>805.0</ele><time>2026-05-04T14:08:51.929Z</time></trkpt><trkpt lat="44.7485948725625" lon="9.671651361892303"><ele>805.0</ele><time>2026-05-04T14:08:54.929Z</time></trkpt><trkpt lat="44.74854527888903" lon="9.671760706683562"><ele>805.0</ele><time>2026-05-04T14:09:16.929Z</time></trkpt><trkpt lat="44.7484781763104" lon="9.671826081970515"><ele>805.0</ele><time>2026-05-04T14:09:18.928Z</time></trkpt><trkpt lat="44.74841092140235" lon="9.671907025009324"><ele>803.3333333333333</ele><time>2026-05-04T14:09:20.929Z</time></trkpt><trkpt lat="44.74834573273816" lon="9.671976688068474"><ele>801.6666666666666</ele><time>2026-05-04T14:09:22.929Z</time></trkpt><trkpt lat="44.74827118510995" lon="9.672041403735124"><ele>800.0</ele><time>2026-05-04T14:09:24.928Z</time></trkpt><trkpt lat="44.748187547449454" lon="9.672104059239976"><ele>798.3333333333333</ele><time>2026-05-04T14:09:26.929Z</time></trkpt><trkpt lat="44.74811396362169" lon="9.672173625652855"><ele>796.6666666666666</ele><time>2026-05-04T14:09:28.929Z</time></trkpt><trkpt lat="44.74804133569839" lon="9.67225031712787"><ele>795.0</ele><time>2026-05-04T14:09:30.929Z</time></trkpt><trkpt lat="44.747967495154406" lon="9.672316900481526"><ele>795.0</ele><time>2026-05-04T14:09:32.929Z</time></trkpt><trkpt lat="44.747893048845796" lon="9.672396760177216"><ele>795.0</ele><time>2026-05-04T14:09:34.929Z</time></trkpt><trkpt lat="44.74780423877538" lon="9.67247853934339"><ele>795.0</ele><time>2026-05-04T14:09:36.929Z</time></trkpt><trkpt lat="44.7477178769144" lon="9.672560805297323"><ele>795.0</ele><time>2026-05-04T14:09:38.929Z</time></trkpt><trkpt lat="44.74761965548869" lon="9.672663666628901"><ele>795.0</ele><time>2026-05-04T14:09:40.928Z</time></trkpt><trkpt lat="44.74752042490808" lon="9.672764146428854"><ele>795.75</ele><time>2026-05-04T14:09:42.928Z</time></trkpt><trkpt lat="44.74740444703685" lon="9.672805441966604"><ele>796.5</ele><time>2026-05-04T14:09:44.928Z</time></trkpt><trkpt lat="44.747285944596634" lon="9.67281030810194"><ele>797.25</ele><time>2026-05-04T14:09:46.928Z</time></trkpt><trkpt lat="44.74716178730784" lon="9.672789371806143"><ele>798.0</ele><time>2026-05-04T14:09:48.932Z</time></trkpt><trkpt lat="44.74703495533107" lon="9.672784760998319"><ele>798.0</ele><time>2026-05-04T14:09:50.935Z</time></trkpt><trkpt lat="44.746972460354485" lon="9.672796699747433"><ele>798.0</ele><time>2026-05-04T14:09:51.936Z</time></trkpt><trkpt lat="44.746908486582015" lon="9.672840416327213"><ele>798.0</ele><time>2026-05-04T14:09:52.938Z</time></trkpt><trkpt lat="44.746854611911715" lon="9.672888530746954"><ele>798.0</ele><time>2026-05-04T14:09:53.939Z</time></trkpt><trkpt lat="44.74677399849851" lon="9.673015601155447"><ele>798.0</ele><time>2026-05-04T14:09:55.941Z</time></trkpt><trkpt lat="44.74669815991916" lon="9.673150093401508"><ele>798.0</ele><time>2026-05-04T14:09:57.943Z</time></trkpt><trkpt lat="44.74668751345559" lon="9.673325832767802"><ele>798.8</ele><time>2026-05-04T14:09:59.945Z</time></trkpt><trkpt lat="44.746729963045105" lon="9.67342739977893"><ele>799.5999999999999</ele><time>2026-05-04T14:10:00.946Z</time></trkpt><trkpt lat="44.746775505618125" lon="9.673518019306789"><ele>800.4000000000001</ele><time>2026-05-04T14:10:01.946Z</time></trkpt><trkpt lat="44.74682995260877" lon="9.673614209514442"><ele>801.2</ele><time>2026-05-04T14:10:02.947Z</time></trkpt><trkpt lat="44.74690304722732" lon="9.673709576201325"><ele>802.0</ele><time>2026-05-04T14:10:03.948Z</time></trkpt><trkpt lat="44.74699161837852" lon="9.673818419730926"><ele>802.0</ele><time>2026-05-04T14:10:04.948Z</time></trkpt><trkpt lat="44.74708093749691" lon="9.673897853911706"><ele>802.0</ele><time>2026-05-04T14:10:05.949Z</time></trkpt><trkpt lat="44.74718254121128" lon="9.673990139890844"><ele>802.0</ele><time>2026-05-04T14:10:06.949Z</time></trkpt><trkpt lat="44.747293513885545" lon="9.674084017626836"><ele>802.0</ele><time>2026-05-04T14:10:07.95Z</time></trkpt><trkpt lat="44.74738205665468" lon="9.674168567131192"><ele>802.0</ele><time>2026-05-04T14:10:08.95Z</time></trkpt><trkpt lat="44.74747058389098" lon="9.67424654310412"><ele>802.0</ele><time>2026-05-04T14:10:09.951Z</time></trkpt><trkpt lat="44.74755627944217" lon="9.674312919794263"><ele>802.0</ele><time>2026-05-04T14:10:10.951Z</time></trkpt><trkpt lat="44.74763320489113" lon="9.674362597610292"><ele>802.0</ele><time>2026-05-04T14:10:11.952Z</time></trkpt><trkpt lat="44.74772000816193" lon="9.674369754831577"><ele>802.0</ele><time>2026-05-04T14:10:12.952Z</time></trkpt><trkpt lat="44.74782510846728" lon="9.674386420563245"><ele>800.0</ele><time>2026-05-04T14:10:13.952Z</time></trkpt><trkpt lat="44.74792726337464" lon="9.674395573416515"><ele>798.0</ele><time>2026-05-04T14:10:14.953Z</time></trkpt><trkpt lat="44.74802411152565" lon="9.674413951312669"><ele>796.0</ele><time>2026-05-04T14:10:15.953Z</time></trkpt><trkpt lat="44.74810224509829" lon="9.674456153392018"><ele>794.0</ele><time>2026-05-04T14:10:16.953Z</time></trkpt><trkpt lat="44.74817846014484" lon="9.674527424677276"><ele>792.0</ele><time>2026-05-04T14:10:17.953Z</time></trkpt><trkpt lat="44.74826042068961" lon="9.674613243302419"><ele>792.0</ele><time>2026-05-04T14:10:18.954Z</time></trkpt><trkpt lat="44.74835181811237" lon="9.674715476988256"><ele>792.0</ele><time>2026-05-04T14:10:19.954Z</time></trkpt><trkpt lat="44.748452716873025" lon="9.674835450356154"><ele>792.0</ele><time>2026-05-04T14:10:20.954Z</time></trkpt><trkpt lat="44.748534460406894" lon="9.674968192014667"><ele>792.0</ele><time>2026-05-04T14:10:21.954Z</time></trkpt><trkpt lat="44.748623756302" lon="9.675111572927797"><ele>788.75</ele><time>2026-05-04T14:10:22.955Z</time></trkpt><trkpt lat="44.74872166935376" lon="9.675252925946577"><ele>785.5</ele><time>2026-05-04T14:10:23.955Z</time></trkpt><trkpt lat="44.74881084932973" lon="9.675385767789374"><ele>782.25</ele><time>2026-05-04T14:10:24.955Z</time></trkpt><trkpt lat="44.74889635022818" lon="9.675517569080688"><ele>779.0</ele><time>2026-05-04T14:10:25.955Z</time></trkpt><trkpt lat="44.748976336226136" lon="9.675653581390716"><ele>779.0</ele><time>2026-05-04T14:10:26.955Z</time></trkpt><trkpt lat="44.7490463656609" lon="9.67578564497811"><ele>779.0</ele><time>2026-05-04T14:10:27.955Z</time></trkpt><trkpt lat="44.749115216733756" lon="9.675907104998647"><ele>779.0</ele><time>2026-05-04T14:10:28.955Z</time></trkpt><trkpt lat="44.74918488317397" lon="9.676016330908874"><ele>779.0</ele><time>2026-05-04T14:10:29.956Z</time></trkpt><trkpt lat="44.74922618942755" lon="9.676138103891446"><ele>779.0</ele><time>2026-05-04T14:10:30.956Z</time></trkpt><trkpt lat="44.74924387978436" lon="9.676263442615998"><ele>778.4000000000001</ele><time>2026-05-04T14:10:31.956Z</time></trkpt><trkpt lat="44.74922871273213" lon="9.67637719255581"><ele>777.8</ele><time>2026-05-04T14:10:32.956Z</time></trkpt><trkpt lat="44.74918822673522" lon="9.676463732820746"><ele>777.2</ele><time>2026-05-04T14:10:33.956Z</time></trkpt><trkpt lat="44.749121561326525" lon="9.67655611703755"><ele>776.5999999999999</ele><time>2026-05-04T14:10:34.956Z</time></trkpt><trkpt lat="44.74903300571457" lon="9.676631306128964"><ele>776.0</ele><time>2026-05-04T14:10:35.956Z</time></trkpt><trkpt lat="44.74895192991497" lon="9.676731398834"><ele>776.0</ele><time>2026-05-04T14:10:36.956Z</time></trkpt><trkpt lat="44.74887411146976" lon="9.676828141968132"><ele>776.0</ele><time>2026-05-04T14:10:37.956Z</time></trkpt><trkpt lat="44.74881474550581" lon="9.676922731233109"><ele>776.0</ele><time>2026-05-04T14:10:38.956Z</time></trkpt><trkpt lat="44.748792076011355" lon="9.677049086135478"><ele>776.0</ele><time>2026-05-04T14:10:39.956Z</time></trkpt><trkpt lat="44.74879759767544" lon="9.677166991414913"><ele>776.0</ele><time>2026-05-04T14:10:40.956Z</time></trkpt><trkpt lat="44.74882761899626" lon="9.677288653206825"><ele>775.25</ele><time>2026-05-04T14:10:41.956Z</time></trkpt><trkpt lat="44.748878389746906" lon="9.677431430520965"><ele>774.5</ele><time>2026-05-04T14:10:42.956Z</time></trkpt><trkpt lat="44.74893090245513" lon="9.677593390035783"><ele>773.75</ele><time>2026-05-04T14:10:43.957Z</time></trkpt><trkpt lat="44.74898367971691" lon="9.67776588543705"><ele>773.0</ele><time>2026-05-04T14:10:44.957Z</time></trkpt><trkpt lat="44.74903379761121" lon="9.677955934717914"><ele>773.0</ele><time>2026-05-04T14:10:45.957Z</time></trkpt><trkpt lat="44.749071050531775" lon="9.678153487203925"><ele>773.0</ele><time>2026-05-04T14:10:46.957Z</time></trkpt><trkpt lat="44.74910965099532" lon="9.678336606313517"><ele>773.0</ele><time>2026-05-04T14:10:47.957Z</time></trkpt><trkpt lat="44.74915168963753" lon="9.678503600646726"><ele>773.0</ele><time>2026-05-04T14:10:48.957Z</time></trkpt><trkpt lat="44.74919840535227" lon="9.678656323057755"><ele>773.5</ele><time>2026-05-04T14:10:49.957Z</time></trkpt><trkpt lat="44.74924596478928" lon="9.678796851951303"><ele>774.0</ele><time>2026-05-04T14:10:50.957Z</time></trkpt><trkpt lat="44.7493135685142" lon="9.678947086838065"><ele>774.5</ele><time>2026-05-04T14:10:51.957Z</time></trkpt><trkpt lat="44.74939432840005" lon="9.679098554402602"><ele>775.0</ele><time>2026-05-04T14:10:52.957Z</time></trkpt><trkpt lat="44.74948442804966" lon="9.679250528051414"><ele>772.25</ele><time>2026-05-04T14:10:53.957Z</time></trkpt><trkpt lat="44.74957803952444" lon="9.679402236867881"><ele>769.5</ele><time>2026-05-04T14:10:54.957Z</time></trkpt><trkpt lat="44.74967352692475" lon="9.679544308925298"><ele>766.75</ele><time>2026-05-04T14:10:55.957Z</time></trkpt><trkpt lat="44.74976032354166" lon="9.679692296218"><ele>764.0</ele><time>2026-05-04T14:10:56.957Z</time></trkpt><trkpt lat="44.74981890278997" lon="9.679836157424848"><ele>764.0</ele><time>2026-05-04T14:10:57.957Z</time></trkpt><trkpt lat="44.7498534778148" lon="9.679996302400932"><ele>764.0</ele><time>2026-05-04T14:10:58.957Z</time></trkpt><trkpt lat="44.74987578876478" lon="9.68016699003377"><ele>764.0</ele><time>2026-05-04T14:10:59.957Z</time></trkpt><trkpt lat="44.749885474559605" lon="9.680342029125407"><ele>764.0</ele><time>2026-05-04T14:11:00.957Z</time></trkpt><trkpt lat="44.74988646972674" lon="9.68051022492905"><ele>764.25</ele><time>2026-05-04T14:11:01.957Z</time></trkpt><trkpt lat="44.74987421549364" lon="9.680688144007073"><ele>764.5</ele><time>2026-05-04T14:11:02.957Z</time></trkpt><trkpt lat="44.749861236288176" lon="9.68087521257536"><ele>764.75</ele><time>2026-05-04T14:11:03.957Z</time></trkpt><trkpt lat="44.74985100668695" lon="9.68106108643375"><ele>765.0</ele><time>2026-05-04T14:11:04.957Z</time></trkpt><trkpt lat="44.74983916963366" lon="9.681242488801923"><ele>765.25</ele><time>2026-05-04T14:11:05.957Z</time></trkpt><trkpt lat="44.749830555962056" lon="9.681420864617884"><ele>765.5</ele><time>2026-05-04T14:11:06.957Z</time></trkpt><trkpt lat="44.749819704177284" lon="9.681590010494421"><ele>765.75</ele><time>2026-05-04T14:11:07.957Z</time></trkpt><trkpt lat="44.74980857145488" lon="9.681759378792064"><ele>766.0</ele><time>2026-05-04T14:11:08.957Z</time></trkpt><trkpt lat="44.74980530613224" lon="9.681932216783359"><ele>764.8</ele><time>2026-05-04T14:11:09.957Z</time></trkpt><trkpt lat="44.74980974525051" lon="9.682091984443359"><ele>763.5999999999999</ele><time>2026-05-04T14:11:10.957Z</time></trkpt><trkpt lat="44.74982439565229" lon="9.682236021293514"><ele>762.4</ele><time>2026-05-04T14:11:11.957Z</time></trkpt><trkpt lat="44.74983697990219" lon="9.682379880738774"><ele>761.2</ele><time>2026-05-04T14:11:12.957Z</time></trkpt><trkpt lat="44.74984469468761" lon="9.682558512972928"><ele>760.0</ele><time>2026-05-04T14:11:13.957Z</time></trkpt><trkpt lat="44.74984913757758" lon="9.682743418056896"><ele>758.75</ele><time>2026-05-04T14:11:14.957Z</time></trkpt><trkpt lat="44.74985941725438" lon="9.682942981858535"><ele>757.5</ele><time>2026-05-04T14:11:15.957Z</time></trkpt><trkpt lat="44.74987740688672" lon="9.683156025121841"><ele>756.25</ele><time>2026-05-04T14:11:16.957Z</time></trkpt><trkpt lat="44.74989498455065" lon="9.6833635742238"><ele>755.0</ele><time>2026-05-04T14:11:17.957Z</time></trkpt><trkpt lat="44.74991726228598" lon="9.683576992396095"><ele>755.3333333333333</ele><time>2026-05-04T14:11:18.957Z</time></trkpt><trkpt lat="44.74995080342171" lon="9.683790279118327"><ele>755.6666666666666</ele><time>2026-05-04T14:11:19.957Z</time></trkpt><trkpt lat="44.74998373413108" lon="9.684002170960293"><ele>756.0</ele><time>2026-05-04T14:11:20.956Z</time></trkpt><trkpt lat="44.750027725509874" lon="9.684209802005418"><ele>756.0</ele><time>2026-05-04T14:11:21.956Z</time></trkpt><trkpt lat="44.750060058629394" lon="9.684409700787139"><ele>756.0</ele><time>2026-05-04T14:11:22.957Z</time></trkpt><trkpt lat="44.750079372500025" lon="9.684591848848173"><ele>756.0</ele><time>2026-05-04T14:11:23.956Z</time></trkpt><trkpt lat="44.75009689381658" lon="9.684749524214787"><ele>756.0</ele><time>2026-05-04T14:11:24.956Z</time></trkpt><trkpt lat="44.75011809496708" lon="9.684886268171349"><ele>756.75</ele><time>2026-05-04T14:11:25.957Z</time></trkpt><trkpt lat="44.75013526177283" lon="9.685028462933193"><ele>757.5</ele><time>2026-05-04T14:11:26.956Z</time></trkpt><trkpt lat="44.75014379222216" lon="9.685186668213788"><ele>758.25</ele><time>2026-05-04T14:11:27.956Z</time></trkpt><trkpt lat="44.75014972495124" lon="9.685363217085026"><ele>759.0</ele><time>2026-05-04T14:11:28.956Z</time></trkpt><trkpt lat="44.75015315651781" lon="9.685552347972507"><ele>759.0</ele><time>2026-05-04T14:11:29.956Z</time></trkpt><trkpt lat="44.75015932327978" lon="9.68574973289307"><ele>759.0</ele><time>2026-05-04T14:11:30.956Z</time></trkpt><trkpt lat="44.750165330792015" lon="9.685961772314446"><ele>759.0</ele><time>2026-05-04T14:11:31.957Z</time></trkpt><trkpt lat="44.750177478224394" lon="9.686162469759312"><ele>759.0</ele><time>2026-05-04T14:11:32.956Z</time></trkpt><trkpt lat="44.75019686819191" lon="9.686355812969342"><ele>759.0</ele><time>2026-05-04T14:11:33.956Z</time></trkpt><trkpt lat="44.75023166907027" lon="9.686552854541857"><ele>759.0</ele><time>2026-05-04T14:11:34.956Z</time></trkpt><trkpt lat="44.75027917891712" lon="9.686746682396542"><ele>759.0</ele><time>2026-05-04T14:11:35.956Z</time></trkpt><trkpt lat="44.75032728013453" lon="9.68692373014596"><ele>759.0</ele><time>2026-05-04T14:11:36.956Z</time></trkpt><trkpt lat="44.750376820673324" lon="9.687080892106925"><ele>759.0</ele><time>2026-05-04T14:11:37.956Z</time></trkpt><trkpt lat="44.750405203599506" lon="9.687224658085727"><ele>759.0</ele><time>2026-05-04T14:11:38.956Z</time></trkpt><trkpt lat="44.750424859287385" lon="9.68734709209907"><ele>759.0</ele><time>2026-05-04T14:11:39.956Z</time></trkpt><trkpt lat="44.750440328968324" lon="9.687437887611344"><ele>759.0</ele><time>2026-05-04T14:11:40.956Z</time></trkpt><trkpt lat="44.75045769476655" lon="9.687534433896124"><ele>759.0</ele><time>2026-05-04T14:11:42.956Z</time></trkpt><trkpt lat="44.750533928680554" lon="9.6875938973351"><ele>759.0</ele><time>2026-05-04T14:11:44.956Z</time></trkpt><trkpt lat="44.750611704231304" lon="9.687585265794809"><ele>759.0</ele><time>2026-05-04T14:11:45.956Z</time></trkpt><trkpt lat="44.7506913634936" lon="9.687559176464605"><ele>759.0</ele><time>2026-05-04T14:11:46.956Z</time></trkpt><trkpt lat="44.750778260916455" lon="9.68755091503038"><ele>759.0</ele><time>2026-05-04T14:11:47.956Z</time></trkpt><trkpt lat="44.750870931907116" lon="9.687567829413656"><ele>759.0</ele><time>2026-05-04T14:11:48.956Z</time></trkpt><trkpt lat="44.75096241052131" lon="9.687639235478038"><ele>759.0</ele><time>2026-05-04T14:11:49.956Z</time></trkpt><trkpt lat="44.7510352502175" lon="9.687759134873856"><ele>758.0</ele><time>2026-05-04T14:11:50.956Z</time></trkpt><trkpt lat="44.75108018821884" lon="9.687913323847138"><ele>757.0</ele><time>2026-05-04T14:11:51.956Z</time></trkpt><trkpt lat="44.751105793001514" lon="9.68806565677737"><ele>756.0</ele><time>2026-05-04T14:11:52.956Z</time></trkpt><trkpt lat="44.75109896648728" lon="9.688218447542024"><ele>755.0</ele><time>2026-05-04T14:11:53.956Z</time></trkpt><trkpt lat="44.75109469636586" lon="9.688359874170214"><ele>754.0</ele><time>2026-05-04T14:11:54.956Z</time></trkpt><trkpt lat="44.751115208800556" lon="9.688481545012177"><ele>754.0</ele><time>2026-05-04T14:11:55.956Z</time></trkpt><trkpt lat="44.75117065090536" lon="9.688569971966372"><ele>754.0</ele><time>2026-05-04T14:11:56.956Z</time></trkpt><trkpt lat="44.75126172734238" lon="9.688626497105219"><ele>754.0</ele><time>2026-05-04T14:11:57.956Z</time></trkpt><trkpt lat="44.75137405388488" lon="9.688636801666867"><ele>754.0</ele><time>2026-05-04T14:11:58.956Z</time></trkpt><trkpt lat="44.75148688868377" lon="9.68862003671567"><ele>754.0</ele><time>2026-05-04T14:11:59.956Z</time></trkpt><trkpt lat="44.751610083767424" lon="9.6885715419032"><ele>754.0</ele><time>2026-05-04T14:12:00.956Z</time></trkpt><trkpt lat="44.75174109046706" lon="9.688520188424013"><ele>754.0</ele><time>2026-05-04T14:12:01.956Z</time></trkpt><trkpt lat="44.75187776681296" lon="9.688490751965343"><ele>754.0</ele><time>2026-05-04T14:12:02.956Z</time></trkpt><trkpt lat="44.7520192530817" lon="9.68846272577793"><ele>754.0</ele><time>2026-05-04T14:12:03.956Z</time></trkpt><trkpt lat="44.752159660636885" lon="9.688431371776204"><ele>753.25</ele><time>2026-05-04T14:12:04.956Z</time></trkpt><trkpt lat="44.752300567875054" lon="9.688402684746698"><ele>752.5</ele><time>2026-05-04T14:12:05.956Z</time></trkpt><trkpt lat="44.75244425822873" lon="9.68837556347618"><ele>751.75</ele><time>2026-05-04T14:12:06.956Z</time></trkpt><trkpt lat="44.75257796394744" lon="9.688349314722814"><ele>751.0</ele><time>2026-05-04T14:12:07.956Z</time></trkpt><trkpt lat="44.7527096244814" lon="9.688329910275549"><ele>748.8</ele><time>2026-05-04T14:12:08.956Z</time></trkpt><trkpt lat="44.752834420644625" lon="9.688311541881225"><ele>746.5999999999999</ele><time>2026-05-04T14:12:09.956Z</time></trkpt><trkpt lat="44.7529448497509" lon="9.688306678708578"><ele>744.4</ele><time>2026-05-04T14:12:10.956Z</time></trkpt><trkpt lat="44.753041372732916" lon="9.6883168924344"><ele>742.2</ele><time>2026-05-04T14:12:11.956Z</time></trkpt><trkpt lat="44.75312694976296" lon="9.688350745810729"><ele>740.0</ele><time>2026-05-04T14:12:12.956Z</time></trkpt><trkpt lat="44.75319746230478" lon="9.688416787029036"><ele>740.0</ele><time>2026-05-04T14:12:13.956Z</time></trkpt><trkpt lat="44.753238884120506" lon="9.688521472460392"><ele>740.0</ele><time>2026-05-04T14:12:14.956Z</time></trkpt><trkpt lat="44.75324325905842" lon="9.688627796584285"><ele>740.0</ele><time>2026-05-04T14:12:15.956Z</time></trkpt><trkpt lat="44.75322024550631" lon="9.688729508670361"><ele>740.0</ele><time>2026-05-04T14:12:16.956Z</time></trkpt><trkpt lat="44.75315643740666" lon="9.68882440701011"><ele>740.0</ele><time>2026-05-04T14:12:17.956Z</time></trkpt><trkpt lat="44.75304419611871" lon="9.688887877198647"><ele>739.2</ele><time>2026-05-04T14:12:18.956Z</time></trkpt><trkpt lat="44.75295141127399" lon="9.688932495586366"><ele>738.4</ele><time>2026-05-04T14:12:19.956Z</time></trkpt><trkpt lat="44.75286306025985" lon="9.68899475187952"><ele>737.5999999999999</ele><time>2026-05-04T14:12:20.956Z</time></trkpt><trkpt lat="44.75279914095526" lon="9.689102915208174"><ele>736.8</ele><time>2026-05-04T14:12:21.956Z</time></trkpt><trkpt lat="44.75275427684577" lon="9.689253099552335"><ele>736.0</ele><time>2026-05-04T14:12:22.956Z</time></trkpt><trkpt lat="44.75273339847557" lon="9.689421066590128"><ele>734.5</ele><time>2026-05-04T14:12:23.956Z</time></trkpt><trkpt lat="44.752724791872275" lon="9.689596166323376"><ele>733.0</ele><time>2026-05-04T14:12:24.956Z</time></trkpt><trkpt lat="44.75270548544994" lon="9.68976795750001"><ele>731.5</ele><time>2026-05-04T14:12:25.956Z</time></trkpt><trkpt lat="44.75268912090782" lon="9.68993005409438"><ele>730.0</ele><time>2026-05-04T14:12:26.956Z</time></trkpt><trkpt lat="44.75273034921687" lon="9.69008491190194"><ele>730.0</ele><time>2026-05-04T14:12:27.956Z</time></trkpt><trkpt lat="44.75283051887685" lon="9.69021019659663"><ele>730.0</ele><time>2026-05-04T14:12:28.956Z</time></trkpt><trkpt lat="44.7529455900218" lon="9.69029199693796"><ele>730.0</ele><time>2026-05-04T14:12:29.956Z</time></trkpt><trkpt lat="44.75308796226989" lon="9.690348651050613"><ele>730.0</ele><time>2026-05-04T14:12:30.956Z</time></trkpt><trkpt lat="44.75320800933219" lon="9.69045637240004"><ele>732.0</ele><time>2026-05-04T14:12:31.956Z</time></trkpt><trkpt lat="44.75331336341366" lon="9.69059446846863"><ele>734.0</ele><time>2026-05-04T14:12:32.955Z</time></trkpt><trkpt lat="44.75341570081942" lon="9.69074468214258"><ele>736.0</ele><time>2026-05-04T14:12:33.955Z</time></trkpt><trkpt lat="44.75352429948038" lon="9.690899276326315"><ele>738.0</ele><time>2026-05-04T14:12:34.955Z</time></trkpt><trkpt lat="44.75362888142027" lon="9.691048010854836"><ele>734.75</ele><time>2026-05-04T14:12:35.955Z</time></trkpt><trkpt lat="44.753716514112554" lon="9.69119714203703"><ele>731.5</ele><time>2026-05-04T14:12:36.955Z</time></trkpt><trkpt lat="44.75379492949155" lon="9.691360426113329"><ele>728.25</ele><time>2026-05-04T14:12:37.955Z</time></trkpt><trkpt lat="44.75385446094519" lon="9.69151613799004"><ele>725.0</ele><time>2026-05-04T14:12:38.955Z</time></trkpt><trkpt lat="44.753912481140794" lon="9.691661696833627"><ele>725.0</ele><time>2026-05-04T14:12:39.955Z</time></trkpt><trkpt lat="44.75398930033344" lon="9.69179201866887"><ele>725.0</ele><time>2026-05-04T14:12:40.955Z</time></trkpt><trkpt lat="44.75408477429611" lon="9.691909852860492"><ele>725.0</ele><time>2026-05-04T14:12:41.955Z</time></trkpt><trkpt lat="44.75418183442164" lon="9.692000244815777"><ele>725.0</ele><time>2026-05-04T14:12:42.955Z</time></trkpt><trkpt lat="44.75425609902257" lon="9.692061565461339"><ele>725.3333333333333</ele><time>2026-05-04T14:12:43.955Z</time></trkpt><trkpt lat="44.75429903892999" lon="9.692148429909702"><ele>725.6666666666666</ele><time>2026-05-04T14:12:44.955Z</time></trkpt><trkpt lat="44.75432951243633" lon="9.69225685421576"><ele>726.0</ele><time>2026-05-04T14:12:45.955Z</time></trkpt><trkpt lat="44.75433448811216" lon="9.692354605793726"><ele>726.3333333333334</ele><time>2026-05-04T14:12:46.955Z</time></trkpt><trkpt lat="44.754280630430074" lon="9.69245820228447"><ele>726.6666666666667</ele><time>2026-05-04T14:12:47.955Z</time></trkpt><trkpt lat="44.75421980739323" lon="9.69256526410026"><ele>727.0</ele><time>2026-05-04T14:12:48.955Z</time></trkpt><trkpt lat="44.754137902912305" lon="9.692730027412043"><ele>724.25</ele><time>2026-05-04T14:12:49.955Z</time></trkpt><trkpt lat="44.75404772033211" lon="9.692877576849874"><ele>721.5</ele><time>2026-05-04T14:12:50.955Z</time></trkpt><trkpt lat="44.75393944927776" lon="9.693017594600661"><ele>718.75</ele><time>2026-05-04T14:12:51.955Z</time></trkpt><trkpt lat="44.75385384766179" lon="9.69317778618034"><ele>716.0</ele><time>2026-05-04T14:12:52.955Z</time></trkpt><trkpt lat="44.753784841735175" lon="9.693375605825077"><ele>716.0</ele><time>2026-05-04T14:12:53.955Z</time></trkpt><trkpt lat="44.75373040100181" lon="9.693577806706152"><ele>716.0</ele><time>2026-05-04T14:12:54.955Z</time></trkpt><trkpt lat="44.75373701480912" lon="9.693786746551105"><ele>716.0</ele><time>2026-05-04T14:12:55.955Z</time></trkpt><trkpt lat="44.75371764938262" lon="9.693990484790557"><ele>716.0</ele><time>2026-05-04T14:12:56.955Z</time></trkpt><trkpt lat="44.75372012378016" lon="9.694186949568161"><ele>715.5</ele><time>2026-05-04T14:12:57.955Z</time></trkpt><trkpt lat="44.753738911974914" lon="9.694369879007652"><ele>715.0</ele><time>2026-05-04T14:12:58.955Z</time></trkpt><trkpt lat="44.75379440380316" lon="9.69454772432261"><ele>714.5</ele><time>2026-05-04T14:12:59.955Z</time></trkpt><trkpt lat="44.75389340719578" lon="9.694708118369602"><ele>714.0</ele><time>2026-05-04T14:13:00.955Z</time></trkpt><trkpt lat="44.75400442950211" lon="9.694830376170007"><ele>714.0</ele><time>2026-05-04T14:13:01.955Z</time></trkpt><trkpt lat="44.7541175955553" lon="9.694929877502663"><ele>714.0</ele><time>2026-05-04T14:13:02.955Z</time></trkpt><trkpt lat="44.754237215841165" lon="9.695027012605077"><ele>714.0</ele><time>2026-05-04T14:13:03.955Z</time></trkpt><trkpt lat="44.75436384676599" lon="9.695111035260062"><ele>714.0</ele><time>2026-05-04T14:13:04.955Z</time></trkpt><trkpt lat="44.7544929674273" lon="9.695174872965037"><ele>712.6</ele><time>2026-05-04T14:13:05.955Z</time></trkpt><trkpt lat="44.75460924521774" lon="9.695235514305555"><ele>711.2</ele><time>2026-05-04T14:13:06.955Z</time></trkpt><trkpt lat="44.75470129521169" lon="9.695285715060106"><ele>709.8000000000001</ele><time>2026-05-04T14:13:07.955Z</time></trkpt><trkpt lat="44.75477446755355" lon="9.69534456218238"><ele>708.4000000000001</ele><time>2026-05-04T14:13:08.955Z</time></trkpt><trkpt lat="44.75482446395587" lon="9.695441653289022"><ele>707.0</ele><time>2026-05-04T14:13:09.955Z</time></trkpt><trkpt lat="44.75484681938249" lon="9.695571214978505"><ele>707.0</ele><time>2026-05-04T14:13:10.955Z</time></trkpt><trkpt lat="44.75483479304093" lon="9.69571370758903"><ele>707.0</ele><time>2026-05-04T14:13:11.955Z</time></trkpt><trkpt lat="44.754806209344444" lon="9.695867265901745"><ele>707.0</ele><time>2026-05-04T14:13:12.955Z</time></trkpt><trkpt lat="44.754810200470345" lon="9.696003634786257"><ele>707.0</ele><time>2026-05-04T14:13:13.955Z</time></trkpt><trkpt lat="44.75486541611575" lon="9.696154493914463"><ele>707.0</ele><time>2026-05-04T14:13:14.955Z</time></trkpt><trkpt lat="44.754956259423615" lon="9.69627236613076"><ele>708.5</ele><time>2026-05-04T14:13:15.955Z</time></trkpt><trkpt lat="44.75507365181154" lon="9.69635384932717"><ele>710.0</ele><time>2026-05-04T14:13:16.955Z</time></trkpt><trkpt lat="44.75519173847106" lon="9.69643208393118"><ele>711.5</ele><time>2026-05-04T14:13:17.955Z</time></trkpt><trkpt lat="44.7553005999599" lon="9.696521382286942"><ele>713.0</ele><time>2026-05-04T14:13:18.955Z</time></trkpt><trkpt lat="44.75539693641609" lon="9.69662417190021"><ele>709.25</ele><time>2026-05-04T14:13:19.955Z</time></trkpt><trkpt lat="44.755491623366765" lon="9.696739662477107"><ele>705.5</ele><time>2026-05-04T14:13:20.955Z</time></trkpt><trkpt lat="44.75556951362915" lon="9.696891367298939"><ele>701.75</ele><time>2026-05-04T14:13:21.955Z</time></trkpt><trkpt lat="44.75560761035108" lon="9.697074216013169"><ele>698.0</ele><time>2026-05-04T14:13:22.955Z</time></trkpt><trkpt lat="44.75561812489714" lon="9.697263241961494"><ele>698.0</ele><time>2026-05-04T14:13:23.955Z</time></trkpt><trkpt lat="44.755651091897924" lon="9.697421631390721"><ele>698.0</ele><time>2026-05-04T14:13:24.955Z</time></trkpt><trkpt lat="44.755698861368444" lon="9.697560666511915"><ele>698.0</ele><time>2026-05-04T14:13:25.955Z</time></trkpt><trkpt lat="44.75575969801224" lon="9.697691279702934"><ele>698.0</ele><time>2026-05-04T14:13:26.956Z</time></trkpt><trkpt lat="44.75581643921629" lon="9.697793525516037"><ele>698.0</ele><time>2026-05-04T14:13:27.956Z</time></trkpt><trkpt lat="44.75585729180147" lon="9.697862499392775"><ele>698.5714285714286</ele><time>2026-05-04T14:13:28.956Z</time></trkpt><trkpt lat="44.755910186862096" lon="9.697933718247823"><ele>699.1428571428571</ele><time>2026-05-04T14:13:30.955Z</time></trkpt><trkpt lat="44.755949672640114" lon="9.698003104738449"><ele>699.7142857142858</ele><time>2026-05-04T14:13:33.955Z</time></trkpt><trkpt lat="44.755965505701894" lon="9.698130543301174"><ele>700.2857142857142</ele><time>2026-05-04T14:13:35.955Z</time></trkpt><trkpt lat="44.755981535661036" lon="9.698226826659514"><ele>700.8571428571429</ele><time>2026-05-04T14:13:36.955Z</time></trkpt><trkpt lat="44.75600639539114" lon="9.698321629126367"><ele>701.4285714285714</ele><time>2026-05-04T14:13:37.955Z</time></trkpt><trkpt lat="44.756034976798055" lon="9.698415996446974"><ele>702.0</ele><time>2026-05-04T14:13:38.956Z</time></trkpt><trkpt lat="44.756051928586736" lon="9.698517298269259"><ele>701.0</ele><time>2026-05-04T14:13:39.956Z</time></trkpt><trkpt lat="44.7560679938962" lon="9.69868491316005"><ele>700.0</ele><time>2026-05-04T14:13:41.956Z</time></trkpt><trkpt lat="44.756086117034364" lon="9.698770732105151"><ele>699.0</ele><time>2026-05-04T14:13:44.956Z</time></trkpt><trkpt lat="44.7561786705264" lon="9.698831965484992"><ele>698.0</ele><time>2026-05-04T14:13:46.955Z</time></trkpt><trkpt lat="44.75627143565136" lon="9.69883328136659"><ele>697.0</ele><time>2026-05-04T14:13:48.955Z</time></trkpt><trkpt lat="44.7563661671248" lon="9.698855850352814"><ele>697.0</ele><time>2026-05-04T14:13:50.955Z</time></trkpt><trkpt lat="44.75647936639219" lon="9.698960670062975"><ele>697.0</ele><time>2026-05-04T14:13:52.955Z</time></trkpt><trkpt lat="44.7565457725658" lon="9.699006199266936"><ele>697.0</ele><time>2026-05-04T14:13:53.955Z</time></trkpt><trkpt lat="44.756611687155875" lon="9.69904747512911"><ele>697.0</ele><time>2026-05-04T14:13:54.955Z</time></trkpt><trkpt lat="44.75667052638224" lon="9.699095430629656"><ele>697.0</ele><time>2026-05-04T14:13:55.955Z</time></trkpt><trkpt lat="44.756736872258585" lon="9.699155815750645"><ele>697.0</ele><time>2026-05-04T14:13:56.955Z</time></trkpt><trkpt lat="44.7568040066757" lon="9.699228582295417"><ele>695.1666666666667</ele><time>2026-05-04T14:13:57.955Z</time></trkpt><trkpt lat="44.756874162527616" lon="9.699303581507246"><ele>693.3333333333334</ele><time>2026-05-04T14:13:58.955Z</time></trkpt><trkpt lat="44.75693810521621" lon="9.699378763041858"><ele>691.5</ele><time>2026-05-04T14:13:59.955Z</time></trkpt><trkpt lat="44.75699247023745" lon="9.699451075012579"><ele>689.6666666666666</ele><time>2026-05-04T14:14:00.955Z</time></trkpt><trkpt lat="44.75704803131041" lon="9.699525219621384"><ele>687.8333333333333</ele><time>2026-05-04T14:14:01.955Z</time></trkpt><trkpt lat="44.75710584155433" lon="9.699602453223216"><ele>686.0</ele><time>2026-05-04T14:14:02.955Z</time></trkpt><trkpt lat="44.75716442975136" lon="9.699681603794561"><ele>686.0</ele><time>2026-05-04T14:14:03.955Z</time></trkpt><trkpt lat="44.75721375556728" lon="9.699743222926093"><ele>686.0</ele><time>2026-05-04T14:14:04.955Z</time></trkpt><trkpt lat="44.75729622276904" lon="9.699844344743974"><ele>686.0</ele><time>2026-05-04T14:14:06.955Z</time></trkpt><trkpt lat="44.757371188797876" lon="9.699941845921144"><ele>686.0</ele><time>2026-05-04T14:14:08.955Z</time></trkpt><trkpt lat="44.757393394107474" lon="9.700035555971647"><ele>686.0</ele><time>2026-05-04T14:14:10.955Z</time></trkpt><trkpt lat="44.75732473546994" lon="9.700159215878408"><ele>686.0</ele><time>2026-05-04T14:14:12.955Z</time></trkpt><trkpt lat="44.7572783809425" lon="9.700228287922155"><ele>686.0</ele><time>2026-05-04T14:14:13.955Z</time></trkpt><trkpt lat="44.75722548412061" lon="9.700310747720318"><ele>686.0</ele><time>2026-05-04T14:14:14.955Z</time></trkpt><trkpt lat="44.757165754725825" lon="9.700409938775769"><ele>686.0</ele><time>2026-05-04T14:14:15.955Z</time></trkpt><trkpt lat="44.75710982913914" lon="9.700526568803818"><ele>686.0</ele><time>2026-05-04T14:14:16.955Z</time></trkpt><trkpt lat="44.75706205686877" lon="9.700659188215042"><ele>686.0</ele><time>2026-05-04T14:14:17.955Z</time></trkpt><trkpt lat="44.75703049839178" lon="9.70078982282594"><ele>686.5999999999999</ele><time>2026-05-04T14:14:18.955Z</time></trkpt><trkpt lat="44.757020734014795" lon="9.70091322264266"><ele>687.2</ele><time>2026-05-04T14:14:19.955Z</time></trkpt><trkpt lat="44.7570285340677" lon="9.701014389187867"><ele>687.8</ele><time>2026-05-04T14:14:20.955Z</time></trkpt><trkpt lat="44.757053144922715" lon="9.701168379752342"><ele>688.4000000000001</ele><time>2026-05-04T14:14:21.955Z</time></trkpt><trkpt lat="44.75709126760531" lon="9.70132945100784"><ele>689.0</ele><time>2026-05-04T14:14:22.955Z</time></trkpt><trkpt lat="44.75714630109746" lon="9.701501020914142"><ele>689.8000000000001</ele><time>2026-05-04T14:14:23.955Z</time></trkpt><trkpt lat="44.75719318367413" lon="9.701661733100442"><ele>690.6</ele><time>2026-05-04T14:14:24.955Z</time></trkpt><trkpt lat="44.75723260546527" lon="9.701807337145144"><ele>691.4</ele><time>2026-05-04T14:14:25.955Z</time></trkpt><trkpt lat="44.757261982579045" lon="9.701922051702875"><ele>692.2</ele><time>2026-05-04T14:14:26.955Z</time></trkpt><trkpt lat="44.75725342716842" lon="9.702030096198706"><ele>693.0</ele><time>2026-05-04T14:14:27.955Z</time></trkpt><trkpt lat="44.75720620049517" lon="9.702112746601316"><ele>694.2</ele><time>2026-05-04T14:14:28.955Z</time></trkpt><trkpt lat="44.75713405818284" lon="9.702180865035833"><ele>695.4</ele><time>2026-05-04T14:14:29.955Z</time></trkpt><trkpt lat="44.75703852751963" lon="9.70221415185095"><ele>696.6</ele><time>2026-05-04T14:14:30.955Z</time></trkpt><trkpt lat="44.7569306553357" lon="9.702215443772385"><ele>697.8000000000001</ele><time>2026-05-04T14:14:31.955Z</time></trkpt><trkpt lat="44.75681049454019" lon="9.702190190815775"><ele>699.0</ele><time>2026-05-04T14:14:32.955Z</time></trkpt><trkpt lat="44.75668170094153" lon="9.702171841359494"><ele>702.6666666666666</ele><time>2026-05-04T14:14:33.955Z</time></trkpt><trkpt lat="44.75653990340127" lon="9.702177212019386"><ele>706.3333333333333</ele><time>2026-05-04T14:14:34.955Z</time></trkpt><trkpt lat="44.75639242989727" lon="9.702215474612206"><ele>710.0</ele><time>2026-05-04T14:14:35.955Z</time></trkpt><trkpt lat="44.756237433659884" lon="9.702265579030211"><ele>710.0</ele><time>2026-05-04T14:14:36.955Z</time></trkpt><trkpt lat="44.756082133482224" lon="9.702311072359276"><ele>710.0</ele><time>2026-05-04T14:14:37.955Z</time></trkpt><trkpt lat="44.75591700615654" lon="9.702357130827709"><ele>710.0</ele><time>2026-05-04T14:14:38.955Z</time></trkpt><trkpt lat="44.75574111683715" lon="9.702399549582015"><ele>711.6666666666666</ele><time>2026-05-04T14:14:39.955Z</time></trkpt><trkpt lat="44.75556842922238" lon="9.702441138865467"><ele>713.3333333333334</ele><time>2026-05-04T14:14:40.955Z</time></trkpt><trkpt lat="44.755401187885255" lon="9.702490031418696"><ele>715.0</ele><time>2026-05-04T14:14:41.955Z</time></trkpt><trkpt lat="44.755252185697984" lon="9.702540828793332"><ele>718.0</ele><time>2026-05-04T14:14:42.955Z</time></trkpt><trkpt lat="44.755127679413356" lon="9.702605141987744"><ele>721.0</ele><time>2026-05-04T14:14:43.955Z</time></trkpt><trkpt lat="44.75500771187233" lon="9.702660761519674"><ele>724.0</ele><time>2026-05-04T14:14:44.955Z</time></trkpt><trkpt lat="44.75488099896157" lon="9.702681231192829"><ele>727.0</ele><time>2026-05-04T14:14:45.955Z</time></trkpt><trkpt lat="44.754753702248976" lon="9.702654293309873"><ele>727.0</ele><time>2026-05-04T14:14:46.955Z</time></trkpt><trkpt lat="44.754634298176335" lon="9.70263819197263"><ele>727.0</ele><time>2026-05-04T14:14:47.955Z</time></trkpt><trkpt lat="44.7545352225104" lon="9.702638220020688"><ele>727.0</ele><time>2026-05-04T14:14:48.955Z</time></trkpt><trkpt lat="44.754426661240515" lon="9.702715356964703"><ele>727.0</ele><time>2026-05-04T14:14:49.955Z</time></trkpt><trkpt lat="44.754327579501435" lon="9.702869319053013"><ele>730.0</ele><time>2026-05-04T14:14:50.955Z</time></trkpt><trkpt lat="44.754223259273815" lon="9.702995258173694"><ele>733.0</ele><time>2026-05-04T14:14:51.955Z</time></trkpt><trkpt lat="44.75409661760415" lon="9.703098170566442"><ele>736.0</ele><time>2026-05-04T14:14:52.955Z</time></trkpt><trkpt lat="44.75395251070898" lon="9.703178277398289"><ele>739.0</ele><time>2026-05-04T14:14:53.955Z</time></trkpt><trkpt lat="44.753812165254345" lon="9.70323740821843"><ele>739.0</ele><time>2026-05-04T14:14:54.955Z</time></trkpt><trkpt lat="44.753703465865215" lon="9.703292983836352"><ele>739.0</ele><time>2026-05-04T14:14:55.955Z</time></trkpt><trkpt lat="44.753658925353974" lon="9.703369885704298"><ele>739.0</ele><time>2026-05-04T14:14:56.955Z</time></trkpt><trkpt lat="44.75364423684352" lon="9.70349062761879"><ele>739.0</ele><time>2026-05-04T14:14:57.955Z</time></trkpt><trkpt lat="44.75365500376774" lon="9.703635379217905"><ele>739.0</ele><time>2026-05-04T14:14:58.955Z</time></trkpt><trkpt lat="44.75370117948483" lon="9.703811551973443"><ele>740.75</ele><time>2026-05-04T14:14:59.955Z</time></trkpt><trkpt lat="44.75374562794771" lon="9.704010667770278"><ele>742.5</ele><time>2026-05-04T14:15:00.955Z</time></trkpt><trkpt lat="44.753771489783595" lon="9.704203746683849"><ele>744.25</ele><time>2026-05-04T14:15:01.955Z</time></trkpt><trkpt lat="44.75380145429732" lon="9.704343739584226"><ele>746.0</ele><time>2026-05-04T14:15:02.955Z</time></trkpt><trkpt lat="44.75384598553052" lon="9.704464909829134"><ele>749.8</ele><time>2026-05-04T14:15:03.955Z</time></trkpt><trkpt lat="44.7539024976111" lon="9.70458138488234"><ele>753.5999999999999</ele><time>2026-05-04T14:15:04.955Z</time></trkpt><trkpt lat="44.753979054860764" lon="9.704693249971918"><ele>757.4</ele><time>2026-05-04T14:15:05.955Z</time></trkpt><trkpt lat="44.754078370869735" lon="9.704771548875993"><ele>761.2</ele><time>2026-05-04T14:15:06.955Z</time></trkpt><trkpt lat="44.75418188398211" lon="9.704841852759438"><ele>765.0</ele><time>2026-05-04T14:15:07.955Z</time></trkpt><trkpt lat="44.75429129975151" lon="9.704886845368668"><ele>764.6</ele><time>2026-05-04T14:15:08.955Z</time></trkpt><trkpt lat="44.7544169380725" lon="9.704902086231387"><ele>764.2</ele><time>2026-05-04T14:15:09.955Z</time></trkpt><trkpt lat="44.75453496684244" lon="9.704911011927067"><ele>763.8</ele><time>2026-05-04T14:15:10.955Z</time></trkpt><trkpt lat="44.75464194439574" lon="9.70492029919663"><ele>763.4</ele><time>2026-05-04T14:15:11.955Z</time></trkpt><trkpt lat="44.75472045249422" lon="9.704965535682629"><ele>763.0</ele><time>2026-05-04T14:15:12.955Z</time></trkpt><trkpt lat="44.75480062766318" lon="9.705048231705803"><ele>763.0</ele><time>2026-05-04T14:15:13.955Z</time></trkpt><trkpt lat="44.75488120054171" lon="9.705170419643723"><ele>763.0</ele><time>2026-05-04T14:15:14.955Z</time></trkpt><trkpt lat="44.75493919545905" lon="9.705303653010187"><ele>763.0</ele><time>2026-05-04T14:15:15.955Z</time></trkpt><trkpt lat="44.75503794629141" lon="9.705436088183324"><ele>763.0</ele><time>2026-05-04T14:15:16.955Z</time></trkpt><trkpt lat="44.7551582896179" lon="9.705518467578981"><ele>765.5</ele><time>2026-05-04T14:15:17.955Z</time></trkpt><trkpt lat="44.755277045575745" lon="9.705589628546704"><ele>768.0</ele><time>2026-05-04T14:15:18.955Z</time></trkpt><trkpt lat="44.755392717674" lon="9.70568103579123"><ele>770.5</ele><time>2026-05-04T14:15:19.955Z</time></trkpt><trkpt lat="44.75550547354158" lon="9.70580929734896"><ele>773.0</ele><time>2026-05-04T14:15:20.955Z</time></trkpt><trkpt lat="44.75559207764098" lon="9.705918340837025"><ele>773.0</ele><time>2026-05-04T14:15:21.955Z</time></trkpt><trkpt lat="44.75567340864293" lon="9.705996808310692"><ele>773.0</ele><time>2026-05-04T14:15:22.955Z</time></trkpt><trkpt lat="44.75576278999246" lon="9.706043429361452"><ele>773.0</ele><time>2026-05-04T14:15:23.955Z</time></trkpt><trkpt lat="44.75584092169013" lon="9.706056084332435"><ele>773.0</ele><time>2026-05-04T14:15:24.955Z</time></trkpt><trkpt lat="44.75594939417394" lon="9.706093782392509"><ele>773.0</ele><time>2026-05-04T14:15:26.955Z</time></trkpt><trkpt lat="44.756003797907624" lon="9.706162353823178"><ele>773.8</ele><time>2026-05-04T14:15:28.955Z</time></trkpt><trkpt lat="44.7560384976117" lon="9.70625537481656"><ele>774.5999999999999</ele><time>2026-05-04T14:15:43.955Z</time></trkpt><trkpt lat="44.756095822678766" lon="9.706407189584686"><ele>775.4000000000001</ele><time>2026-05-04T14:15:45.955Z</time></trkpt><trkpt lat="44.75612347256196" lon="9.706521570245608"><ele>776.2</ele><time>2026-05-04T14:15:46.955Z</time></trkpt><trkpt lat="44.756138691859036" lon="9.706665351307818"><ele>777.0</ele><time>2026-05-04T14:15:47.955Z</time></trkpt><trkpt lat="44.75612068686713" lon="9.706784421429003"><ele>777.0</ele><time>2026-05-04T14:15:48.955Z</time></trkpt><trkpt lat="44.75606989675756" lon="9.706894727128136"><ele>777.0</ele><time>2026-05-04T14:15:49.955Z</time></trkpt><trkpt lat="44.75599195968036" lon="9.706987822633927"><ele>777.0</ele><time>2026-05-04T14:15:50.955Z</time></trkpt><trkpt lat="44.75589771954503" lon="9.707046272779664"><ele>777.0</ele><time>2026-05-04T14:15:51.954Z</time></trkpt><trkpt lat="44.75580117739793" lon="9.707058071792568"><ele>777.0</ele><time>2026-05-04T14:15:52.954Z</time></trkpt><trkpt lat="44.75571152654998" lon="9.707025508330267"><ele>778.2</ele><time>2026-05-04T14:15:53.954Z</time></trkpt><trkpt lat="44.75562006070149" lon="9.706967920434689"><ele>779.4000000000001</ele><time>2026-05-04T14:15:54.954Z</time></trkpt><trkpt lat="44.75552089284998" lon="9.706913776561471"><ele>780.5999999999999</ele><time>2026-05-04T14:15:55.954Z</time></trkpt><trkpt lat="44.755408617985104" lon="9.706854059001092"><ele>781.8</ele><time>2026-05-04T14:15:56.954Z</time></trkpt><trkpt lat="44.75531373338861" lon="9.706791927791652"><ele>783.0</ele><time>2026-05-04T14:15:57.954Z</time></trkpt><trkpt lat="44.75523689547759" lon="9.706729657597608"><ele>784.1666666666666</ele><time>2026-05-04T14:15:58.954Z</time></trkpt><trkpt lat="44.75516971482803" lon="9.706677833136341"><ele>785.3333333333333</ele><time>2026-05-04T14:15:59.954Z</time></trkpt><trkpt lat="44.75510308474283" lon="9.706652495495275"><ele>786.5</ele><time>2026-05-04T14:16:00.954Z</time></trkpt><trkpt lat="44.755028360661996" lon="9.706648097427026"><ele>787.6666666666666</ele><time>2026-05-04T14:16:01.954Z</time></trkpt><trkpt lat="44.75494633287509" lon="9.706684397307553"><ele>788.8333333333333</ele><time>2026-05-04T14:16:02.954Z</time></trkpt><trkpt lat="44.75487809990401" lon="9.70676769103571"><ele>790.0</ele><time>2026-05-04T14:16:03.954Z</time></trkpt><trkpt lat="44.75481166736831" lon="9.706881114144807"><ele>793.4</ele><time>2026-05-04T14:16:04.954Z</time></trkpt><trkpt lat="44.75477027591018" lon="9.706998589695774"><ele>796.8</ele><time>2026-05-04T14:16:05.954Z</time></trkpt><trkpt lat="44.75477703987684" lon="9.707121045762696"><ele>800.2</ele><time>2026-05-04T14:16:06.954Z</time></trkpt><trkpt lat="44.754815119052125" lon="9.707244170446392"><ele>803.6</ele><time>2026-05-04T14:16:07.954Z</time></trkpt><trkpt lat="44.75489451829124" lon="9.707361720730475"><ele>807.0</ele><time>2026-05-04T14:16:08.954Z</time></trkpt><trkpt lat="44.75500036110993" lon="9.70742934194815"><ele>807.0</ele><time>2026-05-04T14:16:09.954Z</time></trkpt><trkpt lat="44.755115528507844" lon="9.707471671320445"><ele>807.0</ele><time>2026-05-04T14:16:10.954Z</time></trkpt><trkpt lat="44.75523275806817" lon="9.707521941406986"><ele>807.0</ele><time>2026-05-04T14:16:11.954Z</time></trkpt><trkpt lat="44.7553488394807" lon="9.70757358794489"><ele>807.0</ele><time>2026-05-04T14:16:12.954Z</time></trkpt><trkpt lat="44.75544123926279" lon="9.707618022665814"><ele>806.8</ele><time>2026-05-04T14:16:13.954Z</time></trkpt><trkpt lat="44.75551132357372" lon="9.707659787780507"><ele>806.6</ele><time>2026-05-04T14:16:14.954Z</time></trkpt><trkpt lat="44.7556107064341" lon="9.707729967980592"><ele>806.4</ele><time>2026-05-04T14:16:16.954Z</time></trkpt><trkpt lat="44.75564658560136" lon="9.70790148082055"><ele>806.1999999999999</ele><time>2026-05-04T14:16:18.954Z</time></trkpt><trkpt lat="44.75562678808849" lon="9.708011013609624"><ele>806.0</ele><time>2026-05-04T14:16:19.954Z</time></trkpt><trkpt lat="44.7555786070304" lon="9.708108288719393"><ele>810.0</ele><time>2026-05-04T14:16:20.954Z</time></trkpt><trkpt lat="44.75549975733157" lon="9.70818387789281"><ele>814.0</ele><time>2026-05-04T14:16:21.954Z</time></trkpt><trkpt lat="44.75539712148259" lon="9.708220884213924"><ele>818.0</ele><time>2026-05-04T14:16:22.954Z</time></trkpt><trkpt lat="44.755281530636736" lon="9.7082469832915"><ele>822.0</ele><time>2026-05-04T14:16:23.954Z</time></trkpt><trkpt lat="44.75515722130392" lon="9.708258563903287"><ele>826.0</ele><time>2026-05-04T14:16:24.954Z</time></trkpt><trkpt lat="44.75503595501851" lon="9.708236677596258"><ele>826.0</ele><time>2026-05-04T14:16:25.954Z</time></trkpt><trkpt lat="44.754941838716526" lon="9.708165803079748"><ele>826.0</ele><time>2026-05-04T14:16:26.954Z</time></trkpt><trkpt lat="44.754847337143026" lon="9.708075699760679"><ele>826.0</ele><time>2026-05-04T14:16:27.954Z</time></trkpt><trkpt lat="44.75474453226164" lon="9.707989464405955"><ele>826.0</ele><time>2026-05-04T14:16:28.954Z</time></trkpt><trkpt lat="44.754634810149994" lon="9.707933594740428"><ele>826.0</ele><time>2026-05-04T14:16:29.954Z</time></trkpt><trkpt lat="44.75451811706194" lon="9.707891967188356"><ele>826.0</ele><time>2026-05-04T14:16:30.954Z</time></trkpt><trkpt lat="44.75440411580655" lon="9.707854382280935"><ele>826.0</ele><time>2026-05-04T14:16:31.954Z</time></trkpt><trkpt lat="44.754302862630986" lon="9.707816618755368"><ele>826.0</ele><time>2026-05-04T14:16:32.954Z</time></trkpt><trkpt lat="44.754200263889956" lon="9.70777300527487"><ele>826.0</ele><time>2026-05-04T14:16:33.954Z</time></trkpt><trkpt lat="44.754106025481626" lon="9.70771346169389"><ele>824.3333333333333</ele><time>2026-05-04T14:16:34.954Z</time></trkpt><trkpt lat="44.75404016226886" lon="9.707649050776327"><ele>822.6666666666666</ele><time>2026-05-04T14:16:35.954Z</time></trkpt><trkpt lat="44.75397498145023" lon="9.707585245915505"><ele>821.0</ele><time>2026-05-04T14:16:36.954Z</time></trkpt><trkpt lat="44.75391421616508" lon="9.707542929003596"><ele>819.3333333333333</ele><time>2026-05-04T14:16:37.954Z</time></trkpt><trkpt lat="44.753833089699896" lon="9.707459492196962"><ele>817.6666666666666</ele><time>2026-05-04T14:16:39.954Z</time></trkpt><trkpt lat="44.753764232852674" lon="9.707360425455333"><ele>816.0</ele><time>2026-05-04T14:16:41.954Z</time></trkpt><trkpt lat="44.75365765847036" lon="9.707304177427494"><ele>816.0</ele><time>2026-05-04T14:16:43.954Z</time></trkpt><trkpt lat="44.753544446621916" lon="9.707336278417648"><ele>816.0</ele><time>2026-05-04T14:16:45.954Z</time></trkpt><trkpt lat="44.75347699630331" lon="9.707467767577784"><ele>816.0</ele><time>2026-05-04T14:16:47.954Z</time></trkpt><trkpt lat="44.75344367387502" lon="9.707562090064728"><ele>816.0</ele><time>2026-05-04T14:16:48.954Z</time></trkpt><trkpt lat="44.75338719026798" lon="9.707639532725633"><ele>816.0</ele><time>2026-05-04T14:16:49.954Z</time></trkpt><trkpt lat="44.75329728615393" lon="9.707704293584708"><ele>819.25</ele><time>2026-05-04T14:16:50.954Z</time></trkpt><trkpt lat="44.75319107957792" lon="9.707764931649814"><ele>822.5</ele><time>2026-05-04T14:16:51.954Z</time></trkpt><trkpt lat="44.75309367880179" lon="9.70785639156153"><ele>825.75</ele><time>2026-05-04T14:16:52.954Z</time></trkpt><trkpt lat="44.752997832171204" lon="9.707964555063723"><ele>829.0</ele><time>2026-05-04T14:16:53.954Z</time></trkpt><trkpt lat="44.752893117693795" lon="9.70806668462055"><ele>829.0</ele><time>2026-05-04T14:16:54.954Z</time></trkpt><trkpt lat="44.7527718852701" lon="9.708165199304828"><ele>829.0</ele><time>2026-05-04T14:16:55.954Z</time></trkpt><trkpt lat="44.752648025466144" lon="9.708268933951494"><ele>829.0</ele><time>2026-05-04T14:16:56.954Z</time></trkpt><trkpt lat="44.75251556119691" lon="9.708393874027538"><ele>829.0</ele><time>2026-05-04T14:16:57.954Z</time></trkpt><trkpt lat="44.75237612133527" lon="9.708513633375446"><ele>832.0</ele><time>2026-05-04T14:16:58.954Z</time></trkpt><trkpt lat="44.75224286740363" lon="9.708624849095283"><ele>835.0</ele><time>2026-05-04T14:16:59.954Z</time></trkpt><trkpt lat="44.752105423866176" lon="9.708738706317666"><ele>838.0</ele><time>2026-05-04T14:17:00.954Z</time></trkpt><trkpt lat="44.75197212389793" lon="9.708844675462652"><ele>840.75</ele><time>2026-05-04T14:17:01.954Z</time></trkpt><trkpt lat="44.75184497637478" lon="9.708919608144358"><ele>843.5</ele><time>2026-05-04T14:17:02.954Z</time></trkpt><trkpt lat="44.7517273085714" lon="9.708955749053965"><ele>846.25</ele><time>2026-05-04T14:17:03.954Z</time></trkpt><trkpt lat="44.75160885248388" lon="9.708955720310106"><ele>849.0</ele><time>2026-05-04T14:17:04.954Z</time></trkpt><trkpt lat="44.75149897944466" lon="9.708930719581545"><ele>849.0</ele><time>2026-05-04T14:17:05.954Z</time></trkpt><trkpt lat="44.75141363640177" lon="9.70890456293563"><ele>849.0</ele><time>2026-05-04T14:17:06.954Z</time></trkpt><trkpt lat="44.75133133772529" lon="9.708902634705659"><ele>849.0</ele><time>2026-05-04T14:17:07.954Z</time></trkpt><trkpt lat="44.75124145163243" lon="9.708932042623989"><ele>849.0</ele><time>2026-05-04T14:17:08.954Z</time></trkpt><trkpt lat="44.751149525603836" lon="9.709076128319483"><ele>849.0</ele><time>2026-05-04T14:17:09.954Z</time></trkpt><trkpt lat="44.75106637009383" lon="9.709223164752714"><ele>849.75</ele><time>2026-05-04T14:17:10.954Z</time></trkpt><trkpt lat="44.75098124228678" lon="9.70935849962571"><ele>850.5</ele><time>2026-05-04T14:17:11.954Z</time></trkpt><trkpt lat="44.75089385169687" lon="9.709487021449647"><ele>851.25</ele><time>2026-05-04T14:17:12.954Z</time></trkpt><trkpt lat="44.75079745631789" lon="9.70960994120833"><ele>852.0</ele><time>2026-05-04T14:17:13.954Z</time></trkpt><trkpt lat="44.750703329859405" lon="9.7097317060807"><ele>857.25</ele><time>2026-05-04T14:17:14.954Z</time></trkpt><trkpt lat="44.75061495205463" lon="9.709861259736519"><ele>862.5</ele><time>2026-05-04T14:17:15.954Z</time></trkpt><trkpt lat="44.750527449137834" lon="9.709984800639898"><ele>867.75</ele><time>2026-05-04T14:17:16.954Z</time></trkpt><trkpt lat="44.75044089970605" lon="9.710070671288452"><ele>873.0</ele><time>2026-05-04T14:17:17.954Z</time></trkpt><trkpt lat="44.75034587519771" lon="9.71009452736337"><ele>873.0</ele><time>2026-05-04T14:17:18.954Z</time></trkpt><trkpt lat="44.750240578343835" lon="9.710067617801009"><ele>873.0</ele><time>2026-05-04T14:17:19.954Z</time></trkpt><trkpt lat="44.750130181401424" lon="9.710007831759603"><ele>873.0</ele><time>2026-05-04T14:17:20.954Z</time></trkpt><trkpt lat="44.75004639561074" lon="9.709917305789777"><ele>873.0</ele><time>2026-05-04T14:17:21.954Z</time></trkpt><trkpt lat="44.74996745806835" lon="9.709783488445812"><ele>870.75</ele><time>2026-05-04T14:17:22.954Z</time></trkpt><trkpt lat="44.74989283521279" lon="9.70963263287275"><ele>868.5</ele><time>2026-05-04T14:17:23.954Z</time></trkpt><trkpt lat="44.74981155075212" lon="9.709520522888456"><ele>866.25</ele><time>2026-05-04T14:17:24.954Z</time></trkpt><trkpt lat="44.74972095438971" lon="9.709446407460472"><ele>864.0</ele><time>2026-05-04T14:17:25.954Z</time></trkpt><trkpt lat="44.74961161868422" lon="9.709428878368279"><ele>864.0</ele><time>2026-05-04T14:17:26.954Z</time></trkpt><trkpt lat="44.749492967450735" lon="9.709444428736646"><ele>864.0</ele><time>2026-05-04T14:17:27.954Z</time></trkpt><trkpt lat="44.74936453936014" lon="9.709496781463844"><ele>864.0</ele><time>2026-05-04T14:17:28.954Z</time></trkpt><trkpt lat="44.7492325855663" lon="9.70958366601057"><ele>864.0</ele><time>2026-05-04T14:17:29.954Z</time></trkpt><trkpt lat="44.749099815329416" lon="9.709658566608995"><ele>867.25</ele><time>2026-05-04T14:17:30.954Z</time></trkpt><trkpt lat="44.74896376028477" lon="9.709683691469564"><ele>870.5</ele><time>2026-05-04T14:17:31.954Z</time></trkpt><trkpt lat="44.74882382594061" lon="9.709681324962029"><ele>873.75</ele><time>2026-05-04T14:17:32.954Z</time></trkpt><trkpt lat="44.74868443958635" lon="9.709671079989036"><ele>877.0</ele><time>2026-05-04T14:17:33.954Z</time></trkpt><trkpt lat="44.748542916596136" lon="9.709649704001823"><ele>878.5</ele><time>2026-05-04T14:17:34.954Z</time></trkpt><trkpt lat="44.74840975256686" lon="9.709605650612417"><ele>880.0</ele><time>2026-05-04T14:17:35.954Z</time></trkpt><trkpt lat="44.74829366252708" lon="9.709526529565252"><ele>881.5</ele><time>2026-05-04T14:17:36.954Z</time></trkpt><trkpt lat="44.74818734934742" lon="9.709430008493117"><ele>883.0</ele><time>2026-05-04T14:17:37.955Z</time></trkpt><trkpt lat="44.74807854763877" lon="9.70932403604804"><ele>883.0</ele><time>2026-05-04T14:17:38.955Z</time></trkpt><trkpt lat="44.747956331283696" lon="9.709203099585764"><ele>883.0</ele><time>2026-05-04T14:17:39.955Z</time></trkpt><trkpt lat="44.74782759443213" lon="9.709083476976385"><ele>883.0</ele><time>2026-05-04T14:17:40.955Z</time></trkpt><trkpt lat="44.74770066916368" lon="9.708971482107337"><ele>885.4</ele><time>2026-05-04T14:17:41.954Z</time></trkpt><trkpt lat="44.74759141035928" lon="9.70887164808632"><ele>887.8</ele><time>2026-05-04T14:17:42.954Z</time></trkpt><trkpt lat="44.74749876652837" lon="9.70878232118672"><ele>890.2</ele><time>2026-05-04T14:17:43.954Z</time></trkpt><trkpt lat="44.747427030773196" lon="9.708721086570797"><ele>892.6</ele><time>2026-05-04T14:17:44.955Z</time></trkpt><trkpt lat="44.74737031240683" lon="9.70865435804159"><ele>895.0</ele><time>2026-05-04T14:17:47.954Z</time></trkpt><trkpt lat="44.74737713301873" lon="9.708766070815066"><ele>894.9999999999999</ele><time>2026-05-04T14:18:13.954Z</time></trkpt><trkpt lat="44.74741662123932" lon="9.708862003082263"><ele>895.0</ele><time>2026-05-04T14:18:15.954Z</time></trkpt><trkpt lat="44.74745625546694" lon="9.708957855624408"><ele>895.0</ele><time>2026-05-04T14:18:17.954Z</time></trkpt><trkpt lat="44.747475497040654" lon="9.709061497161889"><ele>895.0</ele><time>2026-05-04T14:18:19.954Z</time></trkpt><trkpt lat="44.747505495957235" lon="9.709186857079409"><ele>894.9999999999999</ele><time>2026-05-04T14:18:21.954Z</time></trkpt><trkpt lat="44.747565271441324" lon="9.709308889046072"><ele>895.0</ele><time>2026-05-04T14:18:23.954Z</time></trkpt><trkpt lat="44.747618119650745" lon="9.709436831255031"><ele>894.6</ele><time>2026-05-04T14:18:25.954Z</time></trkpt><trkpt lat="44.74769047945511" lon="9.709580312173525"><ele>894.2</ele><time>2026-05-04T14:18:27.954Z</time></trkpt><trkpt lat="44.74772325383777" lon="9.709684204246335"><ele>893.8</ele><time>2026-05-04T14:18:29.954Z</time></trkpt><trkpt lat="44.747707070548934" lon="9.709814877177672"><ele>893.4</ele><time>2026-05-04T14:18:31.954Z</time></trkpt><trkpt lat="44.74770194213154" lon="9.709920903690609"><ele>893.0</ele><time>2026-05-04T14:18:33.954Z</time></trkpt><trkpt lat="44.74775940265153" lon="9.710031586647746"><ele>892.6666666666667</ele><time>2026-05-04T14:18:35.954Z</time></trkpt><trkpt lat="44.7478016892527" lon="9.710107649990812"><ele>892.3333333333334</ele><time>2026-05-04T14:18:36.954Z</time></trkpt><trkpt lat="44.74784659235927" lon="9.710207058899853"><ele>892.0</ele><time>2026-05-04T14:18:37.954Z</time></trkpt><trkpt lat="44.7478869116744" lon="9.71030196803425"><ele>891.6666666666667</ele><time>2026-05-04T14:18:38.954Z</time></trkpt><trkpt lat="44.747929171243925" lon="9.710394002909707"><ele>891.3333333333334</ele><time>2026-05-04T14:18:39.954Z</time></trkpt><trkpt lat="44.747963972161415" lon="9.710490432528957"><ele>891.0</ele><time>2026-05-04T14:18:40.954Z</time></trkpt><trkpt lat="44.74799043094686" lon="9.710576943853493"><ele>893.5999999999999</ele><time>2026-05-04T14:18:41.954Z</time></trkpt><trkpt lat="44.74803615857366" lon="9.710735000080039"><ele>896.1999999999999</ele><time>2026-05-04T14:18:43.954Z</time></trkpt><trkpt lat="44.74806184294005" lon="9.71081759956367"><ele>898.8000000000001</ele><time>2026-05-04T14:18:44.954Z</time></trkpt><trkpt lat="44.74810158918771" lon="9.710898756863934"><ele>901.4000000000001</ele><time>2026-05-04T14:18:45.954Z</time></trkpt><trkpt lat="44.74817470532421" lon="9.711005883218599"><ele>904.0</ele><time>2026-05-04T14:18:47.954Z</time></trkpt><trkpt lat="44.7482347465506" lon="9.711116245330176"><ele>905.8000000000001</ele><time>2026-05-04T14:18:49.954Z</time></trkpt><trkpt lat="44.74824636107675" lon="9.711240994293348"><ele>907.6000000000001</ele><time>2026-05-04T14:18:51.954Z</time></trkpt><trkpt lat="44.74825256934151" lon="9.711366992621025"><ele>909.4</ele><time>2026-05-04T14:18:53.953Z</time></trkpt><trkpt lat="44.74823214231063" lon="9.711507462962427"><ele>911.2</ele><time>2026-05-04T14:18:55.953Z</time></trkpt><trkpt lat="44.7482324740446" lon="9.711671103605676"><ele>913.0</ele><time>2026-05-04T14:18:57.953Z</time></trkpt><trkpt lat="44.74823883497394" lon="9.711802285002696"><ele>912.9999999999999</ele><time>2026-05-04T14:18:59.953Z</time></trkpt><trkpt lat="44.748257173140615" lon="9.711894212661207"><ele>913.0</ele><time>2026-05-04T14:19:00.953Z</time></trkpt><trkpt lat="44.74825442659864" lon="9.71199309081457"><ele>913.0</ele><time>2026-05-04T14:19:01.953Z</time></trkpt><trkpt lat="44.748198866972956" lon="9.712121340175406"><ele>913.0</ele><time>2026-05-04T14:19:03.953Z</time></trkpt><trkpt lat="44.74813514532777" lon="9.71228275571992"><ele>912.9999999999999</ele><time>2026-05-04T14:19:05.953Z</time></trkpt><trkpt lat="44.748118059689475" lon="9.712368684942092"><ele>913.0</ele><time>2026-05-04T14:19:06.953Z</time></trkpt><trkpt lat="44.74808994625465" lon="9.712492287585683"><ele>913.8</ele><time>2026-05-04T14:19:08.953Z</time></trkpt><trkpt lat="44.74805530844612" lon="9.712575879688664"><ele>914.5999999999999</ele><time>2026-05-04T14:19:10.953Z</time></trkpt><trkpt lat="44.74804073732607" lon="9.712694536744243"><ele>915.4000000000001</ele><time>2026-05-04T14:19:12.953Z</time></trkpt><trkpt lat="44.74806784957443" lon="9.712847351444672"><ele>916.2</ele><time>2026-05-04T14:19:14.953Z</time></trkpt><trkpt lat="44.748120028074595" lon="9.713019769314215"><ele>917.0</ele><time>2026-05-04T14:19:16.953Z</time></trkpt><trkpt lat="44.74816503040786" lon="9.713099388465988"><ele>918.0000000000001</ele><time>2026-05-04T14:19:17.953Z</time></trkpt><trkpt lat="44.74823149058303" lon="9.71322626782328"><ele>919.0</ele><time>2026-05-04T14:19:19.953Z</time></trkpt><trkpt lat="44.74829153260592" lon="9.713325838904025"><ele>920.0</ele><time>2026-05-04T14:19:21.953Z</time></trkpt><trkpt lat="44.74833721416902" lon="9.713408976274062"><ele>921.0</ele><time>2026-05-04T14:19:23.953Z</time></trkpt><trkpt lat="44.74835117831389" lon="9.713505616850608"><ele>922.0000000000001</ele><time>2026-05-04T14:19:26.953Z</time></trkpt><trkpt lat="44.74835133212059" lon="9.713620416035644"><ele>923.0</ele><time>2026-05-04T14:21:57.953Z</time></trkpt><trkpt lat="44.74833232103791" lon="9.713708538989447"><ele>924.0000000000001</ele><time>2026-05-04T14:22:01.953Z</time></trkpt><trkpt lat="44.74830673571077" lon="9.713807168113053"><ele>925.0</ele><time>2026-05-04T14:22:09.953Z</time></trkpt><trkpt lat="44.7483362556362" lon="9.713904618575548"><ele>926.0</ele><time>2026-05-04T14:22:18.953Z</time></trkpt><trkpt lat="44.74838838431747" lon="9.713999698468804"><ele>927.0</ele><time>2026-05-04T14:22:21.953Z</time></trkpt><trkpt lat="44.74842521541813" lon="9.714072790770869"><ele>928.0000000000001</ele><time>2026-05-04T14:22:24.953Z</time></trkpt><trkpt lat="44.74846653178298" lon="9.714160152837723"><ele>929.0</ele><time>2026-05-04T14:22:26.953Z</time></trkpt><trkpt lat="44.7485022862966" lon="9.714263459861028"><ele>929.0000000000001</ele><time>2026-05-04T14:22:28.953Z</time></trkpt><trkpt lat="44.74849863060909" lon="9.714374579295615"><ele>929.0</ele><time>2026-05-04T14:22:31.953Z</time></trkpt><trkpt lat="44.74848958228236" lon="9.71447079532858"><ele>929.0</ele><time>2026-05-04T14:22:34.953Z</time></trkpt><trkpt lat="44.74845136255776" lon="9.714568968462187"><ele>929.0</ele><time>2026-05-04T14:22:37.953Z</time></trkpt><trkpt lat="44.74842282853868" lon="9.71467311066055"><ele>929.0000000000001</ele><time>2026-05-04T14:22:40.953Z</time></trkpt><trkpt lat="44.74840603538347" lon="9.714775453647267"><ele>929.0</ele><time>2026-05-04T14:22:43.953Z</time></trkpt><trkpt lat="44.748377156313865" lon="9.71487376936054"><ele>929.0000000000001</ele><time>2026-05-04T14:22:46.953Z</time></trkpt><trkpt lat="44.74833615657032" lon="9.714942035022322"><ele>929.0</ele><time>2026-05-04T14:22:48.953Z</time></trkpt><trkpt lat="44.748288933666444" lon="9.715002292308903"><ele>929.0</ele><time>2026-05-04T14:22:50.953Z</time></trkpt><trkpt lat="44.74823927354449" lon="9.71507018612909"><ele>929.0</ele><time>2026-05-04T14:22:53.953Z</time></trkpt><trkpt lat="44.74819754989193" lon="9.715186130612201"><ele>929.0000000000001</ele><time>2026-05-04T14:22:56.953Z</time></trkpt><trkpt lat="44.74818624256287" lon="9.715293921836293"><ele>929.0</ele><time>2026-05-04T14:22:59.953Z</time></trkpt><trkpt lat="44.748219727503944" lon="9.715412579978997"><ele>929.8333333333334</ele><time>2026-05-04T14:23:01.953Z</time></trkpt><trkpt lat="44.748220251249194" lon="9.715504675901387"><ele>930.6666666666667</ele><time>2026-05-04T14:23:03.953Z</time></trkpt><trkpt lat="44.748197713588524" lon="9.715610635885202"><ele>931.5</ele><time>2026-05-04T14:23:06.953Z</time></trkpt><trkpt lat="44.74817017175343" lon="9.715717981036718"><ele>932.3333333333333</ele><time>2026-05-04T14:23:09.953Z</time></trkpt><trkpt lat="44.74817768971014" lon="9.715841294408689"><ele>933.1666666666666</ele><time>2026-05-04T14:23:11.953Z</time></trkpt><trkpt lat="44.74816599075494" lon="9.715948747561756"><ele>934.0</ele><time>2026-05-04T14:23:13.953Z</time></trkpt><trkpt lat="44.74814070218892" lon="9.716056210012479"><ele>933.8333333333333</ele><time>2026-05-04T14:23:16.953Z</time></trkpt><trkpt lat="44.7481243400268" lon="9.716174092542497"><ele>933.6666666666666</ele><time>2026-05-04T14:23:18.953Z</time></trkpt><trkpt lat="44.74811538952456" lon="9.716317265204845"><ele>933.5</ele><time>2026-05-04T14:23:20.953Z</time></trkpt><trkpt lat="44.748101518491" lon="9.71642116633523"><ele>933.3333333333333</ele><time>2026-05-04T14:23:22.953Z</time></trkpt><trkpt lat="44.748080277816925" lon="9.716525859829241"><ele>933.1666666666666</ele><time>2026-05-04T14:23:24.953Z</time></trkpt><trkpt lat="44.74806394342375" lon="9.716638507452469"><ele>933.0</ele><time>2026-05-04T14:23:26.953Z</time></trkpt><trkpt lat="44.74805054212708" lon="9.716764092019881"><ele>933.0</ele><time>2026-05-04T14:23:28.953Z</time></trkpt><trkpt lat="44.74800686424771" lon="9.71688343624444"><ele>933.0</ele><time>2026-05-04T14:23:30.953Z</time></trkpt><trkpt lat="44.7479767686464" lon="9.717005233826468"><ele>933.0</ele><time>2026-05-04T14:23:33.953Z</time></trkpt><trkpt lat="44.74793751911126" lon="9.717109258683559"><ele>933.0</ele><time>2026-05-04T14:23:35.953Z</time></trkpt><trkpt lat="44.74792424724144" lon="9.717211832698533"><ele>933.0</ele><time>2026-05-04T14:23:37.952Z</time></trkpt><trkpt lat="44.74792577227946" lon="9.71732824547441"><ele>933.0</ele><time>2026-05-04T14:23:39.952Z</time></trkpt><trkpt lat="44.74791091286443" lon="9.717453976786707"><ele>933.0</ele><time>2026-05-04T14:23:41.952Z</time></trkpt><trkpt lat="44.74788479942383" lon="9.717537927796895"><ele>933.0</ele><time>2026-05-04T14:23:43.952Z</time></trkpt><trkpt lat="44.74788466904383" lon="9.717632069393837"><ele>933.0</ele><time>2026-05-04T14:23:49.952Z</time></trkpt><trkpt lat="44.74782973367131" lon="9.717838963138618"><ele>933.0</ele><time>2026-05-04T14:24:52.951Z</time></trkpt><trkpt lat="44.74775275758422" lon="9.717859192320878"><ele>933.0</ele><time>2026-05-04T14:41:02.933Z</time></trkpt><trkpt lat="44.74769032105571" lon="9.717912552351402"><ele>933.0</ele><time>2026-05-04T14:41:07.933Z</time></trkpt><trkpt lat="44.74770343969355" lon="9.718001603471503"><ele>930.0</ele><time>2026-05-04T14:41:17.933Z</time></trkpt><trkpt lat="44.74763696815165" lon="9.718062063821293"><ele>927.0</ele><time>2026-05-04T14:41:30.933Z</time></trkpt><trkpt lat="44.747583634697506" lon="9.718168680633699"><ele>924.0</ele><time>2026-05-04T14:41:33.933Z</time></trkpt><trkpt lat="44.74757404879215" lon="9.71830376747773"><ele>921.0</ele><time>2026-05-04T14:41:35.933Z</time></trkpt><trkpt lat="44.747562028241866" lon="9.71839110505881"><ele>918.0</ele><time>2026-05-04T14:41:38.932Z</time></trkpt><trkpt lat="44.74753695553721" lon="9.718478201708901"><ele>915.0</ele><time>2026-05-04T14:41:45.932Z</time></trkpt><trkpt lat="44.74749007072603" lon="9.718556926159653"><ele>916.1428571428572</ele><time>2026-05-04T14:41:52.932Z</time></trkpt><trkpt lat="44.747440699706125" lon="9.718627967997918"><ele>917.2857142857144</ele><time>2026-05-04T14:41:56.932Z</time></trkpt><trkpt lat="44.74738408015362" lon="9.718686859947697"><ele>918.4285714285714</ele><time>2026-05-04T14:42:02.932Z</time></trkpt><trkpt lat="44.74733072769462" lon="9.718740928945337"><ele>919.5714285714287</ele><time>2026-05-04T14:42:05.932Z</time></trkpt><trkpt lat="44.74727572003725" lon="9.718822125943204"><ele>920.7142857142858</ele><time>2026-05-04T14:42:08.932Z</time></trkpt><trkpt lat="44.74724308034473" lon="9.718913979435435"><ele>921.8571428571429</ele><time>2026-05-04T14:42:11.932Z</time></trkpt><trkpt lat="44.747184641589286" lon="9.718988312479064"><ele>923.0</ele><time>2026-05-04T14:42:20.932Z</time></trkpt><trkpt lat="44.74713110596493" lon="9.719043723563887"><ele>923.0000000000001</ele><time>2026-05-04T14:42:32.932Z</time></trkpt><trkpt lat="44.74707543505457" lon="9.719177315729477"><ele>923.0</ele><time>2026-05-04T14:44:49.922Z</time></trkpt><trkpt lat="44.74703247727644" lon="9.719284541108465"><ele>923.0</ele><time>2026-05-04T14:44:53.922Z</time></trkpt><trkpt lat="44.74701448172365" lon="9.719377352343715"><ele>923.0</ele><time>2026-05-04T14:44:55.923Z</time></trkpt><trkpt lat="44.74698504811727" lon="9.719478872686203"><ele>923.0000000000001</ele><time>2026-05-04T14:44:58.922Z</time></trkpt><trkpt lat="44.74697707657193" lon="9.719581974660736"><ele>923.0</ele><time>2026-05-04T14:45:01.922Z</time></trkpt><trkpt lat="44.74696166450623" lon="9.719685616889674"><ele>923.0</ele><time>2026-05-04T14:45:05.922Z</time></trkpt><trkpt lat="44.74694664880198" lon="9.719782494220693"><ele>923.0</ele><time>2026-05-04T14:45:08.922Z</time></trkpt><trkpt lat="44.746937093734566" lon="9.7199132442156"><ele>923.0</ele><time>2026-05-04T14:45:11.922Z</time></trkpt><trkpt lat="44.746973081224255" lon="9.720011723643392"><ele>923.0</ele><time>2026-05-04T14:45:14.922Z</time></trkpt><trkpt lat="44.74702033426265" lon="9.72007160065746"><ele>923.0</ele><time>2026-05-04T14:45:48.921Z</time></trkpt><trkpt lat="44.74701053984288" lon="9.720162816747845"><ele>923.0</ele><time>2026-05-04T14:45:58.921Z</time></trkpt><trkpt lat="44.747073565987336" lon="9.720187754080317"><ele>923.0</ele><time>2026-05-04T14:46:02.921Z</time></trkpt><trkpt lat="44.74712989952142" lon="9.720241724579536"><ele>922.1428571428571</ele><time>2026-05-04T14:46:11.921Z</time></trkpt><trkpt lat="44.747159275615886" lon="9.720325936639385"><ele>921.2857142857143</ele><time>2026-05-04T14:46:22.921Z</time></trkpt><trkpt lat="44.74721493607459" lon="9.720384192211522"><ele>920.4285714285714</ele><time>2026-05-04T14:46:35.921Z</time></trkpt><trkpt lat="44.747228519991744" lon="9.7205005980984"><ele>919.5714285714286</ele><time>2026-05-04T14:46:43.921Z</time></trkpt><trkpt lat="44.74723367580264" lon="9.720605818722401"><ele>918.7142857142858</ele><time>2026-05-04T14:46:46.92Z</time></trkpt><trkpt lat="44.74721591229205" lon="9.720700487957135"><ele>917.8571428571429</ele><time>2026-05-04T14:46:50.92Z</time></trkpt><trkpt lat="44.747222046992896" lon="9.720814592870513"><ele>917.0</ele><time>2026-05-04T14:46:53.92Z</time></trkpt><trkpt lat="44.74725747868351" lon="9.720918641962658"><ele>917.0</ele><time>2026-05-04T14:46:56.92Z</time></trkpt><trkpt lat="44.74727119404554" lon="9.721005944480394"><ele>917.0</ele><time>2026-05-04T14:46:58.92Z</time></trkpt><trkpt lat="44.74725478985814" lon="9.721125119179542"><ele>917.0</ele><time>2026-05-04T14:47:01.92Z</time></trkpt><trkpt lat="44.74725591643109" lon="9.721236903380746"><ele>917.0</ele><time>2026-05-04T14:47:04.921Z</time></trkpt><trkpt lat="44.74724720489641" lon="9.721328038633548"><ele>917.0</ele><time>2026-05-04T14:47:06.92Z</time></trkpt><trkpt lat="44.7472196496468" lon="9.721420720081689"><ele>917.0</ele><time>2026-05-04T14:47:09.921Z</time></trkpt><trkpt lat="44.747213643806376" lon="9.721529367659206"><ele>917.0</ele><time>2026-05-04T14:47:12.92Z</time></trkpt><trkpt lat="44.74720739945799" lon="9.721648022843349"><ele>916.0000000000001</ele><time>2026-05-04T14:47:15.92Z</time></trkpt><trkpt lat="44.74719303763157" lon="9.7217359733627"><ele>915.0</ele><time>2026-05-04T14:47:17.92Z</time></trkpt><trkpt lat="44.74714982327722" lon="9.721832539393896"><ele>914.0</ele><time>2026-05-04T14:47:20.92Z</time></trkpt><trkpt lat="44.74714094817312" lon="9.721979180410692"><ele>913.0</ele><time>2026-05-04T14:47:22.92Z</time></trkpt><trkpt lat="44.747146700164706" lon="9.722078500728509"><ele>912.0000000000001</ele><time>2026-05-04T14:47:23.92Z</time></trkpt><trkpt lat="44.74713702576555" lon="9.722194861027369"><ele>911.0</ele><time>2026-05-04T14:47:25.92Z</time></trkpt><trkpt lat="44.74710005334599" lon="9.722295328816761"><ele>910.6666666666667</ele><time>2026-05-04T14:47:28.92Z</time></trkpt><trkpt lat="44.74708010810871" lon="9.722417012217843"><ele>910.3333333333334</ele><time>2026-05-04T14:47:30.92Z</time></trkpt><trkpt lat="44.74709150441881" lon="9.722513309890411"><ele>910.0</ele><time>2026-05-04T14:47:32.92Z</time></trkpt><trkpt lat="44.74708429269624" lon="9.722601470344115"><ele>909.6666666666667</ele><time>2026-05-04T14:47:34.92Z</time></trkpt><trkpt lat="44.74707732436299" lon="9.722716210370926"><ele>909.3333333333334</ele><time>2026-05-04T14:47:36.92Z</time></trkpt><trkpt lat="44.74706490205026" lon="9.722809940973912"><ele>909.0</ele><time>2026-05-04T14:47:38.92Z</time></trkpt><trkpt lat="44.74704560342896" lon="9.722939068364546"><ele>908.4285714285713</ele><time>2026-05-04T14:47:41.92Z</time></trkpt><trkpt lat="44.74703761969481" lon="9.723073756566132"><ele>907.8571428571429</ele><time>2026-05-04T14:47:44.92Z</time></trkpt><trkpt lat="44.7470299272187" lon="9.723165832952288"><ele>907.2857142857142</ele><time>2026-05-04T14:47:49.92Z</time></trkpt><trkpt lat="44.7470549825356" lon="9.723252985486026"><ele>906.7142857142857</ele><time>2026-05-04T14:48:03.919Z</time></trkpt><trkpt lat="44.74704626140529" lon="9.723342040806664"><ele>906.1428571428571</ele><time>2026-05-04T14:48:09.919Z</time></trkpt><trkpt lat="44.747026144206934" lon="9.723448802932857"><ele>905.5714285714286</ele><time>2026-05-04T14:48:11.919Z</time></trkpt><trkpt lat="44.74703633637563" lon="9.723557141352734"><ele>905.0</ele><time>2026-05-04T14:48:14.919Z</time></trkpt><trkpt lat="44.74707335532957" lon="9.723660900137167"><ele>904.5000000000001</ele><time>2026-05-04T14:48:57.919Z</time></trkpt><trkpt lat="44.74706059136941" lon="9.723754686937639"><ele>904.0</ele><time>2026-05-04T14:49:09.92Z</time></trkpt><trkpt lat="44.747090817673126" lon="9.723859200144412"><ele>903.5</ele><time>2026-05-04T14:49:11.92Z</time></trkpt><trkpt lat="44.747125936259174" lon="9.723936597635316"><ele>903.0</ele><time>2026-05-04T14:49:13.919Z</time></trkpt><trkpt lat="44.747170560656585" lon="9.724009601027632"><ele>902.5000000000001</ele><time>2026-05-04T14:49:15.92Z</time></trkpt><trkpt lat="44.747232963431216" lon="9.724111495159939"><ele>902.0</ele><time>2026-05-04T14:49:17.92Z</time></trkpt><trkpt lat="44.74730087694899" lon="9.724228366881649"><ele>902.0000000000001</ele><time>2026-05-04T14:49:19.919Z</time></trkpt><trkpt lat="44.74737035835086" lon="9.724356617596316"><ele>902.0</ele><time>2026-05-04T14:49:21.92Z</time></trkpt><trkpt lat="44.747413868625905" lon="9.724465536813389"><ele>902.0</ele><time>2026-05-04T14:49:23.92Z</time></trkpt><trkpt lat="44.74746199320695" lon="9.7245631594517"><ele>902.0</ele><time>2026-05-04T14:49:26.92Z</time></trkpt><trkpt lat="44.74748304033676" lon="9.724660640120995"><ele>902.0000000000001</ele><time>2026-05-04T14:49:29.92Z</time></trkpt><trkpt lat="44.74750640005135" lon="9.724764559289936"><ele>902.0</ele><time>2026-05-04T14:49:34.92Z</time></trkpt><trkpt lat="44.74753329443039" lon="9.724852937233063"><ele>899.3333333333334</ele><time>2026-05-04T14:49:38.92Z</time></trkpt><trkpt lat="44.747566558467184" lon="9.72494231106758"><ele>896.6666666666667</ele><time>2026-05-04T14:49:41.92Z</time></trkpt><trkpt lat="44.7475948924892" lon="9.72506761538275"><ele>894.0</ele><time>2026-05-04T14:49:44.92Z</time></trkpt><trkpt lat="44.747598813397126" lon="9.725163444288606"><ele>891.3333333333333</ele><time>2026-05-04T14:49:46.92Z</time></trkpt><trkpt lat="44.74759627495149" lon="9.725277769790926"><ele>888.6666666666666</ele><time>2026-05-04T14:49:49.92Z</time></trkpt><trkpt lat="44.74760355515179" lon="9.725389740780676"><ele>886.0</ele><time>2026-05-04T14:49:52.92Z</time></trkpt><trkpt lat="44.74761068188153" lon="9.725493687610278"><ele>882.8333333333333</ele><time>2026-05-04T14:49:54.92Z</time></trkpt><trkpt lat="44.74759220448399" lon="9.725605934526982"><ele>879.6666666666666</ele><time>2026-05-04T14:49:56.919Z</time></trkpt><trkpt lat="44.747586635922836" lon="9.725745983051654"><ele>876.5</ele><time>2026-05-04T14:49:59.919Z</time></trkpt><trkpt lat="44.74760561696073" lon="9.725864112134525"><ele>873.3333333333333</ele><time>2026-05-04T14:50:02.919Z</time></trkpt><trkpt lat="44.74760652332357" lon="9.726007008857662"><ele>870.1666666666666</ele><time>2026-05-04T14:50:05.919Z</time></trkpt><trkpt lat="44.74759696055876" lon="9.726112106304548"><ele>867.0</ele><time>2026-05-04T14:50:07.919Z</time></trkpt><trkpt lat="44.74758053962949" lon="9.726226076960057"><ele>865.1666666666666</ele><time>2026-05-04T14:50:09.919Z</time></trkpt><trkpt lat="44.747560653033986" lon="9.726341929164482"><ele>863.3333333333333</ele><time>2026-05-04T14:50:11.919Z</time></trkpt><trkpt lat="44.74755018049044" lon="9.726465540829402"><ele>861.5</ele><time>2026-05-04T14:50:13.919Z</time></trkpt><trkpt lat="44.74752741087847" lon="9.726555490100498"><ele>859.6666666666666</ele><time>2026-05-04T14:50:15.919Z</time></trkpt><trkpt lat="44.74749771248909" lon="9.726637712756945"><ele>857.8333333333333</ele><time>2026-05-04T14:50:17.919Z</time></trkpt><trkpt lat="44.74747406160033" lon="9.726730588930083"><ele>856.0</ele><time>2026-05-04T14:50:19.919Z</time></trkpt><trkpt lat="44.74746740302899" lon="9.726841919391736"><ele>854.1666666666666</ele><time>2026-05-04T14:50:21.919Z</time></trkpt><trkpt lat="44.74746417295815" lon="9.726981672428916"><ele>852.3333333333333</ele><time>2026-05-04T14:50:23.919Z</time></trkpt><trkpt lat="44.74748457084492" lon="9.727084525422248"><ele>850.5</ele><time>2026-05-04T14:50:25.919Z</time></trkpt><trkpt lat="44.74747595169563" lon="9.727193463041965"><ele>848.6666666666667</ele><time>2026-05-04T14:50:27.919Z</time></trkpt><trkpt lat="44.74745516368467" lon="9.727307284853568"><ele>846.8333333333334</ele><time>2026-05-04T14:50:29.919Z</time></trkpt><trkpt lat="44.74743142999433" lon="9.727410447562066"><ele>845.0</ele><time>2026-05-04T14:50:33.919Z</time></trkpt><trkpt lat="44.747407769162955" lon="9.727496995608455"><ele>845.0000000000001</ele><time>2026-05-04T14:51:26.919Z</time></trkpt><trkpt lat="44.747350672629544" lon="9.72757437294044"><ele>845.0</ele><time>2026-05-04T14:51:31.919Z</time></trkpt><trkpt lat="44.74731081688734" lon="9.72766624780739"><ele>845.0</ele><time>2026-05-04T14:51:36.919Z</time></trkpt><trkpt lat="44.747255555621116" lon="9.727730537229881"><ele>845.0</ele><time>2026-05-04T14:51:40.919Z</time></trkpt><trkpt lat="44.74721735739831" lon="9.727820641251423"><ele>845.0000000000001</ele><time>2026-05-04T14:51:45.919Z</time></trkpt><trkpt lat="44.74716885930881" lon="9.727909305326252"><ele>845.0</ele><time>2026-05-04T14:51:50.919Z</time></trkpt><trkpt lat="44.74712816834785" lon="9.728040501383305"><ele>843.3333333333334</ele><time>2026-05-04T14:53:48.918Z</time></trkpt><trkpt lat="44.747100051406626" lon="9.728122124641812"><ele>841.6666666666667</ele><time>2026-05-04T14:53:57.918Z</time></trkpt><trkpt lat="44.74704691394098" lon="9.728269506416094"><ele>840.0</ele><time>2026-05-04T14:54:33.917Z</time></trkpt><trkpt lat="44.747022076394344" lon="9.728357809942667"><ele>838.3333333333333</ele><time>2026-05-04T14:54:37.917Z</time></trkpt><trkpt lat="44.747005100151554" lon="9.728443310656559"><ele>836.6666666666666</ele><time>2026-05-04T14:54:40.917Z</time></trkpt><trkpt lat="44.74703202978775" lon="9.728526572887747"><ele>835.0</ele><time>2026-05-04T14:54:43.917Z</time></trkpt><trkpt lat="44.747015450702584" lon="9.72863988941318"><ele>832.9999999999999</ele><time>2026-05-04T14:54:46.917Z</time></trkpt><trkpt lat="44.74695475994526" lon="9.728700369042901"><ele>831.0</ele><time>2026-05-04T14:54:49.917Z</time></trkpt><trkpt lat="44.7469470568978" lon="9.72879829756886"><ele>829.0</ele><time>2026-05-04T14:56:15.917Z</time></trkpt><trkpt lat="44.74687184722885" lon="9.72884163897836"><ele>827.0</ele><time>2026-05-04T14:56:23.917Z</time></trkpt><trkpt lat="44.7468008169578" lon="9.72885122789719"><ele>824.9999999999999</ele><time>2026-05-04T14:56:26.917Z</time></trkpt><trkpt lat="44.74671612253607" lon="9.728891734078934"><ele>823.0</ele><time>2026-05-04T14:56:30.917Z</time></trkpt><trkpt lat="44.74664620842835" lon="9.72892526217919"><ele>822.9999999999999</ele><time>2026-05-04T14:56:33.917Z</time></trkpt><trkpt lat="44.746570782299216" lon="9.728967662142555"><ele>823.0</ele><time>2026-05-04T14:56:36.917Z</time></trkpt><trkpt lat="44.746493961633455" lon="9.72900684486206"><ele>823.0</ele><time>2026-05-04T14:56:39.917Z</time></trkpt><trkpt lat="44.74642042566512" lon="9.729022420554067"><ele>823.0</ele><time>2026-05-04T14:56:42.917Z</time></trkpt><trkpt lat="44.74634913401297" lon="9.729039049045856"><ele>822.9999999999999</ele><time>2026-05-04T14:56:44.917Z</time></trkpt><trkpt lat="44.74625731393658" lon="9.729069136851868"><ele>823.0</ele><time>2026-05-04T14:56:47.917Z</time></trkpt><trkpt lat="44.746200780152" lon="9.72911124003922"><ele>822.9999999999999</ele><time>2026-05-04T14:56:49.917Z</time></trkpt><trkpt lat="44.74612986159826" lon="9.729154526843846"><ele>823.0</ele><time>2026-05-04T14:56:52.917Z</time></trkpt><trkpt lat="44.74604833463455" lon="9.72920389987945"><ele>823.0</ele><time>2026-05-04T14:56:55.917Z</time></trkpt><trkpt lat="44.74596915867722" lon="9.72926387207917"><ele>823.0</ele><time>2026-05-04T14:56:58.916Z</time></trkpt><trkpt lat="44.74588489455993" lon="9.729306739979933"><ele>822.9999999999999</ele><time>2026-05-04T14:57:01.916Z</time></trkpt><trkpt lat="44.74581423779197" lon="9.729378988716991"><ele>823.0</ele><time>2026-05-04T14:57:04.916Z</time></trkpt><trkpt lat="44.74576119779393" lon="9.729453528694979"><ele>821.6666666666666</ele><time>2026-05-04T14:57:06.916Z</time></trkpt><trkpt lat="44.745704211187885" lon="9.729525733061127"><ele>820.3333333333333</ele><time>2026-05-04T14:57:09.916Z</time></trkpt><trkpt lat="44.74565057360901" lon="9.729575414964021"><ele>819.0</ele><time>2026-05-04T14:57:11.916Z</time></trkpt><trkpt lat="44.74559724408863" lon="9.729649461639378"><ele>817.6666666666667</ele><time>2026-05-04T14:57:13.916Z</time></trkpt><trkpt lat="44.74553731962511" lon="9.729738778538927"><ele>816.3333333333334</ele><time>2026-05-04T14:57:15.916Z</time></trkpt><trkpt lat="44.74549738307742" lon="9.729833184428992"><ele>815.0</ele><time>2026-05-04T14:57:17.916Z</time></trkpt><trkpt lat="44.74544615980901" lon="9.729918760793783"><ele>815.0000000000001</ele><time>2026-05-04T14:57:19.916Z</time></trkpt><trkpt lat="44.74542081217335" lon="9.730022024611726"><ele>815.0</ele><time>2026-05-04T14:57:21.916Z</time></trkpt><trkpt lat="44.74539429418619" lon="9.730126401841188"><ele>815.0</ele><time>2026-05-04T14:57:23.916Z</time></trkpt><trkpt lat="44.745349228747095" lon="9.730205264578574"><ele>815.0</ele><time>2026-05-04T14:57:25.916Z</time></trkpt><trkpt lat="44.74529455155806" lon="9.730283628320336"><ele>815.0000000000001</ele><time>2026-05-04T14:57:27.916Z</time></trkpt><trkpt lat="44.745251579544764" lon="9.73039259830245"><ele>815.0</ele><time>2026-05-04T14:57:29.916Z</time></trkpt><trkpt lat="44.74522328825474" lon="9.73049812656692"><ele>811.1428571428571</ele><time>2026-05-04T14:57:31.916Z</time></trkpt><trkpt lat="44.7451998173238" lon="9.730587510197235"><ele>807.2857142857142</ele><time>2026-05-04T14:57:33.917Z</time></trkpt><trkpt lat="44.745174626612204" lon="9.730700668219376"><ele>803.4285714285714</ele><time>2026-05-04T14:57:37.917Z</time></trkpt><trkpt lat="44.745167066334425" lon="9.730808678878319"><ele>799.5714285714286</ele><time>2026-05-04T14:57:40.916Z</time></trkpt><trkpt lat="44.745174404815685" lon="9.730902815842574"><ele>795.7142857142858</ele><time>2026-05-04T14:57:42.916Z</time></trkpt><trkpt lat="44.74515526825796" lon="9.730993069182787"><ele>791.8571428571429</ele><time>2026-05-04T14:57:44.916Z</time></trkpt><trkpt lat="44.74516211174068" lon="9.731101804464878"><ele>788.0</ele><time>2026-05-04T14:57:47.916Z</time></trkpt><trkpt lat="44.74516877665789" lon="9.731228106069608"><ele>786.3333333333334</ele><time>2026-05-04T14:57:50.916Z</time></trkpt><trkpt lat="44.745184724872956" lon="9.731346659426876"><ele>784.6666666666667</ele><time>2026-05-04T14:57:53.916Z</time></trkpt><trkpt lat="44.745201477328436" lon="9.731458271512857"><ele>783.0</ele><time>2026-05-04T14:57:55.916Z</time></trkpt><trkpt lat="44.74520466906742" lon="9.73157461797207"><ele>781.3333333333333</ele><time>2026-05-04T14:57:57.916Z</time></trkpt><trkpt lat="44.74521126408162" lon="9.731704546246155"><ele>779.6666666666666</ele><time>2026-05-04T14:57:59.916Z</time></trkpt><trkpt lat="44.745199717042695" lon="9.731850362772011"><ele>778.0</ele><time>2026-05-04T14:58:01.916Z</time></trkpt><trkpt lat="44.745188804843686" lon="9.73198406335738"><ele>776.3333333333333</ele><time>2026-05-04T14:58:03.916Z</time></trkpt><trkpt lat="44.74517954578042" lon="9.732103199210039"><ele>774.6666666666666</ele><time>2026-05-04T14:58:05.916Z</time></trkpt><trkpt lat="44.74516743193923" lon="9.732212454766177"><ele>773.0</ele><time>2026-05-04T14:58:07.916Z</time></trkpt><trkpt lat="44.745132629717354" lon="9.732317369675835"><ele>771.3333333333333</ele><time>2026-05-04T14:58:09.916Z</time></trkpt><trkpt lat="44.74510808717445" lon="9.732407763134162"><ele>769.6666666666666</ele><time>2026-05-04T14:58:11.916Z</time></trkpt><trkpt lat="44.745060674580046" lon="9.73252011434254"><ele>768.0</ele><time>2026-05-04T14:58:14.916Z</time></trkpt><trkpt lat="44.745044235426924" lon="9.732651272104794"><ele>766.3333333333334</ele><time>2026-05-04T14:58:17.916Z</time></trkpt><trkpt lat="44.745041512813245" lon="9.732752873140207"><ele>764.6666666666666</ele><time>2026-05-04T14:58:19.916Z</time></trkpt><trkpt lat="44.74503985492549" lon="9.73284630926887"><ele>763.0</ele><time>2026-05-04T14:58:21.916Z</time></trkpt><trkpt lat="44.745061989215884" lon="9.732952937271529"><ele>761.3333333333333</ele><time>2026-05-04T14:58:23.916Z</time></trkpt><trkpt lat="44.74508044954615" lon="9.733072633795633"><ele>759.6666666666666</ele><time>2026-05-04T14:58:25.916Z</time></trkpt><trkpt lat="44.74510737424208" lon="9.733210386876346"><ele>758.0</ele><time>2026-05-04T14:58:27.916Z</time></trkpt><trkpt lat="44.74511891368177" lon="9.73335248322735"><ele>758.0</ele><time>2026-05-04T14:58:29.916Z</time></trkpt><trkpt lat="44.74513024221731" lon="9.733497159342406"><ele>758.0</ele><time>2026-05-04T14:58:31.916Z</time></trkpt><trkpt lat="44.74510429231127" lon="9.733638800204751"><ele>758.0</ele><time>2026-05-04T14:58:33.916Z</time></trkpt><trkpt lat="44.745049951857375" lon="9.733779778852924"><ele>758.0</ele><time>2026-05-04T14:58:35.916Z</time></trkpt><trkpt lat="44.744999583040105" lon="9.733919151542613"><ele>758.0</ele><time>2026-05-04T14:58:37.916Z</time></trkpt><trkpt lat="44.744976984710114" lon="9.734002681234523"><ele>756.5999999999999</ele><time>2026-05-04T14:58:38.916Z</time></trkpt><trkpt lat="44.74493790219616" lon="9.73416193344297"><ele>755.1999999999999</ele><time>2026-05-04T14:58:40.916Z</time></trkpt><trkpt lat="44.74490798411191" lon="9.734317576568943"><ele>753.8</ele><time>2026-05-04T14:58:42.915Z</time></trkpt><trkpt lat="44.74488274432698" lon="9.734414763042679"><ele>752.4</ele><time>2026-05-04T14:58:44.915Z</time></trkpt><trkpt lat="44.744857379012025" lon="9.734526235289383"><ele>751.0</ele><time>2026-05-04T14:58:47.915Z</time></trkpt><trkpt lat="44.74488869082498" lon="9.734632128305476"><ele>749.1666666666667</ele><time>2026-05-04T14:58:50.915Z</time></trkpt><trkpt lat="44.74499241129691" lon="9.734685190253064"><ele>747.3333333333334</ele><time>2026-05-04T14:58:52.915Z</time></trkpt><trkpt lat="44.74506116242262" lon="9.734725148958436"><ele>745.5</ele><time>2026-05-04T14:58:53.915Z</time></trkpt><trkpt lat="44.74512884481319" lon="9.734760718557048"><ele>743.6666666666666</ele><time>2026-05-04T14:58:54.915Z</time></trkpt><trkpt lat="44.74520112280996" lon="9.734805325314081"><ele>741.8333333333333</ele><time>2026-05-04T14:58:55.915Z</time></trkpt><trkpt lat="44.745285707960704" lon="9.734854868142458"><ele>740.0</ele><time>2026-05-04T14:58:56.915Z</time></trkpt><trkpt lat="44.74538881606979" lon="9.734901896998759"><ele>740.0</ele><time>2026-05-04T14:58:57.915Z</time></trkpt><trkpt lat="44.745497638174875" lon="9.734932503761282"><ele>740.0</ele><time>2026-05-04T14:58:58.915Z</time></trkpt><trkpt lat="44.745614121875676" lon="9.734967753614985"><ele>740.0</ele><time>2026-05-04T14:58:59.915Z</time></trkpt><trkpt lat="44.74572780509904" lon="9.735018097340314"><ele>740.0</ele><time>2026-05-04T14:59:00.915Z</time></trkpt><trkpt lat="44.745836222515905" lon="9.735080668767903"><ele>740.0</ele><time>2026-05-04T14:59:01.915Z</time></trkpt><trkpt lat="44.74594963696001" lon="9.735142781680722"><ele>740.0</ele><time>2026-05-04T14:59:02.915Z</time></trkpt><trkpt lat="44.746056684337695" lon="9.735199449692782"><ele>740.0</ele><time>2026-05-04T14:59:03.915Z</time></trkpt><trkpt lat="44.74616102273702" lon="9.735252319453162"><ele>740.0</ele><time>2026-05-04T14:59:04.915Z</time></trkpt><trkpt lat="44.74624524170947" lon="9.73529618328686"><ele>740.0</ele><time>2026-05-04T14:59:05.915Z</time></trkpt><trkpt lat="44.746316726136804" lon="9.735353016995333"><ele>738.5</ele><time>2026-05-04T14:59:06.915Z</time></trkpt><trkpt lat="44.74638441435835" lon="9.735406406702927"><ele>737.0</ele><time>2026-05-04T14:59:07.915Z</time></trkpt><trkpt lat="44.746456905333325" lon="9.735403475745555"><ele>735.5</ele><time>2026-05-04T14:59:08.915Z</time></trkpt><trkpt lat="44.74653885130965" lon="9.735378836403516"><ele>734.0</ele><time>2026-05-04T14:59:09.915Z</time></trkpt><trkpt lat="44.746616799872626" lon="9.73533598767557"><ele>732.5</ele><time>2026-05-04T14:59:10.915Z</time></trkpt><trkpt lat="44.746731212062905" lon="9.735348301475803"><ele>731.0</ele><time>2026-05-04T14:59:12.915Z</time></trkpt><trkpt lat="44.746794861041344" lon="9.735368572524273"><ele>731.0</ele><time>2026-05-04T14:59:13.915Z</time></trkpt><trkpt lat="44.74685942847546" lon="9.735462996127358"><ele>731.0</ele><time>2026-05-04T14:59:14.915Z</time></trkpt><trkpt lat="44.74690103232082" lon="9.73556547699579"><ele>731.0</ele><time>2026-05-04T14:59:15.915Z</time></trkpt><trkpt lat="44.74693878671738" lon="9.735696082365243"><ele>731.0</ele><time>2026-05-04T14:59:16.915Z</time></trkpt><trkpt lat="44.74698931419151" lon="9.735837954437049"><ele>731.0</ele><time>2026-05-04T14:59:17.915Z</time></trkpt><trkpt lat="44.74702873280269" lon="9.735960153955464"><ele>730.0</ele><time>2026-05-04T14:59:18.915Z</time></trkpt><trkpt lat="44.74706520110141" lon="9.736084746848984"><ele>729.0</ele><time>2026-05-04T14:59:19.915Z</time></trkpt><trkpt lat="44.747104108618416" lon="9.736196250401024"><ele>728.0</ele><time>2026-05-04T14:59:20.915Z</time></trkpt><trkpt lat="44.74714654813468" lon="9.736268644020145"><ele>727.0</ele><time>2026-05-04T14:59:21.915Z</time></trkpt><trkpt lat="44.747224184344915" lon="9.736280990826804"><ele>726.0</ele><time>2026-05-04T14:59:22.915Z</time></trkpt><trkpt lat="44.74729643093904" lon="9.736239324433011"><ele>725.0</ele><time>2026-05-04T14:59:23.915Z</time></trkpt><trkpt lat="44.7473597728779" lon="9.736151616469076"><ele>725.0</ele><time>2026-05-04T14:59:24.915Z</time></trkpt><trkpt lat="44.74741757566239" lon="9.736078778447466"><ele>725.0</ele><time>2026-05-04T14:59:25.915Z</time></trkpt><trkpt lat="44.7474715552107" lon="9.736023663069494"><ele>725.0</ele><time>2026-05-04T14:59:26.915Z</time></trkpt><trkpt lat="44.74752839555967" lon="9.73597671090239"><ele>725.0</ele><time>2026-05-04T14:59:27.915Z</time></trkpt><trkpt lat="44.747587808646024" lon="9.735913476026278"><ele>725.0</ele><time>2026-05-04T14:59:28.915Z</time></trkpt><trkpt lat="44.74764862759461" lon="9.735852166566922"><ele>725.0</ele><time>2026-05-04T14:59:29.915Z</time></trkpt><trkpt lat="44.747696194720874" lon="9.735760223256655"><ele>725.0</ele><time>2026-05-04T14:59:30.915Z</time></trkpt><trkpt lat="44.747734298254976" lon="9.735668547034818"><ele>725.2</ele><time>2026-05-04T14:59:31.915Z</time></trkpt><trkpt lat="44.747773798808915" lon="9.73556301653114"><ele>725.4</ele><time>2026-05-04T14:59:32.915Z</time></trkpt><trkpt lat="44.74781986332136" lon="9.735440091160843"><ele>725.5999999999999</ele><time>2026-05-04T14:59:33.915Z</time></trkpt><trkpt lat="44.747877223935056" lon="9.735321445102075"><ele>725.8</ele><time>2026-05-04T14:59:34.915Z</time></trkpt><trkpt lat="44.74793536373568" lon="9.735182151803858"><ele>726.0</ele><time>2026-05-04T14:59:35.915Z</time></trkpt><trkpt lat="44.74800055110045" lon="9.735069417524908"><ele>728.1666666666666</ele><time>2026-05-04T14:59:36.914Z</time></trkpt><trkpt lat="44.748063975841625" lon="9.734964940061614"><ele>730.3333333333334</ele><time>2026-05-04T14:59:37.914Z</time></trkpt><trkpt lat="44.74811536712361" lon="9.734884691212844"><ele>732.5</ele><time>2026-05-04T14:59:38.913Z</time></trkpt><trkpt lat="44.74814275579991" lon="9.73478744879121"><ele>734.6666666666667</ele><time>2026-05-04T14:59:39.913Z</time></trkpt><trkpt lat="44.74815741507055" lon="9.734669724145924"><ele>736.8333333333334</ele><time>2026-05-04T14:59:40.913Z</time></trkpt><trkpt lat="44.748145478890386" lon="9.734529654720868"><ele>739.0</ele><time>2026-05-04T14:59:41.912Z</time></trkpt><trkpt lat="44.74814047221111" lon="9.734369056826711"><ele>740.8333333333334</ele><time>2026-05-04T14:59:42.912Z</time></trkpt><trkpt lat="44.74814805054895" lon="9.734239986564136"><ele>742.6666666666667</ele><time>2026-05-04T14:59:43.911Z</time></trkpt><trkpt lat="44.748181504689164" lon="9.734141953872308"><ele>744.5</ele><time>2026-05-04T14:59:44.911Z</time></trkpt><trkpt lat="44.74823454474994" lon="9.734082144481881"><ele>746.3333333333334</ele><time>2026-05-04T14:59:45.91Z</time></trkpt><trkpt lat="44.748307866591105" lon="9.734054363325047"><ele>748.1666666666666</ele><time>2026-05-04T14:59:46.91Z</time></trkpt><trkpt lat="44.748397575452444" lon="9.73404798087154"><ele>750.0</ele><time>2026-05-04T14:59:47.91Z</time></trkpt><trkpt lat="44.74850368737978" lon="9.73405594571419"><ele>751.0</ele><time>2026-05-04T14:59:48.91Z</time></trkpt><trkpt lat="44.748612225652394" lon="9.734082736848462"><ele>752.0</ele><time>2026-05-04T14:59:49.909Z</time></trkpt><trkpt lat="44.74870943005222" lon="9.734131550448119"><ele>753.0</ele><time>2026-05-04T14:59:50.909Z</time></trkpt><trkpt lat="44.74880900868627" lon="9.734200978151383"><ele>754.0</ele><time>2026-05-04T14:59:51.909Z</time></trkpt><trkpt lat="44.74890418519876" lon="9.734322566431262"><ele>750.6666666666667</ele><time>2026-05-04T14:59:52.909Z</time></trkpt><trkpt lat="44.74900722269084" lon="9.734468578384533"><ele>747.3333333333334</ele><time>2026-05-04T14:59:53.908Z</time></trkpt><trkpt lat="44.749131615930104" lon="9.73462971054888"><ele>744.0</ele><time>2026-05-04T14:59:54.908Z</time></trkpt><trkpt lat="44.74924730210931" lon="9.734772480094124"><ele>744.0</ele><time>2026-05-04T14:59:55.908Z</time></trkpt><trkpt lat="44.749343452017136" lon="9.734914213127954"><ele>744.0</ele><time>2026-05-04T14:59:56.908Z</time></trkpt><trkpt lat="44.74942613380119" lon="9.735044835406818"><ele>744.0</ele><time>2026-05-04T14:59:57.908Z</time></trkpt><trkpt lat="44.7494943117605" lon="9.735151026552053"><ele>744.0</ele><time>2026-05-04T14:59:58.907Z</time></trkpt><trkpt lat="44.749533791819104" lon="9.735220691947454"><ele>744.0</ele><time>2026-05-04T14:59:59.907Z</time></trkpt><trkpt lat="44.74958657500868" lon="9.735272902985855"><ele>744.1666666666666</ele><time>2026-05-04T15:00:01.907Z</time></trkpt><trkpt lat="44.7496495622849" lon="9.735347512766195"><ele>744.3333333333334</ele><time>2026-05-04T15:00:04.907Z</time></trkpt><trkpt lat="44.74970073823314" lon="9.735416056688411"><ele>744.5</ele><time>2026-05-04T15:00:06.906Z</time></trkpt><trkpt lat="44.749734466732825" lon="9.735510490940607"><ele>744.6666666666667</ele><time>2026-05-04T15:00:08.906Z</time></trkpt><trkpt lat="44.74979148096518" lon="9.735594204636081"><ele>744.8333333333334</ele><time>2026-05-04T15:00:10.906Z</time></trkpt><trkpt lat="44.74985703567897" lon="9.735633705114934"><ele>745.0</ele><time>2026-05-04T15:00:12.906Z</time></trkpt><trkpt lat="44.74988683675164" lon="9.735724122379471"><ele>745.0</ele><time>2026-05-04T15:00:14.906Z</time></trkpt><trkpt lat="44.74984287923379" lon="9.735831887620336"><ele>745.0</ele><time>2026-05-04T15:00:16.906Z</time></trkpt><trkpt lat="44.749791877515335" lon="9.735914675023496"><ele>745.0</ele><time>2026-05-04T15:00:19.906Z</time></trkpt><trkpt lat="44.74973057093599" lon="9.735869653133319"><ele>745.0</ele><time>2026-05-04T15:04:09.902Z</time></trkpt><trkpt lat="44.74964749921404" lon="9.73576042518075"><ele>745.0</ele><time>2026-05-04T15:04:11.902Z</time></trkpt><trkpt lat="44.749573110427384" lon="9.735671317578179"><ele>745.0</ele><time>2026-05-04T15:04:13.902Z</time></trkpt><trkpt lat="44.74956539921602" lon="9.735577870582611"><ele>745.0</ele><time>2026-05-04T15:05:49.901Z</time></trkpt><trkpt lat="44.74963824933965" lon="9.735490991461148"><ele>745.0</ele><time>2026-05-04T15:05:51.901Z</time></trkpt><trkpt lat="44.74967519130645" lon="9.735369493811715"><ele>745.0</ele><time>2026-05-04T15:05:53.901Z</time></trkpt><trkpt lat="44.749631009944345" lon="9.735268858733454"><ele>745.0</ele><time>2026-05-04T15:05:55.902Z</time></trkpt><trkpt lat="44.74953564378327" lon="9.735207793441024"><ele>745.0</ele><time>2026-05-04T15:05:57.901Z</time></trkpt><trkpt lat="44.74944283978198" lon="9.735074556551151"><ele>744.75</ele><time>2026-05-04T15:05:59.902Z</time></trkpt><trkpt lat="44.749375400190424" lon="9.734947085684192"><ele>744.5</ele><time>2026-05-04T15:06:00.901Z</time></trkpt><trkpt lat="44.74928736392482" lon="9.734816611574589"><ele>744.25</ele><time>2026-05-04T15:06:01.901Z</time></trkpt><trkpt lat="44.749192349064714" lon="9.734690461489034"><ele>744.0</ele><time>2026-05-04T15:06:02.901Z</time></trkpt><trkpt lat="44.74909447947733" lon="9.734566357343688"><ele>744.0</ele><time>2026-05-04T15:06:03.901Z</time></trkpt><trkpt lat="44.74900156443089" lon="9.73445307395321"><ele>744.0</ele><time>2026-05-04T15:06:04.901Z</time></trkpt><trkpt lat="44.74891187620978" lon="9.734336338932632"><ele>744.0</ele><time>2026-05-04T15:06:05.901Z</time></trkpt><trkpt lat="44.74883378348801" lon="9.73423446854129"><ele>744.0</ele><time>2026-05-04T15:06:06.901Z</time></trkpt><trkpt lat="44.7487580079055" lon="9.734154043040837"><ele>744.0</ele><time>2026-05-04T15:06:07.901Z</time></trkpt><trkpt lat="44.74868311403116" lon="9.734100285818446"><ele>745.2</ele><time>2026-05-04T15:06:08.901Z</time></trkpt><trkpt lat="44.74857033948961" lon="9.734066321273612"><ele>746.4000000000001</ele><time>2026-05-04T15:06:09.901Z</time></trkpt><trkpt lat="44.74846562703303" lon="9.734056458523183"><ele>747.6</ele><time>2026-05-04T15:06:10.901Z</time></trkpt><trkpt lat="44.74836882569671" lon="9.734053096594382"><ele>748.8</ele><time>2026-05-04T15:06:11.901Z</time></trkpt><trkpt lat="44.74829297216872" lon="9.73405371219198"><ele>750.0</ele><time>2026-05-04T15:06:12.901Z</time></trkpt><trkpt lat="44.74822895595226" lon="9.734072954227939"><ele>750.0</ele><time>2026-05-04T15:06:13.901Z</time></trkpt><trkpt lat="44.74817682049571" lon="9.734123281694462"><ele>750.0</ele><time>2026-05-04T15:06:14.901Z</time></trkpt><trkpt lat="44.74813896214549" lon="9.734214230991578"><ele>750.0</ele><time>2026-05-04T15:06:15.901Z</time></trkpt><trkpt lat="44.748121202827804" lon="9.734324749541434"><ele>750.0</ele><time>2026-05-04T15:06:16.901Z</time></trkpt><trkpt lat="44.74812447310889" lon="9.734462745025874"><ele>750.0</ele><time>2026-05-04T15:06:17.901Z</time></trkpt><trkpt lat="44.74813073193345" lon="9.734592340699459"><ele>750.0</ele><time>2026-05-04T15:06:18.901Z</time></trkpt><trkpt lat="44.74813247599665" lon="9.734702345359596"><ele>747.8</ele><time>2026-05-04T15:06:19.901Z</time></trkpt><trkpt lat="44.748118201040704" lon="9.734807337046073"><ele>745.6</ele><time>2026-05-04T15:06:20.901Z</time></trkpt><trkpt lat="44.748064468533286" lon="9.734917160041068"><ele>743.4000000000001</ele><time>2026-05-04T15:06:21.901Z</time></trkpt><trkpt lat="44.747993647502994" lon="9.735034260623822"><ele>741.2</ele><time>2026-05-04T15:06:22.901Z</time></trkpt><trkpt lat="44.74793618840883" lon="9.735164188516363"><ele>739.0</ele><time>2026-05-04T15:06:23.901Z</time></trkpt><trkpt lat="44.74788675193654" lon="9.73529772146068"><ele>738.8000000000001</ele><time>2026-05-04T15:06:24.901Z</time></trkpt><trkpt lat="44.74783421784336" lon="9.73542446374909"><ele>738.6</ele><time>2026-05-04T15:06:25.901Z</time></trkpt><trkpt lat="44.74778618454104" lon="9.735553014177453"><ele>738.4</ele><time>2026-05-04T15:06:26.901Z</time></trkpt><trkpt lat="44.747749532667484" lon="9.735678146977143"><ele>738.2</ele><time>2026-05-04T15:06:27.901Z</time></trkpt><trkpt lat="44.74769683594026" lon="9.73577680616819"><ele>738.0</ele><time>2026-05-04T15:06:28.901Z</time></trkpt><trkpt lat="44.747637788238684" lon="9.735846022145994"><ele>738.0</ele><time>2026-05-04T15:06:29.901Z</time></trkpt><trkpt lat="44.74754923285494" lon="9.735937108942448"><ele>738.0</ele><time>2026-05-04T15:06:30.901Z</time></trkpt><trkpt lat="44.74745458852478" lon="9.73603943675834"><ele>738.0</ele><time>2026-05-04T15:06:31.901Z</time></trkpt><trkpt lat="44.74737547030297" lon="9.736126949227977"><ele>738.0</ele><time>2026-05-04T15:06:32.901Z</time></trkpt><trkpt lat="44.74730832391204" lon="9.736186779782138"><ele>738.0</ele><time>2026-05-04T15:06:33.901Z</time></trkpt><trkpt lat="44.747231726915764" lon="9.736191723714128"><ele>738.0</ele><time>2026-05-04T15:06:34.901Z</time></trkpt><trkpt lat="44.747171813016976" lon="9.7361577011582"><ele>738.0</ele><time>2026-05-04T15:06:35.901Z</time></trkpt><trkpt lat="44.74712327325658" lon="9.7360754578334"><ele>738.0</ele><time>2026-05-04T15:06:36.901Z</time></trkpt><trkpt lat="44.74709417008527" lon="9.735965015868775"><ele>738.0</ele><time>2026-05-04T15:06:37.901Z</time></trkpt><trkpt lat="44.747064128391116" lon="9.735842557175632"><ele>738.0</ele><time>2026-05-04T15:06:38.901Z</time></trkpt><trkpt lat="44.747019167586906" lon="9.735717918839564"><ele>738.0</ele><time>2026-05-04T15:06:39.901Z</time></trkpt><trkpt lat="44.74697446179795" lon="9.735603588017876"><ele>738.0</ele><time>2026-05-04T15:06:40.901Z</time></trkpt><trkpt lat="44.746930316420666" lon="9.735490871094427"><ele>738.0</ele><time>2026-05-04T15:06:41.901Z</time></trkpt><trkpt lat="44.74687755691447" lon="9.735388676253473"><ele>738.0</ele><time>2026-05-04T15:06:42.901Z</time></trkpt><trkpt lat="44.746812296189184" lon="9.735328467269955"><ele>738.0</ele><time>2026-05-04T15:06:43.901Z</time></trkpt><trkpt lat="44.74672478020754" lon="9.735306091909475"><ele>738.0</ele><time>2026-05-04T15:06:44.901Z</time></trkpt><trkpt lat="44.746634977836734" lon="9.735325305933857"><ele>738.0</ele><time>2026-05-04T15:06:45.901Z</time></trkpt><trkpt lat="44.74653676176208" lon="9.73535318053253"><ele>738.5999999999999</ele><time>2026-05-04T15:06:46.901Z</time></trkpt><trkpt lat="44.746453685666346" lon="9.735376635507974"><ele>739.1999999999999</ele><time>2026-05-04T15:06:47.901Z</time></trkpt><trkpt lat="44.74637498695813" lon="9.735356069771194"><ele>739.8</ele><time>2026-05-04T15:06:48.901Z</time></trkpt><trkpt lat="44.746298864044654" lon="9.73530340234602"><ele>740.4</ele><time>2026-05-04T15:06:49.901Z</time></trkpt><trkpt lat="44.74621348437057" lon="9.735260263468167"><ele>741.0</ele><time>2026-05-04T15:06:50.901Z</time></trkpt><trkpt lat="44.74609422785184" lon="9.7351997376845"><ele>740.75</ele><time>2026-05-04T15:06:51.901Z</time></trkpt><trkpt lat="44.74597175603416" lon="9.735145922641085"><ele>740.5</ele><time>2026-05-04T15:06:52.901Z</time></trkpt><trkpt lat="44.74585246840019" lon="9.735082603722551"><ele>740.25</ele><time>2026-05-04T15:06:53.901Z</time></trkpt><trkpt lat="44.74573974518224" lon="9.73502263686234"><ele>740.0</ele><time>2026-05-04T15:06:54.901Z</time></trkpt><trkpt lat="44.745631231670366" lon="9.734978018998616"><ele>740.0</ele><time>2026-05-04T15:06:55.901Z</time></trkpt><trkpt lat="44.745511937119495" lon="9.73494433026611"><ele>740.0</ele><time>2026-05-04T15:06:56.9Z</time></trkpt><trkpt lat="44.74539451320111" lon="9.734907744300834"><ele>740.0</ele><time>2026-05-04T15:06:57.9Z</time></trkpt><trkpt lat="44.745282916023" lon="9.734863639335723"><ele>740.0</ele><time>2026-05-04T15:06:58.9Z</time></trkpt><trkpt lat="44.74518188848374" lon="9.734808212970513"><ele>740.0</ele><time>2026-05-04T15:06:59.9Z</time></trkpt><trkpt lat="44.745102899779525" lon="9.734753857689945"><ele>740.0</ele><time>2026-05-04T15:07:00.9Z</time></trkpt><trkpt lat="44.74503787489528" lon="9.734700275462288"><ele>740.0</ele><time>2026-05-04T15:07:01.9Z</time></trkpt><trkpt lat="44.74497973512074" lon="9.734658517560579"><ele>740.0</ele><time>2026-05-04T15:07:02.9Z</time></trkpt><trkpt lat="44.74488763905788" lon="9.734641235380245"><ele>740.0</ele><time>2026-05-04T15:07:04.9Z</time></trkpt><trkpt lat="44.74481488079589" lon="9.73474146292785"><ele>740.0</ele><time>2026-05-04T15:07:06.9Z</time></trkpt><trkpt lat="44.74476858486298" lon="9.734896879078992"><ele>740.0</ele><time>2026-05-04T15:07:08.9Z</time></trkpt><trkpt lat="44.74473467611279" lon="9.734994157702001"><ele>740.0</ele><time>2026-05-04T15:07:09.9Z</time></trkpt><trkpt lat="44.74469744545744" lon="9.735088018200862"><ele>740.0</ele><time>2026-05-04T15:07:10.9Z</time></trkpt><trkpt lat="44.74466118830666" lon="9.73518277039015"><ele>740.0</ele><time>2026-05-04T15:07:11.9Z</time></trkpt><trkpt lat="44.744613693891885" lon="9.735278461771323"><ele>740.0</ele><time>2026-05-04T15:07:12.9Z</time></trkpt><trkpt lat="44.744553427083545" lon="9.735372817028729"><ele>740.0</ele><time>2026-05-04T15:07:13.9Z</time></trkpt><trkpt lat="44.744490826150674" lon="9.735476759238246"><ele>737.6</ele><time>2026-05-04T15:07:14.9Z</time></trkpt><trkpt lat="44.74442665027985" lon="9.735586253100633"><ele>735.2</ele><time>2026-05-04T15:07:15.9Z</time></trkpt><trkpt lat="44.74437395774547" lon="9.735698195006657"><ele>732.8</ele><time>2026-05-04T15:07:16.9Z</time></trkpt><trkpt lat="44.74432648281691" lon="9.7358117900681"><ele>730.4</ele><time>2026-05-04T15:07:17.9Z</time></trkpt><trkpt lat="44.74427762801848" lon="9.735916556966748"><ele>728.0</ele><time>2026-05-04T15:07:18.9Z</time></trkpt><trkpt lat="44.744220302661574" lon="9.736015354849298"><ele>726.1666666666666</ele><time>2026-05-04T15:07:19.9Z</time></trkpt><trkpt lat="44.7441658940296" lon="9.73610263119325"><ele>724.3333333333333</ele><time>2026-05-04T15:07:20.9Z</time></trkpt><trkpt lat="44.7441164220016" lon="9.73619604712945"><ele>722.5</ele><time>2026-05-04T15:07:21.9Z</time></trkpt><trkpt lat="44.74406398648483" lon="9.736278574081345"><ele>720.6666666666666</ele><time>2026-05-04T15:07:22.9Z</time></trkpt><trkpt lat="44.74399571359985" lon="9.736362804878164"><ele>718.8333333333334</ele><time>2026-05-04T15:07:23.9Z</time></trkpt><trkpt lat="44.743916245033546" lon="9.73643696981493"><ele>717.0</ele><time>2026-05-04T15:07:24.9Z</time></trkpt><trkpt lat="44.743839021351434" lon="9.736499210477536"><ele>717.0</ele><time>2026-05-04T15:07:25.9Z</time></trkpt><trkpt lat="44.74377006839524" lon="9.736570790860544"><ele>717.0</ele><time>2026-05-04T15:07:26.9Z</time></trkpt><trkpt lat="44.74371744545135" lon="9.736669062545648"><ele>717.0</ele><time>2026-05-04T15:07:27.9Z</time></trkpt><trkpt lat="44.74367509343429" lon="9.736775461628055"><ele>717.0</ele><time>2026-05-04T15:07:28.9Z</time></trkpt><trkpt lat="44.74364300924485" lon="9.736890731059963"><ele>717.0</ele><time>2026-05-04T15:07:29.9Z</time></trkpt><trkpt lat="44.7436181132932" lon="9.737007502975574"><ele>717.0</ele><time>2026-05-04T15:07:30.9Z</time></trkpt><trkpt lat="44.743601806993155" lon="9.737122685212945"><ele>714.8</ele><time>2026-05-04T15:07:31.9Z</time></trkpt><trkpt lat="44.74359648202609" lon="9.737257341983632"><ele>712.6</ele><time>2026-05-04T15:07:32.9Z</time></trkpt><trkpt lat="44.74360332248671" lon="9.737409994599755"><ele>710.4</ele><time>2026-05-04T15:07:33.9Z</time></trkpt><trkpt lat="44.743617155423614" lon="9.737568914493842"><ele>708.1999999999999</ele><time>2026-05-04T15:07:34.9Z</time></trkpt><trkpt lat="44.74363272124987" lon="9.737728155113409"><ele>706.0</ele><time>2026-05-04T15:07:35.9Z</time></trkpt><trkpt lat="44.7436592357307" lon="9.73786559882802"><ele>705.8333333333334</ele><time>2026-05-04T15:07:36.9Z</time></trkpt><trkpt lat="44.74369319009976" lon="9.737995298528759"><ele>705.6666666666667</ele><time>2026-05-04T15:07:37.9Z</time></trkpt><trkpt lat="44.743727228960324" lon="9.738110921768156"><ele>705.5</ele><time>2026-05-04T15:07:38.9Z</time></trkpt><trkpt lat="44.74374099822311" lon="9.738227767130573"><ele>705.3333333333334</ele><time>2026-05-04T15:07:39.9Z</time></trkpt><trkpt lat="44.74373135243866" lon="9.738326512730865"><ele>705.1666666666666</ele><time>2026-05-04T15:07:40.9Z</time></trkpt><trkpt lat="44.743691069699786" lon="9.738408682103241"><ele>705.0</ele><time>2026-05-04T15:07:41.9Z</time></trkpt><trkpt lat="44.743624550190816" lon="9.738489385414264"><ele>704.0</ele><time>2026-05-04T15:07:42.9Z</time></trkpt><trkpt lat="44.74353368807456" lon="9.738556590885628"><ele>703.0</ele><time>2026-05-04T15:07:43.9Z</time></trkpt><trkpt lat="44.74343191063076" lon="9.73860231766602"><ele>702.0</ele><time>2026-05-04T15:07:44.9Z</time></trkpt><trkpt lat="44.74336103703086" lon="9.738630058432742"><ele>701.0</ele><time>2026-05-04T15:07:45.9Z</time></trkpt><trkpt lat="44.743307998160304" lon="9.738690012677935"><ele>700.0</ele><time>2026-05-04T15:07:46.9Z</time></trkpt><trkpt lat="44.743290170893815" lon="9.738789688116505"><ele>699.0</ele><time>2026-05-04T15:07:47.9Z</time></trkpt><trkpt lat="44.743312813607" lon="9.738919504044866"><ele>699.0</ele><time>2026-05-04T15:07:48.9Z</time></trkpt><trkpt lat="44.7433669328166" lon="9.739094067210656"><ele>699.0</ele><time>2026-05-04T15:07:49.9Z</time></trkpt><trkpt lat="44.7434111377371" lon="9.73924795084662"><ele>699.0</ele><time>2026-05-04T15:07:50.9Z</time></trkpt><trkpt lat="44.743441161652434" lon="9.739397236789609"><ele>699.0</ele><time>2026-05-04T15:07:51.9Z</time></trkpt><trkpt lat="44.74346233379363" lon="9.739547594348672"><ele>695.75</ele><time>2026-05-04T15:07:52.9Z</time></trkpt><trkpt lat="44.7434646109655" lon="9.739704121202346"><ele>692.5</ele><time>2026-05-04T15:07:53.9Z</time></trkpt><trkpt lat="44.74343775415076" lon="9.739862996665689"><ele>689.25</ele><time>2026-05-04T15:07:54.9Z</time></trkpt><trkpt lat="44.74338694438234" lon="9.7400379203393"><ele>686.0</ele><time>2026-05-04T15:07:55.9Z</time></trkpt><trkpt lat="44.7433412883421" lon="9.740221219133051"><ele>684.0</ele><time>2026-05-04T15:07:56.9Z</time></trkpt><trkpt lat="44.74331957428761" lon="9.74041918594373"><ele>682.0</ele><time>2026-05-04T15:07:57.9Z</time></trkpt><trkpt lat="44.743323550025984" lon="9.740612950884906"><ele>680.0</ele><time>2026-05-04T15:07:58.9Z</time></trkpt><trkpt lat="44.74332107412155" lon="9.740795623655485"><ele>678.0</ele><time>2026-05-04T15:07:59.9Z</time></trkpt><trkpt lat="44.743302361160815" lon="9.740975066016906"><ele>676.5</ele><time>2026-05-04T15:08:00.901Z</time></trkpt><trkpt lat="44.74327755981545" lon="9.741144071644571"><ele>675.0</ele><time>2026-05-04T15:08:01.901Z</time></trkpt><trkpt lat="44.743262721385705" lon="9.741304225976384"><ele>673.5</ele><time>2026-05-04T15:08:02.901Z</time></trkpt><trkpt lat="44.74325993316456" lon="9.741444113389843"><ele>672.0</ele><time>2026-05-04T15:08:03.901Z</time></trkpt><trkpt lat="44.743282831721935" lon="9.74160848981914"><ele>672.0</ele><time>2026-05-04T15:08:04.901Z</time></trkpt><trkpt lat="44.743324641021694" lon="9.741790325219203"><ele>672.0</ele><time>2026-05-04T15:08:05.901Z</time></trkpt><trkpt lat="44.74337591963968" lon="9.741989715223715"><ele>672.0</ele><time>2026-05-04T15:08:06.901Z</time></trkpt><trkpt lat="44.7434172677195" lon="9.742205204796186"><ele>672.0</ele><time>2026-05-04T15:08:07.901Z</time></trkpt><trkpt lat="44.743447071312175" lon="9.742423351256996"><ele>669.3333333333334</ele><time>2026-05-04T15:08:08.901Z</time></trkpt><trkpt lat="44.74347739414975" lon="9.74263988279084"><ele>666.6666666666667</ele><time>2026-05-04T15:08:09.901Z</time></trkpt><trkpt lat="44.74351520851946" lon="9.742851187490853"><ele>664.0</ele><time>2026-05-04T15:08:10.901Z</time></trkpt><trkpt lat="44.743565081084604" lon="9.743050638827704"><ele>661.5</ele><time>2026-05-04T15:08:11.901Z</time></trkpt><trkpt lat="44.74362919237211" lon="9.74324708399204"><ele>659.0</ele><time>2026-05-04T15:08:12.901Z</time></trkpt><trkpt lat="44.7436886222843" lon="9.74343305752108"><ele>656.5</ele><time>2026-05-04T15:08:13.901Z</time></trkpt><trkpt lat="44.743745904249586" lon="9.74361428785167"><ele>654.0</ele><time>2026-05-04T15:08:14.901Z</time></trkpt><trkpt lat="44.74378844388623" lon="9.743783671327508"><ele>653.4000000000001</ele><time>2026-05-04T15:08:15.901Z</time></trkpt><trkpt lat="44.74382783120389" lon="9.743938540794549"><ele>652.8</ele><time>2026-05-04T15:08:16.901Z</time></trkpt><trkpt lat="44.74387553954013" lon="9.744058526871338"><ele>652.2</ele><time>2026-05-04T15:08:17.901Z</time></trkpt><trkpt lat="44.7439232152957" lon="9.74415502454314"><ele>651.5999999999999</ele><time>2026-05-04T15:08:18.901Z</time></trkpt><trkpt lat="44.74396862429505" lon="9.74424945323114"><ele>651.0</ele><time>2026-05-04T15:08:19.901Z</time></trkpt><trkpt lat="44.74399122637294" lon="9.744352312283024"><ele>648.5999999999999</ele><time>2026-05-04T15:08:20.901Z</time></trkpt><trkpt lat="44.74398276037461" lon="9.744450535682283"><ele>646.1999999999999</ele><time>2026-05-04T15:08:21.901Z</time></trkpt><trkpt lat="44.74392360925261" lon="9.744584780101864"><ele>643.8</ele><time>2026-05-04T15:08:22.901Z</time></trkpt><trkpt lat="44.74383689440751" lon="9.744708768280859"><ele>641.4</ele><time>2026-05-04T15:08:23.901Z</time></trkpt><trkpt lat="44.74373203882444" lon="9.744813931463277"><ele>639.0</ele><time>2026-05-04T15:08:24.901Z</time></trkpt><trkpt lat="44.74361935896272" lon="9.744894506233749"><ele>639.2</ele><time>2026-05-04T15:08:25.901Z</time></trkpt><trkpt lat="44.74351774976304" lon="9.744982529577593"><ele>639.4</ele><time>2026-05-04T15:08:26.901Z</time></trkpt><trkpt lat="44.743425532538716" lon="9.745069889127102"><ele>639.6</ele><time>2026-05-04T15:08:27.901Z</time></trkpt><trkpt lat="44.74335224064869" lon="9.745152195466956"><ele>639.8</ele><time>2026-05-04T15:08:28.901Z</time></trkpt><trkpt lat="44.743290958935454" lon="9.745252158522316"><ele>640.0</ele><time>2026-05-04T15:08:29.9Z</time></trkpt><trkpt lat="44.74324451435776" lon="9.745380190795313"><ele>638.2</ele><time>2026-05-04T15:08:30.9Z</time></trkpt><trkpt lat="44.74321028329304" lon="9.74553046388204"><ele>636.4</ele><time>2026-05-04T15:08:31.9Z</time></trkpt><trkpt lat="44.74318767160235" lon="9.745688384786527"><ele>634.6</ele><time>2026-05-04T15:08:32.9Z</time></trkpt><trkpt lat="44.743172225687196" lon="9.745842220455753"><ele>632.8</ele><time>2026-05-04T15:08:33.9Z</time></trkpt><trkpt lat="44.74315213062822" lon="9.74598549220933"><ele>631.0</ele><time>2026-05-04T15:08:34.9Z</time></trkpt><trkpt lat="44.743134421406815" lon="9.746110410627853"><ele>629.8333333333334</ele><time>2026-05-04T15:08:35.9Z</time></trkpt><trkpt lat="44.74313428111238" lon="9.746232444983248"><ele>628.6666666666667</ele><time>2026-05-04T15:08:36.9Z</time></trkpt><trkpt lat="44.743160587973634" lon="9.746347750876698"><ele>627.5</ele><time>2026-05-04T15:08:37.9Z</time></trkpt><trkpt lat="44.74318868740629" lon="9.746474008915438"><ele>626.3333333333334</ele><time>2026-05-04T15:08:38.9Z</time></trkpt><trkpt lat="44.743200833712656" lon="9.746601310226923"><ele>625.1666666666666</ele><time>2026-05-04T15:08:39.9Z</time></trkpt><trkpt lat="44.74318353851263" lon="9.74672447612799"><ele>624.0</ele><time>2026-05-04T15:08:40.9Z</time></trkpt><trkpt lat="44.74315868158942" lon="9.746853907793463"><ele>622.4</ele><time>2026-05-04T15:08:41.9Z</time></trkpt><trkpt lat="44.74313381002148" lon="9.746978154504758"><ele>620.8</ele><time>2026-05-04T15:08:42.9Z</time></trkpt><trkpt lat="44.743108897689694" lon="9.747101458868483"><ele>619.2</ele><time>2026-05-04T15:08:43.9Z</time></trkpt><trkpt lat="44.74307776536527" lon="9.747222196103824"><ele>617.6</ele><time>2026-05-04T15:08:44.9Z</time></trkpt><trkpt lat="44.74305138638077" lon="9.747356000219709"><ele>616.0</ele><time>2026-05-04T15:08:45.9Z</time></trkpt><trkpt lat="44.743038183118735" lon="9.747505455893327"><ele>616.0</ele><time>2026-05-04T15:08:46.9Z</time></trkpt><trkpt lat="44.743048784985206" lon="9.74766686213851"><ele>616.0</ele><time>2026-05-04T15:08:47.9Z</time></trkpt><trkpt lat="44.743076135495414" lon="9.74782585022501"><ele>616.0</ele><time>2026-05-04T15:08:48.9Z</time></trkpt><trkpt lat="44.74309745537483" lon="9.747969347402744"><ele>616.0</ele><time>2026-05-04T15:08:49.9Z</time></trkpt><trkpt lat="44.74310389777843" lon="9.748100103780741"><ele>616.0</ele><time>2026-05-04T15:08:50.9Z</time></trkpt><trkpt lat="44.743069568458" lon="9.748222789268723"><ele>614.2</ele><time>2026-05-04T15:08:51.9Z</time></trkpt><trkpt lat="44.74302179983718" lon="9.748361625779918"><ele>612.4000000000001</ele><time>2026-05-04T15:08:52.9Z</time></trkpt><trkpt lat="44.74297451235619" lon="9.748499031909489"><ele>610.6</ele><time>2026-05-04T15:08:53.9Z</time></trkpt><trkpt lat="44.74292616077036" lon="9.74863203892891"><ele>608.8000000000001</ele><time>2026-05-04T15:08:54.9Z</time></trkpt><trkpt lat="44.74288465374715" lon="9.748748872325892"><ele>607.0</ele><time>2026-05-04T15:08:55.9Z</time></trkpt><trkpt lat="44.74285573875434" lon="9.748875705318662"><ele>605.6</ele><time>2026-05-04T15:08:56.9Z</time></trkpt><trkpt lat="44.742830722255725" lon="9.748996540870063"><ele>604.2</ele><time>2026-05-04T15:08:57.9Z</time></trkpt><trkpt lat="44.74285635377013" lon="9.749177975568015"><ele>602.8</ele><time>2026-05-04T15:08:58.9Z</time></trkpt><trkpt lat="44.74286749401589" lon="9.749344269789624"><ele>601.4</ele><time>2026-05-04T15:08:59.9Z</time></trkpt><trkpt lat="44.74285967081837" lon="9.749498291510733"><ele>600.0</ele><time>2026-05-04T15:09:00.9Z</time></trkpt><trkpt lat="44.74284981473689" lon="9.749641413276844"><ele>598.5</ele><time>2026-05-04T15:09:01.9Z</time></trkpt><trkpt lat="44.74284496577985" lon="9.749788540321596"><ele>597.0</ele><time>2026-05-04T15:09:02.9Z</time></trkpt><trkpt lat="44.74286041202978" lon="9.749921402336417"><ele>595.5</ele><time>2026-05-04T15:09:03.9Z</time></trkpt><trkpt lat="44.742894125386606" lon="9.750024570715674"><ele>594.0</ele><time>2026-05-04T15:09:04.9Z</time></trkpt><trkpt lat="44.74296727408359" lon="9.750091271087996"><ele>592.5</ele><time>2026-05-04T15:09:05.9Z</time></trkpt><trkpt lat="44.74303940870493" lon="9.7501341981802"><ele>591.0</ele><time>2026-05-04T15:09:06.9Z</time></trkpt><trkpt lat="44.743135071966435" lon="9.750084332318133"><ele>591.0</ele><time>2026-05-04T15:09:07.9Z</time></trkpt><trkpt lat="44.74319971891287" lon="9.750002617103897"><ele>591.0</ele><time>2026-05-04T15:09:08.9Z</time></trkpt><trkpt lat="44.743239938037" lon="9.749884080623527"><ele>591.0</ele><time>2026-05-04T15:09:09.9Z</time></trkpt><trkpt lat="44.74326070117697" lon="9.749772866563212"><ele>591.0</ele><time>2026-05-04T15:09:10.9Z</time></trkpt><trkpt lat="44.74331984413485" lon="9.749659295602465"><ele>591.0</ele><time>2026-05-04T15:09:12.9Z</time></trkpt><trkpt lat="44.74339885879634" lon="9.749680452438415"><ele>591.0</ele><time>2026-05-04T15:09:14.9Z</time></trkpt><trkpt lat="44.74345681467351" lon="9.749751612420638"><ele>591.0</ele><time>2026-05-04T15:09:15.9Z</time></trkpt><trkpt lat="44.74348180654301" lon="9.749893957852379"><ele>591.0</ele><time>2026-05-04T15:09:16.9Z</time></trkpt><trkpt lat="44.7435185359392" lon="9.750054394661113"><ele>591.0</ele><time>2026-05-04T15:09:17.9Z</time></trkpt><trkpt lat="44.743545331435556" lon="9.750206367356924"><ele>591.0</ele><time>2026-05-04T15:09:18.9Z</time></trkpt><trkpt lat="44.74357627524363" lon="9.7503522629471"><ele>591.0</ele><time>2026-05-04T15:09:19.9Z</time></trkpt><trkpt lat="44.74361240338694" lon="9.750512864867767"><ele>586.4</ele><time>2026-05-04T15:09:20.9Z</time></trkpt><trkpt lat="44.74364218916617" lon="9.750664628653384"><ele>581.8</ele><time>2026-05-04T15:09:21.9Z</time></trkpt><trkpt lat="44.74366600982716" lon="9.750816898651607"><ele>577.1999999999999</ele><time>2026-05-04T15:09:22.9Z</time></trkpt><trkpt lat="44.743687733284034" lon="9.750969806549241"><ele>572.6</ele><time>2026-05-04T15:09:23.9Z</time></trkpt><trkpt lat="44.74371443768083" lon="9.751119886985023"><ele>568.0</ele><time>2026-05-04T15:09:24.9Z</time></trkpt><trkpt lat="44.74373447183588" lon="9.751248651315247"><ele>568.0</ele><time>2026-05-04T15:09:25.9Z</time></trkpt><trkpt lat="44.74374636340225" lon="9.75136300618159"><ele>568.0</ele><time>2026-05-04T15:09:26.9Z</time></trkpt><trkpt lat="44.74374524367302" lon="9.751509805210722"><ele>568.0</ele><time>2026-05-04T15:09:28.9Z</time></trkpt><trkpt lat="44.743707191565065" lon="9.751586394945125"><ele>568.0</ele><time>2026-05-04T15:09:30.9Z</time></trkpt><trkpt lat="44.74360997846522" lon="9.751629732133875"><ele>568.0</ele><time>2026-05-04T15:09:32.9Z</time></trkpt><trkpt lat="44.743522649178615" lon="9.751623553263247"><ele>568.0</ele><time>2026-05-04T15:09:33.9Z</time></trkpt><trkpt lat="44.74341372668159" lon="9.751621115212174"><ele>568.0</ele><time>2026-05-04T15:09:34.9Z</time></trkpt><trkpt lat="44.743297529616555" lon="9.751605780310737"><ele>568.0</ele><time>2026-05-04T15:09:35.9Z</time></trkpt><trkpt lat="44.74316987138101" lon="9.751581634734556"><ele>568.0</ele><time>2026-05-04T15:09:36.9Z</time></trkpt><trkpt lat="44.74302836987203" lon="9.751564573240412"><ele>568.0</ele><time>2026-05-04T15:09:37.899Z</time></trkpt><trkpt lat="44.74289117049925" lon="9.751550823591089"><ele>568.0</ele><time>2026-05-04T15:09:38.899Z</time></trkpt><trkpt lat="44.74275117188915" lon="9.751546354572689"><ele>568.0</ele><time>2026-05-04T15:09:39.899Z</time></trkpt><trkpt lat="44.74262256646346" lon="9.75155538781614"><ele>568.0</ele><time>2026-05-04T15:09:40.899Z</time></trkpt><trkpt lat="44.74249518985299" lon="9.751558717535536"><ele>568.0</ele><time>2026-05-04T15:09:41.899Z</time></trkpt><trkpt lat="44.7423770651363" lon="9.751536935326227"><ele>566.5</ele><time>2026-05-04T15:09:42.899Z</time></trkpt><trkpt lat="44.74226537808534" lon="9.751487228884853"><ele>565.0</ele><time>2026-05-04T15:09:43.899Z</time></trkpt><trkpt lat="44.74216051054832" lon="9.751396383827876"><ele>563.5</ele><time>2026-05-04T15:09:44.899Z</time></trkpt><trkpt lat="44.742061539632765" lon="9.751279740305394"><ele>562.0</ele><time>2026-05-04T15:09:45.899Z</time></trkpt><trkpt lat="44.741942861369594" lon="9.751167867095539"><ele>563.75</ele><time>2026-05-04T15:09:46.899Z</time></trkpt><trkpt lat="44.741808012825686" lon="9.751075822549943"><ele>565.5</ele><time>2026-05-04T15:09:47.899Z</time></trkpt><trkpt lat="44.741672071430074" lon="9.750993773761524"><ele>567.25</ele><time>2026-05-04T15:09:48.899Z</time></trkpt><trkpt lat="44.74156438521629" lon="9.750942276415227"><ele>569.0</ele><time>2026-05-04T15:09:49.899Z</time></trkpt><trkpt lat="44.7414697468504" lon="9.750862840931362"><ele>569.0</ele><time>2026-05-04T15:09:50.899Z</time></trkpt><trkpt lat="44.74141016618014" lon="9.750766092098532"><ele>569.0</ele><time>2026-05-04T15:09:51.899Z</time></trkpt><trkpt lat="44.74134433799431" lon="9.75068838555448"><ele>569.0</ele><time>2026-05-04T15:09:52.899Z</time></trkpt><trkpt lat="44.74126217947696" lon="9.750638280130318"><ele>569.0</ele><time>2026-05-04T15:09:53.899Z</time></trkpt><trkpt lat="44.741167180953134" lon="9.750647710269861"><ele>569.0</ele><time>2026-05-04T15:09:54.899Z</time></trkpt><trkpt lat="44.74106786851584" lon="9.7506754130706"><ele>567.5</ele><time>2026-05-04T15:09:55.899Z</time></trkpt><trkpt lat="44.74099078856532" lon="9.750650720523502"><ele>566.0</ele><time>2026-05-04T15:09:56.899Z</time></trkpt><trkpt lat="44.740922404048725" lon="9.750581269272123"><ele>564.5</ele><time>2026-05-04T15:09:57.899Z</time></trkpt><trkpt lat="44.740871443891635" lon="9.750480563303173"><ele>563.0</ele><time>2026-05-04T15:09:58.899Z</time></trkpt><trkpt lat="44.74083553918847" lon="9.750351036529834"><ele>561.5</ele><time>2026-05-04T15:09:59.899Z</time></trkpt><trkpt lat="44.74083757335341" lon="9.750216393825111"><ele>560.0</ele><time>2026-05-04T15:10:00.899Z</time></trkpt><trkpt lat="44.740872681521026" lon="9.750092305547762"><ele>560.0</ele><time>2026-05-04T15:10:01.899Z</time></trkpt><trkpt lat="44.74095434147763" lon="9.749993356424499"><ele>560.0</ele><time>2026-05-04T15:10:02.899Z</time></trkpt><trkpt lat="44.74104658101383" lon="9.7499037407201"><ele>560.0</ele><time>2026-05-04T15:10:03.899Z</time></trkpt><trkpt lat="44.74112179968315" lon="9.749827105588174"><ele>560.0</ele><time>2026-05-04T15:10:04.899Z</time></trkpt><trkpt lat="44.741180902438686" lon="9.749750969975798"><ele>560.0</ele><time>2026-05-04T15:10:05.899Z</time></trkpt><trkpt lat="44.74121740729494" lon="9.749643909797099"><ele>560.4</ele><time>2026-05-04T15:10:06.9Z</time></trkpt><trkpt lat="44.74122366255878" lon="9.749507776641403"><ele>560.8</ele><time>2026-05-04T15:10:07.899Z</time></trkpt><trkpt lat="44.741193111728535" lon="9.749375325786154"><ele>561.2</ele><time>2026-05-04T15:10:08.899Z</time></trkpt><trkpt lat="44.741125211879364" lon="9.749254945164804"><ele>561.6</ele><time>2026-05-04T15:10:09.9Z</time></trkpt><trkpt lat="44.74103707442764" lon="9.749144275189815"><ele>562.0</ele><time>2026-05-04T15:10:10.9Z</time></trkpt><trkpt lat="44.740944027678566" lon="9.7490302291062"><ele>562.0</ele><time>2026-05-04T15:10:11.9Z</time></trkpt><trkpt lat="44.74085811750048" lon="9.748913581163857"><ele>562.0</ele><time>2026-05-04T15:10:12.9Z</time></trkpt><trkpt lat="44.74077908826725" lon="9.74879728371851"><ele>562.0</ele><time>2026-05-04T15:10:13.9Z</time></trkpt><trkpt lat="44.740716192385825" lon="9.748663031750631"><ele>562.0</ele><time>2026-05-04T15:10:14.9Z</time></trkpt><trkpt lat="44.740677561372806" lon="9.748507665715207"><ele>563.6</ele><time>2026-05-04T15:10:15.899Z</time></trkpt><trkpt lat="44.74067363120374" lon="9.74835532842496"><ele>565.2</ele><time>2026-05-04T15:10:16.9Z</time></trkpt><trkpt lat="44.740707371739084" lon="9.748213193479486"><ele>566.8</ele><time>2026-05-04T15:10:17.9Z</time></trkpt><trkpt lat="44.740775565642885" lon="9.748077067022539"><ele>568.4</ele><time>2026-05-04T15:10:18.899Z</time></trkpt><trkpt lat="44.740847876972474" lon="9.74795164718638"><ele>570.0</ele><time>2026-05-04T15:10:19.9Z</time></trkpt><trkpt lat="44.740894531469834" lon="9.747831123669792"><ele>571.2</ele><time>2026-05-04T15:10:20.9Z</time></trkpt><trkpt lat="44.74091019122893" lon="9.747708907974301"><ele>572.4</ele><time>2026-05-04T15:10:21.9Z</time></trkpt><trkpt lat="44.74089579568965" lon="9.747571986395785"><ele>573.6</ele><time>2026-05-04T15:10:22.9Z</time></trkpt><trkpt lat="44.74085914095211" lon="9.747426630542018"><ele>574.8</ele><time>2026-05-04T15:10:23.9Z</time></trkpt><trkpt lat="44.74079124040492" lon="9.747304984150563"><ele>576.0</ele><time>2026-05-04T15:10:24.9Z</time></trkpt><trkpt lat="44.74070845482846" lon="9.747221803117876"><ele>576.0</ele><time>2026-05-04T15:10:25.9Z</time></trkpt><trkpt lat="44.74060074587557" lon="9.74716609900155"><ele>576.0</ele><time>2026-05-04T15:10:26.9Z</time></trkpt><trkpt lat="44.74048810235234" lon="9.74713606705633"><ele>576.0</ele><time>2026-05-04T15:10:27.9Z</time></trkpt><trkpt lat="44.74038602321354" lon="9.74709124711586"><ele>576.0</ele><time>2026-05-04T15:10:28.9Z</time></trkpt><trkpt lat="44.74030663456593" lon="9.747027358886292"><ele>576.0</ele><time>2026-05-04T15:10:29.9Z</time></trkpt><trkpt lat="44.740233206453766" lon="9.746924953004076"><ele>575.75</ele><time>2026-05-04T15:10:30.9Z</time></trkpt><trkpt lat="44.74017157328809" lon="9.746801429159849"><ele>575.5</ele><time>2026-05-04T15:10:31.9Z</time></trkpt><trkpt lat="44.740101767532444" lon="9.746664422839762"><ele>575.25</ele><time>2026-05-04T15:10:32.9Z</time></trkpt><trkpt lat="44.739999457300975" lon="9.746540467911393"><ele>575.0</ele><time>2026-05-04T15:10:33.899Z</time></trkpt><trkpt lat="44.73985994614516" lon="9.74641472384813"><ele>575.0</ele><time>2026-05-04T15:10:34.899Z</time></trkpt><trkpt lat="44.739713709949704" lon="9.746269484741712"><ele>575.0</ele><time>2026-05-04T15:10:35.899Z</time></trkpt><trkpt lat="44.73959159627356" lon="9.746130220531018"><ele>575.0</ele><time>2026-05-04T15:10:36.899Z</time></trkpt><trkpt lat="44.73948327685849" lon="9.746004637512868"><ele>576.0</ele><time>2026-05-04T15:10:37.899Z</time></trkpt><trkpt lat="44.73936954146123" lon="9.745901327881112"><ele>577.0</ele><time>2026-05-04T15:10:38.899Z</time></trkpt><trkpt lat="44.73925019370715" lon="9.74583208028144"><ele>578.0</ele><time>2026-05-04T15:10:39.899Z</time></trkpt><trkpt lat="44.7391322674234" lon="9.745802221705391"><ele>579.0</ele><time>2026-05-04T15:10:40.899Z</time></trkpt><trkpt lat="44.73901804342956" lon="9.745767645554052"><ele>579.0</ele><time>2026-05-04T15:10:41.899Z</time></trkpt><trkpt lat="44.73893043583753" lon="9.745695992157572"><ele>579.0</ele><time>2026-05-04T15:10:42.899Z</time></trkpt><trkpt lat="44.738875211363265" lon="9.74559810577016"><ele>579.0</ele><time>2026-05-04T15:10:43.899Z</time></trkpt><trkpt lat="44.73886069695033" lon="9.745479072310564"><ele>579.0</ele><time>2026-05-04T15:10:44.899Z</time></trkpt><trkpt lat="44.73886719450704" lon="9.745324952024635"><ele>579.0</ele><time>2026-05-04T15:10:45.899Z</time></trkpt><trkpt lat="44.73890712371203" lon="9.745176914218266"><ele>578.75</ele><time>2026-05-04T15:10:46.899Z</time></trkpt><trkpt lat="44.73896864341885" lon="9.745037612002855"><ele>578.5</ele><time>2026-05-04T15:10:47.899Z</time></trkpt><trkpt lat="44.739050804800414" lon="9.744924436085064"><ele>578.25</ele><time>2026-05-04T15:10:48.899Z</time></trkpt><trkpt lat="44.73914672900732" lon="9.7448306470968"><ele>578.0</ele><time>2026-05-04T15:10:49.899Z</time></trkpt><trkpt lat="44.73923740516458" lon="9.744749170669156"><ele>578.0</ele><time>2026-05-04T15:10:50.899Z</time></trkpt><trkpt lat="44.73931507740996" lon="9.744652946831968"><ele>578.0</ele><time>2026-05-04T15:10:51.899Z</time></trkpt><trkpt lat="44.73935504335187" lon="9.74452620151812"><ele>578.0</ele><time>2026-05-04T15:10:52.899Z</time></trkpt><trkpt lat="44.73936172164974" lon="9.74437926224861"><ele>578.0</ele><time>2026-05-04T15:10:53.899Z</time></trkpt><trkpt lat="44.73933375953308" lon="9.744214115809028"><ele>578.0</ele><time>2026-05-04T15:10:54.899Z</time></trkpt><trkpt lat="44.73928765241663" lon="9.744046111036857"><ele>578.0</ele><time>2026-05-04T15:10:55.899Z</time></trkpt><trkpt lat="44.73923917357321" lon="9.743867363906391"><ele>578.0</ele><time>2026-05-04T15:10:56.899Z</time></trkpt><trkpt lat="44.739193235526535" lon="9.74368615457057"><ele>578.0</ele><time>2026-05-04T15:10:57.899Z</time></trkpt><trkpt lat="44.73914967551797" lon="9.74352289810328"><ele>578.0</ele><time>2026-05-04T15:10:58.899Z</time></trkpt><trkpt lat="44.73908589602392" lon="9.743379920036581"><ele>578.0</ele><time>2026-05-04T15:10:59.899Z</time></trkpt><trkpt lat="44.73900504278738" lon="9.743226822716876"><ele>578.0</ele><time>2026-05-04T15:11:00.899Z</time></trkpt><trkpt lat="44.73889734325877" lon="9.743105742959402"><ele>578.0</ele><time>2026-05-04T15:11:01.899Z</time></trkpt><trkpt lat="44.738799501570206" lon="9.74299025346782"><ele>578.0</ele><time>2026-05-04T15:11:02.899Z</time></trkpt><trkpt lat="44.73871016248861" lon="9.74287724326565"><ele>578.0</ele><time>2026-05-04T15:11:03.899Z</time></trkpt><trkpt lat="44.73859578022827" lon="9.74279829559579"><ele>578.0</ele><time>2026-05-04T15:11:04.899Z</time></trkpt><trkpt lat="44.738474744441675" lon="9.742764245529807"><ele>578.0</ele><time>2026-05-04T15:11:05.899Z</time></trkpt><trkpt lat="44.73836979111845" lon="9.742738796133994"><ele>578.0</ele><time>2026-05-04T15:11:06.899Z</time></trkpt><trkpt lat="44.738253423162405" lon="9.742674482773545"><ele>576.6</ele><time>2026-05-04T15:11:07.899Z</time></trkpt><trkpt lat="44.73818061730455" lon="9.742592398634157"><ele>575.1999999999999</ele><time>2026-05-04T15:11:08.899Z</time></trkpt><trkpt lat="44.738127529125265" lon="9.742475903144548"><ele>573.8</ele><time>2026-05-04T15:11:09.899Z</time></trkpt><trkpt lat="44.73809877849457" lon="9.74233370371616"><ele>572.4</ele><time>2026-05-04T15:11:10.899Z</time></trkpt><trkpt lat="44.73808132373746" lon="9.74215722497475"><ele>571.0</ele><time>2026-05-04T15:11:11.899Z</time></trkpt><trkpt lat="44.73807399277007" lon="9.741931440557982"><ele>572.25</ele><time>2026-05-04T15:11:12.899Z</time></trkpt><trkpt lat="44.73805292438573" lon="9.741728422099783"><ele>573.5</ele><time>2026-05-04T15:11:13.899Z</time></trkpt><trkpt lat="44.738024355742674" lon="9.741550962280783"><ele>574.75</ele><time>2026-05-04T15:11:14.899Z</time></trkpt><trkpt lat="44.73797810363328" lon="9.741406590319428"><ele>576.0</ele><time>2026-05-04T15:11:15.899Z</time></trkpt><trkpt lat="44.73788055738847" lon="9.741283494413059"><ele>576.0</ele><time>2026-05-04T15:11:16.899Z</time></trkpt><trkpt lat="44.737753591554416" lon="9.7411867180108"><ele>576.0</ele><time>2026-05-04T15:11:17.899Z</time></trkpt><trkpt lat="44.737634236460586" lon="9.741085262811993"><ele>576.0</ele><time>2026-05-04T15:11:18.899Z</time></trkpt><trkpt lat="44.737523000230986" lon="9.740964392393183"><ele>576.0</ele><time>2026-05-04T15:11:19.899Z</time></trkpt><trkpt lat="44.737390790227636" lon="9.74085001682433"><ele>573.6666666666666</ele><time>2026-05-04T15:11:20.899Z</time></trkpt><trkpt lat="44.73722490587162" lon="9.74075449560576"><ele>571.3333333333333</ele><time>2026-05-04T15:11:21.899Z</time></trkpt><trkpt lat="44.73705364296471" lon="9.740683890436502"><ele>569.0</ele><time>2026-05-04T15:11:22.899Z</time></trkpt><trkpt lat="44.73691298670737" lon="9.740643172209314"><ele>569.1666666666666</ele><time>2026-05-04T15:11:23.899Z</time></trkpt><trkpt lat="44.73680097336377" lon="9.740624483250466"><ele>569.3333333333333</ele><time>2026-05-04T15:11:24.899Z</time></trkpt><trkpt lat="44.73671365958211" lon="9.74061395558251"><ele>569.5</ele><time>2026-05-04T15:11:25.899Z</time></trkpt><trkpt lat="44.736642134855266" lon="9.740595717524135"><ele>569.6666666666666</ele><time>2026-05-04T15:11:26.899Z</time></trkpt><trkpt lat="44.736567901784724" lon="9.740555398427233"><ele>569.8333333333334</ele><time>2026-05-04T15:11:27.899Z</time></trkpt><trkpt lat="44.73649727349408" lon="9.740482027509353"><ele>570.0</ele><time>2026-05-04T15:11:28.899Z</time></trkpt><trkpt lat="44.73641346878564" lon="9.740405757663629"><ele>570.0</ele><time>2026-05-04T15:11:29.899Z</time></trkpt><trkpt lat="44.736322893584436" lon="9.740311863049556"><ele>570.0</ele><time>2026-05-04T15:11:30.899Z</time></trkpt><trkpt lat="44.73622961890606" lon="9.74020892368003"><ele>570.0</ele><time>2026-05-04T15:11:31.899Z</time></trkpt><trkpt lat="44.73612038228591" lon="9.740076951226452"><ele>570.0</ele><time>2026-05-04T15:11:32.899Z</time></trkpt><trkpt lat="44.736001083468906" lon="9.739964108623576"><ele>571.25</ele><time>2026-05-04T15:11:33.899Z</time></trkpt><trkpt lat="44.73587881071812" lon="9.739862972288625"><ele>572.5</ele><time>2026-05-04T15:11:34.899Z</time></trkpt><trkpt lat="44.73575904054567" lon="9.739774729284836"><ele>573.75</ele><time>2026-05-04T15:11:35.899Z</time></trkpt><trkpt lat="44.735647840892675" lon="9.739679410236096"><ele>575.0</ele><time>2026-05-04T15:11:36.899Z</time></trkpt><trkpt lat="44.73554662507774" lon="9.739560378085477"><ele>575.0</ele><time>2026-05-04T15:11:37.899Z</time></trkpt><trkpt lat="44.73545248841459" lon="9.739426375767527"><ele>575.0</ele><time>2026-05-04T15:11:38.899Z</time></trkpt><trkpt lat="44.73536869793579" lon="9.73928435298472"><ele>575.0</ele><time>2026-05-04T15:11:39.899Z</time></trkpt><trkpt lat="44.73528010069613" lon="9.739121149505056"><ele>575.0</ele><time>2026-05-04T15:11:40.899Z</time></trkpt><trkpt lat="44.73519069181671" lon="9.73897216356376"><ele>578.25</ele><time>2026-05-04T15:11:41.898Z</time></trkpt><trkpt lat="44.73510605703268" lon="9.738864046600126"><ele>581.5</ele><time>2026-05-04T15:11:42.898Z</time></trkpt><trkpt lat="44.73500414729353" lon="9.738769083295388"><ele>584.75</ele><time>2026-05-04T15:11:43.898Z</time></trkpt><trkpt lat="44.734892247330656" lon="9.738699448963697"><ele>588.0</ele><time>2026-05-04T15:11:44.898Z</time></trkpt><trkpt lat="44.73477976779414" lon="9.738651689434729"><ele>588.0</ele><time>2026-05-04T15:11:45.898Z</time></trkpt><trkpt lat="44.734686989601585" lon="9.738604869300636"><ele>588.0</ele><time>2026-05-04T15:11:46.898Z</time></trkpt><trkpt lat="44.734606381198844" lon="9.738533646905255"><ele>588.0</ele><time>2026-05-04T15:11:47.898Z</time></trkpt><trkpt lat="44.73448857363127" lon="9.738282714052167"><ele>588.0</ele><time>2026-05-04T15:11:49.898Z</time></trkpt><trkpt lat="44.73443651806178" lon="9.738149681514049"><ele>588.1999999999999</ele><time>2026-05-04T15:11:50.898Z</time></trkpt><trkpt lat="44.73439486815943" lon="9.738030374698942"><ele>588.4</ele><time>2026-05-04T15:11:51.898Z</time></trkpt><trkpt lat="44.73437729196344" lon="9.737892470470445"><ele>588.5999999999999</ele><time>2026-05-04T15:11:52.898Z</time></trkpt><trkpt lat="44.73438037309637" lon="9.737727502284569"><ele>588.8</ele><time>2026-05-04T15:11:53.898Z</time></trkpt><trkpt lat="44.734407935015376" lon="9.737551351223997"><ele>589.0</ele><time>2026-05-04T15:11:54.898Z</time></trkpt><trkpt lat="44.734448278247434" lon="9.737354385217685"><ele>593.3333333333334</ele><time>2026-05-04T15:11:55.898Z</time></trkpt><trkpt lat="44.734485400775945" lon="9.737143311586237"><ele>597.6666666666666</ele><time>2026-05-04T15:11:56.898Z</time></trkpt><trkpt lat="44.73452316756619" lon="9.736929820534128"><ele>602.0</ele><time>2026-05-04T15:11:57.898Z</time></trkpt><trkpt lat="44.73455414782737" lon="9.736724044146959"><ele>602.0</ele><time>2026-05-04T15:11:58.898Z</time></trkpt><trkpt lat="44.73457719838863" lon="9.736524139922029"><ele>602.0</ele><time>2026-05-04T15:11:59.898Z</time></trkpt><trkpt lat="44.73458429730735" lon="9.73632579891273"><ele>602.0</ele><time>2026-05-04T15:12:00.898Z</time></trkpt><trkpt lat="44.7345895461517" lon="9.736124952208169"><ele>602.0</ele><time>2026-05-04T15:12:01.898Z</time></trkpt><trkpt lat="44.73459481403944" lon="9.7359391091833"><ele>602.1666666666666</ele><time>2026-05-04T15:12:02.898Z</time></trkpt><trkpt lat="44.734596820245976" lon="9.735780309888387"><ele>602.3333333333333</ele><time>2026-05-04T15:12:03.898Z</time></trkpt><trkpt lat="44.73459847153955" lon="9.735651426274835"><ele>602.5</ele><time>2026-05-04T15:12:04.898Z</time></trkpt><trkpt lat="44.734602379470985" lon="9.735554385250671"><ele>602.6666666666666</ele><time>2026-05-04T15:12:05.898Z</time></trkpt><trkpt lat="44.73460696028735" lon="9.735458851440884"><ele>602.8333333333334</ele><time>2026-05-04T15:12:07.898Z</time></trkpt><trkpt lat="44.73460687091281" lon="9.73536163658595"><ele>603.0</ele><time>2026-05-04T15:12:10.898Z</time></trkpt><trkpt lat="44.73456972247104" lon="9.735221832241331"><ele>603.1666666666666</ele><time>2026-05-04T15:12:38.898Z</time></trkpt><trkpt lat="44.73454842033799" lon="9.735126040835517"><ele>603.3333333333334</ele><time>2026-05-04T15:12:39.898Z</time></trkpt><trkpt lat="44.73452186327837" lon="9.735043103427511"><ele>603.5</ele><time>2026-05-04T15:12:40.898Z</time></trkpt><trkpt lat="44.734483616245434" lon="9.734949206262066"><ele>603.6666666666667</ele><time>2026-05-04T15:12:42.898Z</time></trkpt><trkpt lat="44.73445977110067" lon="9.734855395214954"><ele>603.8333333333334</ele><time>2026-05-04T15:13:49.897Z</time></trkpt><trkpt lat="44.7344718872369" lon="9.734947729987748"><ele>604.0</ele><time>2026-05-04T15:13:58.897Z</time></trkpt><trkpt lat="44.734513828481816" lon="9.735080843451655"><ele>604.0</ele><time>2026-05-04T15:14:00.897Z</time></trkpt><trkpt lat="44.73454198587016" lon="9.735215715662168"><ele>604.0</ele><time>2026-05-04T15:14:02.897Z</time></trkpt><trkpt lat="44.73455407906553" lon="9.735313980887376"><ele>604.0</ele><time>2026-05-04T15:14:04.897Z</time></trkpt><trkpt lat="44.734613032495176" lon="9.735430525262315"><ele>604.0</ele><time>2026-05-04T15:14:07.897Z</time></trkpt><trkpt lat="44.73469548774205" lon="9.735508643308515"><ele>604.0</ele><time>2026-05-04T15:14:09.897Z</time></trkpt><trkpt lat="44.734790961933186" lon="9.735610638389963"><ele>603.8571428571429</ele><time>2026-05-04T15:14:11.897Z</time></trkpt><trkpt lat="44.73484247700317" lon="9.735665774910489"><ele>603.7142857142858</ele><time>2026-05-04T15:14:12.897Z</time></trkpt><trkpt lat="44.73489611924528" lon="9.735724831786543"><ele>603.5714285714287</ele><time>2026-05-04T15:14:13.897Z</time></trkpt><trkpt lat="44.73494666790543" lon="9.73578924872208"><ele>603.4285714285714</ele><time>2026-05-04T15:14:14.897Z</time></trkpt><trkpt lat="44.73499336644242" lon="9.735859304251253"><ele>603.2857142857142</ele><time>2026-05-04T15:14:15.897Z</time></trkpt><trkpt lat="44.735038161625155" lon="9.735930431904498"><ele>603.1428571428572</ele><time>2026-05-04T15:14:16.897Z</time></trkpt><trkpt lat="44.73507924055291" lon="9.736001896737793"><ele>603.0</ele><time>2026-05-04T15:14:17.897Z</time></trkpt><trkpt lat="44.73515648023555" lon="9.73608350371802"><ele>606.25</ele><time>2026-05-04T15:14:19.896Z</time></trkpt><trkpt lat="44.73526609538572" lon="9.736030321346727"><ele>609.5</ele><time>2026-05-04T15:14:21.897Z</time></trkpt><trkpt lat="44.73536905522996" lon="9.735940842482918"><ele>612.75</ele><time>2026-05-04T15:14:23.897Z</time></trkpt><trkpt lat="44.73552195378517" lon="9.735866628142341"><ele>616.0</ele><time>2026-05-04T15:14:26.897Z</time></trkpt><trkpt lat="44.735601084242866" lon="9.735825686942874"><ele>616.0</ele><time>2026-05-04T15:14:28.897Z</time></trkpt><trkpt lat="44.73568803528401" lon="9.735771533081166"><ele>616.0</ele><time>2026-05-04T15:14:30.897Z</time></trkpt><trkpt lat="44.73575114349066" lon="9.735794004309168"><ele>616.0</ele><time>2026-05-04T15:14:32.896Z</time></trkpt><trkpt lat="44.7357837071103" lon="9.735914526278064"><ele>616.0</ele><time>2026-05-04T15:14:34.896Z</time></trkpt><trkpt lat="44.735805031676044" lon="9.7360866534977"><ele>616.0</ele><time>2026-05-04T15:14:36.896Z</time></trkpt><trkpt lat="44.735820375612825" lon="9.736178735263238"><ele>616.0</ele><time>2026-05-04T15:14:37.896Z</time></trkpt><trkpt lat="44.73584465512516" lon="9.73627372076372"><ele>616.0</ele><time>2026-05-04T15:14:38.896Z</time></trkpt><trkpt lat="44.73587286453863" lon="9.736365543174504"><ele>616.0</ele><time>2026-05-04T15:14:39.896Z</time></trkpt><trkpt lat="44.735900727299395" lon="9.736450006883244"><ele>616.0</ele><time>2026-05-04T15:14:40.896Z</time></trkpt><trkpt lat="44.73592171313031" lon="9.736534527349736"><ele>616.0</ele><time>2026-05-04T15:14:41.896Z</time></trkpt><trkpt lat="44.73594745725482" lon="9.736625970500553"><ele>616.0</ele><time>2026-05-04T15:14:42.896Z</time></trkpt><trkpt lat="44.73598072652573" lon="9.736728035660809"><ele>616.0</ele><time>2026-05-04T15:14:43.896Z</time></trkpt><trkpt lat="44.736011255522854" lon="9.736827553110507"><ele>616.0</ele><time>2026-05-04T15:14:44.896Z</time></trkpt><trkpt lat="44.73604100034538" lon="9.73692085109453"><ele>616.6666666666667</ele><time>2026-05-04T15:14:45.896Z</time></trkpt><trkpt lat="44.736077857728894" lon="9.737061540262427"><ele>617.3333333333334</ele><time>2026-05-04T15:14:47.896Z</time></trkpt><trkpt lat="44.736096552160724" lon="9.73715654584066"><ele>618.0</ele><time>2026-05-04T15:14:49.895Z</time></trkpt><trkpt lat="44.73613087552906" lon="9.737258543509569"><ele>618.6666666666666</ele><time>2026-05-04T15:14:53.895Z</time></trkpt><trkpt lat="44.73617380573497" lon="9.737332965434302"><ele>619.3333333333333</ele><time>2026-05-04T15:14:58.895Z</time></trkpt><trkpt lat="44.73616103048127" lon="9.737245232563113"><ele>620.0</ele><time>2026-05-04T15:15:07.894Z</time></trkpt><trkpt lat="44.73613006953166" lon="9.737130416585297"><ele>620.0</ele><time>2026-05-04T15:15:09.894Z</time></trkpt><trkpt lat="44.736119133183365" lon="9.737014995951055"><ele>620.0</ele><time>2026-05-04T15:15:10.894Z</time></trkpt><trkpt lat="44.73610564310315" lon="9.736853823297304"><ele>620.0</ele><time>2026-05-04T15:15:11.894Z</time></trkpt><trkpt lat="44.73606852610179" lon="9.736737026724281"><ele>620.0</ele><time>2026-05-04T15:15:12.894Z</time></trkpt><trkpt lat="44.73601514397137" lon="9.736608773082402"><ele>620.0</ele><time>2026-05-04T15:15:13.894Z</time></trkpt><trkpt lat="44.73596663431218" lon="9.73647592800829"><ele>619.3333333333333</ele><time>2026-05-04T15:15:14.894Z</time></trkpt><trkpt lat="44.735927921710285" lon="9.73634955060173"><ele>618.6666666666666</ele><time>2026-05-04T15:15:15.894Z</time></trkpt><trkpt lat="44.735899836585254" lon="9.736241284448534"><ele>618.0</ele><time>2026-05-04T15:15:16.894Z</time></trkpt><trkpt lat="44.735878513796536" lon="9.736140125470786"><ele>617.3333333333334</ele><time>2026-05-04T15:15:17.894Z</time></trkpt><trkpt lat="44.73586038342648" lon="9.736041371372714"><ele>616.6666666666667</ele><time>2026-05-04T15:15:18.894Z</time></trkpt><trkpt lat="44.73584977128185" lon="9.735950794397166"><ele>616.0</ele><time>2026-05-04T15:15:19.894Z</time></trkpt><trkpt lat="44.73583731087848" lon="9.735824654286414"><ele>616.0</ele><time>2026-05-04T15:15:21.894Z</time></trkpt><trkpt lat="44.73580971757502" lon="9.735741402414822"><ele>616.0</ele><time>2026-05-04T15:15:23.894Z</time></trkpt><trkpt lat="44.735737753134046" lon="9.735752248802102"><ele>616.0</ele><time>2026-05-04T15:15:25.894Z</time></trkpt><trkpt lat="44.73565261108807" lon="9.735821373818595"><ele>616.0</ele><time>2026-05-04T15:15:27.894Z</time></trkpt><trkpt lat="44.73554241676611" lon="9.73585989511655"><ele>616.0</ele><time>2026-05-04T15:15:29.893Z</time></trkpt><trkpt lat="44.73541957279326" lon="9.73591456146029"><ele>616.0</ele><time>2026-05-04T15:15:31.893Z</time></trkpt><trkpt lat="44.735319897750806" lon="9.73598190834483"><ele>616.0</ele><time>2026-05-04T15:15:33.893Z</time></trkpt><trkpt lat="44.73524413477656" lon="9.73605889774475"><ele>616.0</ele><time>2026-05-04T15:15:35.893Z</time></trkpt><trkpt lat="44.73517481390214" lon="9.73609030871295"><ele>616.0</ele><time>2026-05-04T15:15:37.893Z</time></trkpt><trkpt lat="44.7350963125581" lon="9.736003322807237"><ele>616.0</ele><time>2026-05-04T15:15:39.893Z</time></trkpt><trkpt lat="44.735054079083774" lon="9.735915285228016"><ele>613.8333333333334</ele><time>2026-05-04T15:15:40.893Z</time></trkpt><trkpt lat="44.735010250784974" lon="9.735833001735552"><ele>611.6666666666667</ele><time>2026-05-04T15:15:41.893Z</time></trkpt><trkpt lat="44.73495974396487" lon="9.735765851440666"><ele>609.5</ele><time>2026-05-04T15:15:42.893Z</time></trkpt><trkpt lat="44.7348990846557" lon="9.735706861573204"><ele>607.3333333333334</ele><time>2026-05-04T15:15:43.893Z</time></trkpt><trkpt lat="44.73483920132895" lon="9.735645320841922"><ele>605.1666666666666</ele><time>2026-05-04T15:15:44.893Z</time></trkpt><trkpt lat="44.734775855855695" lon="9.735584561060687"><ele>603.0</ele><time>2026-05-04T15:15:45.893Z</time></trkpt><trkpt lat="44.7346987608816" lon="9.735490795125733"><ele>603.0</ele><time>2026-05-04T15:15:47.893Z</time></trkpt><trkpt lat="44.734631379204835" lon="9.735452336531653"><ele>603.0</ele><time>2026-05-04T15:15:49.893Z</time></trkpt><trkpt lat="44.73457826554731" lon="9.735534934346068"><ele>603.0</ele><time>2026-05-04T15:15:51.893Z</time></trkpt><trkpt lat="44.734565757167005" lon="9.735716241747367"><ele>603.0</ele><time>2026-05-04T15:15:53.893Z</time></trkpt><trkpt lat="44.734568458957405" lon="9.735835421118935"><ele>603.0</ele><time>2026-05-04T15:15:54.893Z</time></trkpt><trkpt lat="44.734569849943554" lon="9.7359756776243"><ele>602.75</ele><time>2026-05-04T15:15:55.893Z</time></trkpt><trkpt lat="44.73456607485729" lon="9.736121509313124"><ele>602.5</ele><time>2026-05-04T15:15:56.893Z</time></trkpt><trkpt lat="44.73456326984613" lon="9.736277893401784"><ele>602.25</ele><time>2026-05-04T15:15:57.893Z</time></trkpt><trkpt lat="44.73455817280252" lon="9.73644199429404"><ele>602.0</ele><time>2026-05-04T15:15:58.893Z</time></trkpt><trkpt lat="44.73455166129198" lon="9.736624220892642"><ele>602.0</ele><time>2026-05-04T15:15:59.893Z</time></trkpt><trkpt lat="44.734536203941616" lon="9.736805859444647"><ele>602.0</ele><time>2026-05-04T15:16:00.893Z</time></trkpt><trkpt lat="44.73450294305969" lon="9.736993561503482"><ele>602.0</ele><time>2026-05-04T15:16:01.893Z</time></trkpt><trkpt lat="44.73446939737188" lon="9.737183402090846"><ele>602.0</ele><time>2026-05-04T15:16:02.893Z</time></trkpt><trkpt lat="44.73442459327239" lon="9.737346802985897"><ele>602.0</ele><time>2026-05-04T15:16:03.893Z</time></trkpt><trkpt lat="44.734394732487814" lon="9.737493247878557"><ele>602.0</ele><time>2026-05-04T15:16:04.893Z</time></trkpt><trkpt lat="44.734372518276516" lon="9.737631481196468"><ele>602.0</ele><time>2026-05-04T15:16:05.893Z</time></trkpt><trkpt lat="44.73435151880091" lon="9.737756473410348"><ele>602.0</ele><time>2026-05-04T15:16:06.893Z</time></trkpt><trkpt lat="44.73434503999976" lon="9.737873705148363"><ele>602.0</ele><time>2026-05-04T15:16:07.893Z</time></trkpt><trkpt lat="44.73436628240388" lon="9.73798330004767"><ele>601.0</ele><time>2026-05-04T15:16:08.893Z</time></trkpt><trkpt lat="44.73440190615779" lon="9.738097499317268"><ele>600.0</ele><time>2026-05-04T15:16:09.893Z</time></trkpt><trkpt lat="44.734442222613716" lon="9.738204633731712"><ele>599.0</ele><time>2026-05-04T15:16:10.893Z</time></trkpt><trkpt lat="44.73448433976097" lon="9.738304057881573"><ele>598.0</ele><time>2026-05-04T15:16:11.893Z</time></trkpt><trkpt lat="44.73452594609914" lon="9.738390309333711"><ele>597.0</ele><time>2026-05-04T15:16:12.893Z</time></trkpt><trkpt lat="44.73458554233498" lon="9.738525351453717"><ele>596.0</ele><time>2026-05-04T15:16:14.893Z</time></trkpt><trkpt lat="44.734571972686624" lon="9.738674937080082"><ele>594.6666666666666</ele><time>2026-05-04T15:16:16.893Z</time></trkpt><trkpt lat="44.734540682400386" lon="9.73883474359975"><ele>593.3333333333333</ele><time>2026-05-04T15:16:18.893Z</time></trkpt><trkpt lat="44.73451454919309" lon="9.73891883520599"><ele>592.0</ele><time>2026-05-04T15:16:19.893Z</time></trkpt><trkpt lat="44.73447820620975" lon="9.739012397861137"><ele>590.6666666666666</ele><time>2026-05-04T15:16:20.893Z</time></trkpt><trkpt lat="44.734436622592746" lon="9.739096429886391"><ele>589.3333333333334</ele><time>2026-05-04T15:16:21.893Z</time></trkpt><trkpt lat="44.73438677986556" lon="9.739179123903167"><ele>588.0</ele><time>2026-05-04T15:16:22.893Z</time></trkpt><trkpt lat="44.734338747637445" lon="9.739265527513188"><ele>587.1666666666666</ele><time>2026-05-04T15:16:23.893Z</time></trkpt><trkpt lat="44.73429209704203" lon="9.739355162480356"><ele>586.3333333333334</ele><time>2026-05-04T15:16:24.893Z</time></trkpt><trkpt lat="44.73424183417585" lon="9.739449866605991"><ele>585.5</ele><time>2026-05-04T15:16:25.893Z</time></trkpt><trkpt lat="44.73419063651736" lon="9.739553246428121"><ele>584.6666666666667</ele><time>2026-05-04T15:16:26.893Z</time></trkpt><trkpt lat="44.73413691827822" lon="9.73966498661265"><ele>583.8333333333334</ele><time>2026-05-04T15:16:27.893Z</time></trkpt><trkpt lat="44.73408219719059" lon="9.739778778541291"><ele>583.0</ele><time>2026-05-04T15:16:28.893Z</time></trkpt><trkpt lat="44.73402213314782" lon="9.739893003426777"><ele>581.4</ele><time>2026-05-04T15:16:29.893Z</time></trkpt><trkpt lat="44.73395704555163" lon="9.740007108356124"><ele>579.8</ele><time>2026-05-04T15:16:30.893Z</time></trkpt><trkpt lat="44.733890754576805" lon="9.740118628656328"><ele>578.2</ele><time>2026-05-04T15:16:31.893Z</time></trkpt><trkpt lat="44.733818145553826" lon="9.740222104405003"><ele>576.6</ele><time>2026-05-04T15:16:32.893Z</time></trkpt><trkpt lat="44.733733695676946" lon="9.740313176103163"><ele>575.0</ele><time>2026-05-04T15:16:33.893Z</time></trkpt><trkpt lat="44.7336340088921" lon="9.740392390108155"><ele>570.8</ele><time>2026-05-04T15:16:34.893Z</time></trkpt><trkpt lat="44.7335301139435" lon="9.740460421942625"><ele>566.6</ele><time>2026-05-04T15:16:35.893Z</time></trkpt><trkpt lat="44.73341965097016" lon="9.740528589001354"><ele>562.4</ele><time>2026-05-04T15:16:36.893Z</time></trkpt><trkpt lat="44.733323050619795" lon="9.740593807674928"><ele>558.2</ele><time>2026-05-04T15:16:37.893Z</time></trkpt><trkpt lat="44.73324289062013" lon="9.740667463205929"><ele>554.0</ele><time>2026-05-04T15:16:38.893Z</time></trkpt><trkpt lat="44.733176252829594" lon="9.740769198702155"><ele>554.0</ele><time>2026-05-04T15:16:39.893Z</time></trkpt><trkpt lat="44.7331244063659" lon="9.740887944751485"><ele>554.0</ele><time>2026-05-04T15:16:40.893Z</time></trkpt><trkpt lat="44.73307748103152" lon="9.741018375669869"><ele>554.0</ele><time>2026-05-04T15:16:41.893Z</time></trkpt><trkpt lat="44.73302135407828" lon="9.74114940065765"><ele>554.0</ele><time>2026-05-04T15:16:42.893Z</time></trkpt><trkpt lat="44.73296643368244" lon="9.741285773629237"><ele>554.0</ele><time>2026-05-04T15:16:43.893Z</time></trkpt><trkpt lat="44.732927504879314" lon="9.741438497301925"><ele>552.0</ele><time>2026-05-04T15:16:44.893Z</time></trkpt><trkpt lat="44.7328920722839" lon="9.741594392691894"><ele>550.0</ele><time>2026-05-04T15:16:45.893Z</time></trkpt><trkpt lat="44.73284415628137" lon="9.741741024310754"><ele>548.0</ele><time>2026-05-04T15:16:46.893Z</time></trkpt><trkpt lat="44.73278925973287" lon="9.741881006827551"><ele>546.0</ele><time>2026-05-04T15:16:47.893Z</time></trkpt><trkpt lat="44.732729942238414" lon="9.742012878432709"><ele>541.75</ele><time>2026-05-04T15:16:48.893Z</time></trkpt><trkpt lat="44.73266464515758" lon="9.74215289418509"><ele>537.5</ele><time>2026-05-04T15:16:49.893Z</time></trkpt><trkpt lat="44.7326024944991" lon="9.742293776035563"><ele>533.25</ele><time>2026-05-04T15:16:50.893Z</time></trkpt><trkpt lat="44.73254386973767" lon="9.742436638441808"><ele>529.0</ele><time>2026-05-04T15:16:51.893Z</time></trkpt><trkpt lat="44.73248954761878" lon="9.742587667683152"><ele>526.75</ele><time>2026-05-04T15:16:52.893Z</time></trkpt><trkpt lat="44.732441481111174" lon="9.74274059740929"><ele>524.5</ele><time>2026-05-04T15:16:53.893Z</time></trkpt><trkpt lat="44.732397690792176" lon="9.742899916550982"><ele>522.25</ele><time>2026-05-04T15:16:54.893Z</time></trkpt><trkpt lat="44.73235178258858" lon="9.743057021881514"><ele>520.0</ele><time>2026-05-04T15:16:55.893Z</time></trkpt><trkpt lat="44.73230599758856" lon="9.74320456792484"><ele>520.0</ele><time>2026-05-04T15:16:56.893Z</time></trkpt><trkpt lat="44.73227175911129" lon="9.743343887821057"><ele>520.0</ele><time>2026-05-04T15:16:57.893Z</time></trkpt><trkpt lat="44.732242840785545" lon="9.74347436808786"><ele>520.0</ele><time>2026-05-04T15:16:58.893Z</time></trkpt><trkpt lat="44.73221474899962" lon="9.743595647400522"><ele>520.0</ele><time>2026-05-04T15:16:59.893Z</time></trkpt><trkpt lat="44.732184478394686" lon="9.74370604967555"><ele>520.0</ele><time>2026-05-04T15:17:00.893Z</time></trkpt><trkpt lat="44.732144585502056" lon="9.743797327659713"><ele>517.8333333333334</ele><time>2026-05-04T15:17:01.893Z</time></trkpt><trkpt lat="44.73209403770916" lon="9.743869358600211"><ele>515.6666666666667</ele><time>2026-05-04T15:17:02.893Z</time></trkpt><trkpt lat="44.73202661619147" lon="9.74391817646079"><ele>513.5</ele><time>2026-05-04T15:17:03.893Z</time></trkpt><trkpt lat="44.73194491954815" lon="9.743937954571772"><ele>511.33333333333337</ele><time>2026-05-04T15:17:04.893Z</time></trkpt><trkpt lat="44.731858061153375" lon="9.743966861142326"><ele>509.1666666666667</ele><time>2026-05-04T15:17:05.893Z</time></trkpt><trkpt lat="44.731767290158004" lon="9.744023670446905"><ele>507.0</ele><time>2026-05-04T15:17:06.893Z</time></trkpt><trkpt lat="44.731677206647745" lon="9.744094218169701"><ele>505.8</ele><time>2026-05-04T15:17:07.893Z</time></trkpt><trkpt lat="44.731585887159724" lon="9.74417909270681"><ele>504.6</ele><time>2026-05-04T15:17:08.893Z</time></trkpt><trkpt lat="44.731503018861474" lon="9.744250421140746"><ele>503.40000000000003</ele><time>2026-05-04T15:17:09.892Z</time></trkpt><trkpt lat="44.73142630560958" lon="9.744317131970858"><ele>502.20000000000005</ele><time>2026-05-04T15:17:10.892Z</time></trkpt><trkpt lat="44.73136078657989" lon="9.744359012007864"><ele>501.0</ele><time>2026-05-04T15:17:11.892Z</time></trkpt><trkpt lat="44.731254565736826" lon="9.744392033011723"><ele>499.3333333333333</ele><time>2026-05-04T15:17:13.892Z</time></trkpt><trkpt lat="44.73118571412458" lon="9.744406606965244"><ele>497.66666666666663</ele><time>2026-05-04T15:17:15.892Z</time></trkpt><trkpt lat="44.73109762968609" lon="9.744414022166966"><ele>496.0</ele><time>2026-05-04T15:17:17.892Z</time></trkpt><trkpt lat="44.7310291880095" lon="9.744458086847265"><ele>494.3333333333333</ele><time>2026-05-04T15:17:18.892Z</time></trkpt><trkpt lat="44.73095327465102" lon="9.744534520057408"><ele>492.66666666666663</ele><time>2026-05-04T15:17:19.892Z</time></trkpt><trkpt lat="44.73087379354628" lon="9.744600194137425"><ele>491.0</ele><time>2026-05-04T15:17:20.892Z</time></trkpt><trkpt lat="44.73078676510398" lon="9.744667735453259"><ele>489.6</ele><time>2026-05-04T15:17:21.892Z</time></trkpt><trkpt lat="44.73070368934055" lon="9.744734248064008"><ele>488.20000000000005</ele><time>2026-05-04T15:17:22.892Z</time></trkpt><trkpt lat="44.73062729423608" lon="9.744803327665391"><ele>486.79999999999995</ele><time>2026-05-04T15:17:23.892Z</time></trkpt><trkpt lat="44.7305590159597" lon="9.744911643447653"><ele>485.4</ele><time>2026-05-04T15:17:24.892Z</time></trkpt><trkpt lat="44.73049990768368" lon="9.745024257557825"><ele>484.0</ele><time>2026-05-04T15:17:25.892Z</time></trkpt><trkpt lat="44.73044549296651" lon="9.745151954232323"><ele>482.83333333333337</ele><time>2026-05-04T15:17:26.892Z</time></trkpt><trkpt lat="44.73039499856202" lon="9.745271419204554"><ele>481.6666666666667</ele><time>2026-05-04T15:17:27.892Z</time></trkpt><trkpt lat="44.730360746676055" lon="9.745375217752821"><ele>480.5</ele><time>2026-05-04T15:17:28.892Z</time></trkpt><trkpt lat="44.730354780531925" lon="9.745475191937008"><ele>479.33333333333337</ele><time>2026-05-04T15:17:29.892Z</time></trkpt><trkpt lat="44.730373140061886" lon="9.745573313135134"><ele>478.1666666666667</ele><time>2026-05-04T15:17:30.892Z</time></trkpt><trkpt lat="44.730414367175044" lon="9.745685074765579"><ele>477.0</ele><time>2026-05-04T15:17:31.892Z</time></trkpt><trkpt lat="44.730468442897006" lon="9.745795236752862"><ele>477.0</ele><time>2026-05-04T15:17:32.892Z</time></trkpt><trkpt lat="44.73051664152758" lon="9.745914863809972"><ele>477.00000000000006</ele><time>2026-05-04T15:17:33.892Z</time></trkpt><trkpt lat="44.73055060110329" lon="9.746041447007283"><ele>477.00000000000006</ele><time>2026-05-04T15:17:34.892Z</time></trkpt><trkpt lat="44.73057574939395" lon="9.746160224669996"><ele>477.0</ele><time>2026-05-04T15:17:35.892Z</time></trkpt><trkpt lat="44.73058510405339" lon="9.746288163010924"><ele>477.0</ele><time>2026-05-04T15:17:36.892Z</time></trkpt><trkpt lat="44.73056293803664" lon="9.746408730020049"><ele>475.8</ele><time>2026-05-04T15:17:37.892Z</time></trkpt><trkpt lat="44.730530399557225" lon="9.746544121340168"><ele>474.6</ele><time>2026-05-04T15:17:38.892Z</time></trkpt><trkpt lat="44.730488706468385" lon="9.746684660519993"><ele>473.40000000000003</ele><time>2026-05-04T15:17:39.892Z</time></trkpt><trkpt lat="44.73045082534791" lon="9.746824212288864"><ele>472.20000000000005</ele><time>2026-05-04T15:17:40.892Z</time></trkpt><trkpt lat="44.73041810316682" lon="9.746953882820074"><ele>471.0</ele><time>2026-05-04T15:17:41.892Z</time></trkpt><trkpt lat="44.73037943872401" lon="9.747072414785203"><ele>468.8</ele><time>2026-05-04T15:17:42.892Z</time></trkpt><trkpt lat="44.73033169694804" lon="9.74717495820797"><ele>466.6</ele><time>2026-05-04T15:17:43.892Z</time></trkpt><trkpt lat="44.73028131571895" lon="9.7472794887399"><ele>464.4</ele><time>2026-05-04T15:17:44.892Z</time></trkpt><trkpt lat="44.73022118388453" lon="9.747382812026695"><ele>462.2</ele><time>2026-05-04T15:17:45.892Z</time></trkpt><trkpt lat="44.73015814322614" lon="9.74748349814288"><ele>460.0</ele><time>2026-05-04T15:17:46.892Z</time></trkpt><trkpt lat="44.73008925303489" lon="9.747577796746576"><ele>459.33333333333337</ele><time>2026-05-04T15:17:47.892Z</time></trkpt><trkpt lat="44.730019733468275" lon="9.747675336015648"><ele>458.6666666666667</ele><time>2026-05-04T15:17:48.892Z</time></trkpt><trkpt lat="44.72995830871105" lon="9.747768519253416"><ele>458.0</ele><time>2026-05-04T15:17:49.892Z</time></trkpt><trkpt lat="44.72989827214438" lon="9.747847752838261"><ele>457.33333333333337</ele><time>2026-05-04T15:17:50.892Z</time></trkpt><trkpt lat="44.729839722246" lon="9.747926773646398"><ele>456.6666666666667</ele><time>2026-05-04T15:17:51.892Z</time></trkpt><trkpt lat="44.72978886266541" lon="9.748004933540035"><ele>456.0</ele><time>2026-05-04T15:17:52.892Z</time></trkpt><trkpt lat="44.72974475829516" lon="9.748074309294186"><ele>454.8333333333333</ele><time>2026-05-04T15:17:53.892Z</time></trkpt><trkpt lat="44.729682903841585" lon="9.748170865327252"><ele>453.66666666666663</ele><time>2026-05-04T15:17:55.892Z</time></trkpt><trkpt lat="44.72965135566606" lon="9.74825692524865"><ele>452.5</ele><time>2026-05-04T15:17:57.892Z</time></trkpt><trkpt lat="44.729680168447274" lon="9.74838569561745"><ele>451.3333333333333</ele><time>2026-05-04T15:17:59.892Z</time></trkpt><trkpt lat="44.72974248797586" lon="9.748463917895275"><ele>450.16666666666663</ele><time>2026-05-04T15:18:00.892Z</time></trkpt><trkpt lat="44.72981924093977" lon="9.7485387779096"><ele>449.0</ele><time>2026-05-04T15:18:01.892Z</time></trkpt><trkpt lat="44.72991975552465" lon="9.748586780349541"><ele>446.75</ele><time>2026-05-04T15:18:02.892Z</time></trkpt><trkpt lat="44.7300371897372" lon="9.748606484011358"><ele>444.5</ele><time>2026-05-04T15:18:03.892Z</time></trkpt><trkpt lat="44.73015975025889" lon="9.748619788024097"><ele>442.25</ele><time>2026-05-04T15:18:04.892Z</time></trkpt><trkpt lat="44.73028051822965" lon="9.748622277955274"><ele>440.0</ele><time>2026-05-04T15:18:05.892Z</time></trkpt><trkpt lat="44.730398313399185" lon="9.74861958025415"><ele>439.75</ele><time>2026-05-04T15:18:06.892Z</time></trkpt><trkpt lat="44.73050972851939" lon="9.74862175808743"><ele>439.5</ele><time>2026-05-04T15:18:07.892Z</time></trkpt><trkpt lat="44.73062503538903" lon="9.7486278800822"><ele>439.25</ele><time>2026-05-04T15:18:08.892Z</time></trkpt><trkpt lat="44.73074444662977" lon="9.748631826993769"><ele>439.0</ele><time>2026-05-04T15:18:09.892Z</time></trkpt><trkpt lat="44.73087138600404" lon="9.748629521231779"><ele>439.0</ele><time>2026-05-04T15:18:10.892Z</time></trkpt><trkpt lat="44.731011231471875" lon="9.748627317042326"><ele>439.0</ele><time>2026-05-04T15:18:11.892Z</time></trkpt><trkpt lat="44.731158006542046" lon="9.748631541156483"><ele>439.0</ele><time>2026-05-04T15:18:12.892Z</time></trkpt><trkpt lat="44.73128919260234" lon="9.748656794906125"><ele>439.0</ele><time>2026-05-04T15:18:13.892Z</time></trkpt><trkpt lat="44.73139058582524" lon="9.74871501490251"><ele>439.75</ele><time>2026-05-04T15:18:14.892Z</time></trkpt><trkpt lat="44.73150070820125" lon="9.748834973037992"><ele>440.5</ele><time>2026-05-04T15:18:15.891Z</time></trkpt><trkpt lat="44.73160946937038" lon="9.749001176021691"><ele>441.25</ele><time>2026-05-04T15:18:16.891Z</time></trkpt><trkpt lat="44.73166367680965" lon="9.749177621089547"><ele>442.0</ele><time>2026-05-04T15:18:17.891Z</time></trkpt><trkpt lat="44.73169285900188" lon="9.74937990314077"><ele>440.25</ele><time>2026-05-04T15:18:18.891Z</time></trkpt><trkpt lat="44.73172082266344" lon="9.749569804557321"><ele>438.5</ele><time>2026-05-04T15:18:19.891Z</time></trkpt><trkpt lat="44.731748095174126" lon="9.749720929123999"><ele>436.75</ele><time>2026-05-04T15:18:20.891Z</time></trkpt><trkpt lat="44.731752786080435" lon="9.74991801000548"><ele>435.0</ele><time>2026-05-04T15:18:22.891Z</time></trkpt><trkpt lat="44.731728402009885" lon="9.750006255975334"><ele>435.0</ele><time>2026-05-04T15:18:23.891Z</time></trkpt><trkpt lat="44.73167986879566" lon="9.750088061181177"><ele>435.0</ele><time>2026-05-04T15:18:24.891Z</time></trkpt><trkpt lat="44.731618256853906" lon="9.750174873349286"><ele>435.0</ele><time>2026-05-04T15:18:25.891Z</time></trkpt><trkpt lat="44.731551513218285" lon="9.750277792684093"><ele>435.0</ele><time>2026-05-04T15:18:26.891Z</time></trkpt><trkpt lat="44.731485991113246" lon="9.750385604824302"><ele>435.0</ele><time>2026-05-04T15:18:27.891Z</time></trkpt><trkpt lat="44.73140780806531" lon="9.75046889157001"><ele>433.8</ele><time>2026-05-04T15:18:28.891Z</time></trkpt><trkpt lat="44.73131531233463" lon="9.750537772489539"><ele>432.6</ele><time>2026-05-04T15:18:29.891Z</time></trkpt><trkpt lat="44.73120517172955" lon="9.75059394397859"><ele>431.4</ele><time>2026-05-04T15:18:30.892Z</time></trkpt><trkpt lat="44.73110710295513" lon="9.750652460744227"><ele>430.2</ele><time>2026-05-04T15:18:31.892Z</time></trkpt><trkpt lat="44.73101508039248" lon="9.75069221994213"><ele>429.0</ele><time>2026-05-04T15:18:32.892Z</time></trkpt><trkpt lat="44.73092582922611" lon="9.750702009551244"><ele>428.5</ele><time>2026-05-04T15:18:33.892Z</time></trkpt><trkpt lat="44.73084848611712" lon="9.75068310412336"><ele>428.0</ele><time>2026-05-04T15:18:34.891Z</time></trkpt><trkpt lat="44.730778890259344" lon="9.750670896514336"><ele>427.5</ele><time>2026-05-04T15:18:35.891Z</time></trkpt><trkpt lat="44.73069849232215" lon="9.750705468231502"><ele>427.0</ele><time>2026-05-04T15:18:36.892Z</time></trkpt><trkpt lat="44.73059955080227" lon="9.750773831165647"><ele>426.5</ele><time>2026-05-04T15:18:37.892Z</time></trkpt><trkpt lat="44.73050204292418" lon="9.750818098320085"><ele>426.0</ele><time>2026-05-04T15:18:38.892Z</time></trkpt><trkpt lat="44.73041252135493" lon="9.750881030925978"><ele>426.0</ele><time>2026-05-04T15:18:39.892Z</time></trkpt><trkpt lat="44.73033663888458" lon="9.750993456482135"><ele>426.0</ele><time>2026-05-04T15:18:40.892Z</time></trkpt><trkpt lat="44.730253503568214" lon="9.751078634451648"><ele>426.0</ele><time>2026-05-04T15:18:41.892Z</time></trkpt><trkpt lat="44.73017270478504" lon="9.751155404342176"><ele>426.0</ele><time>2026-05-04T15:18:42.892Z</time></trkpt><trkpt lat="44.73009963328656" lon="9.751228236213677"><ele>426.0</ele><time>2026-05-04T15:18:43.892Z</time></trkpt><trkpt lat="44.730031855974815" lon="9.751295365081925"><ele>423.3333333333333</ele><time>2026-05-04T15:18:44.892Z</time></trkpt><trkpt lat="44.72997498795241" lon="9.751367677379132"><ele>420.66666666666663</ele><time>2026-05-04T15:18:45.892Z</time></trkpt><trkpt lat="44.72995353555315" lon="9.751477654124606"><ele>418.0</ele><time>2026-05-04T15:18:46.892Z</time></trkpt><trkpt lat="44.729951002827114" lon="9.751621547580573"><ele>415.3333333333333</ele><time>2026-05-04T15:18:47.892Z</time></trkpt><trkpt lat="44.729939190272795" lon="9.751730464955216"><ele>412.66666666666663</ele><time>2026-05-04T15:18:48.892Z</time></trkpt><trkpt lat="44.7298936801972" lon="9.751807482288736"><ele>410.0</ele><time>2026-05-04T15:18:49.892Z</time></trkpt><trkpt lat="44.729821633402445" lon="9.751882355193992"><ele>408.0</ele><time>2026-05-04T15:18:50.892Z</time></trkpt><trkpt lat="44.729727473146475" lon="9.751950136660254"><ele>406.0</ele><time>2026-05-04T15:18:51.892Z</time></trkpt><trkpt lat="44.729636809767705" lon="9.752029214348205"><ele>404.0</ele><time>2026-05-04T15:18:52.892Z</time></trkpt><trkpt lat="44.72954880769461" lon="9.752102860089304"><ele>402.0</ele><time>2026-05-04T15:18:53.892Z</time></trkpt><trkpt lat="44.72946761669508" lon="9.752171549332541"><ele>400.0</ele><time>2026-05-04T15:18:54.892Z</time></trkpt><trkpt lat="44.72939753248273" lon="9.752236302797684"><ele>400.00000000000006</ele><time>2026-05-04T15:18:55.892Z</time></trkpt><trkpt lat="44.72934421818949" lon="9.752299792834194"><ele>400.0</ele><time>2026-05-04T15:18:56.892Z</time></trkpt><trkpt lat="44.72930949550765" lon="9.752379374922036"><ele>400.0</ele><time>2026-05-04T15:18:57.892Z</time></trkpt><trkpt lat="44.72932619188519" lon="9.752488184420622"><ele>400.0</ele><time>2026-05-04T15:18:58.892Z</time></trkpt><trkpt lat="44.72938193293906" lon="9.752613862337462"><ele>400.00000000000006</ele><time>2026-05-04T15:18:59.892Z</time></trkpt><trkpt lat="44.72942106060924" lon="9.75272232197137"><ele>400.0</ele><time>2026-05-04T15:19:00.892Z</time></trkpt><trkpt lat="44.729475177590835" lon="9.75285829672184"><ele>400.0</ele><time>2026-05-04T15:19:01.892Z</time></trkpt><trkpt lat="44.72953198239688" lon="9.753008333894877"><ele>400.0</ele><time>2026-05-04T15:19:02.892Z</time></trkpt><trkpt lat="44.729587601324184" lon="9.75313670421919"><ele>400.0</ele><time>2026-05-04T15:19:03.892Z</time></trkpt><trkpt lat="44.72966514959113" lon="9.75326058991667"><ele>400.0</ele><time>2026-05-04T15:19:04.892Z</time></trkpt><trkpt lat="44.72976917221364" lon="9.753380095673927"><ele>400.0</ele><time>2026-05-04T15:19:05.892Z</time></trkpt><trkpt lat="44.72986249341909" lon="9.753475783070476"><ele>400.0</ele><time>2026-05-04T15:19:06.892Z</time></trkpt><trkpt lat="44.72994590018855" lon="9.753599986537367"><ele>400.0</ele><time>2026-05-04T15:19:07.892Z</time></trkpt><trkpt lat="44.730016098540744" lon="9.75375375300415"><ele>400.0</ele><time>2026-05-04T15:19:08.892Z</time></trkpt><trkpt lat="44.73008427706046" lon="9.75393121466871"><ele>399.0</ele><time>2026-05-04T15:19:09.892Z</time></trkpt><trkpt lat="44.73015020391322" lon="9.754110411536804"><ele>398.0</ele><time>2026-05-04T15:19:10.892Z</time></trkpt><trkpt lat="44.73020758839225" lon="9.75428597367356"><ele>397.0</ele><time>2026-05-04T15:19:11.892Z</time></trkpt><trkpt lat="44.73026986261252" lon="9.754468828857455"><ele>396.0</ele><time>2026-05-04T15:19:12.892Z</time></trkpt><trkpt lat="44.73034655427223" lon="9.754636924928585"><ele>396.0</ele><time>2026-05-04T15:19:13.892Z</time></trkpt><trkpt lat="44.73043611764456" lon="9.754800707979"><ele>396.0</ele><time>2026-05-04T15:19:14.892Z</time></trkpt><trkpt lat="44.73053551503678" lon="9.754946385389854"><ele>396.0</ele><time>2026-05-04T15:19:15.892Z</time></trkpt><trkpt lat="44.73063551521254" lon="9.755093388132597"><ele>396.0</ele><time>2026-05-04T15:19:16.892Z</time></trkpt><trkpt lat="44.73073029523421" lon="9.755245496947246"><ele>400.25</ele><time>2026-05-04T15:19:17.892Z</time></trkpt><trkpt lat="44.730822848414725" lon="9.75540214056407"><ele>404.5</ele><time>2026-05-04T15:19:18.892Z</time></trkpt><trkpt lat="44.73090184440561" lon="9.755546557691945"><ele>408.75</ele><time>2026-05-04T15:19:19.892Z</time></trkpt><trkpt lat="44.7309803598846" lon="9.755691749509896"><ele>413.0</ele><time>2026-05-04T15:19:20.892Z</time></trkpt><trkpt lat="44.73105183929544" lon="9.75583265587469"><ele>414.5</ele><time>2026-05-04T15:19:21.892Z</time></trkpt><trkpt lat="44.73113152177082" lon="9.755961040144033"><ele>416.0</ele><time>2026-05-04T15:19:22.892Z</time></trkpt><trkpt lat="44.73124205937321" lon="9.756049617910122"><ele>417.5</ele><time>2026-05-04T15:19:23.892Z</time></trkpt><trkpt lat="44.73136456782997" lon="9.756116070058912"><ele>419.0</ele><time>2026-05-04T15:19:24.892Z</time></trkpt><trkpt lat="44.73149604262596" lon="9.756116961635222"><ele>419.0</ele><time>2026-05-04T15:19:25.891Z</time></trkpt><trkpt lat="44.73161814228273" lon="9.756157367085757"><ele>419.0</ele><time>2026-05-04T15:19:26.891Z</time></trkpt><trkpt lat="44.73171512327582" lon="9.756242096350025"><ele>419.0</ele><time>2026-05-04T15:19:27.891Z</time></trkpt><trkpt lat="44.73180622388544" lon="9.756346836820171"><ele>419.0</ele><time>2026-05-04T15:19:28.891Z</time></trkpt><trkpt lat="44.73189234561709" lon="9.756471693490322"><ele>417.5</ele><time>2026-05-04T15:19:29.891Z</time></trkpt><trkpt lat="44.73196854019762" lon="9.75659662523605"><ele>416.0</ele><time>2026-05-04T15:19:30.891Z</time></trkpt><trkpt lat="44.732028776640774" lon="9.7567382325648"><ele>414.5</ele><time>2026-05-04T15:19:31.891Z</time></trkpt><trkpt lat="44.73206754584277" lon="9.756888310466188"><ele>413.0</ele><time>2026-05-04T15:19:32.891Z</time></trkpt><trkpt lat="44.7320834540212" lon="9.75705353088946"><ele>413.0</ele><time>2026-05-04T15:19:33.891Z</time></trkpt><trkpt lat="44.732079793348355" lon="9.757239679844671"><ele>413.0</ele><time>2026-05-04T15:19:34.891Z</time></trkpt><trkpt lat="44.73207999673689" lon="9.757430628605515"><ele>413.0</ele><time>2026-05-04T15:19:35.891Z</time></trkpt><trkpt lat="44.732087122771446" lon="9.757616405042048"><ele>413.0</ele><time>2026-05-04T15:19:36.891Z</time></trkpt><trkpt lat="44.73209790468239" lon="9.757798283281478"><ele>415.0</ele><time>2026-05-04T15:19:37.891Z</time></trkpt><trkpt lat="44.73211076113798" lon="9.75797386413779"><ele>417.0</ele><time>2026-05-04T15:19:38.891Z</time></trkpt><trkpt lat="44.7321203287478" lon="9.758153154409321"><ele>419.0</ele><time>2026-05-04T15:19:39.891Z</time></trkpt><trkpt lat="44.73213224388267" lon="9.75833355557672"><ele>421.0</ele><time>2026-05-04T15:19:40.891Z</time></trkpt><trkpt lat="44.73214882183724" lon="9.758512876941348"><ele>422.75</ele><time>2026-05-04T15:19:41.891Z</time></trkpt><trkpt lat="44.732164273174206" lon="9.758694272481241"><ele>424.5</ele><time>2026-05-04T15:19:42.891Z</time></trkpt><trkpt lat="44.73217855785283" lon="9.758901954888517"><ele>426.25</ele><time>2026-05-04T15:19:43.891Z</time></trkpt><trkpt lat="44.73218553383217" lon="9.759104494818283"><ele>428.0</ele><time>2026-05-04T15:19:44.891Z</time></trkpt><trkpt lat="44.732186422362076" lon="9.75928268850513"><ele>428.5</ele><time>2026-05-04T15:19:45.891Z</time></trkpt><trkpt lat="44.73218711969885" lon="9.759456220436238"><ele>429.0</ele><time>2026-05-04T15:19:46.891Z</time></trkpt><trkpt lat="44.73216082170523" lon="9.759612790793811"><ele>429.5</ele><time>2026-05-04T15:19:47.891Z</time></trkpt><trkpt lat="44.73211763421255" lon="9.75977037487519"><ele>430.0</ele><time>2026-05-04T15:19:48.891Z</time></trkpt><trkpt lat="44.7320547473345" lon="9.759930463129953"><ele>430.0</ele><time>2026-05-04T15:19:49.891Z</time></trkpt><trkpt lat="44.73198498852989" lon="9.760095119160301"><ele>430.0</ele><time>2026-05-04T15:19:50.891Z</time></trkpt><trkpt lat="44.73190047096911" lon="9.760255450009067"><ele>430.0</ele><time>2026-05-04T15:19:51.891Z</time></trkpt><trkpt lat="44.73180400914393" lon="9.760402064160985"><ele>430.0</ele><time>2026-05-04T15:19:52.891Z</time></trkpt><trkpt lat="44.73170440998528" lon="9.760520673027083"><ele>434.0</ele><time>2026-05-04T15:19:53.891Z</time></trkpt><trkpt lat="44.73160795991634" lon="9.76061672477347"><ele>438.0</ele><time>2026-05-04T15:19:54.891Z</time></trkpt><trkpt lat="44.731491514033976" lon="9.760694676801705"><ele>442.0</ele><time>2026-05-04T15:19:55.891Z</time></trkpt><trkpt lat="44.731361927626324" lon="9.760750336266547"><ele>446.0</ele><time>2026-05-04T15:19:56.891Z</time></trkpt><trkpt lat="44.731237507745675" lon="9.76080460149444"><ele>446.0</ele><time>2026-05-04T15:19:57.891Z</time></trkpt><trkpt lat="44.73112837157595" lon="9.760870741010375"><ele>446.0</ele><time>2026-05-04T15:19:58.891Z</time></trkpt><trkpt lat="44.73103387778767" lon="9.760921595301841"><ele>446.0</ele><time>2026-05-04T15:19:59.891Z</time></trkpt><trkpt lat="44.730939077977645" lon="9.760935428634225"><ele>446.0</ele><time>2026-05-04T15:20:00.891Z</time></trkpt><trkpt lat="44.730822033961466" lon="9.760910553364875"><ele>446.0</ele><time>2026-05-04T15:20:01.891Z</time></trkpt><trkpt lat="44.73069762492467" lon="9.760913681366441"><ele>449.75</ele><time>2026-05-04T15:20:02.891Z</time></trkpt><trkpt lat="44.73056209140885" lon="9.760945586081876"><ele>453.5</ele><time>2026-05-04T15:20:03.891Z</time></trkpt><trkpt lat="44.73043506051724" lon="9.760968837684695"><ele>457.25</ele><time>2026-05-04T15:20:04.891Z</time></trkpt><trkpt lat="44.730324595012114" lon="9.760981162714923"><ele>461.0</ele><time>2026-05-04T15:20:05.891Z</time></trkpt><trkpt lat="44.730242147003025" lon="9.760973132829013"><ele>463.49999999999994</ele><time>2026-05-04T15:20:06.891Z</time></trkpt><trkpt lat="44.730169850511324" lon="9.760946631550047"><ele>466.0</ele><time>2026-05-04T15:20:07.891Z</time></trkpt><trkpt lat="44.73009875976262" lon="9.760938555835345"><ele>468.5</ele><time>2026-05-04T15:20:08.891Z</time></trkpt><trkpt lat="44.730026884097654" lon="9.7609869265198"><ele>471.0</ele><time>2026-05-04T15:20:09.891Z</time></trkpt><trkpt lat="44.72995154781901" lon="9.761079417142048"><ele>473.49999999999994</ele><time>2026-05-04T15:20:10.891Z</time></trkpt><trkpt lat="44.72989009461093" lon="9.761182442573798"><ele>476.0</ele><time>2026-05-04T15:20:11.891Z</time></trkpt><trkpt lat="44.729841745827436" lon="9.761296999680917"><ele>476.4</ele><time>2026-05-04T15:20:12.891Z</time></trkpt><trkpt lat="44.72982678385543" lon="9.761441617747385"><ele>476.8</ele><time>2026-05-04T15:20:13.891Z</time></trkpt><trkpt lat="44.72984060666359" lon="9.761558835007659"><ele>477.19999999999993</ele><time>2026-05-04T15:20:14.891Z</time></trkpt><trkpt lat="44.72990480563349" lon="9.761668289110185"><ele>477.59999999999997</ele><time>2026-05-04T15:20:15.891Z</time></trkpt><trkpt lat="44.73001396409098" lon="9.761810161525245"><ele>478.0</ele><time>2026-05-04T15:20:16.891Z</time></trkpt><trkpt lat="44.73008851091178" lon="9.761947037344848"><ele>477.2</ele><time>2026-05-04T15:20:17.891Z</time></trkpt><trkpt lat="44.730160469986956" lon="9.762091424565988"><ele>476.4</ele><time>2026-05-04T15:20:18.891Z</time></trkpt><trkpt lat="44.73020890095401" lon="9.76222111729729"><ele>475.59999999999997</ele><time>2026-05-04T15:20:19.891Z</time></trkpt><trkpt lat="44.73023061823638" lon="9.762341723930204"><ele>474.79999999999995</ele><time>2026-05-04T15:20:20.891Z</time></trkpt><trkpt lat="44.73021820750989" lon="9.762452530343289"><ele>474.0</ele><time>2026-05-04T15:20:21.891Z</time></trkpt><trkpt lat="44.730169804136075" lon="9.762570351113931"><ele>478.0</ele><time>2026-05-04T15:20:22.891Z</time></trkpt><trkpt lat="44.730100017343815" lon="9.762710330364625"><ele>482.0</ele><time>2026-05-04T15:20:23.891Z</time></trkpt><trkpt lat="44.73002673892163" lon="9.762830679803738"><ele>486.0</ele><time>2026-05-04T15:20:24.891Z</time></trkpt><trkpt lat="44.72995624792954" lon="9.762952213498128"><ele>490.0</ele><time>2026-05-04T15:20:25.891Z</time></trkpt><trkpt lat="44.72988217581221" lon="9.763078270658058"><ele>490.00000000000006</ele><time>2026-05-04T15:20:26.891Z</time></trkpt><trkpt lat="44.72982159750516" lon="9.763178879067977"><ele>490.0</ele><time>2026-05-04T15:20:27.891Z</time></trkpt><trkpt lat="44.72978200888222" lon="9.763268698744326"><ele>490.0</ele><time>2026-05-04T15:20:28.891Z</time></trkpt><trkpt lat="44.729765657340906" lon="9.763369601238091"><ele>490.0</ele><time>2026-05-04T15:20:29.891Z</time></trkpt><trkpt lat="44.729783266740455" lon="9.76348964191546"><ele>490.00000000000006</ele><time>2026-05-04T15:20:30.891Z</time></trkpt><trkpt lat="44.72983209672552" lon="9.763600660015602"><ele>490.0</ele><time>2026-05-04T15:20:31.89Z</time></trkpt><trkpt lat="44.72991021033885" lon="9.763677054299855"><ele>490.0</ele><time>2026-05-04T15:20:32.89Z</time></trkpt><trkpt lat="44.72999910944932" lon="9.763737704832847"><ele>490.0</ele><time>2026-05-04T15:20:33.89Z</time></trkpt><trkpt lat="44.73009086855636" lon="9.763795436716943"><ele>490.0</ele><time>2026-05-04T15:20:34.89Z</time></trkpt><trkpt lat="44.730188635994644" lon="9.763850019309642"><ele>490.0</ele><time>2026-05-04T15:20:35.89Z</time></trkpt><trkpt lat="44.73028333782253" lon="9.763915522870644"><ele>490.0</ele><time>2026-05-04T15:20:36.89Z</time></trkpt><trkpt lat="44.73036385788524" lon="9.763981262217959"><ele>490.0</ele><time>2026-05-04T15:20:37.89Z</time></trkpt><trkpt lat="44.73041696250408" lon="9.764072439267641"><ele>490.0</ele><time>2026-05-04T15:20:38.89Z</time></trkpt><trkpt lat="44.73044990351465" lon="9.764181283149577"><ele>490.0</ele><time>2026-05-04T15:20:39.891Z</time></trkpt><trkpt lat="44.73044848246215" lon="9.764327154503583"><ele>490.0</ele><time>2026-05-04T15:20:40.89Z</time></trkpt><trkpt lat="44.730427791226525" lon="9.764528050437423"><ele>490.0</ele><time>2026-05-04T15:20:41.89Z</time></trkpt><trkpt lat="44.73040951636226" lon="9.764685199745053"><ele>492.00000000000006</ele><time>2026-05-04T15:20:42.891Z</time></trkpt><trkpt lat="44.73040329913109" lon="9.764808529623712"><ele>494.0</ele><time>2026-05-04T15:20:43.89Z</time></trkpt><trkpt lat="44.73038444718956" lon="9.76489480045257"><ele>496.0</ele><time>2026-05-04T15:20:44.89Z</time></trkpt><trkpt lat="44.73034490515398" lon="9.76497161897151"><ele>498.0</ele><time>2026-05-04T15:20:45.89Z</time></trkpt><trkpt lat="44.730278687126436" lon="9.765029268379246"><ele>500.00000000000006</ele><time>2026-05-04T15:20:46.89Z</time></trkpt><trkpt lat="44.73018423095975" lon="9.765037570000795"><ele>502.0</ele><time>2026-05-04T15:20:47.89Z</time></trkpt><trkpt lat="44.73008901360641" lon="9.765037920521902"><ele>504.75</ele><time>2026-05-04T15:20:48.89Z</time></trkpt><trkpt lat="44.729984369503626" lon="9.76501750986136"><ele>507.5</ele><time>2026-05-04T15:20:49.891Z</time></trkpt><trkpt lat="44.72986768832302" lon="9.765007541231547"><ele>510.25</ele><time>2026-05-04T15:20:50.891Z</time></trkpt><trkpt lat="44.72974465745519" lon="9.764994122215995"><ele>513.0</ele><time>2026-05-04T15:20:51.891Z</time></trkpt><trkpt lat="44.72961260552069" lon="9.764985051990456"><ele>513.0</ele><time>2026-05-04T15:20:52.891Z</time></trkpt><trkpt lat="44.729476960237996" lon="9.764990420025567"><ele>513.0</ele><time>2026-05-04T15:20:53.891Z</time></trkpt><trkpt lat="44.72934563130863" lon="9.765000681297956"><ele>513.0</ele><time>2026-05-04T15:20:54.891Z</time></trkpt><trkpt lat="44.72920604237542" lon="9.765011222237415"><ele>513.0</ele><time>2026-05-04T15:20:55.891Z</time></trkpt><trkpt lat="44.729065621579764" lon="9.765013203065804"><ele>515.75</ele><time>2026-05-04T15:20:56.891Z</time></trkpt><trkpt lat="44.72893155851267" lon="9.765014739111413"><ele>518.5</ele><time>2026-05-04T15:20:57.891Z</time></trkpt><trkpt lat="44.72881030088927" lon="9.765008601511214"><ele>521.25</ele><time>2026-05-04T15:20:58.891Z</time></trkpt><trkpt lat="44.72869977592268" lon="9.765011883260003"><ele>524.0</ele><time>2026-05-04T15:20:59.891Z</time></trkpt><trkpt lat="44.72858526749726" lon="9.76500766048782"><ele>526.25</ele><time>2026-05-04T15:21:00.891Z</time></trkpt><trkpt lat="44.7284700296895" lon="9.764996035059669"><ele>528.5</ele><time>2026-05-04T15:21:01.891Z</time></trkpt><trkpt lat="44.72835120548677" lon="9.764962313963009"><ele>530.75</ele><time>2026-05-04T15:21:02.891Z</time></trkpt><trkpt lat="44.72824172219544" lon="9.764915817909523"><ele>533.0</ele><time>2026-05-04T15:21:03.891Z</time></trkpt><trkpt lat="44.728143299305785" lon="9.764837430313618"><ele>533.0</ele><time>2026-05-04T15:21:04.891Z</time></trkpt><trkpt lat="44.72806044422878" lon="9.764738453682453"><ele>533.0</ele><time>2026-05-04T15:21:05.891Z</time></trkpt><trkpt lat="44.72799236657582" lon="9.764613899860704"><ele>533.0</ele><time>2026-05-04T15:21:06.891Z</time></trkpt><trkpt lat="44.72796126724756" lon="9.764479336963605"><ele>533.0</ele><time>2026-05-04T15:21:07.89Z</time></trkpt><trkpt lat="44.727926865694" lon="9.764354059966223"><ele>533.0</ele><time>2026-05-04T15:21:08.89Z</time></trkpt><trkpt lat="44.72789238087029" lon="9.76423786882321"><ele>532.0</ele><time>2026-05-04T15:21:09.89Z</time></trkpt><trkpt lat="44.727839989585114" lon="9.764154961250984"><ele>531.0</ele><time>2026-05-04T15:21:10.89Z</time></trkpt><trkpt lat="44.72777339579541" lon="9.764103442590686"><ele>530.0</ele><time>2026-05-04T15:21:11.89Z</time></trkpt><trkpt lat="44.72769149053279" lon="9.76412823397076"><ele>529.0</ele><time>2026-05-04T15:21:12.89Z</time></trkpt><trkpt lat="44.72762457909916" lon="9.764242511432718"><ele>528.0</ele><time>2026-05-04T15:21:13.89Z</time></trkpt><trkpt lat="44.727591214890985" lon="9.76437883861353"><ele>527.0</ele><time>2026-05-04T15:21:14.89Z</time></trkpt><trkpt lat="44.72759401560197" lon="9.764500434513135"><ele>528.5</ele><time>2026-05-04T15:21:15.89Z</time></trkpt><trkpt lat="44.72766741296846" lon="9.764643969835129"><ele>530.0</ele><time>2026-05-04T15:21:16.89Z</time></trkpt><trkpt lat="44.72774420094905" lon="9.764763014747105"><ele>531.5</ele><time>2026-05-04T15:21:17.89Z</time></trkpt><trkpt lat="44.72782276170628" lon="9.764884674056999"><ele>533.0</ele><time>2026-05-04T15:21:18.89Z</time></trkpt><trkpt lat="44.72790005419662" lon="9.764990385935787"><ele>533.0</ele><time>2026-05-04T15:21:19.89Z</time></trkpt><trkpt lat="44.72796110501683" lon="9.76508247071822"><ele>533.0</ele><time>2026-05-04T15:21:20.89Z</time></trkpt><trkpt lat="44.72798875499214" lon="9.765217821164855"><ele>533.0</ele><time>2026-05-04T15:21:22.89Z</time></trkpt><trkpt lat="44.72786441076995" lon="9.765263788106319"><ele>533.0</ele><time>2026-05-04T15:21:24.89Z</time></trkpt><trkpt lat="44.72777208997326" lon="9.765226955059614"><ele>533.0</ele><time>2026-05-04T15:21:25.89Z</time></trkpt><trkpt lat="44.72768343891471" lon="9.765175193090213"><ele>535.4</ele><time>2026-05-04T15:21:26.89Z</time></trkpt><trkpt lat="44.72758993261464" lon="9.765163690319628"><ele>537.8</ele><time>2026-05-04T15:21:27.89Z</time></trkpt><trkpt lat="44.72748846667992" lon="9.765161038436943"><ele>540.2</ele><time>2026-05-04T15:21:28.89Z</time></trkpt><trkpt lat="44.72739703524477" lon="9.765150967493469"><ele>542.6</ele><time>2026-05-04T15:21:29.89Z</time></trkpt><trkpt lat="44.727316287667286" lon="9.765099979967102"><ele>545.0</ele><time>2026-05-04T15:21:30.89Z</time></trkpt><trkpt lat="44.727252086830674" lon="9.764997073743125"><ele>545.0</ele><time>2026-05-04T15:21:31.89Z</time></trkpt><trkpt lat="44.72720692932446" lon="9.764852452669409"><ele>545.0</ele><time>2026-05-04T15:21:32.89Z</time></trkpt><trkpt lat="44.72721085130881" lon="9.76471358010171"><ele>545.0</ele><time>2026-05-04T15:21:33.89Z</time></trkpt><trkpt lat="44.72722446338199" lon="9.764546593706696"><ele>545.0</ele><time>2026-05-04T15:21:34.89Z</time></trkpt><trkpt lat="44.72722102225001" lon="9.764406058986966"><ele>545.0</ele><time>2026-05-04T15:21:35.89Z</time></trkpt><trkpt lat="44.727192351746325" lon="9.764282031634854"><ele>544.0</ele><time>2026-05-04T15:21:36.89Z</time></trkpt><trkpt lat="44.72714016758614" lon="9.764178156117278"><ele>543.0</ele><time>2026-05-04T15:21:37.89Z</time></trkpt><trkpt lat="44.72706432811687" lon="9.764113519273524"><ele>542.0</ele><time>2026-05-04T15:21:38.89Z</time></trkpt><trkpt lat="44.7269670644114" lon="9.764065438054747"><ele>541.0</ele><time>2026-05-04T15:21:39.89Z</time></trkpt><trkpt lat="44.72685346144929" lon="9.76405260950644"><ele>540.0</ele><time>2026-05-04T15:21:40.89Z</time></trkpt><trkpt lat="44.72672853731361" lon="9.764075780496109"><ele>542.75</ele><time>2026-05-04T15:21:41.89Z</time></trkpt><trkpt lat="44.72660063510115" lon="9.764114666214724"><ele>545.5</ele><time>2026-05-04T15:21:42.89Z</time></trkpt><trkpt lat="44.72647107013078" lon="9.764154787898079"><ele>548.25</ele><time>2026-05-04T15:21:43.89Z</time></trkpt><trkpt lat="44.72634001507471" lon="9.764200164046633"><ele>551.0</ele><time>2026-05-04T15:21:44.89Z</time></trkpt><trkpt lat="44.72620826313957" lon="9.764202779165654"><ele>551.0</ele><time>2026-05-04T15:21:45.89Z</time></trkpt><trkpt lat="44.72607177481305" lon="9.764147057871348"><ele>551.0</ele><time>2026-05-04T15:21:46.89Z</time></trkpt><trkpt lat="44.72593654515644" lon="9.7640567605434"><ele>551.0</ele><time>2026-05-04T15:21:47.89Z</time></trkpt><trkpt lat="44.72579417969966" lon="9.763914303173598"><ele>553.5</ele><time>2026-05-04T15:21:48.89Z</time></trkpt><trkpt lat="44.72566754496954" lon="9.763786891745891"><ele>556.0</ele><time>2026-05-04T15:21:49.89Z</time></trkpt><trkpt lat="44.725549616235156" lon="9.763673576247575"><ele>558.5</ele><time>2026-05-04T15:21:50.89Z</time></trkpt><trkpt lat="44.7254463449018" lon="9.763602074369384"><ele>561.0</ele><time>2026-05-04T15:21:51.89Z</time></trkpt><trkpt lat="44.725329940128844" lon="9.763568787166077"><ele>563.25</ele><time>2026-05-04T15:21:52.89Z</time></trkpt><trkpt lat="44.72519843658379" lon="9.763567888232124"><ele>565.5</ele><time>2026-05-04T15:21:53.89Z</time></trkpt><trkpt lat="44.7250662216501" lon="9.763556982728357"><ele>567.75</ele><time>2026-05-04T15:21:54.89Z</time></trkpt><trkpt lat="44.72493188213631" lon="9.763540307753212"><ele>570.0</ele><time>2026-05-04T15:21:55.89Z</time></trkpt><trkpt lat="44.724828557664054" lon="9.76353335523535"><ele>570.0</ele><time>2026-05-04T15:21:56.89Z</time></trkpt><trkpt lat="44.72473531525631" lon="9.763545890006668"><ele>570.0</ele><time>2026-05-04T15:21:57.89Z</time></trkpt><trkpt lat="44.724659744535096" lon="9.763571750429753"><ele>570.0</ele><time>2026-05-04T15:21:58.89Z</time></trkpt><trkpt lat="44.724603150162636" lon="9.763630258257718"><ele>570.0</ele><time>2026-05-04T15:21:59.89Z</time></trkpt><trkpt lat="44.724575395478254" lon="9.763734383641937"><ele>570.0</ele><time>2026-05-04T15:22:00.89Z</time></trkpt><trkpt lat="44.72458464302493" lon="9.763846059450872"><ele>570.0</ele><time>2026-05-04T15:22:01.89Z</time></trkpt><trkpt lat="44.724669784960135" lon="9.763968688156673"><ele>570.0</ele><time>2026-05-04T15:22:02.89Z</time></trkpt><trkpt lat="44.72477408351913" lon="9.764076763563008"><ele>570.0</ele><time>2026-05-04T15:22:03.89Z</time></trkpt><trkpt lat="44.72488952087367" lon="9.764165842339544"><ele>570.0</ele><time>2026-05-04T15:22:04.89Z</time></trkpt><trkpt lat="44.72500696590787" lon="9.764238857381974"><ele>570.0</ele><time>2026-05-04T15:22:05.89Z</time></trkpt><trkpt lat="44.72511765891901" lon="9.764299486124163"><ele>570.0</ele><time>2026-05-04T15:22:06.89Z</time></trkpt><trkpt lat="44.725227254300755" lon="9.764358411594866"><ele>570.0</ele><time>2026-05-04T15:22:07.89Z</time></trkpt><trkpt lat="44.72531950624791" lon="9.764414660623508"><ele>570.0</ele><time>2026-05-04T15:22:08.89Z</time></trkpt><trkpt lat="44.72541015628464" lon="9.764514313917436"><ele>570.0</ele><time>2026-05-04T15:22:09.89Z</time></trkpt><trkpt lat="44.72548409181783" lon="9.764653036616437"><ele>570.75</ele><time>2026-05-04T15:22:10.89Z</time></trkpt><trkpt lat="44.72555074578297" lon="9.764823165668972"><ele>571.5</ele><time>2026-05-04T15:22:11.89Z</time></trkpt><trkpt lat="44.725627315043695" lon="9.765005867068698"><ele>572.25</ele><time>2026-05-04T15:22:12.89Z</time></trkpt><trkpt lat="44.725706061020155" lon="9.765173818805389"><ele>573.0</ele><time>2026-05-04T15:22:13.889Z</time></trkpt><trkpt lat="44.72578130498999" lon="9.765325578182534"><ele>571.5</ele><time>2026-05-04T15:22:14.889Z</time></trkpt><trkpt lat="44.72587820406731" lon="9.765453161932"><ele>570.0</ele><time>2026-05-04T15:22:15.889Z</time></trkpt><trkpt lat="44.726000648285556" lon="9.765539762469611"><ele>568.5</ele><time>2026-05-04T15:22:16.889Z</time></trkpt><trkpt lat="44.72612204553475" lon="9.765589848042485"><ele>567.0</ele><time>2026-05-04T15:22:17.889Z</time></trkpt><trkpt lat="44.72622611967592" lon="9.765668462381871"><ele>567.0</ele><time>2026-05-04T15:22:18.889Z</time></trkpt><trkpt lat="44.726295521740944" lon="9.76574921221621"><ele>567.0</ele><time>2026-05-04T15:22:19.889Z</time></trkpt><trkpt lat="44.726357041475666" lon="9.765859876248092"><ele>567.0</ele><time>2026-05-04T15:22:20.889Z</time></trkpt><trkpt lat="44.726386524663795" lon="9.765999761018541"><ele>567.0</ele><time>2026-05-04T15:22:21.889Z</time></trkpt><trkpt lat="44.72634947187319" lon="9.766139230061786"><ele>567.0</ele><time>2026-05-04T15:22:22.889Z</time></trkpt><trkpt lat="44.72628585919828" lon="9.766305291910886"><ele>568.75</ele><time>2026-05-04T15:22:23.889Z</time></trkpt><trkpt lat="44.72627421808894" lon="9.766487633443244"><ele>570.5</ele><time>2026-05-04T15:22:24.889Z</time></trkpt><trkpt lat="44.72630882037946" lon="9.76662259045216"><ele>572.25</ele><time>2026-05-04T15:22:25.889Z</time></trkpt><trkpt lat="44.72639289027075" lon="9.766753003245475"><ele>574.0</ele><time>2026-05-04T15:22:26.889Z</time></trkpt><trkpt lat="44.726506235170646" lon="9.766865955529095"><ele>578.5</ele><time>2026-05-04T15:22:27.889Z</time></trkpt><trkpt lat="44.72679680078208" lon="9.767007509604598"><ele>583.0</ele><time>2026-05-04T15:22:29.889Z</time></trkpt><trkpt lat="44.72693779223904" lon="9.767074053733525"><ele>584.5</ele><time>2026-05-04T15:22:30.889Z</time></trkpt><trkpt lat="44.72705505219657" lon="9.767145483150076"><ele>586.0</ele><time>2026-05-04T15:22:31.889Z</time></trkpt><trkpt lat="44.72714401059206" lon="9.76721903097284"><ele>587.5</ele><time>2026-05-04T15:22:32.889Z</time></trkpt><trkpt lat="44.72721196495428" lon="9.767286801514262"><ele>589.0</ele><time>2026-05-04T15:22:33.889Z</time></trkpt><trkpt lat="44.72724847810724" lon="9.767365959812762"><ele>590.5</ele><time>2026-05-04T15:22:34.889Z</time></trkpt><trkpt lat="44.727252960884655" lon="9.767461722034657"><ele>592.0</ele><time>2026-05-04T15:22:35.889Z</time></trkpt><trkpt lat="44.72722529591954" lon="9.767566818238857"><ele>591.0</ele><time>2026-05-04T15:22:36.889Z</time></trkpt><trkpt lat="44.72722440413678" lon="9.767701053478202"><ele>590.0</ele><time>2026-05-04T15:22:37.889Z</time></trkpt><trkpt lat="44.727222170368265" lon="9.767797435413563"><ele>589.0</ele><time>2026-05-04T15:22:38.889Z</time></trkpt><trkpt lat="44.72707668211574" lon="9.767805218595786"><ele>588.0</ele><time>2026-05-04T15:22:40.889Z</time></trkpt><trkpt lat="44.726965114142054" lon="9.767781445174839"><ele>587.0</ele><time>2026-05-04T15:22:41.889Z</time></trkpt><trkpt lat="44.72686854321023" lon="9.76779538515777"><ele>585.0</ele><time>2026-05-04T15:22:42.889Z</time></trkpt><trkpt lat="44.72676813701131" lon="9.767826930214534"><ele>583.0</ele><time>2026-05-04T15:22:43.89Z</time></trkpt><trkpt lat="44.72665018934408" lon="9.767859731222124"><ele>581.0</ele><time>2026-05-04T15:22:44.89Z</time></trkpt><trkpt lat="44.72652712663081" lon="9.76791378897143"><ele>579.0</ele><time>2026-05-04T15:22:45.889Z</time></trkpt><trkpt lat="44.72638721890107" lon="9.767984189445095"><ele>579.0</ele><time>2026-05-04T15:22:46.89Z</time></trkpt><trkpt lat="44.726241178185894" lon="9.76806817333692"><ele>579.0</ele><time>2026-05-04T15:22:47.89Z</time></trkpt><trkpt lat="44.726092364840994" lon="9.768144945602206"><ele>579.0</ele><time>2026-05-04T15:22:48.889Z</time></trkpt><trkpt lat="44.72594572356967" lon="9.768237185592845"><ele>581.6666666666666</ele><time>2026-05-04T15:22:49.889Z</time></trkpt><trkpt lat="44.72579536944348" lon="9.768310057128941"><ele>584.3333333333333</ele><time>2026-05-04T15:22:50.889Z</time></trkpt><trkpt lat="44.72564028815202" lon="9.768387270488128"><ele>587.0</ele><time>2026-05-04T15:22:51.889Z</time></trkpt><trkpt lat="44.72549239474825" lon="9.7684530966044"><ele>587.0</ele><time>2026-05-04T15:22:52.889Z</time></trkpt><trkpt lat="44.72534191856551" lon="9.76850630440042"><ele>587.0</ele><time>2026-05-04T15:22:53.889Z</time></trkpt><trkpt lat="44.72519919167062" lon="9.768570605504618"><ele>587.0</ele><time>2026-05-04T15:22:54.889Z</time></trkpt><trkpt lat="44.72506478026375" lon="9.76862559152509"><ele>587.0</ele><time>2026-05-04T15:22:55.89Z</time></trkpt><trkpt lat="44.72493459110998" lon="9.768673898901515"><ele>588.75</ele><time>2026-05-04T15:22:56.889Z</time></trkpt><trkpt lat="44.72480601898597" lon="9.768723555613896"><ele>590.5</ele><time>2026-05-04T15:22:57.889Z</time></trkpt><trkpt lat="44.724681311484325" lon="9.768784687667805"><ele>592.25</ele><time>2026-05-04T15:22:58.889Z</time></trkpt><trkpt lat="44.72455531867949" lon="9.768843563220758"><ele>594.0</ele><time>2026-05-04T15:22:59.889Z</time></trkpt><trkpt lat="44.72443287264664" lon="9.768890902202031"><ele>596.5</ele><time>2026-05-04T15:23:00.889Z</time></trkpt><trkpt lat="44.72431667374715" lon="9.768932050354717"><ele>599.0</ele><time>2026-05-04T15:23:01.889Z</time></trkpt><trkpt lat="44.72420446137116" lon="9.76897106356781"><ele>601.5</ele><time>2026-05-04T15:23:02.889Z</time></trkpt><trkpt lat="44.724096478081435" lon="9.769010505605975"><ele>604.0</ele><time>2026-05-04T15:23:03.889Z</time></trkpt><trkpt lat="44.7239819991198" lon="9.769103940312363"><ele>604.0</ele><time>2026-05-04T15:23:04.889Z</time></trkpt><trkpt lat="44.723898320076785" lon="9.769226548474917"><ele>604.0</ele><time>2026-05-04T15:23:05.889Z</time></trkpt><trkpt lat="44.72383443577372" lon="9.769369624721932"><ele>604.0</ele><time>2026-05-04T15:23:06.889Z</time></trkpt><trkpt lat="44.72376133757768" lon="9.769491486374951"><ele>604.0</ele><time>2026-05-04T15:23:07.889Z</time></trkpt><trkpt lat="44.723675634154006" lon="9.76960797764037"><ele>604.5</ele><time>2026-05-04T15:23:08.889Z</time></trkpt><trkpt lat="44.7235936630251" lon="9.769721986580906"><ele>605.0</ele><time>2026-05-04T15:23:09.889Z</time></trkpt><trkpt lat="44.72350633674348" lon="9.76983589449435"><ele>605.5</ele><time>2026-05-04T15:23:10.889Z</time></trkpt><trkpt lat="44.723419338265956" lon="9.769943732186432"><ele>606.0</ele><time>2026-05-04T15:23:11.889Z</time></trkpt><trkpt lat="44.72333240556778" lon="9.770052671524775"><ele>608.0</ele><time>2026-05-04T15:23:12.889Z</time></trkpt><trkpt lat="44.72324742675484" lon="9.770149607671742"><ele>610.0</ele><time>2026-05-04T15:23:13.889Z</time></trkpt><trkpt lat="44.723162469437824" lon="9.770246730805125"><ele>612.0</ele><time>2026-05-04T15:23:14.889Z</time></trkpt><trkpt lat="44.72307903007233" lon="9.77033928077331"><ele>614.0</ele><time>2026-05-04T15:23:15.889Z</time></trkpt><trkpt lat="44.72300790231941" lon="9.770427158310955"><ele>616.0</ele><time>2026-05-04T15:23:16.889Z</time></trkpt><trkpt lat="44.722937951395544" lon="9.7705090286553"><ele>616.0</ele><time>2026-05-04T15:23:17.889Z</time></trkpt><trkpt lat="44.72287967137597" lon="9.770606644106156"><ele>616.0</ele><time>2026-05-04T15:23:18.889Z</time></trkpt><trkpt lat="44.72283272233363" lon="9.770689137725846"><ele>616.0</ele><time>2026-05-04T15:23:19.889Z</time></trkpt><trkpt lat="44.722801758628464" lon="9.770772437885794"><ele>616.0</ele><time>2026-05-04T15:23:20.889Z</time></trkpt><trkpt lat="44.722817225870045" lon="9.770974106506852"><ele>616.0</ele><time>2026-05-04T15:23:22.889Z</time></trkpt><trkpt lat="44.72286920502472" lon="9.771060225709197"><ele>616.0</ele><time>2026-05-04T15:23:23.889Z</time></trkpt><trkpt lat="44.72294010819823" lon="9.771118513412237"><ele>616.0</ele><time>2026-05-04T15:23:24.889Z</time></trkpt><trkpt lat="44.72300423853435" lon="9.771151876013127"><ele>616.0</ele><time>2026-05-04T15:23:25.889Z</time></trkpt><trkpt lat="44.72309658531386" lon="9.771100896226933"><ele>616.0</ele><time>2026-05-04T15:23:27.889Z</time></trkpt><trkpt lat="44.72318533759155" lon="9.771021736744196"><ele>616.0</ele><time>2026-05-04T15:23:29.889Z</time></trkpt><trkpt lat="44.72324808459247" lon="9.77098465491173"><ele>616.0</ele><time>2026-05-04T15:23:30.889Z</time></trkpt><trkpt lat="44.72331402161643" lon="9.77097045811108"><ele>616.0</ele><time>2026-05-04T15:23:31.889Z</time></trkpt><trkpt lat="44.72340395880333" lon="9.770980495022396"><ele>616.0</ele><time>2026-05-04T15:23:33.889Z</time></trkpt><trkpt lat="44.72348669479905" lon="9.771010401436268"><ele>616.0</ele><time>2026-05-04T15:23:35.889Z</time></trkpt><trkpt lat="44.723554696782244" lon="9.771074860231934"><ele>616.0</ele><time>2026-05-04T15:23:37.889Z</time></trkpt><trkpt lat="44.72361298882125" lon="9.771134692129511"><ele>616.0</ele><time>2026-05-04T15:23:39.889Z</time></trkpt><trkpt lat="44.723666408123925" lon="9.771202170566035"><ele>616.0</ele><time>2026-05-04T15:23:41.889Z</time></trkpt><trkpt lat="44.72373479553272" lon="9.771291267672332"><ele>617.0</ele><time>2026-05-04T15:23:43.889Z</time></trkpt><trkpt lat="44.72379062179218" lon="9.77136458743825"><ele>618.0</ele><time>2026-05-04T15:23:45.889Z</time></trkpt><trkpt lat="44.72385262457388" lon="9.77144366497795"><ele>619.0</ele><time>2026-05-04T15:23:47.889Z</time></trkpt><trkpt lat="44.72391237694591" lon="9.771532156240497"><ele>620.0</ele><time>2026-05-04T15:23:49.889Z</time></trkpt><trkpt lat="44.72397555315598" lon="9.77160478921136"><ele>621.0</ele><time>2026-05-04T15:23:51.889Z</time></trkpt><trkpt lat="44.72402718380293" lon="9.771673781931932"><ele>622.0</ele><time>2026-05-04T15:23:53.889Z</time></trkpt><trkpt lat="44.72407163731097" lon="9.77173815719807"><ele>622.0</ele><time>2026-05-04T15:23:55.889Z</time></trkpt><trkpt lat="44.72411781498802" lon="9.771829324873098"><ele>622.0</ele><time>2026-05-04T15:23:58.889Z</time></trkpt><trkpt lat="44.72415098947496" lon="9.771909163475716"><ele>622.0</ele><time>2026-05-04T15:24:00.889Z</time></trkpt><trkpt lat="44.724183959237955" lon="9.771999077546505"><ele>622.0</ele><time>2026-05-04T15:24:02.889Z</time></trkpt><trkpt lat="44.724218466164665" lon="9.772088730366002"><ele>622.0</ele><time>2026-05-04T15:24:04.888Z</time></trkpt><trkpt lat="44.72425174115761" lon="9.772196484525926"><ele>622.0</ele><time>2026-05-04T15:24:06.888Z</time></trkpt><trkpt lat="44.72425794425074" lon="9.772305308327605"><ele>622.3333333333334</ele><time>2026-05-04T15:24:08.888Z</time></trkpt><trkpt lat="44.72427564718445" lon="9.772426958935293"><ele>622.6666666666667</ele><time>2026-05-04T15:24:10.888Z</time></trkpt><trkpt lat="44.7242864590714" lon="9.772535955809653"><ele>623.0</ele><time>2026-05-04T15:24:12.888Z</time></trkpt><trkpt lat="44.724277404771826" lon="9.77264167803217"><ele>623.3333333333334</ele><time>2026-05-04T15:24:14.888Z</time></trkpt><trkpt lat="44.724247713122374" lon="9.772735783857192"><ele>623.6666666666666</ele><time>2026-05-04T15:24:16.888Z</time></trkpt><trkpt lat="44.724197675592116" lon="9.772797402005171"><ele>624.0</ele><time>2026-05-04T15:24:18.888Z</time></trkpt><trkpt lat="44.72412375391766" lon="9.77285361589378"><ele>624.0</ele><time>2026-05-04T15:24:21.888Z</time></trkpt><trkpt lat="44.724038707612685" lon="9.772859314997039"><ele>624.0</ele><time>2026-05-04T15:24:24.888Z</time></trkpt><trkpt lat="44.72395616583044" lon="9.772861089382202"><ele>624.0</ele><time>2026-05-04T15:24:27.888Z</time></trkpt><trkpt lat="44.72387803225584" lon="9.772871751345566"><ele>624.0</ele><time>2026-05-04T15:24:30.888Z</time></trkpt><trkpt lat="44.7238100622623" lon="9.772917155181698"><ele>624.0</ele><time>2026-05-04T15:24:33.888Z</time></trkpt><trkpt lat="44.72372705455488" lon="9.772971398692919"><ele>624.0</ele><time>2026-05-04T15:24:36.888Z</time></trkpt><trkpt lat="44.72366256645988" lon="9.77299822327823"><ele>624.0</ele><time>2026-05-04T15:24:38.888Z</time></trkpt><trkpt lat="44.72358459770044" lon="9.773040954779045"><ele>624.0</ele><time>2026-05-04T15:24:41.888Z</time></trkpt><trkpt lat="44.723520924829266" lon="9.773059676891373"><ele>624.0</ele><time>2026-05-04T15:24:43.888Z</time></trkpt><trkpt lat="44.72345943516609" lon="9.773110454868458"><ele>624.0</ele><time>2026-05-04T15:24:45.888Z</time></trkpt><trkpt lat="44.72337392100203" lon="9.773175302332039"><ele>624.0</ele><time>2026-05-04T15:24:48.888Z</time></trkpt><trkpt lat="44.7233166082891" lon="9.773219628474719"><ele>624.0</ele><time>2026-05-04T15:24:50.888Z</time></trkpt><trkpt lat="44.72325723399198" lon="9.773284192939464"><ele>625.8333333333334</ele><time>2026-05-04T15:24:52.888Z</time></trkpt><trkpt lat="44.723198034855606" lon="9.773340991102234"><ele>627.6666666666666</ele><time>2026-05-04T15:24:54.888Z</time></trkpt><trkpt lat="44.72314100905485" lon="9.773420933074888"><ele>629.5</ele><time>2026-05-04T15:24:56.888Z</time></trkpt><trkpt lat="44.72308784527785" lon="9.7734921646227"><ele>631.3333333333333</ele><time>2026-05-04T15:24:58.888Z</time></trkpt><trkpt lat="44.72302186752182" lon="9.77358085621664"><ele>633.1666666666666</ele><time>2026-05-04T15:25:01.888Z</time></trkpt><trkpt lat="44.72296877642315" lon="9.773636087966992"><ele>635.0</ele><time>2026-05-04T15:25:04.888Z</time></trkpt><trkpt lat="44.72290491031974" lon="9.773712606893206"><ele>636.0</ele><time>2026-05-04T15:25:07.888Z</time></trkpt><trkpt lat="44.722850106696846" lon="9.7737801980375"><ele>637.0</ele><time>2026-05-04T15:25:09.888Z</time></trkpt><trkpt lat="44.72280617167504" lon="9.77386763112735"><ele>638.0</ele><time>2026-05-04T15:25:12.888Z</time></trkpt><trkpt lat="44.72277305522709" lon="9.774001133865124"><ele>639.0</ele><time>2026-05-04T15:25:15.888Z</time></trkpt><trkpt lat="44.72276908483123" lon="9.774099721676"><ele>640.0</ele><time>2026-05-04T15:25:16.888Z</time></trkpt><trkpt lat="44.72276670395209" lon="9.774210917734946"><ele>641.0</ele><time>2026-05-04T15:25:17.888Z</time></trkpt><trkpt lat="44.72275916564468" lon="9.774323249723224"><ele>642.0</ele><time>2026-05-04T15:25:18.888Z</time></trkpt><trkpt lat="44.72273378197186" lon="9.774427877114466"><ele>643.0</ele><time>2026-05-04T15:25:19.888Z</time></trkpt><trkpt lat="44.722701961951415" lon="9.77453114530107"><ele>644.0</ele><time>2026-05-04T15:25:20.888Z</time></trkpt><trkpt lat="44.722669943267086" lon="9.774637880319966"><ele>645.0</ele><time>2026-05-04T15:25:21.888Z</time></trkpt><trkpt lat="44.72263718111622" lon="9.774756238822127"><ele>646.0</ele><time>2026-05-04T15:25:22.888Z</time></trkpt><trkpt lat="44.72260683586237" lon="9.77488960050998"><ele>647.0</ele><time>2026-05-04T15:25:23.888Z</time></trkpt><trkpt lat="44.72257270340607" lon="9.775029576093205"><ele>648.2</ele><time>2026-05-04T15:25:24.888Z</time></trkpt><trkpt lat="44.72253561149685" lon="9.775182749107008"><ele>649.4000000000001</ele><time>2026-05-04T15:25:25.888Z</time></trkpt><trkpt lat="44.72249939027055" lon="9.775330115042019"><ele>650.5999999999999</ele><time>2026-05-04T15:25:26.888Z</time></trkpt><trkpt lat="44.722466183731065" lon="9.775464755241146"><ele>651.8</ele><time>2026-05-04T15:25:27.888Z</time></trkpt><trkpt lat="44.72242476913078" lon="9.77558110700626"><ele>653.0</ele><time>2026-05-04T15:25:28.888Z</time></trkpt><trkpt lat="44.72235803270473" lon="9.775677709687566"><ele>654.0</ele><time>2026-05-04T15:25:29.888Z</time></trkpt><trkpt lat="44.72226182753221" lon="9.775760039850939"><ele>655.0</ele><time>2026-05-04T15:25:30.888Z</time></trkpt><trkpt lat="44.722146731518386" lon="9.77583580182017"><ele>656.0</ele><time>2026-05-04T15:25:31.888Z</time></trkpt><trkpt lat="44.72202610552092" lon="9.775906749386243"><ele>657.0</ele><time>2026-05-04T15:25:32.888Z</time></trkpt><trkpt lat="44.721894406205784" lon="9.775974608446536"><ele>657.75</ele><time>2026-05-04T15:25:33.888Z</time></trkpt><trkpt lat="44.72175793583516" lon="9.776027053171632"><ele>658.5</ele><time>2026-05-04T15:25:34.888Z</time></trkpt><trkpt lat="44.72161330065949" lon="9.776036594504383"><ele>659.25</ele><time>2026-05-04T15:25:35.888Z</time></trkpt><trkpt lat="44.721471551834" lon="9.776027084944664"><ele>660.0</ele><time>2026-05-04T15:25:36.888Z</time></trkpt><trkpt lat="44.72133323220362" lon="9.776019421846142"><ele>660.0</ele><time>2026-05-04T15:25:37.888Z</time></trkpt><trkpt lat="44.72119125951937" lon="9.7760391524407"><ele>660.0</ele><time>2026-05-04T15:25:38.888Z</time></trkpt><trkpt lat="44.721047023631314" lon="9.776086136540497"><ele>660.0</ele><time>2026-05-04T15:25:39.888Z</time></trkpt><trkpt lat="44.72091453048752" lon="9.77615263634692"><ele>660.0</ele><time>2026-05-04T15:25:40.888Z</time></trkpt><trkpt lat="44.72081488733458" lon="9.776241479967931"><ele>661.1666666666666</ele><time>2026-05-04T15:25:41.888Z</time></trkpt><trkpt lat="44.720737541314634" lon="9.776341116755166"><ele>662.3333333333334</ele><time>2026-05-04T15:25:42.888Z</time></trkpt><trkpt lat="44.720692075777734" lon="9.77644014952184"><ele>663.5</ele><time>2026-05-04T15:25:43.888Z</time></trkpt><trkpt lat="44.72067296554182" lon="9.776534485024634"><ele>664.6666666666667</ele><time>2026-05-04T15:25:44.888Z</time></trkpt><trkpt lat="44.72067101041168" lon="9.776632779961039"><ele>665.8333333333334</ele><time>2026-05-04T15:25:45.888Z</time></trkpt><trkpt lat="44.72068638779389" lon="9.776752196794398"><ele>667.0</ele><time>2026-05-04T15:25:46.888Z</time></trkpt><trkpt lat="44.720697034082946" lon="9.77688629866031"><ele>669.5</ele><time>2026-05-04T15:25:47.888Z</time></trkpt><trkpt lat="44.7207189597776" lon="9.777037526575524"><ele>672.0</ele><time>2026-05-04T15:25:48.888Z</time></trkpt><trkpt lat="44.72075363772467" lon="9.777202451844664"><ele>674.5</ele><time>2026-05-04T15:25:49.888Z</time></trkpt><trkpt lat="44.72080458911004" lon="9.777353834798143"><ele>677.0</ele><time>2026-05-04T15:25:50.888Z</time></trkpt><trkpt lat="44.720891540172" lon="9.77748275976302"><ele>677.0</ele><time>2026-05-04T15:25:51.888Z</time></trkpt><trkpt lat="44.72101379089817" lon="9.777610552478773"><ele>677.0</ele><time>2026-05-04T15:25:52.888Z</time></trkpt><trkpt lat="44.72114788706532" lon="9.777750040043552"><ele>677.0</ele><time>2026-05-04T15:25:53.888Z</time></trkpt><trkpt lat="44.72128324939992" lon="9.777909169000633"><ele>679.75</ele><time>2026-05-04T15:25:54.888Z</time></trkpt><trkpt lat="44.72139726726811" lon="9.778048083577277"><ele>682.5</ele><time>2026-05-04T15:25:55.888Z</time></trkpt><trkpt lat="44.72151024672019" lon="9.778146702185078"><ele>685.25</ele><time>2026-05-04T15:25:56.888Z</time></trkpt><trkpt lat="44.721638794350675" lon="9.778194805384583"><ele>688.0</ele><time>2026-05-04T15:25:57.887Z</time></trkpt><trkpt lat="44.72178258289218" lon="9.778224471943725"><ele>687.25</ele><time>2026-05-04T15:25:58.887Z</time></trkpt><trkpt lat="44.72192968697866" lon="9.77825475586641"><ele>686.5</ele><time>2026-05-04T15:25:59.887Z</time></trkpt><trkpt lat="44.72207035891858" lon="9.778319114238267"><ele>685.75</ele><time>2026-05-04T15:26:00.887Z</time></trkpt><trkpt lat="44.722199630205125" lon="9.778405487201455"><ele>685.0</ele><time>2026-05-04T15:26:01.887Z</time></trkpt><trkpt lat="44.722315289906405" lon="9.778492798087868"><ele>686.6</ele><time>2026-05-04T15:26:02.887Z</time></trkpt><trkpt lat="44.722420593142935" lon="9.778556048179334"><ele>688.2</ele><time>2026-05-04T15:26:03.887Z</time></trkpt><trkpt lat="44.72253021589105" lon="9.778591496789762"><ele>689.8</ele><time>2026-05-04T15:26:04.887Z</time></trkpt><trkpt lat="44.72263834459775" lon="9.778612798926437"><ele>691.4</ele><time>2026-05-04T15:26:05.887Z</time></trkpt><trkpt lat="44.72274449269867" lon="9.77865316772203"><ele>693.0</ele><time>2026-05-04T15:26:06.887Z</time></trkpt><trkpt lat="44.722863995716885" lon="9.778713736309422"><ele>693.0</ele><time>2026-05-04T15:26:07.887Z</time></trkpt><trkpt lat="44.72298248195569" lon="9.778809571315048"><ele>693.0</ele><time>2026-05-04T15:26:08.887Z</time></trkpt><trkpt lat="44.723096576214004" lon="9.778889268226456"><ele>693.0</ele><time>2026-05-04T15:26:09.887Z</time></trkpt><trkpt lat="44.72318638407794" lon="9.778960063148949"><ele>693.0</ele><time>2026-05-04T15:26:10.887Z</time></trkpt><trkpt lat="44.723246879930265" lon="9.779026145153912"><ele>693.0</ele><time>2026-05-04T15:26:11.887Z</time></trkpt><trkpt lat="44.72328724306375" lon="9.779109824475817"><ele>693.0</ele><time>2026-05-04T15:26:12.887Z</time></trkpt><trkpt lat="44.72329632283138" lon="9.779216938659305"><ele>693.0</ele><time>2026-05-04T15:26:13.887Z</time></trkpt><trkpt lat="44.72325913686618" lon="9.779318581252488"><ele>693.0</ele><time>2026-05-04T15:26:14.887Z</time></trkpt><trkpt lat="44.72318193759116" lon="9.779408352209844"><ele>693.0</ele><time>2026-05-04T15:26:15.887Z</time></trkpt><trkpt lat="44.72307497940061" lon="9.779484952135569"><ele>693.0</ele><time>2026-05-04T15:26:16.887Z</time></trkpt><trkpt lat="44.72297329894597" lon="9.779508974424756"><ele>694.4</ele><time>2026-05-04T15:26:17.887Z</time></trkpt><trkpt lat="44.72287955701185" lon="9.779474626515674"><ele>695.8</ele><time>2026-05-04T15:26:18.887Z</time></trkpt><trkpt lat="44.722787208165535" lon="9.779396407657659"><ele>697.2</ele><time>2026-05-04T15:26:19.887Z</time></trkpt><trkpt lat="44.72269153021059" lon="9.779306159071576"><ele>698.6</ele><time>2026-05-04T15:26:20.887Z</time></trkpt><trkpt lat="44.72259795734941" lon="9.779215068706364"><ele>700.0</ele><time>2026-05-04T15:26:21.887Z</time></trkpt><trkpt lat="44.72249545525857" lon="9.779137806784673"><ele>700.0</ele><time>2026-05-04T15:26:22.887Z</time></trkpt><trkpt lat="44.722381095307036" lon="9.779094532654481"><ele>700.0</ele><time>2026-05-04T15:26:23.887Z</time></trkpt><trkpt lat="44.72226431188673" lon="9.779083441490997"><ele>700.0</ele><time>2026-05-04T15:26:24.887Z</time></trkpt><trkpt lat="44.72215444535938" lon="9.779090188694468"><ele>700.0</ele><time>2026-05-04T15:26:25.887Z</time></trkpt><trkpt lat="44.72204462778205" lon="9.779133367239275"><ele>700.0</ele><time>2026-05-04T15:26:26.887Z</time></trkpt><trkpt lat="44.72193923798859" lon="9.779223191226626"><ele>700.0</ele><time>2026-05-04T15:26:27.887Z</time></trkpt><trkpt lat="44.72184158973839" lon="9.779299049675869"><ele>700.0</ele><time>2026-05-04T15:26:28.887Z</time></trkpt><trkpt lat="44.72174317745442" lon="9.779329240880541"><ele>700.0</ele><time>2026-05-04T15:26:29.887Z</time></trkpt><trkpt lat="44.721644233937795" lon="9.779313707610273"><ele>700.0</ele><time>2026-05-04T15:26:30.887Z</time></trkpt><trkpt lat="44.72154692766504" lon="9.77925986061974"><ele>701.0</ele><time>2026-05-04T15:26:31.887Z</time></trkpt><trkpt lat="44.721426995031806" lon="9.779202675025765"><ele>702.0</ele><time>2026-05-04T15:26:32.887Z</time></trkpt><trkpt lat="44.72132632850614" lon="9.779193655680748"><ele>703.0</ele><time>2026-05-04T15:26:33.887Z</time></trkpt><trkpt lat="44.721239698138895" lon="9.779239212602828"><ele>704.0</ele><time>2026-05-04T15:26:34.887Z</time></trkpt><trkpt lat="44.72117442222161" lon="9.779316008324448"><ele>705.0</ele><time>2026-05-04T15:26:35.887Z</time></trkpt><trkpt lat="44.72114824095952" lon="9.779409887351669"><ele>708.2</ele><time>2026-05-04T15:26:36.887Z</time></trkpt><trkpt lat="44.721221512014935" lon="9.779544449945902"><ele>711.4</ele><time>2026-05-04T15:26:37.887Z</time></trkpt><trkpt lat="44.721306434604344" lon="9.779652008391567"><ele>714.5999999999999</ele><time>2026-05-04T15:26:38.887Z</time></trkpt><trkpt lat="44.721370727777426" lon="9.779742257363806"><ele>717.8</ele><time>2026-05-04T15:26:39.887Z</time></trkpt><trkpt lat="44.72141330433818" lon="9.779867722546053"><ele>721.0</ele><time>2026-05-04T15:26:40.887Z</time></trkpt><trkpt lat="44.72140701259714" lon="9.779999731776108"><ele>721.0</ele><time>2026-05-04T15:26:41.887Z</time></trkpt><trkpt lat="44.72134074327695" lon="9.780106921915433"><ele>721.0</ele><time>2026-05-04T15:26:42.887Z</time></trkpt><trkpt lat="44.72123175753441" lon="9.780205379616723"><ele>721.0</ele><time>2026-05-04T15:26:43.887Z</time></trkpt><trkpt lat="44.721106449380805" lon="9.78028439064413"><ele>721.0</ele><time>2026-05-04T15:26:44.887Z</time></trkpt><trkpt lat="44.72098564084425" lon="9.780363016098292"><ele>724.0</ele><time>2026-05-04T15:26:45.887Z</time></trkpt><trkpt lat="44.72083395474656" lon="9.780453257828416"><ele>727.0</ele><time>2026-05-04T15:26:46.887Z</time></trkpt><trkpt lat="44.720703734563784" lon="9.780528164159387"><ele>730.0</ele><time>2026-05-04T15:26:47.887Z</time></trkpt><trkpt lat="44.720596890120596" lon="9.78060323254438"><ele>733.0</ele><time>2026-05-04T15:26:48.887Z</time></trkpt><trkpt lat="44.72051080490036" lon="9.780687050529911"><ele>733.0</ele><time>2026-05-04T15:26:49.887Z</time></trkpt><trkpt lat="44.72043788000951" lon="9.780791391096821"><ele>733.0</ele><time>2026-05-04T15:26:50.887Z</time></trkpt><trkpt lat="44.720378475153886" lon="9.78089963605846"><ele>733.0</ele><time>2026-05-04T15:26:51.887Z</time></trkpt><trkpt lat="44.72033559186759" lon="9.781036435118486"><ele>733.0</ele><time>2026-05-04T15:26:52.887Z</time></trkpt><trkpt lat="44.72030571073049" lon="9.781196453096328"><ele>733.0</ele><time>2026-05-04T15:26:53.887Z</time></trkpt><trkpt lat="44.720251500951456" lon="9.78131870594757"><ele>735.0</ele><time>2026-05-04T15:26:54.887Z</time></trkpt><trkpt lat="44.72018454982879" lon="9.781398790979983"><ele>737.0</ele><time>2026-05-04T15:26:55.886Z</time></trkpt><trkpt lat="44.72011418009549" lon="9.781424733205915"><ele>739.0</ele><time>2026-05-04T15:26:56.886Z</time></trkpt><trkpt lat="44.72004839860374" lon="9.781372478433173"><ele>741.0</ele><time>2026-05-04T15:26:57.887Z</time></trkpt><trkpt lat="44.72002690523192" lon="9.781275907518214"><ele>743.0</ele><time>2026-05-04T15:26:58.887Z</time></trkpt><trkpt lat="44.719996540986045" lon="9.781189136757128"><ele>745.0</ele><time>2026-05-04T15:26:59.887Z</time></trkpt><trkpt lat="44.719931944308705" lon="9.78109182062239"><ele>745.0</ele><time>2026-05-04T15:27:00.887Z</time></trkpt><trkpt lat="44.71983573204241" lon="9.781011679218995"><ele>745.0</ele><time>2026-05-04T15:27:01.886Z</time></trkpt><trkpt lat="44.71974540148567" lon="9.780998776082344"><ele>745.0</ele><time>2026-05-04T15:27:02.886Z</time></trkpt><trkpt lat="44.71965489274838" lon="9.781099353819075"><ele>745.0</ele><time>2026-05-04T15:27:03.887Z</time></trkpt><trkpt lat="44.71957060206827" lon="9.781206951297836"><ele>745.0</ele><time>2026-05-04T15:27:04.887Z</time></trkpt><trkpt lat="44.719474193632266" lon="9.781293585486871"><ele>746.5</ele><time>2026-05-04T15:27:05.887Z</time></trkpt><trkpt lat="44.7193739134096" lon="9.781351658778062"><ele>748.0</ele><time>2026-05-04T15:27:06.886Z</time></trkpt><trkpt lat="44.719263746550645" lon="9.781400376219306"><ele>749.5</ele><time>2026-05-04T15:27:07.886Z</time></trkpt><trkpt lat="44.719150732489595" lon="9.78141824193993"><ele>751.0</ele><time>2026-05-04T15:27:08.886Z</time></trkpt><trkpt lat="44.719026867072415" lon="9.78142109603833"><ele>751.0</ele><time>2026-05-04T15:27:09.886Z</time></trkpt><trkpt lat="44.71893911608218" lon="9.781293222348667"><ele>751.0</ele><time>2026-05-04T15:27:10.886Z</time></trkpt><trkpt lat="44.71884251013256" lon="9.781206182462565"><ele>751.0</ele><time>2026-05-04T15:27:11.886Z</time></trkpt><trkpt lat="44.71876925553985" lon="9.78118455956467"><ele>751.0</ele><time>2026-05-04T15:27:12.886Z</time></trkpt><trkpt lat="44.71867420905727" lon="9.781199954352182"><ele>751.0</ele><time>2026-05-04T15:27:14.886Z</time></trkpt><trkpt lat="44.71863967633427" lon="9.781281135925314"><ele>751.0</ele><time>2026-05-04T15:27:15.886Z</time></trkpt><trkpt lat="44.71864901301363" lon="9.781374899992981"><ele>751.0</ele><time>2026-05-04T15:27:16.886Z</time></trkpt><trkpt lat="44.71872235538924" lon="9.781489294582158"><ele>751.0</ele><time>2026-05-04T15:27:17.886Z</time></trkpt><trkpt lat="44.71878584451327" lon="9.781599928187926"><ele>751.0</ele><time>2026-05-04T15:27:18.886Z</time></trkpt><trkpt lat="44.718889649300834" lon="9.781745671407894"><ele>751.0</ele><time>2026-05-04T15:27:19.886Z</time></trkpt><trkpt lat="44.7189803378441" lon="9.781870521871626"><ele>754.0</ele><time>2026-05-04T15:27:20.886Z</time></trkpt><trkpt lat="44.71905636266041" lon="9.781972531358289"><ele>757.0</ele><time>2026-05-04T15:27:21.886Z</time></trkpt><trkpt lat="44.71914158018401" lon="9.782035030716399"><ele>760.0</ele><time>2026-05-04T15:27:22.886Z</time></trkpt><trkpt lat="44.71923805712649" lon="9.78201775897207"><ele>763.0</ele><time>2026-05-04T15:27:23.886Z</time></trkpt><trkpt lat="44.71930048636554" lon="9.782064899055143"><ele>766.0</ele><time>2026-05-04T15:27:24.886Z</time></trkpt><trkpt lat="44.719341935309224" lon="9.782177125171183"><ele>766.0</ele><time>2026-05-04T15:27:26.886Z</time></trkpt><trkpt lat="44.71921940298367" lon="9.78222732110052"><ele>766.0</ele><time>2026-05-04T15:27:28.886Z</time></trkpt><trkpt lat="44.71916813533637" lon="9.782166351237205"><ele>766.0</ele><time>2026-05-04T15:27:29.886Z</time></trkpt><trkpt lat="44.719075190453935" lon="9.782138672979071"><ele>766.0</ele><time>2026-05-04T15:27:30.886Z</time></trkpt><trkpt lat="44.718961618166006" lon="9.782136218875825"><ele>766.0</ele><time>2026-05-04T15:27:31.886Z</time></trkpt><trkpt lat="44.71885588330139" lon="9.782108020740296"><ele>766.0</ele><time>2026-05-04T15:27:32.886Z</time></trkpt><trkpt lat="44.71876933119962" lon="9.782100993207358"><ele>766.0</ele><time>2026-05-04T15:27:33.886Z</time></trkpt><trkpt lat="44.71870886811144" lon="9.782156862264547"><ele>766.0</ele><time>2026-05-04T15:27:34.886Z</time></trkpt><trkpt lat="44.71865455542045" lon="9.78227811652264"><ele>766.0</ele><time>2026-05-04T15:27:35.886Z</time></trkpt><trkpt lat="44.71863103699106" lon="9.782439303347248"><ele>766.0</ele><time>2026-05-04T15:27:36.886Z</time></trkpt><trkpt lat="44.71862679530824" lon="9.782609409556008"><ele>767.0</ele><time>2026-05-04T15:27:37.886Z</time></trkpt><trkpt lat="44.718612513059895" lon="9.782730533838851"><ele>768.0</ele><time>2026-05-04T15:27:38.886Z</time></trkpt><trkpt lat="44.71852054563192" lon="9.782851130947982"><ele>769.0</ele><time>2026-05-04T15:27:40.886Z</time></trkpt><trkpt lat="44.718448473315476" lon="9.78286027760159"><ele>770.0</ele><time>2026-05-04T15:27:41.886Z</time></trkpt><trkpt lat="44.718397928596346" lon="9.782750051826275"><ele>771.0</ele><time>2026-05-04T15:27:42.886Z</time></trkpt><trkpt lat="44.71830157707972" lon="9.782674185225911"><ele>771.0</ele><time>2026-05-04T15:27:43.886Z</time></trkpt><trkpt lat="44.718176185416795" lon="9.782594235740637"><ele>771.0</ele><time>2026-05-04T15:27:44.886Z</time></trkpt><trkpt lat="44.718045070649154" lon="9.782545681713904"><ele>771.0</ele><time>2026-05-04T15:27:45.886Z</time></trkpt><trkpt lat="44.717872124824495" lon="9.782484150674566"><ele>775.75</ele><time>2026-05-04T15:27:46.886Z</time></trkpt><trkpt lat="44.71772917215598" lon="9.782457781299199"><ele>780.5</ele><time>2026-05-04T15:27:47.886Z</time></trkpt><trkpt lat="44.71761748175612" lon="9.7824208095213"><ele>785.25</ele><time>2026-05-04T15:27:48.886Z</time></trkpt><trkpt lat="44.717510060090646" lon="9.782355562327348"><ele>790.0</ele><time>2026-05-04T15:27:49.886Z</time></trkpt><trkpt lat="44.71747593998041" lon="9.782190495829415"><ele>790.0</ele><time>2026-05-04T15:27:50.886Z</time></trkpt><trkpt lat="44.71740332917667" lon="9.78201366481402"><ele>790.0</ele><time>2026-05-04T15:27:51.886Z</time></trkpt><trkpt lat="44.71733085034727" lon="9.781862305846404"><ele>790.0</ele><time>2026-05-04T15:27:52.886Z</time></trkpt><trkpt lat="44.717268086806875" lon="9.78170394253832"><ele>790.0</ele><time>2026-05-04T15:27:53.886Z</time></trkpt><trkpt lat="44.71720721103341" lon="9.781508526701625"><ele>787.25</ele><time>2026-05-04T15:27:54.886Z</time></trkpt><trkpt lat="44.717152798587335" lon="9.78132709080385"><ele>784.5</ele><time>2026-05-04T15:27:55.886Z</time></trkpt><trkpt lat="44.71708736799586" lon="9.78119152376465"><ele>781.75</ele><time>2026-05-04T15:27:56.886Z</time></trkpt><trkpt lat="44.717025342934704" lon="9.781127931117025"><ele>779.0</ele><time>2026-05-04T15:27:57.886Z</time></trkpt><trkpt lat="44.71690597819401" lon="9.781144742319475"><ele>781.8000000000001</ele><time>2026-05-04T15:27:59.886Z</time></trkpt><trkpt lat="44.71681528004206" lon="9.78123361686229"><ele>784.6</ele><time>2026-05-04T15:28:00.885Z</time></trkpt><trkpt lat="44.71672821644067" lon="9.781327025347062"><ele>787.4</ele><time>2026-05-04T15:28:01.885Z</time></trkpt><trkpt lat="44.71663089418836" lon="9.781367657718324"><ele>790.2</ele><time>2026-05-04T15:28:02.885Z</time></trkpt><trkpt lat="44.71654154714826" lon="9.781396714679415"><ele>793.0</ele><time>2026-05-04T15:28:03.885Z</time></trkpt><trkpt lat="44.71644713215271" lon="9.781351990030823"><ele>793.0</ele><time>2026-05-04T15:28:04.885Z</time></trkpt><trkpt lat="44.71634395000065" lon="9.781327068579474"><ele>793.0</ele><time>2026-05-04T15:28:05.885Z</time></trkpt><trkpt lat="44.71621305838772" lon="9.781298312251897"><ele>793.0</ele><time>2026-05-04T15:28:06.885Z</time></trkpt><trkpt lat="44.71608926512474" lon="9.781300654859033"><ele>793.0</ele><time>2026-05-04T15:28:07.885Z</time></trkpt><trkpt lat="44.71598060729461" lon="9.781301052788155"><ele>794.25</ele><time>2026-05-04T15:28:08.885Z</time></trkpt><trkpt lat="44.71586304332166" lon="9.781344509434653"><ele>795.5</ele><time>2026-05-04T15:28:09.885Z</time></trkpt><trkpt lat="44.71574746106782" lon="9.781432860933094"><ele>796.75</ele><time>2026-05-04T15:28:10.885Z</time></trkpt><trkpt lat="44.715633176511005" lon="9.781496926271656"><ele>798.0</ele><time>2026-05-04T15:28:11.885Z</time></trkpt><trkpt lat="44.71555213616943" lon="9.781594288054583"><ele>798.0</ele><time>2026-05-04T15:28:12.885Z</time></trkpt><trkpt lat="44.71549631575247" lon="9.781658941926192"><ele>798.0</ele><time>2026-05-04T15:28:13.885Z</time></trkpt><trkpt lat="44.715553471383785" lon="9.78184210002304"><ele>798.0</ele><time>2026-05-04T15:28:15.885Z</time></trkpt><trkpt lat="44.7156148937259" lon="9.781903787061117"><ele>798.0</ele><time>2026-05-04T15:28:16.885Z</time></trkpt><trkpt lat="44.71570378516668" lon="9.781875513989196"><ele>798.0</ele><time>2026-05-04T15:28:17.885Z</time></trkpt><trkpt lat="44.71578773560342" lon="9.781869637038008"><ele>800.8333333333334</ele><time>2026-05-04T15:28:18.885Z</time></trkpt><trkpt lat="44.715888054866745" lon="9.781905076934217"><ele>803.6666666666667</ele><time>2026-05-04T15:28:20.885Z</time></trkpt><trkpt lat="44.715906302575235" lon="9.782031185163873"><ele>806.5</ele><time>2026-05-04T15:28:22.885Z</time></trkpt><trkpt lat="44.7158594908838" lon="9.782103192491762"><ele>809.3333333333334</ele><time>2026-05-04T15:28:23.885Z</time></trkpt><trkpt lat="44.71577744971657" lon="9.782135622030857"><ele>812.1666666666667</ele><time>2026-05-04T15:28:24.885Z</time></trkpt><trkpt lat="44.71568436103934" lon="9.782138064294609"><ele>815.0</ele><time>2026-05-04T15:28:25.885Z</time></trkpt><trkpt lat="44.71557302873991" lon="9.782124048321833"><ele>815.0</ele><time>2026-05-04T15:28:26.885Z</time></trkpt><trkpt lat="44.715422826545264" lon="9.782082146267358"><ele>815.0</ele><time>2026-05-04T15:28:27.885Z</time></trkpt><trkpt lat="44.715319698871205" lon="9.781964164535056"><ele>815.0</ele><time>2026-05-04T15:28:28.885Z</time></trkpt><trkpt lat="44.715185800840835" lon="9.78188139355527"><ele>815.0</ele><time>2026-05-04T15:28:29.885Z</time></trkpt><trkpt lat="44.71503222033734" lon="9.781822347742947"><ele>812.6666666666667</ele><time>2026-05-04T15:28:30.885Z</time></trkpt><trkpt lat="44.71488047765763" lon="9.781736020692975"><ele>810.3333333333333</ele><time>2026-05-04T15:28:31.885Z</time></trkpt><trkpt lat="44.714754873118196" lon="9.78162136986602"><ele>808.0</ele><time>2026-05-04T15:28:32.885Z</time></trkpt><trkpt lat="44.71463481089458" lon="9.781507793199815"><ele>808.0</ele><time>2026-05-04T15:28:33.885Z</time></trkpt><trkpt lat="44.71450222958358" lon="9.781392668487618"><ele>808.0</ele><time>2026-05-04T15:28:34.885Z</time></trkpt><trkpt lat="44.71424375080381" lon="9.781250309752092"><ele>808.0</ele><time>2026-05-04T15:28:36.885Z</time></trkpt><trkpt lat="44.714149378938835" lon="9.781218130195782"><ele>809.0</ele><time>2026-05-04T15:28:37.885Z</time></trkpt><trkpt lat="44.71406135165248" lon="9.781197629538909"><ele>810.0</ele><time>2026-05-04T15:28:38.885Z</time></trkpt><trkpt lat="44.713991466753264" lon="9.78119102133791"><ele>811.0</ele><time>2026-05-04T15:28:39.885Z</time></trkpt><trkpt lat="44.7138789153459" lon="9.781215253528378"><ele>812.0</ele><time>2026-05-04T15:28:41.885Z</time></trkpt><trkpt lat="44.71375196570607" lon="9.781096020205792"><ele>813.0</ele><time>2026-05-04T15:28:43.885Z</time></trkpt><trkpt lat="44.71367772467202" lon="9.781030455114456"><ele>812.8</ele><time>2026-05-04T15:28:44.885Z</time></trkpt><trkpt lat="44.7135765844318" lon="9.780968871482914"><ele>812.5999999999999</ele><time>2026-05-04T15:28:45.885Z</time></trkpt><trkpt lat="44.71347450797547" lon="9.78092485815919"><ele>812.4000000000001</ele><time>2026-05-04T15:28:46.885Z</time></trkpt><trkpt lat="44.713379482755755" lon="9.78085795145138"><ele>812.2</ele><time>2026-05-04T15:28:47.885Z</time></trkpt><trkpt lat="44.713297104957455" lon="9.780757771333827"><ele>812.0</ele><time>2026-05-04T15:28:48.885Z</time></trkpt><trkpt lat="44.71326412208817" lon="9.780606122749415"><ele>812.0</ele><time>2026-05-04T15:28:49.885Z</time></trkpt><trkpt lat="44.71326338885169" lon="9.780456428011407"><ele>812.0</ele><time>2026-05-04T15:28:50.885Z</time></trkpt><trkpt lat="44.713246733648695" lon="9.780288562896947"><ele>812.0</ele><time>2026-05-04T15:28:51.885Z</time></trkpt><trkpt lat="44.71318825096467" lon="9.78014343025447"><ele>812.0</ele><time>2026-05-04T15:28:52.885Z</time></trkpt><trkpt lat="44.71311664079898" lon="9.780007657259477"><ele>812.6</ele><time>2026-05-04T15:28:53.885Z</time></trkpt><trkpt lat="44.71304476735036" lon="9.779890410606138"><ele>813.2</ele><time>2026-05-04T15:28:54.885Z</time></trkpt><trkpt lat="44.7129826088346" lon="9.779769418193164"><ele>813.8</ele><time>2026-05-04T15:28:55.885Z</time></trkpt><trkpt lat="44.712941095742444" lon="9.779645406913328"><ele>814.4</ele><time>2026-05-04T15:28:56.885Z</time></trkpt><trkpt lat="44.712949817162844" lon="9.779508431253564"><ele>815.0</ele><time>2026-05-04T15:28:57.885Z</time></trkpt><trkpt lat="44.71298974809809" lon="9.779395177589837"><ele>815.4</ele><time>2026-05-04T15:28:58.885Z</time></trkpt><trkpt lat="44.71303092459006" lon="9.77925403492584"><ele>815.8</ele><time>2026-05-04T15:28:59.885Z</time></trkpt><trkpt lat="44.71303651492434" lon="9.77909385673429"><ele>816.2</ele><time>2026-05-04T15:29:00.886Z</time></trkpt><trkpt lat="44.7130345873623" lon="9.778948807954482"><ele>816.6</ele><time>2026-05-04T15:29:01.886Z</time></trkpt><trkpt lat="44.71299746438072" lon="9.778789955863939"><ele>817.0</ele><time>2026-05-04T15:29:02.886Z</time></trkpt><trkpt lat="44.712925913505586" lon="9.778603000506015"><ele>817.5</ele><time>2026-05-04T15:29:03.885Z</time></trkpt><trkpt lat="44.71284094226691" lon="9.778418023753956"><ele>818.0</ele><time>2026-05-04T15:29:04.885Z</time></trkpt><trkpt lat="44.712750135495696" lon="9.778258360342644"><ele>818.5</ele><time>2026-05-04T15:29:05.885Z</time></trkpt><trkpt lat="44.71266483121808" lon="9.778110969297742"><ele>819.0</ele><time>2026-05-04T15:29:06.885Z</time></trkpt><trkpt lat="44.7125858468329" lon="9.777941032121825"><ele>823.0</ele><time>2026-05-04T15:29:07.886Z</time></trkpt><trkpt lat="44.71254644961042" lon="9.777763515679059"><ele>827.0</ele><time>2026-05-04T15:29:08.886Z</time></trkpt><trkpt lat="44.71256555260379" lon="9.777586387052365"><ele>831.0</ele><time>2026-05-04T15:29:09.886Z</time></trkpt><trkpt lat="44.7126066659136" lon="9.777409083561404"><ele>835.0</ele><time>2026-05-04T15:29:10.885Z</time></trkpt><trkpt lat="44.71267162166073" lon="9.777235438158842"><ele>833.5</ele><time>2026-05-04T15:29:11.885Z</time></trkpt><trkpt lat="44.712759089245004" lon="9.777064068212264"><ele>832.0</ele><time>2026-05-04T15:29:12.886Z</time></trkpt><trkpt lat="44.71282810587994" lon="9.776927551988084"><ele>830.5</ele><time>2026-05-04T15:29:13.885Z</time></trkpt><trkpt lat="44.71287238073074" lon="9.776806070471997"><ele>829.0</ele><time>2026-05-04T15:29:14.885Z</time></trkpt><trkpt lat="44.71286713483996" lon="9.776665643185776"><ele>829.0</ele><time>2026-05-04T15:29:15.885Z</time></trkpt><trkpt lat="44.712824538949526" lon="9.776521661940974"><ele>829.0</ele><time>2026-05-04T15:29:16.885Z</time></trkpt><trkpt lat="44.7127708634844" lon="9.776372190604308"><ele>829.0</ele><time>2026-05-04T15:29:17.885Z</time></trkpt><trkpt lat="44.712686566112446" lon="9.776257282548826"><ele>829.0</ele><time>2026-05-04T15:29:18.885Z</time></trkpt><trkpt lat="44.712583386026935" lon="9.776137631026868"><ele>831.0</ele><time>2026-05-04T15:29:19.885Z</time></trkpt><trkpt lat="44.71249154694601" lon="9.776021948544736"><ele>833.0</ele><time>2026-05-04T15:29:20.885Z</time></trkpt><trkpt lat="44.712401955548074" lon="9.775907180424642"><ele>835.0</ele><time>2026-05-04T15:29:21.885Z</time></trkpt><trkpt lat="44.71233487703695" lon="9.775749250815823"><ele>837.0</ele><time>2026-05-04T15:29:22.885Z</time></trkpt><trkpt lat="44.71226306932828" lon="9.77556109815988"><ele>837.0</ele><time>2026-05-04T15:29:23.885Z</time></trkpt><trkpt lat="44.7121898239314" lon="9.775382377927826"><ele>837.0</ele><time>2026-05-04T15:29:24.885Z</time></trkpt><trkpt lat="44.712100859971514" lon="9.775214645721274"><ele>837.0</ele><time>2026-05-04T15:29:25.885Z</time></trkpt><trkpt lat="44.71199967650021" lon="9.775038769125226"><ele>836.0</ele><time>2026-05-04T15:29:26.885Z</time></trkpt><trkpt lat="44.71190929634825" lon="9.77485874322506"><ele>835.0</ele><time>2026-05-04T15:29:27.885Z</time></trkpt><trkpt lat="44.71179912646598" lon="9.774692087267878"><ele>834.0</ele><time>2026-05-04T15:29:28.885Z</time></trkpt><trkpt lat="44.711720074912584" lon="9.774484153477008"><ele>839.6666666666667</ele><time>2026-05-04T15:29:29.885Z</time></trkpt><trkpt lat="44.7116419947993" lon="9.774267274334415"><ele>845.3333333333334</ele><time>2026-05-04T15:29:30.885Z</time></trkpt><trkpt lat="44.711570097283484" lon="9.774041234178785"><ele>851.0</ele><time>2026-05-04T15:29:31.885Z</time></trkpt><trkpt lat="44.711495270870955" lon="9.773819218309155"><ele>851.0</ele><time>2026-05-04T15:29:32.885Z</time></trkpt><trkpt lat="44.71140832668876" lon="9.773620842701575"><ele>851.0</ele><time>2026-05-04T15:29:33.885Z</time></trkpt><trkpt lat="44.71135670786633" lon="9.773407208921984"><ele>851.0</ele><time>2026-05-04T15:29:34.885Z</time></trkpt><trkpt lat="44.711319357506234" lon="9.773221636516613"><ele>851.5</ele><time>2026-05-04T15:29:35.885Z</time></trkpt><trkpt lat="44.71132055695194" lon="9.773075371095617"><ele>852.0</ele><time>2026-05-04T15:29:36.885Z</time></trkpt><trkpt lat="44.71135202670306" lon="9.77294684220816"><ele>852.5</ele><time>2026-05-04T15:29:37.885Z</time></trkpt><trkpt lat="44.71141307167823" lon="9.772794828028184"><ele>853.0</ele><time>2026-05-04T15:29:38.885Z</time></trkpt><trkpt lat="44.71149857076731" lon="9.772633804228269"><ele>854.75</ele><time>2026-05-04T15:29:39.885Z</time></trkpt><trkpt lat="44.71159105950553" lon="9.772466465190263"><ele>856.5</ele><time>2026-05-04T15:29:40.885Z</time></trkpt><trkpt lat="44.71167614315392" lon="9.772299297473225"><ele>858.25</ele><time>2026-05-04T15:29:41.885Z</time></trkpt><trkpt lat="44.71175554971095" lon="9.772145886574723"><ele>860.0</ele><time>2026-05-04T15:29:42.885Z</time></trkpt><trkpt lat="44.71183543699556" lon="9.772016757970308"><ele>860.2</ele><time>2026-05-04T15:29:43.883Z</time></trkpt><trkpt lat="44.711953334515115" lon="9.771954231902377"><ele>860.4</ele><time>2026-05-04T15:29:44.882Z</time></trkpt><trkpt lat="44.71206192438754" lon="9.771886323886562"><ele>860.5999999999999</ele><time>2026-05-04T15:29:45.881Z</time></trkpt><trkpt lat="44.71214968178609" lon="9.771810893114678"><ele>860.8</ele><time>2026-05-04T15:29:46.88Z</time></trkpt><trkpt lat="44.712214393793545" lon="9.771706965549896"><ele>861.0</ele><time>2026-05-04T15:29:47.88Z</time></trkpt><trkpt lat="44.712226603438296" lon="9.771556296113591"><ele>861.0</ele><time>2026-05-04T15:29:48.879Z</time></trkpt><trkpt lat="44.71222744529151" lon="9.77139115604963"><ele>861.0</ele><time>2026-05-04T15:29:49.878Z</time></trkpt><trkpt lat="44.71226528848238" lon="9.771197272579276"><ele>861.0</ele><time>2026-05-04T15:29:50.877Z</time></trkpt><trkpt lat="44.71228546123026" lon="9.771003568202081"><ele>861.0</ele><time>2026-05-04T15:29:51.877Z</time></trkpt><trkpt lat="44.712314981522816" lon="9.77084353623938"><ele>861.4</ele><time>2026-05-04T15:29:52.876Z</time></trkpt><trkpt lat="44.71231109093901" lon="9.770715132238003"><ele>861.8</ele><time>2026-05-04T15:29:53.875Z</time></trkpt><trkpt lat="44.712278283326754" lon="9.770615916963456"><ele>862.1999999999999</ele><time>2026-05-04T15:29:54.875Z</time></trkpt><trkpt lat="44.71221309709426" lon="9.770555169276685"><ele>862.5999999999999</ele><time>2026-05-04T15:29:55.874Z</time></trkpt><trkpt lat="44.71214405346087" lon="9.77039852345578"><ele>863.0</ele><time>2026-05-04T15:29:56.874Z</time></trkpt><trkpt lat="44.7120884453274" lon="9.770221142488184"><ele>864.0</ele><time>2026-05-04T15:29:57.873Z</time></trkpt><trkpt lat="44.712082736407126" lon="9.770102961106296"><ele>865.0</ele><time>2026-05-04T15:29:58.873Z</time></trkpt><trkpt lat="44.712219851495306" lon="9.769960890873296"><ele>866.0</ele><time>2026-05-04T15:29:59.872Z</time></trkpt><trkpt lat="44.7123083688031" lon="9.769817189625314"><ele>867.0</ele><time>2026-05-04T15:30:00.872Z</time></trkpt><trkpt lat="44.71236805051098" lon="9.769701556354795"><ele>867.0</ele><time>2026-05-04T15:30:01.872Z</time></trkpt><trkpt lat="44.71240636434593" lon="9.769593163967752"><ele>867.0</ele><time>2026-05-04T15:30:02.871Z</time></trkpt><trkpt lat="44.712399790890686" lon="9.769463270577056"><ele>867.0</ele><time>2026-05-04T15:30:03.871Z</time></trkpt><trkpt lat="44.712366425138505" lon="9.769313650595848"><ele>867.0</ele><time>2026-05-04T15:30:04.871Z</time></trkpt><trkpt lat="44.71229575102446" lon="9.769176217723887"><ele>867.0</ele><time>2026-05-04T15:30:05.87Z</time></trkpt><trkpt lat="44.71219288015887" lon="9.769047181622115"><ele>866.6666666666667</ele><time>2026-05-04T15:30:06.87Z</time></trkpt><trkpt lat="44.71202599620938" lon="9.768909204926537"><ele>866.3333333333334</ele><time>2026-05-04T15:30:07.87Z</time></trkpt><trkpt lat="44.71188265317539" lon="9.768797262444899"><ele>866.0</ele><time>2026-05-04T15:30:08.87Z</time></trkpt><trkpt lat="44.711754004084796" lon="9.768708939847574"><ele>867.75</ele><time>2026-05-04T15:30:09.869Z</time></trkpt><trkpt lat="44.711622912324216" lon="9.768631333171529"><ele>869.5</ele><time>2026-05-04T15:30:10.869Z</time></trkpt><trkpt lat="44.711483016364" lon="9.768566212013107"><ele>871.25</ele><time>2026-05-04T15:30:11.869Z</time></trkpt><trkpt lat="44.71134876850301" lon="9.76852727610835"><ele>873.0</ele><time>2026-05-04T15:30:12.869Z</time></trkpt><trkpt lat="44.71121721001871" lon="9.768476394421615"><ele>873.0</ele><time>2026-05-04T15:30:13.869Z</time></trkpt><trkpt lat="44.711095002041596" lon="9.76842831056782"><ele>873.0</ele><time>2026-05-04T15:30:14.868Z</time></trkpt><trkpt lat="44.7109962477705" lon="9.768369799924825"><ele>873.0</ele><time>2026-05-04T15:30:15.868Z</time></trkpt><trkpt lat="44.710915101111375" lon="9.76829325255394"><ele>873.0</ele><time>2026-05-04T15:30:16.868Z</time></trkpt><trkpt lat="44.710839648553495" lon="9.768153023793607"><ele>879.25</ele><time>2026-05-04T15:30:17.868Z</time></trkpt><trkpt lat="44.710932345420126" lon="9.767974840127707"><ele>885.5</ele><time>2026-05-04T15:30:18.868Z</time></trkpt><trkpt lat="44.710968554105776" lon="9.7678451076911"><ele>891.75</ele><time>2026-05-04T15:30:19.868Z</time></trkpt><trkpt lat="44.710984634504285" lon="9.767647821697782"><ele>898.0</ele><time>2026-05-04T15:30:20.868Z</time></trkpt><trkpt lat="44.710988387633336" lon="9.767449820283069"><ele>898.75</ele><time>2026-05-04T15:30:21.868Z</time></trkpt><trkpt lat="44.71100550090393" lon="9.76724607724239"><ele>899.5</ele><time>2026-05-04T15:30:22.867Z</time></trkpt><trkpt lat="44.711006548468596" lon="9.76703218418701"><ele>900.25</ele><time>2026-05-04T15:30:23.867Z</time></trkpt><trkpt lat="44.71099834738629" lon="9.766843149076303"><ele>901.0</ele><time>2026-05-04T15:30:24.867Z</time></trkpt><trkpt lat="44.710985279528735" lon="9.766686398630366"><ele>901.5</ele><time>2026-05-04T15:30:25.867Z</time></trkpt><trkpt lat="44.71096341063031" lon="9.766556434339874"><ele>902.0</ele><time>2026-05-04T15:30:26.867Z</time></trkpt><trkpt lat="44.71091735181577" lon="9.766406357017852"><ele>902.5</ele><time>2026-05-04T15:30:27.867Z</time></trkpt><trkpt lat="44.71087396792195" lon="9.766234648722122"><ele>903.0</ele><time>2026-05-04T15:30:28.867Z</time></trkpt><trkpt lat="44.71083521028176" lon="9.766042986453394"><ele>902.75</ele><time>2026-05-04T15:30:29.867Z</time></trkpt><trkpt lat="44.710820794851614" lon="9.76585357715068"><ele>902.5</ele><time>2026-05-04T15:30:30.867Z</time></trkpt><trkpt lat="44.71085052315635" lon="9.765661399926044"><ele>902.25</ele><time>2026-05-04T15:30:31.867Z</time></trkpt><trkpt lat="44.710856132456605" lon="9.765448446142624"><ele>902.0</ele><time>2026-05-04T15:30:32.867Z</time></trkpt><trkpt lat="44.71087270526235" lon="9.765258965375212"><ele>900.5</ele><time>2026-05-04T15:30:33.867Z</time></trkpt><trkpt lat="44.71086934051945" lon="9.765072535639607"><ele>899.0</ele><time>2026-05-04T15:30:34.866Z</time></trkpt><trkpt lat="44.71084459671899" lon="9.764885259962671"><ele>897.5</ele><time>2026-05-04T15:30:35.866Z</time></trkpt><trkpt lat="44.71079262831978" lon="9.764697183970448"><ele>896.0</ele><time>2026-05-04T15:30:36.866Z</time></trkpt><trkpt lat="44.710746036017774" lon="9.764499766361553"><ele>893.8</ele><time>2026-05-04T15:30:37.866Z</time></trkpt><trkpt lat="44.71069876615848" lon="9.764332830050451"><ele>891.5999999999999</ele><time>2026-05-04T15:30:38.866Z</time></trkpt><trkpt lat="44.710655034494486" lon="9.76418045527128"><ele>889.4</ele><time>2026-05-04T15:30:39.866Z</time></trkpt><trkpt lat="44.71061519037163" lon="9.764055085434"><ele>887.2</ele><time>2026-05-04T15:30:40.866Z</time></trkpt><trkpt lat="44.7105563260301" lon="9.763966657196008"><ele>885.0</ele><time>2026-05-04T15:30:41.866Z</time></trkpt><trkpt lat="44.71047754275659" lon="9.763914072780096"><ele>885.0</ele><time>2026-05-04T15:30:42.866Z</time></trkpt><trkpt lat="44.7103763662716" lon="9.763924300033876"><ele>885.0</ele><time>2026-05-04T15:30:43.866Z</time></trkpt><trkpt lat="44.71027985469257" lon="9.763983121764817"><ele>885.0</ele><time>2026-05-04T15:30:44.866Z</time></trkpt><trkpt lat="44.710182159447555" lon="9.76406271460634"><ele>885.0</ele><time>2026-05-04T15:30:45.866Z</time></trkpt><trkpt lat="44.71007031947595" lon="9.764124193742603"><ele>885.0</ele><time>2026-05-04T15:30:46.866Z</time></trkpt><trkpt lat="44.709971637302" lon="9.764249716719503"><ele>894.25</ele><time>2026-05-04T15:30:47.866Z</time></trkpt><trkpt lat="44.70990679031066" lon="9.7644195688805"><ele>903.5</ele><time>2026-05-04T15:30:48.866Z</time></trkpt><trkpt lat="44.70983679651577" lon="9.764576046756185"><ele>912.75</ele><time>2026-05-04T15:30:49.866Z</time></trkpt><trkpt lat="44.70976003845652" lon="9.764705349040574"><ele>922.0</ele><time>2026-05-04T15:30:50.866Z</time></trkpt><trkpt lat="44.70966718074175" lon="9.764774814380274"><ele>922.0</ele><time>2026-05-04T15:30:51.866Z</time></trkpt><trkpt lat="44.70960381856118" lon="9.764824552108806"><ele>922.0</ele><time>2026-05-04T15:30:52.866Z</time></trkpt><trkpt lat="44.70954002249018" lon="9.764857316537585"><ele>922.0</ele><time>2026-05-04T15:30:53.866Z</time></trkpt><trkpt lat="44.70945950917456" lon="9.76478949315417"><ele>922.0</ele><time>2026-05-04T15:30:54.866Z</time></trkpt><trkpt lat="44.70939454612923" lon="9.764682610369977"><ele>922.0</ele><time>2026-05-04T15:30:55.866Z</time></trkpt><trkpt lat="44.709325995809856" lon="9.764545918024885"><ele>922.5</ele><time>2026-05-04T15:30:56.866Z</time></trkpt><trkpt lat="44.70924906601422" lon="9.764392567139451"><ele>923.0</ele><time>2026-05-04T15:30:57.866Z</time></trkpt><trkpt lat="44.70918107624118" lon="9.764216185362457"><ele>923.5</ele><time>2026-05-04T15:30:58.866Z</time></trkpt><trkpt lat="44.709116267412675" lon="9.764031133771928"><ele>924.0</ele><time>2026-05-04T15:30:59.866Z</time></trkpt><trkpt lat="44.70902863502017" lon="9.763842831774014"><ele>918.6666666666667</ele><time>2026-05-04T15:31:00.865Z</time></trkpt><trkpt lat="44.70892404757384" lon="9.763665403210641"><ele>913.3333333333334</ele><time>2026-05-04T15:31:01.865Z</time></trkpt><trkpt lat="44.70881774324667" lon="9.763471807833655"><ele>908.0</ele><time>2026-05-04T15:31:02.865Z</time></trkpt><trkpt lat="44.708705805812116" lon="9.763288094879243"><ele>909.0</ele><time>2026-05-04T15:31:03.865Z</time></trkpt><trkpt lat="44.70863236387572" lon="9.76308460267221"><ele>910.0</ele><time>2026-05-04T15:31:04.865Z</time></trkpt><trkpt lat="44.70856772318259" lon="9.762892522655934"><ele>911.0</ele><time>2026-05-04T15:31:05.865Z</time></trkpt><trkpt lat="44.708500260522484" lon="9.76268936810069"><ele>911.0</ele><time>2026-05-04T15:31:06.866Z</time></trkpt><trkpt lat="44.70846952387743" lon="9.762475581171163"><ele>911.0</ele><time>2026-05-04T15:31:07.866Z</time></trkpt><trkpt lat="44.70845000137877" lon="9.762285719658493"><ele>911.0</ele><time>2026-05-04T15:31:08.866Z</time></trkpt><trkpt lat="44.708430588811055" lon="9.762122339790098"><ele>911.0</ele><time>2026-05-04T15:31:09.866Z</time></trkpt><trkpt lat="44.70839808716689" lon="9.761998680234264"><ele>911.0</ele><time>2026-05-04T15:31:10.866Z</time></trkpt><trkpt lat="44.70832472119996" lon="9.761877661250043"><ele>911.0</ele><time>2026-05-04T15:31:11.866Z</time></trkpt><trkpt lat="44.70820354104296" lon="9.761768191493966"><ele>911.0</ele><time>2026-05-04T15:31:12.866Z</time></trkpt><trkpt lat="44.70805642219813" lon="9.761724743130324"><ele>911.0</ele><time>2026-05-04T15:31:13.866Z</time></trkpt><trkpt lat="44.707922367471035" lon="9.761701692923548"><ele>911.1999999999999</ele><time>2026-05-04T15:31:14.866Z</time></trkpt><trkpt lat="44.707805369610966" lon="9.761656571355761"><ele>911.3999999999999</ele><time>2026-05-04T15:31:15.866Z</time></trkpt><trkpt lat="44.70772245297008" lon="9.761579038433304"><ele>911.6</ele><time>2026-05-04T15:31:16.866Z</time></trkpt><trkpt lat="44.707695594085614" lon="9.76144183757306"><ele>911.8</ele><time>2026-05-04T15:31:17.866Z</time></trkpt><trkpt lat="44.70768648188745" lon="9.761300126019346"><ele>912.0</ele><time>2026-05-04T15:31:18.866Z</time></trkpt><trkpt lat="44.70767389545223" lon="9.761139517391115"><ele>911.0</ele><time>2026-05-04T15:31:19.865Z</time></trkpt><trkpt lat="44.70763634745135" lon="9.760980996077667"><ele>910.0</ele><time>2026-05-04T15:31:20.865Z</time></trkpt><trkpt lat="44.707591970714645" lon="9.760867100133078"><ele>909.0</ele><time>2026-05-04T15:31:21.865Z</time></trkpt><trkpt lat="44.70749826007934" lon="9.760778724858627"><ele>908.0</ele><time>2026-05-04T15:31:22.865Z</time></trkpt><trkpt lat="44.7073777608114" lon="9.760707621390788"><ele>908.0</ele><time>2026-05-04T15:31:23.865Z</time></trkpt><trkpt lat="44.70728491700225" lon="9.760632221584302"><ele>908.0</ele><time>2026-05-04T15:31:24.865Z</time></trkpt><trkpt lat="44.70725130478864" lon="9.760508248600628"><ele>908.0</ele><time>2026-05-04T15:31:25.865Z</time></trkpt><trkpt lat="44.70725508551748" lon="9.760391927422349"><ele>908.0</ele><time>2026-05-04T15:31:26.865Z</time></trkpt><trkpt lat="44.70727290585973" lon="9.760258824044278"><ele>908.0</ele><time>2026-05-04T15:31:27.865Z</time></trkpt><trkpt lat="44.70728906519912" lon="9.76007629026169"><ele>907.0</ele><time>2026-05-04T15:31:28.865Z</time></trkpt><trkpt lat="44.70729734003592" lon="9.759902272121261"><ele>906.0</ele><time>2026-05-04T15:31:29.865Z</time></trkpt><trkpt lat="44.707290775846474" lon="9.759732546491197"><ele>905.0</ele><time>2026-05-04T15:31:30.865Z</time></trkpt><trkpt lat="44.70726753087983" lon="9.759579038771186"><ele>904.0</ele><time>2026-05-04T15:31:31.865Z</time></trkpt><trkpt lat="44.7072357687188" lon="9.759433826722022"><ele>902.0</ele><time>2026-05-04T15:31:32.865Z</time></trkpt><trkpt lat="44.70716727572073" lon="9.759321401242294"><ele>900.0</ele><time>2026-05-04T15:31:33.865Z</time></trkpt><trkpt lat="44.7070783349525" lon="9.759144293785798"><ele>898.0</ele><time>2026-05-04T15:31:34.865Z</time></trkpt><trkpt lat="44.70701985756297" lon="9.75892580868981"><ele>896.0</ele><time>2026-05-04T15:31:35.865Z</time></trkpt><trkpt lat="44.70696866322098" lon="9.758719209651353"><ele>896.0</ele><time>2026-05-04T15:31:36.865Z</time></trkpt><trkpt lat="44.706921188838876" lon="9.758534648558756"><ele>896.0</ele><time>2026-05-04T15:31:37.865Z</time></trkpt><trkpt lat="44.706854036003726" lon="9.758361623670762"><ele>896.0</ele><time>2026-05-04T15:31:38.865Z</time></trkpt><trkpt lat="44.70676293175722" lon="9.758228140747557"><ele>896.0</ele><time>2026-05-04T15:31:39.865Z</time></trkpt><trkpt lat="44.706615159512246" lon="9.75810760890945"><ele>896.75</ele><time>2026-05-04T15:31:40.865Z</time></trkpt><trkpt lat="44.70650096652322" lon="9.757983429619296"><ele>897.5</ele><time>2026-05-04T15:31:41.865Z</time></trkpt><trkpt lat="44.70641920411109" lon="9.757830477983676"><ele>898.25</ele><time>2026-05-04T15:31:42.865Z</time></trkpt><trkpt lat="44.70629459450353" lon="9.757680901055227"><ele>899.0</ele><time>2026-05-04T15:31:43.865Z</time></trkpt><trkpt lat="44.70617500157269" lon="9.757522346022734"><ele>907.0</ele><time>2026-05-04T15:31:44.865Z</time></trkpt><trkpt lat="44.706060895916316" lon="9.757374954599495"><ele>915.0</ele><time>2026-05-04T15:31:45.865Z</time></trkpt><trkpt lat="44.70593618776142" lon="9.757205384735592"><ele>923.0</ele><time>2026-05-04T15:31:46.865Z</time></trkpt><trkpt lat="44.705856893255216" lon="9.756997224023522"><ele>918.75</ele><time>2026-05-04T15:31:47.865Z</time></trkpt><trkpt lat="44.70577707002017" lon="9.756818759660735"><ele>914.5</ele><time>2026-05-04T15:31:48.865Z</time></trkpt><trkpt lat="44.705700868089195" lon="9.756671703351978"><ele>910.25</ele><time>2026-05-04T15:31:49.865Z</time></trkpt><trkpt lat="44.7056542749442" lon="9.756508520317205"><ele>906.0</ele><time>2026-05-04T15:31:50.865Z</time></trkpt><trkpt lat="44.705631033132626" lon="9.756351699081359"><ele>906.0</ele><time>2026-05-04T15:31:51.865Z</time></trkpt><trkpt lat="44.70561243944397" lon="9.756199834089298"><ele>906.0</ele><time>2026-05-04T15:31:52.865Z</time></trkpt><trkpt lat="44.70561421467898" lon="9.75608815196228"><ele>906.0</ele><time>2026-05-04T15:31:53.865Z</time></trkpt><trkpt lat="44.705616281164204" lon="9.75599823105583"><ele>906.0</ele><time>2026-05-04T15:31:54.865Z</time></trkpt><trkpt lat="44.70556870274434" lon="9.75591010952717"><ele>906.0</ele><time>2026-05-04T15:31:55.865Z</time></trkpt><trkpt lat="44.70548795703769" lon="9.7558550694444"><ele>906.0</ele><time>2026-05-04T15:31:56.865Z</time></trkpt><trkpt lat="44.7053963044363" lon="9.755825558506839"><ele>905.1999999999999</ele><time>2026-05-04T15:31:57.865Z</time></trkpt><trkpt lat="44.705302215207745" lon="9.755831090092844"><ele>904.3999999999999</ele><time>2026-05-04T15:31:58.865Z</time></trkpt><trkpt lat="44.70521352558532" lon="9.755864614685768"><ele>903.6</ele><time>2026-05-04T15:31:59.865Z</time></trkpt><trkpt lat="44.70509958797714" lon="9.755893439085643"><ele>902.8</ele><time>2026-05-04T15:32:00.865Z</time></trkpt><trkpt lat="44.70496686450843" lon="9.755967324753867"><ele>902.0</ele><time>2026-05-04T15:32:01.865Z</time></trkpt><trkpt lat="44.70480594473301" lon="9.75600715239406"><ele>907.0</ele><time>2026-05-04T15:32:02.865Z</time></trkpt><trkpt lat="44.70464590334474" lon="9.75609273547803"><ele>912.0</ele><time>2026-05-04T15:32:03.865Z</time></trkpt><trkpt lat="44.70447863487407" lon="9.756139600800436"><ele>917.0</ele><time>2026-05-04T15:32:04.865Z</time></trkpt><trkpt lat="44.70433277000701" lon="9.756250756254714"><ele>917.0</ele><time>2026-05-04T15:32:05.865Z</time></trkpt><trkpt lat="44.70417659560588" lon="9.756326886710665"><ele>917.0</ele><time>2026-05-04T15:32:06.865Z</time></trkpt><trkpt lat="44.70402718099687" lon="9.756379599588856"><ele>917.0</ele><time>2026-05-04T15:32:07.865Z</time></trkpt><trkpt lat="44.7038904114118" lon="9.756385264645914"><ele>917.0</ele><time>2026-05-04T15:32:08.865Z</time></trkpt><trkpt lat="44.70376076340792" lon="9.756341924120632"><ele>917.0</ele><time>2026-05-04T15:32:09.865Z</time></trkpt><trkpt lat="44.70362531669323" lon="9.756260476570628"><ele>917.0</ele><time>2026-05-04T15:32:10.864Z</time></trkpt><trkpt lat="44.703498480036124" lon="9.756178750145065"><ele>917.0</ele><time>2026-05-04T15:32:11.864Z</time></trkpt><trkpt lat="44.70336085987787" lon="9.75612647312478"><ele>918.75</ele><time>2026-05-04T15:32:12.864Z</time></trkpt><trkpt lat="44.703216808292794" lon="9.756124998656317"><ele>920.5</ele><time>2026-05-04T15:32:13.864Z</time></trkpt><trkpt lat="44.70306397316865" lon="9.756134008204052"><ele>922.25</ele><time>2026-05-04T15:32:14.864Z</time></trkpt><trkpt lat="44.70291507617677" lon="9.756148930798634"><ele>924.0</ele><time>2026-05-04T15:32:15.864Z</time></trkpt><trkpt lat="44.702768997955395" lon="9.756192257773197"><ele>922.75</ele><time>2026-05-04T15:32:16.864Z</time></trkpt><trkpt lat="44.702634581653776" lon="9.756258215821665"><ele>921.5</ele><time>2026-05-04T15:32:17.864Z</time></trkpt><trkpt lat="44.70250306940754" lon="9.756344327956553"><ele>920.25</ele><time>2026-05-04T15:32:18.864Z</time></trkpt><trkpt lat="44.70237553978989" lon="9.756449192460067"><ele>919.0</ele><time>2026-05-04T15:32:19.864Z</time></trkpt><trkpt lat="44.70225126977864" lon="9.756549773221565"><ele>919.0</ele><time>2026-05-04T15:32:20.864Z</time></trkpt><trkpt lat="44.70214158666457" lon="9.756633356862665"><ele>919.0</ele><time>2026-05-04T15:32:21.864Z</time></trkpt><trkpt lat="44.70203217946179" lon="9.756707562556498"><ele>919.0</ele><time>2026-05-04T15:32:22.864Z</time></trkpt><trkpt lat="44.70195817933353" lon="9.756817249942157"><ele>919.0</ele><time>2026-05-04T15:32:23.864Z</time></trkpt><trkpt lat="44.701912422115534" lon="9.756983375027357"><ele>917.25</ele><time>2026-05-04T15:32:24.864Z</time></trkpt><trkpt lat="44.701913554612574" lon="9.757164673953746"><ele>915.5</ele><time>2026-05-04T15:32:25.864Z</time></trkpt><trkpt lat="44.701899526111326" lon="9.757333772907433"><ele>913.75</ele><time>2026-05-04T15:32:26.864Z</time></trkpt><trkpt lat="44.70184203884419" lon="9.75747688101575"><ele>912.0</ele><time>2026-05-04T15:32:27.864Z</time></trkpt><trkpt lat="44.70175404851526" lon="9.757612805473919"><ele>914.0</ele><time>2026-05-04T15:32:28.864Z</time></trkpt><trkpt lat="44.701647238838405" lon="9.757765591244173"><ele>916.0</ele><time>2026-05-04T15:32:29.864Z</time></trkpt><trkpt lat="44.70154129976905" lon="9.757917264384126"><ele>918.0</ele><time>2026-05-04T15:32:30.864Z</time></trkpt><trkpt lat="44.70144760264597" lon="9.758049684648535"><ele>920.0</ele><time>2026-05-04T15:32:31.864Z</time></trkpt><trkpt lat="44.701368323133494" lon="9.758185791831398"><ele>920.0</ele><time>2026-05-04T15:32:32.864Z</time></trkpt><trkpt lat="44.7013091462596" lon="9.758328839512174"><ele>920.0</ele><time>2026-05-04T15:32:33.864Z</time></trkpt><trkpt lat="44.70128109745297" lon="9.75850836753992"><ele>920.0</ele><time>2026-05-04T15:32:34.864Z</time></trkpt><trkpt lat="44.701303750810744" lon="9.758684832792186"><ele>920.0</ele><time>2026-05-04T15:32:35.864Z</time></trkpt><trkpt lat="44.70132825386079" lon="9.758837549551897"><ele>922.0</ele><time>2026-05-04T15:32:36.864Z</time></trkpt><trkpt lat="44.701336376051046" lon="9.758955687274087"><ele>924.0</ele><time>2026-05-04T15:32:37.864Z</time></trkpt><trkpt lat="44.701307030855205" lon="9.759059573898654"><ele>926.0</ele><time>2026-05-04T15:32:38.864Z</time></trkpt><trkpt lat="44.70123674236636" lon="9.759146045796179"><ele>928.0</ele><time>2026-05-04T15:32:39.864Z</time></trkpt><trkpt lat="44.701142569119234" lon="9.759257478082663"><ele>930.0</ele><time>2026-05-04T15:32:40.864Z</time></trkpt><trkpt lat="44.70105408608692" lon="9.759337038747494"><ele>927.5</ele><time>2026-05-04T15:32:41.864Z</time></trkpt><trkpt lat="44.70099916271886" lon="9.759461564499386"><ele>925.0</ele><time>2026-05-04T15:32:42.864Z</time></trkpt><trkpt lat="44.70097762321897" lon="9.759618350203764"><ele>922.5</ele><time>2026-05-04T15:32:43.864Z</time></trkpt><trkpt lat="44.7009518088081" lon="9.759805304480262"><ele>920.0</ele><time>2026-05-04T15:32:44.864Z</time></trkpt><trkpt lat="44.70092074104421" lon="9.759986493915575"><ele>920.0</ele><time>2026-05-04T15:32:45.864Z</time></trkpt><trkpt lat="44.70087142591354" lon="9.760169212622024"><ele>920.0</ele><time>2026-05-04T15:32:46.864Z</time></trkpt><trkpt lat="44.70078731188296" lon="9.760353808930232"><ele>920.0</ele><time>2026-05-04T15:32:47.864Z</time></trkpt><trkpt lat="44.70069052657878" lon="9.760528283435024"><ele>924.3333333333334</ele><time>2026-05-04T15:32:48.864Z</time></trkpt><trkpt lat="44.70056494598697" lon="9.760662377747588"><ele>928.6666666666667</ele><time>2026-05-04T15:32:49.864Z</time></trkpt><trkpt lat="44.70042864574759" lon="9.760782900525545"><ele>933.0</ele><time>2026-05-04T15:32:50.864Z</time></trkpt><trkpt lat="44.70031238900512" lon="9.760914228980171"><ele>932.75</ele><time>2026-05-04T15:32:51.864Z</time></trkpt><trkpt lat="44.700205371347344" lon="9.76103571115016"><ele>932.5</ele><time>2026-05-04T15:32:52.864Z</time></trkpt><trkpt lat="44.70011616136017" lon="9.761171519466973"><ele>932.25</ele><time>2026-05-04T15:32:53.864Z</time></trkpt><trkpt lat="44.70007438328221" lon="9.761341510301524"><ele>932.0</ele><time>2026-05-04T15:32:54.864Z</time></trkpt><trkpt lat="44.700016173987926" lon="9.761516402908178"><ele>932.0</ele><time>2026-05-04T15:32:55.864Z</time></trkpt><trkpt lat="44.69999344803547" lon="9.7616895683487"><ele>932.0</ele><time>2026-05-04T15:32:56.864Z</time></trkpt><trkpt lat="44.69993148687692" lon="9.761813170477533"><ele>932.0</ele><time>2026-05-04T15:32:57.864Z</time></trkpt><trkpt lat="44.69984931605475" lon="9.76188034212015"><ele>932.0</ele><time>2026-05-04T15:32:58.864Z</time></trkpt><trkpt lat="44.69976107689781" lon="9.761932965210011"><ele>932.0</ele><time>2026-05-04T15:32:59.864Z</time></trkpt><trkpt lat="44.699658668243046" lon="9.761936810089713"><ele>934.25</ele><time>2026-05-04T15:33:00.864Z</time></trkpt><trkpt lat="44.69955205406279" lon="9.761964733171505"><ele>936.5</ele><time>2026-05-04T15:33:01.864Z</time></trkpt><trkpt lat="44.699436697573425" lon="9.761951132653497"><ele>938.75</ele><time>2026-05-04T15:33:02.864Z</time></trkpt><trkpt lat="44.69931160427236" lon="9.761938286075374"><ele>941.0</ele><time>2026-05-04T15:33:03.863Z</time></trkpt><trkpt lat="44.69917862307923" lon="9.76192755991799"><ele>941.0</ele><time>2026-05-04T15:33:04.863Z</time></trkpt><trkpt lat="44.69904254300158" lon="9.761925425044012"><ele>941.0</ele><time>2026-05-04T15:33:05.863Z</time></trkpt><trkpt lat="44.698900476962315" lon="9.761969773780407"><ele>941.0</ele><time>2026-05-04T15:33:06.863Z</time></trkpt><trkpt lat="44.698785271094415" lon="9.762072145083197"><ele>941.0</ele><time>2026-05-04T15:33:07.863Z</time></trkpt><trkpt lat="44.69867121161793" lon="9.762208766511757"><ele>939.25</ele><time>2026-05-04T15:33:08.863Z</time></trkpt><trkpt lat="44.69855306269587" lon="9.762339437574484"><ele>937.5</ele><time>2026-05-04T15:33:09.863Z</time></trkpt><trkpt lat="44.69843529164954" lon="9.762476512394203"><ele>935.75</ele><time>2026-05-04T15:33:10.863Z</time></trkpt><trkpt lat="44.698310134519424" lon="9.762569643219857"><ele>934.0</ele><time>2026-05-04T15:33:11.863Z</time></trkpt><trkpt lat="44.69819693437273" lon="9.762651260385313"><ele>935.6666666666666</ele><time>2026-05-04T15:33:12.864Z</time></trkpt><trkpt lat="44.69811654674971" lon="9.762747476290576"><ele>937.3333333333333</ele><time>2026-05-04T15:33:13.864Z</time></trkpt><trkpt lat="44.69805198218553" lon="9.762812884653245"><ele>939.0</ele><time>2026-05-04T15:33:14.864Z</time></trkpt><trkpt lat="44.697992523899494" lon="9.762893711895051"><ele>940.6666666666667</ele><time>2026-05-04T15:33:16.864Z</time></trkpt><trkpt lat="44.6979326711896" lon="9.762935850471639"><ele>942.3333333333334</ele><time>2026-05-04T15:33:19.864Z</time></trkpt><trkpt lat="44.69800611026758" lon="9.762879399274555"><ele>944.0</ele><time>2026-05-04T15:33:31.865Z</time></trkpt><trkpt lat="44.69808002270668" lon="9.762787741646505"><ele>944.0</ele><time>2026-05-04T15:33:33.865Z</time></trkpt><trkpt lat="44.6981498243022" lon="9.76271395769309"><ele>944.0000000000001</ele><time>2026-05-04T15:33:34.865Z</time></trkpt><trkpt lat="44.69821861356718" lon="9.762645228245784"><ele>944.0000000000001</ele><time>2026-05-04T15:33:35.864Z</time></trkpt><trkpt lat="44.69830808320057" lon="9.762566574806971"><ele>944.0</ele><time>2026-05-04T15:33:36.864Z</time></trkpt><trkpt lat="44.69842224967945" lon="9.76250250228756"><ele>944.0</ele><time>2026-05-04T15:33:37.864Z</time></trkpt><trkpt lat="44.69842778361434" lon="9.762384176264257"><ele>943.4000000000001</ele><time>2026-05-04T15:33:38.864Z</time></trkpt><trkpt lat="44.69849583406558" lon="9.762328206848917"><ele>942.8000000000001</ele><time>2026-05-04T15:33:39.864Z</time></trkpt><trkpt lat="44.69856542531561" lon="9.762279661729325"><ele>942.1999999999999</ele><time>2026-05-04T15:33:40.864Z</time></trkpt><trkpt lat="44.698619779549794" lon="9.762225092186796"><ele>941.5999999999999</ele><time>2026-05-04T15:33:41.864Z</time></trkpt><trkpt lat="44.69872263564512" lon="9.762119784063838"><ele>941.0</ele><time>2026-05-04T15:33:43.864Z</time></trkpt><trkpt lat="44.698822071981404" lon="9.762025143422056"><ele>941.0</ele><time>2026-05-04T15:33:45.864Z</time></trkpt><trkpt lat="44.69893392353115" lon="9.761963139803166"><ele>940.9999999999999</ele><time>2026-05-04T15:33:47.864Z</time></trkpt><trkpt lat="44.699018938042755" lon="9.761939559813785"><ele>940.9999999999999</ele><time>2026-05-04T15:33:48.864Z</time></trkpt><trkpt lat="44.699110766352845" lon="9.76191502589725"><ele>941.0</ele><time>2026-05-04T15:33:49.864Z</time></trkpt><trkpt lat="44.69920468592912" lon="9.761924906098512"><ele>941.0</ele><time>2026-05-04T15:33:50.864Z</time></trkpt><trkpt lat="44.69930255807454" lon="9.761926678845288"><ele>941.0</ele><time>2026-05-04T15:33:51.864Z</time></trkpt><trkpt lat="44.69941398274801" lon="9.761937652589037"><ele>940.9999999999999</ele><time>2026-05-04T15:33:52.864Z</time></trkpt><trkpt lat="44.699527811992866" lon="9.761956353787115"><ele>940.9999999999999</ele><time>2026-05-04T15:33:53.864Z</time></trkpt><trkpt lat="44.699625114323496" lon="9.761966329863887"><ele>941.0</ele><time>2026-05-04T15:33:54.864Z</time></trkpt><trkpt lat="44.69969235761661" lon="9.761962906654244"><ele>941.0</ele><time>2026-05-04T15:33:55.864Z</time></trkpt><trkpt lat="44.6997864701262" lon="9.761903682762744"><ele>939.1999999999999</ele><time>2026-05-04T15:33:57.864Z</time></trkpt><trkpt lat="44.699778586017786" lon="9.761787134757475"><ele>937.3999999999999</ele><time>2026-05-04T15:33:59.864Z</time></trkpt><trkpt lat="44.69968504441106" lon="9.761741535527724"><ele>935.6</ele><time>2026-05-04T15:34:00.864Z</time></trkpt><trkpt lat="44.69959007117986" lon="9.761751022334469"><ele>933.8</ele><time>2026-05-04T15:34:02.864Z</time></trkpt><trkpt lat="44.69945910376226" lon="9.761752399763441"><ele>932.0</ele><time>2026-05-04T15:34:04.864Z</time></trkpt><trkpt lat="44.69938179534692" lon="9.761738272993446"><ele>930.0</ele><time>2026-05-04T15:34:05.864Z</time></trkpt><trkpt lat="44.69929063227087" lon="9.761722740938973"><ele>928.0</ele><time>2026-05-04T15:34:06.864Z</time></trkpt><trkpt lat="44.699192254584474" lon="9.761707904658888"><ele>926.0</ele><time>2026-05-04T15:34:07.864Z</time></trkpt><trkpt lat="44.69908461216357" lon="9.761722502914017"><ele>924.0</ele><time>2026-05-04T15:34:08.864Z</time></trkpt><trkpt lat="44.69897938930957" lon="9.761732823239429"><ele>922.0</ele><time>2026-05-04T15:34:09.864Z</time></trkpt><trkpt lat="44.698872046044755" lon="9.761750618069208"><ele>922.0</ele><time>2026-05-04T15:34:10.864Z</time></trkpt><trkpt lat="44.69877343584095" lon="9.761791571724304"><ele>922.0</ele><time>2026-05-04T15:34:11.864Z</time></trkpt><trkpt lat="44.6986893221771" lon="9.761838305673113"><ele>922.0</ele><time>2026-05-04T15:34:12.864Z</time></trkpt><trkpt lat="44.698601853601424" lon="9.761857057002102"><ele>922.0</ele><time>2026-05-04T15:34:13.864Z</time></trkpt><trkpt lat="44.69850712034558" lon="9.761842457008708"><ele>922.0</ele><time>2026-05-04T15:34:14.864Z</time></trkpt><trkpt lat="44.69839975817321" lon="9.761766660787924"><ele>921.75</ele><time>2026-05-04T15:34:15.864Z</time></trkpt><trkpt lat="44.69829104779624" lon="9.76168229972608"><ele>921.5</ele><time>2026-05-04T15:34:16.864Z</time></trkpt><trkpt lat="44.69818833372601" lon="9.761589595136538"><ele>921.25</ele><time>2026-05-04T15:34:17.864Z</time></trkpt><trkpt lat="44.69810036286765" lon="9.761476062790608"><ele>921.0</ele><time>2026-05-04T15:34:18.864Z</time></trkpt><trkpt lat="44.69800206117256" lon="9.761389328789823"><ele>921.0</ele><time>2026-05-04T15:34:19.864Z</time></trkpt><trkpt lat="44.69792757270388" lon="9.761289256289597"><ele>920.9999999999999</ele><time>2026-05-04T15:34:20.864Z</time></trkpt><trkpt lat="44.69784701833023" lon="9.761224463123082"><ele>920.9999999999999</ele><time>2026-05-04T15:34:21.864Z</time></trkpt><trkpt lat="44.697729262765435" lon="9.761223767473261"><ele>921.0</ele><time>2026-05-04T15:34:22.864Z</time></trkpt><trkpt lat="44.69760668152408" lon="9.761217957579998"><ele>921.0</ele><time>2026-05-04T15:34:23.864Z</time></trkpt><trkpt lat="44.69749641132379" lon="9.761240117915227"><ele>921.1999999999999</ele><time>2026-05-04T15:34:24.864Z</time></trkpt><trkpt lat="44.697395886451226" lon="9.76126551584691"><ele>921.3999999999999</ele><time>2026-05-04T15:34:25.864Z</time></trkpt><trkpt lat="44.697302102578675" lon="9.761288792988394"><ele>921.6</ele><time>2026-05-04T15:34:26.864Z</time></trkpt><trkpt lat="44.69721204070552" lon="9.761301293410968"><ele>921.8</ele><time>2026-05-04T15:34:27.864Z</time></trkpt><trkpt lat="44.697122011153965" lon="9.76127961870253"><ele>922.0</ele><time>2026-05-04T15:34:28.863Z</time></trkpt><trkpt lat="44.69704994659085" lon="9.76118676240702"><ele>922.0</ele><time>2026-05-04T15:34:29.863Z</time></trkpt><trkpt lat="44.696971281413695" lon="9.76106214307089"><ele>922.0</ele><time>2026-05-04T15:34:30.863Z</time></trkpt><trkpt lat="44.69689691091438" lon="9.760932162477514"><ele>922.0</ele><time>2026-05-04T15:34:31.863Z</time></trkpt><trkpt lat="44.69680450525877" lon="9.760808383915437"><ele>922.0</ele><time>2026-05-04T15:34:32.863Z</time></trkpt><trkpt lat="44.69673210876771" lon="9.760667669266471"><ele>922.0</ele><time>2026-05-04T15:34:33.863Z</time></trkpt><trkpt lat="44.696696315916995" lon="9.76048802366293"><ele>922.0</ele><time>2026-05-04T15:34:34.863Z</time></trkpt><trkpt lat="44.69665931788886" lon="9.760309219807127"><ele>922.0</ele><time>2026-05-04T15:34:35.863Z</time></trkpt><trkpt lat="44.69662748593263" lon="9.760139207955875"><ele>922.0</ele><time>2026-05-04T15:34:36.863Z</time></trkpt><trkpt lat="44.69660206309315" lon="9.759986124150826"><ele>919.6</ele><time>2026-05-04T15:34:37.863Z</time></trkpt><trkpt lat="44.6965732315104" lon="9.759839418215893"><ele>917.2</ele><time>2026-05-04T15:34:38.863Z</time></trkpt><trkpt lat="44.696535808575256" lon="9.75971859644947"><ele>914.8</ele><time>2026-05-04T15:34:39.863Z</time></trkpt><trkpt lat="44.69648567741741" lon="9.759614757578197"><ele>912.4</ele><time>2026-05-04T15:34:40.863Z</time></trkpt><trkpt lat="44.69638001630907" lon="9.75953352191177"><ele>910.0</ele><time>2026-05-04T15:34:41.863Z</time></trkpt><trkpt lat="44.69624440955248" lon="9.759457740516623"><ele>910.0</ele><time>2026-05-04T15:34:42.863Z</time></trkpt><trkpt lat="44.69610855064644" lon="9.759427861000562"><ele>910.0</ele><time>2026-05-04T15:34:43.863Z</time></trkpt><trkpt lat="44.69596266305539" lon="9.759409067785716"><ele>910.0</ele><time>2026-05-04T15:34:44.863Z</time></trkpt><trkpt lat="44.69581695624213" lon="9.7593970735768"><ele>910.0</ele><time>2026-05-04T15:34:45.863Z</time></trkpt><trkpt lat="44.69568212395533" lon="9.759413957390626"><ele>909.2</ele><time>2026-05-04T15:34:46.863Z</time></trkpt><trkpt lat="44.69556968362301" lon="9.759408035616401"><ele>908.4</ele><time>2026-05-04T15:34:47.863Z</time></trkpt><trkpt lat="44.695476896440894" lon="9.759379107903113"><ele>907.5999999999999</ele><time>2026-05-04T15:34:48.863Z</time></trkpt><trkpt lat="44.695389703567564" lon="9.759311635798735"><ele>906.8</ele><time>2026-05-04T15:34:49.863Z</time></trkpt><trkpt lat="44.695331294064424" lon="9.759159959429338"><ele>906.0</ele><time>2026-05-04T15:34:50.863Z</time></trkpt><trkpt lat="44.69525093624058" lon="9.759046528369698"><ele>906.0</ele><time>2026-05-04T15:34:51.863Z</time></trkpt><trkpt lat="44.69519474005469" lon="9.758884027200953"><ele>906.0</ele><time>2026-05-04T15:34:52.863Z</time></trkpt><trkpt lat="44.69510543761797" lon="9.75870432372823"><ele>906.0</ele><time>2026-05-04T15:34:53.863Z</time></trkpt><trkpt lat="44.695001670302545" lon="9.758591583348561"><ele>906.0</ele><time>2026-05-04T15:34:54.863Z</time></trkpt><trkpt lat="44.69490786909063" lon="9.758504886049874"><ele>903.75</ele><time>2026-05-04T15:34:55.863Z</time></trkpt><trkpt lat="44.69478444109072" lon="9.75849139428072"><ele>901.5</ele><time>2026-05-04T15:34:56.863Z</time></trkpt><trkpt lat="44.69466049879437" lon="9.758443915544344"><ele>899.25</ele><time>2026-05-04T15:34:57.863Z</time></trkpt><trkpt lat="44.694556372251775" lon="9.758402362826438"><ele>897.0</ele><time>2026-05-04T15:34:58.863Z</time></trkpt><trkpt lat="44.69450985870803" lon="9.758262172320395"><ele>897.0</ele><time>2026-05-04T15:34:59.863Z</time></trkpt><trkpt lat="44.694439402000185" lon="9.758122401356475"><ele>897.0</ele><time>2026-05-04T15:35:00.863Z</time></trkpt><trkpt lat="44.69435464066575" lon="9.757970973844595"><ele>897.0</ele><time>2026-05-04T15:35:01.863Z</time></trkpt><trkpt lat="44.694274495906825" lon="9.757880160088318"><ele>897.0</ele><time>2026-05-04T15:35:02.863Z</time></trkpt><trkpt lat="44.6941957434127" lon="9.75782611558281"><ele>897.0</ele><time>2026-05-04T15:35:03.863Z</time></trkpt><trkpt lat="44.694109452121374" lon="9.75778240456231"><ele>896.0</ele><time>2026-05-04T15:35:04.863Z</time></trkpt><trkpt lat="44.694030494362835" lon="9.75770847493502"><ele>895.0</ele><time>2026-05-04T15:35:05.863Z</time></trkpt><trkpt lat="44.69394972102844" lon="9.757615628987383"><ele>894.0</ele><time>2026-05-04T15:35:06.863Z</time></trkpt><trkpt lat="44.69386343649317" lon="9.757533437575963"><ele>893.0</ele><time>2026-05-04T15:35:07.863Z</time></trkpt><trkpt lat="44.69379266481304" lon="9.757448523623474"><ele>892.0</ele><time>2026-05-04T15:35:08.863Z</time></trkpt><trkpt lat="44.69372219617587" lon="9.757342392824253"><ele>892.0</ele><time>2026-05-04T15:35:09.863Z</time></trkpt><trkpt lat="44.693674114447596" lon="9.757219140163414"><ele>892.0</ele><time>2026-05-04T15:35:10.863Z</time></trkpt><trkpt lat="44.693637991002106" lon="9.757110339726518"><ele>892.0</ele><time>2026-05-04T15:35:11.863Z</time></trkpt><trkpt lat="44.69358790899135" lon="9.757012027812811"><ele>892.0</ele><time>2026-05-04T15:35:12.863Z</time></trkpt><trkpt lat="44.69350986562298" lon="9.756962596050634"><ele>892.0</ele><time>2026-05-04T15:35:13.863Z</time></trkpt><trkpt lat="44.69338543454375" lon="9.75693971521899"><ele>891.5</ele><time>2026-05-04T15:35:14.863Z</time></trkpt><trkpt lat="44.69325664302256" lon="9.756939337200345"><ele>891.0</ele><time>2026-05-04T15:35:15.863Z</time></trkpt><trkpt lat="44.693122730742864" lon="9.756935117395429"><ele>890.5</ele><time>2026-05-04T15:35:16.863Z</time></trkpt><trkpt lat="44.69300446855545" lon="9.756918053661797"><ele>890.0</ele><time>2026-05-04T15:35:17.863Z</time></trkpt><trkpt lat="44.6928966847882" lon="9.756799339262642"><ele>890.0</ele><time>2026-05-04T15:35:18.863Z</time></trkpt><trkpt lat="44.69276462635816" lon="9.756681604456668"><ele>890.0</ele><time>2026-05-04T15:35:19.863Z</time></trkpt><trkpt lat="44.692657693530364" lon="9.75660419258087"><ele>890.0</ele><time>2026-05-04T15:35:20.863Z</time></trkpt><trkpt lat="44.6925547286075" lon="9.756514320298722"><ele>890.0</ele><time>2026-05-04T15:35:21.863Z</time></trkpt><trkpt lat="44.692503533151736" lon="9.756388882560902"><ele>889.5</ele><time>2026-05-04T15:35:22.863Z</time></trkpt><trkpt lat="44.69246052517477" lon="9.756247367368097"><ele>889.0</ele><time>2026-05-04T15:35:23.863Z</time></trkpt><trkpt lat="44.69238385282557" lon="9.756086865558359"><ele>888.5</ele><time>2026-05-04T15:35:24.862Z</time></trkpt><trkpt lat="44.69231613813873" lon="9.755913200977714"><ele>888.0</ele><time>2026-05-04T15:35:25.863Z</time></trkpt><trkpt lat="44.69224772823791" lon="9.75576879260108"><ele>888.0</ele><time>2026-05-04T15:35:26.863Z</time></trkpt><trkpt lat="44.69217676512482" lon="9.75563296435707"><ele>888.0</ele><time>2026-05-04T15:35:27.863Z</time></trkpt><trkpt lat="44.69211863996123" lon="9.7554961339667"><ele>888.0</ele><time>2026-05-04T15:35:28.862Z</time></trkpt><trkpt lat="44.692078973680495" lon="9.755331174655693"><ele>888.0</ele><time>2026-05-04T15:35:29.862Z</time></trkpt><trkpt lat="44.69205885995548" lon="9.755156656241425"><ele>889.75</ele><time>2026-05-04T15:35:30.863Z</time></trkpt><trkpt lat="44.6920354878417" lon="9.755005446036341"><ele>891.5</ele><time>2026-05-04T15:35:31.863Z</time></trkpt><trkpt lat="44.6919757370809" lon="9.754889282785536"><ele>893.25</ele><time>2026-05-04T15:35:32.862Z</time></trkpt><trkpt lat="44.691887277267405" lon="9.754781875617995"><ele>895.0</ele><time>2026-05-04T15:35:33.862Z</time></trkpt><trkpt lat="44.691762767248846" lon="9.754685703237646"><ele>895.0</ele><time>2026-05-04T15:35:34.862Z</time></trkpt><trkpt lat="44.69163361142259" lon="9.754599663968937"><ele>895.0</ele><time>2026-05-04T15:35:35.862Z</time></trkpt><trkpt lat="44.691518571085126" lon="9.754476818582207"><ele>895.0</ele><time>2026-05-04T15:35:36.862Z</time></trkpt><trkpt lat="44.69140386021118" lon="9.754317954067165"><ele>895.0</ele><time>2026-05-04T15:35:37.862Z</time></trkpt><trkpt lat="44.69129586220214" lon="9.754155139029667"><ele>894.0</ele><time>2026-05-04T15:35:38.862Z</time></trkpt><trkpt lat="44.69119035811269" lon="9.75401875516403"><ele>893.0</ele><time>2026-05-04T15:35:39.862Z</time></trkpt><trkpt lat="44.69106335794938" lon="9.753912005395875"><ele>892.0</ele><time>2026-05-04T15:35:40.862Z</time></trkpt><trkpt lat="44.690917539312494" lon="9.753821594016038"><ele>892.0</ele><time>2026-05-04T15:35:41.862Z</time></trkpt><trkpt lat="44.69079424684405" lon="9.753728326262049"><ele>892.0</ele><time>2026-05-04T15:35:42.862Z</time></trkpt><trkpt lat="44.690686964454294" lon="9.7535796469904"><ele>892.0</ele><time>2026-05-04T15:35:43.862Z</time></trkpt><trkpt lat="44.690575146465534" lon="9.753398733098557"><ele>891.25</ele><time>2026-05-04T15:35:44.862Z</time></trkpt><trkpt lat="44.69046320158342" lon="9.753244091115224"><ele>890.5</ele><time>2026-05-04T15:35:45.862Z</time></trkpt><trkpt lat="44.690359947061715" lon="9.753105371428395"><ele>889.75</ele><time>2026-05-04T15:35:46.862Z</time></trkpt><trkpt lat="44.690246177445054" lon="9.752996013648254"><ele>889.0</ele><time>2026-05-04T15:35:47.862Z</time></trkpt><trkpt lat="44.690128120637354" lon="9.752893118260575"><ele>889.0</ele><time>2026-05-04T15:35:48.862Z</time></trkpt><trkpt lat="44.690030606654695" lon="9.752759072772797"><ele>889.0</ele><time>2026-05-04T15:35:49.862Z</time></trkpt><trkpt lat="44.689999677879754" lon="9.75254622300826"><ele>889.0</ele><time>2026-05-04T15:35:50.862Z</time></trkpt><trkpt lat="44.68993142486831" lon="9.752355037377145"><ele>889.0</ele><time>2026-05-04T15:35:51.862Z</time></trkpt><trkpt lat="44.68987417782274" lon="9.752158075086863"><ele>886.25</ele><time>2026-05-04T15:35:52.862Z</time></trkpt><trkpt lat="44.68979699839019" lon="9.75198309837877"><ele>883.5</ele><time>2026-05-04T15:35:53.862Z</time></trkpt><trkpt lat="44.68971282922468" lon="9.75180940958449"><ele>880.75</ele><time>2026-05-04T15:35:54.862Z</time></trkpt><trkpt lat="44.68962892435268" lon="9.75165252428288"><ele>878.0</ele><time>2026-05-04T15:35:55.862Z</time></trkpt><trkpt lat="44.68954847263357" lon="9.751503422584346"><ele>877.5</ele><time>2026-05-04T15:35:56.862Z</time></trkpt><trkpt lat="44.689475531419774" lon="9.751346654337173"><ele>877.0</ele><time>2026-05-04T15:35:57.862Z</time></trkpt><trkpt lat="44.68940413902493" lon="9.751195124773574"><ele>876.5</ele><time>2026-05-04T15:35:58.862Z</time></trkpt><trkpt lat="44.68932911106071" lon="9.75105789791383"><ele>876.0</ele><time>2026-05-04T15:35:59.862Z</time></trkpt><trkpt lat="44.689274172317305" lon="9.75091775637847"><ele>876.0</ele><time>2026-05-04T15:36:00.862Z</time></trkpt><trkpt lat="44.68924958852376" lon="9.750748287204946"><ele>876.0</ele><time>2026-05-04T15:36:01.862Z</time></trkpt><trkpt lat="44.68923954831588" lon="9.75058606479635"><ele>876.0</ele><time>2026-05-04T15:36:02.862Z</time></trkpt><trkpt lat="44.68923089353663" lon="9.7504430219753"><ele>876.0</ele><time>2026-05-04T15:36:03.862Z</time></trkpt><trkpt lat="44.68916875778385" lon="9.750256467179502"><ele>873.8</ele><time>2026-05-04T15:36:05.862Z</time></trkpt><trkpt lat="44.68911267819324" lon="9.75018380322639"><ele>871.5999999999999</ele><time>2026-05-04T15:36:06.862Z</time></trkpt><trkpt lat="44.68905295281624" lon="9.750108909946006"><ele>869.4</ele><time>2026-05-04T15:36:07.862Z</time></trkpt><trkpt lat="44.68896699208368" lon="9.750029738588532"><ele>867.2</ele><time>2026-05-04T15:36:08.862Z</time></trkpt><trkpt lat="44.68891070906769" lon="9.749915117556515"><ele>865.0</ele><time>2026-05-04T15:36:09.862Z</time></trkpt><trkpt lat="44.688849698553426" lon="9.749808018503051"><ele>864.9999999999999</ele><time>2026-05-04T15:36:10.862Z</time></trkpt><trkpt lat="44.68881172331881" lon="9.74966632578231"><ele>865.0</ele><time>2026-05-04T15:36:11.862Z</time></trkpt><trkpt lat="44.688793877098156" lon="9.74955907246915"><ele>865.0</ele><time>2026-05-04T15:36:12.862Z</time></trkpt><trkpt lat="44.688781437264005" lon="9.749450426584316"><ele>865.0</ele><time>2026-05-04T15:36:13.862Z</time></trkpt><trkpt lat="44.688785086532754" lon="9.749339598342125"><ele>864.9999999999999</ele><time>2026-05-04T15:36:14.862Z</time></trkpt><trkpt lat="44.68879043619403" lon="9.749207450138078"><ele>865.0</ele><time>2026-05-04T15:36:15.862Z</time></trkpt><trkpt lat="44.688816851310925" lon="9.749107101442545"><ele>858.0</ele><time>2026-05-04T15:36:16.862Z</time></trkpt></trkseg></trk></gpx>